<?xml version="1.0" encoding="UTF-8" standalone="no" ?>
<gpx xmlns="http://www.topografix.com/GPX/1/1" xmlns:xsi="http://www.w3.org/2001/XMLSchema-instance" xsi:schemaLocation="http://www.topografix.com/GPX/1/1 http://www.topografix.com/GPX/1/1/gpx.xsd" version="1.1" creator="VisuGPX - https://www.visugpx.com">
  <metadata>
    <name>Rando VTT des Saute-Ribes de Mazan 35km</name>
    <desc><![CDATA[Il s'agit de la randonnée annuelle du club des Saute-Ribes de Mazan, édition 2012 ( 15 sept. 2012 exactement )
Ce n'est que le tracé principal, des petites boucles additionnelles permettaient de ralloonger le circuit, mais je n'ai pu les faire, vu que j'accompagnais des personnes ayant peu l'habitude de ce sport.
Circuit très ludique, pas très dur physiquement, assez abordable pour Mr et Mme Tout-le-monde. Quelques passages sont un peu techniques cependant, à prendre avec prudence !]]></desc>
  </metadata>
  <trk>
    <name><![CDATA[15/09/2012 Mazan]]></name>
    <desc><![CDATA[]]></desc>
    <trkseg>
      <trkpt lat="44.05719" lon="5.12466">
        <ele>204.6</ele>
        <time>2012-09-15T06:50:48.000Z</time>
      </trkpt>
      <trkpt lat="44.05725" lon="5.12464">
        <ele>206.1</ele>
        <time>2012-09-15T06:50:50.000Z</time>
      </trkpt>
      <trkpt lat="44.05721" lon="5.12469">
        <ele>206.2</ele>
        <time>2012-09-15T06:50:51.000Z</time>
      </trkpt>
      <trkpt lat="44.05716" lon="5.12473">
        <ele>210.1</ele>
        <time>2012-09-15T06:50:52.000Z</time>
      </trkpt>
      <trkpt lat="44.05718" lon="5.12476">
        <ele>208</ele>
        <time>2012-09-15T06:50:53.000Z</time>
      </trkpt>
      <trkpt lat="44.05718" lon="5.1248">
        <ele>210.3</ele>
        <time>2012-09-15T06:50:54.000Z</time>
      </trkpt>
      <trkpt lat="44.05716" lon="5.12487">
        <ele>205</ele>
        <time>2012-09-15T06:50:56.000Z</time>
      </trkpt>
      <trkpt lat="44.05717" lon="5.12491">
        <ele>203.2</ele>
        <time>2012-09-15T06:50:57.000Z</time>
      </trkpt>
      <trkpt lat="44.05717" lon="5.12496">
        <ele>203.6</ele>
        <time>2012-09-15T06:50:59.000Z</time>
      </trkpt>
      <trkpt lat="44.05715" lon="5.12501">
        <ele>203.3</ele>
        <time>2012-09-15T06:51:00.000Z</time>
      </trkpt>
      <trkpt lat="44.05716" lon="5.12506">
        <ele>201.9</ele>
        <time>2012-09-15T06:51:01.000Z</time>
      </trkpt>
      <trkpt lat="44.05719" lon="5.12508">
        <ele>203.2</ele>
        <time>2012-09-15T06:51:02.000Z</time>
      </trkpt>
      <trkpt lat="44.05721" lon="5.12514">
        <ele>205.1</ele>
        <time>2012-09-15T06:51:04.000Z</time>
      </trkpt>
      <trkpt lat="44.05724" lon="5.12518">
        <ele>203.6</ele>
        <time>2012-09-15T06:51:05.000Z</time>
      </trkpt>
      <trkpt lat="44.05728" lon="5.12525">
        <ele>203.8</ele>
        <time>2012-09-15T06:51:07.000Z</time>
      </trkpt>
      <trkpt lat="44.05722" lon="5.12533">
        <ele>206.9</ele>
        <time>2012-09-15T06:51:08.000Z</time>
      </trkpt>
      <trkpt lat="44.05722" lon="5.1254">
        <ele>207</ele>
        <time>2012-09-15T06:51:09.000Z</time>
      </trkpt>
      <trkpt lat="44.05722" lon="5.12547">
        <ele>206.2</ele>
        <time>2012-09-15T06:51:11.000Z</time>
      </trkpt>
      <trkpt lat="44.05722" lon="5.12552">
        <ele>206.2</ele>
        <time>2012-09-15T06:51:12.000Z</time>
      </trkpt>
      <trkpt lat="44.05724" lon="5.12556">
        <ele>205.7</ele>
        <time>2012-09-15T06:51:13.000Z</time>
      </trkpt>
      <trkpt lat="44.05723" lon="5.12561">
        <ele>205.9</ele>
        <time>2012-09-15T06:51:14.000Z</time>
      </trkpt>
      <trkpt lat="44.05722" lon="5.12566">
        <ele>206</ele>
        <time>2012-09-15T06:51:15.000Z</time>
      </trkpt>
      <trkpt lat="44.05722" lon="5.1257">
        <ele>206.1</ele>
        <time>2012-09-15T06:51:16.000Z</time>
      </trkpt>
      <trkpt lat="44.05721" lon="5.12574">
        <ele>206.3</ele>
        <time>2012-09-15T06:51:18.000Z</time>
      </trkpt>
      <trkpt lat="44.05718" lon="5.12576">
        <ele>203.9</ele>
        <time>2012-09-15T06:51:19.000Z</time>
      </trkpt>
      <trkpt lat="44.05721" lon="5.1258">
        <ele>203.3</ele>
        <time>2012-09-15T06:51:21.000Z</time>
      </trkpt>
      <trkpt lat="44.05724" lon="5.12587">
        <ele>203.7</ele>
        <time>2012-09-15T06:51:24.000Z</time>
      </trkpt>
      <trkpt lat="44.05724" lon="5.12592">
        <ele>204</ele>
        <time>2012-09-15T06:51:25.000Z</time>
      </trkpt>
      <trkpt lat="44.05725" lon="5.12596">
        <ele>204.4</ele>
        <time>2012-09-15T06:51:26.000Z</time>
      </trkpt>
      <trkpt lat="44.05726" lon="5.12601">
        <ele>204.5</ele>
        <time>2012-09-15T06:51:27.000Z</time>
      </trkpt>
      <trkpt lat="44.05726" lon="5.12606">
        <ele>205</ele>
        <time>2012-09-15T06:51:28.000Z</time>
      </trkpt>
      <trkpt lat="44.05726" lon="5.12611">
        <ele>205.8</ele>
        <time>2012-09-15T06:51:29.000Z</time>
      </trkpt>
      <trkpt lat="44.05725" lon="5.12616">
        <ele>205.7</ele>
        <time>2012-09-15T06:51:30.000Z</time>
      </trkpt>
      <trkpt lat="44.05725" lon="5.12622">
        <ele>204.9</ele>
        <time>2012-09-15T06:51:31.000Z</time>
      </trkpt>
      <trkpt lat="44.05724" lon="5.12628">
        <ele>204.8</ele>
        <time>2012-09-15T06:51:32.000Z</time>
      </trkpt>
      <trkpt lat="44.05723" lon="5.12632">
        <ele>204.8</ele>
        <time>2012-09-15T06:51:33.000Z</time>
      </trkpt>
      <trkpt lat="44.05722" lon="5.12636">
        <ele>205.3</ele>
        <time>2012-09-15T06:51:34.000Z</time>
      </trkpt>
      <trkpt lat="44.05722" lon="5.12642">
        <ele>205.2</ele>
        <time>2012-09-15T06:51:36.000Z</time>
      </trkpt>
      <trkpt lat="44.05722" lon="5.12646">
        <ele>204.8</ele>
        <time>2012-09-15T06:51:37.000Z</time>
      </trkpt>
      <trkpt lat="44.05722" lon="5.12651">
        <ele>204.4</ele>
        <time>2012-09-15T06:51:38.000Z</time>
      </trkpt>
      <trkpt lat="44.05722" lon="5.12656">
        <ele>204.5</ele>
        <time>2012-09-15T06:51:39.000Z</time>
      </trkpt>
      <trkpt lat="44.05722" lon="5.1266">
        <ele>204.5</ele>
        <time>2012-09-15T06:51:40.000Z</time>
      </trkpt>
      <trkpt lat="44.05721" lon="5.12665">
        <ele>203.4</ele>
        <time>2012-09-15T06:51:41.000Z</time>
      </trkpt>
      <trkpt lat="44.0572" lon="5.1267">
        <ele>202.9</ele>
        <time>2012-09-15T06:51:42.000Z</time>
      </trkpt>
      <trkpt lat="44.05718" lon="5.12676">
        <ele>202.4</ele>
        <time>2012-09-15T06:51:44.000Z</time>
      </trkpt>
      <trkpt lat="44.05718" lon="5.12681">
        <ele>202.3</ele>
        <time>2012-09-15T06:51:46.000Z</time>
      </trkpt>
      <trkpt lat="44.05717" lon="5.12685">
        <ele>202.3</ele>
        <time>2012-09-15T06:51:49.000Z</time>
      </trkpt>
      <trkpt lat="44.05719" lon="5.12691">
        <ele>202.6</ele>
        <time>2012-09-15T06:51:51.000Z</time>
      </trkpt>
      <trkpt lat="44.05713" lon="5.12693">
        <ele>202.4</ele>
        <time>2012-09-15T06:51:54.000Z</time>
      </trkpt>
      <trkpt lat="44.05711" lon="5.12697">
        <ele>202.2</ele>
        <time>2012-09-15T06:51:55.000Z</time>
      </trkpt>
      <trkpt lat="44.05708" lon="5.127">
        <ele>202.1</ele>
        <time>2012-09-15T06:51:57.000Z</time>
      </trkpt>
      <trkpt lat="44.05705" lon="5.12695">
        <ele>201.9</ele>
        <time>2012-09-15T06:51:59.000Z</time>
      </trkpt>
      <trkpt lat="44.0569" lon="5.12699">
        <ele>201.6</ele>
        <time>2012-09-15T06:52:00.000Z</time>
      </trkpt>
      <trkpt lat="44.05682" lon="5.12703">
        <ele>201.1</ele>
        <time>2012-09-15T06:52:01.000Z</time>
      </trkpt>
      <trkpt lat="44.05678" lon="5.12704">
        <ele>201.5</ele>
        <time>2012-09-15T06:52:03.000Z</time>
      </trkpt>
      <trkpt lat="44.05677" lon="5.127">
        <ele>207.7</ele>
        <time>2012-09-15T06:52:13.000Z</time>
      </trkpt>
      <trkpt lat="44.05674" lon="5.12697">
        <ele>209.3</ele>
        <time>2012-09-15T06:52:16.000Z</time>
      </trkpt>
      <trkpt lat="44.05671" lon="5.1269">
        <ele>212.4</ele>
        <time>2012-09-15T06:52:18.000Z</time>
      </trkpt>
      <trkpt lat="44.05668" lon="5.12689">
        <ele>213.5</ele>
        <time>2012-09-15T06:52:21.000Z</time>
      </trkpt>
      <trkpt lat="44.05665" lon="5.1269">
        <ele>213.2</ele>
        <time>2012-09-15T06:52:23.000Z</time>
      </trkpt>
      <trkpt lat="44.05663" lon="5.12694">
        <ele>213.2</ele>
        <time>2012-09-15T06:52:24.000Z</time>
      </trkpt>
      <trkpt lat="44.05663" lon="5.12687">
        <ele>213.7</ele>
        <time>2012-09-15T06:52:25.000Z</time>
      </trkpt>
      <trkpt lat="44.05661" lon="5.12692">
        <ele>214</ele>
        <time>2012-09-15T06:52:28.000Z</time>
      </trkpt>
      <trkpt lat="44.05655" lon="5.12696">
        <ele>213.8</ele>
        <time>2012-09-15T06:52:30.000Z</time>
      </trkpt>
      <trkpt lat="44.05651" lon="5.12693">
        <ele>213</ele>
        <time>2012-09-15T06:52:33.000Z</time>
      </trkpt>
      <trkpt lat="44.05649" lon="5.12698">
        <ele>212.6</ele>
        <time>2012-09-15T06:52:36.000Z</time>
      </trkpt>
      <trkpt lat="44.05649" lon="5.12702">
        <ele>212.1</ele>
        <time>2012-09-15T06:52:37.000Z</time>
      </trkpt>
      <trkpt lat="44.05647" lon="5.12706">
        <ele>212.2</ele>
        <time>2012-09-15T06:52:38.000Z</time>
      </trkpt>
      <trkpt lat="44.05646" lon="5.1271">
        <ele>212.4</ele>
        <time>2012-09-15T06:52:39.000Z</time>
      </trkpt>
      <trkpt lat="44.05643" lon="5.12715">
        <ele>211.8</ele>
        <time>2012-09-15T06:52:40.000Z</time>
      </trkpt>
      <trkpt lat="44.0563" lon="5.12721">
        <ele>210.8</ele>
        <time>2012-09-15T06:52:41.000Z</time>
      </trkpt>
      <trkpt lat="44.05623" lon="5.12726">
        <ele>210.4</ele>
        <time>2012-09-15T06:52:42.000Z</time>
      </trkpt>
      <trkpt lat="44.0562" lon="5.12728">
        <ele>211.3</ele>
        <time>2012-09-15T06:52:43.000Z</time>
      </trkpt>
      <trkpt lat="44.05616" lon="5.1273">
        <ele>211.3</ele>
        <time>2012-09-15T06:52:44.000Z</time>
      </trkpt>
      <trkpt lat="44.05614" lon="5.12727">
        <ele>211.8</ele>
        <time>2012-09-15T06:52:45.000Z</time>
      </trkpt>
      <trkpt lat="44.05611" lon="5.12732">
        <ele>211.8</ele>
        <time>2012-09-15T06:52:46.000Z</time>
      </trkpt>
      <trkpt lat="44.05609" lon="5.12736">
        <ele>211.8</ele>
        <time>2012-09-15T06:52:48.000Z</time>
      </trkpt>
      <trkpt lat="44.05608" lon="5.1275">
        <ele>211.5</ele>
        <time>2012-09-15T06:52:49.000Z</time>
      </trkpt>
      <trkpt lat="44.05612" lon="5.12755">
        <ele>211.5</ele>
        <time>2012-09-15T06:52:50.000Z</time>
      </trkpt>
      <trkpt lat="44.0561" lon="5.12762">
        <ele>211.4</ele>
        <time>2012-09-15T06:52:51.000Z</time>
      </trkpt>
      <trkpt lat="44.05608" lon="5.12769">
        <ele>211.6</ele>
        <time>2012-09-15T06:52:52.000Z</time>
      </trkpt>
      <trkpt lat="44.05607" lon="5.12774">
        <ele>211.1</ele>
        <time>2012-09-15T06:52:53.000Z</time>
      </trkpt>
      <trkpt lat="44.05604" lon="5.12779">
        <ele>211.4</ele>
        <time>2012-09-15T06:52:54.000Z</time>
      </trkpt>
      <trkpt lat="44.05606" lon="5.12785">
        <ele>212.1</ele>
        <time>2012-09-15T06:52:55.000Z</time>
      </trkpt>
      <trkpt lat="44.05608" lon="5.12789">
        <ele>212.1</ele>
        <time>2012-09-15T06:52:56.000Z</time>
      </trkpt>
      <trkpt lat="44.05605" lon="5.12792">
        <ele>211.8</ele>
        <time>2012-09-15T06:52:57.000Z</time>
      </trkpt>
      <trkpt lat="44.05598" lon="5.12798">
        <ele>211.5</ele>
        <time>2012-09-15T06:52:58.000Z</time>
      </trkpt>
      <trkpt lat="44.05589" lon="5.12804">
        <ele>209.5</ele>
        <time>2012-09-15T06:52:59.000Z</time>
      </trkpt>
      <trkpt lat="44.05585" lon="5.12814">
        <ele>210.3</ele>
        <time>2012-09-15T06:53:03.000Z</time>
      </trkpt>
      <trkpt lat="44.05587" lon="5.12818">
        <ele>211</ele>
        <time>2012-09-15T06:53:04.000Z</time>
      </trkpt>
      <trkpt lat="44.05591" lon="5.12826">
        <ele>208.3</ele>
        <time>2012-09-15T06:53:05.000Z</time>
      </trkpt>
      <trkpt lat="44.05594" lon="5.12829">
        <ele>209.5</ele>
        <time>2012-09-15T06:53:06.000Z</time>
      </trkpt>
      <trkpt lat="44.05597" lon="5.12829">
        <ele>209.6</ele>
        <time>2012-09-15T06:53:07.000Z</time>
      </trkpt>
      <trkpt lat="44.05601" lon="5.12829">
        <ele>209.7</ele>
        <time>2012-09-15T06:53:08.000Z</time>
      </trkpt>
      <trkpt lat="44.05605" lon="5.12834">
        <ele>209.8</ele>
        <time>2012-09-15T06:53:09.000Z</time>
      </trkpt>
      <trkpt lat="44.0561" lon="5.12831">
        <ele>209</ele>
        <time>2012-09-15T06:53:10.000Z</time>
      </trkpt>
      <trkpt lat="44.05614" lon="5.12828">
        <ele>209</ele>
        <time>2012-09-15T06:53:11.000Z</time>
      </trkpt>
      <trkpt lat="44.05618" lon="5.12824">
        <ele>209</ele>
        <time>2012-09-15T06:53:12.000Z</time>
      </trkpt>
      <trkpt lat="44.0562" lon="5.12822">
        <ele>208.6</ele>
        <time>2012-09-15T06:53:13.000Z</time>
      </trkpt>
      <trkpt lat="44.05623" lon="5.12822">
        <ele>208.1</ele>
        <time>2012-09-15T06:53:14.000Z</time>
      </trkpt>
      <trkpt lat="44.05627" lon="5.12822">
        <ele>208.5</ele>
        <time>2012-09-15T06:53:17.000Z</time>
      </trkpt>
      <trkpt lat="44.05631" lon="5.12822">
        <ele>208.4</ele>
        <time>2012-09-15T06:53:20.000Z</time>
      </trkpt>
      <trkpt lat="44.05632" lon="5.12818">
        <ele>208.7</ele>
        <time>2012-09-15T06:53:24.000Z</time>
      </trkpt>
      <trkpt lat="44.05637" lon="5.12811">
        <ele>207.8</ele>
        <time>2012-09-15T06:53:26.000Z</time>
      </trkpt>
      <trkpt lat="44.05635" lon="5.12801">
        <ele>208.3</ele>
        <time>2012-09-15T06:53:28.000Z</time>
      </trkpt>
      <trkpt lat="44.05636" lon="5.12794">
        <ele>206.8</ele>
        <time>2012-09-15T06:53:29.000Z</time>
      </trkpt>
      <trkpt lat="44.05633" lon="5.12792">
        <ele>206.8</ele>
        <time>2012-09-15T06:53:30.000Z</time>
      </trkpt>
      <trkpt lat="44.05635" lon="5.12789">
        <ele>207.8</ele>
        <time>2012-09-15T06:53:31.000Z</time>
      </trkpt>
      <trkpt lat="44.05639" lon="5.12785">
        <ele>208.6</ele>
        <time>2012-09-15T06:53:33.000Z</time>
      </trkpt>
      <trkpt lat="44.05644" lon="5.12784">
        <ele>209.3</ele>
        <time>2012-09-15T06:53:35.000Z</time>
      </trkpt>
      <trkpt lat="44.05649" lon="5.12784">
        <ele>209.9</ele>
        <time>2012-09-15T06:53:37.000Z</time>
      </trkpt>
      <trkpt lat="44.05652" lon="5.12783">
        <ele>211.2</ele>
        <time>2012-09-15T06:53:38.000Z</time>
      </trkpt>
      <trkpt lat="44.05658" lon="5.1278">
        <ele>212.4</ele>
        <time>2012-09-15T06:53:40.000Z</time>
      </trkpt>
      <trkpt lat="44.05664" lon="5.1278">
        <ele>213.5</ele>
        <time>2012-09-15T06:53:42.000Z</time>
      </trkpt>
      <trkpt lat="44.05662" lon="5.12788">
        <ele>217.6</ele>
        <time>2012-09-15T06:53:43.000Z</time>
      </trkpt>
      <trkpt lat="44.05665" lon="5.12786">
        <ele>216.2</ele>
        <time>2012-09-15T06:53:44.000Z</time>
      </trkpt>
      <trkpt lat="44.05667" lon="5.12791">
        <ele>216.5</ele>
        <time>2012-09-15T06:53:46.000Z</time>
      </trkpt>
      <trkpt lat="44.05668" lon="5.12795">
        <ele>217.2</ele>
        <time>2012-09-15T06:53:47.000Z</time>
      </trkpt>
      <trkpt lat="44.05669" lon="5.12799">
        <ele>217.9</ele>
        <time>2012-09-15T06:53:48.000Z</time>
      </trkpt>
      <trkpt lat="44.0567" lon="5.12806">
        <ele>217.3</ele>
        <time>2012-09-15T06:53:50.000Z</time>
      </trkpt>
      <trkpt lat="44.05668" lon="5.12809">
        <ele>218.4</ele>
        <time>2012-09-15T06:53:51.000Z</time>
      </trkpt>
      <trkpt lat="44.05666" lon="5.12816">
        <ele>216</ele>
        <time>2012-09-15T06:53:53.000Z</time>
      </trkpt>
      <trkpt lat="44.05664" lon="5.1282">
        <ele>214.9</ele>
        <time>2012-09-15T06:53:55.000Z</time>
      </trkpt>
      <trkpt lat="44.05661" lon="5.12822">
        <ele>213.8</ele>
        <time>2012-09-15T06:53:57.000Z</time>
      </trkpt>
      <trkpt lat="44.05657" lon="5.12821">
        <ele>216.7</ele>
        <time>2012-09-15T06:53:59.000Z</time>
      </trkpt>
      <trkpt lat="44.05654" lon="5.12824">
        <ele>217.1</ele>
        <time>2012-09-15T06:54:01.000Z</time>
      </trkpt>
      <trkpt lat="44.05654" lon="5.12831">
        <ele>217.2</ele>
        <time>2012-09-15T06:54:02.000Z</time>
      </trkpt>
      <trkpt lat="44.05652" lon="5.12837">
        <ele>218.1</ele>
        <time>2012-09-15T06:54:04.000Z</time>
      </trkpt>
      <trkpt lat="44.05651" lon="5.12843">
        <ele>218.4</ele>
        <time>2012-09-15T06:54:06.000Z</time>
      </trkpt>
      <trkpt lat="44.0565" lon="5.12848">
        <ele>218.2</ele>
        <time>2012-09-15T06:54:08.000Z</time>
      </trkpt>
      <trkpt lat="44.05649" lon="5.12854">
        <ele>217.6</ele>
        <time>2012-09-15T06:54:10.000Z</time>
      </trkpt>
      <trkpt lat="44.0565" lon="5.1286">
        <ele>217.4</ele>
        <time>2012-09-15T06:54:12.000Z</time>
      </trkpt>
      <trkpt lat="44.05651" lon="5.12865">
        <ele>217.3</ele>
        <time>2012-09-15T06:54:13.000Z</time>
      </trkpt>
      <trkpt lat="44.05655" lon="5.12869">
        <ele>217.7</ele>
        <time>2012-09-15T06:54:15.000Z</time>
      </trkpt>
      <trkpt lat="44.05654" lon="5.12874">
        <ele>218.1</ele>
        <time>2012-09-15T06:54:21.000Z</time>
      </trkpt>
      <trkpt lat="44.05653" lon="5.12878">
        <ele>218.7</ele>
        <time>2012-09-15T06:54:25.000Z</time>
      </trkpt>
      <trkpt lat="44.0565" lon="5.1288">
        <ele>218.9</ele>
        <time>2012-09-15T06:54:26.000Z</time>
      </trkpt>
      <trkpt lat="44.05642" lon="5.12886">
        <ele>218.6</ele>
        <time>2012-09-15T06:54:27.000Z</time>
      </trkpt>
      <trkpt lat="44.05642" lon="5.12892">
        <ele>218.3</ele>
        <time>2012-09-15T06:54:29.000Z</time>
      </trkpt>
      <trkpt lat="44.0564" lon="5.12896">
        <ele>217.5</ele>
        <time>2012-09-15T06:54:32.000Z</time>
      </trkpt>
      <trkpt lat="44.05635" lon="5.12898">
        <ele>217.5</ele>
        <time>2012-09-15T06:54:34.000Z</time>
      </trkpt>
      <trkpt lat="44.0563" lon="5.12903">
        <ele>217.6</ele>
        <time>2012-09-15T06:54:36.000Z</time>
      </trkpt>
      <trkpt lat="44.05627" lon="5.12905">
        <ele>217.6</ele>
        <time>2012-09-15T06:54:37.000Z</time>
      </trkpt>
      <trkpt lat="44.05622" lon="5.12908">
        <ele>217.7</ele>
        <time>2012-09-15T06:54:38.000Z</time>
      </trkpt>
      <trkpt lat="44.05619" lon="5.12908">
        <ele>217.9</ele>
        <time>2012-09-15T06:54:39.000Z</time>
      </trkpt>
      <trkpt lat="44.05616" lon="5.12906">
        <ele>218.1</ele>
        <time>2012-09-15T06:54:40.000Z</time>
      </trkpt>
      <trkpt lat="44.05616" lon="5.12902">
        <ele>219</ele>
        <time>2012-09-15T06:54:41.000Z</time>
      </trkpt>
      <trkpt lat="44.05622" lon="5.12892">
        <ele>213.6</ele>
        <time>2012-09-15T06:54:42.000Z</time>
      </trkpt>
      <trkpt lat="44.0562" lon="5.1289">
        <ele>213.6</ele>
        <time>2012-09-15T06:54:45.000Z</time>
      </trkpt>
      <trkpt lat="44.0562" lon="5.12896">
        <ele>213.7</ele>
        <time>2012-09-15T06:54:49.000Z</time>
      </trkpt>
      <trkpt lat="44.05618" lon="5.12899">
        <ele>211.7</ele>
        <time>2012-09-15T06:54:51.000Z</time>
      </trkpt>
      <trkpt lat="44.05615" lon="5.12902">
        <ele>210.1</ele>
        <time>2012-09-15T06:54:52.000Z</time>
      </trkpt>
      <trkpt lat="44.05611" lon="5.12902">
        <ele>209.4</ele>
        <time>2012-09-15T06:54:55.000Z</time>
      </trkpt>
      <trkpt lat="44.05608" lon="5.12907">
        <ele>209.5</ele>
        <time>2012-09-15T06:54:57.000Z</time>
      </trkpt>
      <trkpt lat="44.05607" lon="5.12911">
        <ele>209.2</ele>
        <time>2012-09-15T06:54:58.000Z</time>
      </trkpt>
      <trkpt lat="44.05606" lon="5.12917">
        <ele>208.5</ele>
        <time>2012-09-15T06:54:59.000Z</time>
      </trkpt>
      <trkpt lat="44.05606" lon="5.12921">
        <ele>208.6</ele>
        <time>2012-09-15T06:55:00.000Z</time>
      </trkpt>
      <trkpt lat="44.05608" lon="5.12925">
        <ele>208.3</ele>
        <time>2012-09-15T06:55:01.000Z</time>
      </trkpt>
      <trkpt lat="44.05607" lon="5.12932">
        <ele>208</ele>
        <time>2012-09-15T06:55:02.000Z</time>
      </trkpt>
      <trkpt lat="44.05604" lon="5.12941">
        <ele>207.4</ele>
        <time>2012-09-15T06:55:03.000Z</time>
      </trkpt>
      <trkpt lat="44.05606" lon="5.12945">
        <ele>207.3</ele>
        <time>2012-09-15T06:55:04.000Z</time>
      </trkpt>
      <trkpt lat="44.05606" lon="5.1295">
        <ele>207.3</ele>
        <time>2012-09-15T06:55:05.000Z</time>
      </trkpt>
      <trkpt lat="44.05606" lon="5.12954">
        <ele>207.2</ele>
        <time>2012-09-15T06:55:06.000Z</time>
      </trkpt>
      <trkpt lat="44.05604" lon="5.1296">
        <ele>207.1</ele>
        <time>2012-09-15T06:55:07.000Z</time>
      </trkpt>
      <trkpt lat="44.05603" lon="5.12968">
        <ele>206.9</ele>
        <time>2012-09-15T06:55:08.000Z</time>
      </trkpt>
      <trkpt lat="44.05604" lon="5.12972">
        <ele>206.3</ele>
        <time>2012-09-15T06:55:09.000Z</time>
      </trkpt>
      <trkpt lat="44.05604" lon="5.12976">
        <ele>206.9</ele>
        <time>2012-09-15T06:55:10.000Z</time>
      </trkpt>
      <trkpt lat="44.05605" lon="5.12981">
        <ele>206.2</ele>
        <time>2012-09-15T06:55:11.000Z</time>
      </trkpt>
      <trkpt lat="44.05606" lon="5.12985">
        <ele>206.5</ele>
        <time>2012-09-15T06:55:12.000Z</time>
      </trkpt>
      <trkpt lat="44.05612" lon="5.12984">
        <ele>204.6</ele>
        <time>2012-09-15T06:55:13.000Z</time>
      </trkpt>
      <trkpt lat="44.05614" lon="5.12981">
        <ele>208.9</ele>
        <time>2012-09-15T06:55:22.000Z</time>
      </trkpt>
      <trkpt lat="44.05616" lon="5.12977">
        <ele>210.5</ele>
        <time>2012-09-15T06:55:24.000Z</time>
      </trkpt>
      <trkpt lat="44.05619" lon="5.12974">
        <ele>210.8</ele>
        <time>2012-09-15T06:55:26.000Z</time>
      </trkpt>
      <trkpt lat="44.05624" lon="5.12975">
        <ele>210.4</ele>
        <time>2012-09-15T06:55:29.000Z</time>
      </trkpt>
      <trkpt lat="44.05628" lon="5.12976">
        <ele>211.8</ele>
        <time>2012-09-15T06:55:31.000Z</time>
      </trkpt>
      <trkpt lat="44.05632" lon="5.12977">
        <ele>212.3</ele>
        <time>2012-09-15T06:55:33.000Z</time>
      </trkpt>
      <trkpt lat="44.05638" lon="5.12977">
        <ele>212.6</ele>
        <time>2012-09-15T06:55:35.000Z</time>
      </trkpt>
      <trkpt lat="44.05642" lon="5.12974">
        <ele>212.1</ele>
        <time>2012-09-15T06:55:37.000Z</time>
      </trkpt>
      <trkpt lat="44.05644" lon="5.12971">
        <ele>212.6</ele>
        <time>2012-09-15T06:55:38.000Z</time>
      </trkpt>
      <trkpt lat="44.0565" lon="5.12971">
        <ele>213.4</ele>
        <time>2012-09-15T06:55:40.000Z</time>
      </trkpt>
      <trkpt lat="44.05655" lon="5.12972">
        <ele>212.1</ele>
        <time>2012-09-15T06:55:42.000Z</time>
      </trkpt>
      <trkpt lat="44.05658" lon="5.12969">
        <ele>211.8</ele>
        <time>2012-09-15T06:55:43.000Z</time>
      </trkpt>
      <trkpt lat="44.05661" lon="5.1297">
        <ele>212.3</ele>
        <time>2012-09-15T06:55:45.000Z</time>
      </trkpt>
      <trkpt lat="44.05663" lon="5.12968">
        <ele>212</ele>
        <time>2012-09-15T06:55:46.000Z</time>
      </trkpt>
      <trkpt lat="44.05666" lon="5.12966">
        <ele>212</ele>
        <time>2012-09-15T06:55:48.000Z</time>
      </trkpt>
      <trkpt lat="44.0567" lon="5.12968">
        <ele>213.7</ele>
        <time>2012-09-15T06:55:51.000Z</time>
      </trkpt>
      <trkpt lat="44.05669" lon="5.12964">
        <ele>214.4</ele>
        <time>2012-09-15T06:55:54.000Z</time>
      </trkpt>
      <trkpt lat="44.05672" lon="5.12961">
        <ele>214.7</ele>
        <time>2012-09-15T06:55:57.000Z</time>
      </trkpt>
      <trkpt lat="44.05674" lon="5.12958">
        <ele>214.9</ele>
        <time>2012-09-15T06:56:00.000Z</time>
      </trkpt>
      <trkpt lat="44.05676" lon="5.12954">
        <ele>214.8</ele>
        <time>2012-09-15T06:56:03.000Z</time>
      </trkpt>
      <trkpt lat="44.05676" lon="5.12949">
        <ele>214.5</ele>
        <time>2012-09-15T06:56:04.000Z</time>
      </trkpt>
      <trkpt lat="44.05676" lon="5.12944">
        <ele>213.9</ele>
        <time>2012-09-15T06:56:05.000Z</time>
      </trkpt>
      <trkpt lat="44.05672" lon="5.12945">
        <ele>213.5</ele>
        <time>2012-09-15T06:56:07.000Z</time>
      </trkpt>
      <trkpt lat="44.05675" lon="5.1294">
        <ele>212.4</ele>
        <time>2012-09-15T06:56:09.000Z</time>
      </trkpt>
      <trkpt lat="44.05672" lon="5.12938">
        <ele>212.3</ele>
        <time>2012-09-15T06:56:11.000Z</time>
      </trkpt>
      <trkpt lat="44.0567" lon="5.12935">
        <ele>212.6</ele>
        <time>2012-09-15T06:56:13.000Z</time>
      </trkpt>
      <trkpt lat="44.05667" lon="5.12931">
        <ele>214.3</ele>
        <time>2012-09-15T06:56:15.000Z</time>
      </trkpt>
      <trkpt lat="44.05669" lon="5.12924">
        <ele>214.1</ele>
        <time>2012-09-15T06:56:16.000Z</time>
      </trkpt>
      <trkpt lat="44.05665" lon="5.12924">
        <ele>211.8</ele>
        <time>2012-09-15T06:56:17.000Z</time>
      </trkpt>
      <trkpt lat="44.05668" lon="5.12919">
        <ele>215.2</ele>
        <time>2012-09-15T06:56:21.000Z</time>
      </trkpt>
      <trkpt lat="44.05666" lon="5.12915">
        <ele>222.4</ele>
        <time>2012-09-15T06:56:24.000Z</time>
      </trkpt>
      <trkpt lat="44.05665" lon="5.12909">
        <ele>230.2</ele>
        <time>2012-09-15T06:56:28.000Z</time>
      </trkpt>
      <trkpt lat="44.05667" lon="5.12905">
        <ele>229.7</ele>
        <time>2012-09-15T06:56:30.000Z</time>
      </trkpt>
      <trkpt lat="44.05668" lon="5.12902">
        <ele>225.6</ele>
        <time>2012-09-15T06:56:40.000Z</time>
      </trkpt>
      <trkpt lat="44.0567" lon="5.12898">
        <ele>225.8</ele>
        <time>2012-09-15T06:56:45.000Z</time>
      </trkpt>
      <trkpt lat="44.05674" lon="5.12891">
        <ele>223.3</ele>
        <time>2012-09-15T06:57:39.000Z</time>
      </trkpt>
      <trkpt lat="44.05678" lon="5.12888">
        <ele>222.4</ele>
        <time>2012-09-15T06:57:41.000Z</time>
      </trkpt>
      <trkpt lat="44.05679" lon="5.12884">
        <ele>222</ele>
        <time>2012-09-15T06:57:43.000Z</time>
      </trkpt>
      <trkpt lat="44.05683" lon="5.12879">
        <ele>223.5</ele>
        <time>2012-09-15T06:57:45.000Z</time>
      </trkpt>
      <trkpt lat="44.05684" lon="5.12872">
        <ele>224.3</ele>
        <time>2012-09-15T06:57:47.000Z</time>
      </trkpt>
      <trkpt lat="44.05685" lon="5.12868">
        <ele>224.6</ele>
        <time>2012-09-15T06:57:48.000Z</time>
      </trkpt>
      <trkpt lat="44.05683" lon="5.12863">
        <ele>225.1</ele>
        <time>2012-09-15T06:57:50.000Z</time>
      </trkpt>
      <trkpt lat="44.0568" lon="5.12858">
        <ele>223.9</ele>
        <time>2012-09-15T06:57:52.000Z</time>
      </trkpt>
      <trkpt lat="44.0568" lon="5.12854">
        <ele>225.3</ele>
        <time>2012-09-15T06:57:54.000Z</time>
      </trkpt>
      <trkpt lat="44.05676" lon="5.12857">
        <ele>221.3</ele>
        <time>2012-09-15T06:57:55.000Z</time>
      </trkpt>
      <trkpt lat="44.05687" lon="5.12858">
        <ele>215.4</ele>
        <time>2012-09-15T06:57:56.000Z</time>
      </trkpt>
      <trkpt lat="44.05693" lon="5.12856">
        <ele>215.3</ele>
        <time>2012-09-15T06:57:57.000Z</time>
      </trkpt>
      <trkpt lat="44.05696" lon="5.12856">
        <ele>213.9</ele>
        <time>2012-09-15T06:57:58.000Z</time>
      </trkpt>
      <trkpt lat="44.057" lon="5.12852">
        <ele>213.2</ele>
        <time>2012-09-15T06:58:00.000Z</time>
      </trkpt>
      <trkpt lat="44.05704" lon="5.12843">
        <ele>213.5</ele>
        <time>2012-09-15T06:58:01.000Z</time>
      </trkpt>
      <trkpt lat="44.05705" lon="5.1284">
        <ele>213.4</ele>
        <time>2012-09-15T06:58:02.000Z</time>
      </trkpt>
      <trkpt lat="44.05706" lon="5.12832">
        <ele>213.4</ele>
        <time>2012-09-15T06:58:03.000Z</time>
      </trkpt>
      <trkpt lat="44.05707" lon="5.1282">
        <ele>213.5</ele>
        <time>2012-09-15T06:58:04.000Z</time>
      </trkpt>
      <trkpt lat="44.05703" lon="5.12816">
        <ele>212.7</ele>
        <time>2012-09-15T06:58:05.000Z</time>
      </trkpt>
      <trkpt lat="44.05706" lon="5.12814">
        <ele>212.5</ele>
        <time>2012-09-15T06:58:06.000Z</time>
      </trkpt>
      <trkpt lat="44.05708" lon="5.12811">
        <ele>212.2</ele>
        <time>2012-09-15T06:58:07.000Z</time>
      </trkpt>
      <trkpt lat="44.0571" lon="5.12807">
        <ele>212.6</ele>
        <time>2012-09-15T06:58:08.000Z</time>
      </trkpt>
      <trkpt lat="44.05713" lon="5.12797">
        <ele>212.7</ele>
        <time>2012-09-15T06:58:09.000Z</time>
      </trkpt>
      <trkpt lat="44.05712" lon="5.12792">
        <ele>213.1</ele>
        <time>2012-09-15T06:58:10.000Z</time>
      </trkpt>
      <trkpt lat="44.05713" lon="5.12783">
        <ele>211.8</ele>
        <time>2012-09-15T06:58:11.000Z</time>
      </trkpt>
      <trkpt lat="44.05715" lon="5.12778">
        <ele>211.6</ele>
        <time>2012-09-15T06:58:12.000Z</time>
      </trkpt>
      <trkpt lat="44.05716" lon="5.12773">
        <ele>211.9</ele>
        <time>2012-09-15T06:58:13.000Z</time>
      </trkpt>
      <trkpt lat="44.05718" lon="5.12769">
        <ele>212.2</ele>
        <time>2012-09-15T06:58:15.000Z</time>
      </trkpt>
      <trkpt lat="44.05721" lon="5.1277">
        <ele>212.7</ele>
        <time>2012-09-15T06:58:23.000Z</time>
      </trkpt>
      <trkpt lat="44.05725" lon="5.12769">
        <ele>212.9</ele>
        <time>2012-09-15T06:58:24.000Z</time>
      </trkpt>
      <trkpt lat="44.0573" lon="5.12768">
        <ele>213.3</ele>
        <time>2012-09-15T06:58:26.000Z</time>
      </trkpt>
      <trkpt lat="44.05736" lon="5.12774">
        <ele>215.2</ele>
        <time>2012-09-15T06:58:28.000Z</time>
      </trkpt>
      <trkpt lat="44.05741" lon="5.12772">
        <ele>215.8</ele>
        <time>2012-09-15T06:58:29.000Z</time>
      </trkpt>
      <trkpt lat="44.05748" lon="5.1277">
        <ele>210.3</ele>
        <time>2012-09-15T06:58:30.000Z</time>
      </trkpt>
      <trkpt lat="44.05752" lon="5.12771">
        <ele>209.5</ele>
        <time>2012-09-15T06:58:31.000Z</time>
      </trkpt>
      <trkpt lat="44.05756" lon="5.12771">
        <ele>209</ele>
        <time>2012-09-15T06:58:32.000Z</time>
      </trkpt>
      <trkpt lat="44.05759" lon="5.12771">
        <ele>208.9</ele>
        <time>2012-09-15T06:58:33.000Z</time>
      </trkpt>
      <trkpt lat="44.05764" lon="5.1277">
        <ele>208.6</ele>
        <time>2012-09-15T06:58:35.000Z</time>
      </trkpt>
      <trkpt lat="44.05768" lon="5.12771">
        <ele>209.1</ele>
        <time>2012-09-15T06:58:37.000Z</time>
      </trkpt>
      <trkpt lat="44.05766" lon="5.12774">
        <ele>207</ele>
        <time>2012-09-15T06:58:38.000Z</time>
      </trkpt>
      <trkpt lat="44.05768" lon="5.12774">
        <ele>208.6</ele>
        <time>2012-09-15T06:58:46.000Z</time>
      </trkpt>
      <trkpt lat="44.05772" lon="5.12774">
        <ele>211</ele>
        <time>2012-09-15T06:58:48.000Z</time>
      </trkpt>
      <trkpt lat="44.05777" lon="5.12775">
        <ele>211.1</ele>
        <time>2012-09-15T06:58:50.000Z</time>
      </trkpt>
      <trkpt lat="44.0578" lon="5.12775">
        <ele>211</ele>
        <time>2012-09-15T06:58:51.000Z</time>
      </trkpt>
      <trkpt lat="44.05784" lon="5.12778">
        <ele>210.1</ele>
        <time>2012-09-15T06:58:53.000Z</time>
      </trkpt>
      <trkpt lat="44.05788" lon="5.12779">
        <ele>209.5</ele>
        <time>2012-09-15T06:58:54.000Z</time>
      </trkpt>
      <trkpt lat="44.05791" lon="5.1278">
        <ele>209.5</ele>
        <time>2012-09-15T06:58:55.000Z</time>
      </trkpt>
      <trkpt lat="44.05794" lon="5.12781">
        <ele>212.7</ele>
        <time>2012-09-15T06:58:56.000Z</time>
      </trkpt>
      <trkpt lat="44.05798" lon="5.12783">
        <ele>215.1</ele>
        <time>2012-09-15T06:58:57.000Z</time>
      </trkpt>
      <trkpt lat="44.05801" lon="5.12784">
        <ele>215.4</ele>
        <time>2012-09-15T06:58:58.000Z</time>
      </trkpt>
      <trkpt lat="44.05804" lon="5.12785">
        <ele>214.5</ele>
        <time>2012-09-15T06:58:59.000Z</time>
      </trkpt>
      <trkpt lat="44.05808" lon="5.12785">
        <ele>213.9</ele>
        <time>2012-09-15T06:59:00.000Z</time>
      </trkpt>
      <trkpt lat="44.0581" lon="5.12785">
        <ele>214.1</ele>
        <time>2012-09-15T06:59:01.000Z</time>
      </trkpt>
      <trkpt lat="44.05817" lon="5.12785">
        <ele>214.2</ele>
        <time>2012-09-15T06:59:03.000Z</time>
      </trkpt>
      <trkpt lat="44.05822" lon="5.12784">
        <ele>213</ele>
        <time>2012-09-15T06:59:04.000Z</time>
      </trkpt>
      <trkpt lat="44.05825" lon="5.12785">
        <ele>213</ele>
        <time>2012-09-15T06:59:05.000Z</time>
      </trkpt>
      <trkpt lat="44.05828" lon="5.12784">
        <ele>212.8</ele>
        <time>2012-09-15T06:59:06.000Z</time>
      </trkpt>
      <trkpt lat="44.05832" lon="5.12785">
        <ele>213.5</ele>
        <time>2012-09-15T06:59:07.000Z</time>
      </trkpt>
      <trkpt lat="44.05836" lon="5.12784">
        <ele>212.8</ele>
        <time>2012-09-15T06:59:08.000Z</time>
      </trkpt>
      <trkpt lat="44.0584" lon="5.12785">
        <ele>213.4</ele>
        <time>2012-09-15T06:59:09.000Z</time>
      </trkpt>
      <trkpt lat="44.05844" lon="5.12785">
        <ele>212.8</ele>
        <time>2012-09-15T06:59:10.000Z</time>
      </trkpt>
      <trkpt lat="44.05847" lon="5.12785">
        <ele>212.8</ele>
        <time>2012-09-15T06:59:11.000Z</time>
      </trkpt>
      <trkpt lat="44.05851" lon="5.12785">
        <ele>212.9</ele>
        <time>2012-09-15T06:59:12.000Z</time>
      </trkpt>
      <trkpt lat="44.05855" lon="5.12785">
        <ele>212.6</ele>
        <time>2012-09-15T06:59:13.000Z</time>
      </trkpt>
      <trkpt lat="44.05859" lon="5.12786">
        <ele>212.8</ele>
        <time>2012-09-15T06:59:14.000Z</time>
      </trkpt>
      <trkpt lat="44.05862" lon="5.12787">
        <ele>213</ele>
        <time>2012-09-15T06:59:15.000Z</time>
      </trkpt>
      <trkpt lat="44.05868" lon="5.12788">
        <ele>212.6</ele>
        <time>2012-09-15T06:59:16.000Z</time>
      </trkpt>
      <trkpt lat="44.05872" lon="5.12788">
        <ele>212.8</ele>
        <time>2012-09-15T06:59:17.000Z</time>
      </trkpt>
      <trkpt lat="44.05876" lon="5.12788">
        <ele>212.8</ele>
        <time>2012-09-15T06:59:18.000Z</time>
      </trkpt>
      <trkpt lat="44.0588" lon="5.1279">
        <ele>213.1</ele>
        <time>2012-09-15T06:59:19.000Z</time>
      </trkpt>
      <trkpt lat="44.05884" lon="5.12791">
        <ele>213.2</ele>
        <time>2012-09-15T06:59:20.000Z</time>
      </trkpt>
      <trkpt lat="44.05888" lon="5.12791">
        <ele>213.2</ele>
        <time>2012-09-15T06:59:21.000Z</time>
      </trkpt>
      <trkpt lat="44.05892" lon="5.12791">
        <ele>213.3</ele>
        <time>2012-09-15T06:59:22.000Z</time>
      </trkpt>
      <trkpt lat="44.05895" lon="5.12792">
        <ele>214.4</ele>
        <time>2012-09-15T06:59:23.000Z</time>
      </trkpt>
      <trkpt lat="44.05899" lon="5.12794">
        <ele>213.8</ele>
        <time>2012-09-15T06:59:24.000Z</time>
      </trkpt>
      <trkpt lat="44.05904" lon="5.12794">
        <ele>214.7</ele>
        <time>2012-09-15T06:59:25.000Z</time>
      </trkpt>
      <trkpt lat="44.05907" lon="5.12797">
        <ele>214.7</ele>
        <time>2012-09-15T06:59:26.000Z</time>
      </trkpt>
      <trkpt lat="44.05911" lon="5.12798">
        <ele>214.1</ele>
        <time>2012-09-15T06:59:27.000Z</time>
      </trkpt>
      <trkpt lat="44.05915" lon="5.12801">
        <ele>213.8</ele>
        <time>2012-09-15T06:59:28.000Z</time>
      </trkpt>
      <trkpt lat="44.05919" lon="5.12804">
        <ele>213.7</ele>
        <time>2012-09-15T06:59:29.000Z</time>
      </trkpt>
      <trkpt lat="44.05922" lon="5.12805">
        <ele>213.7</ele>
        <time>2012-09-15T06:59:30.000Z</time>
      </trkpt>
      <trkpt lat="44.05926" lon="5.12808">
        <ele>213</ele>
        <time>2012-09-15T06:59:31.000Z</time>
      </trkpt>
      <trkpt lat="44.0593" lon="5.12811">
        <ele>212.1</ele>
        <time>2012-09-15T06:59:32.000Z</time>
      </trkpt>
      <trkpt lat="44.05933" lon="5.12814">
        <ele>212.1</ele>
        <time>2012-09-15T06:59:33.000Z</time>
      </trkpt>
      <trkpt lat="44.05936" lon="5.12816">
        <ele>212.4</ele>
        <time>2012-09-15T06:59:34.000Z</time>
      </trkpt>
      <trkpt lat="44.0594" lon="5.12819">
        <ele>212.2</ele>
        <time>2012-09-15T06:59:35.000Z</time>
      </trkpt>
      <trkpt lat="44.05942" lon="5.12822">
        <ele>212.4</ele>
        <time>2012-09-15T06:59:36.000Z</time>
      </trkpt>
      <trkpt lat="44.05945" lon="5.12825">
        <ele>212.1</ele>
        <time>2012-09-15T06:59:37.000Z</time>
      </trkpt>
      <trkpt lat="44.05947" lon="5.1283">
        <ele>211.9</ele>
        <time>2012-09-15T06:59:38.000Z</time>
      </trkpt>
      <trkpt lat="44.05948" lon="5.12834">
        <ele>211.7</ele>
        <time>2012-09-15T06:59:39.000Z</time>
      </trkpt>
      <trkpt lat="44.05949" lon="5.12838">
        <ele>211.7</ele>
        <time>2012-09-15T06:59:40.000Z</time>
      </trkpt>
      <trkpt lat="44.05951" lon="5.12843">
        <ele>211.5</ele>
        <time>2012-09-15T06:59:41.000Z</time>
      </trkpt>
      <trkpt lat="44.05952" lon="5.12848">
        <ele>211.5</ele>
        <time>2012-09-15T06:59:42.000Z</time>
      </trkpt>
      <trkpt lat="44.05953" lon="5.12852">
        <ele>211.4</ele>
        <time>2012-09-15T06:59:43.000Z</time>
      </trkpt>
      <trkpt lat="44.05954" lon="5.12856">
        <ele>211.4</ele>
        <time>2012-09-15T06:59:44.000Z</time>
      </trkpt>
      <trkpt lat="44.05956" lon="5.12863">
        <ele>212.1</ele>
        <time>2012-09-15T06:59:46.000Z</time>
      </trkpt>
      <trkpt lat="44.05958" lon="5.12866">
        <ele>212.4</ele>
        <time>2012-09-15T06:59:47.000Z</time>
      </trkpt>
      <trkpt lat="44.05958" lon="5.1287">
        <ele>212.7</ele>
        <time>2012-09-15T06:59:48.000Z</time>
      </trkpt>
      <trkpt lat="44.05959" lon="5.12877">
        <ele>213.1</ele>
        <time>2012-09-15T06:59:50.000Z</time>
      </trkpt>
      <trkpt lat="44.05961" lon="5.12883">
        <ele>213.3</ele>
        <time>2012-09-15T06:59:52.000Z</time>
      </trkpt>
      <trkpt lat="44.05964" lon="5.12888">
        <ele>213.3</ele>
        <time>2012-09-15T06:59:54.000Z</time>
      </trkpt>
      <trkpt lat="44.05966" lon="5.12891">
        <ele>212.8</ele>
        <time>2012-09-15T06:59:55.000Z</time>
      </trkpt>
      <trkpt lat="44.05968" lon="5.12896">
        <ele>213.7</ele>
        <time>2012-09-15T06:59:57.000Z</time>
      </trkpt>
      <trkpt lat="44.0597" lon="5.129">
        <ele>213.9</ele>
        <time>2012-09-15T06:59:59.000Z</time>
      </trkpt>
      <trkpt lat="44.05972" lon="5.12906">
        <ele>214.4</ele>
        <time>2012-09-15T07:00:01.000Z</time>
      </trkpt>
      <trkpt lat="44.05976" lon="5.12911">
        <ele>214.8</ele>
        <time>2012-09-15T07:00:03.000Z</time>
      </trkpt>
      <trkpt lat="44.0598" lon="5.12916">
        <ele>215.4</ele>
        <time>2012-09-15T07:00:05.000Z</time>
      </trkpt>
      <trkpt lat="44.05982" lon="5.1292">
        <ele>215.4</ele>
        <time>2012-09-15T07:00:06.000Z</time>
      </trkpt>
      <trkpt lat="44.05984" lon="5.12923">
        <ele>215.4</ele>
        <time>2012-09-15T07:00:07.000Z</time>
      </trkpt>
      <trkpt lat="44.05986" lon="5.12926">
        <ele>215.6</ele>
        <time>2012-09-15T07:00:08.000Z</time>
      </trkpt>
      <trkpt lat="44.05988" lon="5.12929">
        <ele>215.3</ele>
        <time>2012-09-15T07:00:09.000Z</time>
      </trkpt>
      <trkpt lat="44.0599" lon="5.12932">
        <ele>215.6</ele>
        <time>2012-09-15T07:00:10.000Z</time>
      </trkpt>
      <trkpt lat="44.05991" lon="5.12936">
        <ele>215.9</ele>
        <time>2012-09-15T07:00:11.000Z</time>
      </trkpt>
      <trkpt lat="44.05993" lon="5.1294">
        <ele>216.1</ele>
        <time>2012-09-15T07:00:12.000Z</time>
      </trkpt>
      <trkpt lat="44.05996" lon="5.12949">
        <ele>214.7</ele>
        <time>2012-09-15T07:00:14.000Z</time>
      </trkpt>
      <trkpt lat="44.06" lon="5.12952">
        <ele>214.6</ele>
        <time>2012-09-15T07:00:15.000Z</time>
      </trkpt>
      <trkpt lat="44.06002" lon="5.12955">
        <ele>214.4</ele>
        <time>2012-09-15T07:00:16.000Z</time>
      </trkpt>
      <trkpt lat="44.06003" lon="5.12958">
        <ele>214.3</ele>
        <time>2012-09-15T07:00:17.000Z</time>
      </trkpt>
      <trkpt lat="44.06006" lon="5.12965">
        <ele>215.5</ele>
        <time>2012-09-15T07:00:19.000Z</time>
      </trkpt>
      <trkpt lat="44.06005" lon="5.12969">
        <ele>215.9</ele>
        <time>2012-09-15T07:00:20.000Z</time>
      </trkpt>
      <trkpt lat="44.06007" lon="5.12972">
        <ele>216.3</ele>
        <time>2012-09-15T07:00:21.000Z</time>
      </trkpt>
      <trkpt lat="44.06009" lon="5.12978">
        <ele>216.8</ele>
        <time>2012-09-15T07:00:23.000Z</time>
      </trkpt>
      <trkpt lat="44.0601" lon="5.12981">
        <ele>217.1</ele>
        <time>2012-09-15T07:00:24.000Z</time>
      </trkpt>
      <trkpt lat="44.06014" lon="5.12987">
        <ele>217.7</ele>
        <time>2012-09-15T07:00:26.000Z</time>
      </trkpt>
      <trkpt lat="44.06016" lon="5.1299">
        <ele>217.8</ele>
        <time>2012-09-15T07:00:27.000Z</time>
      </trkpt>
      <trkpt lat="44.06018" lon="5.12993">
        <ele>217.9</ele>
        <time>2012-09-15T07:00:28.000Z</time>
      </trkpt>
      <trkpt lat="44.06019" lon="5.12997">
        <ele>217.5</ele>
        <time>2012-09-15T07:00:29.000Z</time>
      </trkpt>
      <trkpt lat="44.06021" lon="5.13">
        <ele>217.6</ele>
        <time>2012-09-15T07:00:30.000Z</time>
      </trkpt>
      <trkpt lat="44.06023" lon="5.13003">
        <ele>217.8</ele>
        <time>2012-09-15T07:00:31.000Z</time>
      </trkpt>
      <trkpt lat="44.06025" lon="5.13006">
        <ele>217.9</ele>
        <time>2012-09-15T07:00:32.000Z</time>
      </trkpt>
      <trkpt lat="44.06027" lon="5.13009">
        <ele>217.8</ele>
        <time>2012-09-15T07:00:33.000Z</time>
      </trkpt>
      <trkpt lat="44.0603" lon="5.13013">
        <ele>218</ele>
        <time>2012-09-15T07:00:34.000Z</time>
      </trkpt>
      <trkpt lat="44.06032" lon="5.13017">
        <ele>218</ele>
        <time>2012-09-15T07:00:35.000Z</time>
      </trkpt>
      <trkpt lat="44.06035" lon="5.13022">
        <ele>218</ele>
        <time>2012-09-15T07:00:36.000Z</time>
      </trkpt>
      <trkpt lat="44.06037" lon="5.13026">
        <ele>218.3</ele>
        <time>2012-09-15T07:00:37.000Z</time>
      </trkpt>
      <trkpt lat="44.06039" lon="5.13029">
        <ele>218.3</ele>
        <time>2012-09-15T07:00:38.000Z</time>
      </trkpt>
      <trkpt lat="44.06041" lon="5.13033">
        <ele>218.4</ele>
        <time>2012-09-15T07:00:39.000Z</time>
      </trkpt>
      <trkpt lat="44.06044" lon="5.13038">
        <ele>218.4</ele>
        <time>2012-09-15T07:00:40.000Z</time>
      </trkpt>
      <trkpt lat="44.06046" lon="5.13042">
        <ele>218.7</ele>
        <time>2012-09-15T07:00:41.000Z</time>
      </trkpt>
      <trkpt lat="44.06048" lon="5.13047">
        <ele>218.5</ele>
        <time>2012-09-15T07:00:42.000Z</time>
      </trkpt>
      <trkpt lat="44.0605" lon="5.13051">
        <ele>219.1</ele>
        <time>2012-09-15T07:00:43.000Z</time>
      </trkpt>
      <trkpt lat="44.06052" lon="5.13055">
        <ele>218.9</ele>
        <time>2012-09-15T07:00:44.000Z</time>
      </trkpt>
      <trkpt lat="44.06055" lon="5.13059">
        <ele>218.9</ele>
        <time>2012-09-15T07:00:45.000Z</time>
      </trkpt>
      <trkpt lat="44.06057" lon="5.13063">
        <ele>219</ele>
        <time>2012-09-15T07:00:46.000Z</time>
      </trkpt>
      <trkpt lat="44.06058" lon="5.13068">
        <ele>219</ele>
        <time>2012-09-15T07:00:47.000Z</time>
      </trkpt>
      <trkpt lat="44.0606" lon="5.13073">
        <ele>218.6</ele>
        <time>2012-09-15T07:00:48.000Z</time>
      </trkpt>
      <trkpt lat="44.06061" lon="5.13077">
        <ele>218.5</ele>
        <time>2012-09-15T07:00:49.000Z</time>
      </trkpt>
      <trkpt lat="44.06063" lon="5.13081">
        <ele>218.7</ele>
        <time>2012-09-15T07:00:50.000Z</time>
      </trkpt>
      <trkpt lat="44.06064" lon="5.13085">
        <ele>218.4</ele>
        <time>2012-09-15T07:00:51.000Z</time>
      </trkpt>
      <trkpt lat="44.06065" lon="5.13089">
        <ele>218.7</ele>
        <time>2012-09-15T07:00:52.000Z</time>
      </trkpt>
      <trkpt lat="44.06067" lon="5.13093">
        <ele>218.7</ele>
        <time>2012-09-15T07:00:53.000Z</time>
      </trkpt>
      <trkpt lat="44.0607" lon="5.13095">
        <ele>218.6</ele>
        <time>2012-09-15T07:00:54.000Z</time>
      </trkpt>
      <trkpt lat="44.06072" lon="5.13098">
        <ele>218.5</ele>
        <time>2012-09-15T07:00:55.000Z</time>
      </trkpt>
      <trkpt lat="44.06074" lon="5.13102">
        <ele>218.4</ele>
        <time>2012-09-15T07:00:56.000Z</time>
      </trkpt>
      <trkpt lat="44.06077" lon="5.13106">
        <ele>218.4</ele>
        <time>2012-09-15T07:00:57.000Z</time>
      </trkpt>
      <trkpt lat="44.06079" lon="5.13109">
        <ele>218.5</ele>
        <time>2012-09-15T07:00:58.000Z</time>
      </trkpt>
      <trkpt lat="44.06082" lon="5.13112">
        <ele>218.5</ele>
        <time>2012-09-15T07:00:59.000Z</time>
      </trkpt>
      <trkpt lat="44.06085" lon="5.13116">
        <ele>218.5</ele>
        <time>2012-09-15T07:01:00.000Z</time>
      </trkpt>
      <trkpt lat="44.06087" lon="5.1312">
        <ele>218.4</ele>
        <time>2012-09-15T07:01:01.000Z</time>
      </trkpt>
      <trkpt lat="44.0609" lon="5.13123">
        <ele>218.2</ele>
        <time>2012-09-15T07:01:02.000Z</time>
      </trkpt>
      <trkpt lat="44.06093" lon="5.13128">
        <ele>218.4</ele>
        <time>2012-09-15T07:01:03.000Z</time>
      </trkpt>
      <trkpt lat="44.06096" lon="5.13132">
        <ele>218.6</ele>
        <time>2012-09-15T07:01:04.000Z</time>
      </trkpt>
      <trkpt lat="44.06099" lon="5.13136">
        <ele>218.7</ele>
        <time>2012-09-15T07:01:05.000Z</time>
      </trkpt>
      <trkpt lat="44.06102" lon="5.1314">
        <ele>218.7</ele>
        <time>2012-09-15T07:01:06.000Z</time>
      </trkpt>
      <trkpt lat="44.06105" lon="5.13144">
        <ele>218.8</ele>
        <time>2012-09-15T07:01:07.000Z</time>
      </trkpt>
      <trkpt lat="44.06108" lon="5.13147">
        <ele>218.9</ele>
        <time>2012-09-15T07:01:08.000Z</time>
      </trkpt>
      <trkpt lat="44.0611" lon="5.1315">
        <ele>218.6</ele>
        <time>2012-09-15T07:01:09.000Z</time>
      </trkpt>
      <trkpt lat="44.06113" lon="5.13155">
        <ele>218.6</ele>
        <time>2012-09-15T07:01:10.000Z</time>
      </trkpt>
      <trkpt lat="44.06116" lon="5.13158">
        <ele>218.6</ele>
        <time>2012-09-15T07:01:11.000Z</time>
      </trkpt>
      <trkpt lat="44.06119" lon="5.13162">
        <ele>219</ele>
        <time>2012-09-15T07:01:12.000Z</time>
      </trkpt>
      <trkpt lat="44.06122" lon="5.13166">
        <ele>218.8</ele>
        <time>2012-09-15T07:01:13.000Z</time>
      </trkpt>
      <trkpt lat="44.06125" lon="5.13169">
        <ele>218.9</ele>
        <time>2012-09-15T07:01:14.000Z</time>
      </trkpt>
      <trkpt lat="44.06128" lon="5.13173">
        <ele>218.8</ele>
        <time>2012-09-15T07:01:15.000Z</time>
      </trkpt>
      <trkpt lat="44.06132" lon="5.13176">
        <ele>219</ele>
        <time>2012-09-15T07:01:16.000Z</time>
      </trkpt>
      <trkpt lat="44.06136" lon="5.1318">
        <ele>219</ele>
        <time>2012-09-15T07:01:17.000Z</time>
      </trkpt>
      <trkpt lat="44.06139" lon="5.13184">
        <ele>219.2</ele>
        <time>2012-09-15T07:01:18.000Z</time>
      </trkpt>
      <trkpt lat="44.06143" lon="5.13187">
        <ele>219.3</ele>
        <time>2012-09-15T07:01:19.000Z</time>
      </trkpt>
      <trkpt lat="44.06147" lon="5.1319">
        <ele>219.5</ele>
        <time>2012-09-15T07:01:20.000Z</time>
      </trkpt>
      <trkpt lat="44.06151" lon="5.13193">
        <ele>219.5</ele>
        <time>2012-09-15T07:01:21.000Z</time>
      </trkpt>
      <trkpt lat="44.06155" lon="5.13196">
        <ele>219.6</ele>
        <time>2012-09-15T07:01:22.000Z</time>
      </trkpt>
      <trkpt lat="44.06159" lon="5.13199">
        <ele>219.6</ele>
        <time>2012-09-15T07:01:23.000Z</time>
      </trkpt>
      <trkpt lat="44.06163" lon="5.13203">
        <ele>219.8</ele>
        <time>2012-09-15T07:01:24.000Z</time>
      </trkpt>
      <trkpt lat="44.06167" lon="5.13206">
        <ele>219.8</ele>
        <time>2012-09-15T07:01:25.000Z</time>
      </trkpt>
      <trkpt lat="44.06171" lon="5.13209">
        <ele>219.9</ele>
        <time>2012-09-15T07:01:26.000Z</time>
      </trkpt>
      <trkpt lat="44.06175" lon="5.13212">
        <ele>220.1</ele>
        <time>2012-09-15T07:01:27.000Z</time>
      </trkpt>
      <trkpt lat="44.06179" lon="5.13216">
        <ele>220.3</ele>
        <time>2012-09-15T07:01:28.000Z</time>
      </trkpt>
      <trkpt lat="44.06183" lon="5.13219">
        <ele>220.5</ele>
        <time>2012-09-15T07:01:29.000Z</time>
      </trkpt>
      <trkpt lat="44.06187" lon="5.13222">
        <ele>220.5</ele>
        <time>2012-09-15T07:01:30.000Z</time>
      </trkpt>
      <trkpt lat="44.06192" lon="5.13226">
        <ele>220.5</ele>
        <time>2012-09-15T07:01:31.000Z</time>
      </trkpt>
      <trkpt lat="44.06196" lon="5.13229">
        <ele>220.7</ele>
        <time>2012-09-15T07:01:32.000Z</time>
      </trkpt>
      <trkpt lat="44.062" lon="5.13233">
        <ele>220.8</ele>
        <time>2012-09-15T07:01:33.000Z</time>
      </trkpt>
      <trkpt lat="44.06204" lon="5.13236">
        <ele>220.8</ele>
        <time>2012-09-15T07:01:34.000Z</time>
      </trkpt>
      <trkpt lat="44.06208" lon="5.1324">
        <ele>220.8</ele>
        <time>2012-09-15T07:01:35.000Z</time>
      </trkpt>
      <trkpt lat="44.06212" lon="5.13244">
        <ele>221.1</ele>
        <time>2012-09-15T07:01:36.000Z</time>
      </trkpt>
      <trkpt lat="44.06216" lon="5.13247">
        <ele>221.1</ele>
        <time>2012-09-15T07:01:37.000Z</time>
      </trkpt>
      <trkpt lat="44.06221" lon="5.13251">
        <ele>221.5</ele>
        <time>2012-09-15T07:01:38.000Z</time>
      </trkpt>
      <trkpt lat="44.06225" lon="5.13254">
        <ele>221.4</ele>
        <time>2012-09-15T07:01:39.000Z</time>
      </trkpt>
      <trkpt lat="44.06229" lon="5.13258">
        <ele>221.7</ele>
        <time>2012-09-15T07:01:40.000Z</time>
      </trkpt>
      <trkpt lat="44.06233" lon="5.13261">
        <ele>221.8</ele>
        <time>2012-09-15T07:01:41.000Z</time>
      </trkpt>
      <trkpt lat="44.06238" lon="5.13264">
        <ele>221.6</ele>
        <time>2012-09-15T07:01:42.000Z</time>
      </trkpt>
      <trkpt lat="44.06242" lon="5.13267">
        <ele>221.9</ele>
        <time>2012-09-15T07:01:43.000Z</time>
      </trkpt>
      <trkpt lat="44.06246" lon="5.1327">
        <ele>221.6</ele>
        <time>2012-09-15T07:01:44.000Z</time>
      </trkpt>
      <trkpt lat="44.0625" lon="5.13272">
        <ele>221.7</ele>
        <time>2012-09-15T07:01:45.000Z</time>
      </trkpt>
      <trkpt lat="44.06254" lon="5.13276">
        <ele>222</ele>
        <time>2012-09-15T07:01:46.000Z</time>
      </trkpt>
      <trkpt lat="44.06259" lon="5.13279">
        <ele>222.2</ele>
        <time>2012-09-15T07:01:47.000Z</time>
      </trkpt>
      <trkpt lat="44.06263" lon="5.13282">
        <ele>222.4</ele>
        <time>2012-09-15T07:01:48.000Z</time>
      </trkpt>
      <trkpt lat="44.06267" lon="5.13285">
        <ele>222.5</ele>
        <time>2012-09-15T07:01:49.000Z</time>
      </trkpt>
      <trkpt lat="44.06271" lon="5.13288">
        <ele>222.6</ele>
        <time>2012-09-15T07:01:50.000Z</time>
      </trkpt>
      <trkpt lat="44.06275" lon="5.13291">
        <ele>222.6</ele>
        <time>2012-09-15T07:01:51.000Z</time>
      </trkpt>
      <trkpt lat="44.06279" lon="5.13294">
        <ele>222.8</ele>
        <time>2012-09-15T07:01:52.000Z</time>
      </trkpt>
      <trkpt lat="44.06283" lon="5.13296">
        <ele>223</ele>
        <time>2012-09-15T07:01:53.000Z</time>
      </trkpt>
      <trkpt lat="44.06287" lon="5.13299">
        <ele>223.1</ele>
        <time>2012-09-15T07:01:54.000Z</time>
      </trkpt>
      <trkpt lat="44.06291" lon="5.13302">
        <ele>223.2</ele>
        <time>2012-09-15T07:01:55.000Z</time>
      </trkpt>
      <trkpt lat="44.06295" lon="5.13304">
        <ele>223.4</ele>
        <time>2012-09-15T07:01:56.000Z</time>
      </trkpt>
      <trkpt lat="44.06299" lon="5.13307">
        <ele>223.6</ele>
        <time>2012-09-15T07:01:57.000Z</time>
      </trkpt>
      <trkpt lat="44.06303" lon="5.1331">
        <ele>223.7</ele>
        <time>2012-09-15T07:01:58.000Z</time>
      </trkpt>
      <trkpt lat="44.06307" lon="5.13312">
        <ele>223.8</ele>
        <time>2012-09-15T07:01:59.000Z</time>
      </trkpt>
      <trkpt lat="44.06311" lon="5.13315">
        <ele>223.9</ele>
        <time>2012-09-15T07:02:00.000Z</time>
      </trkpt>
      <trkpt lat="44.06315" lon="5.13318">
        <ele>223.9</ele>
        <time>2012-09-15T07:02:01.000Z</time>
      </trkpt>
      <trkpt lat="44.06319" lon="5.1332">
        <ele>223.7</ele>
        <time>2012-09-15T07:02:02.000Z</time>
      </trkpt>
      <trkpt lat="44.06323" lon="5.13323">
        <ele>223.7</ele>
        <time>2012-09-15T07:02:03.000Z</time>
      </trkpt>
      <trkpt lat="44.06327" lon="5.13326">
        <ele>223.9</ele>
        <time>2012-09-15T07:02:04.000Z</time>
      </trkpt>
      <trkpt lat="44.06331" lon="5.13328">
        <ele>224</ele>
        <time>2012-09-15T07:02:05.000Z</time>
      </trkpt>
      <trkpt lat="44.06335" lon="5.13331">
        <ele>224.2</ele>
        <time>2012-09-15T07:02:06.000Z</time>
      </trkpt>
      <trkpt lat="44.06339" lon="5.13334">
        <ele>224.2</ele>
        <time>2012-09-15T07:02:07.000Z</time>
      </trkpt>
      <trkpt lat="44.06343" lon="5.13336">
        <ele>224.1</ele>
        <time>2012-09-15T07:02:08.000Z</time>
      </trkpt>
      <trkpt lat="44.06347" lon="5.13339">
        <ele>224</ele>
        <time>2012-09-15T07:02:09.000Z</time>
      </trkpt>
      <trkpt lat="44.06352" lon="5.13341">
        <ele>223.8</ele>
        <time>2012-09-15T07:02:10.000Z</time>
      </trkpt>
      <trkpt lat="44.06356" lon="5.13344">
        <ele>223.8</ele>
        <time>2012-09-15T07:02:11.000Z</time>
      </trkpt>
      <trkpt lat="44.0636" lon="5.13347">
        <ele>224</ele>
        <time>2012-09-15T07:02:12.000Z</time>
      </trkpt>
      <trkpt lat="44.06364" lon="5.13349">
        <ele>224.3</ele>
        <time>2012-09-15T07:02:13.000Z</time>
      </trkpt>
      <trkpt lat="44.06368" lon="5.13352">
        <ele>224.4</ele>
        <time>2012-09-15T07:02:14.000Z</time>
      </trkpt>
      <trkpt lat="44.06372" lon="5.13354">
        <ele>224.3</ele>
        <time>2012-09-15T07:02:15.000Z</time>
      </trkpt>
      <trkpt lat="44.06376" lon="5.13357">
        <ele>224.4</ele>
        <time>2012-09-15T07:02:16.000Z</time>
      </trkpt>
      <trkpt lat="44.06381" lon="5.1336">
        <ele>224.4</ele>
        <time>2012-09-15T07:02:17.000Z</time>
      </trkpt>
      <trkpt lat="44.06385" lon="5.13363">
        <ele>224.3</ele>
        <time>2012-09-15T07:02:18.000Z</time>
      </trkpt>
      <trkpt lat="44.06389" lon="5.13365">
        <ele>224.5</ele>
        <time>2012-09-15T07:02:19.000Z</time>
      </trkpt>
      <trkpt lat="44.06393" lon="5.13368">
        <ele>224.5</ele>
        <time>2012-09-15T07:02:20.000Z</time>
      </trkpt>
      <trkpt lat="44.06397" lon="5.1337">
        <ele>224.5</ele>
        <time>2012-09-15T07:02:21.000Z</time>
      </trkpt>
      <trkpt lat="44.06402" lon="5.13373">
        <ele>224.6</ele>
        <time>2012-09-15T07:02:22.000Z</time>
      </trkpt>
      <trkpt lat="44.06406" lon="5.13375">
        <ele>224.3</ele>
        <time>2012-09-15T07:02:23.000Z</time>
      </trkpt>
      <trkpt lat="44.0641" lon="5.13378">
        <ele>224.3</ele>
        <time>2012-09-15T07:02:24.000Z</time>
      </trkpt>
      <trkpt lat="44.06415" lon="5.1338">
        <ele>224.4</ele>
        <time>2012-09-15T07:02:25.000Z</time>
      </trkpt>
      <trkpt lat="44.0642" lon="5.13383">
        <ele>224.5</ele>
        <time>2012-09-15T07:02:26.000Z</time>
      </trkpt>
      <trkpt lat="44.06424" lon="5.13385">
        <ele>224.5</ele>
        <time>2012-09-15T07:02:27.000Z</time>
      </trkpt>
      <trkpt lat="44.06428" lon="5.13388">
        <ele>224.6</ele>
        <time>2012-09-15T07:02:28.000Z</time>
      </trkpt>
      <trkpt lat="44.06433" lon="5.1339">
        <ele>224.7</ele>
        <time>2012-09-15T07:02:29.000Z</time>
      </trkpt>
      <trkpt lat="44.06437" lon="5.13392">
        <ele>224.7</ele>
        <time>2012-09-15T07:02:30.000Z</time>
      </trkpt>
      <trkpt lat="44.06442" lon="5.13395">
        <ele>224.8</ele>
        <time>2012-09-15T07:02:31.000Z</time>
      </trkpt>
      <trkpt lat="44.06446" lon="5.13397">
        <ele>225</ele>
        <time>2012-09-15T07:02:32.000Z</time>
      </trkpt>
      <trkpt lat="44.06451" lon="5.13399">
        <ele>225</ele>
        <time>2012-09-15T07:02:33.000Z</time>
      </trkpt>
      <trkpt lat="44.06455" lon="5.13401">
        <ele>225</ele>
        <time>2012-09-15T07:02:34.000Z</time>
      </trkpt>
      <trkpt lat="44.06459" lon="5.13404">
        <ele>224.9</ele>
        <time>2012-09-15T07:02:35.000Z</time>
      </trkpt>
      <trkpt lat="44.06463" lon="5.13405">
        <ele>225.1</ele>
        <time>2012-09-15T07:02:36.000Z</time>
      </trkpt>
      <trkpt lat="44.06467" lon="5.13407">
        <ele>225</ele>
        <time>2012-09-15T07:02:37.000Z</time>
      </trkpt>
      <trkpt lat="44.06471" lon="5.13409">
        <ele>225</ele>
        <time>2012-09-15T07:02:38.000Z</time>
      </trkpt>
      <trkpt lat="44.06476" lon="5.13411">
        <ele>225</ele>
        <time>2012-09-15T07:02:39.000Z</time>
      </trkpt>
      <trkpt lat="44.0648" lon="5.13414">
        <ele>225.2</ele>
        <time>2012-09-15T07:02:40.000Z</time>
      </trkpt>
      <trkpt lat="44.06484" lon="5.13416">
        <ele>225.4</ele>
        <time>2012-09-15T07:02:41.000Z</time>
      </trkpt>
      <trkpt lat="44.06488" lon="5.13418">
        <ele>225.4</ele>
        <time>2012-09-15T07:02:42.000Z</time>
      </trkpt>
      <trkpt lat="44.06493" lon="5.1342">
        <ele>225.5</ele>
        <time>2012-09-15T07:02:43.000Z</time>
      </trkpt>
      <trkpt lat="44.06497" lon="5.13422">
        <ele>225.6</ele>
        <time>2012-09-15T07:02:44.000Z</time>
      </trkpt>
      <trkpt lat="44.06501" lon="5.13424">
        <ele>225.4</ele>
        <time>2012-09-15T07:02:45.000Z</time>
      </trkpt>
      <trkpt lat="44.06505" lon="5.13425">
        <ele>225.3</ele>
        <time>2012-09-15T07:02:46.000Z</time>
      </trkpt>
      <trkpt lat="44.06509" lon="5.13427">
        <ele>225.1</ele>
        <time>2012-09-15T07:02:47.000Z</time>
      </trkpt>
      <trkpt lat="44.06513" lon="5.13428">
        <ele>225</ele>
        <time>2012-09-15T07:02:48.000Z</time>
      </trkpt>
      <trkpt lat="44.06517" lon="5.1343">
        <ele>225.1</ele>
        <time>2012-09-15T07:02:49.000Z</time>
      </trkpt>
      <trkpt lat="44.0652" lon="5.13431">
        <ele>225.1</ele>
        <time>2012-09-15T07:02:50.000Z</time>
      </trkpt>
      <trkpt lat="44.06524" lon="5.13433">
        <ele>225</ele>
        <time>2012-09-15T07:02:51.000Z</time>
      </trkpt>
      <trkpt lat="44.06528" lon="5.13435">
        <ele>224.8</ele>
        <time>2012-09-15T07:02:52.000Z</time>
      </trkpt>
      <trkpt lat="44.06532" lon="5.13436">
        <ele>225.1</ele>
        <time>2012-09-15T07:02:53.000Z</time>
      </trkpt>
      <trkpt lat="44.06535" lon="5.13438">
        <ele>225.3</ele>
        <time>2012-09-15T07:02:54.000Z</time>
      </trkpt>
      <trkpt lat="44.06538" lon="5.13439">
        <ele>225.3</ele>
        <time>2012-09-15T07:02:55.000Z</time>
      </trkpt>
      <trkpt lat="44.06542" lon="5.1344">
        <ele>225.3</ele>
        <time>2012-09-15T07:02:56.000Z</time>
      </trkpt>
      <trkpt lat="44.06545" lon="5.13442">
        <ele>225.4</ele>
        <time>2012-09-15T07:02:57.000Z</time>
      </trkpt>
      <trkpt lat="44.06548" lon="5.13443">
        <ele>225.3</ele>
        <time>2012-09-15T07:02:58.000Z</time>
      </trkpt>
      <trkpt lat="44.06551" lon="5.13446">
        <ele>225.4</ele>
        <time>2012-09-15T07:02:59.000Z</time>
      </trkpt>
      <trkpt lat="44.06553" lon="5.1345">
        <ele>225.6</ele>
        <time>2012-09-15T07:03:00.000Z</time>
      </trkpt>
      <trkpt lat="44.06555" lon="5.13454">
        <ele>225.6</ele>
        <time>2012-09-15T07:03:01.000Z</time>
      </trkpt>
      <trkpt lat="44.06557" lon="5.13459">
        <ele>225.7</ele>
        <time>2012-09-15T07:03:02.000Z</time>
      </trkpt>
      <trkpt lat="44.06559" lon="5.13463">
        <ele>226</ele>
        <time>2012-09-15T07:03:03.000Z</time>
      </trkpt>
      <trkpt lat="44.06561" lon="5.13467">
        <ele>226.2</ele>
        <time>2012-09-15T07:03:04.000Z</time>
      </trkpt>
      <trkpt lat="44.06563" lon="5.13471">
        <ele>226.2</ele>
        <time>2012-09-15T07:03:05.000Z</time>
      </trkpt>
      <trkpt lat="44.06565" lon="5.13476">
        <ele>226.2</ele>
        <time>2012-09-15T07:03:06.000Z</time>
      </trkpt>
      <trkpt lat="44.06567" lon="5.1348">
        <ele>226.1</ele>
        <time>2012-09-15T07:03:07.000Z</time>
      </trkpt>
      <trkpt lat="44.06567" lon="5.13484">
        <ele>226.6</ele>
        <time>2012-09-15T07:03:08.000Z</time>
      </trkpt>
      <trkpt lat="44.06568" lon="5.1349">
        <ele>228.2</ele>
        <time>2012-09-15T07:03:10.000Z</time>
      </trkpt>
      <trkpt lat="44.06569" lon="5.13494">
        <ele>227.9</ele>
        <time>2012-09-15T07:03:11.000Z</time>
      </trkpt>
      <trkpt lat="44.06571" lon="5.13498">
        <ele>228.4</ele>
        <time>2012-09-15T07:03:12.000Z</time>
      </trkpt>
      <trkpt lat="44.06573" lon="5.13501">
        <ele>228.4</ele>
        <time>2012-09-15T07:03:13.000Z</time>
      </trkpt>
      <trkpt lat="44.06575" lon="5.13506">
        <ele>228.5</ele>
        <time>2012-09-15T07:03:14.000Z</time>
      </trkpt>
      <trkpt lat="44.06577" lon="5.1351">
        <ele>228.9</ele>
        <time>2012-09-15T07:03:15.000Z</time>
      </trkpt>
      <trkpt lat="44.0658" lon="5.13514">
        <ele>229.4</ele>
        <time>2012-09-15T07:03:16.000Z</time>
      </trkpt>
      <trkpt lat="44.06582" lon="5.13518">
        <ele>229.7</ele>
        <time>2012-09-15T07:03:17.000Z</time>
      </trkpt>
      <trkpt lat="44.06585" lon="5.13522">
        <ele>230.3</ele>
        <time>2012-09-15T07:03:18.000Z</time>
      </trkpt>
      <trkpt lat="44.06588" lon="5.13527">
        <ele>230.5</ele>
        <time>2012-09-15T07:03:19.000Z</time>
      </trkpt>
      <trkpt lat="44.0659" lon="5.13531">
        <ele>230.4</ele>
        <time>2012-09-15T07:03:20.000Z</time>
      </trkpt>
      <trkpt lat="44.06593" lon="5.13536">
        <ele>230.2</ele>
        <time>2012-09-15T07:03:21.000Z</time>
      </trkpt>
      <trkpt lat="44.06596" lon="5.13541">
        <ele>230.1</ele>
        <time>2012-09-15T07:03:22.000Z</time>
      </trkpt>
      <trkpt lat="44.06599" lon="5.13546">
        <ele>230.1</ele>
        <time>2012-09-15T07:03:23.000Z</time>
      </trkpt>
      <trkpt lat="44.06602" lon="5.13551">
        <ele>230</ele>
        <time>2012-09-15T07:03:24.000Z</time>
      </trkpt>
      <trkpt lat="44.06605" lon="5.13556">
        <ele>230</ele>
        <time>2012-09-15T07:03:25.000Z</time>
      </trkpt>
      <trkpt lat="44.06608" lon="5.13562">
        <ele>229.6</ele>
        <time>2012-09-15T07:03:26.000Z</time>
      </trkpt>
      <trkpt lat="44.06611" lon="5.13568">
        <ele>229.4</ele>
        <time>2012-09-15T07:03:27.000Z</time>
      </trkpt>
      <trkpt lat="44.06614" lon="5.13572">
        <ele>229.5</ele>
        <time>2012-09-15T07:03:28.000Z</time>
      </trkpt>
      <trkpt lat="44.06616" lon="5.13578">
        <ele>229.4</ele>
        <time>2012-09-15T07:03:29.000Z</time>
      </trkpt>
      <trkpt lat="44.06619" lon="5.13583">
        <ele>229.2</ele>
        <time>2012-09-15T07:03:30.000Z</time>
      </trkpt>
      <trkpt lat="44.06621" lon="5.13588">
        <ele>229</ele>
        <time>2012-09-15T07:03:31.000Z</time>
      </trkpt>
      <trkpt lat="44.06624" lon="5.13594">
        <ele>228.7</ele>
        <time>2012-09-15T07:03:32.000Z</time>
      </trkpt>
      <trkpt lat="44.06626" lon="5.136">
        <ele>228.5</ele>
        <time>2012-09-15T07:03:33.000Z</time>
      </trkpt>
      <trkpt lat="44.06628" lon="5.13605">
        <ele>228.4</ele>
        <time>2012-09-15T07:03:34.000Z</time>
      </trkpt>
      <trkpt lat="44.0663" lon="5.13611">
        <ele>228.2</ele>
        <time>2012-09-15T07:03:35.000Z</time>
      </trkpt>
      <trkpt lat="44.06632" lon="5.13617">
        <ele>227.9</ele>
        <time>2012-09-15T07:03:36.000Z</time>
      </trkpt>
      <trkpt lat="44.06634" lon="5.13622">
        <ele>227.7</ele>
        <time>2012-09-15T07:03:37.000Z</time>
      </trkpt>
      <trkpt lat="44.06636" lon="5.13628">
        <ele>227.8</ele>
        <time>2012-09-15T07:03:38.000Z</time>
      </trkpt>
      <trkpt lat="44.06637" lon="5.13633">
        <ele>227.6</ele>
        <time>2012-09-15T07:03:39.000Z</time>
      </trkpt>
      <trkpt lat="44.06639" lon="5.13638">
        <ele>227.5</ele>
        <time>2012-09-15T07:03:40.000Z</time>
      </trkpt>
      <trkpt lat="44.0664" lon="5.13643">
        <ele>227.4</ele>
        <time>2012-09-15T07:03:41.000Z</time>
      </trkpt>
      <trkpt lat="44.06642" lon="5.13649">
        <ele>227.3</ele>
        <time>2012-09-15T07:03:42.000Z</time>
      </trkpt>
      <trkpt lat="44.06644" lon="5.13654">
        <ele>227</ele>
        <time>2012-09-15T07:03:43.000Z</time>
      </trkpt>
      <trkpt lat="44.06646" lon="5.1366">
        <ele>227.1</ele>
        <time>2012-09-15T07:03:44.000Z</time>
      </trkpt>
      <trkpt lat="44.06648" lon="5.13666">
        <ele>227.2</ele>
        <time>2012-09-15T07:03:45.000Z</time>
      </trkpt>
      <trkpt lat="44.0665" lon="5.13671">
        <ele>227.2</ele>
        <time>2012-09-15T07:03:46.000Z</time>
      </trkpt>
      <trkpt lat="44.06652" lon="5.13677">
        <ele>227.2</ele>
        <time>2012-09-15T07:03:47.000Z</time>
      </trkpt>
      <trkpt lat="44.06655" lon="5.13682">
        <ele>227.3</ele>
        <time>2012-09-15T07:03:48.000Z</time>
      </trkpt>
      <trkpt lat="44.06658" lon="5.13686">
        <ele>227.5</ele>
        <time>2012-09-15T07:03:49.000Z</time>
      </trkpt>
      <trkpt lat="44.06661" lon="5.13691">
        <ele>227.5</ele>
        <time>2012-09-15T07:03:50.000Z</time>
      </trkpt>
      <trkpt lat="44.06664" lon="5.13696">
        <ele>227.5</ele>
        <time>2012-09-15T07:03:51.000Z</time>
      </trkpt>
      <trkpt lat="44.06668" lon="5.137">
        <ele>227.5</ele>
        <time>2012-09-15T07:03:52.000Z</time>
      </trkpt>
      <trkpt lat="44.06671" lon="5.13704">
        <ele>227.5</ele>
        <time>2012-09-15T07:03:53.000Z</time>
      </trkpt>
      <trkpt lat="44.06674" lon="5.13708">
        <ele>227.7</ele>
        <time>2012-09-15T07:03:54.000Z</time>
      </trkpt>
      <trkpt lat="44.06677" lon="5.13712">
        <ele>227.7</ele>
        <time>2012-09-15T07:03:55.000Z</time>
      </trkpt>
      <trkpt lat="44.0668" lon="5.13716">
        <ele>227.6</ele>
        <time>2012-09-15T07:03:56.000Z</time>
      </trkpt>
      <trkpt lat="44.06683" lon="5.1372">
        <ele>227.5</ele>
        <time>2012-09-15T07:03:57.000Z</time>
      </trkpt>
      <trkpt lat="44.06686" lon="5.13724">
        <ele>227.4</ele>
        <time>2012-09-15T07:03:58.000Z</time>
      </trkpt>
      <trkpt lat="44.06689" lon="5.13728">
        <ele>227.3</ele>
        <time>2012-09-15T07:03:59.000Z</time>
      </trkpt>
      <trkpt lat="44.06692" lon="5.13732">
        <ele>227.4</ele>
        <time>2012-09-15T07:04:00.000Z</time>
      </trkpt>
      <trkpt lat="44.06695" lon="5.13736">
        <ele>227.3</ele>
        <time>2012-09-15T07:04:01.000Z</time>
      </trkpt>
      <trkpt lat="44.06698" lon="5.1374">
        <ele>227.5</ele>
        <time>2012-09-15T07:04:02.000Z</time>
      </trkpt>
      <trkpt lat="44.067" lon="5.13745">
        <ele>227.3</ele>
        <time>2012-09-15T07:04:03.000Z</time>
      </trkpt>
      <trkpt lat="44.06703" lon="5.13749">
        <ele>227.3</ele>
        <time>2012-09-15T07:04:04.000Z</time>
      </trkpt>
      <trkpt lat="44.06706" lon="5.13753">
        <ele>227.4</ele>
        <time>2012-09-15T07:04:05.000Z</time>
      </trkpt>
      <trkpt lat="44.06709" lon="5.13758">
        <ele>227.4</ele>
        <time>2012-09-15T07:04:06.000Z</time>
      </trkpt>
      <trkpt lat="44.06711" lon="5.13762">
        <ele>227.5</ele>
        <time>2012-09-15T07:04:07.000Z</time>
      </trkpt>
      <trkpt lat="44.06714" lon="5.13766">
        <ele>227.5</ele>
        <time>2012-09-15T07:04:08.000Z</time>
      </trkpt>
      <trkpt lat="44.06716" lon="5.1377">
        <ele>227.4</ele>
        <time>2012-09-15T07:04:09.000Z</time>
      </trkpt>
      <trkpt lat="44.06719" lon="5.13774">
        <ele>227.3</ele>
        <time>2012-09-15T07:04:10.000Z</time>
      </trkpt>
      <trkpt lat="44.06721" lon="5.13778">
        <ele>227.2</ele>
        <time>2012-09-15T07:04:11.000Z</time>
      </trkpt>
      <trkpt lat="44.06724" lon="5.13783">
        <ele>227.2</ele>
        <time>2012-09-15T07:04:12.000Z</time>
      </trkpt>
      <trkpt lat="44.06726" lon="5.13788">
        <ele>227.2</ele>
        <time>2012-09-15T07:04:13.000Z</time>
      </trkpt>
      <trkpt lat="44.06729" lon="5.13792">
        <ele>227.2</ele>
        <time>2012-09-15T07:04:14.000Z</time>
      </trkpt>
      <trkpt lat="44.06731" lon="5.13797">
        <ele>227.3</ele>
        <time>2012-09-15T07:04:15.000Z</time>
      </trkpt>
      <trkpt lat="44.06734" lon="5.13802">
        <ele>227.2</ele>
        <time>2012-09-15T07:04:16.000Z</time>
      </trkpt>
      <trkpt lat="44.06736" lon="5.13807">
        <ele>227.3</ele>
        <time>2012-09-15T07:04:17.000Z</time>
      </trkpt>
      <trkpt lat="44.06738" lon="5.13812">
        <ele>227.1</ele>
        <time>2012-09-15T07:04:18.000Z</time>
      </trkpt>
      <trkpt lat="44.0674" lon="5.13816">
        <ele>227</ele>
        <time>2012-09-15T07:04:19.000Z</time>
      </trkpt>
      <trkpt lat="44.06743" lon="5.13821">
        <ele>227.1</ele>
        <time>2012-09-15T07:04:20.000Z</time>
      </trkpt>
      <trkpt lat="44.06745" lon="5.13825">
        <ele>227.2</ele>
        <time>2012-09-15T07:04:21.000Z</time>
      </trkpt>
      <trkpt lat="44.06747" lon="5.1383">
        <ele>227.2</ele>
        <time>2012-09-15T07:04:22.000Z</time>
      </trkpt>
      <trkpt lat="44.06749" lon="5.13834">
        <ele>227</ele>
        <time>2012-09-15T07:04:23.000Z</time>
      </trkpt>
      <trkpt lat="44.06751" lon="5.13838">
        <ele>227.1</ele>
        <time>2012-09-15T07:04:24.000Z</time>
      </trkpt>
      <trkpt lat="44.06754" lon="5.13843">
        <ele>227.1</ele>
        <time>2012-09-15T07:04:25.000Z</time>
      </trkpt>
      <trkpt lat="44.06756" lon="5.13848">
        <ele>227.1</ele>
        <time>2012-09-15T07:04:26.000Z</time>
      </trkpt>
      <trkpt lat="44.06758" lon="5.13852">
        <ele>227.1</ele>
        <time>2012-09-15T07:04:27.000Z</time>
      </trkpt>
      <trkpt lat="44.0676" lon="5.13857">
        <ele>227.3</ele>
        <time>2012-09-15T07:04:28.000Z</time>
      </trkpt>
      <trkpt lat="44.06762" lon="5.13861">
        <ele>227.5</ele>
        <time>2012-09-15T07:04:29.000Z</time>
      </trkpt>
      <trkpt lat="44.06765" lon="5.13864">
        <ele>227.5</ele>
        <time>2012-09-15T07:04:30.000Z</time>
      </trkpt>
      <trkpt lat="44.06768" lon="5.13867">
        <ele>227.6</ele>
        <time>2012-09-15T07:04:31.000Z</time>
      </trkpt>
      <trkpt lat="44.06771" lon="5.1387">
        <ele>227.7</ele>
        <time>2012-09-15T07:04:32.000Z</time>
      </trkpt>
      <trkpt lat="44.06774" lon="5.13873">
        <ele>227.7</ele>
        <time>2012-09-15T07:04:33.000Z</time>
      </trkpt>
      <trkpt lat="44.06777" lon="5.13875">
        <ele>227.7</ele>
        <time>2012-09-15T07:04:34.000Z</time>
      </trkpt>
      <trkpt lat="44.0678" lon="5.13877">
        <ele>227.8</ele>
        <time>2012-09-15T07:04:35.000Z</time>
      </trkpt>
      <trkpt lat="44.06784" lon="5.13879">
        <ele>227.9</ele>
        <time>2012-09-15T07:04:36.000Z</time>
      </trkpt>
      <trkpt lat="44.06787" lon="5.1388">
        <ele>227.9</ele>
        <time>2012-09-15T07:04:37.000Z</time>
      </trkpt>
      <trkpt lat="44.06791" lon="5.13882">
        <ele>227.9</ele>
        <time>2012-09-15T07:04:38.000Z</time>
      </trkpt>
      <trkpt lat="44.06794" lon="5.13883">
        <ele>227.9</ele>
        <time>2012-09-15T07:04:39.000Z</time>
      </trkpt>
      <trkpt lat="44.06798" lon="5.13884">
        <ele>228</ele>
        <time>2012-09-15T07:04:40.000Z</time>
      </trkpt>
      <trkpt lat="44.06802" lon="5.13885">
        <ele>228.1</ele>
        <time>2012-09-15T07:04:41.000Z</time>
      </trkpt>
      <trkpt lat="44.06806" lon="5.13886">
        <ele>228.1</ele>
        <time>2012-09-15T07:04:42.000Z</time>
      </trkpt>
      <trkpt lat="44.06809" lon="5.13886">
        <ele>228.2</ele>
        <time>2012-09-15T07:04:43.000Z</time>
      </trkpt>
      <trkpt lat="44.06813" lon="5.13887">
        <ele>228.3</ele>
        <time>2012-09-15T07:04:44.000Z</time>
      </trkpt>
      <trkpt lat="44.06817" lon="5.13888">
        <ele>228.3</ele>
        <time>2012-09-15T07:04:45.000Z</time>
      </trkpt>
      <trkpt lat="44.06821" lon="5.13889">
        <ele>228.2</ele>
        <time>2012-09-15T07:04:46.000Z</time>
      </trkpt>
      <trkpt lat="44.06825" lon="5.1389">
        <ele>228.2</ele>
        <time>2012-09-15T07:04:47.000Z</time>
      </trkpt>
      <trkpt lat="44.06828" lon="5.1389">
        <ele>228.3</ele>
        <time>2012-09-15T07:04:48.000Z</time>
      </trkpt>
      <trkpt lat="44.06832" lon="5.13891">
        <ele>228.4</ele>
        <time>2012-09-15T07:04:49.000Z</time>
      </trkpt>
      <trkpt lat="44.06836" lon="5.13892">
        <ele>228.4</ele>
        <time>2012-09-15T07:04:50.000Z</time>
      </trkpt>
      <trkpt lat="44.0684" lon="5.13892">
        <ele>228.3</ele>
        <time>2012-09-15T07:04:51.000Z</time>
      </trkpt>
      <trkpt lat="44.06844" lon="5.13893">
        <ele>228.3</ele>
        <time>2012-09-15T07:04:52.000Z</time>
      </trkpt>
      <trkpt lat="44.06848" lon="5.13893">
        <ele>228.4</ele>
        <time>2012-09-15T07:04:53.000Z</time>
      </trkpt>
      <trkpt lat="44.06851" lon="5.13894">
        <ele>228.6</ele>
        <time>2012-09-15T07:04:54.000Z</time>
      </trkpt>
      <trkpt lat="44.06855" lon="5.13894">
        <ele>228.6</ele>
        <time>2012-09-15T07:04:55.000Z</time>
      </trkpt>
      <trkpt lat="44.06859" lon="5.13893">
        <ele>228.8</ele>
        <time>2012-09-15T07:04:56.000Z</time>
      </trkpt>
      <trkpt lat="44.06864" lon="5.13893">
        <ele>228.9</ele>
        <time>2012-09-15T07:04:57.000Z</time>
      </trkpt>
      <trkpt lat="44.06868" lon="5.13892">
        <ele>229.1</ele>
        <time>2012-09-15T07:04:58.000Z</time>
      </trkpt>
      <trkpt lat="44.06872" lon="5.13893">
        <ele>229.4</ele>
        <time>2012-09-15T07:04:59.000Z</time>
      </trkpt>
      <trkpt lat="44.06876" lon="5.13893">
        <ele>229.5</ele>
        <time>2012-09-15T07:05:00.000Z</time>
      </trkpt>
      <trkpt lat="44.0688" lon="5.13893">
        <ele>229.6</ele>
        <time>2012-09-15T07:05:01.000Z</time>
      </trkpt>
      <trkpt lat="44.06883" lon="5.13893">
        <ele>229.7</ele>
        <time>2012-09-15T07:05:02.000Z</time>
      </trkpt>
      <trkpt lat="44.06887" lon="5.13893">
        <ele>229.9</ele>
        <time>2012-09-15T07:05:03.000Z</time>
      </trkpt>
      <trkpt lat="44.0689" lon="5.13894">
        <ele>229.8</ele>
        <time>2012-09-15T07:05:04.000Z</time>
      </trkpt>
      <trkpt lat="44.06894" lon="5.13894">
        <ele>229.9</ele>
        <time>2012-09-15T07:05:05.000Z</time>
      </trkpt>
      <trkpt lat="44.06897" lon="5.13893">
        <ele>229.8</ele>
        <time>2012-09-15T07:05:06.000Z</time>
      </trkpt>
      <trkpt lat="44.069" lon="5.13893">
        <ele>229.9</ele>
        <time>2012-09-15T07:05:07.000Z</time>
      </trkpt>
      <trkpt lat="44.06904" lon="5.13893">
        <ele>230.1</ele>
        <time>2012-09-15T07:05:08.000Z</time>
      </trkpt>
      <trkpt lat="44.06907" lon="5.13893">
        <ele>230.2</ele>
        <time>2012-09-15T07:05:09.000Z</time>
      </trkpt>
      <trkpt lat="44.06911" lon="5.13893">
        <ele>230.3</ele>
        <time>2012-09-15T07:05:10.000Z</time>
      </trkpt>
      <trkpt lat="44.06914" lon="5.13893">
        <ele>230.4</ele>
        <time>2012-09-15T07:05:11.000Z</time>
      </trkpt>
      <trkpt lat="44.06917" lon="5.13893">
        <ele>230.6</ele>
        <time>2012-09-15T07:05:12.000Z</time>
      </trkpt>
      <trkpt lat="44.0692" lon="5.13893">
        <ele>230.6</ele>
        <time>2012-09-15T07:05:13.000Z</time>
      </trkpt>
      <trkpt lat="44.06924" lon="5.13892">
        <ele>230.7</ele>
        <time>2012-09-15T07:05:14.000Z</time>
      </trkpt>
      <trkpt lat="44.06927" lon="5.13892">
        <ele>230.8</ele>
        <time>2012-09-15T07:05:15.000Z</time>
      </trkpt>
      <trkpt lat="44.0693" lon="5.13892">
        <ele>230.8</ele>
        <time>2012-09-15T07:05:16.000Z</time>
      </trkpt>
      <trkpt lat="44.06934" lon="5.13891">
        <ele>230.8</ele>
        <time>2012-09-15T07:05:17.000Z</time>
      </trkpt>
      <trkpt lat="44.06937" lon="5.13891">
        <ele>230.7</ele>
        <time>2012-09-15T07:05:18.000Z</time>
      </trkpt>
      <trkpt lat="44.0694" lon="5.13891">
        <ele>230.7</ele>
        <time>2012-09-15T07:05:19.000Z</time>
      </trkpt>
      <trkpt lat="44.06944" lon="5.13891">
        <ele>230.6</ele>
        <time>2012-09-15T07:05:20.000Z</time>
      </trkpt>
      <trkpt lat="44.06947" lon="5.13891">
        <ele>230.5</ele>
        <time>2012-09-15T07:05:21.000Z</time>
      </trkpt>
      <trkpt lat="44.0695" lon="5.13891">
        <ele>230.6</ele>
        <time>2012-09-15T07:05:22.000Z</time>
      </trkpt>
      <trkpt lat="44.06954" lon="5.13891">
        <ele>230.6</ele>
        <time>2012-09-15T07:05:23.000Z</time>
      </trkpt>
      <trkpt lat="44.06957" lon="5.13892">
        <ele>230.6</ele>
        <time>2012-09-15T07:05:24.000Z</time>
      </trkpt>
      <trkpt lat="44.0696" lon="5.13892">
        <ele>230.6</ele>
        <time>2012-09-15T07:05:25.000Z</time>
      </trkpt>
      <trkpt lat="44.06964" lon="5.13893">
        <ele>230.8</ele>
        <time>2012-09-15T07:05:26.000Z</time>
      </trkpt>
      <trkpt lat="44.06967" lon="5.13894">
        <ele>230.8</ele>
        <time>2012-09-15T07:05:27.000Z</time>
      </trkpt>
      <trkpt lat="44.0697" lon="5.13895">
        <ele>230.9</ele>
        <time>2012-09-15T07:05:28.000Z</time>
      </trkpt>
      <trkpt lat="44.06973" lon="5.13896">
        <ele>231</ele>
        <time>2012-09-15T07:05:29.000Z</time>
      </trkpt>
      <trkpt lat="44.06976" lon="5.13897">
        <ele>231.2</ele>
        <time>2012-09-15T07:05:30.000Z</time>
      </trkpt>
      <trkpt lat="44.06979" lon="5.13897">
        <ele>231.2</ele>
        <time>2012-09-15T07:05:31.000Z</time>
      </trkpt>
      <trkpt lat="44.06982" lon="5.13898">
        <ele>231.6</ele>
        <time>2012-09-15T07:05:32.000Z</time>
      </trkpt>
      <trkpt lat="44.06986" lon="5.13899">
        <ele>231.7</ele>
        <time>2012-09-15T07:05:33.000Z</time>
      </trkpt>
      <trkpt lat="44.06989" lon="5.139">
        <ele>231.7</ele>
        <time>2012-09-15T07:05:34.000Z</time>
      </trkpt>
      <trkpt lat="44.06992" lon="5.13901">
        <ele>231.7</ele>
        <time>2012-09-15T07:05:35.000Z</time>
      </trkpt>
      <trkpt lat="44.06995" lon="5.13902">
        <ele>232</ele>
        <time>2012-09-15T07:05:36.000Z</time>
      </trkpt>
      <trkpt lat="44.06999" lon="5.13904">
        <ele>232</ele>
        <time>2012-09-15T07:05:37.000Z</time>
      </trkpt>
      <trkpt lat="44.07002" lon="5.13905">
        <ele>232.1</ele>
        <time>2012-09-15T07:05:38.000Z</time>
      </trkpt>
      <trkpt lat="44.07006" lon="5.13906">
        <ele>232.4</ele>
        <time>2012-09-15T07:05:39.000Z</time>
      </trkpt>
      <trkpt lat="44.0701" lon="5.13907">
        <ele>232.4</ele>
        <time>2012-09-15T07:05:40.000Z</time>
      </trkpt>
      <trkpt lat="44.07013" lon="5.13908">
        <ele>232.9</ele>
        <time>2012-09-15T07:05:41.000Z</time>
      </trkpt>
      <trkpt lat="44.07016" lon="5.1391">
        <ele>233.1</ele>
        <time>2012-09-15T07:05:42.000Z</time>
      </trkpt>
      <trkpt lat="44.0702" lon="5.13911">
        <ele>233.2</ele>
        <time>2012-09-15T07:05:43.000Z</time>
      </trkpt>
      <trkpt lat="44.07023" lon="5.13912">
        <ele>233.5</ele>
        <time>2012-09-15T07:05:44.000Z</time>
      </trkpt>
      <trkpt lat="44.07027" lon="5.13914">
        <ele>233.6</ele>
        <time>2012-09-15T07:05:45.000Z</time>
      </trkpt>
      <trkpt lat="44.07031" lon="5.13916">
        <ele>233.7</ele>
        <time>2012-09-15T07:05:46.000Z</time>
      </trkpt>
      <trkpt lat="44.07035" lon="5.13917">
        <ele>233.8</ele>
        <time>2012-09-15T07:05:47.000Z</time>
      </trkpt>
      <trkpt lat="44.07038" lon="5.13918">
        <ele>233.9</ele>
        <time>2012-09-15T07:05:48.000Z</time>
      </trkpt>
      <trkpt lat="44.07042" lon="5.1392">
        <ele>234</ele>
        <time>2012-09-15T07:05:49.000Z</time>
      </trkpt>
      <trkpt lat="44.07046" lon="5.13921">
        <ele>234.2</ele>
        <time>2012-09-15T07:05:50.000Z</time>
      </trkpt>
      <trkpt lat="44.07049" lon="5.13923">
        <ele>234.3</ele>
        <time>2012-09-15T07:05:51.000Z</time>
      </trkpt>
      <trkpt lat="44.07053" lon="5.13925">
        <ele>234.5</ele>
        <time>2012-09-15T07:05:52.000Z</time>
      </trkpt>
      <trkpt lat="44.07057" lon="5.13926">
        <ele>234.5</ele>
        <time>2012-09-15T07:05:53.000Z</time>
      </trkpt>
      <trkpt lat="44.0706" lon="5.13928">
        <ele>234.6</ele>
        <time>2012-09-15T07:05:54.000Z</time>
      </trkpt>
      <trkpt lat="44.07064" lon="5.1393">
        <ele>234.7</ele>
        <time>2012-09-15T07:05:55.000Z</time>
      </trkpt>
      <trkpt lat="44.07068" lon="5.13931">
        <ele>234.8</ele>
        <time>2012-09-15T07:05:56.000Z</time>
      </trkpt>
      <trkpt lat="44.07072" lon="5.13932">
        <ele>234.8</ele>
        <time>2012-09-15T07:05:57.000Z</time>
      </trkpt>
      <trkpt lat="44.07075" lon="5.13934">
        <ele>235</ele>
        <time>2012-09-15T07:05:58.000Z</time>
      </trkpt>
      <trkpt lat="44.07078" lon="5.13936">
        <ele>235</ele>
        <time>2012-09-15T07:05:59.000Z</time>
      </trkpt>
      <trkpt lat="44.07082" lon="5.13937">
        <ele>235.2</ele>
        <time>2012-09-15T07:06:00.000Z</time>
      </trkpt>
      <trkpt lat="44.07085" lon="5.13939">
        <ele>235.5</ele>
        <time>2012-09-15T07:06:01.000Z</time>
      </trkpt>
      <trkpt lat="44.07089" lon="5.13941">
        <ele>235.6</ele>
        <time>2012-09-15T07:06:02.000Z</time>
      </trkpt>
      <trkpt lat="44.07092" lon="5.13943">
        <ele>236</ele>
        <time>2012-09-15T07:06:03.000Z</time>
      </trkpt>
      <trkpt lat="44.07096" lon="5.13944">
        <ele>236</ele>
        <time>2012-09-15T07:06:04.000Z</time>
      </trkpt>
      <trkpt lat="44.07099" lon="5.13946">
        <ele>236.3</ele>
        <time>2012-09-15T07:06:05.000Z</time>
      </trkpt>
      <trkpt lat="44.07103" lon="5.13947">
        <ele>236.4</ele>
        <time>2012-09-15T07:06:06.000Z</time>
      </trkpt>
      <trkpt lat="44.07106" lon="5.13949">
        <ele>236.5</ele>
        <time>2012-09-15T07:06:07.000Z</time>
      </trkpt>
      <trkpt lat="44.0711" lon="5.1395">
        <ele>236.5</ele>
        <time>2012-09-15T07:06:08.000Z</time>
      </trkpt>
      <trkpt lat="44.07113" lon="5.13952">
        <ele>236.6</ele>
        <time>2012-09-15T07:06:09.000Z</time>
      </trkpt>
      <trkpt lat="44.07116" lon="5.13953">
        <ele>236.8</ele>
        <time>2012-09-15T07:06:10.000Z</time>
      </trkpt>
      <trkpt lat="44.0712" lon="5.13955">
        <ele>237.1</ele>
        <time>2012-09-15T07:06:11.000Z</time>
      </trkpt>
      <trkpt lat="44.07124" lon="5.13957">
        <ele>237.2</ele>
        <time>2012-09-15T07:06:12.000Z</time>
      </trkpt>
      <trkpt lat="44.07127" lon="5.13958">
        <ele>237.3</ele>
        <time>2012-09-15T07:06:13.000Z</time>
      </trkpt>
      <trkpt lat="44.0713" lon="5.1396">
        <ele>237.4</ele>
        <time>2012-09-15T07:06:14.000Z</time>
      </trkpt>
      <trkpt lat="44.07134" lon="5.13962">
        <ele>237.6</ele>
        <time>2012-09-15T07:06:15.000Z</time>
      </trkpt>
      <trkpt lat="44.07137" lon="5.13963">
        <ele>237.8</ele>
        <time>2012-09-15T07:06:16.000Z</time>
      </trkpt>
      <trkpt lat="44.07141" lon="5.13965">
        <ele>238</ele>
        <time>2012-09-15T07:06:17.000Z</time>
      </trkpt>
      <trkpt lat="44.07144" lon="5.13967">
        <ele>238</ele>
        <time>2012-09-15T07:06:18.000Z</time>
      </trkpt>
      <trkpt lat="44.07148" lon="5.13968">
        <ele>238.1</ele>
        <time>2012-09-15T07:06:19.000Z</time>
      </trkpt>
      <trkpt lat="44.07151" lon="5.1397">
        <ele>238.1</ele>
        <time>2012-09-15T07:06:20.000Z</time>
      </trkpt>
      <trkpt lat="44.07154" lon="5.13972">
        <ele>238.2</ele>
        <time>2012-09-15T07:06:21.000Z</time>
      </trkpt>
      <trkpt lat="44.07158" lon="5.13973">
        <ele>238.5</ele>
        <time>2012-09-15T07:06:22.000Z</time>
      </trkpt>
      <trkpt lat="44.07161" lon="5.13974">
        <ele>238.5</ele>
        <time>2012-09-15T07:06:23.000Z</time>
      </trkpt>
      <trkpt lat="44.07165" lon="5.13976">
        <ele>238.7</ele>
        <time>2012-09-15T07:06:24.000Z</time>
      </trkpt>
      <trkpt lat="44.07169" lon="5.13978">
        <ele>238.7</ele>
        <time>2012-09-15T07:06:25.000Z</time>
      </trkpt>
      <trkpt lat="44.07172" lon="5.1398">
        <ele>238.8</ele>
        <time>2012-09-15T07:06:26.000Z</time>
      </trkpt>
      <trkpt lat="44.07176" lon="5.13981">
        <ele>238.8</ele>
        <time>2012-09-15T07:06:27.000Z</time>
      </trkpt>
      <trkpt lat="44.0718" lon="5.13983">
        <ele>239.1</ele>
        <time>2012-09-15T07:06:28.000Z</time>
      </trkpt>
      <trkpt lat="44.07184" lon="5.13984">
        <ele>239.1</ele>
        <time>2012-09-15T07:06:29.000Z</time>
      </trkpt>
      <trkpt lat="44.07187" lon="5.13986">
        <ele>239.3</ele>
        <time>2012-09-15T07:06:30.000Z</time>
      </trkpt>
      <trkpt lat="44.07191" lon="5.13986">
        <ele>239.3</ele>
        <time>2012-09-15T07:06:31.000Z</time>
      </trkpt>
      <trkpt lat="44.07195" lon="5.13988">
        <ele>239.3</ele>
        <time>2012-09-15T07:06:32.000Z</time>
      </trkpt>
      <trkpt lat="44.07198" lon="5.13989">
        <ele>239.3</ele>
        <time>2012-09-15T07:06:33.000Z</time>
      </trkpt>
      <trkpt lat="44.07202" lon="5.1399">
        <ele>239.4</ele>
        <time>2012-09-15T07:06:34.000Z</time>
      </trkpt>
      <trkpt lat="44.07206" lon="5.13991">
        <ele>239.4</ele>
        <time>2012-09-15T07:06:35.000Z</time>
      </trkpt>
      <trkpt lat="44.07209" lon="5.13992">
        <ele>239.6</ele>
        <time>2012-09-15T07:06:36.000Z</time>
      </trkpt>
      <trkpt lat="44.07212" lon="5.13993">
        <ele>239.8</ele>
        <time>2012-09-15T07:06:37.000Z</time>
      </trkpt>
      <trkpt lat="44.07215" lon="5.13996">
        <ele>239.7</ele>
        <time>2012-09-15T07:06:38.000Z</time>
      </trkpt>
      <trkpt lat="44.07216" lon="5.13999">
        <ele>239.7</ele>
        <time>2012-09-15T07:06:39.000Z</time>
      </trkpt>
      <trkpt lat="44.07216" lon="5.14005">
        <ele>239.4</ele>
        <time>2012-09-15T07:06:41.000Z</time>
      </trkpt>
      <trkpt lat="44.07216" lon="5.1401">
        <ele>239.1</ele>
        <time>2012-09-15T07:06:43.000Z</time>
      </trkpt>
      <trkpt lat="44.07217" lon="5.14014">
        <ele>238.7</ele>
        <time>2012-09-15T07:06:45.000Z</time>
      </trkpt>
      <trkpt lat="44.07217" lon="5.14019">
        <ele>238.4</ele>
        <time>2012-09-15T07:06:47.000Z</time>
      </trkpt>
      <trkpt lat="44.07217" lon="5.14024">
        <ele>238.3</ele>
        <time>2012-09-15T07:06:49.000Z</time>
      </trkpt>
      <trkpt lat="44.07217" lon="5.1403">
        <ele>238.3</ele>
        <time>2012-09-15T07:06:51.000Z</time>
      </trkpt>
      <trkpt lat="44.07217" lon="5.14037">
        <ele>238.1</ele>
        <time>2012-09-15T07:06:53.000Z</time>
      </trkpt>
      <trkpt lat="44.07217" lon="5.14044">
        <ele>238</ele>
        <time>2012-09-15T07:06:55.000Z</time>
      </trkpt>
      <trkpt lat="44.07216" lon="5.14051">
        <ele>237.9</ele>
        <time>2012-09-15T07:06:57.000Z</time>
      </trkpt>
      <trkpt lat="44.07216" lon="5.14055">
        <ele>238</ele>
        <time>2012-09-15T07:06:58.000Z</time>
      </trkpt>
      <trkpt lat="44.07216" lon="5.1406">
        <ele>238</ele>
        <time>2012-09-15T07:06:59.000Z</time>
      </trkpt>
      <trkpt lat="44.07216" lon="5.14065">
        <ele>238</ele>
        <time>2012-09-15T07:07:00.000Z</time>
      </trkpt>
      <trkpt lat="44.07216" lon="5.1407">
        <ele>238.1</ele>
        <time>2012-09-15T07:07:01.000Z</time>
      </trkpt>
      <trkpt lat="44.07216" lon="5.14075">
        <ele>238.2</ele>
        <time>2012-09-15T07:07:02.000Z</time>
      </trkpt>
      <trkpt lat="44.07216" lon="5.1408">
        <ele>238.3</ele>
        <time>2012-09-15T07:07:03.000Z</time>
      </trkpt>
      <trkpt lat="44.07215" lon="5.14085">
        <ele>238.5</ele>
        <time>2012-09-15T07:07:04.000Z</time>
      </trkpt>
      <trkpt lat="44.07215" lon="5.1409">
        <ele>238.6</ele>
        <time>2012-09-15T07:07:05.000Z</time>
      </trkpt>
      <trkpt lat="44.07215" lon="5.14095">
        <ele>238.7</ele>
        <time>2012-09-15T07:07:06.000Z</time>
      </trkpt>
      <trkpt lat="44.07215" lon="5.141">
        <ele>238.8</ele>
        <time>2012-09-15T07:07:07.000Z</time>
      </trkpt>
      <trkpt lat="44.07214" lon="5.14105">
        <ele>238.9</ele>
        <time>2012-09-15T07:07:08.000Z</time>
      </trkpt>
      <trkpt lat="44.07214" lon="5.1411">
        <ele>239.2</ele>
        <time>2012-09-15T07:07:09.000Z</time>
      </trkpt>
      <trkpt lat="44.07214" lon="5.14115">
        <ele>239.2</ele>
        <time>2012-09-15T07:07:10.000Z</time>
      </trkpt>
      <trkpt lat="44.07213" lon="5.14119">
        <ele>239.4</ele>
        <time>2012-09-15T07:07:11.000Z</time>
      </trkpt>
      <trkpt lat="44.07213" lon="5.14124">
        <ele>239.4</ele>
        <time>2012-09-15T07:07:12.000Z</time>
      </trkpt>
      <trkpt lat="44.07213" lon="5.1413">
        <ele>239.5</ele>
        <time>2012-09-15T07:07:13.000Z</time>
      </trkpt>
      <trkpt lat="44.07213" lon="5.14135">
        <ele>239.6</ele>
        <time>2012-09-15T07:07:14.000Z</time>
      </trkpt>
      <trkpt lat="44.07213" lon="5.1414">
        <ele>239.6</ele>
        <time>2012-09-15T07:07:15.000Z</time>
      </trkpt>
      <trkpt lat="44.07213" lon="5.14145">
        <ele>239.6</ele>
        <time>2012-09-15T07:07:16.000Z</time>
      </trkpt>
      <trkpt lat="44.07213" lon="5.14151">
        <ele>239.7</ele>
        <time>2012-09-15T07:07:17.000Z</time>
      </trkpt>
      <trkpt lat="44.07212" lon="5.14155">
        <ele>240</ele>
        <time>2012-09-15T07:07:18.000Z</time>
      </trkpt>
      <trkpt lat="44.07212" lon="5.1416">
        <ele>240.3</ele>
        <time>2012-09-15T07:07:19.000Z</time>
      </trkpt>
      <trkpt lat="44.07212" lon="5.14166">
        <ele>240.3</ele>
        <time>2012-09-15T07:07:20.000Z</time>
      </trkpt>
      <trkpt lat="44.07212" lon="5.14171">
        <ele>240.2</ele>
        <time>2012-09-15T07:07:21.000Z</time>
      </trkpt>
      <trkpt lat="44.07212" lon="5.14176">
        <ele>240.2</ele>
        <time>2012-09-15T07:07:22.000Z</time>
      </trkpt>
      <trkpt lat="44.07212" lon="5.14181">
        <ele>240.3</ele>
        <time>2012-09-15T07:07:23.000Z</time>
      </trkpt>
      <trkpt lat="44.07211" lon="5.14186">
        <ele>240.3</ele>
        <time>2012-09-15T07:07:24.000Z</time>
      </trkpt>
      <trkpt lat="44.07211" lon="5.14192">
        <ele>240.3</ele>
        <time>2012-09-15T07:07:25.000Z</time>
      </trkpt>
      <trkpt lat="44.07211" lon="5.14197">
        <ele>240.2</ele>
        <time>2012-09-15T07:07:26.000Z</time>
      </trkpt>
      <trkpt lat="44.07211" lon="5.14202">
        <ele>240.3</ele>
        <time>2012-09-15T07:07:27.000Z</time>
      </trkpt>
      <trkpt lat="44.07211" lon="5.14207">
        <ele>240.3</ele>
        <time>2012-09-15T07:07:28.000Z</time>
      </trkpt>
      <trkpt lat="44.07211" lon="5.14212">
        <ele>240.5</ele>
        <time>2012-09-15T07:07:29.000Z</time>
      </trkpt>
      <trkpt lat="44.07211" lon="5.14217">
        <ele>240.5</ele>
        <time>2012-09-15T07:07:30.000Z</time>
      </trkpt>
      <trkpt lat="44.07212" lon="5.14223">
        <ele>240.4</ele>
        <time>2012-09-15T07:07:31.000Z</time>
      </trkpt>
      <trkpt lat="44.07212" lon="5.14228">
        <ele>240.5</ele>
        <time>2012-09-15T07:07:32.000Z</time>
      </trkpt>
      <trkpt lat="44.07212" lon="5.14233">
        <ele>240.6</ele>
        <time>2012-09-15T07:07:33.000Z</time>
      </trkpt>
      <trkpt lat="44.07212" lon="5.14238">
        <ele>240.5</ele>
        <time>2012-09-15T07:07:34.000Z</time>
      </trkpt>
      <trkpt lat="44.07212" lon="5.14243">
        <ele>240.7</ele>
        <time>2012-09-15T07:07:35.000Z</time>
      </trkpt>
      <trkpt lat="44.07212" lon="5.14248">
        <ele>240.9</ele>
        <time>2012-09-15T07:07:36.000Z</time>
      </trkpt>
      <trkpt lat="44.07212" lon="5.14253">
        <ele>241</ele>
        <time>2012-09-15T07:07:37.000Z</time>
      </trkpt>
      <trkpt lat="44.07212" lon="5.14258">
        <ele>241.1</ele>
        <time>2012-09-15T07:07:38.000Z</time>
      </trkpt>
      <trkpt lat="44.07212" lon="5.14263">
        <ele>241.2</ele>
        <time>2012-09-15T07:07:39.000Z</time>
      </trkpt>
      <trkpt lat="44.07213" lon="5.14268">
        <ele>241.3</ele>
        <time>2012-09-15T07:07:40.000Z</time>
      </trkpt>
      <trkpt lat="44.07213" lon="5.14272">
        <ele>241.4</ele>
        <time>2012-09-15T07:07:41.000Z</time>
      </trkpt>
      <trkpt lat="44.07213" lon="5.14277">
        <ele>241.5</ele>
        <time>2012-09-15T07:07:42.000Z</time>
      </trkpt>
      <trkpt lat="44.07213" lon="5.14283">
        <ele>241.6</ele>
        <time>2012-09-15T07:07:43.000Z</time>
      </trkpt>
      <trkpt lat="44.07213" lon="5.14288">
        <ele>241.7</ele>
        <time>2012-09-15T07:07:44.000Z</time>
      </trkpt>
      <trkpt lat="44.07213" lon="5.14293">
        <ele>241.9</ele>
        <time>2012-09-15T07:07:45.000Z</time>
      </trkpt>
      <trkpt lat="44.07213" lon="5.14298">
        <ele>241.9</ele>
        <time>2012-09-15T07:07:46.000Z</time>
      </trkpt>
      <trkpt lat="44.07213" lon="5.14303">
        <ele>242</ele>
        <time>2012-09-15T07:07:47.000Z</time>
      </trkpt>
      <trkpt lat="44.07213" lon="5.14308">
        <ele>242.1</ele>
        <time>2012-09-15T07:07:48.000Z</time>
      </trkpt>
      <trkpt lat="44.07213" lon="5.14313">
        <ele>242.2</ele>
        <time>2012-09-15T07:07:49.000Z</time>
      </trkpt>
      <trkpt lat="44.07213" lon="5.14318">
        <ele>242.3</ele>
        <time>2012-09-15T07:07:50.000Z</time>
      </trkpt>
      <trkpt lat="44.07212" lon="5.14323">
        <ele>242.4</ele>
        <time>2012-09-15T07:07:51.000Z</time>
      </trkpt>
      <trkpt lat="44.07212" lon="5.14328">
        <ele>242.5</ele>
        <time>2012-09-15T07:07:52.000Z</time>
      </trkpt>
      <trkpt lat="44.07212" lon="5.14333">
        <ele>242.6</ele>
        <time>2012-09-15T07:07:53.000Z</time>
      </trkpt>
      <trkpt lat="44.07212" lon="5.14338">
        <ele>242.7</ele>
        <time>2012-09-15T07:07:54.000Z</time>
      </trkpt>
      <trkpt lat="44.07212" lon="5.14343">
        <ele>242.7</ele>
        <time>2012-09-15T07:07:55.000Z</time>
      </trkpt>
      <trkpt lat="44.07212" lon="5.14348">
        <ele>242.8</ele>
        <time>2012-09-15T07:07:56.000Z</time>
      </trkpt>
      <trkpt lat="44.07212" lon="5.14353">
        <ele>242.9</ele>
        <time>2012-09-15T07:07:57.000Z</time>
      </trkpt>
      <trkpt lat="44.07212" lon="5.14358">
        <ele>242.8</ele>
        <time>2012-09-15T07:07:58.000Z</time>
      </trkpt>
      <trkpt lat="44.07212" lon="5.14363">
        <ele>242.9</ele>
        <time>2012-09-15T07:07:59.000Z</time>
      </trkpt>
      <trkpt lat="44.07212" lon="5.14369">
        <ele>243</ele>
        <time>2012-09-15T07:08:00.000Z</time>
      </trkpt>
      <trkpt lat="44.07212" lon="5.14374">
        <ele>243.1</ele>
        <time>2012-09-15T07:08:01.000Z</time>
      </trkpt>
      <trkpt lat="44.07212" lon="5.14378">
        <ele>243.1</ele>
        <time>2012-09-15T07:08:02.000Z</time>
      </trkpt>
      <trkpt lat="44.07213" lon="5.14384">
        <ele>243.2</ele>
        <time>2012-09-15T07:08:03.000Z</time>
      </trkpt>
      <trkpt lat="44.07213" lon="5.14388">
        <ele>243.3</ele>
        <time>2012-09-15T07:08:04.000Z</time>
      </trkpt>
      <trkpt lat="44.07213" lon="5.14393">
        <ele>243.3</ele>
        <time>2012-09-15T07:08:05.000Z</time>
      </trkpt>
      <trkpt lat="44.07213" lon="5.14398">
        <ele>243.3</ele>
        <time>2012-09-15T07:08:06.000Z</time>
      </trkpt>
      <trkpt lat="44.07213" lon="5.14403">
        <ele>243.4</ele>
        <time>2012-09-15T07:08:07.000Z</time>
      </trkpt>
      <trkpt lat="44.07213" lon="5.14408">
        <ele>243.5</ele>
        <time>2012-09-15T07:08:08.000Z</time>
      </trkpt>
      <trkpt lat="44.07213" lon="5.14412">
        <ele>243.5</ele>
        <time>2012-09-15T07:08:09.000Z</time>
      </trkpt>
      <trkpt lat="44.07213" lon="5.14417">
        <ele>243.6</ele>
        <time>2012-09-15T07:08:10.000Z</time>
      </trkpt>
      <trkpt lat="44.07212" lon="5.14422">
        <ele>243.8</ele>
        <time>2012-09-15T07:08:11.000Z</time>
      </trkpt>
      <trkpt lat="44.07212" lon="5.14427">
        <ele>244</ele>
        <time>2012-09-15T07:08:12.000Z</time>
      </trkpt>
      <trkpt lat="44.07213" lon="5.14432">
        <ele>244.1</ele>
        <time>2012-09-15T07:08:13.000Z</time>
      </trkpt>
      <trkpt lat="44.07213" lon="5.14437">
        <ele>244.1</ele>
        <time>2012-09-15T07:08:14.000Z</time>
      </trkpt>
      <trkpt lat="44.07213" lon="5.14442">
        <ele>244.3</ele>
        <time>2012-09-15T07:08:15.000Z</time>
      </trkpt>
      <trkpt lat="44.07213" lon="5.14446">
        <ele>244.4</ele>
        <time>2012-09-15T07:08:16.000Z</time>
      </trkpt>
      <trkpt lat="44.07213" lon="5.14451">
        <ele>244.5</ele>
        <time>2012-09-15T07:08:17.000Z</time>
      </trkpt>
      <trkpt lat="44.07213" lon="5.14456">
        <ele>244.7</ele>
        <time>2012-09-15T07:08:18.000Z</time>
      </trkpt>
      <trkpt lat="44.07213" lon="5.14461">
        <ele>244.8</ele>
        <time>2012-09-15T07:08:19.000Z</time>
      </trkpt>
      <trkpt lat="44.07213" lon="5.14466">
        <ele>245</ele>
        <time>2012-09-15T07:08:20.000Z</time>
      </trkpt>
      <trkpt lat="44.07213" lon="5.14471">
        <ele>245</ele>
        <time>2012-09-15T07:08:21.000Z</time>
      </trkpt>
      <trkpt lat="44.07213" lon="5.14476">
        <ele>245</ele>
        <time>2012-09-15T07:08:22.000Z</time>
      </trkpt>
      <trkpt lat="44.07213" lon="5.14481">
        <ele>245</ele>
        <time>2012-09-15T07:08:23.000Z</time>
      </trkpt>
      <trkpt lat="44.07213" lon="5.14486">
        <ele>245</ele>
        <time>2012-09-15T07:08:24.000Z</time>
      </trkpt>
      <trkpt lat="44.07213" lon="5.14491">
        <ele>244.9</ele>
        <time>2012-09-15T07:08:25.000Z</time>
      </trkpt>
      <trkpt lat="44.07213" lon="5.14496">
        <ele>244.9</ele>
        <time>2012-09-15T07:08:26.000Z</time>
      </trkpt>
      <trkpt lat="44.07213" lon="5.145">
        <ele>245</ele>
        <time>2012-09-15T07:08:27.000Z</time>
      </trkpt>
      <trkpt lat="44.07213" lon="5.14505">
        <ele>245</ele>
        <time>2012-09-15T07:08:28.000Z</time>
      </trkpt>
      <trkpt lat="44.07213" lon="5.14509">
        <ele>245</ele>
        <time>2012-09-15T07:08:29.000Z</time>
      </trkpt>
      <trkpt lat="44.07213" lon="5.14514">
        <ele>245</ele>
        <time>2012-09-15T07:08:30.000Z</time>
      </trkpt>
      <trkpt lat="44.07213" lon="5.14519">
        <ele>245.2</ele>
        <time>2012-09-15T07:08:31.000Z</time>
      </trkpt>
      <trkpt lat="44.07213" lon="5.14523">
        <ele>245.2</ele>
        <time>2012-09-15T07:08:32.000Z</time>
      </trkpt>
      <trkpt lat="44.07213" lon="5.14528">
        <ele>245.3</ele>
        <time>2012-09-15T07:08:33.000Z</time>
      </trkpt>
      <trkpt lat="44.07213" lon="5.14532">
        <ele>245.4</ele>
        <time>2012-09-15T07:08:34.000Z</time>
      </trkpt>
      <trkpt lat="44.07213" lon="5.14537">
        <ele>245.5</ele>
        <time>2012-09-15T07:08:35.000Z</time>
      </trkpt>
      <trkpt lat="44.07214" lon="5.14541">
        <ele>245.5</ele>
        <time>2012-09-15T07:08:36.000Z</time>
      </trkpt>
      <trkpt lat="44.07214" lon="5.14546">
        <ele>246</ele>
        <time>2012-09-15T07:08:37.000Z</time>
      </trkpt>
      <trkpt lat="44.07215" lon="5.14549">
        <ele>246.2</ele>
        <time>2012-09-15T07:08:38.000Z</time>
      </trkpt>
      <trkpt lat="44.07217" lon="5.14553">
        <ele>246.6</ele>
        <time>2012-09-15T07:08:40.000Z</time>
      </trkpt>
      <trkpt lat="44.07221" lon="5.14553">
        <ele>246.8</ele>
        <time>2012-09-15T07:08:43.000Z</time>
      </trkpt>
      <trkpt lat="44.07224" lon="5.14552">
        <ele>246.6</ele>
        <time>2012-09-15T07:08:46.000Z</time>
      </trkpt>
      <trkpt lat="44.07228" lon="5.1455">
        <ele>246.5</ele>
        <time>2012-09-15T07:08:49.000Z</time>
      </trkpt>
      <trkpt lat="44.07232" lon="5.1455">
        <ele>246.3</ele>
        <time>2012-09-15T07:08:51.000Z</time>
      </trkpt>
      <trkpt lat="44.07235" lon="5.14548">
        <ele>246.4</ele>
        <time>2012-09-15T07:08:52.000Z</time>
      </trkpt>
      <trkpt lat="44.0724" lon="5.14544">
        <ele>247</ele>
        <time>2012-09-15T07:08:54.000Z</time>
      </trkpt>
      <trkpt lat="44.07242" lon="5.14542">
        <ele>246.9</ele>
        <time>2012-09-15T07:08:55.000Z</time>
      </trkpt>
      <trkpt lat="44.07245" lon="5.14542">
        <ele>246.3</ele>
        <time>2012-09-15T07:08:56.000Z</time>
      </trkpt>
      <trkpt lat="44.0725" lon="5.14541">
        <ele>245.8</ele>
        <time>2012-09-15T07:08:58.000Z</time>
      </trkpt>
      <trkpt lat="44.07253" lon="5.1454">
        <ele>246</ele>
        <time>2012-09-15T07:08:59.000Z</time>
      </trkpt>
      <trkpt lat="44.07258" lon="5.14538">
        <ele>246.1</ele>
        <time>2012-09-15T07:09:01.000Z</time>
      </trkpt>
      <trkpt lat="44.07261" lon="5.14537">
        <ele>246.1</ele>
        <time>2012-09-15T07:09:02.000Z</time>
      </trkpt>
      <trkpt lat="44.07264" lon="5.14536">
        <ele>246.2</ele>
        <time>2012-09-15T07:09:03.000Z</time>
      </trkpt>
      <trkpt lat="44.07266" lon="5.14537">
        <ele>246.4</ele>
        <time>2012-09-15T07:09:04.000Z</time>
      </trkpt>
      <trkpt lat="44.07269" lon="5.14537">
        <ele>246.5</ele>
        <time>2012-09-15T07:09:05.000Z</time>
      </trkpt>
      <trkpt lat="44.07272" lon="5.14537">
        <ele>246.8</ele>
        <time>2012-09-15T07:09:06.000Z</time>
      </trkpt>
      <trkpt lat="44.07275" lon="5.14538">
        <ele>246.8</ele>
        <time>2012-09-15T07:09:07.000Z</time>
      </trkpt>
      <trkpt lat="44.07278" lon="5.14538">
        <ele>246.8</ele>
        <time>2012-09-15T07:09:08.000Z</time>
      </trkpt>
      <trkpt lat="44.0728" lon="5.14538">
        <ele>246.6</ele>
        <time>2012-09-15T07:09:09.000Z</time>
      </trkpt>
      <trkpt lat="44.07283" lon="5.14538">
        <ele>246.5</ele>
        <time>2012-09-15T07:09:10.000Z</time>
      </trkpt>
      <trkpt lat="44.07286" lon="5.14538">
        <ele>247</ele>
        <time>2012-09-15T07:09:11.000Z</time>
      </trkpt>
      <trkpt lat="44.07289" lon="5.14539">
        <ele>247.1</ele>
        <time>2012-09-15T07:09:12.000Z</time>
      </trkpt>
      <trkpt lat="44.07292" lon="5.14539">
        <ele>247.3</ele>
        <time>2012-09-15T07:09:13.000Z</time>
      </trkpt>
      <trkpt lat="44.07295" lon="5.14539">
        <ele>247.4</ele>
        <time>2012-09-15T07:09:14.000Z</time>
      </trkpt>
      <trkpt lat="44.07298" lon="5.14539">
        <ele>247.5</ele>
        <time>2012-09-15T07:09:15.000Z</time>
      </trkpt>
      <trkpt lat="44.07301" lon="5.14538">
        <ele>247.4</ele>
        <time>2012-09-15T07:09:16.000Z</time>
      </trkpt>
      <trkpt lat="44.07304" lon="5.14538">
        <ele>247.4</ele>
        <time>2012-09-15T07:09:17.000Z</time>
      </trkpt>
      <trkpt lat="44.07307" lon="5.14539">
        <ele>247.7</ele>
        <time>2012-09-15T07:09:18.000Z</time>
      </trkpt>
      <trkpt lat="44.0731" lon="5.14539">
        <ele>247.9</ele>
        <time>2012-09-15T07:09:19.000Z</time>
      </trkpt>
      <trkpt lat="44.07313" lon="5.14539">
        <ele>248</ele>
        <time>2012-09-15T07:09:20.000Z</time>
      </trkpt>
      <trkpt lat="44.07316" lon="5.14539">
        <ele>248</ele>
        <time>2012-09-15T07:09:21.000Z</time>
      </trkpt>
      <trkpt lat="44.07319" lon="5.14539">
        <ele>248.2</ele>
        <time>2012-09-15T07:09:22.000Z</time>
      </trkpt>
      <trkpt lat="44.07322" lon="5.14539">
        <ele>248.5</ele>
        <time>2012-09-15T07:09:23.000Z</time>
      </trkpt>
      <trkpt lat="44.07324" lon="5.14539">
        <ele>248.6</ele>
        <time>2012-09-15T07:09:24.000Z</time>
      </trkpt>
      <trkpt lat="44.07328" lon="5.14538">
        <ele>248.7</ele>
        <time>2012-09-15T07:09:25.000Z</time>
      </trkpt>
      <trkpt lat="44.07331" lon="5.14538">
        <ele>248.7</ele>
        <time>2012-09-15T07:09:26.000Z</time>
      </trkpt>
      <trkpt lat="44.07334" lon="5.14538">
        <ele>248.7</ele>
        <time>2012-09-15T07:09:27.000Z</time>
      </trkpt>
      <trkpt lat="44.07337" lon="5.14538">
        <ele>248.7</ele>
        <time>2012-09-15T07:09:28.000Z</time>
      </trkpt>
      <trkpt lat="44.0734" lon="5.14538">
        <ele>248.8</ele>
        <time>2012-09-15T07:09:29.000Z</time>
      </trkpt>
      <trkpt lat="44.07343" lon="5.14537">
        <ele>249</ele>
        <time>2012-09-15T07:09:30.000Z</time>
      </trkpt>
      <trkpt lat="44.07347" lon="5.14537">
        <ele>249</ele>
        <time>2012-09-15T07:09:31.000Z</time>
      </trkpt>
      <trkpt lat="44.0735" lon="5.14537">
        <ele>249.1</ele>
        <time>2012-09-15T07:09:32.000Z</time>
      </trkpt>
      <trkpt lat="44.07353" lon="5.14537">
        <ele>249.3</ele>
        <time>2012-09-15T07:09:33.000Z</time>
      </trkpt>
      <trkpt lat="44.07357" lon="5.14537">
        <ele>249.3</ele>
        <time>2012-09-15T07:09:34.000Z</time>
      </trkpt>
      <trkpt lat="44.0736" lon="5.14537">
        <ele>249.4</ele>
        <time>2012-09-15T07:09:35.000Z</time>
      </trkpt>
      <trkpt lat="44.07364" lon="5.14537">
        <ele>249.5</ele>
        <time>2012-09-15T07:09:36.000Z</time>
      </trkpt>
      <trkpt lat="44.07367" lon="5.14537">
        <ele>249.7</ele>
        <time>2012-09-15T07:09:37.000Z</time>
      </trkpt>
      <trkpt lat="44.0737" lon="5.14537">
        <ele>249.7</ele>
        <time>2012-09-15T07:09:38.000Z</time>
      </trkpt>
      <trkpt lat="44.07374" lon="5.14537">
        <ele>249.7</ele>
        <time>2012-09-15T07:09:39.000Z</time>
      </trkpt>
      <trkpt lat="44.07378" lon="5.14538">
        <ele>249.9</ele>
        <time>2012-09-15T07:09:40.000Z</time>
      </trkpt>
      <trkpt lat="44.07381" lon="5.14538">
        <ele>250</ele>
        <time>2012-09-15T07:09:41.000Z</time>
      </trkpt>
      <trkpt lat="44.07384" lon="5.14538">
        <ele>249.9</ele>
        <time>2012-09-15T07:09:42.000Z</time>
      </trkpt>
      <trkpt lat="44.07388" lon="5.14539">
        <ele>250</ele>
        <time>2012-09-15T07:09:43.000Z</time>
      </trkpt>
      <trkpt lat="44.07392" lon="5.14539">
        <ele>250.2</ele>
        <time>2012-09-15T07:09:44.000Z</time>
      </trkpt>
      <trkpt lat="44.07395" lon="5.14539">
        <ele>250.4</ele>
        <time>2012-09-15T07:09:45.000Z</time>
      </trkpt>
      <trkpt lat="44.07399" lon="5.1454">
        <ele>250.4</ele>
        <time>2012-09-15T07:09:46.000Z</time>
      </trkpt>
      <trkpt lat="44.07403" lon="5.1454">
        <ele>250.7</ele>
        <time>2012-09-15T07:09:47.000Z</time>
      </trkpt>
      <trkpt lat="44.07406" lon="5.14541">
        <ele>250.9</ele>
        <time>2012-09-15T07:09:48.000Z</time>
      </trkpt>
      <trkpt lat="44.0741" lon="5.14542">
        <ele>251.1</ele>
        <time>2012-09-15T07:09:49.000Z</time>
      </trkpt>
      <trkpt lat="44.07414" lon="5.14542">
        <ele>251.3</ele>
        <time>2012-09-15T07:09:50.000Z</time>
      </trkpt>
      <trkpt lat="44.07418" lon="5.14542">
        <ele>251.7</ele>
        <time>2012-09-15T07:09:51.000Z</time>
      </trkpt>
      <trkpt lat="44.07422" lon="5.14543">
        <ele>251.7</ele>
        <time>2012-09-15T07:09:52.000Z</time>
      </trkpt>
      <trkpt lat="44.07425" lon="5.14543">
        <ele>251.8</ele>
        <time>2012-09-15T07:09:53.000Z</time>
      </trkpt>
      <trkpt lat="44.07429" lon="5.14544">
        <ele>252</ele>
        <time>2012-09-15T07:09:54.000Z</time>
      </trkpt>
      <trkpt lat="44.07433" lon="5.14544">
        <ele>252.2</ele>
        <time>2012-09-15T07:09:55.000Z</time>
      </trkpt>
      <trkpt lat="44.07437" lon="5.14544">
        <ele>252.3</ele>
        <time>2012-09-15T07:09:56.000Z</time>
      </trkpt>
      <trkpt lat="44.07441" lon="5.14545">
        <ele>252.4</ele>
        <time>2012-09-15T07:09:57.000Z</time>
      </trkpt>
      <trkpt lat="44.07444" lon="5.14546">
        <ele>252.5</ele>
        <time>2012-09-15T07:09:58.000Z</time>
      </trkpt>
      <trkpt lat="44.07448" lon="5.14546">
        <ele>252.6</ele>
        <time>2012-09-15T07:09:59.000Z</time>
      </trkpt>
      <trkpt lat="44.07452" lon="5.14547">
        <ele>252.7</ele>
        <time>2012-09-15T07:10:00.000Z</time>
      </trkpt>
      <trkpt lat="44.07456" lon="5.14547">
        <ele>252.9</ele>
        <time>2012-09-15T07:10:01.000Z</time>
      </trkpt>
      <trkpt lat="44.0746" lon="5.14547">
        <ele>252.9</ele>
        <time>2012-09-15T07:10:02.000Z</time>
      </trkpt>
      <trkpt lat="44.07464" lon="5.14548">
        <ele>252.9</ele>
        <time>2012-09-15T07:10:03.000Z</time>
      </trkpt>
      <trkpt lat="44.07468" lon="5.14548">
        <ele>253</ele>
        <time>2012-09-15T07:10:04.000Z</time>
      </trkpt>
      <trkpt lat="44.07472" lon="5.14549">
        <ele>253.1</ele>
        <time>2012-09-15T07:10:05.000Z</time>
      </trkpt>
      <trkpt lat="44.07476" lon="5.1455">
        <ele>253.3</ele>
        <time>2012-09-15T07:10:06.000Z</time>
      </trkpt>
      <trkpt lat="44.0748" lon="5.1455">
        <ele>252.5</ele>
        <time>2012-09-15T07:10:07.000Z</time>
      </trkpt>
      <trkpt lat="44.07484" lon="5.1455">
        <ele>252.5</ele>
        <time>2012-09-15T07:10:08.000Z</time>
      </trkpt>
      <trkpt lat="44.07488" lon="5.14551">
        <ele>252.6</ele>
        <time>2012-09-15T07:10:09.000Z</time>
      </trkpt>
      <trkpt lat="44.07492" lon="5.14552">
        <ele>252.6</ele>
        <time>2012-09-15T07:10:10.000Z</time>
      </trkpt>
      <trkpt lat="44.07496" lon="5.14553">
        <ele>252.6</ele>
        <time>2012-09-15T07:10:11.000Z</time>
      </trkpt>
      <trkpt lat="44.075" lon="5.14554">
        <ele>252.8</ele>
        <time>2012-09-15T07:10:12.000Z</time>
      </trkpt>
      <trkpt lat="44.07504" lon="5.14555">
        <ele>252.8</ele>
        <time>2012-09-15T07:10:13.000Z</time>
      </trkpt>
      <trkpt lat="44.07508" lon="5.14556">
        <ele>253</ele>
        <time>2012-09-15T07:10:14.000Z</time>
      </trkpt>
      <trkpt lat="44.07512" lon="5.14557">
        <ele>253.2</ele>
        <time>2012-09-15T07:10:15.000Z</time>
      </trkpt>
      <trkpt lat="44.07517" lon="5.14558">
        <ele>253.5</ele>
        <time>2012-09-15T07:10:16.000Z</time>
      </trkpt>
      <trkpt lat="44.07522" lon="5.14558">
        <ele>253.7</ele>
        <time>2012-09-15T07:10:17.000Z</time>
      </trkpt>
      <trkpt lat="44.07526" lon="5.14559">
        <ele>253.8</ele>
        <time>2012-09-15T07:10:18.000Z</time>
      </trkpt>
      <trkpt lat="44.0753" lon="5.1456">
        <ele>253.7</ele>
        <time>2012-09-15T07:10:19.000Z</time>
      </trkpt>
      <trkpt lat="44.07535" lon="5.14561">
        <ele>254</ele>
        <time>2012-09-15T07:10:20.000Z</time>
      </trkpt>
      <trkpt lat="44.0754" lon="5.14561">
        <ele>254.1</ele>
        <time>2012-09-15T07:10:21.000Z</time>
      </trkpt>
      <trkpt lat="44.07544" lon="5.14562">
        <ele>254.4</ele>
        <time>2012-09-15T07:10:22.000Z</time>
      </trkpt>
      <trkpt lat="44.07548" lon="5.14563">
        <ele>254.2</ele>
        <time>2012-09-15T07:10:23.000Z</time>
      </trkpt>
      <trkpt lat="44.07553" lon="5.14564">
        <ele>254.3</ele>
        <time>2012-09-15T07:10:24.000Z</time>
      </trkpt>
      <trkpt lat="44.07558" lon="5.14565">
        <ele>254.1</ele>
        <time>2012-09-15T07:10:25.000Z</time>
      </trkpt>
      <trkpt lat="44.07562" lon="5.14565">
        <ele>254.2</ele>
        <time>2012-09-15T07:10:26.000Z</time>
      </trkpt>
      <trkpt lat="44.07566" lon="5.14564">
        <ele>254.3</ele>
        <time>2012-09-15T07:10:27.000Z</time>
      </trkpt>
      <trkpt lat="44.07572" lon="5.14565">
        <ele>254.4</ele>
        <time>2012-09-15T07:10:28.000Z</time>
      </trkpt>
      <trkpt lat="44.07578" lon="5.14566">
        <ele>254.6</ele>
        <time>2012-09-15T07:10:29.000Z</time>
      </trkpt>
      <trkpt lat="44.07583" lon="5.14567">
        <ele>254.8</ele>
        <time>2012-09-15T07:10:30.000Z</time>
      </trkpt>
      <trkpt lat="44.07588" lon="5.14568">
        <ele>254.8</ele>
        <time>2012-09-15T07:10:31.000Z</time>
      </trkpt>
      <trkpt lat="44.07592" lon="5.14569">
        <ele>254.7</ele>
        <time>2012-09-15T07:10:32.000Z</time>
      </trkpt>
      <trkpt lat="44.07596" lon="5.14569">
        <ele>255</ele>
        <time>2012-09-15T07:10:33.000Z</time>
      </trkpt>
      <trkpt lat="44.076" lon="5.1457">
        <ele>255.1</ele>
        <time>2012-09-15T07:10:34.000Z</time>
      </trkpt>
      <trkpt lat="44.07604" lon="5.14571">
        <ele>255</ele>
        <time>2012-09-15T07:10:35.000Z</time>
      </trkpt>
      <trkpt lat="44.07608" lon="5.14571">
        <ele>255</ele>
        <time>2012-09-15T07:10:36.000Z</time>
      </trkpt>
      <trkpt lat="44.07612" lon="5.14572">
        <ele>254.7</ele>
        <time>2012-09-15T07:10:37.000Z</time>
      </trkpt>
      <trkpt lat="44.07616" lon="5.14572">
        <ele>254.6</ele>
        <time>2012-09-15T07:10:38.000Z</time>
      </trkpt>
      <trkpt lat="44.0762" lon="5.14572">
        <ele>254.9</ele>
        <time>2012-09-15T07:10:39.000Z</time>
      </trkpt>
      <trkpt lat="44.07624" lon="5.14575">
        <ele>255</ele>
        <time>2012-09-15T07:10:40.000Z</time>
      </trkpt>
      <trkpt lat="44.07626" lon="5.14579">
        <ele>255.3</ele>
        <time>2012-09-15T07:10:41.000Z</time>
      </trkpt>
      <trkpt lat="44.07628" lon="5.14585">
        <ele>255.4</ele>
        <time>2012-09-15T07:10:42.000Z</time>
      </trkpt>
      <trkpt lat="44.0763" lon="5.14591">
        <ele>255.6</ele>
        <time>2012-09-15T07:10:43.000Z</time>
      </trkpt>
      <trkpt lat="44.07631" lon="5.14596">
        <ele>255.8</ele>
        <time>2012-09-15T07:10:44.000Z</time>
      </trkpt>
      <trkpt lat="44.07632" lon="5.14601">
        <ele>256</ele>
        <time>2012-09-15T07:10:45.000Z</time>
      </trkpt>
      <trkpt lat="44.07632" lon="5.14606">
        <ele>256.2</ele>
        <time>2012-09-15T07:10:46.000Z</time>
      </trkpt>
      <trkpt lat="44.07633" lon="5.1461">
        <ele>256.6</ele>
        <time>2012-09-15T07:10:47.000Z</time>
      </trkpt>
      <trkpt lat="44.07634" lon="5.14614">
        <ele>256.8</ele>
        <time>2012-09-15T07:10:48.000Z</time>
      </trkpt>
      <trkpt lat="44.07635" lon="5.14618">
        <ele>256.7</ele>
        <time>2012-09-15T07:10:49.000Z</time>
      </trkpt>
      <trkpt lat="44.07636" lon="5.14621">
        <ele>256.8</ele>
        <time>2012-09-15T07:10:50.000Z</time>
      </trkpt>
      <trkpt lat="44.07637" lon="5.14625">
        <ele>256.9</ele>
        <time>2012-09-15T07:10:51.000Z</time>
      </trkpt>
      <trkpt lat="44.07638" lon="5.14629">
        <ele>257</ele>
        <time>2012-09-15T07:10:52.000Z</time>
      </trkpt>
      <trkpt lat="44.07639" lon="5.14633">
        <ele>256.9</ele>
        <time>2012-09-15T07:10:53.000Z</time>
      </trkpt>
      <trkpt lat="44.0764" lon="5.14637">
        <ele>257.1</ele>
        <time>2012-09-15T07:10:54.000Z</time>
      </trkpt>
      <trkpt lat="44.07641" lon="5.1464">
        <ele>257.1</ele>
        <time>2012-09-15T07:10:55.000Z</time>
      </trkpt>
      <trkpt lat="44.07642" lon="5.14644">
        <ele>257.4</ele>
        <time>2012-09-15T07:10:56.000Z</time>
      </trkpt>
      <trkpt lat="44.07643" lon="5.14648">
        <ele>257.4</ele>
        <time>2012-09-15T07:10:57.000Z</time>
      </trkpt>
      <trkpt lat="44.07644" lon="5.14652">
        <ele>257.5</ele>
        <time>2012-09-15T07:10:58.000Z</time>
      </trkpt>
      <trkpt lat="44.07645" lon="5.14656">
        <ele>257.7</ele>
        <time>2012-09-15T07:10:59.000Z</time>
      </trkpt>
      <trkpt lat="44.07646" lon="5.1466">
        <ele>257.8</ele>
        <time>2012-09-15T07:11:00.000Z</time>
      </trkpt>
      <trkpt lat="44.07647" lon="5.14665">
        <ele>257.9</ele>
        <time>2012-09-15T07:11:01.000Z</time>
      </trkpt>
      <trkpt lat="44.07648" lon="5.14669">
        <ele>257.9</ele>
        <time>2012-09-15T07:11:02.000Z</time>
      </trkpt>
      <trkpt lat="44.07648" lon="5.14674">
        <ele>258</ele>
        <time>2012-09-15T07:11:03.000Z</time>
      </trkpt>
      <trkpt lat="44.07649" lon="5.14678">
        <ele>258.2</ele>
        <time>2012-09-15T07:11:04.000Z</time>
      </trkpt>
      <trkpt lat="44.0765" lon="5.14683">
        <ele>258.2</ele>
        <time>2012-09-15T07:11:05.000Z</time>
      </trkpt>
      <trkpt lat="44.0765" lon="5.14688">
        <ele>258.2</ele>
        <time>2012-09-15T07:11:06.000Z</time>
      </trkpt>
      <trkpt lat="44.07651" lon="5.14692">
        <ele>258.1</ele>
        <time>2012-09-15T07:11:07.000Z</time>
      </trkpt>
      <trkpt lat="44.07651" lon="5.14697">
        <ele>258.2</ele>
        <time>2012-09-15T07:11:08.000Z</time>
      </trkpt>
      <trkpt lat="44.07652" lon="5.14702">
        <ele>258.6</ele>
        <time>2012-09-15T07:11:09.000Z</time>
      </trkpt>
      <trkpt lat="44.07652" lon="5.14706">
        <ele>258.6</ele>
        <time>2012-09-15T07:11:10.000Z</time>
      </trkpt>
      <trkpt lat="44.07653" lon="5.14711">
        <ele>258.7</ele>
        <time>2012-09-15T07:11:11.000Z</time>
      </trkpt>
      <trkpt lat="44.07654" lon="5.14715">
        <ele>258.8</ele>
        <time>2012-09-15T07:11:12.000Z</time>
      </trkpt>
      <trkpt lat="44.07654" lon="5.1472">
        <ele>259</ele>
        <time>2012-09-15T07:11:13.000Z</time>
      </trkpt>
      <trkpt lat="44.07655" lon="5.14724">
        <ele>259.1</ele>
        <time>2012-09-15T07:11:14.000Z</time>
      </trkpt>
      <trkpt lat="44.07656" lon="5.14729">
        <ele>259.3</ele>
        <time>2012-09-15T07:11:15.000Z</time>
      </trkpt>
      <trkpt lat="44.07656" lon="5.14733">
        <ele>259.5</ele>
        <time>2012-09-15T07:11:16.000Z</time>
      </trkpt>
      <trkpt lat="44.07657" lon="5.14738">
        <ele>259.6</ele>
        <time>2012-09-15T07:11:17.000Z</time>
      </trkpt>
      <trkpt lat="44.07658" lon="5.14742">
        <ele>259.7</ele>
        <time>2012-09-15T07:11:18.000Z</time>
      </trkpt>
      <trkpt lat="44.07659" lon="5.14747">
        <ele>260</ele>
        <time>2012-09-15T07:11:19.000Z</time>
      </trkpt>
      <trkpt lat="44.07659" lon="5.14751">
        <ele>260.3</ele>
        <time>2012-09-15T07:11:20.000Z</time>
      </trkpt>
      <trkpt lat="44.0766" lon="5.14756">
        <ele>260.2</ele>
        <time>2012-09-15T07:11:21.000Z</time>
      </trkpt>
      <trkpt lat="44.0766" lon="5.1476">
        <ele>260.3</ele>
        <time>2012-09-15T07:11:22.000Z</time>
      </trkpt>
      <trkpt lat="44.0766" lon="5.14765">
        <ele>260.6</ele>
        <time>2012-09-15T07:11:23.000Z</time>
      </trkpt>
      <trkpt lat="44.0766" lon="5.1477">
        <ele>260.9</ele>
        <time>2012-09-15T07:11:24.000Z</time>
      </trkpt>
      <trkpt lat="44.07661" lon="5.14774">
        <ele>261</ele>
        <time>2012-09-15T07:11:25.000Z</time>
      </trkpt>
      <trkpt lat="44.07661" lon="5.14778">
        <ele>261</ele>
        <time>2012-09-15T07:11:26.000Z</time>
      </trkpt>
      <trkpt lat="44.07663" lon="5.14782">
        <ele>261</ele>
        <time>2012-09-15T07:11:27.000Z</time>
      </trkpt>
      <trkpt lat="44.07665" lon="5.14786">
        <ele>261.1</ele>
        <time>2012-09-15T07:11:28.000Z</time>
      </trkpt>
      <trkpt lat="44.07667" lon="5.14789">
        <ele>261.1</ele>
        <time>2012-09-15T07:11:29.000Z</time>
      </trkpt>
      <trkpt lat="44.0767" lon="5.1479">
        <ele>261.2</ele>
        <time>2012-09-15T07:11:30.000Z</time>
      </trkpt>
      <trkpt lat="44.07674" lon="5.14791">
        <ele>261.4</ele>
        <time>2012-09-15T07:11:31.000Z</time>
      </trkpt>
      <trkpt lat="44.07677" lon="5.14792">
        <ele>261.4</ele>
        <time>2012-09-15T07:11:32.000Z</time>
      </trkpt>
      <trkpt lat="44.0768" lon="5.14793">
        <ele>261.5</ele>
        <time>2012-09-15T07:11:33.000Z</time>
      </trkpt>
      <trkpt lat="44.07683" lon="5.14794">
        <ele>261.7</ele>
        <time>2012-09-15T07:11:34.000Z</time>
      </trkpt>
      <trkpt lat="44.07686" lon="5.14795">
        <ele>261.9</ele>
        <time>2012-09-15T07:11:35.000Z</time>
      </trkpt>
      <trkpt lat="44.07689" lon="5.14796">
        <ele>262.1</ele>
        <time>2012-09-15T07:11:36.000Z</time>
      </trkpt>
      <trkpt lat="44.07693" lon="5.14793">
        <ele>261.5</ele>
        <time>2012-09-15T07:11:37.000Z</time>
      </trkpt>
      <trkpt lat="44.07697" lon="5.14793">
        <ele>261.4</ele>
        <time>2012-09-15T07:11:38.000Z</time>
      </trkpt>
      <trkpt lat="44.077" lon="5.14793">
        <ele>261.5</ele>
        <time>2012-09-15T07:11:39.000Z</time>
      </trkpt>
      <trkpt lat="44.07704" lon="5.14793">
        <ele>261.7</ele>
        <time>2012-09-15T07:11:40.000Z</time>
      </trkpt>
      <trkpt lat="44.07708" lon="5.14793">
        <ele>261.3</ele>
        <time>2012-09-15T07:11:41.000Z</time>
      </trkpt>
      <trkpt lat="44.07712" lon="5.14793">
        <ele>261.2</ele>
        <time>2012-09-15T07:11:42.000Z</time>
      </trkpt>
      <trkpt lat="44.07716" lon="5.14793">
        <ele>261.1</ele>
        <time>2012-09-15T07:11:43.000Z</time>
      </trkpt>
      <trkpt lat="44.07719" lon="5.14793">
        <ele>261.3</ele>
        <time>2012-09-15T07:11:44.000Z</time>
      </trkpt>
      <trkpt lat="44.07723" lon="5.14793">
        <ele>261.6</ele>
        <time>2012-09-15T07:11:45.000Z</time>
      </trkpt>
      <trkpt lat="44.07726" lon="5.14793">
        <ele>261.3</ele>
        <time>2012-09-15T07:11:46.000Z</time>
      </trkpt>
      <trkpt lat="44.0773" lon="5.14793">
        <ele>261.4</ele>
        <time>2012-09-15T07:11:47.000Z</time>
      </trkpt>
      <trkpt lat="44.07734" lon="5.14792">
        <ele>261.3</ele>
        <time>2012-09-15T07:11:48.000Z</time>
      </trkpt>
      <trkpt lat="44.07737" lon="5.14792">
        <ele>261.2</ele>
        <time>2012-09-15T07:11:49.000Z</time>
      </trkpt>
      <trkpt lat="44.07741" lon="5.14791">
        <ele>261.1</ele>
        <time>2012-09-15T07:11:50.000Z</time>
      </trkpt>
      <trkpt lat="44.07745" lon="5.1479">
        <ele>260.9</ele>
        <time>2012-09-15T07:11:51.000Z</time>
      </trkpt>
      <trkpt lat="44.07749" lon="5.14788">
        <ele>261.1</ele>
        <time>2012-09-15T07:11:52.000Z</time>
      </trkpt>
      <trkpt lat="44.07753" lon="5.14787">
        <ele>261.5</ele>
        <time>2012-09-15T07:11:53.000Z</time>
      </trkpt>
      <trkpt lat="44.07757" lon="5.14786">
        <ele>261.1</ele>
        <time>2012-09-15T07:11:54.000Z</time>
      </trkpt>
      <trkpt lat="44.07761" lon="5.14785">
        <ele>260.7</ele>
        <time>2012-09-15T07:11:55.000Z</time>
      </trkpt>
      <trkpt lat="44.07765" lon="5.14783">
        <ele>260.7</ele>
        <time>2012-09-15T07:11:56.000Z</time>
      </trkpt>
      <trkpt lat="44.07769" lon="5.14782">
        <ele>260.8</ele>
        <time>2012-09-15T07:11:57.000Z</time>
      </trkpt>
      <trkpt lat="44.07773" lon="5.1478">
        <ele>260.6</ele>
        <time>2012-09-15T07:11:58.000Z</time>
      </trkpt>
      <trkpt lat="44.07776" lon="5.14779">
        <ele>260.6</ele>
        <time>2012-09-15T07:11:59.000Z</time>
      </trkpt>
      <trkpt lat="44.0778" lon="5.14778">
        <ele>260.5</ele>
        <time>2012-09-15T07:12:00.000Z</time>
      </trkpt>
      <trkpt lat="44.07784" lon="5.14776">
        <ele>260.6</ele>
        <time>2012-09-15T07:12:01.000Z</time>
      </trkpt>
      <trkpt lat="44.07789" lon="5.14775">
        <ele>260.5</ele>
        <time>2012-09-15T07:12:02.000Z</time>
      </trkpt>
      <trkpt lat="44.07793" lon="5.14774">
        <ele>260.3</ele>
        <time>2012-09-15T07:12:03.000Z</time>
      </trkpt>
      <trkpt lat="44.07797" lon="5.14774">
        <ele>260.3</ele>
        <time>2012-09-15T07:12:04.000Z</time>
      </trkpt>
      <trkpt lat="44.07801" lon="5.14773">
        <ele>260.3</ele>
        <time>2012-09-15T07:12:05.000Z</time>
      </trkpt>
      <trkpt lat="44.07806" lon="5.14772">
        <ele>260.6</ele>
        <time>2012-09-15T07:12:06.000Z</time>
      </trkpt>
      <trkpt lat="44.0781" lon="5.14773">
        <ele>260.9</ele>
        <time>2012-09-15T07:12:07.000Z</time>
      </trkpt>
      <trkpt lat="44.07814" lon="5.14774">
        <ele>261.1</ele>
        <time>2012-09-15T07:12:08.000Z</time>
      </trkpt>
      <trkpt lat="44.07818" lon="5.14774">
        <ele>261.1</ele>
        <time>2012-09-15T07:12:09.000Z</time>
      </trkpt>
      <trkpt lat="44.07822" lon="5.14774">
        <ele>261</ele>
        <time>2012-09-15T07:12:10.000Z</time>
      </trkpt>
      <trkpt lat="44.07827" lon="5.14775">
        <ele>261.1</ele>
        <time>2012-09-15T07:12:11.000Z</time>
      </trkpt>
      <trkpt lat="44.07831" lon="5.14776">
        <ele>261.4</ele>
        <time>2012-09-15T07:12:12.000Z</time>
      </trkpt>
      <trkpt lat="44.07836" lon="5.14778">
        <ele>261.3</ele>
        <time>2012-09-15T07:12:13.000Z</time>
      </trkpt>
      <trkpt lat="44.0784" lon="5.14779">
        <ele>261.2</ele>
        <time>2012-09-15T07:12:14.000Z</time>
      </trkpt>
      <trkpt lat="44.07845" lon="5.1478">
        <ele>261.2</ele>
        <time>2012-09-15T07:12:15.000Z</time>
      </trkpt>
      <trkpt lat="44.07849" lon="5.14782">
        <ele>261</ele>
        <time>2012-09-15T07:12:16.000Z</time>
      </trkpt>
      <trkpt lat="44.07854" lon="5.14784">
        <ele>260.9</ele>
        <time>2012-09-15T07:12:17.000Z</time>
      </trkpt>
      <trkpt lat="44.07858" lon="5.14786">
        <ele>260.9</ele>
        <time>2012-09-15T07:12:18.000Z</time>
      </trkpt>
      <trkpt lat="44.07863" lon="5.14787">
        <ele>260.6</ele>
        <time>2012-09-15T07:12:19.000Z</time>
      </trkpt>
      <trkpt lat="44.07867" lon="5.14789">
        <ele>260.4</ele>
        <time>2012-09-15T07:12:20.000Z</time>
      </trkpt>
      <trkpt lat="44.07872" lon="5.1479">
        <ele>260.2</ele>
        <time>2012-09-15T07:12:21.000Z</time>
      </trkpt>
      <trkpt lat="44.07877" lon="5.14791">
        <ele>260.2</ele>
        <time>2012-09-15T07:12:22.000Z</time>
      </trkpt>
      <trkpt lat="44.07882" lon="5.14792">
        <ele>260.2</ele>
        <time>2012-09-15T07:12:23.000Z</time>
      </trkpt>
      <trkpt lat="44.07887" lon="5.14792">
        <ele>260.4</ele>
        <time>2012-09-15T07:12:24.000Z</time>
      </trkpt>
      <trkpt lat="44.07892" lon="5.14793">
        <ele>259.8</ele>
        <time>2012-09-15T07:12:25.000Z</time>
      </trkpt>
      <trkpt lat="44.07895" lon="5.14793">
        <ele>259.5</ele>
        <time>2012-09-15T07:12:26.000Z</time>
      </trkpt>
      <trkpt lat="44.07898" lon="5.14794">
        <ele>259.3</ele>
        <time>2012-09-15T07:12:27.000Z</time>
      </trkpt>
      <trkpt lat="44.07901" lon="5.14795">
        <ele>259.3</ele>
        <time>2012-09-15T07:12:28.000Z</time>
      </trkpt>
      <trkpt lat="44.07904" lon="5.14797">
        <ele>259.7</ele>
        <time>2012-09-15T07:12:29.000Z</time>
      </trkpt>
      <trkpt lat="44.07906" lon="5.14799">
        <ele>259.8</ele>
        <time>2012-09-15T07:12:30.000Z</time>
      </trkpt>
      <trkpt lat="44.07908" lon="5.14802">
        <ele>259.6</ele>
        <time>2012-09-15T07:12:31.000Z</time>
      </trkpt>
      <trkpt lat="44.07905" lon="5.14806">
        <ele>260</ele>
        <time>2012-09-15T07:12:32.000Z</time>
      </trkpt>
      <trkpt lat="44.07905" lon="5.14812">
        <ele>259.8</ele>
        <time>2012-09-15T07:12:34.000Z</time>
      </trkpt>
      <trkpt lat="44.07902" lon="5.14815">
        <ele>260.4</ele>
        <time>2012-09-15T07:12:35.000Z</time>
      </trkpt>
      <trkpt lat="44.07899" lon="5.1482">
        <ele>260.2</ele>
        <time>2012-09-15T07:12:37.000Z</time>
      </trkpt>
      <trkpt lat="44.07898" lon="5.14824">
        <ele>260.2</ele>
        <time>2012-09-15T07:12:38.000Z</time>
      </trkpt>
      <trkpt lat="44.07894" lon="5.14828">
        <ele>260.6</ele>
        <time>2012-09-15T07:12:39.000Z</time>
      </trkpt>
      <trkpt lat="44.07892" lon="5.1483">
        <ele>260.7</ele>
        <time>2012-09-15T07:12:40.000Z</time>
      </trkpt>
      <trkpt lat="44.07889" lon="5.14831">
        <ele>261.7</ele>
        <time>2012-09-15T07:12:41.000Z</time>
      </trkpt>
      <trkpt lat="44.07886" lon="5.14833">
        <ele>262.4</ele>
        <time>2012-09-15T07:12:42.000Z</time>
      </trkpt>
      <trkpt lat="44.07882" lon="5.14836">
        <ele>265.4</ele>
        <time>2012-09-15T07:12:45.000Z</time>
      </trkpt>
      <trkpt lat="44.07884" lon="5.14839">
        <ele>264.7</ele>
        <time>2012-09-15T07:12:47.000Z</time>
      </trkpt>
      <trkpt lat="44.07883" lon="5.14844">
        <ele>265.4</ele>
        <time>2012-09-15T07:12:51.000Z</time>
      </trkpt>
      <trkpt lat="44.07882" lon="5.14849">
        <ele>264.6</ele>
        <time>2012-09-15T07:12:56.000Z</time>
      </trkpt>
      <trkpt lat="44.07878" lon="5.14851">
        <ele>265.3</ele>
        <time>2012-09-15T07:12:59.000Z</time>
      </trkpt>
      <trkpt lat="44.07874" lon="5.14852">
        <ele>265</ele>
        <time>2012-09-15T07:13:01.000Z</time>
      </trkpt>
      <trkpt lat="44.07869" lon="5.14851">
        <ele>263.6</ele>
        <time>2012-09-15T07:13:02.000Z</time>
      </trkpt>
      <trkpt lat="44.07867" lon="5.14855">
        <ele>263.7</ele>
        <time>2012-09-15T07:13:03.000Z</time>
      </trkpt>
      <trkpt lat="44.07865" lon="5.14858">
        <ele>263.6</ele>
        <time>2012-09-15T07:13:04.000Z</time>
      </trkpt>
      <trkpt lat="44.07861" lon="5.14863">
        <ele>264.6</ele>
        <time>2012-09-15T07:13:06.000Z</time>
      </trkpt>
      <trkpt lat="44.07863" lon="5.14869">
        <ele>268.8</ele>
        <time>2012-09-15T07:13:08.000Z</time>
      </trkpt>
      <trkpt lat="44.07861" lon="5.14873">
        <ele>269.4</ele>
        <time>2012-09-15T07:13:10.000Z</time>
      </trkpt>
      <trkpt lat="44.07858" lon="5.14876">
        <ele>269.1</ele>
        <time>2012-09-15T07:13:12.000Z</time>
      </trkpt>
      <trkpt lat="44.07856" lon="5.14879">
        <ele>269.2</ele>
        <time>2012-09-15T07:13:13.000Z</time>
      </trkpt>
      <trkpt lat="44.07855" lon="5.14882">
        <ele>269.2</ele>
        <time>2012-09-15T07:13:14.000Z</time>
      </trkpt>
      <trkpt lat="44.07853" lon="5.14886">
        <ele>268.9</ele>
        <time>2012-09-15T07:13:15.000Z</time>
      </trkpt>
      <trkpt lat="44.07853" lon="5.1489">
        <ele>269.5</ele>
        <time>2012-09-15T07:13:16.000Z</time>
      </trkpt>
      <trkpt lat="44.07851" lon="5.14897">
        <ele>270</ele>
        <time>2012-09-15T07:13:18.000Z</time>
      </trkpt>
      <trkpt lat="44.07849" lon="5.14904">
        <ele>270.1</ele>
        <time>2012-09-15T07:13:20.000Z</time>
      </trkpt>
      <trkpt lat="44.07848" lon="5.14909">
        <ele>271.1</ele>
        <time>2012-09-15T07:13:22.000Z</time>
      </trkpt>
      <trkpt lat="44.07846" lon="5.14913">
        <ele>271.2</ele>
        <time>2012-09-15T07:13:23.000Z</time>
      </trkpt>
      <trkpt lat="44.07845" lon="5.14918">
        <ele>270.7</ele>
        <time>2012-09-15T07:13:24.000Z</time>
      </trkpt>
      <trkpt lat="44.07844" lon="5.14922">
        <ele>271.1</ele>
        <time>2012-09-15T07:13:25.000Z</time>
      </trkpt>
      <trkpt lat="44.07842" lon="5.14928">
        <ele>271.7</ele>
        <time>2012-09-15T07:13:27.000Z</time>
      </trkpt>
      <trkpt lat="44.07839" lon="5.14936">
        <ele>271.3</ele>
        <time>2012-09-15T07:13:29.000Z</time>
      </trkpt>
      <trkpt lat="44.07837" lon="5.14939">
        <ele>272.4</ele>
        <time>2012-09-15T07:13:30.000Z</time>
      </trkpt>
      <trkpt lat="44.07835" lon="5.14942">
        <ele>272.9</ele>
        <time>2012-09-15T07:13:31.000Z</time>
      </trkpt>
      <trkpt lat="44.07833" lon="5.14945">
        <ele>273.1</ele>
        <time>2012-09-15T07:13:32.000Z</time>
      </trkpt>
      <trkpt lat="44.07831" lon="5.14948">
        <ele>273.4</ele>
        <time>2012-09-15T07:13:33.000Z</time>
      </trkpt>
      <trkpt lat="44.07827" lon="5.14954">
        <ele>274.1</ele>
        <time>2012-09-15T07:13:35.000Z</time>
      </trkpt>
      <trkpt lat="44.07827" lon="5.1496">
        <ele>274.4</ele>
        <time>2012-09-15T07:13:37.000Z</time>
      </trkpt>
      <trkpt lat="44.07826" lon="5.14964">
        <ele>274.6</ele>
        <time>2012-09-15T07:13:38.000Z</time>
      </trkpt>
      <trkpt lat="44.07825" lon="5.1497">
        <ele>273.5</ele>
        <time>2012-09-15T07:13:40.000Z</time>
      </trkpt>
      <trkpt lat="44.07826" lon="5.14974">
        <ele>273.1</ele>
        <time>2012-09-15T07:13:41.000Z</time>
      </trkpt>
      <trkpt lat="44.07826" lon="5.14982">
        <ele>272.6</ele>
        <time>2012-09-15T07:13:43.000Z</time>
      </trkpt>
      <trkpt lat="44.07824" lon="5.14984">
        <ele>271.6</ele>
        <time>2012-09-15T07:13:49.000Z</time>
      </trkpt>
      <trkpt lat="44.07824" lon="5.1499">
        <ele>271.9</ele>
        <time>2012-09-15T07:13:52.000Z</time>
      </trkpt>
      <trkpt lat="44.07824" lon="5.14993">
        <ele>270.6</ele>
        <time>2012-09-15T07:13:56.000Z</time>
      </trkpt>
      <trkpt lat="44.07824" lon="5.14998">
        <ele>270.7</ele>
        <time>2012-09-15T07:14:00.000Z</time>
      </trkpt>
      <trkpt lat="44.07822" lon="5.15005">
        <ele>271.2</ele>
        <time>2012-09-15T07:14:04.000Z</time>
      </trkpt>
      <trkpt lat="44.0782" lon="5.15008">
        <ele>271</ele>
        <time>2012-09-15T07:14:05.000Z</time>
      </trkpt>
      <trkpt lat="44.07818" lon="5.1501">
        <ele>270.2</ele>
        <time>2012-09-15T07:14:07.000Z</time>
      </trkpt>
      <trkpt lat="44.07817" lon="5.15014">
        <ele>267.1</ele>
        <time>2012-09-15T07:14:46.000Z</time>
      </trkpt>
      <trkpt lat="44.07819" lon="5.15018">
        <ele>265.8</ele>
        <time>2012-09-15T07:15:55.000Z</time>
      </trkpt>
      <trkpt lat="44.07821" lon="5.15023">
        <ele>266.8</ele>
        <time>2012-09-15T07:16:33.000Z</time>
      </trkpt>
      <trkpt lat="44.07822" lon="5.15027">
        <ele>266</ele>
        <time>2012-09-15T07:16:35.000Z</time>
      </trkpt>
      <trkpt lat="44.07821" lon="5.15035">
        <ele>264.3</ele>
        <time>2012-09-15T07:16:37.000Z</time>
      </trkpt>
      <trkpt lat="44.07819" lon="5.1504">
        <ele>264</ele>
        <time>2012-09-15T07:16:38.000Z</time>
      </trkpt>
      <trkpt lat="44.07819" lon="5.15045">
        <ele>265.3</ele>
        <time>2012-09-15T07:16:39.000Z</time>
      </trkpt>
      <trkpt lat="44.07819" lon="5.1505">
        <ele>265.7</ele>
        <time>2012-09-15T07:16:40.000Z</time>
      </trkpt>
      <trkpt lat="44.07818" lon="5.15055">
        <ele>266.4</ele>
        <time>2012-09-15T07:16:47.000Z</time>
      </trkpt>
      <trkpt lat="44.07814" lon="5.15061">
        <ele>267.1</ele>
        <time>2012-09-15T07:16:50.000Z</time>
      </trkpt>
      <trkpt lat="44.07809" lon="5.15066">
        <ele>266.4</ele>
        <time>2012-09-15T07:16:52.000Z</time>
      </trkpt>
      <trkpt lat="44.07806" lon="5.15068">
        <ele>267</ele>
        <time>2012-09-15T07:16:53.000Z</time>
      </trkpt>
      <trkpt lat="44.07804" lon="5.1507">
        <ele>266.8</ele>
        <time>2012-09-15T07:16:54.000Z</time>
      </trkpt>
      <trkpt lat="44.078" lon="5.15073">
        <ele>267.4</ele>
        <time>2012-09-15T07:16:56.000Z</time>
      </trkpt>
      <trkpt lat="44.07797" lon="5.15075">
        <ele>267.8</ele>
        <time>2012-09-15T07:16:57.000Z</time>
      </trkpt>
      <trkpt lat="44.07795" lon="5.15077">
        <ele>267.5</ele>
        <time>2012-09-15T07:16:58.000Z</time>
      </trkpt>
      <trkpt lat="44.07791" lon="5.1508">
        <ele>268.5</ele>
        <time>2012-09-15T07:17:00.000Z</time>
      </trkpt>
      <trkpt lat="44.07791" lon="5.15086">
        <ele>268.7</ele>
        <time>2012-09-15T07:17:02.000Z</time>
      </trkpt>
      <trkpt lat="44.07791" lon="5.15091">
        <ele>268.9</ele>
        <time>2012-09-15T07:17:04.000Z</time>
      </trkpt>
      <trkpt lat="44.0779" lon="5.15098">
        <ele>269.2</ele>
        <time>2012-09-15T07:17:06.000Z</time>
      </trkpt>
      <trkpt lat="44.07791" lon="5.15104">
        <ele>269.3</ele>
        <time>2012-09-15T07:17:08.000Z</time>
      </trkpt>
      <trkpt lat="44.07792" lon="5.1511">
        <ele>270.1</ele>
        <time>2012-09-15T07:17:10.000Z</time>
      </trkpt>
      <trkpt lat="44.07792" lon="5.15116">
        <ele>270.5</ele>
        <time>2012-09-15T07:17:12.000Z</time>
      </trkpt>
      <trkpt lat="44.07794" lon="5.15122">
        <ele>270.8</ele>
        <time>2012-09-15T07:17:14.000Z</time>
      </trkpt>
      <trkpt lat="44.07794" lon="5.15129">
        <ele>271.3</ele>
        <time>2012-09-15T07:17:16.000Z</time>
      </trkpt>
      <trkpt lat="44.07796" lon="5.15134">
        <ele>272.8</ele>
        <time>2012-09-15T07:17:18.000Z</time>
      </trkpt>
      <trkpt lat="44.07797" lon="5.15138">
        <ele>273.3</ele>
        <time>2012-09-15T07:17:20.000Z</time>
      </trkpt>
      <trkpt lat="44.078" lon="5.15141">
        <ele>275.1</ele>
        <time>2012-09-15T07:17:24.000Z</time>
      </trkpt>
      <trkpt lat="44.07803" lon="5.15145">
        <ele>276</ele>
        <time>2012-09-15T07:17:26.000Z</time>
      </trkpt>
      <trkpt lat="44.07805" lon="5.1515">
        <ele>276.8</ele>
        <time>2012-09-15T07:17:28.000Z</time>
      </trkpt>
      <trkpt lat="44.07807" lon="5.15156">
        <ele>277.4</ele>
        <time>2012-09-15T07:17:30.000Z</time>
      </trkpt>
      <trkpt lat="44.07808" lon="5.15161">
        <ele>277.8</ele>
        <time>2012-09-15T07:17:31.000Z</time>
      </trkpt>
      <trkpt lat="44.07808" lon="5.15165">
        <ele>278</ele>
        <time>2012-09-15T07:17:32.000Z</time>
      </trkpt>
      <trkpt lat="44.07809" lon="5.15169">
        <ele>278</ele>
        <time>2012-09-15T07:17:33.000Z</time>
      </trkpt>
      <trkpt lat="44.07809" lon="5.15173">
        <ele>278.1</ele>
        <time>2012-09-15T07:17:34.000Z</time>
      </trkpt>
      <trkpt lat="44.07811" lon="5.15181">
        <ele>278.3</ele>
        <time>2012-09-15T07:17:36.000Z</time>
      </trkpt>
      <trkpt lat="44.07813" lon="5.15185">
        <ele>278.7</ele>
        <time>2012-09-15T07:17:38.000Z</time>
      </trkpt>
      <trkpt lat="44.07815" lon="5.15188">
        <ele>279</ele>
        <time>2012-09-15T07:17:39.000Z</time>
      </trkpt>
      <trkpt lat="44.07817" lon="5.15191">
        <ele>278.9</ele>
        <time>2012-09-15T07:17:40.000Z</time>
      </trkpt>
      <trkpt lat="44.07818" lon="5.15196">
        <ele>279.7</ele>
        <time>2012-09-15T07:17:42.000Z</time>
      </trkpt>
      <trkpt lat="44.07822" lon="5.15202">
        <ele>280.3</ele>
        <time>2012-09-15T07:17:44.000Z</time>
      </trkpt>
      <trkpt lat="44.07824" lon="5.15201">
        <ele>283.1</ele>
        <time>2012-09-15T07:17:45.000Z</time>
      </trkpt>
      <trkpt lat="44.07828" lon="5.15202">
        <ele>284.5</ele>
        <time>2012-09-15T07:17:47.000Z</time>
      </trkpt>
      <trkpt lat="44.0783" lon="5.15204">
        <ele>285</ele>
        <time>2012-09-15T07:17:48.000Z</time>
      </trkpt>
      <trkpt lat="44.07834" lon="5.15206">
        <ele>285.9</ele>
        <time>2012-09-15T07:17:50.000Z</time>
      </trkpt>
      <trkpt lat="44.07841" lon="5.15204">
        <ele>285.9</ele>
        <time>2012-09-15T07:17:52.000Z</time>
      </trkpt>
      <trkpt lat="44.07846" lon="5.15203">
        <ele>284</ele>
        <time>2012-09-15T07:17:53.000Z</time>
      </trkpt>
      <trkpt lat="44.07849" lon="5.15203">
        <ele>283</ele>
        <time>2012-09-15T07:17:54.000Z</time>
      </trkpt>
      <trkpt lat="44.07853" lon="5.15203">
        <ele>283.3</ele>
        <time>2012-09-15T07:17:56.000Z</time>
      </trkpt>
      <trkpt lat="44.07856" lon="5.15203">
        <ele>283.1</ele>
        <time>2012-09-15T07:17:58.000Z</time>
      </trkpt>
      <trkpt lat="44.07859" lon="5.15201">
        <ele>283.1</ele>
        <time>2012-09-15T07:18:03.000Z</time>
      </trkpt>
      <trkpt lat="44.07862" lon="5.15199">
        <ele>283.2</ele>
        <time>2012-09-15T07:18:05.000Z</time>
      </trkpt>
      <trkpt lat="44.07864" lon="5.15198">
        <ele>283.6</ele>
        <time>2012-09-15T07:18:07.000Z</time>
      </trkpt>
      <trkpt lat="44.07868" lon="5.15197">
        <ele>283.3</ele>
        <time>2012-09-15T07:18:09.000Z</time>
      </trkpt>
      <trkpt lat="44.0787" lon="5.152">
        <ele>285.6</ele>
        <time>2012-09-15T07:18:10.000Z</time>
      </trkpt>
      <trkpt lat="44.07873" lon="5.15201">
        <ele>286.2</ele>
        <time>2012-09-15T07:18:11.000Z</time>
      </trkpt>
      <trkpt lat="44.07876" lon="5.152">
        <ele>286.9</ele>
        <time>2012-09-15T07:18:13.000Z</time>
      </trkpt>
      <trkpt lat="44.07884" lon="5.15204">
        <ele>284.8</ele>
        <time>2012-09-15T07:18:15.000Z</time>
      </trkpt>
      <trkpt lat="44.07889" lon="5.15204">
        <ele>288.2</ele>
        <time>2012-09-15T07:18:17.000Z</time>
      </trkpt>
      <trkpt lat="44.07892" lon="5.15204">
        <ele>288.2</ele>
        <time>2012-09-15T07:18:18.000Z</time>
      </trkpt>
      <trkpt lat="44.07897" lon="5.15204">
        <ele>289</ele>
        <time>2012-09-15T07:18:20.000Z</time>
      </trkpt>
      <trkpt lat="44.07901" lon="5.15203">
        <ele>290.9</ele>
        <time>2012-09-15T07:18:22.000Z</time>
      </trkpt>
      <trkpt lat="44.07906" lon="5.15203">
        <ele>290.3</ele>
        <time>2012-09-15T07:18:24.000Z</time>
      </trkpt>
      <trkpt lat="44.0791" lon="5.15202">
        <ele>290.2</ele>
        <time>2012-09-15T07:18:26.000Z</time>
      </trkpt>
      <trkpt lat="44.07913" lon="5.15202">
        <ele>294.2</ele>
        <time>2012-09-15T07:18:30.000Z</time>
      </trkpt>
      <trkpt lat="44.07916" lon="5.15204">
        <ele>293.2</ele>
        <time>2012-09-15T07:18:31.000Z</time>
      </trkpt>
      <trkpt lat="44.07919" lon="5.15206">
        <ele>294.1</ele>
        <time>2012-09-15T07:18:33.000Z</time>
      </trkpt>
      <trkpt lat="44.07924" lon="5.1521">
        <ele>290.5</ele>
        <time>2012-09-15T07:18:35.000Z</time>
      </trkpt>
      <trkpt lat="44.07927" lon="5.15214">
        <ele>290.3</ele>
        <time>2012-09-15T07:18:37.000Z</time>
      </trkpt>
      <trkpt lat="44.0793" lon="5.15214">
        <ele>290</ele>
        <time>2012-09-15T07:18:39.000Z</time>
      </trkpt>
      <trkpt lat="44.07932" lon="5.15216">
        <ele>288.2</ele>
        <time>2012-09-15T07:18:41.000Z</time>
      </trkpt>
      <trkpt lat="44.07935" lon="5.15215">
        <ele>286.9</ele>
        <time>2012-09-15T07:18:44.000Z</time>
      </trkpt>
      <trkpt lat="44.07938" lon="5.15215">
        <ele>285</ele>
        <time>2012-09-15T07:18:47.000Z</time>
      </trkpt>
      <trkpt lat="44.07941" lon="5.15215">
        <ele>283.5</ele>
        <time>2012-09-15T07:18:51.000Z</time>
      </trkpt>
      <trkpt lat="44.07944" lon="5.15216">
        <ele>282.7</ele>
        <time>2012-09-15T07:19:04.000Z</time>
      </trkpt>
      <trkpt lat="44.07947" lon="5.15217">
        <ele>282</ele>
        <time>2012-09-15T07:19:11.000Z</time>
      </trkpt>
      <trkpt lat="44.0795" lon="5.15217">
        <ele>281.8</ele>
        <time>2012-09-15T07:19:26.000Z</time>
      </trkpt>
      <trkpt lat="44.07952" lon="5.15221">
        <ele>284.2</ele>
        <time>2012-09-15T07:20:39.000Z</time>
      </trkpt>
      <trkpt lat="44.07951" lon="5.15226">
        <ele>284.4</ele>
        <time>2012-09-15T07:20:41.000Z</time>
      </trkpt>
      <trkpt lat="44.07948" lon="5.15229">
        <ele>285.1</ele>
        <time>2012-09-15T07:20:43.000Z</time>
      </trkpt>
      <trkpt lat="44.07945" lon="5.1523">
        <ele>285.8</ele>
        <time>2012-09-15T07:20:45.000Z</time>
      </trkpt>
      <trkpt lat="44.07942" lon="5.15231">
        <ele>286.7</ele>
        <time>2012-09-15T07:20:47.000Z</time>
      </trkpt>
      <trkpt lat="44.07938" lon="5.1523">
        <ele>286.1</ele>
        <time>2012-09-15T07:20:49.000Z</time>
      </trkpt>
      <trkpt lat="44.07935" lon="5.15232">
        <ele>286.5</ele>
        <time>2012-09-15T07:20:52.000Z</time>
      </trkpt>
      <trkpt lat="44.07931" lon="5.15233">
        <ele>285.9</ele>
        <time>2012-09-15T07:20:54.000Z</time>
      </trkpt>
      <trkpt lat="44.07928" lon="5.15231">
        <ele>285.3</ele>
        <time>2012-09-15T07:20:56.000Z</time>
      </trkpt>
      <trkpt lat="44.07925" lon="5.1523">
        <ele>284.9</ele>
        <time>2012-09-15T07:20:58.000Z</time>
      </trkpt>
      <trkpt lat="44.0792" lon="5.1523">
        <ele>282.6</ele>
        <time>2012-09-15T07:20:59.000Z</time>
      </trkpt>
      <trkpt lat="44.07917" lon="5.15232">
        <ele>281.5</ele>
        <time>2012-09-15T07:21:00.000Z</time>
      </trkpt>
      <trkpt lat="44.07914" lon="5.15234">
        <ele>282.1</ele>
        <time>2012-09-15T07:21:01.000Z</time>
      </trkpt>
      <trkpt lat="44.07912" lon="5.15236">
        <ele>282.6</ele>
        <time>2012-09-15T07:21:02.000Z</time>
      </trkpt>
      <trkpt lat="44.0791" lon="5.15239">
        <ele>282.7</ele>
        <time>2012-09-15T07:21:03.000Z</time>
      </trkpt>
      <trkpt lat="44.07906" lon="5.15241">
        <ele>283</ele>
        <time>2012-09-15T07:21:04.000Z</time>
      </trkpt>
      <trkpt lat="44.07903" lon="5.15237">
        <ele>284.1</ele>
        <time>2012-09-15T07:21:05.000Z</time>
      </trkpt>
      <trkpt lat="44.07899" lon="5.15237">
        <ele>282.4</ele>
        <time>2012-09-15T07:21:06.000Z</time>
      </trkpt>
      <trkpt lat="44.07894" lon="5.15239">
        <ele>284.9</ele>
        <time>2012-09-15T07:21:08.000Z</time>
      </trkpt>
      <trkpt lat="44.07891" lon="5.1524">
        <ele>285.8</ele>
        <time>2012-09-15T07:21:09.000Z</time>
      </trkpt>
      <trkpt lat="44.07885" lon="5.15238">
        <ele>286.1</ele>
        <time>2012-09-15T07:21:11.000Z</time>
      </trkpt>
      <trkpt lat="44.07881" lon="5.15238">
        <ele>285.9</ele>
        <time>2012-09-15T07:21:13.000Z</time>
      </trkpt>
      <trkpt lat="44.07876" lon="5.15239">
        <ele>287.6</ele>
        <time>2012-09-15T07:21:15.000Z</time>
      </trkpt>
      <trkpt lat="44.07872" lon="5.1524">
        <ele>288.5</ele>
        <time>2012-09-15T07:21:17.000Z</time>
      </trkpt>
      <trkpt lat="44.07869" lon="5.15238">
        <ele>287.6</ele>
        <time>2012-09-15T07:21:18.000Z</time>
      </trkpt>
      <trkpt lat="44.07865" lon="5.15235">
        <ele>288.9</ele>
        <time>2012-09-15T07:21:20.000Z</time>
      </trkpt>
      <trkpt lat="44.0786" lon="5.15231">
        <ele>285.9</ele>
        <time>2012-09-15T07:21:22.000Z</time>
      </trkpt>
      <trkpt lat="44.07857" lon="5.15228">
        <ele>285</ele>
        <time>2012-09-15T07:21:24.000Z</time>
      </trkpt>
      <trkpt lat="44.07854" lon="5.15225">
        <ele>283.7</ele>
        <time>2012-09-15T07:21:26.000Z</time>
      </trkpt>
      <trkpt lat="44.0785" lon="5.15223">
        <ele>282.3</ele>
        <time>2012-09-15T07:21:28.000Z</time>
      </trkpt>
      <trkpt lat="44.07845" lon="5.15219">
        <ele>282.1</ele>
        <time>2012-09-15T07:21:30.000Z</time>
      </trkpt>
      <trkpt lat="44.07841" lon="5.15217">
        <ele>282.3</ele>
        <time>2012-09-15T07:21:32.000Z</time>
      </trkpt>
      <trkpt lat="44.07838" lon="5.15216">
        <ele>282.1</ele>
        <time>2012-09-15T07:21:35.000Z</time>
      </trkpt>
      <trkpt lat="44.07836" lon="5.15213">
        <ele>281.4</ele>
        <time>2012-09-15T07:21:45.000Z</time>
      </trkpt>
      <trkpt lat="44.07834" lon="5.15209">
        <ele>283.5</ele>
        <time>2012-09-15T07:21:46.000Z</time>
      </trkpt>
      <trkpt lat="44.07831" lon="5.15205">
        <ele>283.8</ele>
        <time>2012-09-15T07:21:48.000Z</time>
      </trkpt>
      <trkpt lat="44.07827" lon="5.15201">
        <ele>284</ele>
        <time>2012-09-15T07:21:50.000Z</time>
      </trkpt>
      <trkpt lat="44.07823" lon="5.15194">
        <ele>284.2</ele>
        <time>2012-09-15T07:21:51.000Z</time>
      </trkpt>
      <trkpt lat="44.07821" lon="5.15189">
        <ele>283</ele>
        <time>2012-09-15T07:21:52.000Z</time>
      </trkpt>
      <trkpt lat="44.07819" lon="5.15185">
        <ele>281.7</ele>
        <time>2012-09-15T07:21:53.000Z</time>
      </trkpt>
      <trkpt lat="44.07817" lon="5.15181">
        <ele>281.5</ele>
        <time>2012-09-15T07:21:54.000Z</time>
      </trkpt>
      <trkpt lat="44.07813" lon="5.15176">
        <ele>281.4</ele>
        <time>2012-09-15T07:21:56.000Z</time>
      </trkpt>
      <trkpt lat="44.0781" lon="5.15172">
        <ele>280.9</ele>
        <time>2012-09-15T07:21:58.000Z</time>
      </trkpt>
      <trkpt lat="44.07806" lon="5.15167">
        <ele>280.2</ele>
        <time>2012-09-15T07:22:00.000Z</time>
      </trkpt>
      <trkpt lat="44.07803" lon="5.15165">
        <ele>281.7</ele>
        <time>2012-09-15T07:22:02.000Z</time>
      </trkpt>
      <trkpt lat="44.078" lon="5.15165">
        <ele>280.7</ele>
        <time>2012-09-15T07:22:05.000Z</time>
      </trkpt>
      <trkpt lat="44.07797" lon="5.15166">
        <ele>278.9</ele>
        <time>2012-09-15T07:22:07.000Z</time>
      </trkpt>
      <trkpt lat="44.07794" lon="5.15166">
        <ele>277.1</ele>
        <time>2012-09-15T07:22:14.000Z</time>
      </trkpt>
      <trkpt lat="44.0779" lon="5.15166">
        <ele>276.9</ele>
        <time>2012-09-15T07:22:19.000Z</time>
      </trkpt>
      <trkpt lat="44.07787" lon="5.15165">
        <ele>279.7</ele>
        <time>2012-09-15T07:22:32.000Z</time>
      </trkpt>
      <trkpt lat="44.07786" lon="5.15169">
        <ele>280.8</ele>
        <time>2012-09-15T07:22:41.000Z</time>
      </trkpt>
      <trkpt lat="44.07785" lon="5.15173">
        <ele>280.7</ele>
        <time>2012-09-15T07:22:44.000Z</time>
      </trkpt>
      <trkpt lat="44.07785" lon="5.15178">
        <ele>280.9</ele>
        <time>2012-09-15T07:22:47.000Z</time>
      </trkpt>
      <trkpt lat="44.07783" lon="5.15182">
        <ele>280.9</ele>
        <time>2012-09-15T07:22:49.000Z</time>
      </trkpt>
      <trkpt lat="44.07782" lon="5.15187">
        <ele>281.3</ele>
        <time>2012-09-15T07:22:51.000Z</time>
      </trkpt>
      <trkpt lat="44.07778" lon="5.15186">
        <ele>281.6</ele>
        <time>2012-09-15T07:22:52.000Z</time>
      </trkpt>
      <trkpt lat="44.07775" lon="5.15186">
        <ele>281.7</ele>
        <time>2012-09-15T07:22:53.000Z</time>
      </trkpt>
      <trkpt lat="44.07771" lon="5.15186">
        <ele>281.4</ele>
        <time>2012-09-15T07:22:54.000Z</time>
      </trkpt>
      <trkpt lat="44.07768" lon="5.15186">
        <ele>281.9</ele>
        <time>2012-09-15T07:22:55.000Z</time>
      </trkpt>
      <trkpt lat="44.07764" lon="5.15183">
        <ele>280.9</ele>
        <time>2012-09-15T07:22:56.000Z</time>
      </trkpt>
      <trkpt lat="44.07761" lon="5.15182">
        <ele>280.9</ele>
        <time>2012-09-15T07:22:57.000Z</time>
      </trkpt>
      <trkpt lat="44.07758" lon="5.15182">
        <ele>281</ele>
        <time>2012-09-15T07:22:58.000Z</time>
      </trkpt>
      <trkpt lat="44.07753" lon="5.15183">
        <ele>281.8</ele>
        <time>2012-09-15T07:23:00.000Z</time>
      </trkpt>
      <trkpt lat="44.0775" lon="5.15182">
        <ele>281.6</ele>
        <time>2012-09-15T07:23:01.000Z</time>
      </trkpt>
      <trkpt lat="44.07746" lon="5.15182">
        <ele>281.9</ele>
        <time>2012-09-15T07:23:02.000Z</time>
      </trkpt>
      <trkpt lat="44.07742" lon="5.15184">
        <ele>281.7</ele>
        <time>2012-09-15T07:23:04.000Z</time>
      </trkpt>
      <trkpt lat="44.07738" lon="5.15188">
        <ele>282.1</ele>
        <time>2012-09-15T07:23:06.000Z</time>
      </trkpt>
      <trkpt lat="44.07736" lon="5.15192">
        <ele>282.8</ele>
        <time>2012-09-15T07:23:09.000Z</time>
      </trkpt>
      <trkpt lat="44.07736" lon="5.15196">
        <ele>281.6</ele>
        <time>2012-09-15T07:23:11.000Z</time>
      </trkpt>
      <trkpt lat="44.07738" lon="5.15201">
        <ele>281.4</ele>
        <time>2012-09-15T07:23:13.000Z</time>
      </trkpt>
      <trkpt lat="44.0774" lon="5.15207">
        <ele>281.6</ele>
        <time>2012-09-15T07:23:15.000Z</time>
      </trkpt>
      <trkpt lat="44.07743" lon="5.15211">
        <ele>281.7</ele>
        <time>2012-09-15T07:23:17.000Z</time>
      </trkpt>
      <trkpt lat="44.07746" lon="5.15213">
        <ele>282.1</ele>
        <time>2012-09-15T07:23:18.000Z</time>
      </trkpt>
      <trkpt lat="44.07748" lon="5.15214">
        <ele>282.8</ele>
        <time>2012-09-15T07:23:19.000Z</time>
      </trkpt>
      <trkpt lat="44.07751" lon="5.15219">
        <ele>283.1</ele>
        <time>2012-09-15T07:23:21.000Z</time>
      </trkpt>
      <trkpt lat="44.07754" lon="5.15221">
        <ele>282.8</ele>
        <time>2012-09-15T07:23:22.000Z</time>
      </trkpt>
      <trkpt lat="44.07756" lon="5.15222">
        <ele>282.6</ele>
        <time>2012-09-15T07:23:23.000Z</time>
      </trkpt>
      <trkpt lat="44.07758" lon="5.15226">
        <ele>282.9</ele>
        <time>2012-09-15T07:23:24.000Z</time>
      </trkpt>
      <trkpt lat="44.0776" lon="5.15229">
        <ele>283.2</ele>
        <time>2012-09-15T07:23:25.000Z</time>
      </trkpt>
      <trkpt lat="44.07762" lon="5.15231">
        <ele>283.1</ele>
        <time>2012-09-15T07:23:26.000Z</time>
      </trkpt>
      <trkpt lat="44.07766" lon="5.15235">
        <ele>283.5</ele>
        <time>2012-09-15T07:23:28.000Z</time>
      </trkpt>
      <trkpt lat="44.0777" lon="5.1524">
        <ele>283.6</ele>
        <time>2012-09-15T07:23:30.000Z</time>
      </trkpt>
      <trkpt lat="44.07774" lon="5.15243">
        <ele>285.4</ele>
        <time>2012-09-15T07:23:32.000Z</time>
      </trkpt>
      <trkpt lat="44.07776" lon="5.15246">
        <ele>287.6</ele>
        <time>2012-09-15T07:23:34.000Z</time>
      </trkpt>
      <trkpt lat="44.0778" lon="5.15249">
        <ele>287.8</ele>
        <time>2012-09-15T07:23:36.000Z</time>
      </trkpt>
      <trkpt lat="44.07783" lon="5.15251">
        <ele>288.2</ele>
        <time>2012-09-15T07:23:38.000Z</time>
      </trkpt>
      <trkpt lat="44.07779" lon="5.15252">
        <ele>285.1</ele>
        <time>2012-09-15T07:23:41.000Z</time>
      </trkpt>
      <trkpt lat="44.07776" lon="5.15252">
        <ele>284.5</ele>
        <time>2012-09-15T07:23:43.000Z</time>
      </trkpt>
      <trkpt lat="44.07772" lon="5.15251">
        <ele>284</ele>
        <time>2012-09-15T07:23:45.000Z</time>
      </trkpt>
      <trkpt lat="44.07768" lon="5.1525">
        <ele>284.2</ele>
        <time>2012-09-15T07:23:47.000Z</time>
      </trkpt>
      <trkpt lat="44.07764" lon="5.1525">
        <ele>284.4</ele>
        <time>2012-09-15T07:23:49.000Z</time>
      </trkpt>
      <trkpt lat="44.0776" lon="5.15252">
        <ele>284.8</ele>
        <time>2012-09-15T07:23:51.000Z</time>
      </trkpt>
      <trkpt lat="44.07756" lon="5.15252">
        <ele>284.5</ele>
        <time>2012-09-15T07:23:59.000Z</time>
      </trkpt>
      <trkpt lat="44.07753" lon="5.15251">
        <ele>284.3</ele>
        <time>2012-09-15T07:24:01.000Z</time>
      </trkpt>
      <trkpt lat="44.07749" lon="5.15253">
        <ele>284.1</ele>
        <time>2012-09-15T07:24:03.000Z</time>
      </trkpt>
      <trkpt lat="44.07744" lon="5.15253">
        <ele>284.1</ele>
        <time>2012-09-15T07:24:05.000Z</time>
      </trkpt>
      <trkpt lat="44.0774" lon="5.15253">
        <ele>284.3</ele>
        <time>2012-09-15T07:24:07.000Z</time>
      </trkpt>
      <trkpt lat="44.07736" lon="5.15253">
        <ele>284.6</ele>
        <time>2012-09-15T07:24:08.000Z</time>
      </trkpt>
      <trkpt lat="44.07734" lon="5.15252">
        <ele>284.9</ele>
        <time>2012-09-15T07:24:09.000Z</time>
      </trkpt>
      <trkpt lat="44.07731" lon="5.15254">
        <ele>284.6</ele>
        <time>2012-09-15T07:24:10.000Z</time>
      </trkpt>
      <trkpt lat="44.07728" lon="5.15256">
        <ele>284.6</ele>
        <time>2012-09-15T07:24:11.000Z</time>
      </trkpt>
      <trkpt lat="44.07727" lon="5.1526">
        <ele>285</ele>
        <time>2012-09-15T07:24:12.000Z</time>
      </trkpt>
      <trkpt lat="44.07727" lon="5.15264">
        <ele>285.2</ele>
        <time>2012-09-15T07:24:13.000Z</time>
      </trkpt>
      <trkpt lat="44.07726" lon="5.15268">
        <ele>285.6</ele>
        <time>2012-09-15T07:24:14.000Z</time>
      </trkpt>
      <trkpt lat="44.07723" lon="5.15271">
        <ele>285.6</ele>
        <time>2012-09-15T07:24:15.000Z</time>
      </trkpt>
      <trkpt lat="44.0772" lon="5.15272">
        <ele>285.6</ele>
        <time>2012-09-15T07:24:16.000Z</time>
      </trkpt>
      <trkpt lat="44.07718" lon="5.15274">
        <ele>285.8</ele>
        <time>2012-09-15T07:24:17.000Z</time>
      </trkpt>
      <trkpt lat="44.07715" lon="5.15273">
        <ele>286</ele>
        <time>2012-09-15T07:24:18.000Z</time>
      </trkpt>
      <trkpt lat="44.07711" lon="5.15273">
        <ele>288</ele>
        <time>2012-09-15T07:24:20.000Z</time>
      </trkpt>
      <trkpt lat="44.07706" lon="5.15275">
        <ele>288.9</ele>
        <time>2012-09-15T07:24:22.000Z</time>
      </trkpt>
      <trkpt lat="44.07698" lon="5.15276">
        <ele>288.3</ele>
        <time>2012-09-15T07:24:24.000Z</time>
      </trkpt>
      <trkpt lat="44.07696" lon="5.15278">
        <ele>288.5</ele>
        <time>2012-09-15T07:24:25.000Z</time>
      </trkpt>
      <trkpt lat="44.07694" lon="5.15281">
        <ele>288.5</ele>
        <time>2012-09-15T07:24:26.000Z</time>
      </trkpt>
      <trkpt lat="44.07692" lon="5.15285">
        <ele>288.3</ele>
        <time>2012-09-15T07:24:27.000Z</time>
      </trkpt>
      <trkpt lat="44.0769" lon="5.15288">
        <ele>288.2</ele>
        <time>2012-09-15T07:24:28.000Z</time>
      </trkpt>
      <trkpt lat="44.07686" lon="5.15289">
        <ele>287.9</ele>
        <time>2012-09-15T07:24:29.000Z</time>
      </trkpt>
      <trkpt lat="44.07683" lon="5.1529">
        <ele>287.3</ele>
        <time>2012-09-15T07:24:30.000Z</time>
      </trkpt>
      <trkpt lat="44.07679" lon="5.15291">
        <ele>288</ele>
        <time>2012-09-15T07:24:31.000Z</time>
      </trkpt>
      <trkpt lat="44.07675" lon="5.15292">
        <ele>288.4</ele>
        <time>2012-09-15T07:24:32.000Z</time>
      </trkpt>
      <trkpt lat="44.07672" lon="5.15293">
        <ele>288.6</ele>
        <time>2012-09-15T07:24:33.000Z</time>
      </trkpt>
      <trkpt lat="44.0767" lon="5.15301">
        <ele>288.2</ele>
        <time>2012-09-15T07:24:34.000Z</time>
      </trkpt>
      <trkpt lat="44.07668" lon="5.15305">
        <ele>288.1</ele>
        <time>2012-09-15T07:24:35.000Z</time>
      </trkpt>
      <trkpt lat="44.07665" lon="5.15307">
        <ele>288.2</ele>
        <time>2012-09-15T07:24:36.000Z</time>
      </trkpt>
      <trkpt lat="44.07663" lon="5.1531">
        <ele>287.8</ele>
        <time>2012-09-15T07:24:38.000Z</time>
      </trkpt>
      <trkpt lat="44.07659" lon="5.15314">
        <ele>287.1</ele>
        <time>2012-09-15T07:24:40.000Z</time>
      </trkpt>
      <trkpt lat="44.07656" lon="5.15318">
        <ele>287.3</ele>
        <time>2012-09-15T07:24:42.000Z</time>
      </trkpt>
      <trkpt lat="44.07653" lon="5.15322">
        <ele>287.6</ele>
        <time>2012-09-15T07:24:44.000Z</time>
      </trkpt>
      <trkpt lat="44.07648" lon="5.15323">
        <ele>288.5</ele>
        <time>2012-09-15T07:24:46.000Z</time>
      </trkpt>
      <trkpt lat="44.07645" lon="5.15324">
        <ele>289.3</ele>
        <time>2012-09-15T07:24:47.000Z</time>
      </trkpt>
      <trkpt lat="44.07642" lon="5.15328">
        <ele>289.1</ele>
        <time>2012-09-15T07:24:48.000Z</time>
      </trkpt>
      <trkpt lat="44.0764" lon="5.15331">
        <ele>289</ele>
        <time>2012-09-15T07:24:49.000Z</time>
      </trkpt>
      <trkpt lat="44.07637" lon="5.15334">
        <ele>288.6</ele>
        <time>2012-09-15T07:24:50.000Z</time>
      </trkpt>
      <trkpt lat="44.07636" lon="5.15338">
        <ele>288.4</ele>
        <time>2012-09-15T07:24:51.000Z</time>
      </trkpt>
      <trkpt lat="44.07636" lon="5.15344">
        <ele>288.9</ele>
        <time>2012-09-15T07:24:52.000Z</time>
      </trkpt>
      <trkpt lat="44.07636" lon="5.15348">
        <ele>288.6</ele>
        <time>2012-09-15T07:24:53.000Z</time>
      </trkpt>
      <trkpt lat="44.07637" lon="5.15355">
        <ele>288.9</ele>
        <time>2012-09-15T07:24:54.000Z</time>
      </trkpt>
      <trkpt lat="44.07641" lon="5.1536">
        <ele>288.5</ele>
        <time>2012-09-15T07:24:55.000Z</time>
      </trkpt>
      <trkpt lat="44.07642" lon="5.15365">
        <ele>289</ele>
        <time>2012-09-15T07:24:56.000Z</time>
      </trkpt>
      <trkpt lat="44.07646" lon="5.15367">
        <ele>288.5</ele>
        <time>2012-09-15T07:24:57.000Z</time>
      </trkpt>
      <trkpt lat="44.07648" lon="5.15369">
        <ele>288</ele>
        <time>2012-09-15T07:24:58.000Z</time>
      </trkpt>
      <trkpt lat="44.07651" lon="5.15372">
        <ele>288.2</ele>
        <time>2012-09-15T07:24:59.000Z</time>
      </trkpt>
      <trkpt lat="44.07654" lon="5.15374">
        <ele>288.3</ele>
        <time>2012-09-15T07:25:00.000Z</time>
      </trkpt>
      <trkpt lat="44.07656" lon="5.15376">
        <ele>288.4</ele>
        <time>2012-09-15T07:25:01.000Z</time>
      </trkpt>
      <trkpt lat="44.07654" lon="5.15382">
        <ele>290</ele>
        <time>2012-09-15T07:25:03.000Z</time>
      </trkpt>
      <trkpt lat="44.07652" lon="5.15386">
        <ele>290.2</ele>
        <time>2012-09-15T07:25:05.000Z</time>
      </trkpt>
      <trkpt lat="44.07651" lon="5.1539">
        <ele>290.5</ele>
        <time>2012-09-15T07:25:07.000Z</time>
      </trkpt>
      <trkpt lat="44.07649" lon="5.15393">
        <ele>290.6</ele>
        <time>2012-09-15T07:25:09.000Z</time>
      </trkpt>
      <trkpt lat="44.07644" lon="5.15394">
        <ele>290.8</ele>
        <time>2012-09-15T07:25:11.000Z</time>
      </trkpt>
      <trkpt lat="44.0764" lon="5.15393">
        <ele>290.8</ele>
        <time>2012-09-15T07:25:13.000Z</time>
      </trkpt>
      <trkpt lat="44.07635" lon="5.15394">
        <ele>289.8</ele>
        <time>2012-09-15T07:25:15.000Z</time>
      </trkpt>
      <trkpt lat="44.07631" lon="5.15394">
        <ele>289.9</ele>
        <time>2012-09-15T07:25:17.000Z</time>
      </trkpt>
      <trkpt lat="44.07627" lon="5.15396">
        <ele>288.8</ele>
        <time>2012-09-15T07:25:19.000Z</time>
      </trkpt>
      <trkpt lat="44.07622" lon="5.15396">
        <ele>288.4</ele>
        <time>2012-09-15T07:25:21.000Z</time>
      </trkpt>
      <trkpt lat="44.07619" lon="5.15397">
        <ele>288.6</ele>
        <time>2012-09-15T07:25:22.000Z</time>
      </trkpt>
      <trkpt lat="44.07616" lon="5.15398">
        <ele>289</ele>
        <time>2012-09-15T07:25:23.000Z</time>
      </trkpt>
      <trkpt lat="44.07613" lon="5.154">
        <ele>289.1</ele>
        <time>2012-09-15T07:25:24.000Z</time>
      </trkpt>
      <trkpt lat="44.07608" lon="5.15401">
        <ele>288.7</ele>
        <time>2012-09-15T07:25:26.000Z</time>
      </trkpt>
      <trkpt lat="44.07604" lon="5.15402">
        <ele>288.6</ele>
        <time>2012-09-15T07:25:27.000Z</time>
      </trkpt>
      <trkpt lat="44.07601" lon="5.15402">
        <ele>288.6</ele>
        <time>2012-09-15T07:25:28.000Z</time>
      </trkpt>
      <trkpt lat="44.07598" lon="5.15403">
        <ele>288.5</ele>
        <time>2012-09-15T07:25:29.000Z</time>
      </trkpt>
      <trkpt lat="44.07594" lon="5.15403">
        <ele>288.3</ele>
        <time>2012-09-15T07:25:30.000Z</time>
      </trkpt>
      <trkpt lat="44.07589" lon="5.15403">
        <ele>288.3</ele>
        <time>2012-09-15T07:25:31.000Z</time>
      </trkpt>
      <trkpt lat="44.0758" lon="5.15403">
        <ele>288</ele>
        <time>2012-09-15T07:25:32.000Z</time>
      </trkpt>
      <trkpt lat="44.07574" lon="5.15403">
        <ele>287.8</ele>
        <time>2012-09-15T07:25:33.000Z</time>
      </trkpt>
      <trkpt lat="44.07568" lon="5.15405">
        <ele>287.1</ele>
        <time>2012-09-15T07:25:34.000Z</time>
      </trkpt>
      <trkpt lat="44.07562" lon="5.15406">
        <ele>286.8</ele>
        <time>2012-09-15T07:25:35.000Z</time>
      </trkpt>
      <trkpt lat="44.07556" lon="5.15407">
        <ele>287.1</ele>
        <time>2012-09-15T07:25:36.000Z</time>
      </trkpt>
      <trkpt lat="44.0755" lon="5.15408">
        <ele>286.8</ele>
        <time>2012-09-15T07:25:37.000Z</time>
      </trkpt>
      <trkpt lat="44.07545" lon="5.15409">
        <ele>287</ele>
        <time>2012-09-15T07:25:38.000Z</time>
      </trkpt>
      <trkpt lat="44.0754" lon="5.15409">
        <ele>287.2</ele>
        <time>2012-09-15T07:25:39.000Z</time>
      </trkpt>
      <trkpt lat="44.07534" lon="5.15409">
        <ele>287</ele>
        <time>2012-09-15T07:25:40.000Z</time>
      </trkpt>
      <trkpt lat="44.0753" lon="5.15408">
        <ele>287</ele>
        <time>2012-09-15T07:25:41.000Z</time>
      </trkpt>
      <trkpt lat="44.07524" lon="5.15403">
        <ele>286.9</ele>
        <time>2012-09-15T07:25:42.000Z</time>
      </trkpt>
      <trkpt lat="44.07518" lon="5.154">
        <ele>286.8</ele>
        <time>2012-09-15T07:25:43.000Z</time>
      </trkpt>
      <trkpt lat="44.07514" lon="5.15394">
        <ele>286.7</ele>
        <time>2012-09-15T07:25:44.000Z</time>
      </trkpt>
      <trkpt lat="44.07509" lon="5.15391">
        <ele>286.8</ele>
        <time>2012-09-15T07:25:45.000Z</time>
      </trkpt>
      <trkpt lat="44.07505" lon="5.15388">
        <ele>286.5</ele>
        <time>2012-09-15T07:25:46.000Z</time>
      </trkpt>
      <trkpt lat="44.07501" lon="5.15386">
        <ele>286.3</ele>
        <time>2012-09-15T07:25:47.000Z</time>
      </trkpt>
      <trkpt lat="44.07498" lon="5.15386">
        <ele>287.2</ele>
        <time>2012-09-15T07:25:48.000Z</time>
      </trkpt>
      <trkpt lat="44.07495" lon="5.15387">
        <ele>287.2</ele>
        <time>2012-09-15T07:25:49.000Z</time>
      </trkpt>
      <trkpt lat="44.07492" lon="5.15389">
        <ele>287.7</ele>
        <time>2012-09-15T07:25:50.000Z</time>
      </trkpt>
      <trkpt lat="44.07489" lon="5.15391">
        <ele>287.6</ele>
        <time>2012-09-15T07:25:51.000Z</time>
      </trkpt>
      <trkpt lat="44.07486" lon="5.15393">
        <ele>287.6</ele>
        <time>2012-09-15T07:25:52.000Z</time>
      </trkpt>
      <trkpt lat="44.07483" lon="5.15397">
        <ele>287</ele>
        <time>2012-09-15T07:25:53.000Z</time>
      </trkpt>
      <trkpt lat="44.0748" lon="5.154">
        <ele>286.5</ele>
        <time>2012-09-15T07:25:54.000Z</time>
      </trkpt>
      <trkpt lat="44.07477" lon="5.15402">
        <ele>286.6</ele>
        <time>2012-09-15T07:25:55.000Z</time>
      </trkpt>
      <trkpt lat="44.07473" lon="5.15403">
        <ele>286.4</ele>
        <time>2012-09-15T07:25:56.000Z</time>
      </trkpt>
      <trkpt lat="44.0747" lon="5.15404">
        <ele>286.2</ele>
        <time>2012-09-15T07:25:57.000Z</time>
      </trkpt>
      <trkpt lat="44.07466" lon="5.15405">
        <ele>286.2</ele>
        <time>2012-09-15T07:25:58.000Z</time>
      </trkpt>
      <trkpt lat="44.07464" lon="5.15404">
        <ele>286.3</ele>
        <time>2012-09-15T07:25:59.000Z</time>
      </trkpt>
      <trkpt lat="44.0746" lon="5.15405">
        <ele>286.6</ele>
        <time>2012-09-15T07:26:01.000Z</time>
      </trkpt>
      <trkpt lat="44.07456" lon="5.15408">
        <ele>286.9</ele>
        <time>2012-09-15T07:26:03.000Z</time>
      </trkpt>
      <trkpt lat="44.07454" lon="5.15411">
        <ele>287.1</ele>
        <time>2012-09-15T07:26:04.000Z</time>
      </trkpt>
      <trkpt lat="44.0745" lon="5.15416">
        <ele>288.4</ele>
        <time>2012-09-15T07:26:06.000Z</time>
      </trkpt>
      <trkpt lat="44.07448" lon="5.15421">
        <ele>288.6</ele>
        <time>2012-09-15T07:26:08.000Z</time>
      </trkpt>
      <trkpt lat="44.07447" lon="5.15425">
        <ele>288.8</ele>
        <time>2012-09-15T07:26:10.000Z</time>
      </trkpt>
      <trkpt lat="44.07446" lon="5.15429">
        <ele>288.7</ele>
        <time>2012-09-15T07:26:12.000Z</time>
      </trkpt>
      <trkpt lat="44.07449" lon="5.15434">
        <ele>288.7</ele>
        <time>2012-09-15T07:26:14.000Z</time>
      </trkpt>
      <trkpt lat="44.07454" lon="5.15438">
        <ele>287.7</ele>
        <time>2012-09-15T07:26:16.000Z</time>
      </trkpt>
      <trkpt lat="44.07457" lon="5.15441">
        <ele>286.8</ele>
        <time>2012-09-15T07:26:18.000Z</time>
      </trkpt>
      <trkpt lat="44.0746" lon="5.15436">
        <ele>287.5</ele>
        <time>2012-09-15T07:26:20.000Z</time>
      </trkpt>
      <trkpt lat="44.07463" lon="5.15433">
        <ele>288.6</ele>
        <time>2012-09-15T07:26:22.000Z</time>
      </trkpt>
      <trkpt lat="44.07467" lon="5.1543">
        <ele>288.6</ele>
        <time>2012-09-15T07:26:24.000Z</time>
      </trkpt>
      <trkpt lat="44.07469" lon="5.15428">
        <ele>288.7</ele>
        <time>2012-09-15T07:26:26.000Z</time>
      </trkpt>
      <trkpt lat="44.07474" lon="5.15429">
        <ele>294.5</ele>
        <time>2012-09-15T07:26:29.000Z</time>
      </trkpt>
      <trkpt lat="44.07478" lon="5.15428">
        <ele>296.1</ele>
        <time>2012-09-15T07:26:31.000Z</time>
      </trkpt>
      <trkpt lat="44.07481" lon="5.15429">
        <ele>297</ele>
        <time>2012-09-15T07:26:33.000Z</time>
      </trkpt>
      <trkpt lat="44.07482" lon="5.15433">
        <ele>297.8</ele>
        <time>2012-09-15T07:26:36.000Z</time>
      </trkpt>
      <trkpt lat="44.07478" lon="5.15433">
        <ele>298</ele>
        <time>2012-09-15T07:26:37.000Z</time>
      </trkpt>
      <trkpt lat="44.07474" lon="5.15436">
        <ele>300.5</ele>
        <time>2012-09-15T07:26:39.000Z</time>
      </trkpt>
      <trkpt lat="44.07471" lon="5.1544">
        <ele>300.3</ele>
        <time>2012-09-15T07:26:42.000Z</time>
      </trkpt>
      <trkpt lat="44.07475" lon="5.15443">
        <ele>300.5</ele>
        <time>2012-09-15T07:26:47.000Z</time>
      </trkpt>
      <trkpt lat="44.07478" lon="5.15446">
        <ele>301.5</ele>
        <time>2012-09-15T07:26:50.000Z</time>
      </trkpt>
      <trkpt lat="44.07482" lon="5.15443">
        <ele>305.5</ele>
        <time>2012-09-15T07:26:55.000Z</time>
      </trkpt>
      <trkpt lat="44.07486" lon="5.15442">
        <ele>304.3</ele>
        <time>2012-09-15T07:26:57.000Z</time>
      </trkpt>
      <trkpt lat="44.07491" lon="5.15439">
        <ele>304.7</ele>
        <time>2012-09-15T07:26:59.000Z</time>
      </trkpt>
      <trkpt lat="44.07495" lon="5.15437">
        <ele>304.1</ele>
        <time>2012-09-15T07:27:00.000Z</time>
      </trkpt>
      <trkpt lat="44.07498" lon="5.15435">
        <ele>303.8</ele>
        <time>2012-09-15T07:27:01.000Z</time>
      </trkpt>
      <trkpt lat="44.07502" lon="5.15434">
        <ele>303.6</ele>
        <time>2012-09-15T07:27:02.000Z</time>
      </trkpt>
      <trkpt lat="44.07505" lon="5.15433">
        <ele>303.7</ele>
        <time>2012-09-15T07:27:03.000Z</time>
      </trkpt>
      <trkpt lat="44.07508" lon="5.15432">
        <ele>303.6</ele>
        <time>2012-09-15T07:27:04.000Z</time>
      </trkpt>
      <trkpt lat="44.07511" lon="5.1543">
        <ele>303.5</ele>
        <time>2012-09-15T07:27:05.000Z</time>
      </trkpt>
      <trkpt lat="44.07514" lon="5.15429">
        <ele>303.2</ele>
        <time>2012-09-15T07:27:06.000Z</time>
      </trkpt>
      <trkpt lat="44.07519" lon="5.15429">
        <ele>304</ele>
        <time>2012-09-15T07:27:08.000Z</time>
      </trkpt>
      <trkpt lat="44.07523" lon="5.15428">
        <ele>304</ele>
        <time>2012-09-15T07:27:09.000Z</time>
      </trkpt>
      <trkpt lat="44.07526" lon="5.15429">
        <ele>304</ele>
        <time>2012-09-15T07:27:10.000Z</time>
      </trkpt>
      <trkpt lat="44.0753" lon="5.15428">
        <ele>304.5</ele>
        <time>2012-09-15T07:27:11.000Z</time>
      </trkpt>
      <trkpt lat="44.07536" lon="5.15428">
        <ele>305.4</ele>
        <time>2012-09-15T07:27:13.000Z</time>
      </trkpt>
      <trkpt lat="44.07539" lon="5.15426">
        <ele>305.1</ele>
        <time>2012-09-15T07:27:14.000Z</time>
      </trkpt>
      <trkpt lat="44.07545" lon="5.15425">
        <ele>305.4</ele>
        <time>2012-09-15T07:27:16.000Z</time>
      </trkpt>
      <trkpt lat="44.07549" lon="5.15424">
        <ele>304.4</ele>
        <time>2012-09-15T07:27:17.000Z</time>
      </trkpt>
      <trkpt lat="44.07552" lon="5.15423">
        <ele>304.3</ele>
        <time>2012-09-15T07:27:18.000Z</time>
      </trkpt>
      <trkpt lat="44.07555" lon="5.15422">
        <ele>303.9</ele>
        <time>2012-09-15T07:27:19.000Z</time>
      </trkpt>
      <trkpt lat="44.0756" lon="5.1542">
        <ele>303.2</ele>
        <time>2012-09-15T07:27:21.000Z</time>
      </trkpt>
      <trkpt lat="44.07563" lon="5.15419">
        <ele>302</ele>
        <time>2012-09-15T07:27:22.000Z</time>
      </trkpt>
      <trkpt lat="44.07567" lon="5.15418">
        <ele>300.6</ele>
        <time>2012-09-15T07:27:23.000Z</time>
      </trkpt>
      <trkpt lat="44.07571" lon="5.15419">
        <ele>299.9</ele>
        <time>2012-09-15T07:27:24.000Z</time>
      </trkpt>
      <trkpt lat="44.07575" lon="5.15418">
        <ele>299.8</ele>
        <time>2012-09-15T07:27:25.000Z</time>
      </trkpt>
      <trkpt lat="44.0758" lon="5.15416">
        <ele>299</ele>
        <time>2012-09-15T07:27:27.000Z</time>
      </trkpt>
      <trkpt lat="44.07582" lon="5.15414">
        <ele>298.8</ele>
        <time>2012-09-15T07:27:28.000Z</time>
      </trkpt>
      <trkpt lat="44.07588" lon="5.15411">
        <ele>298.1</ele>
        <time>2012-09-15T07:27:30.000Z</time>
      </trkpt>
      <trkpt lat="44.07591" lon="5.1541">
        <ele>297.7</ele>
        <time>2012-09-15T07:27:31.000Z</time>
      </trkpt>
      <trkpt lat="44.07595" lon="5.15411">
        <ele>296.6</ele>
        <time>2012-09-15T07:27:32.000Z</time>
      </trkpt>
      <trkpt lat="44.07598" lon="5.1541">
        <ele>295.8</ele>
        <time>2012-09-15T07:27:33.000Z</time>
      </trkpt>
      <trkpt lat="44.07601" lon="5.1541">
        <ele>295.9</ele>
        <time>2012-09-15T07:27:34.000Z</time>
      </trkpt>
      <trkpt lat="44.07604" lon="5.15409">
        <ele>296.3</ele>
        <time>2012-09-15T07:27:35.000Z</time>
      </trkpt>
      <trkpt lat="44.07606" lon="5.15405">
        <ele>296.2</ele>
        <time>2012-09-15T07:27:36.000Z</time>
      </trkpt>
      <trkpt lat="44.0761" lon="5.15403">
        <ele>295.4</ele>
        <time>2012-09-15T07:27:37.000Z</time>
      </trkpt>
      <trkpt lat="44.07613" lon="5.15402">
        <ele>295.4</ele>
        <time>2012-09-15T07:27:38.000Z</time>
      </trkpt>
      <trkpt lat="44.07615" lon="5.15403">
        <ele>295.2</ele>
        <time>2012-09-15T07:27:39.000Z</time>
      </trkpt>
      <trkpt lat="44.07618" lon="5.15405">
        <ele>294.3</ele>
        <time>2012-09-15T07:27:40.000Z</time>
      </trkpt>
      <trkpt lat="44.07621" lon="5.15409">
        <ele>294</ele>
        <time>2012-09-15T07:27:42.000Z</time>
      </trkpt>
      <trkpt lat="44.07623" lon="5.15414">
        <ele>293.7</ele>
        <time>2012-09-15T07:27:44.000Z</time>
      </trkpt>
      <trkpt lat="44.07617" lon="5.15413">
        <ele>293.6</ele>
        <time>2012-09-15T07:27:45.000Z</time>
      </trkpt>
      <trkpt lat="44.07613" lon="5.15415">
        <ele>293.7</ele>
        <time>2012-09-15T07:27:47.000Z</time>
      </trkpt>
      <trkpt lat="44.0761" lon="5.15419">
        <ele>293.2</ele>
        <time>2012-09-15T07:27:49.000Z</time>
      </trkpt>
      <trkpt lat="44.07607" lon="5.15418">
        <ele>293.8</ele>
        <time>2012-09-15T07:27:51.000Z</time>
      </trkpt>
      <trkpt lat="44.07602" lon="5.15423">
        <ele>294</ele>
        <time>2012-09-15T07:27:53.000Z</time>
      </trkpt>
      <trkpt lat="44.076" lon="5.15426">
        <ele>294.8</ele>
        <time>2012-09-15T07:27:54.000Z</time>
      </trkpt>
      <trkpt lat="44.07596" lon="5.1543">
        <ele>295.3</ele>
        <time>2012-09-15T07:27:56.000Z</time>
      </trkpt>
      <trkpt lat="44.07594" lon="5.15432">
        <ele>296.1</ele>
        <time>2012-09-15T07:28:01.000Z</time>
      </trkpt>
      <trkpt lat="44.07592" lon="5.15435">
        <ele>296.9</ele>
        <time>2012-09-15T07:28:05.000Z</time>
      </trkpt>
      <trkpt lat="44.07591" lon="5.1544">
        <ele>297.1</ele>
        <time>2012-09-15T07:28:08.000Z</time>
      </trkpt>
      <trkpt lat="44.07595" lon="5.15441">
        <ele>297.6</ele>
        <time>2012-09-15T07:28:10.000Z</time>
      </trkpt>
      <trkpt lat="44.07597" lon="5.15443">
        <ele>298.3</ele>
        <time>2012-09-15T07:28:12.000Z</time>
      </trkpt>
      <trkpt lat="44.07601" lon="5.15446">
        <ele>298.1</ele>
        <time>2012-09-15T07:28:14.000Z</time>
      </trkpt>
      <trkpt lat="44.07603" lon="5.1545">
        <ele>299</ele>
        <time>2012-09-15T07:28:16.000Z</time>
      </trkpt>
      <trkpt lat="44.07602" lon="5.15454">
        <ele>299.8</ele>
        <time>2012-09-15T07:28:17.000Z</time>
      </trkpt>
      <trkpt lat="44.07602" lon="5.1546">
        <ele>300.5</ele>
        <time>2012-09-15T07:28:19.000Z</time>
      </trkpt>
      <trkpt lat="44.07605" lon="5.15462">
        <ele>301.1</ele>
        <time>2012-09-15T07:28:21.000Z</time>
      </trkpt>
      <trkpt lat="44.0761" lon="5.15465">
        <ele>299.8</ele>
        <time>2012-09-15T07:28:23.000Z</time>
      </trkpt>
      <trkpt lat="44.07614" lon="5.15469">
        <ele>299.9</ele>
        <time>2012-09-15T07:28:25.000Z</time>
      </trkpt>
      <trkpt lat="44.07617" lon="5.15473">
        <ele>302.1</ele>
        <time>2012-09-15T07:28:28.000Z</time>
      </trkpt>
      <trkpt lat="44.07621" lon="5.15477">
        <ele>303</ele>
        <time>2012-09-15T07:28:30.000Z</time>
      </trkpt>
      <trkpt lat="44.07625" lon="5.15478">
        <ele>304.3</ele>
        <time>2012-09-15T07:28:32.000Z</time>
      </trkpt>
      <trkpt lat="44.07629" lon="5.15476">
        <ele>304.7</ele>
        <time>2012-09-15T07:28:34.000Z</time>
      </trkpt>
      <trkpt lat="44.07632" lon="5.15479">
        <ele>304.3</ele>
        <time>2012-09-15T07:28:36.000Z</time>
      </trkpt>
      <trkpt lat="44.07636" lon="5.15481">
        <ele>303.8</ele>
        <time>2012-09-15T07:28:38.000Z</time>
      </trkpt>
      <trkpt lat="44.07638" lon="5.15477">
        <ele>306</ele>
        <time>2012-09-15T07:28:40.000Z</time>
      </trkpt>
      <trkpt lat="44.07641" lon="5.15474">
        <ele>306.2</ele>
        <time>2012-09-15T07:28:42.000Z</time>
      </trkpt>
      <trkpt lat="44.07643" lon="5.15469">
        <ele>307.1</ele>
        <time>2012-09-15T07:28:44.000Z</time>
      </trkpt>
      <trkpt lat="44.07648" lon="5.15466">
        <ele>305.8</ele>
        <time>2012-09-15T07:28:46.000Z</time>
      </trkpt>
      <trkpt lat="44.0765" lon="5.15465">
        <ele>305.6</ele>
        <time>2012-09-15T07:28:47.000Z</time>
      </trkpt>
      <trkpt lat="44.07655" lon="5.15464">
        <ele>306.8</ele>
        <time>2012-09-15T07:28:49.000Z</time>
      </trkpt>
      <trkpt lat="44.0766" lon="5.15462">
        <ele>307.4</ele>
        <time>2012-09-15T07:28:51.000Z</time>
      </trkpt>
      <trkpt lat="44.07664" lon="5.15457">
        <ele>307.4</ele>
        <time>2012-09-15T07:28:53.000Z</time>
      </trkpt>
      <trkpt lat="44.07666" lon="5.15454">
        <ele>307.6</ele>
        <time>2012-09-15T07:28:54.000Z</time>
      </trkpt>
      <trkpt lat="44.07668" lon="5.15451">
        <ele>307.8</ele>
        <time>2012-09-15T07:28:55.000Z</time>
      </trkpt>
      <trkpt lat="44.07671" lon="5.15449">
        <ele>307.9</ele>
        <time>2012-09-15T07:28:57.000Z</time>
      </trkpt>
      <trkpt lat="44.07675" lon="5.15448">
        <ele>307.1</ele>
        <time>2012-09-15T07:28:59.000Z</time>
      </trkpt>
      <trkpt lat="44.07679" lon="5.15445">
        <ele>306.7</ele>
        <time>2012-09-15T07:29:01.000Z</time>
      </trkpt>
      <trkpt lat="44.07682" lon="5.15445">
        <ele>305.4</ele>
        <time>2012-09-15T07:29:04.000Z</time>
      </trkpt>
      <trkpt lat="44.07686" lon="5.15444">
        <ele>302.9</ele>
        <time>2012-09-15T07:29:07.000Z</time>
      </trkpt>
      <trkpt lat="44.07688" lon="5.15441">
        <ele>301</ele>
        <time>2012-09-15T07:29:09.000Z</time>
      </trkpt>
      <trkpt lat="44.0769" lon="5.15437">
        <ele>300.2</ele>
        <time>2012-09-15T07:29:11.000Z</time>
      </trkpt>
      <trkpt lat="44.07686" lon="5.15427">
        <ele>299.1</ele>
        <time>2012-09-15T07:29:13.000Z</time>
      </trkpt>
      <trkpt lat="44.07684" lon="5.15419">
        <ele>298.4</ele>
        <time>2012-09-15T07:29:15.000Z</time>
      </trkpt>
      <trkpt lat="44.07683" lon="5.15415">
        <ele>298.1</ele>
        <time>2012-09-15T07:29:16.000Z</time>
      </trkpt>
      <trkpt lat="44.07688" lon="5.15417">
        <ele>297.9</ele>
        <time>2012-09-15T07:29:17.000Z</time>
      </trkpt>
      <trkpt lat="44.07693" lon="5.15416">
        <ele>296.8</ele>
        <time>2012-09-15T07:29:19.000Z</time>
      </trkpt>
      <trkpt lat="44.07696" lon="5.15418">
        <ele>296.6</ele>
        <time>2012-09-15T07:29:21.000Z</time>
      </trkpt>
      <trkpt lat="44.077" lon="5.15418">
        <ele>296.9</ele>
        <time>2012-09-15T07:29:24.000Z</time>
      </trkpt>
      <trkpt lat="44.07703" lon="5.15417">
        <ele>293.4</ele>
        <time>2012-09-15T07:29:52.000Z</time>
      </trkpt>
      <trkpt lat="44.07704" lon="5.15421">
        <ele>293.4</ele>
        <time>2012-09-15T07:30:45.000Z</time>
      </trkpt>
      <trkpt lat="44.07708" lon="5.15422">
        <ele>291</ele>
        <time>2012-09-15T07:31:07.000Z</time>
      </trkpt>
      <trkpt lat="44.07712" lon="5.15423">
        <ele>291.7</ele>
        <time>2012-09-15T07:31:09.000Z</time>
      </trkpt>
      <trkpt lat="44.07716" lon="5.15424">
        <ele>292.1</ele>
        <time>2012-09-15T07:31:11.000Z</time>
      </trkpt>
      <trkpt lat="44.07721" lon="5.15425">
        <ele>292.3</ele>
        <time>2012-09-15T07:31:13.000Z</time>
      </trkpt>
      <trkpt lat="44.07723" lon="5.15428">
        <ele>292.8</ele>
        <time>2012-09-15T07:31:14.000Z</time>
      </trkpt>
      <trkpt lat="44.07726" lon="5.15432">
        <ele>293.7</ele>
        <time>2012-09-15T07:31:16.000Z</time>
      </trkpt>
      <trkpt lat="44.07729" lon="5.15435">
        <ele>293.9</ele>
        <time>2012-09-15T07:31:18.000Z</time>
      </trkpt>
      <trkpt lat="44.07732" lon="5.15437">
        <ele>293.3</ele>
        <time>2012-09-15T07:31:19.000Z</time>
      </trkpt>
      <trkpt lat="44.07736" lon="5.1544">
        <ele>292.7</ele>
        <time>2012-09-15T07:31:21.000Z</time>
      </trkpt>
      <trkpt lat="44.07741" lon="5.15443">
        <ele>292.2</ele>
        <time>2012-09-15T07:31:23.000Z</time>
      </trkpt>
      <trkpt lat="44.07744" lon="5.15444">
        <ele>291.9</ele>
        <time>2012-09-15T07:31:24.000Z</time>
      </trkpt>
      <trkpt lat="44.07747" lon="5.15446">
        <ele>291.5</ele>
        <time>2012-09-15T07:31:25.000Z</time>
      </trkpt>
      <trkpt lat="44.07749" lon="5.15447">
        <ele>291.5</ele>
        <time>2012-09-15T07:31:26.000Z</time>
      </trkpt>
      <trkpt lat="44.07753" lon="5.15449">
        <ele>290.9</ele>
        <time>2012-09-15T07:31:27.000Z</time>
      </trkpt>
      <trkpt lat="44.07756" lon="5.1545">
        <ele>290.5</ele>
        <time>2012-09-15T07:31:28.000Z</time>
      </trkpt>
      <trkpt lat="44.07759" lon="5.15452">
        <ele>290.4</ele>
        <time>2012-09-15T07:31:29.000Z</time>
      </trkpt>
      <trkpt lat="44.07761" lon="5.15454">
        <ele>290.5</ele>
        <time>2012-09-15T07:31:30.000Z</time>
      </trkpt>
      <trkpt lat="44.07764" lon="5.15456">
        <ele>290.6</ele>
        <time>2012-09-15T07:31:31.000Z</time>
      </trkpt>
      <trkpt lat="44.07767" lon="5.15458">
        <ele>290.7</ele>
        <time>2012-09-15T07:31:32.000Z</time>
      </trkpt>
      <trkpt lat="44.0777" lon="5.15459">
        <ele>290.5</ele>
        <time>2012-09-15T07:31:33.000Z</time>
      </trkpt>
      <trkpt lat="44.07772" lon="5.15461">
        <ele>290.3</ele>
        <time>2012-09-15T07:31:34.000Z</time>
      </trkpt>
      <trkpt lat="44.07774" lon="5.15463">
        <ele>290.1</ele>
        <time>2012-09-15T07:31:35.000Z</time>
      </trkpt>
      <trkpt lat="44.07778" lon="5.15466">
        <ele>290.3</ele>
        <time>2012-09-15T07:31:37.000Z</time>
      </trkpt>
      <trkpt lat="44.07781" lon="5.15466">
        <ele>290.5</ele>
        <time>2012-09-15T07:31:39.000Z</time>
      </trkpt>
      <trkpt lat="44.07782" lon="5.15463">
        <ele>289.8</ele>
        <time>2012-09-15T07:31:41.000Z</time>
      </trkpt>
      <trkpt lat="44.07781" lon="5.15454">
        <ele>288.7</ele>
        <time>2012-09-15T07:31:43.000Z</time>
      </trkpt>
      <trkpt lat="44.07779" lon="5.15448">
        <ele>287.9</ele>
        <time>2012-09-15T07:31:44.000Z</time>
      </trkpt>
      <trkpt lat="44.07778" lon="5.15441">
        <ele>288</ele>
        <time>2012-09-15T07:31:45.000Z</time>
      </trkpt>
      <trkpt lat="44.07775" lon="5.15435">
        <ele>288</ele>
        <time>2012-09-15T07:31:46.000Z</time>
      </trkpt>
      <trkpt lat="44.07773" lon="5.15428">
        <ele>287.9</ele>
        <time>2012-09-15T07:31:47.000Z</time>
      </trkpt>
      <trkpt lat="44.07771" lon="5.15422">
        <ele>288</ele>
        <time>2012-09-15T07:31:48.000Z</time>
      </trkpt>
      <trkpt lat="44.07769" lon="5.15415">
        <ele>288</ele>
        <time>2012-09-15T07:31:49.000Z</time>
      </trkpt>
      <trkpt lat="44.07768" lon="5.15408">
        <ele>288.1</ele>
        <time>2012-09-15T07:31:50.000Z</time>
      </trkpt>
      <trkpt lat="44.07767" lon="5.15401">
        <ele>287.9</ele>
        <time>2012-09-15T07:31:51.000Z</time>
      </trkpt>
      <trkpt lat="44.07766" lon="5.15393">
        <ele>287.7</ele>
        <time>2012-09-15T07:31:52.000Z</time>
      </trkpt>
      <trkpt lat="44.07765" lon="5.15386">
        <ele>287.6</ele>
        <time>2012-09-15T07:31:53.000Z</time>
      </trkpt>
      <trkpt lat="44.07764" lon="5.15379">
        <ele>287.3</ele>
        <time>2012-09-15T07:31:54.000Z</time>
      </trkpt>
      <trkpt lat="44.07764" lon="5.15372">
        <ele>287.1</ele>
        <time>2012-09-15T07:31:55.000Z</time>
      </trkpt>
      <trkpt lat="44.07762" lon="5.15365">
        <ele>286.9</ele>
        <time>2012-09-15T07:31:56.000Z</time>
      </trkpt>
      <trkpt lat="44.07762" lon="5.1536">
        <ele>286.9</ele>
        <time>2012-09-15T07:31:57.000Z</time>
      </trkpt>
      <trkpt lat="44.07763" lon="5.15355">
        <ele>286.7</ele>
        <time>2012-09-15T07:31:58.000Z</time>
      </trkpt>
      <trkpt lat="44.07764" lon="5.15351">
        <ele>286.6</ele>
        <time>2012-09-15T07:31:59.000Z</time>
      </trkpt>
      <trkpt lat="44.07771" lon="5.15351">
        <ele>286.2</ele>
        <time>2012-09-15T07:32:01.000Z</time>
      </trkpt>
      <trkpt lat="44.07774" lon="5.15351">
        <ele>286.1</ele>
        <time>2012-09-15T07:32:02.000Z</time>
      </trkpt>
      <trkpt lat="44.07778" lon="5.15352">
        <ele>286</ele>
        <time>2012-09-15T07:32:03.000Z</time>
      </trkpt>
      <trkpt lat="44.07781" lon="5.15353">
        <ele>286</ele>
        <time>2012-09-15T07:32:04.000Z</time>
      </trkpt>
      <trkpt lat="44.07785" lon="5.15353">
        <ele>286</ele>
        <time>2012-09-15T07:32:05.000Z</time>
      </trkpt>
      <trkpt lat="44.07791" lon="5.15353">
        <ele>285</ele>
        <time>2012-09-15T07:32:06.000Z</time>
      </trkpt>
      <trkpt lat="44.07796" lon="5.15353">
        <ele>284.8</ele>
        <time>2012-09-15T07:32:07.000Z</time>
      </trkpt>
      <trkpt lat="44.07801" lon="5.15354">
        <ele>285.1</ele>
        <time>2012-09-15T07:32:08.000Z</time>
      </trkpt>
      <trkpt lat="44.07806" lon="5.15354">
        <ele>284.6</ele>
        <time>2012-09-15T07:32:09.000Z</time>
      </trkpt>
      <trkpt lat="44.07811" lon="5.15355">
        <ele>284.4</ele>
        <time>2012-09-15T07:32:10.000Z</time>
      </trkpt>
      <trkpt lat="44.07816" lon="5.15355">
        <ele>284.4</ele>
        <time>2012-09-15T07:32:11.000Z</time>
      </trkpt>
      <trkpt lat="44.07821" lon="5.15355">
        <ele>283.4</ele>
        <time>2012-09-15T07:32:12.000Z</time>
      </trkpt>
      <trkpt lat="44.07826" lon="5.15355">
        <ele>283</ele>
        <time>2012-09-15T07:32:13.000Z</time>
      </trkpt>
      <trkpt lat="44.07832" lon="5.15355">
        <ele>282.9</ele>
        <time>2012-09-15T07:32:14.000Z</time>
      </trkpt>
      <trkpt lat="44.07837" lon="5.15356">
        <ele>282.8</ele>
        <time>2012-09-15T07:32:15.000Z</time>
      </trkpt>
      <trkpt lat="44.07842" lon="5.15356">
        <ele>282.5</ele>
        <time>2012-09-15T07:32:16.000Z</time>
      </trkpt>
      <trkpt lat="44.07846" lon="5.15357">
        <ele>282.4</ele>
        <time>2012-09-15T07:32:17.000Z</time>
      </trkpt>
      <trkpt lat="44.0785" lon="5.15357">
        <ele>282.3</ele>
        <time>2012-09-15T07:32:18.000Z</time>
      </trkpt>
      <trkpt lat="44.07855" lon="5.15358">
        <ele>282.2</ele>
        <time>2012-09-15T07:32:19.000Z</time>
      </trkpt>
      <trkpt lat="44.0786" lon="5.15358">
        <ele>282.1</ele>
        <time>2012-09-15T07:32:20.000Z</time>
      </trkpt>
      <trkpt lat="44.07864" lon="5.15359">
        <ele>282</ele>
        <time>2012-09-15T07:32:21.000Z</time>
      </trkpt>
      <trkpt lat="44.07867" lon="5.1536">
        <ele>281.9</ele>
        <time>2012-09-15T07:32:22.000Z</time>
      </trkpt>
      <trkpt lat="44.07871" lon="5.15358">
        <ele>281.7</ele>
        <time>2012-09-15T07:32:24.000Z</time>
      </trkpt>
      <trkpt lat="44.07872" lon="5.15354">
        <ele>281.7</ele>
        <time>2012-09-15T07:32:25.000Z</time>
      </trkpt>
      <trkpt lat="44.07872" lon="5.1535">
        <ele>282</ele>
        <time>2012-09-15T07:32:26.000Z</time>
      </trkpt>
      <trkpt lat="44.07872" lon="5.15344">
        <ele>281.8</ele>
        <time>2012-09-15T07:32:27.000Z</time>
      </trkpt>
      <trkpt lat="44.07873" lon="5.15339">
        <ele>281.6</ele>
        <time>2012-09-15T07:32:28.000Z</time>
      </trkpt>
      <trkpt lat="44.07873" lon="5.15334">
        <ele>281.5</ele>
        <time>2012-09-15T07:32:29.000Z</time>
      </trkpt>
      <trkpt lat="44.07874" lon="5.15329">
        <ele>281.4</ele>
        <time>2012-09-15T07:32:30.000Z</time>
      </trkpt>
      <trkpt lat="44.07876" lon="5.15325">
        <ele>281.4</ele>
        <time>2012-09-15T07:32:31.000Z</time>
      </trkpt>
      <trkpt lat="44.0788" lon="5.15325">
        <ele>281.4</ele>
        <time>2012-09-15T07:32:32.000Z</time>
      </trkpt>
      <trkpt lat="44.07884" lon="5.15325">
        <ele>281.6</ele>
        <time>2012-09-15T07:32:33.000Z</time>
      </trkpt>
      <trkpt lat="44.07888" lon="5.15324">
        <ele>281.5</ele>
        <time>2012-09-15T07:32:34.000Z</time>
      </trkpt>
      <trkpt lat="44.07892" lon="5.15324">
        <ele>281.5</ele>
        <time>2012-09-15T07:32:35.000Z</time>
      </trkpt>
      <trkpt lat="44.07895" lon="5.15324">
        <ele>281.7</ele>
        <time>2012-09-15T07:32:36.000Z</time>
      </trkpt>
      <trkpt lat="44.07899" lon="5.15324">
        <ele>281.4</ele>
        <time>2012-09-15T07:32:37.000Z</time>
      </trkpt>
      <trkpt lat="44.07902" lon="5.15324">
        <ele>281.3</ele>
        <time>2012-09-15T07:32:38.000Z</time>
      </trkpt>
      <trkpt lat="44.07906" lon="5.15324">
        <ele>281.4</ele>
        <time>2012-09-15T07:32:39.000Z</time>
      </trkpt>
      <trkpt lat="44.0791" lon="5.15324">
        <ele>281.5</ele>
        <time>2012-09-15T07:32:40.000Z</time>
      </trkpt>
      <trkpt lat="44.07913" lon="5.15324">
        <ele>281.4</ele>
        <time>2012-09-15T07:32:41.000Z</time>
      </trkpt>
      <trkpt lat="44.07916" lon="5.15324">
        <ele>281.6</ele>
        <time>2012-09-15T07:32:42.000Z</time>
      </trkpt>
      <trkpt lat="44.0792" lon="5.15325">
        <ele>281.7</ele>
        <time>2012-09-15T07:32:43.000Z</time>
      </trkpt>
      <trkpt lat="44.07922" lon="5.15324">
        <ele>281.9</ele>
        <time>2012-09-15T07:32:44.000Z</time>
      </trkpt>
      <trkpt lat="44.07925" lon="5.15324">
        <ele>282</ele>
        <time>2012-09-15T07:32:45.000Z</time>
      </trkpt>
      <trkpt lat="44.07928" lon="5.15324">
        <ele>282.1</ele>
        <time>2012-09-15T07:32:46.000Z</time>
      </trkpt>
      <trkpt lat="44.07931" lon="5.15324">
        <ele>282.2</ele>
        <time>2012-09-15T07:32:47.000Z</time>
      </trkpt>
      <trkpt lat="44.07935" lon="5.15324">
        <ele>282.4</ele>
        <time>2012-09-15T07:32:49.000Z</time>
      </trkpt>
      <trkpt lat="44.0794" lon="5.15322">
        <ele>282.7</ele>
        <time>2012-09-15T07:32:51.000Z</time>
      </trkpt>
      <trkpt lat="44.07944" lon="5.15321">
        <ele>282.9</ele>
        <time>2012-09-15T07:32:53.000Z</time>
      </trkpt>
      <trkpt lat="44.07947" lon="5.15322">
        <ele>283.2</ele>
        <time>2012-09-15T07:32:55.000Z</time>
      </trkpt>
      <trkpt lat="44.0795" lon="5.15324">
        <ele>283.5</ele>
        <time>2012-09-15T07:32:57.000Z</time>
      </trkpt>
      <trkpt lat="44.07954" lon="5.15331">
        <ele>283.3</ele>
        <time>2012-09-15T07:33:00.000Z</time>
      </trkpt>
      <trkpt lat="44.07954" lon="5.15336">
        <ele>284.7</ele>
        <time>2012-09-15T07:33:02.000Z</time>
      </trkpt>
      <trkpt lat="44.07956" lon="5.1534">
        <ele>284.8</ele>
        <time>2012-09-15T07:33:03.000Z</time>
      </trkpt>
      <trkpt lat="44.07958" lon="5.15348">
        <ele>284.1</ele>
        <time>2012-09-15T07:33:05.000Z</time>
      </trkpt>
      <trkpt lat="44.07959" lon="5.15351">
        <ele>284.6</ele>
        <time>2012-09-15T07:33:06.000Z</time>
      </trkpt>
      <trkpt lat="44.0796" lon="5.15356">
        <ele>284.6</ele>
        <time>2012-09-15T07:33:07.000Z</time>
      </trkpt>
      <trkpt lat="44.07961" lon="5.1536">
        <ele>284.7</ele>
        <time>2012-09-15T07:33:08.000Z</time>
      </trkpt>
      <trkpt lat="44.07962" lon="5.15365">
        <ele>284.6</ele>
        <time>2012-09-15T07:33:09.000Z</time>
      </trkpt>
      <trkpt lat="44.07964" lon="5.15369">
        <ele>284.8</ele>
        <time>2012-09-15T07:33:10.000Z</time>
      </trkpt>
      <trkpt lat="44.07964" lon="5.15377">
        <ele>286.4</ele>
        <time>2012-09-15T07:33:12.000Z</time>
      </trkpt>
      <trkpt lat="44.07965" lon="5.15381">
        <ele>287.1</ele>
        <time>2012-09-15T07:33:13.000Z</time>
      </trkpt>
      <trkpt lat="44.07965" lon="5.15385">
        <ele>287.5</ele>
        <time>2012-09-15T07:33:14.000Z</time>
      </trkpt>
      <trkpt lat="44.07966" lon="5.15389">
        <ele>287.8</ele>
        <time>2012-09-15T07:33:15.000Z</time>
      </trkpt>
      <trkpt lat="44.07968" lon="5.15392">
        <ele>287.4</ele>
        <time>2012-09-15T07:33:16.000Z</time>
      </trkpt>
      <trkpt lat="44.07969" lon="5.15397">
        <ele>289.4</ele>
        <time>2012-09-15T07:33:18.000Z</time>
      </trkpt>
      <trkpt lat="44.07972" lon="5.15403">
        <ele>289.1</ele>
        <time>2012-09-15T07:33:20.000Z</time>
      </trkpt>
      <trkpt lat="44.07974" lon="5.15409">
        <ele>291.1</ele>
        <time>2012-09-15T07:33:22.000Z</time>
      </trkpt>
      <trkpt lat="44.07975" lon="5.15413">
        <ele>291</ele>
        <time>2012-09-15T07:33:23.000Z</time>
      </trkpt>
      <trkpt lat="44.07975" lon="5.15416">
        <ele>291.3</ele>
        <time>2012-09-15T07:33:24.000Z</time>
      </trkpt>
      <trkpt lat="44.07976" lon="5.1542">
        <ele>291.4</ele>
        <time>2012-09-15T07:33:25.000Z</time>
      </trkpt>
      <trkpt lat="44.07976" lon="5.15426">
        <ele>291.5</ele>
        <time>2012-09-15T07:33:26.000Z</time>
      </trkpt>
      <trkpt lat="44.07977" lon="5.15431">
        <ele>291.7</ele>
        <time>2012-09-15T07:33:27.000Z</time>
      </trkpt>
      <trkpt lat="44.07977" lon="5.15436">
        <ele>291.8</ele>
        <time>2012-09-15T07:33:28.000Z</time>
      </trkpt>
      <trkpt lat="44.07978" lon="5.15441">
        <ele>291.9</ele>
        <time>2012-09-15T07:33:29.000Z</time>
      </trkpt>
      <trkpt lat="44.07979" lon="5.15446">
        <ele>291.9</ele>
        <time>2012-09-15T07:33:30.000Z</time>
      </trkpt>
      <trkpt lat="44.0798" lon="5.15452">
        <ele>291.9</ele>
        <time>2012-09-15T07:33:31.000Z</time>
      </trkpt>
      <trkpt lat="44.0798" lon="5.15458">
        <ele>292.3</ele>
        <time>2012-09-15T07:33:32.000Z</time>
      </trkpt>
      <trkpt lat="44.07981" lon="5.15462">
        <ele>292.3</ele>
        <time>2012-09-15T07:33:33.000Z</time>
      </trkpt>
      <trkpt lat="44.0798" lon="5.15467">
        <ele>292</ele>
        <time>2012-09-15T07:33:34.000Z</time>
      </trkpt>
      <trkpt lat="44.07979" lon="5.15472">
        <ele>292</ele>
        <time>2012-09-15T07:33:35.000Z</time>
      </trkpt>
      <trkpt lat="44.07975" lon="5.15474">
        <ele>291.9</ele>
        <time>2012-09-15T07:33:36.000Z</time>
      </trkpt>
      <trkpt lat="44.07974" lon="5.15478">
        <ele>290.9</ele>
        <time>2012-09-15T07:33:37.000Z</time>
      </trkpt>
      <trkpt lat="44.07973" lon="5.15482">
        <ele>290.5</ele>
        <time>2012-09-15T07:33:38.000Z</time>
      </trkpt>
      <trkpt lat="44.07972" lon="5.15488">
        <ele>289.9</ele>
        <time>2012-09-15T07:33:40.000Z</time>
      </trkpt>
      <trkpt lat="44.07971" lon="5.15492">
        <ele>289</ele>
        <time>2012-09-15T07:33:51.000Z</time>
      </trkpt>
      <trkpt lat="44.07973" lon="5.15496">
        <ele>288.5</ele>
        <time>2012-09-15T07:34:07.000Z</time>
      </trkpt>
      <trkpt lat="44.07976" lon="5.15496">
        <ele>288.4</ele>
        <time>2012-09-15T07:34:10.000Z</time>
      </trkpt>
      <trkpt lat="44.07981" lon="5.15497">
        <ele>288.8</ele>
        <time>2012-09-15T07:34:12.000Z</time>
      </trkpt>
      <trkpt lat="44.07986" lon="5.15495">
        <ele>290.6</ele>
        <time>2012-09-15T07:34:14.000Z</time>
      </trkpt>
      <trkpt lat="44.07992" lon="5.15493">
        <ele>290.7</ele>
        <time>2012-09-15T07:34:16.000Z</time>
      </trkpt>
      <trkpt lat="44.07994" lon="5.15492">
        <ele>290.7</ele>
        <time>2012-09-15T07:34:17.000Z</time>
      </trkpt>
      <trkpt lat="44.07997" lon="5.1549">
        <ele>290.8</ele>
        <time>2012-09-15T07:34:18.000Z</time>
      </trkpt>
      <trkpt lat="44.08002" lon="5.15487">
        <ele>290.9</ele>
        <time>2012-09-15T07:34:20.000Z</time>
      </trkpt>
      <trkpt lat="44.08006" lon="5.15483">
        <ele>289</ele>
        <time>2012-09-15T07:34:21.000Z</time>
      </trkpt>
      <trkpt lat="44.0801" lon="5.1548">
        <ele>288.6</ele>
        <time>2012-09-15T07:34:22.000Z</time>
      </trkpt>
      <trkpt lat="44.08014" lon="5.15478">
        <ele>288.3</ele>
        <time>2012-09-15T07:34:23.000Z</time>
      </trkpt>
      <trkpt lat="44.08018" lon="5.15479">
        <ele>288.4</ele>
        <time>2012-09-15T07:34:24.000Z</time>
      </trkpt>
      <trkpt lat="44.08022" lon="5.15479">
        <ele>288.7</ele>
        <time>2012-09-15T07:34:25.000Z</time>
      </trkpt>
      <trkpt lat="44.08026" lon="5.15477">
        <ele>288.6</ele>
        <time>2012-09-15T07:34:26.000Z</time>
      </trkpt>
      <trkpt lat="44.08029" lon="5.15476">
        <ele>288.8</ele>
        <time>2012-09-15T07:34:27.000Z</time>
      </trkpt>
      <trkpt lat="44.08033" lon="5.15475">
        <ele>289.1</ele>
        <time>2012-09-15T07:34:28.000Z</time>
      </trkpt>
      <trkpt lat="44.08036" lon="5.15475">
        <ele>289.1</ele>
        <time>2012-09-15T07:34:29.000Z</time>
      </trkpt>
      <trkpt lat="44.0804" lon="5.15474">
        <ele>289</ele>
        <time>2012-09-15T07:34:30.000Z</time>
      </trkpt>
      <trkpt lat="44.08043" lon="5.15473">
        <ele>288.9</ele>
        <time>2012-09-15T07:34:31.000Z</time>
      </trkpt>
      <trkpt lat="44.08046" lon="5.15471">
        <ele>288.9</ele>
        <time>2012-09-15T07:34:32.000Z</time>
      </trkpt>
      <trkpt lat="44.08047" lon="5.15464">
        <ele>289.4</ele>
        <time>2012-09-15T07:34:33.000Z</time>
      </trkpt>
      <trkpt lat="44.0805" lon="5.15461">
        <ele>289.5</ele>
        <time>2012-09-15T07:34:34.000Z</time>
      </trkpt>
      <trkpt lat="44.08049" lon="5.15457">
        <ele>292</ele>
        <time>2012-09-15T07:34:35.000Z</time>
      </trkpt>
      <trkpt lat="44.0805" lon="5.15452">
        <ele>293</ele>
        <time>2012-09-15T07:34:36.000Z</time>
      </trkpt>
      <trkpt lat="44.08051" lon="5.15448">
        <ele>293.3</ele>
        <time>2012-09-15T07:34:37.000Z</time>
      </trkpt>
      <trkpt lat="44.08053" lon="5.15442">
        <ele>294.4</ele>
        <time>2012-09-15T07:34:39.000Z</time>
      </trkpt>
      <trkpt lat="44.08056" lon="5.15436">
        <ele>295.9</ele>
        <time>2012-09-15T07:34:40.000Z</time>
      </trkpt>
      <trkpt lat="44.08058" lon="5.15431">
        <ele>296.6</ele>
        <time>2012-09-15T07:34:41.000Z</time>
      </trkpt>
      <trkpt lat="44.0806" lon="5.15427">
        <ele>297.5</ele>
        <time>2012-09-15T07:34:42.000Z</time>
      </trkpt>
      <trkpt lat="44.08062" lon="5.15423">
        <ele>297.8</ele>
        <time>2012-09-15T07:34:43.000Z</time>
      </trkpt>
      <trkpt lat="44.08065" lon="5.15419">
        <ele>298.2</ele>
        <time>2012-09-15T07:34:44.000Z</time>
      </trkpt>
      <trkpt lat="44.08067" lon="5.15416">
        <ele>298.4</ele>
        <time>2012-09-15T07:34:45.000Z</time>
      </trkpt>
      <trkpt lat="44.08069" lon="5.15408">
        <ele>298.6</ele>
        <time>2012-09-15T07:34:47.000Z</time>
      </trkpt>
      <trkpt lat="44.08071" lon="5.15404">
        <ele>298.7</ele>
        <time>2012-09-15T07:34:48.000Z</time>
      </trkpt>
      <trkpt lat="44.08072" lon="5.15398">
        <ele>298.8</ele>
        <time>2012-09-15T07:34:49.000Z</time>
      </trkpt>
      <trkpt lat="44.08074" lon="5.15394">
        <ele>299.1</ele>
        <time>2012-09-15T07:34:50.000Z</time>
      </trkpt>
      <trkpt lat="44.08075" lon="5.15388">
        <ele>298.9</ele>
        <time>2012-09-15T07:34:51.000Z</time>
      </trkpt>
      <trkpt lat="44.08076" lon="5.15382">
        <ele>298.9</ele>
        <time>2012-09-15T07:34:52.000Z</time>
      </trkpt>
      <trkpt lat="44.08078" lon="5.15378">
        <ele>298.5</ele>
        <time>2012-09-15T07:34:53.000Z</time>
      </trkpt>
      <trkpt lat="44.08078" lon="5.15372">
        <ele>298.5</ele>
        <time>2012-09-15T07:34:54.000Z</time>
      </trkpt>
      <trkpt lat="44.08076" lon="5.15367">
        <ele>298.6</ele>
        <time>2012-09-15T07:34:55.000Z</time>
      </trkpt>
      <trkpt lat="44.08076" lon="5.15362">
        <ele>298.4</ele>
        <time>2012-09-15T07:34:56.000Z</time>
      </trkpt>
      <trkpt lat="44.08072" lon="5.15356">
        <ele>299.4</ele>
        <time>2012-09-15T07:34:58.000Z</time>
      </trkpt>
      <trkpt lat="44.08076" lon="5.15353">
        <ele>297.6</ele>
        <time>2012-09-15T07:34:59.000Z</time>
      </trkpt>
      <trkpt lat="44.08078" lon="5.15348">
        <ele>296.4</ele>
        <time>2012-09-15T07:35:00.000Z</time>
      </trkpt>
      <trkpt lat="44.08082" lon="5.15347">
        <ele>297.2</ele>
        <time>2012-09-15T07:35:01.000Z</time>
      </trkpt>
      <trkpt lat="44.08085" lon="5.15345">
        <ele>297.5</ele>
        <time>2012-09-15T07:35:04.000Z</time>
      </trkpt>
      <trkpt lat="44.08089" lon="5.1535">
        <ele>294.2</ele>
        <time>2012-09-15T07:35:06.000Z</time>
      </trkpt>
      <trkpt lat="44.0809" lon="5.15355">
        <ele>293.9</ele>
        <time>2012-09-15T07:35:08.000Z</time>
      </trkpt>
      <trkpt lat="44.08089" lon="5.15363">
        <ele>296.4</ele>
        <time>2012-09-15T07:35:11.000Z</time>
      </trkpt>
      <trkpt lat="44.0809" lon="5.15367">
        <ele>296.8</ele>
        <time>2012-09-15T07:35:12.000Z</time>
      </trkpt>
      <trkpt lat="44.08089" lon="5.15374">
        <ele>297.2</ele>
        <time>2012-09-15T07:35:14.000Z</time>
      </trkpt>
      <trkpt lat="44.0809" lon="5.15379">
        <ele>297.1</ele>
        <time>2012-09-15T07:35:16.000Z</time>
      </trkpt>
      <trkpt lat="44.08091" lon="5.15386">
        <ele>298.2</ele>
        <time>2012-09-15T07:35:18.000Z</time>
      </trkpt>
      <trkpt lat="44.0809" lon="5.15393">
        <ele>298.7</ele>
        <time>2012-09-15T07:35:20.000Z</time>
      </trkpt>
      <trkpt lat="44.08089" lon="5.15397">
        <ele>298.8</ele>
        <time>2012-09-15T07:35:21.000Z</time>
      </trkpt>
      <trkpt lat="44.08088" lon="5.15404">
        <ele>298.3</ele>
        <time>2012-09-15T07:35:23.000Z</time>
      </trkpt>
      <trkpt lat="44.08086" lon="5.15412">
        <ele>298</ele>
        <time>2012-09-15T07:35:25.000Z</time>
      </trkpt>
      <trkpt lat="44.08085" lon="5.15415">
        <ele>298.1</ele>
        <time>2012-09-15T07:35:26.000Z</time>
      </trkpt>
      <trkpt lat="44.08083" lon="5.15421">
        <ele>297.6</ele>
        <time>2012-09-15T07:35:28.000Z</time>
      </trkpt>
      <trkpt lat="44.08079" lon="5.15428">
        <ele>297</ele>
        <time>2012-09-15T07:35:30.000Z</time>
      </trkpt>
      <trkpt lat="44.08078" lon="5.15431">
        <ele>296.4</ele>
        <time>2012-09-15T07:35:31.000Z</time>
      </trkpt>
      <trkpt lat="44.08075" lon="5.15436">
        <ele>296.8</ele>
        <time>2012-09-15T07:35:33.000Z</time>
      </trkpt>
      <trkpt lat="44.08072" lon="5.15438">
        <ele>296.4</ele>
        <time>2012-09-15T07:35:36.000Z</time>
      </trkpt>
      <trkpt lat="44.08074" lon="5.15443">
        <ele>293.5</ele>
        <time>2012-09-15T07:35:42.000Z</time>
      </trkpt>
      <trkpt lat="44.08076" lon="5.15447">
        <ele>292.6</ele>
        <time>2012-09-15T07:35:44.000Z</time>
      </trkpt>
      <trkpt lat="44.08077" lon="5.15452">
        <ele>292.2</ele>
        <time>2012-09-15T07:35:47.000Z</time>
      </trkpt>
      <trkpt lat="44.08076" lon="5.15457">
        <ele>293.3</ele>
        <time>2012-09-15T07:35:49.000Z</time>
      </trkpt>
      <trkpt lat="44.08075" lon="5.1546">
        <ele>294.5</ele>
        <time>2012-09-15T07:35:51.000Z</time>
      </trkpt>
      <trkpt lat="44.08076" lon="5.15465">
        <ele>295</ele>
        <time>2012-09-15T07:35:55.000Z</time>
      </trkpt>
      <trkpt lat="44.08077" lon="5.15469">
        <ele>294.7</ele>
        <time>2012-09-15T07:35:57.000Z</time>
      </trkpt>
      <trkpt lat="44.08073" lon="5.15473">
        <ele>294</ele>
        <time>2012-09-15T07:35:59.000Z</time>
      </trkpt>
      <trkpt lat="44.0807" lon="5.15478">
        <ele>293.5</ele>
        <time>2012-09-15T07:36:01.000Z</time>
      </trkpt>
      <trkpt lat="44.08068" lon="5.15484">
        <ele>293.4</ele>
        <time>2012-09-15T07:36:03.000Z</time>
      </trkpt>
      <trkpt lat="44.08067" lon="5.15489">
        <ele>293.8</ele>
        <time>2012-09-15T07:36:05.000Z</time>
      </trkpt>
      <trkpt lat="44.0807" lon="5.15494">
        <ele>294.8</ele>
        <time>2012-09-15T07:36:07.000Z</time>
      </trkpt>
      <trkpt lat="44.0807" lon="5.15499">
        <ele>295.8</ele>
        <time>2012-09-15T07:36:09.000Z</time>
      </trkpt>
      <trkpt lat="44.08068" lon="5.15501">
        <ele>295.5</ele>
        <time>2012-09-15T07:36:11.000Z</time>
      </trkpt>
      <trkpt lat="44.08065" lon="5.15505">
        <ele>295.3</ele>
        <time>2012-09-15T07:36:13.000Z</time>
      </trkpt>
      <trkpt lat="44.08065" lon="5.1551">
        <ele>295.9</ele>
        <time>2012-09-15T07:36:15.000Z</time>
      </trkpt>
      <trkpt lat="44.08061" lon="5.15509">
        <ele>295.7</ele>
        <time>2012-09-15T07:36:17.000Z</time>
      </trkpt>
      <trkpt lat="44.08058" lon="5.15509">
        <ele>295.7</ele>
        <time>2012-09-15T07:36:19.000Z</time>
      </trkpt>
      <trkpt lat="44.08055" lon="5.15511">
        <ele>295.5</ele>
        <time>2012-09-15T07:36:21.000Z</time>
      </trkpt>
      <trkpt lat="44.08052" lon="5.15513">
        <ele>296</ele>
        <time>2012-09-15T07:36:23.000Z</time>
      </trkpt>
      <trkpt lat="44.0805" lon="5.15515">
        <ele>295.9</ele>
        <time>2012-09-15T07:36:25.000Z</time>
      </trkpt>
      <trkpt lat="44.08046" lon="5.15516">
        <ele>296.5</ele>
        <time>2012-09-15T07:36:28.000Z</time>
      </trkpt>
      <trkpt lat="44.08046" lon="5.15523">
        <ele>297.6</ele>
        <time>2012-09-15T07:36:31.000Z</time>
      </trkpt>
      <trkpt lat="44.08048" lon="5.15527">
        <ele>298</ele>
        <time>2012-09-15T07:36:33.000Z</time>
      </trkpt>
      <trkpt lat="44.0805" lon="5.15529">
        <ele>297</ele>
        <time>2012-09-15T07:36:35.000Z</time>
      </trkpt>
      <trkpt lat="44.08053" lon="5.15532">
        <ele>296.8</ele>
        <time>2012-09-15T07:36:38.000Z</time>
      </trkpt>
      <trkpt lat="44.0805" lon="5.15535">
        <ele>298.4</ele>
        <time>2012-09-15T07:36:39.000Z</time>
      </trkpt>
      <trkpt lat="44.08049" lon="5.15539">
        <ele>298.7</ele>
        <time>2012-09-15T07:36:41.000Z</time>
      </trkpt>
      <trkpt lat="44.0805" lon="5.15542">
        <ele>299.1</ele>
        <time>2012-09-15T07:36:42.000Z</time>
      </trkpt>
      <trkpt lat="44.08051" lon="5.15548">
        <ele>299.9</ele>
        <time>2012-09-15T07:36:44.000Z</time>
      </trkpt>
      <trkpt lat="44.0805" lon="5.15553">
        <ele>299.8</ele>
        <time>2012-09-15T07:36:46.000Z</time>
      </trkpt>
      <trkpt lat="44.08046" lon="5.15556">
        <ele>299.8</ele>
        <time>2012-09-15T07:36:48.000Z</time>
      </trkpt>
      <trkpt lat="44.08041" lon="5.15558">
        <ele>299.7</ele>
        <time>2012-09-15T07:36:50.000Z</time>
      </trkpt>
      <trkpt lat="44.08036" lon="5.15561">
        <ele>299.2</ele>
        <time>2012-09-15T07:36:52.000Z</time>
      </trkpt>
      <trkpt lat="44.08032" lon="5.15563">
        <ele>298.7</ele>
        <time>2012-09-15T07:36:54.000Z</time>
      </trkpt>
      <trkpt lat="44.08028" lon="5.15564">
        <ele>299.3</ele>
        <time>2012-09-15T07:36:55.000Z</time>
      </trkpt>
      <trkpt lat="44.08025" lon="5.15565">
        <ele>299.2</ele>
        <time>2012-09-15T07:36:56.000Z</time>
      </trkpt>
      <trkpt lat="44.08022" lon="5.15567">
        <ele>299.5</ele>
        <time>2012-09-15T07:36:57.000Z</time>
      </trkpt>
      <trkpt lat="44.08018" lon="5.15568">
        <ele>299.2</ele>
        <time>2012-09-15T07:36:58.000Z</time>
      </trkpt>
      <trkpt lat="44.08014" lon="5.1557">
        <ele>299.2</ele>
        <time>2012-09-15T07:36:59.000Z</time>
      </trkpt>
      <trkpt lat="44.08011" lon="5.15571">
        <ele>299.2</ele>
        <time>2012-09-15T07:37:00.000Z</time>
      </trkpt>
      <trkpt lat="44.08008" lon="5.15573">
        <ele>299.1</ele>
        <time>2012-09-15T07:37:01.000Z</time>
      </trkpt>
      <trkpt lat="44.08006" lon="5.15576">
        <ele>298.5</ele>
        <time>2012-09-15T07:37:02.000Z</time>
      </trkpt>
      <trkpt lat="44.08003" lon="5.15579">
        <ele>298.9</ele>
        <time>2012-09-15T07:37:03.000Z</time>
      </trkpt>
      <trkpt lat="44.08" lon="5.15584">
        <ele>299</ele>
        <time>2012-09-15T07:37:05.000Z</time>
      </trkpt>
      <trkpt lat="44.08" lon="5.15588">
        <ele>299.7</ele>
        <time>2012-09-15T07:37:08.000Z</time>
      </trkpt>
      <trkpt lat="44.08" lon="5.15594">
        <ele>304</ele>
        <time>2012-09-15T07:37:24.000Z</time>
      </trkpt>
      <trkpt lat="44.08" lon="5.15599">
        <ele>304.9</ele>
        <time>2012-09-15T07:37:31.000Z</time>
      </trkpt>
      <trkpt lat="44.07996" lon="5.15602">
        <ele>304.8</ele>
        <time>2012-09-15T07:37:34.000Z</time>
      </trkpt>
      <trkpt lat="44.07994" lon="5.15606">
        <ele>303.9</ele>
        <time>2012-09-15T07:37:36.000Z</time>
      </trkpt>
      <trkpt lat="44.0799" lon="5.15609">
        <ele>303.8</ele>
        <time>2012-09-15T07:37:38.000Z</time>
      </trkpt>
      <trkpt lat="44.07985" lon="5.15612">
        <ele>303.3</ele>
        <time>2012-09-15T07:37:40.000Z</time>
      </trkpt>
      <trkpt lat="44.07981" lon="5.15613">
        <ele>303.3</ele>
        <time>2012-09-15T07:37:42.000Z</time>
      </trkpt>
      <trkpt lat="44.07978" lon="5.15616">
        <ele>303.1</ele>
        <time>2012-09-15T07:37:44.000Z</time>
      </trkpt>
      <trkpt lat="44.07976" lon="5.15619">
        <ele>303</ele>
        <time>2012-09-15T07:37:46.000Z</time>
      </trkpt>
      <trkpt lat="44.07979" lon="5.15621">
        <ele>303.1</ele>
        <time>2012-09-15T07:37:47.000Z</time>
      </trkpt>
      <trkpt lat="44.07982" lon="5.15623">
        <ele>303.2</ele>
        <time>2012-09-15T07:37:49.000Z</time>
      </trkpt>
      <trkpt lat="44.07984" lon="5.15626">
        <ele>304.1</ele>
        <time>2012-09-15T07:37:51.000Z</time>
      </trkpt>
      <trkpt lat="44.07983" lon="5.1563">
        <ele>304.5</ele>
        <time>2012-09-15T07:37:52.000Z</time>
      </trkpt>
      <trkpt lat="44.07984" lon="5.15634">
        <ele>305.5</ele>
        <time>2012-09-15T07:37:54.000Z</time>
      </trkpt>
      <trkpt lat="44.07987" lon="5.15635">
        <ele>305.8</ele>
        <time>2012-09-15T07:37:56.000Z</time>
      </trkpt>
      <trkpt lat="44.07991" lon="5.15636">
        <ele>305.9</ele>
        <time>2012-09-15T07:37:58.000Z</time>
      </trkpt>
      <trkpt lat="44.07995" lon="5.15636">
        <ele>306.3</ele>
        <time>2012-09-15T07:38:00.000Z</time>
      </trkpt>
      <trkpt lat="44.07999" lon="5.15635">
        <ele>305.6</ele>
        <time>2012-09-15T07:38:02.000Z</time>
      </trkpt>
      <trkpt lat="44.08002" lon="5.15634">
        <ele>306.4</ele>
        <time>2012-09-15T07:38:04.000Z</time>
      </trkpt>
      <trkpt lat="44.08006" lon="5.15632">
        <ele>307</ele>
        <time>2012-09-15T07:38:07.000Z</time>
      </trkpt>
      <trkpt lat="44.08009" lon="5.15632">
        <ele>306.8</ele>
        <time>2012-09-15T07:38:10.000Z</time>
      </trkpt>
      <trkpt lat="44.08011" lon="5.15634">
        <ele>305.3</ele>
        <time>2012-09-15T07:39:03.000Z</time>
      </trkpt>
      <trkpt lat="44.08013" lon="5.15631">
        <ele>305.4</ele>
        <time>2012-09-15T07:39:06.000Z</time>
      </trkpt>
      <trkpt lat="44.08016" lon="5.15631">
        <ele>305</ele>
        <time>2012-09-15T07:39:08.000Z</time>
      </trkpt>
      <trkpt lat="44.08022" lon="5.15628">
        <ele>304</ele>
        <time>2012-09-15T07:39:10.000Z</time>
      </trkpt>
      <trkpt lat="44.08024" lon="5.15627">
        <ele>304.4</ele>
        <time>2012-09-15T07:39:11.000Z</time>
      </trkpt>
      <trkpt lat="44.08028" lon="5.15625">
        <ele>305</ele>
        <time>2012-09-15T07:39:13.000Z</time>
      </trkpt>
      <trkpt lat="44.08032" lon="5.15625">
        <ele>305</ele>
        <time>2012-09-15T07:39:15.000Z</time>
      </trkpt>
      <trkpt lat="44.08036" lon="5.15626">
        <ele>304.2</ele>
        <time>2012-09-15T07:39:17.000Z</time>
      </trkpt>
      <trkpt lat="44.08039" lon="5.15627">
        <ele>304.2</ele>
        <time>2012-09-15T07:39:19.000Z</time>
      </trkpt>
      <trkpt lat="44.08042" lon="5.15628">
        <ele>305.4</ele>
        <time>2012-09-15T07:39:21.000Z</time>
      </trkpt>
      <trkpt lat="44.08047" lon="5.1563">
        <ele>305.9</ele>
        <time>2012-09-15T07:39:24.000Z</time>
      </trkpt>
      <trkpt lat="44.08051" lon="5.1563">
        <ele>307.2</ele>
        <time>2012-09-15T07:39:26.000Z</time>
      </trkpt>
      <trkpt lat="44.08055" lon="5.15629">
        <ele>308.4</ele>
        <time>2012-09-15T07:39:28.000Z</time>
      </trkpt>
      <trkpt lat="44.0806" lon="5.15629">
        <ele>308.1</ele>
        <time>2012-09-15T07:39:30.000Z</time>
      </trkpt>
      <trkpt lat="44.08065" lon="5.1563">
        <ele>308.1</ele>
        <time>2012-09-15T07:39:32.000Z</time>
      </trkpt>
      <trkpt lat="44.08071" lon="5.1563">
        <ele>308</ele>
        <time>2012-09-15T07:39:34.000Z</time>
      </trkpt>
      <trkpt lat="44.08073" lon="5.15632">
        <ele>311.7</ele>
        <time>2012-09-15T07:39:36.000Z</time>
      </trkpt>
      <trkpt lat="44.08078" lon="5.15632">
        <ele>313.9</ele>
        <time>2012-09-15T07:39:38.000Z</time>
      </trkpt>
      <trkpt lat="44.08083" lon="5.15633">
        <ele>316.1</ele>
        <time>2012-09-15T07:39:40.000Z</time>
      </trkpt>
      <trkpt lat="44.08092" lon="5.15631">
        <ele>312.2</ele>
        <time>2012-09-15T07:39:42.000Z</time>
      </trkpt>
      <trkpt lat="44.08099" lon="5.15629">
        <ele>311.5</ele>
        <time>2012-09-15T07:39:44.000Z</time>
      </trkpt>
      <trkpt lat="44.08102" lon="5.15628">
        <ele>311</ele>
        <time>2012-09-15T07:39:45.000Z</time>
      </trkpt>
      <trkpt lat="44.08106" lon="5.15628">
        <ele>309.6</ele>
        <time>2012-09-15T07:39:46.000Z</time>
      </trkpt>
      <trkpt lat="44.08109" lon="5.15627">
        <ele>310.2</ele>
        <time>2012-09-15T07:39:47.000Z</time>
      </trkpt>
      <trkpt lat="44.08112" lon="5.15626">
        <ele>310.3</ele>
        <time>2012-09-15T07:39:48.000Z</time>
      </trkpt>
      <trkpt lat="44.08115" lon="5.15625">
        <ele>310.3</ele>
        <time>2012-09-15T07:39:49.000Z</time>
      </trkpt>
      <trkpt lat="44.08119" lon="5.15623">
        <ele>310</ele>
        <time>2012-09-15T07:39:50.000Z</time>
      </trkpt>
      <trkpt lat="44.08123" lon="5.15622">
        <ele>309.9</ele>
        <time>2012-09-15T07:39:51.000Z</time>
      </trkpt>
      <trkpt lat="44.08126" lon="5.15621">
        <ele>310.1</ele>
        <time>2012-09-15T07:39:52.000Z</time>
      </trkpt>
      <trkpt lat="44.08129" lon="5.1562">
        <ele>309.7</ele>
        <time>2012-09-15T07:39:53.000Z</time>
      </trkpt>
      <trkpt lat="44.08134" lon="5.15618">
        <ele>309.2</ele>
        <time>2012-09-15T07:39:54.000Z</time>
      </trkpt>
      <trkpt lat="44.08137" lon="5.15617">
        <ele>309.2</ele>
        <time>2012-09-15T07:39:55.000Z</time>
      </trkpt>
      <trkpt lat="44.0814" lon="5.15615">
        <ele>309.4</ele>
        <time>2012-09-15T07:39:56.000Z</time>
      </trkpt>
      <trkpt lat="44.08144" lon="5.15614">
        <ele>309</ele>
        <time>2012-09-15T07:39:57.000Z</time>
      </trkpt>
      <trkpt lat="44.08147" lon="5.15612">
        <ele>308.9</ele>
        <time>2012-09-15T07:39:58.000Z</time>
      </trkpt>
      <trkpt lat="44.0815" lon="5.15611">
        <ele>310.2</ele>
        <time>2012-09-15T07:39:59.000Z</time>
      </trkpt>
      <trkpt lat="44.08153" lon="5.1561">
        <ele>310.6</ele>
        <time>2012-09-15T07:40:00.000Z</time>
      </trkpt>
      <trkpt lat="44.08156" lon="5.15609">
        <ele>310.4</ele>
        <time>2012-09-15T07:40:01.000Z</time>
      </trkpt>
      <trkpt lat="44.0816" lon="5.15609">
        <ele>309.6</ele>
        <time>2012-09-15T07:40:02.000Z</time>
      </trkpt>
      <trkpt lat="44.08162" lon="5.15608">
        <ele>309.5</ele>
        <time>2012-09-15T07:40:03.000Z</time>
      </trkpt>
      <trkpt lat="44.08165" lon="5.15608">
        <ele>309.6</ele>
        <time>2012-09-15T07:40:04.000Z</time>
      </trkpt>
      <trkpt lat="44.08167" lon="5.15605">
        <ele>309.4</ele>
        <time>2012-09-15T07:40:05.000Z</time>
      </trkpt>
      <trkpt lat="44.08172" lon="5.15602">
        <ele>309.6</ele>
        <time>2012-09-15T07:40:07.000Z</time>
      </trkpt>
      <trkpt lat="44.08174" lon="5.156">
        <ele>310.6</ele>
        <time>2012-09-15T07:40:09.000Z</time>
      </trkpt>
      <trkpt lat="44.08178" lon="5.15598">
        <ele>310.1</ele>
        <time>2012-09-15T07:40:11.000Z</time>
      </trkpt>
      <trkpt lat="44.08183" lon="5.15596">
        <ele>309.4</ele>
        <time>2012-09-15T07:40:13.000Z</time>
      </trkpt>
      <trkpt lat="44.08185" lon="5.15593">
        <ele>310.7</ele>
        <time>2012-09-15T07:40:15.000Z</time>
      </trkpt>
      <trkpt lat="44.08185" lon="5.15589">
        <ele>311.1</ele>
        <time>2012-09-15T07:40:18.000Z</time>
      </trkpt>
      <trkpt lat="44.08188" lon="5.1559">
        <ele>313.5</ele>
        <time>2012-09-15T07:40:25.000Z</time>
      </trkpt>
      <trkpt lat="44.08191" lon="5.1559">
        <ele>313.7</ele>
        <time>2012-09-15T07:40:27.000Z</time>
      </trkpt>
      <trkpt lat="44.08195" lon="5.15588">
        <ele>316.5</ele>
        <time>2012-09-15T07:40:31.000Z</time>
      </trkpt>
      <trkpt lat="44.08198" lon="5.15586">
        <ele>317.1</ele>
        <time>2012-09-15T07:40:33.000Z</time>
      </trkpt>
      <trkpt lat="44.082" lon="5.15584">
        <ele>318.4</ele>
        <time>2012-09-15T07:40:35.000Z</time>
      </trkpt>
      <trkpt lat="44.08202" lon="5.1558">
        <ele>318.3</ele>
        <time>2012-09-15T07:40:36.000Z</time>
      </trkpt>
      <trkpt lat="44.08204" lon="5.15576">
        <ele>320.9</ele>
        <time>2012-09-15T07:40:38.000Z</time>
      </trkpt>
      <trkpt lat="44.08207" lon="5.15575">
        <ele>323.7</ele>
        <time>2012-09-15T07:40:40.000Z</time>
      </trkpt>
      <trkpt lat="44.08212" lon="5.15575">
        <ele>324.4</ele>
        <time>2012-09-15T07:40:42.000Z</time>
      </trkpt>
      <trkpt lat="44.08216" lon="5.15574">
        <ele>325.6</ele>
        <time>2012-09-15T07:40:43.000Z</time>
      </trkpt>
      <trkpt lat="44.0822" lon="5.15573">
        <ele>324.6</ele>
        <time>2012-09-15T07:40:44.000Z</time>
      </trkpt>
      <trkpt lat="44.08224" lon="5.15572">
        <ele>324.7</ele>
        <time>2012-09-15T07:40:45.000Z</time>
      </trkpt>
      <trkpt lat="44.08226" lon="5.15572">
        <ele>325</ele>
        <time>2012-09-15T07:40:46.000Z</time>
      </trkpt>
      <trkpt lat="44.08228" lon="5.15574">
        <ele>326.2</ele>
        <time>2012-09-15T07:40:47.000Z</time>
      </trkpt>
      <trkpt lat="44.08231" lon="5.15575">
        <ele>326.7</ele>
        <time>2012-09-15T07:40:48.000Z</time>
      </trkpt>
      <trkpt lat="44.08234" lon="5.15576">
        <ele>326.9</ele>
        <time>2012-09-15T07:40:49.000Z</time>
      </trkpt>
      <trkpt lat="44.08237" lon="5.15575">
        <ele>326.4</ele>
        <time>2012-09-15T07:40:51.000Z</time>
      </trkpt>
      <trkpt lat="44.08242" lon="5.15576">
        <ele>326.9</ele>
        <time>2012-09-15T07:40:53.000Z</time>
      </trkpt>
      <trkpt lat="44.08245" lon="5.15576">
        <ele>327.4</ele>
        <time>2012-09-15T07:40:54.000Z</time>
      </trkpt>
      <trkpt lat="44.08248" lon="5.15578">
        <ele>330.7</ele>
        <time>2012-09-15T07:40:56.000Z</time>
      </trkpt>
      <trkpt lat="44.08251" lon="5.1558">
        <ele>334.1</ele>
        <time>2012-09-15T07:40:58.000Z</time>
      </trkpt>
      <trkpt lat="44.08253" lon="5.15582">
        <ele>334.4</ele>
        <time>2012-09-15T07:41:01.000Z</time>
      </trkpt>
      <trkpt lat="44.08256" lon="5.15584">
        <ele>331.7</ele>
        <time>2012-09-15T07:41:05.000Z</time>
      </trkpt>
      <trkpt lat="44.08251" lon="5.15586">
        <ele>329.9</ele>
        <time>2012-09-15T07:41:09.000Z</time>
      </trkpt>
      <trkpt lat="44.08247" lon="5.15588">
        <ele>328.6</ele>
        <time>2012-09-15T07:41:11.000Z</time>
      </trkpt>
      <trkpt lat="44.08244" lon="5.15589">
        <ele>328.1</ele>
        <time>2012-09-15T07:41:13.000Z</time>
      </trkpt>
      <trkpt lat="44.0824" lon="5.1559">
        <ele>327.2</ele>
        <time>2012-09-15T07:41:15.000Z</time>
      </trkpt>
      <trkpt lat="44.08236" lon="5.1559">
        <ele>326.7</ele>
        <time>2012-09-15T07:41:17.000Z</time>
      </trkpt>
      <trkpt lat="44.08233" lon="5.1559">
        <ele>327</ele>
        <time>2012-09-15T07:41:19.000Z</time>
      </trkpt>
      <trkpt lat="44.0823" lon="5.1559">
        <ele>326.6</ele>
        <time>2012-09-15T07:41:21.000Z</time>
      </trkpt>
      <trkpt lat="44.08227" lon="5.15594">
        <ele>326.4</ele>
        <time>2012-09-15T07:41:23.000Z</time>
      </trkpt>
      <trkpt lat="44.08225" lon="5.15597">
        <ele>325.3</ele>
        <time>2012-09-15T07:41:25.000Z</time>
      </trkpt>
      <trkpt lat="44.08223" lon="5.15602">
        <ele>324.7</ele>
        <time>2012-09-15T07:41:27.000Z</time>
      </trkpt>
      <trkpt lat="44.08226" lon="5.15607">
        <ele>324.7</ele>
        <time>2012-09-15T07:41:29.000Z</time>
      </trkpt>
      <trkpt lat="44.08227" lon="5.15611">
        <ele>324</ele>
        <time>2012-09-15T07:41:31.000Z</time>
      </trkpt>
      <trkpt lat="44.08227" lon="5.15617">
        <ele>323.4</ele>
        <time>2012-09-15T07:41:34.000Z</time>
      </trkpt>
      <trkpt lat="44.08226" lon="5.15622">
        <ele>323.6</ele>
        <time>2012-09-15T07:41:37.000Z</time>
      </trkpt>
      <trkpt lat="44.08227" lon="5.15627">
        <ele>323.3</ele>
        <time>2012-09-15T07:41:39.000Z</time>
      </trkpt>
      <trkpt lat="44.08227" lon="5.15632">
        <ele>323.6</ele>
        <time>2012-09-15T07:41:41.000Z</time>
      </trkpt>
      <trkpt lat="44.08227" lon="5.15636">
        <ele>324.1</ele>
        <time>2012-09-15T07:41:43.000Z</time>
      </trkpt>
      <trkpt lat="44.08227" lon="5.15641">
        <ele>324.3</ele>
        <time>2012-09-15T07:41:45.000Z</time>
      </trkpt>
      <trkpt lat="44.08229" lon="5.15644">
        <ele>324.4</ele>
        <time>2012-09-15T07:41:47.000Z</time>
      </trkpt>
      <trkpt lat="44.0823" lon="5.15649">
        <ele>325</ele>
        <time>2012-09-15T07:41:49.000Z</time>
      </trkpt>
      <trkpt lat="44.08232" lon="5.15653">
        <ele>325.9</ele>
        <time>2012-09-15T07:41:51.000Z</time>
      </trkpt>
      <trkpt lat="44.08234" lon="5.15657">
        <ele>326.7</ele>
        <time>2012-09-15T07:41:53.000Z</time>
      </trkpt>
      <trkpt lat="44.08235" lon="5.15662">
        <ele>326.9</ele>
        <time>2012-09-15T07:41:55.000Z</time>
      </trkpt>
      <trkpt lat="44.08237" lon="5.15667">
        <ele>327.5</ele>
        <time>2012-09-15T07:41:57.000Z</time>
      </trkpt>
      <trkpt lat="44.08239" lon="5.15671">
        <ele>327.9</ele>
        <time>2012-09-15T07:41:59.000Z</time>
      </trkpt>
      <trkpt lat="44.0824" lon="5.15675">
        <ele>327.8</ele>
        <time>2012-09-15T07:42:01.000Z</time>
      </trkpt>
      <trkpt lat="44.08241" lon="5.15681">
        <ele>326.9</ele>
        <time>2012-09-15T07:42:03.000Z</time>
      </trkpt>
      <trkpt lat="44.08242" lon="5.15687">
        <ele>327</ele>
        <time>2012-09-15T07:42:05.000Z</time>
      </trkpt>
      <trkpt lat="44.08245" lon="5.15693">
        <ele>326</ele>
        <time>2012-09-15T07:42:07.000Z</time>
      </trkpt>
      <trkpt lat="44.08246" lon="5.15698">
        <ele>325.7</ele>
        <time>2012-09-15T07:42:09.000Z</time>
      </trkpt>
      <trkpt lat="44.08248" lon="5.15704">
        <ele>325.1</ele>
        <time>2012-09-15T07:42:11.000Z</time>
      </trkpt>
      <trkpt lat="44.08249" lon="5.15708">
        <ele>324.9</ele>
        <time>2012-09-15T07:42:13.000Z</time>
      </trkpt>
      <trkpt lat="44.08248" lon="5.15712">
        <ele>324.5</ele>
        <time>2012-09-15T07:42:14.000Z</time>
      </trkpt>
      <trkpt lat="44.0825" lon="5.15719">
        <ele>324.8</ele>
        <time>2012-09-15T07:42:16.000Z</time>
      </trkpt>
      <trkpt lat="44.0825" lon="5.15722">
        <ele>324.8</ele>
        <time>2012-09-15T07:42:17.000Z</time>
      </trkpt>
      <trkpt lat="44.08251" lon="5.15727">
        <ele>325.2</ele>
        <time>2012-09-15T07:42:19.000Z</time>
      </trkpt>
      <trkpt lat="44.08253" lon="5.1573">
        <ele>325.3</ele>
        <time>2012-09-15T07:42:20.000Z</time>
      </trkpt>
      <trkpt lat="44.08247" lon="5.1573">
        <ele>324.6</ele>
        <time>2012-09-15T07:42:21.000Z</time>
      </trkpt>
      <trkpt lat="44.08245" lon="5.15734">
        <ele>323.1</ele>
        <time>2012-09-15T07:42:23.000Z</time>
      </trkpt>
      <trkpt lat="44.08242" lon="5.15736">
        <ele>322.7</ele>
        <time>2012-09-15T07:42:25.000Z</time>
      </trkpt>
      <trkpt lat="44.08239" lon="5.15731">
        <ele>322.4</ele>
        <time>2012-09-15T07:42:27.000Z</time>
      </trkpt>
      <trkpt lat="44.08236" lon="5.15727">
        <ele>321.7</ele>
        <time>2012-09-15T07:42:29.000Z</time>
      </trkpt>
      <trkpt lat="44.08233" lon="5.15721">
        <ele>321</ele>
        <time>2012-09-15T07:42:31.000Z</time>
      </trkpt>
      <trkpt lat="44.08231" lon="5.15716">
        <ele>320.5</ele>
        <time>2012-09-15T07:42:33.000Z</time>
      </trkpt>
      <trkpt lat="44.08228" lon="5.15716">
        <ele>320.1</ele>
        <time>2012-09-15T07:42:34.000Z</time>
      </trkpt>
      <trkpt lat="44.08225" lon="5.1571">
        <ele>319.6</ele>
        <time>2012-09-15T07:42:36.000Z</time>
      </trkpt>
      <trkpt lat="44.08222" lon="5.15706">
        <ele>319.8</ele>
        <time>2012-09-15T07:42:38.000Z</time>
      </trkpt>
      <trkpt lat="44.08221" lon="5.15702">
        <ele>319.3</ele>
        <time>2012-09-15T07:42:40.000Z</time>
      </trkpt>
      <trkpt lat="44.08223" lon="5.15697">
        <ele>319.8</ele>
        <time>2012-09-15T07:42:43.000Z</time>
      </trkpt>
      <trkpt lat="44.08221" lon="5.15692">
        <ele>319.8</ele>
        <time>2012-09-15T07:42:45.000Z</time>
      </trkpt>
      <trkpt lat="44.08219" lon="5.15686">
        <ele>320</ele>
        <time>2012-09-15T07:42:47.000Z</time>
      </trkpt>
      <trkpt lat="44.08215" lon="5.15687">
        <ele>319.4</ele>
        <time>2012-09-15T07:42:49.000Z</time>
      </trkpt>
      <trkpt lat="44.08214" lon="5.1569">
        <ele>319.5</ele>
        <time>2012-09-15T07:42:50.000Z</time>
      </trkpt>
      <trkpt lat="44.0821" lon="5.15695">
        <ele>318.9</ele>
        <time>2012-09-15T07:42:52.000Z</time>
      </trkpt>
      <trkpt lat="44.08205" lon="5.15699">
        <ele>318.5</ele>
        <time>2012-09-15T07:42:54.000Z</time>
      </trkpt>
      <trkpt lat="44.08202" lon="5.15701">
        <ele>318.4</ele>
        <time>2012-09-15T07:42:55.000Z</time>
      </trkpt>
      <trkpt lat="44.082" lon="5.15705">
        <ele>318.7</ele>
        <time>2012-09-15T07:42:56.000Z</time>
      </trkpt>
      <trkpt lat="44.082" lon="5.15711">
        <ele>319.7</ele>
        <time>2012-09-15T07:42:58.000Z</time>
      </trkpt>
      <trkpt lat="44.08205" lon="5.1571">
        <ele>320.2</ele>
        <time>2012-09-15T07:42:59.000Z</time>
      </trkpt>
      <trkpt lat="44.08209" lon="5.15712">
        <ele>319.9</ele>
        <time>2012-09-15T07:43:01.000Z</time>
      </trkpt>
      <trkpt lat="44.08213" lon="5.15716">
        <ele>319.6</ele>
        <time>2012-09-15T07:43:03.000Z</time>
      </trkpt>
      <trkpt lat="44.08211" lon="5.15721">
        <ele>319.9</ele>
        <time>2012-09-15T07:43:04.000Z</time>
      </trkpt>
      <trkpt lat="44.08211" lon="5.15728">
        <ele>320.4</ele>
        <time>2012-09-15T07:43:06.000Z</time>
      </trkpt>
      <trkpt lat="44.08212" lon="5.15736">
        <ele>320.8</ele>
        <time>2012-09-15T07:43:08.000Z</time>
      </trkpt>
      <trkpt lat="44.08212" lon="5.1574">
        <ele>321</ele>
        <time>2012-09-15T07:43:09.000Z</time>
      </trkpt>
      <trkpt lat="44.08214" lon="5.15743">
        <ele>321</ele>
        <time>2012-09-15T07:43:10.000Z</time>
      </trkpt>
      <trkpt lat="44.08217" lon="5.15748">
        <ele>321.3</ele>
        <time>2012-09-15T07:43:12.000Z</time>
      </trkpt>
      <trkpt lat="44.08219" lon="5.15751">
        <ele>321.4</ele>
        <time>2012-09-15T07:43:13.000Z</time>
      </trkpt>
      <trkpt lat="44.08219" lon="5.15755">
        <ele>321.2</ele>
        <time>2012-09-15T07:43:14.000Z</time>
      </trkpt>
      <trkpt lat="44.08219" lon="5.15762">
        <ele>321.2</ele>
        <time>2012-09-15T07:43:15.000Z</time>
      </trkpt>
      <trkpt lat="44.0822" lon="5.15766">
        <ele>321.3</ele>
        <time>2012-09-15T07:43:16.000Z</time>
      </trkpt>
      <trkpt lat="44.08221" lon="5.15771">
        <ele>321.6</ele>
        <time>2012-09-15T07:43:17.000Z</time>
      </trkpt>
      <trkpt lat="44.08221" lon="5.15776">
        <ele>321.9</ele>
        <time>2012-09-15T07:43:18.000Z</time>
      </trkpt>
      <trkpt lat="44.08222" lon="5.1578">
        <ele>322.1</ele>
        <time>2012-09-15T07:43:19.000Z</time>
      </trkpt>
      <trkpt lat="44.08223" lon="5.15785">
        <ele>322.1</ele>
        <time>2012-09-15T07:43:20.000Z</time>
      </trkpt>
      <trkpt lat="44.08225" lon="5.15793">
        <ele>321.9</ele>
        <time>2012-09-15T07:43:22.000Z</time>
      </trkpt>
      <trkpt lat="44.08226" lon="5.15798">
        <ele>322</ele>
        <time>2012-09-15T07:43:23.000Z</time>
      </trkpt>
      <trkpt lat="44.08226" lon="5.15802">
        <ele>322.1</ele>
        <time>2012-09-15T07:43:24.000Z</time>
      </trkpt>
      <trkpt lat="44.08227" lon="5.15807">
        <ele>322.2</ele>
        <time>2012-09-15T07:43:25.000Z</time>
      </trkpt>
      <trkpt lat="44.08228" lon="5.15812">
        <ele>322.3</ele>
        <time>2012-09-15T07:43:26.000Z</time>
      </trkpt>
      <trkpt lat="44.0823" lon="5.15817">
        <ele>322.3</ele>
        <time>2012-09-15T07:43:27.000Z</time>
      </trkpt>
      <trkpt lat="44.08229" lon="5.15822">
        <ele>321.8</ele>
        <time>2012-09-15T07:43:28.000Z</time>
      </trkpt>
      <trkpt lat="44.08228" lon="5.15826">
        <ele>321.7</ele>
        <time>2012-09-15T07:43:29.000Z</time>
      </trkpt>
      <trkpt lat="44.08228" lon="5.15831">
        <ele>321.7</ele>
        <time>2012-09-15T07:43:30.000Z</time>
      </trkpt>
      <trkpt lat="44.08228" lon="5.15837">
        <ele>321.2</ele>
        <time>2012-09-15T07:43:32.000Z</time>
      </trkpt>
      <trkpt lat="44.08227" lon="5.15842">
        <ele>320.4</ele>
        <time>2012-09-15T07:43:34.000Z</time>
      </trkpt>
      <trkpt lat="44.08226" lon="5.15848">
        <ele>320.3</ele>
        <time>2012-09-15T07:43:37.000Z</time>
      </trkpt>
      <trkpt lat="44.08224" lon="5.15851">
        <ele>319.2</ele>
        <time>2012-09-15T07:43:40.000Z</time>
      </trkpt>
      <trkpt lat="44.08223" lon="5.15856">
        <ele>318.4</ele>
        <time>2012-09-15T07:43:43.000Z</time>
      </trkpt>
      <trkpt lat="44.0822" lon="5.15857">
        <ele>320.1</ele>
        <time>2012-09-15T07:43:44.000Z</time>
      </trkpt>
      <trkpt lat="44.08215" lon="5.1586">
        <ele>319.5</ele>
        <time>2012-09-15T07:43:46.000Z</time>
      </trkpt>
      <trkpt lat="44.08211" lon="5.15861">
        <ele>319.5</ele>
        <time>2012-09-15T07:43:48.000Z</time>
      </trkpt>
      <trkpt lat="44.08208" lon="5.15863">
        <ele>319.8</ele>
        <time>2012-09-15T07:43:49.000Z</time>
      </trkpt>
      <trkpt lat="44.08203" lon="5.15866">
        <ele>320.9</ele>
        <time>2012-09-15T07:43:51.000Z</time>
      </trkpt>
      <trkpt lat="44.082" lon="5.15868">
        <ele>321.6</ele>
        <time>2012-09-15T07:43:52.000Z</time>
      </trkpt>
      <trkpt lat="44.08197" lon="5.15869">
        <ele>322.1</ele>
        <time>2012-09-15T07:43:53.000Z</time>
      </trkpt>
      <trkpt lat="44.08194" lon="5.1587">
        <ele>322.2</ele>
        <time>2012-09-15T07:43:54.000Z</time>
      </trkpt>
      <trkpt lat="44.08191" lon="5.15873">
        <ele>322.1</ele>
        <time>2012-09-15T07:43:55.000Z</time>
      </trkpt>
      <trkpt lat="44.08188" lon="5.15874">
        <ele>322.5</ele>
        <time>2012-09-15T07:43:56.000Z</time>
      </trkpt>
      <trkpt lat="44.08184" lon="5.15876">
        <ele>322.6</ele>
        <time>2012-09-15T07:43:57.000Z</time>
      </trkpt>
      <trkpt lat="44.0818" lon="5.15876">
        <ele>322.7</ele>
        <time>2012-09-15T07:43:58.000Z</time>
      </trkpt>
      <trkpt lat="44.08174" lon="5.15876">
        <ele>322.5</ele>
        <time>2012-09-15T07:44:00.000Z</time>
      </trkpt>
      <trkpt lat="44.0817" lon="5.15875">
        <ele>322.4</ele>
        <time>2012-09-15T07:44:01.000Z</time>
      </trkpt>
      <trkpt lat="44.08166" lon="5.15875">
        <ele>322.2</ele>
        <time>2012-09-15T07:44:02.000Z</time>
      </trkpt>
      <trkpt lat="44.0816" lon="5.15875">
        <ele>322.2</ele>
        <time>2012-09-15T07:44:03.000Z</time>
      </trkpt>
      <trkpt lat="44.08155" lon="5.15875">
        <ele>322.8</ele>
        <time>2012-09-15T07:44:04.000Z</time>
      </trkpt>
      <trkpt lat="44.0815" lon="5.15875">
        <ele>323</ele>
        <time>2012-09-15T07:44:05.000Z</time>
      </trkpt>
      <trkpt lat="44.08145" lon="5.15876">
        <ele>323.3</ele>
        <time>2012-09-15T07:44:06.000Z</time>
      </trkpt>
      <trkpt lat="44.0814" lon="5.15874">
        <ele>323.8</ele>
        <time>2012-09-15T07:44:07.000Z</time>
      </trkpt>
      <trkpt lat="44.08134" lon="5.15875">
        <ele>324.3</ele>
        <time>2012-09-15T07:44:08.000Z</time>
      </trkpt>
      <trkpt lat="44.0813" lon="5.15876">
        <ele>324.4</ele>
        <time>2012-09-15T07:44:09.000Z</time>
      </trkpt>
      <trkpt lat="44.08123" lon="5.15877">
        <ele>324.5</ele>
        <time>2012-09-15T07:44:10.000Z</time>
      </trkpt>
      <trkpt lat="44.08116" lon="5.15882">
        <ele>323.2</ele>
        <time>2012-09-15T07:44:11.000Z</time>
      </trkpt>
      <trkpt lat="44.08111" lon="5.15886">
        <ele>322.9</ele>
        <time>2012-09-15T07:44:12.000Z</time>
      </trkpt>
      <trkpt lat="44.08107" lon="5.1589">
        <ele>323.3</ele>
        <time>2012-09-15T07:44:13.000Z</time>
      </trkpt>
      <trkpt lat="44.08105" lon="5.15893">
        <ele>323.9</ele>
        <time>2012-09-15T07:44:14.000Z</time>
      </trkpt>
      <trkpt lat="44.081" lon="5.15896">
        <ele>323.6</ele>
        <time>2012-09-15T07:44:15.000Z</time>
      </trkpt>
      <trkpt lat="44.08098" lon="5.15901">
        <ele>324</ele>
        <time>2012-09-15T07:44:16.000Z</time>
      </trkpt>
      <trkpt lat="44.08095" lon="5.15907">
        <ele>323.1</ele>
        <time>2012-09-15T07:44:17.000Z</time>
      </trkpt>
      <trkpt lat="44.08092" lon="5.1591">
        <ele>322.2</ele>
        <time>2012-09-15T07:44:18.000Z</time>
      </trkpt>
      <trkpt lat="44.08088" lon="5.15913">
        <ele>322.2</ele>
        <time>2012-09-15T07:44:19.000Z</time>
      </trkpt>
      <trkpt lat="44.08084" lon="5.15916">
        <ele>322.4</ele>
        <time>2012-09-15T07:44:20.000Z</time>
      </trkpt>
      <trkpt lat="44.08081" lon="5.15918">
        <ele>323.4</ele>
        <time>2012-09-15T07:44:21.000Z</time>
      </trkpt>
      <trkpt lat="44.08078" lon="5.15921">
        <ele>324.5</ele>
        <time>2012-09-15T07:44:22.000Z</time>
      </trkpt>
      <trkpt lat="44.08075" lon="5.15922">
        <ele>325.6</ele>
        <time>2012-09-15T07:44:23.000Z</time>
      </trkpt>
      <trkpt lat="44.08073" lon="5.15924">
        <ele>326.8</ele>
        <time>2012-09-15T07:44:24.000Z</time>
      </trkpt>
      <trkpt lat="44.08067" lon="5.15924">
        <ele>328.5</ele>
        <time>2012-09-15T07:44:25.000Z</time>
      </trkpt>
      <trkpt lat="44.08064" lon="5.15926">
        <ele>329.8</ele>
        <time>2012-09-15T07:44:26.000Z</time>
      </trkpt>
      <trkpt lat="44.0806" lon="5.15929">
        <ele>330.5</ele>
        <time>2012-09-15T07:44:27.000Z</time>
      </trkpt>
      <trkpt lat="44.08056" lon="5.15934">
        <ele>330.2</ele>
        <time>2012-09-15T07:44:28.000Z</time>
      </trkpt>
      <trkpt lat="44.08054" lon="5.1594">
        <ele>329.7</ele>
        <time>2012-09-15T07:44:29.000Z</time>
      </trkpt>
      <trkpt lat="44.08049" lon="5.15941">
        <ele>330.2</ele>
        <time>2012-09-15T07:44:30.000Z</time>
      </trkpt>
      <trkpt lat="44.08044" lon="5.15944">
        <ele>330.8</ele>
        <time>2012-09-15T07:44:31.000Z</time>
      </trkpt>
      <trkpt lat="44.08039" lon="5.15948">
        <ele>330.8</ele>
        <time>2012-09-15T07:44:32.000Z</time>
      </trkpt>
      <trkpt lat="44.08034" lon="5.15951">
        <ele>330.1</ele>
        <time>2012-09-15T07:44:33.000Z</time>
      </trkpt>
      <trkpt lat="44.08031" lon="5.1595">
        <ele>331.8</ele>
        <time>2012-09-15T07:44:34.000Z</time>
      </trkpt>
      <trkpt lat="44.08028" lon="5.15952">
        <ele>330.9</ele>
        <time>2012-09-15T07:44:35.000Z</time>
      </trkpt>
      <trkpt lat="44.08024" lon="5.15954">
        <ele>330.7</ele>
        <time>2012-09-15T07:44:36.000Z</time>
      </trkpt>
      <trkpt lat="44.08021" lon="5.15958">
        <ele>329.6</ele>
        <time>2012-09-15T07:44:37.000Z</time>
      </trkpt>
      <trkpt lat="44.08017" lon="5.15962">
        <ele>328.6</ele>
        <time>2012-09-15T07:44:38.000Z</time>
      </trkpt>
      <trkpt lat="44.08012" lon="5.15966">
        <ele>328</ele>
        <time>2012-09-15T07:44:39.000Z</time>
      </trkpt>
      <trkpt lat="44.0801" lon="5.15971">
        <ele>327.6</ele>
        <time>2012-09-15T07:44:40.000Z</time>
      </trkpt>
      <trkpt lat="44.08008" lon="5.15975">
        <ele>326.8</ele>
        <time>2012-09-15T07:44:41.000Z</time>
      </trkpt>
      <trkpt lat="44.08001" lon="5.15979">
        <ele>326.4</ele>
        <time>2012-09-15T07:44:42.000Z</time>
      </trkpt>
      <trkpt lat="44.07996" lon="5.15984">
        <ele>325.3</ele>
        <time>2012-09-15T07:44:43.000Z</time>
      </trkpt>
      <trkpt lat="44.07992" lon="5.15988">
        <ele>325.2</ele>
        <time>2012-09-15T07:44:44.000Z</time>
      </trkpt>
      <trkpt lat="44.07987" lon="5.15992">
        <ele>325.2</ele>
        <time>2012-09-15T07:44:45.000Z</time>
      </trkpt>
      <trkpt lat="44.07983" lon="5.15996">
        <ele>325.1</ele>
        <time>2012-09-15T07:44:46.000Z</time>
      </trkpt>
      <trkpt lat="44.07978" lon="5.16">
        <ele>325.3</ele>
        <time>2012-09-15T07:44:47.000Z</time>
      </trkpt>
      <trkpt lat="44.07974" lon="5.16004">
        <ele>324.7</ele>
        <time>2012-09-15T07:44:48.000Z</time>
      </trkpt>
      <trkpt lat="44.0797" lon="5.16009">
        <ele>324.3</ele>
        <time>2012-09-15T07:44:49.000Z</time>
      </trkpt>
      <trkpt lat="44.07966" lon="5.16013">
        <ele>323.9</ele>
        <time>2012-09-15T07:44:50.000Z</time>
      </trkpt>
      <trkpt lat="44.07962" lon="5.16017">
        <ele>322.9</ele>
        <time>2012-09-15T07:44:51.000Z</time>
      </trkpt>
      <trkpt lat="44.07958" lon="5.16021">
        <ele>323</ele>
        <time>2012-09-15T07:44:52.000Z</time>
      </trkpt>
      <trkpt lat="44.07954" lon="5.16025">
        <ele>323</ele>
        <time>2012-09-15T07:44:53.000Z</time>
      </trkpt>
      <trkpt lat="44.07951" lon="5.1603">
        <ele>322.2</ele>
        <time>2012-09-15T07:44:54.000Z</time>
      </trkpt>
      <trkpt lat="44.07948" lon="5.16034">
        <ele>321.5</ele>
        <time>2012-09-15T07:44:55.000Z</time>
      </trkpt>
      <trkpt lat="44.07943" lon="5.16038">
        <ele>321.5</ele>
        <time>2012-09-15T07:44:56.000Z</time>
      </trkpt>
      <trkpt lat="44.07939" lon="5.16042">
        <ele>321.5</ele>
        <time>2012-09-15T07:44:57.000Z</time>
      </trkpt>
      <trkpt lat="44.07935" lon="5.16046">
        <ele>321.3</ele>
        <time>2012-09-15T07:44:58.000Z</time>
      </trkpt>
      <trkpt lat="44.07931" lon="5.16051">
        <ele>321</ele>
        <time>2012-09-15T07:44:59.000Z</time>
      </trkpt>
      <trkpt lat="44.07927" lon="5.16057">
        <ele>320.4</ele>
        <time>2012-09-15T07:45:00.000Z</time>
      </trkpt>
      <trkpt lat="44.07923" lon="5.16063">
        <ele>320.2</ele>
        <time>2012-09-15T07:45:01.000Z</time>
      </trkpt>
      <trkpt lat="44.07918" lon="5.16068">
        <ele>320.2</ele>
        <time>2012-09-15T07:45:02.000Z</time>
      </trkpt>
      <trkpt lat="44.07915" lon="5.16074">
        <ele>319.7</ele>
        <time>2012-09-15T07:45:03.000Z</time>
      </trkpt>
      <trkpt lat="44.07911" lon="5.16079">
        <ele>319.7</ele>
        <time>2012-09-15T07:45:04.000Z</time>
      </trkpt>
      <trkpt lat="44.07906" lon="5.16081">
        <ele>319.4</ele>
        <time>2012-09-15T07:45:05.000Z</time>
      </trkpt>
      <trkpt lat="44.07902" lon="5.16086">
        <ele>319.2</ele>
        <time>2012-09-15T07:45:07.000Z</time>
      </trkpt>
      <trkpt lat="44.079" lon="5.1609">
        <ele>317.6</ele>
        <time>2012-09-15T07:45:10.000Z</time>
      </trkpt>
      <trkpt lat="44.07897" lon="5.16091">
        <ele>317.1</ele>
        <time>2012-09-15T07:45:12.000Z</time>
      </trkpt>
      <trkpt lat="44.07894" lon="5.16089">
        <ele>317.3</ele>
        <time>2012-09-15T07:45:18.000Z</time>
      </trkpt>
      <trkpt lat="44.07891" lon="5.16085">
        <ele>318.1</ele>
        <time>2012-09-15T07:45:20.000Z</time>
      </trkpt>
      <trkpt lat="44.07889" lon="5.16081">
        <ele>318.5</ele>
        <time>2012-09-15T07:45:23.000Z</time>
      </trkpt>
      <trkpt lat="44.07886" lon="5.16078">
        <ele>318.8</ele>
        <time>2012-09-15T07:45:34.000Z</time>
      </trkpt>
      <trkpt lat="44.07886" lon="5.16082">
        <ele>321.1</ele>
        <time>2012-09-15T07:45:43.000Z</time>
      </trkpt>
      <trkpt lat="44.07888" lon="5.16079">
        <ele>319.6</ele>
        <time>2012-09-15T07:46:13.000Z</time>
      </trkpt>
      <trkpt lat="44.07889" lon="5.16075">
        <ele>319.3</ele>
        <time>2012-09-15T07:46:23.000Z</time>
      </trkpt>
      <trkpt lat="44.07891" lon="5.16078">
        <ele>317.5</ele>
        <time>2012-09-15T07:48:11.000Z</time>
      </trkpt>
      <trkpt lat="44.07888" lon="5.1608">
        <ele>320.7</ele>
        <time>2012-09-15T07:48:15.000Z</time>
      </trkpt>
      <trkpt lat="44.07885" lon="5.16077">
        <ele>316</ele>
        <time>2012-09-15T07:49:31.000Z</time>
      </trkpt>
      <trkpt lat="44.07882" lon="5.16075">
        <ele>316.9</ele>
        <time>2012-09-15T07:49:35.000Z</time>
      </trkpt>
      <trkpt lat="44.07885" lon="5.16076">
        <ele>318</ele>
        <time>2012-09-15T07:49:46.000Z</time>
      </trkpt>
      <trkpt lat="44.07883" lon="5.16082">
        <ele>316.5</ele>
        <time>2012-09-15T07:50:11.000Z</time>
      </trkpt>
      <trkpt lat="44.07886" lon="5.16084">
        <ele>316.1</ele>
        <time>2012-09-15T07:50:12.000Z</time>
      </trkpt>
      <trkpt lat="44.07883" lon="5.16078">
        <ele>314.7</ele>
        <time>2012-09-15T07:50:15.000Z</time>
      </trkpt>
      <trkpt lat="44.07886" lon="5.16078">
        <ele>316.7</ele>
        <time>2012-09-15T07:50:39.000Z</time>
      </trkpt>
      <trkpt lat="44.07887" lon="5.16081">
        <ele>316.4</ele>
        <time>2012-09-15T07:51:58.000Z</time>
      </trkpt>
      <trkpt lat="44.07888" lon="5.16085">
        <ele>316.5</ele>
        <time>2012-09-15T07:52:00.000Z</time>
      </trkpt>
      <trkpt lat="44.0789" lon="5.1609">
        <ele>317.7</ele>
        <time>2012-09-15T07:52:03.000Z</time>
      </trkpt>
      <trkpt lat="44.07892" lon="5.16096">
        <ele>318.4</ele>
        <time>2012-09-15T07:52:05.000Z</time>
      </trkpt>
      <trkpt lat="44.07894" lon="5.16099">
        <ele>318.8</ele>
        <time>2012-09-15T07:52:06.000Z</time>
      </trkpt>
      <trkpt lat="44.07896" lon="5.16102">
        <ele>319.2</ele>
        <time>2012-09-15T07:52:07.000Z</time>
      </trkpt>
      <trkpt lat="44.07898" lon="5.16107">
        <ele>320.5</ele>
        <time>2012-09-15T07:52:08.000Z</time>
      </trkpt>
      <trkpt lat="44.07899" lon="5.16111">
        <ele>321.1</ele>
        <time>2012-09-15T07:52:09.000Z</time>
      </trkpt>
      <trkpt lat="44.07901" lon="5.16115">
        <ele>321.6</ele>
        <time>2012-09-15T07:52:10.000Z</time>
      </trkpt>
      <trkpt lat="44.07903" lon="5.16119">
        <ele>321.7</ele>
        <time>2012-09-15T07:52:11.000Z</time>
      </trkpt>
      <trkpt lat="44.07905" lon="5.16125">
        <ele>322.6</ele>
        <time>2012-09-15T07:52:13.000Z</time>
      </trkpt>
      <trkpt lat="44.07906" lon="5.16129">
        <ele>323.1</ele>
        <time>2012-09-15T07:52:14.000Z</time>
      </trkpt>
      <trkpt lat="44.07904" lon="5.16137">
        <ele>324.4</ele>
        <time>2012-09-15T07:52:16.000Z</time>
      </trkpt>
      <trkpt lat="44.07905" lon="5.16145">
        <ele>324.2</ele>
        <time>2012-09-15T07:52:18.000Z</time>
      </trkpt>
      <trkpt lat="44.07906" lon="5.16149">
        <ele>324.2</ele>
        <time>2012-09-15T07:52:19.000Z</time>
      </trkpt>
      <trkpt lat="44.07906" lon="5.16156">
        <ele>324.7</ele>
        <time>2012-09-15T07:52:21.000Z</time>
      </trkpt>
      <trkpt lat="44.07905" lon="5.1616">
        <ele>324.6</ele>
        <time>2012-09-15T07:52:22.000Z</time>
      </trkpt>
      <trkpt lat="44.07902" lon="5.16161">
        <ele>325.5</ele>
        <time>2012-09-15T07:52:23.000Z</time>
      </trkpt>
      <trkpt lat="44.07901" lon="5.16167">
        <ele>326.2</ele>
        <time>2012-09-15T07:52:25.000Z</time>
      </trkpt>
      <trkpt lat="44.07902" lon="5.16175">
        <ele>326</ele>
        <time>2012-09-15T07:52:27.000Z</time>
      </trkpt>
      <trkpt lat="44.07904" lon="5.16179">
        <ele>325.6</ele>
        <time>2012-09-15T07:52:28.000Z</time>
      </trkpt>
      <trkpt lat="44.07903" lon="5.16186">
        <ele>326.9</ele>
        <time>2012-09-15T07:52:29.000Z</time>
      </trkpt>
      <trkpt lat="44.07903" lon="5.16194">
        <ele>328.1</ele>
        <time>2012-09-15T07:52:30.000Z</time>
      </trkpt>
      <trkpt lat="44.07904" lon="5.16199">
        <ele>327.7</ele>
        <time>2012-09-15T07:52:31.000Z</time>
      </trkpt>
      <trkpt lat="44.07904" lon="5.16205">
        <ele>329.1</ele>
        <time>2012-09-15T07:52:32.000Z</time>
      </trkpt>
      <trkpt lat="44.07905" lon="5.1621">
        <ele>329.5</ele>
        <time>2012-09-15T07:52:33.000Z</time>
      </trkpt>
      <trkpt lat="44.07904" lon="5.16216">
        <ele>328.3</ele>
        <time>2012-09-15T07:52:34.000Z</time>
      </trkpt>
      <trkpt lat="44.07903" lon="5.16221">
        <ele>328.5</ele>
        <time>2012-09-15T07:52:35.000Z</time>
      </trkpt>
      <trkpt lat="44.07901" lon="5.16228">
        <ele>327.5</ele>
        <time>2012-09-15T07:52:36.000Z</time>
      </trkpt>
      <trkpt lat="44.079" lon="5.16233">
        <ele>328.9</ele>
        <time>2012-09-15T07:52:37.000Z</time>
      </trkpt>
      <trkpt lat="44.07898" lon="5.16237">
        <ele>329.3</ele>
        <time>2012-09-15T07:52:38.000Z</time>
      </trkpt>
      <trkpt lat="44.07898" lon="5.16242">
        <ele>328.8</ele>
        <time>2012-09-15T07:52:39.000Z</time>
      </trkpt>
      <trkpt lat="44.07898" lon="5.16248">
        <ele>328.7</ele>
        <time>2012-09-15T07:52:40.000Z</time>
      </trkpt>
      <trkpt lat="44.07898" lon="5.16253">
        <ele>329</ele>
        <time>2012-09-15T07:52:41.000Z</time>
      </trkpt>
      <trkpt lat="44.07899" lon="5.16257">
        <ele>329.1</ele>
        <time>2012-09-15T07:52:42.000Z</time>
      </trkpt>
      <trkpt lat="44.079" lon="5.16261">
        <ele>329.1</ele>
        <time>2012-09-15T07:52:43.000Z</time>
      </trkpt>
      <trkpt lat="44.079" lon="5.16267">
        <ele>330.6</ele>
        <time>2012-09-15T07:52:45.000Z</time>
      </trkpt>
      <trkpt lat="44.079" lon="5.16272">
        <ele>331.4</ele>
        <time>2012-09-15T07:52:47.000Z</time>
      </trkpt>
      <trkpt lat="44.079" lon="5.16278">
        <ele>332.5</ele>
        <time>2012-09-15T07:52:49.000Z</time>
      </trkpt>
      <trkpt lat="44.07894" lon="5.1628">
        <ele>334.7</ele>
        <time>2012-09-15T07:52:50.000Z</time>
      </trkpt>
      <trkpt lat="44.07892" lon="5.16284">
        <ele>335</ele>
        <time>2012-09-15T07:52:51.000Z</time>
      </trkpt>
      <trkpt lat="44.07889" lon="5.16286">
        <ele>335.2</ele>
        <time>2012-09-15T07:52:52.000Z</time>
      </trkpt>
      <trkpt lat="44.07886" lon="5.1629">
        <ele>335.2</ele>
        <time>2012-09-15T07:52:54.000Z</time>
      </trkpt>
      <trkpt lat="44.07888" lon="5.16295">
        <ele>337.9</ele>
        <time>2012-09-15T07:52:55.000Z</time>
      </trkpt>
      <trkpt lat="44.07887" lon="5.163">
        <ele>339.5</ele>
        <time>2012-09-15T07:52:57.000Z</time>
      </trkpt>
      <trkpt lat="44.07887" lon="5.16306">
        <ele>339.9</ele>
        <time>2012-09-15T07:52:59.000Z</time>
      </trkpt>
      <trkpt lat="44.07894" lon="5.16308">
        <ele>340.2</ele>
        <time>2012-09-15T07:53:00.000Z</time>
      </trkpt>
      <trkpt lat="44.07898" lon="5.16311">
        <ele>340.5</ele>
        <time>2012-09-15T07:53:02.000Z</time>
      </trkpt>
      <trkpt lat="44.079" lon="5.16315">
        <ele>338.7</ele>
        <time>2012-09-15T07:53:05.000Z</time>
      </trkpt>
      <trkpt lat="44.07902" lon="5.16318">
        <ele>338.6</ele>
        <time>2012-09-15T07:53:07.000Z</time>
      </trkpt>
      <trkpt lat="44.07906" lon="5.16323">
        <ele>338.6</ele>
        <time>2012-09-15T07:53:09.000Z</time>
      </trkpt>
      <trkpt lat="44.07909" lon="5.16326">
        <ele>338.3</ele>
        <time>2012-09-15T07:53:11.000Z</time>
      </trkpt>
      <trkpt lat="44.07912" lon="5.16328">
        <ele>338.7</ele>
        <time>2012-09-15T07:53:13.000Z</time>
      </trkpt>
      <trkpt lat="44.07916" lon="5.16332">
        <ele>338.8</ele>
        <time>2012-09-15T07:53:15.000Z</time>
      </trkpt>
      <trkpt lat="44.07919" lon="5.16333">
        <ele>338.9</ele>
        <time>2012-09-15T07:53:16.000Z</time>
      </trkpt>
      <trkpt lat="44.07921" lon="5.16335">
        <ele>339.2</ele>
        <time>2012-09-15T07:53:17.000Z</time>
      </trkpt>
      <trkpt lat="44.07925" lon="5.16338">
        <ele>340</ele>
        <time>2012-09-15T07:53:19.000Z</time>
      </trkpt>
      <trkpt lat="44.07929" lon="5.16335">
        <ele>341</ele>
        <time>2012-09-15T07:53:21.000Z</time>
      </trkpt>
      <trkpt lat="44.07934" lon="5.16334">
        <ele>340.6</ele>
        <time>2012-09-15T07:53:23.000Z</time>
      </trkpt>
      <trkpt lat="44.07938" lon="5.16332">
        <ele>340.7</ele>
        <time>2012-09-15T07:53:25.000Z</time>
      </trkpt>
      <trkpt lat="44.07941" lon="5.16331">
        <ele>340.6</ele>
        <time>2012-09-15T07:53:26.000Z</time>
      </trkpt>
      <trkpt lat="44.07944" lon="5.16329">
        <ele>340.6</ele>
        <time>2012-09-15T07:53:27.000Z</time>
      </trkpt>
      <trkpt lat="44.07948" lon="5.16327">
        <ele>340.6</ele>
        <time>2012-09-15T07:53:29.000Z</time>
      </trkpt>
      <trkpt lat="44.07952" lon="5.16327">
        <ele>340.1</ele>
        <time>2012-09-15T07:53:31.000Z</time>
      </trkpt>
      <trkpt lat="44.07958" lon="5.16326">
        <ele>340.6</ele>
        <time>2012-09-15T07:53:33.000Z</time>
      </trkpt>
      <trkpt lat="44.07962" lon="5.16325">
        <ele>340.2</ele>
        <time>2012-09-15T07:53:35.000Z</time>
      </trkpt>
      <trkpt lat="44.07966" lon="5.16326">
        <ele>337.2</ele>
        <time>2012-09-15T07:53:36.000Z</time>
      </trkpt>
      <trkpt lat="44.07969" lon="5.16324">
        <ele>339.5</ele>
        <time>2012-09-15T07:53:38.000Z</time>
      </trkpt>
      <trkpt lat="44.0797" lon="5.16331">
        <ele>342.2</ele>
        <time>2012-09-15T07:53:40.000Z</time>
      </trkpt>
      <trkpt lat="44.07971" lon="5.16335">
        <ele>343.9</ele>
        <time>2012-09-15T07:53:42.000Z</time>
      </trkpt>
      <trkpt lat="44.07974" lon="5.16339">
        <ele>343.2</ele>
        <time>2012-09-15T07:53:44.000Z</time>
      </trkpt>
      <trkpt lat="44.07978" lon="5.16342">
        <ele>344</ele>
        <time>2012-09-15T07:53:46.000Z</time>
      </trkpt>
      <trkpt lat="44.0798" lon="5.16345">
        <ele>345.7</ele>
        <time>2012-09-15T07:53:48.000Z</time>
      </trkpt>
      <trkpt lat="44.07981" lon="5.1635">
        <ele>344.9</ele>
        <time>2012-09-15T07:53:50.000Z</time>
      </trkpt>
      <trkpt lat="44.07982" lon="5.16356">
        <ele>345.3</ele>
        <time>2012-09-15T07:53:52.000Z</time>
      </trkpt>
      <trkpt lat="44.07983" lon="5.1636">
        <ele>345</ele>
        <time>2012-09-15T07:53:54.000Z</time>
      </trkpt>
      <trkpt lat="44.07985" lon="5.16364">
        <ele>342.5</ele>
        <time>2012-09-15T07:53:57.000Z</time>
      </trkpt>
      <trkpt lat="44.07988" lon="5.16365">
        <ele>340.1</ele>
        <time>2012-09-15T07:54:01.000Z</time>
      </trkpt>
      <trkpt lat="44.07991" lon="5.16368">
        <ele>337.4</ele>
        <time>2012-09-15T07:54:04.000Z</time>
      </trkpt>
      <trkpt lat="44.07993" lon="5.16371">
        <ele>338.4</ele>
        <time>2012-09-15T07:54:07.000Z</time>
      </trkpt>
      <trkpt lat="44.07994" lon="5.16375">
        <ele>339.2</ele>
        <time>2012-09-15T07:54:11.000Z</time>
      </trkpt>
      <trkpt lat="44.07995" lon="5.16378">
        <ele>340.2</ele>
        <time>2012-09-15T07:54:26.000Z</time>
      </trkpt>
      <trkpt lat="44.07996" lon="5.16382">
        <ele>339.7</ele>
        <time>2012-09-15T07:54:50.000Z</time>
      </trkpt>
      <trkpt lat="44.07995" lon="5.16385">
        <ele>339.3</ele>
        <time>2012-09-15T07:55:02.000Z</time>
      </trkpt>
      <trkpt lat="44.07996" lon="5.1639">
        <ele>340.4</ele>
        <time>2012-09-15T07:55:22.000Z</time>
      </trkpt>
      <trkpt lat="44.07999" lon="5.16395">
        <ele>341.6</ele>
        <time>2012-09-15T07:55:23.000Z</time>
      </trkpt>
      <trkpt lat="44.07998" lon="5.16401">
        <ele>342.5</ele>
        <time>2012-09-15T07:55:25.000Z</time>
      </trkpt>
      <trkpt lat="44.07998" lon="5.16407">
        <ele>342.6</ele>
        <time>2012-09-15T07:55:28.000Z</time>
      </trkpt>
      <trkpt lat="44.07998" lon="5.1641">
        <ele>344.6</ele>
        <time>2012-09-15T07:55:29.000Z</time>
      </trkpt>
      <trkpt lat="44.07997" lon="5.16417">
        <ele>347.2</ele>
        <time>2012-09-15T07:55:32.000Z</time>
      </trkpt>
      <trkpt lat="44.07996" lon="5.16423">
        <ele>346.4</ele>
        <time>2012-09-15T07:55:34.000Z</time>
      </trkpt>
      <trkpt lat="44.07995" lon="5.16427">
        <ele>347.1</ele>
        <time>2012-09-15T07:55:36.000Z</time>
      </trkpt>
      <trkpt lat="44.07998" lon="5.16425">
        <ele>349.3</ele>
        <time>2012-09-15T07:55:40.000Z</time>
      </trkpt>
      <trkpt lat="44.07999" lon="5.16429">
        <ele>350.1</ele>
        <time>2012-09-15T07:55:41.000Z</time>
      </trkpt>
      <trkpt lat="44.07998" lon="5.16433">
        <ele>350.6</ele>
        <time>2012-09-15T07:55:42.000Z</time>
      </trkpt>
      <trkpt lat="44.07998" lon="5.16438">
        <ele>350.6</ele>
        <time>2012-09-15T07:55:43.000Z</time>
      </trkpt>
      <trkpt lat="44.07998" lon="5.16444">
        <ele>350.8</ele>
        <time>2012-09-15T07:55:45.000Z</time>
      </trkpt>
      <trkpt lat="44.07999" lon="5.16452">
        <ele>350.2</ele>
        <time>2012-09-15T07:55:47.000Z</time>
      </trkpt>
      <trkpt lat="44.08001" lon="5.16457">
        <ele>349.9</ele>
        <time>2012-09-15T07:55:48.000Z</time>
      </trkpt>
      <trkpt lat="44.08004" lon="5.16458">
        <ele>349.8</ele>
        <time>2012-09-15T07:55:50.000Z</time>
      </trkpt>
      <trkpt lat="44.08005" lon="5.16463">
        <ele>350.3</ele>
        <time>2012-09-15T07:55:52.000Z</time>
      </trkpt>
      <trkpt lat="44.08007" lon="5.16468">
        <ele>350.6</ele>
        <time>2012-09-15T07:55:53.000Z</time>
      </trkpt>
      <trkpt lat="44.08007" lon="5.16473">
        <ele>350.1</ele>
        <time>2012-09-15T07:55:55.000Z</time>
      </trkpt>
      <trkpt lat="44.08006" lon="5.16478">
        <ele>349.8</ele>
        <time>2012-09-15T07:55:57.000Z</time>
      </trkpt>
      <trkpt lat="44.08005" lon="5.16484">
        <ele>351.4</ele>
        <time>2012-09-15T07:55:59.000Z</time>
      </trkpt>
      <trkpt lat="44.08003" lon="5.16487">
        <ele>353.1</ele>
        <time>2012-09-15T07:56:00.000Z</time>
      </trkpt>
      <trkpt lat="44.08001" lon="5.16489">
        <ele>353.6</ele>
        <time>2012-09-15T07:56:02.000Z</time>
      </trkpt>
      <trkpt lat="44.08003" lon="5.16494">
        <ele>354.3</ele>
        <time>2012-09-15T07:56:04.000Z</time>
      </trkpt>
      <trkpt lat="44.08003" lon="5.165">
        <ele>360.8</ele>
        <time>2012-09-15T07:56:06.000Z</time>
      </trkpt>
      <trkpt lat="44.08005" lon="5.16505">
        <ele>360.6</ele>
        <time>2012-09-15T07:56:08.000Z</time>
      </trkpt>
      <trkpt lat="44.08006" lon="5.1651">
        <ele>361.8</ele>
        <time>2012-09-15T07:56:10.000Z</time>
      </trkpt>
      <trkpt lat="44.08008" lon="5.16516">
        <ele>362.9</ele>
        <time>2012-09-15T07:56:12.000Z</time>
      </trkpt>
      <trkpt lat="44.08008" lon="5.1652">
        <ele>368.4</ele>
        <time>2012-09-15T07:56:14.000Z</time>
      </trkpt>
      <trkpt lat="44.08009" lon="5.16524">
        <ele>372.2</ele>
        <time>2012-09-15T07:56:16.000Z</time>
      </trkpt>
      <trkpt lat="44.08012" lon="5.16526">
        <ele>370.9</ele>
        <time>2012-09-15T07:56:17.000Z</time>
      </trkpt>
      <trkpt lat="44.08015" lon="5.1653">
        <ele>371.6</ele>
        <time>2012-09-15T07:56:19.000Z</time>
      </trkpt>
      <trkpt lat="44.08017" lon="5.16534">
        <ele>374.1</ele>
        <time>2012-09-15T07:56:21.000Z</time>
      </trkpt>
      <trkpt lat="44.08018" lon="5.16538">
        <ele>377.1</ele>
        <time>2012-09-15T07:56:23.000Z</time>
      </trkpt>
      <trkpt lat="44.0802" lon="5.16541">
        <ele>377.8</ele>
        <time>2012-09-15T07:56:25.000Z</time>
      </trkpt>
      <trkpt lat="44.08024" lon="5.16542">
        <ele>381.8</ele>
        <time>2012-09-15T07:56:28.000Z</time>
      </trkpt>
      <trkpt lat="44.08027" lon="5.16541">
        <ele>383.5</ele>
        <time>2012-09-15T07:56:30.000Z</time>
      </trkpt>
      <trkpt lat="44.08031" lon="5.16542">
        <ele>384.5</ele>
        <time>2012-09-15T07:56:32.000Z</time>
      </trkpt>
      <trkpt lat="44.08032" lon="5.16539">
        <ele>384.7</ele>
        <time>2012-09-15T07:56:34.000Z</time>
      </trkpt>
      <trkpt lat="44.08036" lon="5.16536">
        <ele>382.6</ele>
        <time>2012-09-15T07:56:36.000Z</time>
      </trkpt>
      <trkpt lat="44.08042" lon="5.16537">
        <ele>379</ele>
        <time>2012-09-15T07:56:38.000Z</time>
      </trkpt>
      <trkpt lat="44.08045" lon="5.16539">
        <ele>379.2</ele>
        <time>2012-09-15T07:56:40.000Z</time>
      </trkpt>
      <trkpt lat="44.08049" lon="5.16542">
        <ele>377.6</ele>
        <time>2012-09-15T07:56:42.000Z</time>
      </trkpt>
      <trkpt lat="44.08053" lon="5.16544">
        <ele>377.3</ele>
        <time>2012-09-15T07:56:44.000Z</time>
      </trkpt>
      <trkpt lat="44.08056" lon="5.16542">
        <ele>379.8</ele>
        <time>2012-09-15T07:56:47.000Z</time>
      </trkpt>
      <trkpt lat="44.08059" lon="5.16543">
        <ele>379.3</ele>
        <time>2012-09-15T07:56:48.000Z</time>
      </trkpt>
      <trkpt lat="44.08062" lon="5.16547">
        <ele>381.7</ele>
        <time>2012-09-15T07:56:51.000Z</time>
      </trkpt>
      <trkpt lat="44.08066" lon="5.1655">
        <ele>381.1</ele>
        <time>2012-09-15T07:56:53.000Z</time>
      </trkpt>
      <trkpt lat="44.08069" lon="5.16553">
        <ele>381.1</ele>
        <time>2012-09-15T07:56:55.000Z</time>
      </trkpt>
      <trkpt lat="44.08073" lon="5.16555">
        <ele>380.3</ele>
        <time>2012-09-15T07:56:57.000Z</time>
      </trkpt>
      <trkpt lat="44.08078" lon="5.16558">
        <ele>380.1</ele>
        <time>2012-09-15T07:56:59.000Z</time>
      </trkpt>
      <trkpt lat="44.0808" lon="5.1656">
        <ele>381.2</ele>
        <time>2012-09-15T07:57:01.000Z</time>
      </trkpt>
      <trkpt lat="44.08082" lon="5.16562">
        <ele>380.7</ele>
        <time>2012-09-15T07:57:03.000Z</time>
      </trkpt>
      <trkpt lat="44.08084" lon="5.16566">
        <ele>380.7</ele>
        <time>2012-09-15T07:57:05.000Z</time>
      </trkpt>
      <trkpt lat="44.08085" lon="5.16571">
        <ele>379.4</ele>
        <time>2012-09-15T07:57:07.000Z</time>
      </trkpt>
      <trkpt lat="44.08085" lon="5.16576">
        <ele>379.2</ele>
        <time>2012-09-15T07:57:09.000Z</time>
      </trkpt>
      <trkpt lat="44.08091" lon="5.16576">
        <ele>379.3</ele>
        <time>2012-09-15T07:57:12.000Z</time>
      </trkpt>
      <trkpt lat="44.08094" lon="5.16576">
        <ele>378</ele>
        <time>2012-09-15T07:57:14.000Z</time>
      </trkpt>
      <trkpt lat="44.08097" lon="5.16578">
        <ele>381.5</ele>
        <time>2012-09-15T07:57:17.000Z</time>
      </trkpt>
      <trkpt lat="44.08098" lon="5.16582">
        <ele>383.8</ele>
        <time>2012-09-15T07:57:19.000Z</time>
      </trkpt>
      <trkpt lat="44.081" lon="5.16586">
        <ele>384.7</ele>
        <time>2012-09-15T07:57:21.000Z</time>
      </trkpt>
      <trkpt lat="44.08102" lon="5.1659">
        <ele>385.4</ele>
        <time>2012-09-15T07:57:23.000Z</time>
      </trkpt>
      <trkpt lat="44.08106" lon="5.16591">
        <ele>385.3</ele>
        <time>2012-09-15T07:57:25.000Z</time>
      </trkpt>
      <trkpt lat="44.0811" lon="5.16595">
        <ele>384.5</ele>
        <time>2012-09-15T07:57:27.000Z</time>
      </trkpt>
      <trkpt lat="44.08113" lon="5.16596">
        <ele>385.9</ele>
        <time>2012-09-15T07:57:29.000Z</time>
      </trkpt>
      <trkpt lat="44.08116" lon="5.16596">
        <ele>385.4</ele>
        <time>2012-09-15T07:57:30.000Z</time>
      </trkpt>
      <trkpt lat="44.08119" lon="5.166">
        <ele>385.9</ele>
        <time>2012-09-15T07:57:32.000Z</time>
      </trkpt>
      <trkpt lat="44.08122" lon="5.166">
        <ele>384.5</ele>
        <time>2012-09-15T07:57:34.000Z</time>
      </trkpt>
      <trkpt lat="44.08126" lon="5.16599">
        <ele>384.8</ele>
        <time>2012-09-15T07:57:36.000Z</time>
      </trkpt>
      <trkpt lat="44.0813" lon="5.16596">
        <ele>383.7</ele>
        <time>2012-09-15T07:57:38.000Z</time>
      </trkpt>
      <trkpt lat="44.08133" lon="5.16597">
        <ele>381.3</ele>
        <time>2012-09-15T07:57:39.000Z</time>
      </trkpt>
      <trkpt lat="44.08137" lon="5.16598">
        <ele>381.1</ele>
        <time>2012-09-15T07:57:41.000Z</time>
      </trkpt>
      <trkpt lat="44.0814" lon="5.16598">
        <ele>380</ele>
        <time>2012-09-15T07:57:43.000Z</time>
      </trkpt>
      <trkpt lat="44.08143" lon="5.16599">
        <ele>377.1</ele>
        <time>2012-09-15T07:57:44.000Z</time>
      </trkpt>
      <trkpt lat="44.08146" lon="5.16601">
        <ele>377.8</ele>
        <time>2012-09-15T07:57:46.000Z</time>
      </trkpt>
      <trkpt lat="44.08148" lon="5.16604">
        <ele>377.4</ele>
        <time>2012-09-15T07:57:48.000Z</time>
      </trkpt>
      <trkpt lat="44.0815" lon="5.16608">
        <ele>377.4</ele>
        <time>2012-09-15T07:57:51.000Z</time>
      </trkpt>
      <trkpt lat="44.08153" lon="5.16613">
        <ele>374.7</ele>
        <time>2012-09-15T07:57:54.000Z</time>
      </trkpt>
      <trkpt lat="44.08156" lon="5.16613">
        <ele>371.6</ele>
        <time>2012-09-15T07:57:58.000Z</time>
      </trkpt>
      <trkpt lat="44.08159" lon="5.16614">
        <ele>372.7</ele>
        <time>2012-09-15T07:58:00.000Z</time>
      </trkpt>
      <trkpt lat="44.08162" lon="5.16614">
        <ele>372.5</ele>
        <time>2012-09-15T07:58:03.000Z</time>
      </trkpt>
      <trkpt lat="44.08165" lon="5.16614">
        <ele>371.5</ele>
        <time>2012-09-15T07:58:05.000Z</time>
      </trkpt>
      <trkpt lat="44.08168" lon="5.16612">
        <ele>372</ele>
        <time>2012-09-15T07:58:08.000Z</time>
      </trkpt>
      <trkpt lat="44.08171" lon="5.16611">
        <ele>371.5</ele>
        <time>2012-09-15T07:58:11.000Z</time>
      </trkpt>
      <trkpt lat="44.08174" lon="5.1661">
        <ele>371.9</ele>
        <time>2012-09-15T07:58:15.000Z</time>
      </trkpt>
      <trkpt lat="44.08177" lon="5.16611">
        <ele>371.6</ele>
        <time>2012-09-15T07:58:19.000Z</time>
      </trkpt>
      <trkpt lat="44.08179" lon="5.16612">
        <ele>368.5</ele>
        <time>2012-09-15T07:59:26.000Z</time>
      </trkpt>
      <trkpt lat="44.08181" lon="5.1661">
        <ele>367.3</ele>
        <time>2012-09-15T07:59:48.000Z</time>
      </trkpt>
      <trkpt lat="44.08183" lon="5.16612">
        <ele>367.4</ele>
        <time>2012-09-15T08:00:41.000Z</time>
      </trkpt>
      <trkpt lat="44.08185" lon="5.16615">
        <ele>366.8</ele>
        <time>2012-09-15T08:01:11.000Z</time>
      </trkpt>
      <trkpt lat="44.08187" lon="5.16612">
        <ele>366.3</ele>
        <time>2012-09-15T08:02:10.000Z</time>
      </trkpt>
      <trkpt lat="44.0819" lon="5.16611">
        <ele>369.7</ele>
        <time>2012-09-15T08:02:15.000Z</time>
      </trkpt>
      <trkpt lat="44.08189" lon="5.16615">
        <ele>370.5</ele>
        <time>2012-09-15T08:02:18.000Z</time>
      </trkpt>
      <trkpt lat="44.08189" lon="5.16621">
        <ele>370.9</ele>
        <time>2012-09-15T08:02:21.000Z</time>
      </trkpt>
      <trkpt lat="44.0819" lon="5.16625">
        <ele>370.7</ele>
        <time>2012-09-15T08:02:23.000Z</time>
      </trkpt>
      <trkpt lat="44.08188" lon="5.16629">
        <ele>371.9</ele>
        <time>2012-09-15T08:02:26.000Z</time>
      </trkpt>
      <trkpt lat="44.0819" lon="5.16627">
        <ele>370.8</ele>
        <time>2012-09-15T08:02:27.000Z</time>
      </trkpt>
      <trkpt lat="44.08193" lon="5.16627">
        <ele>372.5</ele>
        <time>2012-09-15T08:02:31.000Z</time>
      </trkpt>
      <trkpt lat="44.08196" lon="5.16625">
        <ele>371.8</ele>
        <time>2012-09-15T08:02:33.000Z</time>
      </trkpt>
      <trkpt lat="44.08198" lon="5.16621">
        <ele>371</ele>
        <time>2012-09-15T08:02:35.000Z</time>
      </trkpt>
      <trkpt lat="44.082" lon="5.16618">
        <ele>370.1</ele>
        <time>2012-09-15T08:02:37.000Z</time>
      </trkpt>
      <trkpt lat="44.08202" lon="5.16615">
        <ele>369.9</ele>
        <time>2012-09-15T08:02:39.000Z</time>
      </trkpt>
      <trkpt lat="44.08205" lon="5.16611">
        <ele>368.9</ele>
        <time>2012-09-15T08:02:41.000Z</time>
      </trkpt>
      <trkpt lat="44.0821" lon="5.16606">
        <ele>367.9</ele>
        <time>2012-09-15T08:02:43.000Z</time>
      </trkpt>
      <trkpt lat="44.08213" lon="5.16603">
        <ele>367.7</ele>
        <time>2012-09-15T08:02:45.000Z</time>
      </trkpt>
      <trkpt lat="44.08218" lon="5.16606">
        <ele>365.3</ele>
        <time>2012-09-15T08:02:46.000Z</time>
      </trkpt>
      <trkpt lat="44.08223" lon="5.16606">
        <ele>364.8</ele>
        <time>2012-09-15T08:02:48.000Z</time>
      </trkpt>
      <trkpt lat="44.08226" lon="5.16606">
        <ele>364.8</ele>
        <time>2012-09-15T08:02:49.000Z</time>
      </trkpt>
      <trkpt lat="44.08229" lon="5.16608">
        <ele>365</ele>
        <time>2012-09-15T08:02:50.000Z</time>
      </trkpt>
      <trkpt lat="44.08233" lon="5.16611">
        <ele>364.8</ele>
        <time>2012-09-15T08:02:52.000Z</time>
      </trkpt>
      <trkpt lat="44.08236" lon="5.16614">
        <ele>365</ele>
        <time>2012-09-15T08:02:54.000Z</time>
      </trkpt>
      <trkpt lat="44.08238" lon="5.16618">
        <ele>366.8</ele>
        <time>2012-09-15T08:02:56.000Z</time>
      </trkpt>
      <trkpt lat="44.0824" lon="5.16621">
        <ele>367.5</ele>
        <time>2012-09-15T08:02:58.000Z</time>
      </trkpt>
      <trkpt lat="44.08242" lon="5.16625">
        <ele>366.9</ele>
        <time>2012-09-15T08:02:59.000Z</time>
      </trkpt>
      <trkpt lat="44.08244" lon="5.16628">
        <ele>367.2</ele>
        <time>2012-09-15T08:03:00.000Z</time>
      </trkpt>
      <trkpt lat="44.08246" lon="5.16631">
        <ele>369.4</ele>
        <time>2012-09-15T08:03:02.000Z</time>
      </trkpt>
      <trkpt lat="44.08248" lon="5.16634">
        <ele>370.3</ele>
        <time>2012-09-15T08:03:04.000Z</time>
      </trkpt>
      <trkpt lat="44.08251" lon="5.16637">
        <ele>372.2</ele>
        <time>2012-09-15T08:03:06.000Z</time>
      </trkpt>
      <trkpt lat="44.08254" lon="5.16641">
        <ele>373</ele>
        <time>2012-09-15T08:03:08.000Z</time>
      </trkpt>
      <trkpt lat="44.08257" lon="5.16642">
        <ele>373.8</ele>
        <time>2012-09-15T08:03:09.000Z</time>
      </trkpt>
      <trkpt lat="44.08261" lon="5.16646">
        <ele>374.6</ele>
        <time>2012-09-15T08:03:11.000Z</time>
      </trkpt>
      <trkpt lat="44.08264" lon="5.16648">
        <ele>376.2</ele>
        <time>2012-09-15T08:03:13.000Z</time>
      </trkpt>
      <trkpt lat="44.08267" lon="5.1665">
        <ele>376.6</ele>
        <time>2012-09-15T08:03:14.000Z</time>
      </trkpt>
      <trkpt lat="44.0827" lon="5.16652">
        <ele>377.3</ele>
        <time>2012-09-15T08:03:15.000Z</time>
      </trkpt>
      <trkpt lat="44.08275" lon="5.16654">
        <ele>378.3</ele>
        <time>2012-09-15T08:03:17.000Z</time>
      </trkpt>
      <trkpt lat="44.08277" lon="5.16656">
        <ele>378.5</ele>
        <time>2012-09-15T08:03:18.000Z</time>
      </trkpt>
      <trkpt lat="44.08278" lon="5.16661">
        <ele>381.4</ele>
        <time>2012-09-15T08:03:20.000Z</time>
      </trkpt>
      <trkpt lat="44.08282" lon="5.16664">
        <ele>382.3</ele>
        <time>2012-09-15T08:03:22.000Z</time>
      </trkpt>
      <trkpt lat="44.08285" lon="5.16663">
        <ele>383.2</ele>
        <time>2012-09-15T08:03:23.000Z</time>
      </trkpt>
      <trkpt lat="44.0829" lon="5.16666">
        <ele>384.6</ele>
        <time>2012-09-15T08:03:25.000Z</time>
      </trkpt>
      <trkpt lat="44.08293" lon="5.16668">
        <ele>384.9</ele>
        <time>2012-09-15T08:03:26.000Z</time>
      </trkpt>
      <trkpt lat="44.08297" lon="5.1667">
        <ele>386.1</ele>
        <time>2012-09-15T08:03:28.000Z</time>
      </trkpt>
      <trkpt lat="44.08299" lon="5.16675">
        <ele>385.4</ele>
        <time>2012-09-15T08:03:31.000Z</time>
      </trkpt>
      <trkpt lat="44.083" lon="5.16679">
        <ele>384.6</ele>
        <time>2012-09-15T08:03:33.000Z</time>
      </trkpt>
      <trkpt lat="44.083" lon="5.16683">
        <ele>383.9</ele>
        <time>2012-09-15T08:03:36.000Z</time>
      </trkpt>
      <trkpt lat="44.08298" lon="5.16688">
        <ele>381.1</ele>
        <time>2012-09-15T08:03:39.000Z</time>
      </trkpt>
      <trkpt lat="44.08299" lon="5.16695">
        <ele>380.6</ele>
        <time>2012-09-15T08:03:41.000Z</time>
      </trkpt>
      <trkpt lat="44.08301" lon="5.16698">
        <ele>380.2</ele>
        <time>2012-09-15T08:03:42.000Z</time>
      </trkpt>
      <trkpt lat="44.083" lon="5.16703">
        <ele>379.9</ele>
        <time>2012-09-15T08:03:44.000Z</time>
      </trkpt>
      <trkpt lat="44.083" lon="5.16707">
        <ele>380.1</ele>
        <time>2012-09-15T08:03:46.000Z</time>
      </trkpt>
      <trkpt lat="44.083" lon="5.16713">
        <ele>380.7</ele>
        <time>2012-09-15T08:03:49.000Z</time>
      </trkpt>
      <trkpt lat="44.08297" lon="5.16717">
        <ele>380.3</ele>
        <time>2012-09-15T08:03:51.000Z</time>
      </trkpt>
      <trkpt lat="44.08294" lon="5.16718">
        <ele>379.8</ele>
        <time>2012-09-15T08:03:52.000Z</time>
      </trkpt>
      <trkpt lat="44.08291" lon="5.16722">
        <ele>378.7</ele>
        <time>2012-09-15T08:03:53.000Z</time>
      </trkpt>
      <trkpt lat="44.08292" lon="5.16726">
        <ele>379.4</ele>
        <time>2012-09-15T08:03:56.000Z</time>
      </trkpt>
      <trkpt lat="44.08291" lon="5.1673">
        <ele>380.1</ele>
        <time>2012-09-15T08:03:58.000Z</time>
      </trkpt>
      <trkpt lat="44.08292" lon="5.16734">
        <ele>380.7</ele>
        <time>2012-09-15T08:04:00.000Z</time>
      </trkpt>
      <trkpt lat="44.08295" lon="5.16738">
        <ele>379.6</ele>
        <time>2012-09-15T08:04:03.000Z</time>
      </trkpt>
      <trkpt lat="44.08297" lon="5.16742">
        <ele>381.3</ele>
        <time>2012-09-15T08:04:06.000Z</time>
      </trkpt>
      <trkpt lat="44.083" lon="5.16744">
        <ele>384.6</ele>
        <time>2012-09-15T08:04:09.000Z</time>
      </trkpt>
      <trkpt lat="44.08303" lon="5.16746">
        <ele>385.6</ele>
        <time>2012-09-15T08:04:11.000Z</time>
      </trkpt>
      <trkpt lat="44.08307" lon="5.16747">
        <ele>384.6</ele>
        <time>2012-09-15T08:04:13.000Z</time>
      </trkpt>
      <trkpt lat="44.08312" lon="5.1675">
        <ele>383.5</ele>
        <time>2012-09-15T08:04:15.000Z</time>
      </trkpt>
      <trkpt lat="44.08317" lon="5.1675">
        <ele>383.5</ele>
        <time>2012-09-15T08:04:17.000Z</time>
      </trkpt>
      <trkpt lat="44.08321" lon="5.16751">
        <ele>384.3</ele>
        <time>2012-09-15T08:04:19.000Z</time>
      </trkpt>
      <trkpt lat="44.08324" lon="5.16751">
        <ele>384.7</ele>
        <time>2012-09-15T08:04:21.000Z</time>
      </trkpt>
      <trkpt lat="44.08329" lon="5.16753">
        <ele>382.1</ele>
        <time>2012-09-15T08:04:22.000Z</time>
      </trkpt>
      <trkpt lat="44.08331" lon="5.16754">
        <ele>381.7</ele>
        <time>2012-09-15T08:04:23.000Z</time>
      </trkpt>
      <trkpt lat="44.08334" lon="5.16757">
        <ele>382.4</ele>
        <time>2012-09-15T08:04:25.000Z</time>
      </trkpt>
      <trkpt lat="44.08337" lon="5.1676">
        <ele>390.4</ele>
        <time>2012-09-15T08:04:28.000Z</time>
      </trkpt>
      <trkpt lat="44.08339" lon="5.16764">
        <ele>393.3</ele>
        <time>2012-09-15T08:04:30.000Z</time>
      </trkpt>
      <trkpt lat="44.08341" lon="5.16766">
        <ele>391.8</ele>
        <time>2012-09-15T08:04:32.000Z</time>
      </trkpt>
      <trkpt lat="44.08344" lon="5.16769">
        <ele>391.6</ele>
        <time>2012-09-15T08:04:34.000Z</time>
      </trkpt>
      <trkpt lat="44.08344" lon="5.16774">
        <ele>393.2</ele>
        <time>2012-09-15T08:04:36.000Z</time>
      </trkpt>
      <trkpt lat="44.08345" lon="5.16778">
        <ele>394.9</ele>
        <time>2012-09-15T08:04:38.000Z</time>
      </trkpt>
      <trkpt lat="44.08349" lon="5.16778">
        <ele>392.3</ele>
        <time>2012-09-15T08:04:39.000Z</time>
      </trkpt>
      <trkpt lat="44.08353" lon="5.1678">
        <ele>390.7</ele>
        <time>2012-09-15T08:04:41.000Z</time>
      </trkpt>
      <trkpt lat="44.08359" lon="5.16777">
        <ele>390.7</ele>
        <time>2012-09-15T08:04:43.000Z</time>
      </trkpt>
      <trkpt lat="44.08361" lon="5.16776">
        <ele>390.9</ele>
        <time>2012-09-15T08:04:44.000Z</time>
      </trkpt>
      <trkpt lat="44.08364" lon="5.16774">
        <ele>391</ele>
        <time>2012-09-15T08:04:45.000Z</time>
      </trkpt>
      <trkpt lat="44.08364" lon="5.16767">
        <ele>388.4</ele>
        <time>2012-09-15T08:04:47.000Z</time>
      </trkpt>
      <trkpt lat="44.08366" lon="5.1676">
        <ele>381.6</ele>
        <time>2012-09-15T08:04:49.000Z</time>
      </trkpt>
      <trkpt lat="44.08366" lon="5.16756">
        <ele>379.7</ele>
        <time>2012-09-15T08:04:50.000Z</time>
      </trkpt>
      <trkpt lat="44.08367" lon="5.16752">
        <ele>378.9</ele>
        <time>2012-09-15T08:04:51.000Z</time>
      </trkpt>
      <trkpt lat="44.08367" lon="5.16747">
        <ele>378.4</ele>
        <time>2012-09-15T08:04:52.000Z</time>
      </trkpt>
      <trkpt lat="44.08367" lon="5.16742">
        <ele>377.8</ele>
        <time>2012-09-15T08:04:53.000Z</time>
      </trkpt>
      <trkpt lat="44.08368" lon="5.16736">
        <ele>377.2</ele>
        <time>2012-09-15T08:04:54.000Z</time>
      </trkpt>
      <trkpt lat="44.08368" lon="5.16731">
        <ele>377</ele>
        <time>2012-09-15T08:04:55.000Z</time>
      </trkpt>
      <trkpt lat="44.08374" lon="5.16732">
        <ele>376.6</ele>
        <time>2012-09-15T08:04:56.000Z</time>
      </trkpt>
      <trkpt lat="44.08376" lon="5.16729">
        <ele>376.7</ele>
        <time>2012-09-15T08:04:57.000Z</time>
      </trkpt>
      <trkpt lat="44.08379" lon="5.16728">
        <ele>375.5</ele>
        <time>2012-09-15T08:04:58.000Z</time>
      </trkpt>
      <trkpt lat="44.08383" lon="5.16724">
        <ele>375.3</ele>
        <time>2012-09-15T08:05:00.000Z</time>
      </trkpt>
      <trkpt lat="44.08387" lon="5.16723">
        <ele>374.7</ele>
        <time>2012-09-15T08:05:01.000Z</time>
      </trkpt>
      <trkpt lat="44.08391" lon="5.16721">
        <ele>374</ele>
        <time>2012-09-15T08:05:03.000Z</time>
      </trkpt>
      <trkpt lat="44.08392" lon="5.16725">
        <ele>376</ele>
        <time>2012-09-15T08:05:06.000Z</time>
      </trkpt>
      <trkpt lat="44.08394" lon="5.16729">
        <ele>376.4</ele>
        <time>2012-09-15T08:05:09.000Z</time>
      </trkpt>
      <trkpt lat="44.08397" lon="5.16733">
        <ele>376.1</ele>
        <time>2012-09-15T08:05:11.000Z</time>
      </trkpt>
      <trkpt lat="44.08399" lon="5.16735">
        <ele>378.4</ele>
        <time>2012-09-15T08:05:14.000Z</time>
      </trkpt>
      <trkpt lat="44.08403" lon="5.16738">
        <ele>383.3</ele>
        <time>2012-09-15T08:05:18.000Z</time>
      </trkpt>
      <trkpt lat="44.08405" lon="5.16741">
        <ele>385</ele>
        <time>2012-09-15T08:05:21.000Z</time>
      </trkpt>
      <trkpt lat="44.08407" lon="5.16745">
        <ele>387.2</ele>
        <time>2012-09-15T08:05:24.000Z</time>
      </trkpt>
      <trkpt lat="44.0841" lon="5.16749">
        <ele>386.6</ele>
        <time>2012-09-15T08:05:26.000Z</time>
      </trkpt>
      <trkpt lat="44.08412" lon="5.16752">
        <ele>387.5</ele>
        <time>2012-09-15T08:05:28.000Z</time>
      </trkpt>
      <trkpt lat="44.08415" lon="5.16755">
        <ele>389.2</ele>
        <time>2012-09-15T08:05:31.000Z</time>
      </trkpt>
      <trkpt lat="44.08418" lon="5.16759">
        <ele>390.4</ele>
        <time>2012-09-15T08:05:34.000Z</time>
      </trkpt>
      <trkpt lat="44.0842" lon="5.1676">
        <ele>390.9</ele>
        <time>2012-09-15T08:05:36.000Z</time>
      </trkpt>
      <trkpt lat="44.08421" lon="5.16764">
        <ele>395.3</ele>
        <time>2012-09-15T08:05:39.000Z</time>
      </trkpt>
      <trkpt lat="44.08424" lon="5.16767">
        <ele>395.3</ele>
        <time>2012-09-15T08:05:41.000Z</time>
      </trkpt>
      <trkpt lat="44.08426" lon="5.1677">
        <ele>396.5</ele>
        <time>2012-09-15T08:05:44.000Z</time>
      </trkpt>
      <trkpt lat="44.08428" lon="5.16773">
        <ele>396.3</ele>
        <time>2012-09-15T08:05:47.000Z</time>
      </trkpt>
      <trkpt lat="44.08431" lon="5.16774">
        <ele>396.2</ele>
        <time>2012-09-15T08:05:49.000Z</time>
      </trkpt>
      <trkpt lat="44.08434" lon="5.16776">
        <ele>396.5</ele>
        <time>2012-09-15T08:05:51.000Z</time>
      </trkpt>
      <trkpt lat="44.08436" lon="5.1678">
        <ele>397</ele>
        <time>2012-09-15T08:05:53.000Z</time>
      </trkpt>
      <trkpt lat="44.08438" lon="5.16783">
        <ele>398.4</ele>
        <time>2012-09-15T08:05:55.000Z</time>
      </trkpt>
      <trkpt lat="44.0844" lon="5.16785">
        <ele>399.3</ele>
        <time>2012-09-15T08:05:57.000Z</time>
      </trkpt>
      <trkpt lat="44.08444" lon="5.16788">
        <ele>398.1</ele>
        <time>2012-09-15T08:05:59.000Z</time>
      </trkpt>
      <trkpt lat="44.08447" lon="5.1679">
        <ele>397.9</ele>
        <time>2012-09-15T08:06:01.000Z</time>
      </trkpt>
      <trkpt lat="44.0845" lon="5.16794">
        <ele>398</ele>
        <time>2012-09-15T08:06:04.000Z</time>
      </trkpt>
      <trkpt lat="44.08454" lon="5.16797">
        <ele>397.3</ele>
        <time>2012-09-15T08:06:06.000Z</time>
      </trkpt>
      <trkpt lat="44.08456" lon="5.16799">
        <ele>397.1</ele>
        <time>2012-09-15T08:06:08.000Z</time>
      </trkpt>
      <trkpt lat="44.08459" lon="5.16802">
        <ele>397.7</ele>
        <time>2012-09-15T08:06:10.000Z</time>
      </trkpt>
      <trkpt lat="44.08462" lon="5.16804">
        <ele>396.8</ele>
        <time>2012-09-15T08:06:12.000Z</time>
      </trkpt>
      <trkpt lat="44.08465" lon="5.16807">
        <ele>397</ele>
        <time>2012-09-15T08:06:14.000Z</time>
      </trkpt>
      <trkpt lat="44.08468" lon="5.16809">
        <ele>397.8</ele>
        <time>2012-09-15T08:06:16.000Z</time>
      </trkpt>
      <trkpt lat="44.08471" lon="5.16811">
        <ele>399.6</ele>
        <time>2012-09-15T08:06:18.000Z</time>
      </trkpt>
      <trkpt lat="44.08474" lon="5.16813">
        <ele>399.7</ele>
        <time>2012-09-15T08:06:20.000Z</time>
      </trkpt>
      <trkpt lat="44.08478" lon="5.16814">
        <ele>399.9</ele>
        <time>2012-09-15T08:06:22.000Z</time>
      </trkpt>
      <trkpt lat="44.08481" lon="5.16818">
        <ele>400</ele>
        <time>2012-09-15T08:06:24.000Z</time>
      </trkpt>
      <trkpt lat="44.08482" lon="5.16822">
        <ele>401.2</ele>
        <time>2012-09-15T08:06:27.000Z</time>
      </trkpt>
      <trkpt lat="44.08488" lon="5.16823">
        <ele>400.5</ele>
        <time>2012-09-15T08:06:29.000Z</time>
      </trkpt>
      <trkpt lat="44.08492" lon="5.16824">
        <ele>401.2</ele>
        <time>2012-09-15T08:06:31.000Z</time>
      </trkpt>
      <trkpt lat="44.08495" lon="5.16826">
        <ele>400.6</ele>
        <time>2012-09-15T08:06:33.000Z</time>
      </trkpt>
      <trkpt lat="44.08499" lon="5.16828">
        <ele>401.4</ele>
        <time>2012-09-15T08:06:35.000Z</time>
      </trkpt>
      <trkpt lat="44.08502" lon="5.16829">
        <ele>401.8</ele>
        <time>2012-09-15T08:06:37.000Z</time>
      </trkpt>
      <trkpt lat="44.08505" lon="5.16831">
        <ele>402.1</ele>
        <time>2012-09-15T08:06:39.000Z</time>
      </trkpt>
      <trkpt lat="44.0851" lon="5.16832">
        <ele>402.6</ele>
        <time>2012-09-15T08:06:41.000Z</time>
      </trkpt>
      <trkpt lat="44.08514" lon="5.16832">
        <ele>402.8</ele>
        <time>2012-09-15T08:06:43.000Z</time>
      </trkpt>
      <trkpt lat="44.08518" lon="5.16831">
        <ele>403.1</ele>
        <time>2012-09-15T08:06:45.000Z</time>
      </trkpt>
      <trkpt lat="44.08523" lon="5.1683">
        <ele>402.6</ele>
        <time>2012-09-15T08:06:47.000Z</time>
      </trkpt>
      <trkpt lat="44.08526" lon="5.16829">
        <ele>403.5</ele>
        <time>2012-09-15T08:06:49.000Z</time>
      </trkpt>
      <trkpt lat="44.08532" lon="5.16828">
        <ele>403.6</ele>
        <time>2012-09-15T08:06:51.000Z</time>
      </trkpt>
      <trkpt lat="44.08535" lon="5.16829">
        <ele>403.9</ele>
        <time>2012-09-15T08:06:53.000Z</time>
      </trkpt>
      <trkpt lat="44.0854" lon="5.1683">
        <ele>401.1</ele>
        <time>2012-09-15T08:06:55.000Z</time>
      </trkpt>
      <trkpt lat="44.08546" lon="5.1683">
        <ele>400.5</ele>
        <time>2012-09-15T08:06:57.000Z</time>
      </trkpt>
      <trkpt lat="44.0855" lon="5.16831">
        <ele>397.8</ele>
        <time>2012-09-15T08:06:59.000Z</time>
      </trkpt>
      <trkpt lat="44.08553" lon="5.16832">
        <ele>397.9</ele>
        <time>2012-09-15T08:07:01.000Z</time>
      </trkpt>
      <trkpt lat="44.08558" lon="5.16834">
        <ele>394.7</ele>
        <time>2012-09-15T08:07:03.000Z</time>
      </trkpt>
      <trkpt lat="44.08561" lon="5.16835">
        <ele>394.1</ele>
        <time>2012-09-15T08:07:05.000Z</time>
      </trkpt>
      <trkpt lat="44.08565" lon="5.16837">
        <ele>394</ele>
        <time>2012-09-15T08:07:07.000Z</time>
      </trkpt>
      <trkpt lat="44.08567" lon="5.1684">
        <ele>395.1</ele>
        <time>2012-09-15T08:07:09.000Z</time>
      </trkpt>
      <trkpt lat="44.0857" lon="5.16842">
        <ele>395.5</ele>
        <time>2012-09-15T08:07:11.000Z</time>
      </trkpt>
      <trkpt lat="44.08574" lon="5.16843">
        <ele>396.7</ele>
        <time>2012-09-15T08:07:13.000Z</time>
      </trkpt>
      <trkpt lat="44.08577" lon="5.16845">
        <ele>396.7</ele>
        <time>2012-09-15T08:07:15.000Z</time>
      </trkpt>
      <trkpt lat="44.08581" lon="5.16847">
        <ele>397.4</ele>
        <time>2012-09-15T08:07:17.000Z</time>
      </trkpt>
      <trkpt lat="44.08585" lon="5.16848">
        <ele>397.5</ele>
        <time>2012-09-15T08:07:19.000Z</time>
      </trkpt>
      <trkpt lat="44.08588" lon="5.1685">
        <ele>398</ele>
        <time>2012-09-15T08:07:21.000Z</time>
      </trkpt>
      <trkpt lat="44.08592" lon="5.16852">
        <ele>398.1</ele>
        <time>2012-09-15T08:07:23.000Z</time>
      </trkpt>
      <trkpt lat="44.08595" lon="5.16853">
        <ele>398.6</ele>
        <time>2012-09-15T08:07:26.000Z</time>
      </trkpt>
      <trkpt lat="44.08598" lon="5.16853">
        <ele>397.4</ele>
        <time>2012-09-15T08:07:28.000Z</time>
      </trkpt>
      <trkpt lat="44.08601" lon="5.1685">
        <ele>395.8</ele>
        <time>2012-09-15T08:07:30.000Z</time>
      </trkpt>
      <trkpt lat="44.08604" lon="5.16847">
        <ele>393.4</ele>
        <time>2012-09-15T08:07:32.000Z</time>
      </trkpt>
      <trkpt lat="44.08606" lon="5.16843">
        <ele>392.4</ele>
        <time>2012-09-15T08:07:34.000Z</time>
      </trkpt>
      <trkpt lat="44.08609" lon="5.16839">
        <ele>392.3</ele>
        <time>2012-09-15T08:07:36.000Z</time>
      </trkpt>
      <trkpt lat="44.08611" lon="5.16835">
        <ele>392.1</ele>
        <time>2012-09-15T08:07:38.000Z</time>
      </trkpt>
      <trkpt lat="44.08614" lon="5.1683">
        <ele>391.5</ele>
        <time>2012-09-15T08:07:40.000Z</time>
      </trkpt>
      <trkpt lat="44.08615" lon="5.16827">
        <ele>390.2</ele>
        <time>2012-09-15T08:07:41.000Z</time>
      </trkpt>
      <trkpt lat="44.08618" lon="5.16821">
        <ele>390</ele>
        <time>2012-09-15T08:07:43.000Z</time>
      </trkpt>
      <trkpt lat="44.08621" lon="5.16816">
        <ele>390</ele>
        <time>2012-09-15T08:07:45.000Z</time>
      </trkpt>
      <trkpt lat="44.08623" lon="5.1681">
        <ele>389.4</ele>
        <time>2012-09-15T08:07:47.000Z</time>
      </trkpt>
      <trkpt lat="44.08625" lon="5.16804">
        <ele>389.2</ele>
        <time>2012-09-15T08:07:49.000Z</time>
      </trkpt>
      <trkpt lat="44.08627" lon="5.16798">
        <ele>389.1</ele>
        <time>2012-09-15T08:07:51.000Z</time>
      </trkpt>
      <trkpt lat="44.08629" lon="5.16792">
        <ele>389.2</ele>
        <time>2012-09-15T08:07:53.000Z</time>
      </trkpt>
      <trkpt lat="44.0863" lon="5.16786">
        <ele>389.2</ele>
        <time>2012-09-15T08:07:55.000Z</time>
      </trkpt>
      <trkpt lat="44.08632" lon="5.1678">
        <ele>389.3</ele>
        <time>2012-09-15T08:07:57.000Z</time>
      </trkpt>
      <trkpt lat="44.08634" lon="5.16774">
        <ele>389.4</ele>
        <time>2012-09-15T08:07:59.000Z</time>
      </trkpt>
      <trkpt lat="44.08635" lon="5.16768">
        <ele>389.7</ele>
        <time>2012-09-15T08:08:01.000Z</time>
      </trkpt>
      <trkpt lat="44.08636" lon="5.16762">
        <ele>389.6</ele>
        <time>2012-09-15T08:08:03.000Z</time>
      </trkpt>
      <trkpt lat="44.08638" lon="5.16758">
        <ele>389.4</ele>
        <time>2012-09-15T08:08:05.000Z</time>
      </trkpt>
      <trkpt lat="44.0864" lon="5.16754">
        <ele>389.3</ele>
        <time>2012-09-15T08:08:07.000Z</time>
      </trkpt>
      <trkpt lat="44.08641" lon="5.16749">
        <ele>389.2</ele>
        <time>2012-09-15T08:08:09.000Z</time>
      </trkpt>
      <trkpt lat="44.0864" lon="5.16745">
        <ele>389.6</ele>
        <time>2012-09-15T08:08:11.000Z</time>
      </trkpt>
      <trkpt lat="44.0864" lon="5.1674">
        <ele>390.4</ele>
        <time>2012-09-15T08:08:14.000Z</time>
      </trkpt>
      <trkpt lat="44.08638" lon="5.16736">
        <ele>389.9</ele>
        <time>2012-09-15T08:08:16.000Z</time>
      </trkpt>
      <trkpt lat="44.08633" lon="5.16731">
        <ele>389.5</ele>
        <time>2012-09-15T08:08:18.000Z</time>
      </trkpt>
      <trkpt lat="44.08632" lon="5.16726">
        <ele>389.5</ele>
        <time>2012-09-15T08:08:20.000Z</time>
      </trkpt>
      <trkpt lat="44.08632" lon="5.16722">
        <ele>390.1</ele>
        <time>2012-09-15T08:08:22.000Z</time>
      </trkpt>
      <trkpt lat="44.08633" lon="5.16718">
        <ele>389.7</ele>
        <time>2012-09-15T08:08:24.000Z</time>
      </trkpt>
      <trkpt lat="44.08635" lon="5.16714">
        <ele>391.2</ele>
        <time>2012-09-15T08:08:27.000Z</time>
      </trkpt>
      <trkpt lat="44.08636" lon="5.16711">
        <ele>391.7</ele>
        <time>2012-09-15T08:08:29.000Z</time>
      </trkpt>
      <trkpt lat="44.08638" lon="5.16707">
        <ele>392.6</ele>
        <time>2012-09-15T08:08:33.000Z</time>
      </trkpt>
      <trkpt lat="44.08637" lon="5.16702">
        <ele>392.8</ele>
        <time>2012-09-15T08:08:34.000Z</time>
      </trkpt>
      <trkpt lat="44.08638" lon="5.16698">
        <ele>393.8</ele>
        <time>2012-09-15T08:08:36.000Z</time>
      </trkpt>
      <trkpt lat="44.0864" lon="5.16696">
        <ele>394.2</ele>
        <time>2012-09-15T08:08:39.000Z</time>
      </trkpt>
      <trkpt lat="44.08643" lon="5.16696">
        <ele>394.9</ele>
        <time>2012-09-15T08:08:44.000Z</time>
      </trkpt>
      <trkpt lat="44.08643" lon="5.16692">
        <ele>398.4</ele>
        <time>2012-09-15T08:08:50.000Z</time>
      </trkpt>
      <trkpt lat="44.08641" lon="5.16688">
        <ele>398.6</ele>
        <time>2012-09-15T08:08:53.000Z</time>
      </trkpt>
      <trkpt lat="44.08638" lon="5.16684">
        <ele>399.4</ele>
        <time>2012-09-15T08:08:56.000Z</time>
      </trkpt>
      <trkpt lat="44.08636" lon="5.16681">
        <ele>400.3</ele>
        <time>2012-09-15T08:08:58.000Z</time>
      </trkpt>
      <trkpt lat="44.08634" lon="5.16677">
        <ele>400.3</ele>
        <time>2012-09-15T08:09:00.000Z</time>
      </trkpt>
      <trkpt lat="44.08632" lon="5.16675">
        <ele>400.2</ele>
        <time>2012-09-15T08:09:02.000Z</time>
      </trkpt>
      <trkpt lat="44.08631" lon="5.16671">
        <ele>400.2</ele>
        <time>2012-09-15T08:09:04.000Z</time>
      </trkpt>
      <trkpt lat="44.08626" lon="5.16669">
        <ele>400.6</ele>
        <time>2012-09-15T08:09:06.000Z</time>
      </trkpt>
      <trkpt lat="44.08622" lon="5.16671">
        <ele>399.8</ele>
        <time>2012-09-15T08:09:08.000Z</time>
      </trkpt>
      <trkpt lat="44.08617" lon="5.16671">
        <ele>399.5</ele>
        <time>2012-09-15T08:09:10.000Z</time>
      </trkpt>
      <trkpt lat="44.08613" lon="5.16667">
        <ele>399.2</ele>
        <time>2012-09-15T08:09:12.000Z</time>
      </trkpt>
      <trkpt lat="44.08609" lon="5.16665">
        <ele>398.8</ele>
        <time>2012-09-15T08:09:14.000Z</time>
      </trkpt>
      <trkpt lat="44.08606" lon="5.16661">
        <ele>399</ele>
        <time>2012-09-15T08:09:15.000Z</time>
      </trkpt>
      <trkpt lat="44.08603" lon="5.16659">
        <ele>399.1</ele>
        <time>2012-09-15T08:09:16.000Z</time>
      </trkpt>
      <trkpt lat="44.086" lon="5.16655">
        <ele>399</ele>
        <time>2012-09-15T08:09:18.000Z</time>
      </trkpt>
      <trkpt lat="44.08597" lon="5.16655">
        <ele>401.1</ele>
        <time>2012-09-15T08:09:19.000Z</time>
      </trkpt>
      <trkpt lat="44.08595" lon="5.16654">
        <ele>402.1</ele>
        <time>2012-09-15T08:09:21.000Z</time>
      </trkpt>
      <trkpt lat="44.08591" lon="5.16652">
        <ele>402.9</ele>
        <time>2012-09-15T08:09:24.000Z</time>
      </trkpt>
      <trkpt lat="44.08587" lon="5.16651">
        <ele>403.6</ele>
        <time>2012-09-15T08:09:27.000Z</time>
      </trkpt>
      <trkpt lat="44.08588" lon="5.16647">
        <ele>405.6</ele>
        <time>2012-09-15T08:09:34.000Z</time>
      </trkpt>
      <trkpt lat="44.08586" lon="5.16643">
        <ele>404.9</ele>
        <time>2012-09-15T08:09:37.000Z</time>
      </trkpt>
      <trkpt lat="44.08584" lon="5.16638">
        <ele>404.8</ele>
        <time>2012-09-15T08:09:40.000Z</time>
      </trkpt>
      <trkpt lat="44.08584" lon="5.16634">
        <ele>405</ele>
        <time>2012-09-15T08:09:42.000Z</time>
      </trkpt>
      <trkpt lat="44.08586" lon="5.1663">
        <ele>405.1</ele>
        <time>2012-09-15T08:09:44.000Z</time>
      </trkpt>
      <trkpt lat="44.08589" lon="5.16627">
        <ele>404.9</ele>
        <time>2012-09-15T08:09:46.000Z</time>
      </trkpt>
      <trkpt lat="44.08592" lon="5.16623">
        <ele>404.9</ele>
        <time>2012-09-15T08:09:48.000Z</time>
      </trkpt>
      <trkpt lat="44.08594" lon="5.1662">
        <ele>405</ele>
        <time>2012-09-15T08:09:50.000Z</time>
      </trkpt>
      <trkpt lat="44.08597" lon="5.16616">
        <ele>405.2</ele>
        <time>2012-09-15T08:09:52.000Z</time>
      </trkpt>
      <trkpt lat="44.086" lon="5.16613">
        <ele>405.1</ele>
        <time>2012-09-15T08:09:54.000Z</time>
      </trkpt>
      <trkpt lat="44.08603" lon="5.1661">
        <ele>405.3</ele>
        <time>2012-09-15T08:09:56.000Z</time>
      </trkpt>
      <trkpt lat="44.08607" lon="5.16607">
        <ele>405.1</ele>
        <time>2012-09-15T08:09:58.000Z</time>
      </trkpt>
      <trkpt lat="44.0861" lon="5.16605">
        <ele>405.1</ele>
        <time>2012-09-15T08:10:00.000Z</time>
      </trkpt>
      <trkpt lat="44.08614" lon="5.16601">
        <ele>405.3</ele>
        <time>2012-09-15T08:10:02.000Z</time>
      </trkpt>
      <trkpt lat="44.08617" lon="5.16598">
        <ele>405.1</ele>
        <time>2012-09-15T08:10:04.000Z</time>
      </trkpt>
      <trkpt lat="44.08621" lon="5.16596">
        <ele>404.7</ele>
        <time>2012-09-15T08:10:06.000Z</time>
      </trkpt>
      <trkpt lat="44.08624" lon="5.16592">
        <ele>404.4</ele>
        <time>2012-09-15T08:10:08.000Z</time>
      </trkpt>
      <trkpt lat="44.08627" lon="5.16589">
        <ele>405</ele>
        <time>2012-09-15T08:10:10.000Z</time>
      </trkpt>
      <trkpt lat="44.0863" lon="5.16585">
        <ele>405.6</ele>
        <time>2012-09-15T08:10:12.000Z</time>
      </trkpt>
      <trkpt lat="44.08632" lon="5.16582">
        <ele>403</ele>
        <time>2012-09-15T08:10:14.000Z</time>
      </trkpt>
      <trkpt lat="44.08633" lon="5.16577">
        <ele>403.5</ele>
        <time>2012-09-15T08:10:17.000Z</time>
      </trkpt>
      <trkpt lat="44.0863" lon="5.16574">
        <ele>402.7</ele>
        <time>2012-09-15T08:10:19.000Z</time>
      </trkpt>
      <trkpt lat="44.08627" lon="5.16571">
        <ele>402.6</ele>
        <time>2012-09-15T08:10:21.000Z</time>
      </trkpt>
      <trkpt lat="44.08623" lon="5.16572">
        <ele>404.1</ele>
        <time>2012-09-15T08:10:23.000Z</time>
      </trkpt>
      <trkpt lat="44.0862" lon="5.16572">
        <ele>404.6</ele>
        <time>2012-09-15T08:10:25.000Z</time>
      </trkpt>
      <trkpt lat="44.08616" lon="5.16572">
        <ele>406.1</ele>
        <time>2012-09-15T08:10:27.000Z</time>
      </trkpt>
      <trkpt lat="44.08611" lon="5.16574">
        <ele>409.3</ele>
        <time>2012-09-15T08:10:29.000Z</time>
      </trkpt>
      <trkpt lat="44.08609" lon="5.16571">
        <ele>411.5</ele>
        <time>2012-09-15T08:10:33.000Z</time>
      </trkpt>
      <trkpt lat="44.08607" lon="5.16569">
        <ele>411.3</ele>
        <time>2012-09-15T08:10:36.000Z</time>
      </trkpt>
      <trkpt lat="44.08603" lon="5.16567">
        <ele>413.9</ele>
        <time>2012-09-15T08:10:39.000Z</time>
      </trkpt>
      <trkpt lat="44.08601" lon="5.16564">
        <ele>413.9</ele>
        <time>2012-09-15T08:10:41.000Z</time>
      </trkpt>
      <trkpt lat="44.08597" lon="5.1656">
        <ele>413.7</ele>
        <time>2012-09-15T08:10:43.000Z</time>
      </trkpt>
      <trkpt lat="44.08593" lon="5.16559">
        <ele>413.7</ele>
        <time>2012-09-15T08:10:44.000Z</time>
      </trkpt>
      <trkpt lat="44.08591" lon="5.16556">
        <ele>413.4</ele>
        <time>2012-09-15T08:10:45.000Z</time>
      </trkpt>
      <trkpt lat="44.08588" lon="5.16554">
        <ele>413.1</ele>
        <time>2012-09-15T08:10:46.000Z</time>
      </trkpt>
      <trkpt lat="44.08585" lon="5.16554">
        <ele>412.8</ele>
        <time>2012-09-15T08:10:47.000Z</time>
      </trkpt>
      <trkpt lat="44.08578" lon="5.16551">
        <ele>412.7</ele>
        <time>2012-09-15T08:10:48.000Z</time>
      </trkpt>
      <trkpt lat="44.08575" lon="5.16544">
        <ele>408.7</ele>
        <time>2012-09-15T08:10:49.000Z</time>
      </trkpt>
      <trkpt lat="44.08574" lon="5.16541">
        <ele>407.1</ele>
        <time>2012-09-15T08:10:50.000Z</time>
      </trkpt>
      <trkpt lat="44.08571" lon="5.16537">
        <ele>406.8</ele>
        <time>2012-09-15T08:10:51.000Z</time>
      </trkpt>
      <trkpt lat="44.08567" lon="5.16536">
        <ele>406.5</ele>
        <time>2012-09-15T08:10:52.000Z</time>
      </trkpt>
      <trkpt lat="44.08561" lon="5.16537">
        <ele>404.5</ele>
        <time>2012-09-15T08:10:53.000Z</time>
      </trkpt>
      <trkpt lat="44.08558" lon="5.16536">
        <ele>403.7</ele>
        <time>2012-09-15T08:10:54.000Z</time>
      </trkpt>
      <trkpt lat="44.08554" lon="5.16534">
        <ele>403.2</ele>
        <time>2012-09-15T08:10:55.000Z</time>
      </trkpt>
      <trkpt lat="44.0855" lon="5.16532">
        <ele>402.7</ele>
        <time>2012-09-15T08:10:56.000Z</time>
      </trkpt>
      <trkpt lat="44.08546" lon="5.1653">
        <ele>402.8</ele>
        <time>2012-09-15T08:10:57.000Z</time>
      </trkpt>
      <trkpt lat="44.08541" lon="5.16528">
        <ele>402.9</ele>
        <time>2012-09-15T08:10:58.000Z</time>
      </trkpt>
      <trkpt lat="44.08538" lon="5.16532">
        <ele>402.3</ele>
        <time>2012-09-15T08:10:59.000Z</time>
      </trkpt>
      <trkpt lat="44.08535" lon="5.16534">
        <ele>401.6</ele>
        <time>2012-09-15T08:11:00.000Z</time>
      </trkpt>
      <trkpt lat="44.08531" lon="5.16536">
        <ele>401.1</ele>
        <time>2012-09-15T08:11:01.000Z</time>
      </trkpt>
      <trkpt lat="44.08528" lon="5.16537">
        <ele>400.8</ele>
        <time>2012-09-15T08:11:02.000Z</time>
      </trkpt>
      <trkpt lat="44.08524" lon="5.16537">
        <ele>400.7</ele>
        <time>2012-09-15T08:11:03.000Z</time>
      </trkpt>
      <trkpt lat="44.08521" lon="5.16535">
        <ele>401</ele>
        <time>2012-09-15T08:11:04.000Z</time>
      </trkpt>
      <trkpt lat="44.08517" lon="5.16529">
        <ele>400.2</ele>
        <time>2012-09-15T08:11:06.000Z</time>
      </trkpt>
      <trkpt lat="44.08512" lon="5.1653">
        <ele>399.9</ele>
        <time>2012-09-15T08:11:08.000Z</time>
      </trkpt>
      <trkpt lat="44.08509" lon="5.16534">
        <ele>400.9</ele>
        <time>2012-09-15T08:11:09.000Z</time>
      </trkpt>
      <trkpt lat="44.08504" lon="5.16536">
        <ele>400</ele>
        <time>2012-09-15T08:11:11.000Z</time>
      </trkpt>
      <trkpt lat="44.08501" lon="5.16538">
        <ele>400.3</ele>
        <time>2012-09-15T08:11:12.000Z</time>
      </trkpt>
      <trkpt lat="44.08499" lon="5.16541">
        <ele>400.8</ele>
        <time>2012-09-15T08:11:13.000Z</time>
      </trkpt>
      <trkpt lat="44.08495" lon="5.16546">
        <ele>400.9</ele>
        <time>2012-09-15T08:11:15.000Z</time>
      </trkpt>
      <trkpt lat="44.08494" lon="5.1655">
        <ele>400.7</ele>
        <time>2012-09-15T08:11:16.000Z</time>
      </trkpt>
      <trkpt lat="44.0849" lon="5.16545">
        <ele>397</ele>
        <time>2012-09-15T08:11:19.000Z</time>
      </trkpt>
      <trkpt lat="44.08487" lon="5.16542">
        <ele>395.8</ele>
        <time>2012-09-15T08:11:20.000Z</time>
      </trkpt>
      <trkpt lat="44.08486" lon="5.16536">
        <ele>395.7</ele>
        <time>2012-09-15T08:11:22.000Z</time>
      </trkpt>
      <trkpt lat="44.08485" lon="5.16531">
        <ele>395.9</ele>
        <time>2012-09-15T08:11:24.000Z</time>
      </trkpt>
      <trkpt lat="44.08484" lon="5.16528">
        <ele>398.7</ele>
        <time>2012-09-15T08:11:40.000Z</time>
      </trkpt>
      <trkpt lat="44.08485" lon="5.16524">
        <ele>400</ele>
        <time>2012-09-15T08:11:44.000Z</time>
      </trkpt>
      <trkpt lat="44.08486" lon="5.16521">
        <ele>399.7</ele>
        <time>2012-09-15T08:11:53.000Z</time>
      </trkpt>
      <trkpt lat="44.08484" lon="5.16518">
        <ele>399.5</ele>
        <time>2012-09-15T08:12:54.000Z</time>
      </trkpt>
      <trkpt lat="44.08488" lon="5.16518">
        <ele>400.2</ele>
        <time>2012-09-15T08:13:02.000Z</time>
      </trkpt>
      <trkpt lat="44.0849" lon="5.16516">
        <ele>399.6</ele>
        <time>2012-09-15T08:13:03.000Z</time>
      </trkpt>
      <trkpt lat="44.08495" lon="5.16512">
        <ele>398.6</ele>
        <time>2012-09-15T08:13:05.000Z</time>
      </trkpt>
      <trkpt lat="44.08498" lon="5.1651">
        <ele>397.5</ele>
        <time>2012-09-15T08:13:06.000Z</time>
      </trkpt>
      <trkpt lat="44.08501" lon="5.16508">
        <ele>397.3</ele>
        <time>2012-09-15T08:13:07.000Z</time>
      </trkpt>
      <trkpt lat="44.08504" lon="5.16508">
        <ele>397.1</ele>
        <time>2012-09-15T08:13:08.000Z</time>
      </trkpt>
      <trkpt lat="44.08507" lon="5.16507">
        <ele>397.1</ele>
        <time>2012-09-15T08:13:09.000Z</time>
      </trkpt>
      <trkpt lat="44.08511" lon="5.16506">
        <ele>397.2</ele>
        <time>2012-09-15T08:13:10.000Z</time>
      </trkpt>
      <trkpt lat="44.08515" lon="5.16505">
        <ele>397.5</ele>
        <time>2012-09-15T08:13:11.000Z</time>
      </trkpt>
      <trkpt lat="44.08518" lon="5.16505">
        <ele>397.7</ele>
        <time>2012-09-15T08:13:12.000Z</time>
      </trkpt>
      <trkpt lat="44.08522" lon="5.16504">
        <ele>397.6</ele>
        <time>2012-09-15T08:13:13.000Z</time>
      </trkpt>
      <trkpt lat="44.08525" lon="5.16505">
        <ele>397</ele>
        <time>2012-09-15T08:13:14.000Z</time>
      </trkpt>
      <trkpt lat="44.08528" lon="5.16503">
        <ele>397</ele>
        <time>2012-09-15T08:13:15.000Z</time>
      </trkpt>
      <trkpt lat="44.08533" lon="5.16501">
        <ele>396.2</ele>
        <time>2012-09-15T08:13:17.000Z</time>
      </trkpt>
      <trkpt lat="44.08537" lon="5.16497">
        <ele>396</ele>
        <time>2012-09-15T08:13:19.000Z</time>
      </trkpt>
      <trkpt lat="44.08541" lon="5.16494">
        <ele>396.1</ele>
        <time>2012-09-15T08:13:21.000Z</time>
      </trkpt>
      <trkpt lat="44.08544" lon="5.1649">
        <ele>395.8</ele>
        <time>2012-09-15T08:13:22.000Z</time>
      </trkpt>
      <trkpt lat="44.08546" lon="5.16486">
        <ele>395.1</ele>
        <time>2012-09-15T08:13:23.000Z</time>
      </trkpt>
      <trkpt lat="44.0855" lon="5.16483">
        <ele>394.9</ele>
        <time>2012-09-15T08:13:24.000Z</time>
      </trkpt>
      <trkpt lat="44.08553" lon="5.16479">
        <ele>394.7</ele>
        <time>2012-09-15T08:13:25.000Z</time>
      </trkpt>
      <trkpt lat="44.08557" lon="5.16476">
        <ele>394.6</ele>
        <time>2012-09-15T08:13:26.000Z</time>
      </trkpt>
      <trkpt lat="44.08562" lon="5.16474">
        <ele>394.2</ele>
        <time>2012-09-15T08:13:27.000Z</time>
      </trkpt>
      <trkpt lat="44.08566" lon="5.16471">
        <ele>394.2</ele>
        <time>2012-09-15T08:13:28.000Z</time>
      </trkpt>
      <trkpt lat="44.0857" lon="5.16468">
        <ele>393.7</ele>
        <time>2012-09-15T08:13:29.000Z</time>
      </trkpt>
      <trkpt lat="44.08574" lon="5.16466">
        <ele>393.5</ele>
        <time>2012-09-15T08:13:30.000Z</time>
      </trkpt>
      <trkpt lat="44.08577" lon="5.16464">
        <ele>393.8</ele>
        <time>2012-09-15T08:13:31.000Z</time>
      </trkpt>
      <trkpt lat="44.0858" lon="5.16463">
        <ele>394.2</ele>
        <time>2012-09-15T08:13:32.000Z</time>
      </trkpt>
      <trkpt lat="44.08586" lon="5.16464">
        <ele>394.3</ele>
        <time>2012-09-15T08:13:33.000Z</time>
      </trkpt>
      <trkpt lat="44.08592" lon="5.16462">
        <ele>393.4</ele>
        <time>2012-09-15T08:13:34.000Z</time>
      </trkpt>
      <trkpt lat="44.08598" lon="5.1646">
        <ele>393.3</ele>
        <time>2012-09-15T08:13:35.000Z</time>
      </trkpt>
      <trkpt lat="44.08603" lon="5.16458">
        <ele>393.1</ele>
        <time>2012-09-15T08:13:36.000Z</time>
      </trkpt>
      <trkpt lat="44.08609" lon="5.16456">
        <ele>393.3</ele>
        <time>2012-09-15T08:13:37.000Z</time>
      </trkpt>
      <trkpt lat="44.08614" lon="5.16455">
        <ele>393.3</ele>
        <time>2012-09-15T08:13:38.000Z</time>
      </trkpt>
      <trkpt lat="44.0862" lon="5.16454">
        <ele>392.9</ele>
        <time>2012-09-15T08:13:39.000Z</time>
      </trkpt>
      <trkpt lat="44.08625" lon="5.16452">
        <ele>393.1</ele>
        <time>2012-09-15T08:13:40.000Z</time>
      </trkpt>
      <trkpt lat="44.0863" lon="5.1645">
        <ele>393.3</ele>
        <time>2012-09-15T08:13:41.000Z</time>
      </trkpt>
      <trkpt lat="44.08634" lon="5.16446">
        <ele>392.5</ele>
        <time>2012-09-15T08:13:43.000Z</time>
      </trkpt>
      <trkpt lat="44.08638" lon="5.16441">
        <ele>391.9</ele>
        <time>2012-09-15T08:13:45.000Z</time>
      </trkpt>
      <trkpt lat="44.08635" lon="5.16437">
        <ele>393.1</ele>
        <time>2012-09-15T08:13:46.000Z</time>
      </trkpt>
      <trkpt lat="44.08636" lon="5.16429">
        <ele>392.2</ele>
        <time>2012-09-15T08:13:48.000Z</time>
      </trkpt>
      <trkpt lat="44.08639" lon="5.16424">
        <ele>391.7</ele>
        <time>2012-09-15T08:13:49.000Z</time>
      </trkpt>
      <trkpt lat="44.08642" lon="5.1642">
        <ele>390.9</ele>
        <time>2012-09-15T08:13:50.000Z</time>
      </trkpt>
      <trkpt lat="44.08646" lon="5.16417">
        <ele>390.4</ele>
        <time>2012-09-15T08:13:51.000Z</time>
      </trkpt>
      <trkpt lat="44.0865" lon="5.16414">
        <ele>390.2</ele>
        <time>2012-09-15T08:13:52.000Z</time>
      </trkpt>
      <trkpt lat="44.08655" lon="5.16412">
        <ele>389.9</ele>
        <time>2012-09-15T08:13:53.000Z</time>
      </trkpt>
      <trkpt lat="44.0866" lon="5.16412">
        <ele>389.7</ele>
        <time>2012-09-15T08:13:54.000Z</time>
      </trkpt>
      <trkpt lat="44.08665" lon="5.1641">
        <ele>389.3</ele>
        <time>2012-09-15T08:13:55.000Z</time>
      </trkpt>
      <trkpt lat="44.08671" lon="5.16409">
        <ele>389.1</ele>
        <time>2012-09-15T08:13:56.000Z</time>
      </trkpt>
      <trkpt lat="44.08677" lon="5.16407">
        <ele>388.8</ele>
        <time>2012-09-15T08:13:57.000Z</time>
      </trkpt>
      <trkpt lat="44.08683" lon="5.16406">
        <ele>388.5</ele>
        <time>2012-09-15T08:13:58.000Z</time>
      </trkpt>
      <trkpt lat="44.0869" lon="5.16405">
        <ele>388.4</ele>
        <time>2012-09-15T08:13:59.000Z</time>
      </trkpt>
      <trkpt lat="44.08696" lon="5.16404">
        <ele>387.8</ele>
        <time>2012-09-15T08:14:00.000Z</time>
      </trkpt>
      <trkpt lat="44.08702" lon="5.16404">
        <ele>387.8</ele>
        <time>2012-09-15T08:14:01.000Z</time>
      </trkpt>
      <trkpt lat="44.08708" lon="5.16403">
        <ele>387.5</ele>
        <time>2012-09-15T08:14:02.000Z</time>
      </trkpt>
      <trkpt lat="44.08714" lon="5.16402">
        <ele>387.6</ele>
        <time>2012-09-15T08:14:03.000Z</time>
      </trkpt>
      <trkpt lat="44.0872" lon="5.164">
        <ele>387.7</ele>
        <time>2012-09-15T08:14:04.000Z</time>
      </trkpt>
      <trkpt lat="44.08726" lon="5.16398">
        <ele>387.8</ele>
        <time>2012-09-15T08:14:05.000Z</time>
      </trkpt>
      <trkpt lat="44.0873" lon="5.16396">
        <ele>387.6</ele>
        <time>2012-09-15T08:14:06.000Z</time>
      </trkpt>
      <trkpt lat="44.08736" lon="5.16393">
        <ele>387.6</ele>
        <time>2012-09-15T08:14:07.000Z</time>
      </trkpt>
      <trkpt lat="44.08742" lon="5.1639">
        <ele>388.1</ele>
        <time>2012-09-15T08:14:08.000Z</time>
      </trkpt>
      <trkpt lat="44.08746" lon="5.16388">
        <ele>387.8</ele>
        <time>2012-09-15T08:14:09.000Z</time>
      </trkpt>
      <trkpt lat="44.08751" lon="5.16386">
        <ele>387.5</ele>
        <time>2012-09-15T08:14:10.000Z</time>
      </trkpt>
      <trkpt lat="44.08753" lon="5.16381">
        <ele>389.2</ele>
        <time>2012-09-15T08:14:12.000Z</time>
      </trkpt>
      <trkpt lat="44.08756" lon="5.16377">
        <ele>389.8</ele>
        <time>2012-09-15T08:14:14.000Z</time>
      </trkpt>
      <trkpt lat="44.08758" lon="5.16375">
        <ele>389.9</ele>
        <time>2012-09-15T08:14:15.000Z</time>
      </trkpt>
      <trkpt lat="44.08764" lon="5.16377">
        <ele>390.8</ele>
        <time>2012-09-15T08:14:16.000Z</time>
      </trkpt>
      <trkpt lat="44.08768" lon="5.16377">
        <ele>391.4</ele>
        <time>2012-09-15T08:14:17.000Z</time>
      </trkpt>
      <trkpt lat="44.08772" lon="5.16377">
        <ele>391.7</ele>
        <time>2012-09-15T08:14:18.000Z</time>
      </trkpt>
      <trkpt lat="44.08775" lon="5.16378">
        <ele>392</ele>
        <time>2012-09-15T08:14:19.000Z</time>
      </trkpt>
      <trkpt lat="44.08779" lon="5.1638">
        <ele>392.4</ele>
        <time>2012-09-15T08:14:20.000Z</time>
      </trkpt>
      <trkpt lat="44.08782" lon="5.16382">
        <ele>392.6</ele>
        <time>2012-09-15T08:14:21.000Z</time>
      </trkpt>
      <trkpt lat="44.08787" lon="5.16382">
        <ele>392.8</ele>
        <time>2012-09-15T08:14:22.000Z</time>
      </trkpt>
      <trkpt lat="44.08791" lon="5.16378">
        <ele>396.2</ele>
        <time>2012-09-15T08:14:23.000Z</time>
      </trkpt>
      <trkpt lat="44.08795" lon="5.16379">
        <ele>397.4</ele>
        <time>2012-09-15T08:14:24.000Z</time>
      </trkpt>
      <trkpt lat="44.08797" lon="5.16379">
        <ele>398.8</ele>
        <time>2012-09-15T08:14:25.000Z</time>
      </trkpt>
      <trkpt lat="44.088" lon="5.16379">
        <ele>400.4</ele>
        <time>2012-09-15T08:14:26.000Z</time>
      </trkpt>
      <trkpt lat="44.08805" lon="5.16382">
        <ele>400.1</ele>
        <time>2012-09-15T08:14:28.000Z</time>
      </trkpt>
      <trkpt lat="44.08808" lon="5.16384">
        <ele>401.7</ele>
        <time>2012-09-15T08:14:30.000Z</time>
      </trkpt>
      <trkpt lat="44.08805" lon="5.16387">
        <ele>405.4</ele>
        <time>2012-09-15T08:14:33.000Z</time>
      </trkpt>
      <trkpt lat="44.08803" lon="5.1639">
        <ele>405.7</ele>
        <time>2012-09-15T08:14:35.000Z</time>
      </trkpt>
      <trkpt lat="44.08799" lon="5.16388">
        <ele>405.4</ele>
        <time>2012-09-15T08:14:36.000Z</time>
      </trkpt>
      <trkpt lat="44.08795" lon="5.16389">
        <ele>406.3</ele>
        <time>2012-09-15T08:14:38.000Z</time>
      </trkpt>
      <trkpt lat="44.08793" lon="5.16396">
        <ele>407.3</ele>
        <time>2012-09-15T08:14:40.000Z</time>
      </trkpt>
      <trkpt lat="44.08793" lon="5.164">
        <ele>406</ele>
        <time>2012-09-15T08:14:41.000Z</time>
      </trkpt>
      <trkpt lat="44.08792" lon="5.16404">
        <ele>406.5</ele>
        <time>2012-09-15T08:14:43.000Z</time>
      </trkpt>
      <trkpt lat="44.08795" lon="5.16405">
        <ele>405.4</ele>
        <time>2012-09-15T08:14:44.000Z</time>
      </trkpt>
      <trkpt lat="44.088" lon="5.16407">
        <ele>402.6</ele>
        <time>2012-09-15T08:14:46.000Z</time>
      </trkpt>
      <trkpt lat="44.08805" lon="5.16407">
        <ele>401</ele>
        <time>2012-09-15T08:14:48.000Z</time>
      </trkpt>
      <trkpt lat="44.08808" lon="5.16406">
        <ele>399.9</ele>
        <time>2012-09-15T08:14:49.000Z</time>
      </trkpt>
      <trkpt lat="44.08811" lon="5.16404">
        <ele>399.2</ele>
        <time>2012-09-15T08:14:50.000Z</time>
      </trkpt>
      <trkpt lat="44.08813" lon="5.16403">
        <ele>399</ele>
        <time>2012-09-15T08:14:51.000Z</time>
      </trkpt>
      <trkpt lat="44.08816" lon="5.16403">
        <ele>397.7</ele>
        <time>2012-09-15T08:14:52.000Z</time>
      </trkpt>
      <trkpt lat="44.0882" lon="5.16402">
        <ele>396.3</ele>
        <time>2012-09-15T08:14:53.000Z</time>
      </trkpt>
      <trkpt lat="44.08823" lon="5.16403">
        <ele>396.1</ele>
        <time>2012-09-15T08:14:54.000Z</time>
      </trkpt>
      <trkpt lat="44.08826" lon="5.16404">
        <ele>394.6</ele>
        <time>2012-09-15T08:14:55.000Z</time>
      </trkpt>
      <trkpt lat="44.08829" lon="5.16404">
        <ele>393.6</ele>
        <time>2012-09-15T08:14:56.000Z</time>
      </trkpt>
      <trkpt lat="44.08832" lon="5.16404">
        <ele>393.5</ele>
        <time>2012-09-15T08:14:57.000Z</time>
      </trkpt>
      <trkpt lat="44.08836" lon="5.16403">
        <ele>393.3</ele>
        <time>2012-09-15T08:14:58.000Z</time>
      </trkpt>
      <trkpt lat="44.08839" lon="5.16402">
        <ele>392.8</ele>
        <time>2012-09-15T08:14:59.000Z</time>
      </trkpt>
      <trkpt lat="44.08842" lon="5.16402">
        <ele>392.9</ele>
        <time>2012-09-15T08:15:00.000Z</time>
      </trkpt>
      <trkpt lat="44.08845" lon="5.16403">
        <ele>392.7</ele>
        <time>2012-09-15T08:15:01.000Z</time>
      </trkpt>
      <trkpt lat="44.08848" lon="5.16403">
        <ele>391.8</ele>
        <time>2012-09-15T08:15:04.000Z</time>
      </trkpt>
      <trkpt lat="44.08853" lon="5.16404">
        <ele>391.7</ele>
        <time>2012-09-15T08:15:06.000Z</time>
      </trkpt>
      <trkpt lat="44.08857" lon="5.16405">
        <ele>391.2</ele>
        <time>2012-09-15T08:15:08.000Z</time>
      </trkpt>
      <trkpt lat="44.08861" lon="5.16406">
        <ele>391.3</ele>
        <time>2012-09-15T08:15:10.000Z</time>
      </trkpt>
      <trkpt lat="44.08865" lon="5.16407">
        <ele>391.6</ele>
        <time>2012-09-15T08:15:12.000Z</time>
      </trkpt>
      <trkpt lat="44.08868" lon="5.16412">
        <ele>391.2</ele>
        <time>2012-09-15T08:15:14.000Z</time>
      </trkpt>
      <trkpt lat="44.08869" lon="5.16416">
        <ele>391.2</ele>
        <time>2012-09-15T08:15:15.000Z</time>
      </trkpt>
      <trkpt lat="44.08872" lon="5.16418">
        <ele>391.3</ele>
        <time>2012-09-15T08:15:16.000Z</time>
      </trkpt>
      <trkpt lat="44.08876" lon="5.16419">
        <ele>391.4</ele>
        <time>2012-09-15T08:15:17.000Z</time>
      </trkpt>
      <trkpt lat="44.08878" lon="5.16422">
        <ele>391.4</ele>
        <time>2012-09-15T08:15:18.000Z</time>
      </trkpt>
      <trkpt lat="44.08882" lon="5.16426">
        <ele>392.1</ele>
        <time>2012-09-15T08:15:20.000Z</time>
      </trkpt>
      <trkpt lat="44.08882" lon="5.1643">
        <ele>393.3</ele>
        <time>2012-09-15T08:15:22.000Z</time>
      </trkpt>
      <trkpt lat="44.08881" lon="5.16436">
        <ele>397.1</ele>
        <time>2012-09-15T08:15:25.000Z</time>
      </trkpt>
      <trkpt lat="44.08884" lon="5.16433">
        <ele>395.1</ele>
        <time>2012-09-15T08:15:26.000Z</time>
      </trkpt>
      <trkpt lat="44.08889" lon="5.16428">
        <ele>394.1</ele>
        <time>2012-09-15T08:15:28.000Z</time>
      </trkpt>
      <trkpt lat="44.08892" lon="5.16426">
        <ele>393.5</ele>
        <time>2012-09-15T08:15:29.000Z</time>
      </trkpt>
      <trkpt lat="44.08895" lon="5.16424">
        <ele>393.9</ele>
        <time>2012-09-15T08:15:31.000Z</time>
      </trkpt>
      <trkpt lat="44.08894" lon="5.16427">
        <ele>393</ele>
        <time>2012-09-15T08:15:44.000Z</time>
      </trkpt>
      <trkpt lat="44.08895" lon="5.16431">
        <ele>392.9</ele>
        <time>2012-09-15T08:15:45.000Z</time>
      </trkpt>
      <trkpt lat="44.08894" lon="5.16437">
        <ele>392.7</ele>
        <time>2012-09-15T08:15:46.000Z</time>
      </trkpt>
      <trkpt lat="44.08892" lon="5.1644">
        <ele>393.2</ele>
        <time>2012-09-15T08:15:47.000Z</time>
      </trkpt>
      <trkpt lat="44.08894" lon="5.16444">
        <ele>393</ele>
        <time>2012-09-15T08:15:48.000Z</time>
      </trkpt>
      <trkpt lat="44.08893" lon="5.16452">
        <ele>393.8</ele>
        <time>2012-09-15T08:15:51.000Z</time>
      </trkpt>
      <trkpt lat="44.08898" lon="5.16452">
        <ele>393.4</ele>
        <time>2012-09-15T08:15:52.000Z</time>
      </trkpt>
      <trkpt lat="44.08898" lon="5.16443">
        <ele>393.6</ele>
        <time>2012-09-15T08:15:53.000Z</time>
      </trkpt>
      <trkpt lat="44.08897" lon="5.16439">
        <ele>393.5</ele>
        <time>2012-09-15T08:15:56.000Z</time>
      </trkpt>
      <trkpt lat="44.08898" lon="5.16435">
        <ele>393.9</ele>
        <time>2012-09-15T08:16:03.000Z</time>
      </trkpt>
      <trkpt lat="44.08892" lon="5.16432">
        <ele>394</ele>
        <time>2012-09-15T08:16:04.000Z</time>
      </trkpt>
      <trkpt lat="44.08886" lon="5.16428">
        <ele>393.9</ele>
        <time>2012-09-15T08:16:05.000Z</time>
      </trkpt>
      <trkpt lat="44.08883" lon="5.16425">
        <ele>396.8</ele>
        <time>2012-09-15T08:16:10.000Z</time>
      </trkpt>
      <trkpt lat="44.0888" lon="5.16426">
        <ele>397.2</ele>
        <time>2012-09-15T08:16:11.000Z</time>
      </trkpt>
      <trkpt lat="44.08881" lon="5.16421">
        <ele>398.6</ele>
        <time>2012-09-15T08:16:14.000Z</time>
      </trkpt>
      <trkpt lat="44.08883" lon="5.16416">
        <ele>398.1</ele>
        <time>2012-09-15T08:16:16.000Z</time>
      </trkpt>
      <trkpt lat="44.08886" lon="5.16414">
        <ele>398</ele>
        <time>2012-09-15T08:16:17.000Z</time>
      </trkpt>
      <trkpt lat="44.08886" lon="5.16418">
        <ele>398.9</ele>
        <time>2012-09-15T08:16:19.000Z</time>
      </trkpt>
      <trkpt lat="44.08885" lon="5.16422">
        <ele>400.9</ele>
        <time>2012-09-15T08:16:25.000Z</time>
      </trkpt>
      <trkpt lat="44.08887" lon="5.16425">
        <ele>397.6</ele>
        <time>2012-09-15T08:16:51.000Z</time>
      </trkpt>
      <trkpt lat="44.08888" lon="5.16431">
        <ele>394.8</ele>
        <time>2012-09-15T08:17:09.000Z</time>
      </trkpt>
      <trkpt lat="44.08889" lon="5.16428">
        <ele>395.9</ele>
        <time>2012-09-15T08:17:21.000Z</time>
      </trkpt>
      <trkpt lat="44.08895" lon="5.16424">
        <ele>397.9</ele>
        <time>2012-09-15T08:17:22.000Z</time>
      </trkpt>
      <trkpt lat="44.08898" lon="5.16422">
        <ele>396.9</ele>
        <time>2012-09-15T08:17:23.000Z</time>
      </trkpt>
      <trkpt lat="44.08903" lon="5.16416">
        <ele>395.8</ele>
        <time>2012-09-15T08:17:24.000Z</time>
      </trkpt>
      <trkpt lat="44.08905" lon="5.16412">
        <ele>395.7</ele>
        <time>2012-09-15T08:17:25.000Z</time>
      </trkpt>
      <trkpt lat="44.08908" lon="5.16408">
        <ele>396</ele>
        <time>2012-09-15T08:17:26.000Z</time>
      </trkpt>
      <trkpt lat="44.08909" lon="5.16404">
        <ele>395.2</ele>
        <time>2012-09-15T08:17:27.000Z</time>
      </trkpt>
      <trkpt lat="44.08912" lon="5.16398">
        <ele>391.4</ele>
        <time>2012-09-15T08:17:29.000Z</time>
      </trkpt>
      <trkpt lat="44.08914" lon="5.16394">
        <ele>389.5</ele>
        <time>2012-09-15T08:17:30.000Z</time>
      </trkpt>
      <trkpt lat="44.08916" lon="5.1639">
        <ele>389.1</ele>
        <time>2012-09-15T08:17:31.000Z</time>
      </trkpt>
      <trkpt lat="44.08918" lon="5.16386">
        <ele>389</ele>
        <time>2012-09-15T08:17:32.000Z</time>
      </trkpt>
      <trkpt lat="44.0892" lon="5.16382">
        <ele>387.6</ele>
        <time>2012-09-15T08:17:33.000Z</time>
      </trkpt>
      <trkpt lat="44.08922" lon="5.16378">
        <ele>386.5</ele>
        <time>2012-09-15T08:17:34.000Z</time>
      </trkpt>
      <trkpt lat="44.08924" lon="5.16373">
        <ele>386.4</ele>
        <time>2012-09-15T08:17:35.000Z</time>
      </trkpt>
      <trkpt lat="44.08926" lon="5.1637">
        <ele>386.5</ele>
        <time>2012-09-15T08:17:36.000Z</time>
      </trkpt>
      <trkpt lat="44.08924" lon="5.16366">
        <ele>388.7</ele>
        <time>2012-09-15T08:17:37.000Z</time>
      </trkpt>
      <trkpt lat="44.08926" lon="5.16362">
        <ele>387.6</ele>
        <time>2012-09-15T08:17:38.000Z</time>
      </trkpt>
      <trkpt lat="44.08925" lon="5.16358">
        <ele>387.3</ele>
        <time>2012-09-15T08:17:39.000Z</time>
      </trkpt>
      <trkpt lat="44.08924" lon="5.16354">
        <ele>386.4</ele>
        <time>2012-09-15T08:17:40.000Z</time>
      </trkpt>
      <trkpt lat="44.08923" lon="5.16348">
        <ele>386.2</ele>
        <time>2012-09-15T08:17:42.000Z</time>
      </trkpt>
      <trkpt lat="44.08927" lon="5.16348">
        <ele>385.7</ele>
        <time>2012-09-15T08:17:43.000Z</time>
      </trkpt>
      <trkpt lat="44.0893" lon="5.16347">
        <ele>384.3</ele>
        <time>2012-09-15T08:17:45.000Z</time>
      </trkpt>
      <trkpt lat="44.08934" lon="5.16346">
        <ele>382.9</ele>
        <time>2012-09-15T08:17:47.000Z</time>
      </trkpt>
      <trkpt lat="44.08939" lon="5.16342">
        <ele>381.4</ele>
        <time>2012-09-15T08:17:49.000Z</time>
      </trkpt>
      <trkpt lat="44.08941" lon="5.16336">
        <ele>382.2</ele>
        <time>2012-09-15T08:17:51.000Z</time>
      </trkpt>
      <trkpt lat="44.08942" lon="5.16332">
        <ele>381.9</ele>
        <time>2012-09-15T08:17:52.000Z</time>
      </trkpt>
      <trkpt lat="44.08945" lon="5.16325">
        <ele>381.1</ele>
        <time>2012-09-15T08:17:54.000Z</time>
      </trkpt>
      <trkpt lat="44.08947" lon="5.16321">
        <ele>380.1</ele>
        <time>2012-09-15T08:17:55.000Z</time>
      </trkpt>
      <trkpt lat="44.08949" lon="5.16316">
        <ele>379.7</ele>
        <time>2012-09-15T08:17:57.000Z</time>
      </trkpt>
      <trkpt lat="44.08951" lon="5.16312">
        <ele>378.1</ele>
        <time>2012-09-15T08:17:59.000Z</time>
      </trkpt>
      <trkpt lat="44.08953" lon="5.16306">
        <ele>376.2</ele>
        <time>2012-09-15T08:18:01.000Z</time>
      </trkpt>
      <trkpt lat="44.08956" lon="5.163">
        <ele>375.3</ele>
        <time>2012-09-15T08:18:03.000Z</time>
      </trkpt>
      <trkpt lat="44.0896" lon="5.16297">
        <ele>373.9</ele>
        <time>2012-09-15T08:18:05.000Z</time>
      </trkpt>
      <trkpt lat="44.08964" lon="5.16293">
        <ele>372.6</ele>
        <time>2012-09-15T08:18:07.000Z</time>
      </trkpt>
      <trkpt lat="44.08967" lon="5.16288">
        <ele>372.4</ele>
        <time>2012-09-15T08:18:09.000Z</time>
      </trkpt>
      <trkpt lat="44.08969" lon="5.16286">
        <ele>371.9</ele>
        <time>2012-09-15T08:18:10.000Z</time>
      </trkpt>
      <trkpt lat="44.08971" lon="5.1628">
        <ele>371.4</ele>
        <time>2012-09-15T08:18:12.000Z</time>
      </trkpt>
      <trkpt lat="44.08972" lon="5.16276">
        <ele>371</ele>
        <time>2012-09-15T08:18:14.000Z</time>
      </trkpt>
      <trkpt lat="44.08974" lon="5.16274">
        <ele>371.2</ele>
        <time>2012-09-15T08:18:16.000Z</time>
      </trkpt>
      <trkpt lat="44.08977" lon="5.16273">
        <ele>375.9</ele>
        <time>2012-09-15T08:18:22.000Z</time>
      </trkpt>
      <trkpt lat="44.08979" lon="5.16275">
        <ele>379.8</ele>
        <time>2012-09-15T08:18:31.000Z</time>
      </trkpt>
      <trkpt lat="44.08982" lon="5.16276">
        <ele>380.3</ele>
        <time>2012-09-15T08:18:38.000Z</time>
      </trkpt>
      <trkpt lat="44.08986" lon="5.16279">
        <ele>380.9</ele>
        <time>2012-09-15T08:18:41.000Z</time>
      </trkpt>
      <trkpt lat="44.08989" lon="5.1628">
        <ele>379.6</ele>
        <time>2012-09-15T08:18:47.000Z</time>
      </trkpt>
      <trkpt lat="44.08993" lon="5.16277">
        <ele>380</ele>
        <time>2012-09-15T08:18:50.000Z</time>
      </trkpt>
      <trkpt lat="44.08996" lon="5.16274">
        <ele>380</ele>
        <time>2012-09-15T08:18:52.000Z</time>
      </trkpt>
      <trkpt lat="44.09" lon="5.16268">
        <ele>379.3</ele>
        <time>2012-09-15T08:18:54.000Z</time>
      </trkpt>
      <trkpt lat="44.09002" lon="5.16265">
        <ele>379</ele>
        <time>2012-09-15T08:18:55.000Z</time>
      </trkpt>
      <trkpt lat="44.09004" lon="5.16262">
        <ele>378.9</ele>
        <time>2012-09-15T08:18:56.000Z</time>
      </trkpt>
      <trkpt lat="44.09007" lon="5.16255">
        <ele>378.6</ele>
        <time>2012-09-15T08:18:58.000Z</time>
      </trkpt>
      <trkpt lat="44.0901" lon="5.16252">
        <ele>378.4</ele>
        <time>2012-09-15T08:18:59.000Z</time>
      </trkpt>
      <trkpt lat="44.09013" lon="5.16249">
        <ele>377.8</ele>
        <time>2012-09-15T08:19:00.000Z</time>
      </trkpt>
      <trkpt lat="44.09012" lon="5.16243">
        <ele>376.3</ele>
        <time>2012-09-15T08:19:01.000Z</time>
      </trkpt>
      <trkpt lat="44.09015" lon="5.1624">
        <ele>374.9</ele>
        <time>2012-09-15T08:19:02.000Z</time>
      </trkpt>
      <trkpt lat="44.09018" lon="5.16237">
        <ele>374.3</ele>
        <time>2012-09-15T08:19:03.000Z</time>
      </trkpt>
      <trkpt lat="44.0902" lon="5.16235">
        <ele>374</ele>
        <time>2012-09-15T08:19:04.000Z</time>
      </trkpt>
      <trkpt lat="44.09023" lon="5.1623">
        <ele>373.3</ele>
        <time>2012-09-15T08:19:06.000Z</time>
      </trkpt>
      <trkpt lat="44.09024" lon="5.16227">
        <ele>372.9</ele>
        <time>2012-09-15T08:19:07.000Z</time>
      </trkpt>
      <trkpt lat="44.09026" lon="5.16224">
        <ele>373.3</ele>
        <time>2012-09-15T08:19:08.000Z</time>
      </trkpt>
      <trkpt lat="44.09028" lon="5.1622">
        <ele>372.8</ele>
        <time>2012-09-15T08:19:09.000Z</time>
      </trkpt>
      <trkpt lat="44.0903" lon="5.16217">
        <ele>372.3</ele>
        <time>2012-09-15T08:19:10.000Z</time>
      </trkpt>
      <trkpt lat="44.09031" lon="5.16213">
        <ele>372.9</ele>
        <time>2012-09-15T08:19:11.000Z</time>
      </trkpt>
      <trkpt lat="44.09033" lon="5.1621">
        <ele>372.7</ele>
        <time>2012-09-15T08:19:12.000Z</time>
      </trkpt>
      <trkpt lat="44.09034" lon="5.16206">
        <ele>373.2</ele>
        <time>2012-09-15T08:19:13.000Z</time>
      </trkpt>
      <trkpt lat="44.09035" lon="5.16203">
        <ele>373.2</ele>
        <time>2012-09-15T08:19:14.000Z</time>
      </trkpt>
      <trkpt lat="44.09037" lon="5.16199">
        <ele>373</ele>
        <time>2012-09-15T08:19:15.000Z</time>
      </trkpt>
      <trkpt lat="44.09039" lon="5.16193">
        <ele>373.7</ele>
        <time>2012-09-15T08:19:17.000Z</time>
      </trkpt>
      <trkpt lat="44.09041" lon="5.1619">
        <ele>374</ele>
        <time>2012-09-15T08:19:18.000Z</time>
      </trkpt>
      <trkpt lat="44.09042" lon="5.16186">
        <ele>374.3</ele>
        <time>2012-09-15T08:19:19.000Z</time>
      </trkpt>
      <trkpt lat="44.09044" lon="5.16183">
        <ele>374.5</ele>
        <time>2012-09-15T08:19:20.000Z</time>
      </trkpt>
      <trkpt lat="44.09045" lon="5.16177">
        <ele>375.3</ele>
        <time>2012-09-15T08:19:22.000Z</time>
      </trkpt>
      <trkpt lat="44.09049" lon="5.16175">
        <ele>375.1</ele>
        <time>2012-09-15T08:19:24.000Z</time>
      </trkpt>
      <trkpt lat="44.09052" lon="5.16173">
        <ele>376.1</ele>
        <time>2012-09-15T08:19:26.000Z</time>
      </trkpt>
      <trkpt lat="44.09055" lon="5.16171">
        <ele>375.4</ele>
        <time>2012-09-15T08:19:30.000Z</time>
      </trkpt>
      <trkpt lat="44.09058" lon="5.16171">
        <ele>376.4</ele>
        <time>2012-09-15T08:19:33.000Z</time>
      </trkpt>
      <trkpt lat="44.09061" lon="5.16166">
        <ele>376.4</ele>
        <time>2012-09-15T08:19:35.000Z</time>
      </trkpt>
      <trkpt lat="44.09064" lon="5.16161">
        <ele>376</ele>
        <time>2012-09-15T08:19:37.000Z</time>
      </trkpt>
      <trkpt lat="44.09068" lon="5.16161">
        <ele>376.4</ele>
        <time>2012-09-15T08:19:39.000Z</time>
      </trkpt>
      <trkpt lat="44.0907" lon="5.16162">
        <ele>378.1</ele>
        <time>2012-09-15T08:19:43.000Z</time>
      </trkpt>
      <trkpt lat="44.09073" lon="5.16164">
        <ele>377.5</ele>
        <time>2012-09-15T08:19:51.000Z</time>
      </trkpt>
      <trkpt lat="44.09075" lon="5.1617">
        <ele>379.2</ele>
        <time>2012-09-15T08:19:53.000Z</time>
      </trkpt>
      <trkpt lat="44.09076" lon="5.16174">
        <ele>378.8</ele>
        <time>2012-09-15T08:19:55.000Z</time>
      </trkpt>
      <trkpt lat="44.09078" lon="5.16182">
        <ele>378.9</ele>
        <time>2012-09-15T08:19:57.000Z</time>
      </trkpt>
      <trkpt lat="44.09078" lon="5.16187">
        <ele>378.9</ele>
        <time>2012-09-15T08:19:58.000Z</time>
      </trkpt>
      <trkpt lat="44.09078" lon="5.16192">
        <ele>378.9</ele>
        <time>2012-09-15T08:19:59.000Z</time>
      </trkpt>
      <trkpt lat="44.09079" lon="5.16196">
        <ele>380.2</ele>
        <time>2012-09-15T08:20:01.000Z</time>
      </trkpt>
      <trkpt lat="44.09078" lon="5.162">
        <ele>380.4</ele>
        <time>2012-09-15T08:20:02.000Z</time>
      </trkpt>
      <trkpt lat="44.09079" lon="5.16207">
        <ele>380.5</ele>
        <time>2012-09-15T08:20:04.000Z</time>
      </trkpt>
      <trkpt lat="44.09081" lon="5.16213">
        <ele>380.8</ele>
        <time>2012-09-15T08:20:06.000Z</time>
      </trkpt>
      <trkpt lat="44.09081" lon="5.16217">
        <ele>381.4</ele>
        <time>2012-09-15T08:20:07.000Z</time>
      </trkpt>
      <trkpt lat="44.09081" lon="5.16221">
        <ele>382.5</ele>
        <time>2012-09-15T08:20:09.000Z</time>
      </trkpt>
      <trkpt lat="44.09078" lon="5.16225">
        <ele>382.9</ele>
        <time>2012-09-15T08:20:11.000Z</time>
      </trkpt>
      <trkpt lat="44.09076" lon="5.16228">
        <ele>383.6</ele>
        <time>2012-09-15T08:20:13.000Z</time>
      </trkpt>
      <trkpt lat="44.09076" lon="5.16232">
        <ele>383.6</ele>
        <time>2012-09-15T08:20:15.000Z</time>
      </trkpt>
      <trkpt lat="44.09075" lon="5.16238">
        <ele>383.7</ele>
        <time>2012-09-15T08:20:18.000Z</time>
      </trkpt>
      <trkpt lat="44.09076" lon="5.16244">
        <ele>383.3</ele>
        <time>2012-09-15T08:20:20.000Z</time>
      </trkpt>
      <trkpt lat="44.09078" lon="5.16244">
        <ele>385.9</ele>
        <time>2012-09-15T08:20:22.000Z</time>
      </trkpt>
      <trkpt lat="44.09082" lon="5.16247">
        <ele>387.9</ele>
        <time>2012-09-15T08:20:25.000Z</time>
      </trkpt>
      <trkpt lat="44.09084" lon="5.16251">
        <ele>389</ele>
        <time>2012-09-15T08:20:28.000Z</time>
      </trkpt>
      <trkpt lat="44.09088" lon="5.16254">
        <ele>387.2</ele>
        <time>2012-09-15T08:20:30.000Z</time>
      </trkpt>
      <trkpt lat="44.09089" lon="5.16257">
        <ele>393.9</ele>
        <time>2012-09-15T08:20:34.000Z</time>
      </trkpt>
      <trkpt lat="44.09092" lon="5.1626">
        <ele>391.4</ele>
        <time>2012-09-15T08:20:36.000Z</time>
      </trkpt>
      <trkpt lat="44.09095" lon="5.16262">
        <ele>391.4</ele>
        <time>2012-09-15T08:20:39.000Z</time>
      </trkpt>
      <trkpt lat="44.09097" lon="5.16265">
        <ele>391.6</ele>
        <time>2012-09-15T08:20:41.000Z</time>
      </trkpt>
      <trkpt lat="44.09098" lon="5.16271">
        <ele>395.9</ele>
        <time>2012-09-15T08:20:45.000Z</time>
      </trkpt>
      <trkpt lat="44.09099" lon="5.16274">
        <ele>396.2</ele>
        <time>2012-09-15T08:20:47.000Z</time>
      </trkpt>
      <trkpt lat="44.09101" lon="5.16277">
        <ele>396.7</ele>
        <time>2012-09-15T08:20:50.000Z</time>
      </trkpt>
      <trkpt lat="44.09104" lon="5.16279">
        <ele>396.8</ele>
        <time>2012-09-15T08:20:53.000Z</time>
      </trkpt>
      <trkpt lat="44.09107" lon="5.1628">
        <ele>395.6</ele>
        <time>2012-09-15T08:20:56.000Z</time>
      </trkpt>
      <trkpt lat="44.09111" lon="5.16281">
        <ele>395.9</ele>
        <time>2012-09-15T08:20:58.000Z</time>
      </trkpt>
      <trkpt lat="44.09114" lon="5.1628">
        <ele>396.2</ele>
        <time>2012-09-15T08:21:00.000Z</time>
      </trkpt>
      <trkpt lat="44.09117" lon="5.16283">
        <ele>396.5</ele>
        <time>2012-09-15T08:21:03.000Z</time>
      </trkpt>
      <trkpt lat="44.0912" lon="5.16286">
        <ele>396.7</ele>
        <time>2012-09-15T08:21:05.000Z</time>
      </trkpt>
      <trkpt lat="44.09122" lon="5.16288">
        <ele>396.6</ele>
        <time>2012-09-15T08:21:06.000Z</time>
      </trkpt>
      <trkpt lat="44.09124" lon="5.16288">
        <ele>396.8</ele>
        <time>2012-09-15T08:21:09.000Z</time>
      </trkpt>
      <trkpt lat="44.09127" lon="5.16288">
        <ele>396.8</ele>
        <time>2012-09-15T08:21:11.000Z</time>
      </trkpt>
      <trkpt lat="44.09131" lon="5.16288">
        <ele>398</ele>
        <time>2012-09-15T08:21:14.000Z</time>
      </trkpt>
      <trkpt lat="44.09134" lon="5.16288">
        <ele>398.3</ele>
        <time>2012-09-15T08:21:17.000Z</time>
      </trkpt>
      <trkpt lat="44.09137" lon="5.16289">
        <ele>398.6</ele>
        <time>2012-09-15T08:21:20.000Z</time>
      </trkpt>
      <trkpt lat="44.09141" lon="5.16293">
        <ele>398</ele>
        <time>2012-09-15T08:21:23.000Z</time>
      </trkpt>
      <trkpt lat="44.09144" lon="5.16292">
        <ele>398.9</ele>
        <time>2012-09-15T08:21:24.000Z</time>
      </trkpt>
      <trkpt lat="44.09148" lon="5.1629">
        <ele>400.6</ele>
        <time>2012-09-15T08:21:26.000Z</time>
      </trkpt>
      <trkpt lat="44.09144" lon="5.16294">
        <ele>400.7</ele>
        <time>2012-09-15T08:21:29.000Z</time>
      </trkpt>
      <trkpt lat="44.09144" lon="5.16298">
        <ele>399.3</ele>
        <time>2012-09-15T08:21:30.000Z</time>
      </trkpt>
      <trkpt lat="44.09143" lon="5.16312">
        <ele>398.5</ele>
        <time>2012-09-15T08:21:31.000Z</time>
      </trkpt>
      <trkpt lat="44.09146" lon="5.16314">
        <ele>407.6</ele>
        <time>2012-09-15T08:21:36.000Z</time>
      </trkpt>
      <trkpt lat="44.09148" lon="5.16316">
        <ele>406.6</ele>
        <time>2012-09-15T08:21:38.000Z</time>
      </trkpt>
      <trkpt lat="44.0915" lon="5.1632">
        <ele>405.7</ele>
        <time>2012-09-15T08:21:41.000Z</time>
      </trkpt>
      <trkpt lat="44.09153" lon="5.16322">
        <ele>410.7</ele>
        <time>2012-09-15T08:21:49.000Z</time>
      </trkpt>
      <trkpt lat="44.09155" lon="5.16327">
        <ele>410.2</ele>
        <time>2012-09-15T08:21:51.000Z</time>
      </trkpt>
      <trkpt lat="44.09158" lon="5.16328">
        <ele>409.2</ele>
        <time>2012-09-15T08:21:53.000Z</time>
      </trkpt>
      <trkpt lat="44.09159" lon="5.16331">
        <ele>411</ele>
        <time>2012-09-15T08:21:59.000Z</time>
      </trkpt>
      <trkpt lat="44.09161" lon="5.16334">
        <ele>411</ele>
        <time>2012-09-15T08:22:02.000Z</time>
      </trkpt>
      <trkpt lat="44.09161" lon="5.16339">
        <ele>412</ele>
        <time>2012-09-15T08:22:05.000Z</time>
      </trkpt>
      <trkpt lat="44.09162" lon="5.16342">
        <ele>416.9</ele>
        <time>2012-09-15T08:22:08.000Z</time>
      </trkpt>
      <trkpt lat="44.09163" lon="5.16346">
        <ele>419.4</ele>
        <time>2012-09-15T08:22:13.000Z</time>
      </trkpt>
      <trkpt lat="44.09164" lon="5.1635">
        <ele>418.9</ele>
        <time>2012-09-15T08:22:17.000Z</time>
      </trkpt>
      <trkpt lat="44.09166" lon="5.16354">
        <ele>420.9</ele>
        <time>2012-09-15T08:22:19.000Z</time>
      </trkpt>
      <trkpt lat="44.09168" lon="5.16357">
        <ele>420.2</ele>
        <time>2012-09-15T08:22:22.000Z</time>
      </trkpt>
      <trkpt lat="44.0917" lon="5.1636">
        <ele>419.7</ele>
        <time>2012-09-15T08:22:25.000Z</time>
      </trkpt>
      <trkpt lat="44.09173" lon="5.16362">
        <ele>414.4</ele>
        <time>2012-09-15T08:22:35.000Z</time>
      </trkpt>
      <trkpt lat="44.09174" lon="5.16366">
        <ele>412.8</ele>
        <time>2012-09-15T08:22:56.000Z</time>
      </trkpt>
      <trkpt lat="44.09178" lon="5.16368">
        <ele>412.6</ele>
        <time>2012-09-15T08:22:59.000Z</time>
      </trkpt>
      <trkpt lat="44.0918" lon="5.16372">
        <ele>412.8</ele>
        <time>2012-09-15T08:23:01.000Z</time>
      </trkpt>
      <trkpt lat="44.09184" lon="5.16376">
        <ele>409.5</ele>
        <time>2012-09-15T08:23:03.000Z</time>
      </trkpt>
      <trkpt lat="44.09186" lon="5.1638">
        <ele>409.6</ele>
        <time>2012-09-15T08:23:05.000Z</time>
      </trkpt>
      <trkpt lat="44.09189" lon="5.16384">
        <ele>411.6</ele>
        <time>2012-09-15T08:23:07.000Z</time>
      </trkpt>
      <trkpt lat="44.09192" lon="5.16387">
        <ele>413.1</ele>
        <time>2012-09-15T08:23:09.000Z</time>
      </trkpt>
      <trkpt lat="44.092" lon="5.16388">
        <ele>409.9</ele>
        <time>2012-09-15T08:23:11.000Z</time>
      </trkpt>
      <trkpt lat="44.09204" lon="5.16388">
        <ele>408.4</ele>
        <time>2012-09-15T08:23:12.000Z</time>
      </trkpt>
      <trkpt lat="44.09208" lon="5.16388">
        <ele>407.1</ele>
        <time>2012-09-15T08:23:13.000Z</time>
      </trkpt>
      <trkpt lat="44.09213" lon="5.16387">
        <ele>406</ele>
        <time>2012-09-15T08:23:14.000Z</time>
      </trkpt>
      <trkpt lat="44.09217" lon="5.16387">
        <ele>404.8</ele>
        <time>2012-09-15T08:23:15.000Z</time>
      </trkpt>
      <trkpt lat="44.0922" lon="5.16388">
        <ele>404.3</ele>
        <time>2012-09-15T08:23:16.000Z</time>
      </trkpt>
      <trkpt lat="44.09224" lon="5.16388">
        <ele>403.6</ele>
        <time>2012-09-15T08:23:17.000Z</time>
      </trkpt>
      <trkpt lat="44.09227" lon="5.16388">
        <ele>402.6</ele>
        <time>2012-09-15T08:23:18.000Z</time>
      </trkpt>
      <trkpt lat="44.09231" lon="5.16389">
        <ele>402</ele>
        <time>2012-09-15T08:23:19.000Z</time>
      </trkpt>
      <trkpt lat="44.09235" lon="5.1639">
        <ele>401.1</ele>
        <time>2012-09-15T08:23:20.000Z</time>
      </trkpt>
      <trkpt lat="44.09238" lon="5.16387">
        <ele>400.5</ele>
        <time>2012-09-15T08:23:22.000Z</time>
      </trkpt>
      <trkpt lat="44.09241" lon="5.16384">
        <ele>400</ele>
        <time>2012-09-15T08:23:24.000Z</time>
      </trkpt>
      <trkpt lat="44.09244" lon="5.16386">
        <ele>399.2</ele>
        <time>2012-09-15T08:23:28.000Z</time>
      </trkpt>
      <trkpt lat="44.09247" lon="5.16384">
        <ele>398.8</ele>
        <time>2012-09-15T08:23:29.000Z</time>
      </trkpt>
      <trkpt lat="44.09249" lon="5.16382">
        <ele>397.6</ele>
        <time>2012-09-15T08:23:31.000Z</time>
      </trkpt>
      <trkpt lat="44.09252" lon="5.16377">
        <ele>397.1</ele>
        <time>2012-09-15T08:23:34.000Z</time>
      </trkpt>
      <trkpt lat="44.09253" lon="5.16374">
        <ele>396.5</ele>
        <time>2012-09-15T08:23:36.000Z</time>
      </trkpt>
      <trkpt lat="44.09256" lon="5.16369">
        <ele>396.1</ele>
        <time>2012-09-15T08:23:39.000Z</time>
      </trkpt>
      <trkpt lat="44.09259" lon="5.16366">
        <ele>395.7</ele>
        <time>2012-09-15T08:23:41.000Z</time>
      </trkpt>
      <trkpt lat="44.09263" lon="5.16363">
        <ele>395.8</ele>
        <time>2012-09-15T08:23:43.000Z</time>
      </trkpt>
      <trkpt lat="44.09266" lon="5.16358">
        <ele>396</ele>
        <time>2012-09-15T08:23:45.000Z</time>
      </trkpt>
      <trkpt lat="44.09268" lon="5.16354">
        <ele>396.1</ele>
        <time>2012-09-15T08:23:47.000Z</time>
      </trkpt>
      <trkpt lat="44.09271" lon="5.1635">
        <ele>396.3</ele>
        <time>2012-09-15T08:23:49.000Z</time>
      </trkpt>
      <trkpt lat="44.09275" lon="5.16346">
        <ele>396.3</ele>
        <time>2012-09-15T08:23:51.000Z</time>
      </trkpt>
      <trkpt lat="44.09278" lon="5.16342">
        <ele>396.4</ele>
        <time>2012-09-15T08:23:53.000Z</time>
      </trkpt>
      <trkpt lat="44.09282" lon="5.16338">
        <ele>396.6</ele>
        <time>2012-09-15T08:23:55.000Z</time>
      </trkpt>
      <trkpt lat="44.09284" lon="5.16334">
        <ele>396.5</ele>
        <time>2012-09-15T08:23:57.000Z</time>
      </trkpt>
      <trkpt lat="44.09286" lon="5.1633">
        <ele>396.7</ele>
        <time>2012-09-15T08:23:59.000Z</time>
      </trkpt>
      <trkpt lat="44.09289" lon="5.16325">
        <ele>397.3</ele>
        <time>2012-09-15T08:24:01.000Z</time>
      </trkpt>
      <trkpt lat="44.09292" lon="5.16321">
        <ele>397.6</ele>
        <time>2012-09-15T08:24:03.000Z</time>
      </trkpt>
      <trkpt lat="44.09293" lon="5.16317">
        <ele>396.4</ele>
        <time>2012-09-15T08:24:04.000Z</time>
      </trkpt>
      <trkpt lat="44.09295" lon="5.16312">
        <ele>395.9</ele>
        <time>2012-09-15T08:24:06.000Z</time>
      </trkpt>
      <trkpt lat="44.09298" lon="5.16306">
        <ele>396</ele>
        <time>2012-09-15T08:24:08.000Z</time>
      </trkpt>
      <trkpt lat="44.093" lon="5.16302">
        <ele>397.6</ele>
        <time>2012-09-15T08:24:10.000Z</time>
      </trkpt>
      <trkpt lat="44.09301" lon="5.16296">
        <ele>398.2</ele>
        <time>2012-09-15T08:24:12.000Z</time>
      </trkpt>
      <trkpt lat="44.093" lon="5.1629">
        <ele>397.7</ele>
        <time>2012-09-15T08:24:14.000Z</time>
      </trkpt>
      <trkpt lat="44.09301" lon="5.16284">
        <ele>397.5</ele>
        <time>2012-09-15T08:24:16.000Z</time>
      </trkpt>
      <trkpt lat="44.093" lon="5.16279">
        <ele>399.5</ele>
        <time>2012-09-15T08:24:18.000Z</time>
      </trkpt>
      <trkpt lat="44.093" lon="5.16274">
        <ele>399.9</ele>
        <time>2012-09-15T08:24:20.000Z</time>
      </trkpt>
      <trkpt lat="44.09301" lon="5.16266">
        <ele>400.4</ele>
        <time>2012-09-15T08:24:22.000Z</time>
      </trkpt>
      <trkpt lat="44.09302" lon="5.16262">
        <ele>404.1</ele>
        <time>2012-09-15T08:24:24.000Z</time>
      </trkpt>
      <trkpt lat="44.09303" lon="5.16255">
        <ele>405.1</ele>
        <time>2012-09-15T08:24:26.000Z</time>
      </trkpt>
      <trkpt lat="44.09303" lon="5.16251">
        <ele>405.7</ele>
        <time>2012-09-15T08:24:27.000Z</time>
      </trkpt>
      <trkpt lat="44.09304" lon="5.16246">
        <ele>405.8</ele>
        <time>2012-09-15T08:24:28.000Z</time>
      </trkpt>
      <trkpt lat="44.09303" lon="5.16236">
        <ele>403.8</ele>
        <time>2012-09-15T08:24:29.000Z</time>
      </trkpt>
      <trkpt lat="44.09304" lon="5.1623">
        <ele>403.5</ele>
        <time>2012-09-15T08:24:30.000Z</time>
      </trkpt>
      <trkpt lat="44.09304" lon="5.16224">
        <ele>403.4</ele>
        <time>2012-09-15T08:24:31.000Z</time>
      </trkpt>
      <trkpt lat="44.09305" lon="5.16218">
        <ele>402.8</ele>
        <time>2012-09-15T08:24:32.000Z</time>
      </trkpt>
      <trkpt lat="44.09306" lon="5.16212">
        <ele>402.4</ele>
        <time>2012-09-15T08:24:33.000Z</time>
      </trkpt>
      <trkpt lat="44.09309" lon="5.16206">
        <ele>401.9</ele>
        <time>2012-09-15T08:24:34.000Z</time>
      </trkpt>
      <trkpt lat="44.0931" lon="5.16199">
        <ele>401.2</ele>
        <time>2012-09-15T08:24:35.000Z</time>
      </trkpt>
      <trkpt lat="44.09314" lon="5.16193">
        <ele>400.8</ele>
        <time>2012-09-15T08:24:36.000Z</time>
      </trkpt>
      <trkpt lat="44.09318" lon="5.16187">
        <ele>400.3</ele>
        <time>2012-09-15T08:24:37.000Z</time>
      </trkpt>
      <trkpt lat="44.09321" lon="5.16182">
        <ele>399.3</ele>
        <time>2012-09-15T08:24:38.000Z</time>
      </trkpt>
      <trkpt lat="44.09324" lon="5.16177">
        <ele>398.9</ele>
        <time>2012-09-15T08:24:39.000Z</time>
      </trkpt>
      <trkpt lat="44.09326" lon="5.16172">
        <ele>398.3</ele>
        <time>2012-09-15T08:24:40.000Z</time>
      </trkpt>
      <trkpt lat="44.09328" lon="5.16167">
        <ele>397.3</ele>
        <time>2012-09-15T08:24:41.000Z</time>
      </trkpt>
      <trkpt lat="44.0933" lon="5.16163">
        <ele>397.3</ele>
        <time>2012-09-15T08:24:42.000Z</time>
      </trkpt>
      <trkpt lat="44.09332" lon="5.16158">
        <ele>397.3</ele>
        <time>2012-09-15T08:24:43.000Z</time>
      </trkpt>
      <trkpt lat="44.09334" lon="5.16152">
        <ele>397.3</ele>
        <time>2012-09-15T08:24:44.000Z</time>
      </trkpt>
      <trkpt lat="44.09336" lon="5.16146">
        <ele>397.2</ele>
        <time>2012-09-15T08:24:45.000Z</time>
      </trkpt>
      <trkpt lat="44.09338" lon="5.16142">
        <ele>397.5</ele>
        <time>2012-09-15T08:24:46.000Z</time>
      </trkpt>
      <trkpt lat="44.0934" lon="5.16137">
        <ele>397.7</ele>
        <time>2012-09-15T08:24:48.000Z</time>
      </trkpt>
      <trkpt lat="44.09342" lon="5.16133">
        <ele>396.6</ele>
        <time>2012-09-15T08:24:55.000Z</time>
      </trkpt>
      <trkpt lat="44.09344" lon="5.16132">
        <ele>397</ele>
        <time>2012-09-15T08:24:59.000Z</time>
      </trkpt>
      <trkpt lat="44.09347" lon="5.1613">
        <ele>396</ele>
        <time>2012-09-15T08:25:27.000Z</time>
      </trkpt>
      <trkpt lat="44.09351" lon="5.1613">
        <ele>395.9</ele>
        <time>2012-09-15T08:25:38.000Z</time>
      </trkpt>
      <trkpt lat="44.09354" lon="5.16131">
        <ele>395.5</ele>
        <time>2012-09-15T08:25:41.000Z</time>
      </trkpt>
      <trkpt lat="44.09358" lon="5.16131">
        <ele>395.4</ele>
        <time>2012-09-15T08:25:44.000Z</time>
      </trkpt>
      <trkpt lat="44.09363" lon="5.16131">
        <ele>395.2</ele>
        <time>2012-09-15T08:25:46.000Z</time>
      </trkpt>
      <trkpt lat="44.09366" lon="5.16131">
        <ele>395</ele>
        <time>2012-09-15T08:25:48.000Z</time>
      </trkpt>
      <trkpt lat="44.09371" lon="5.1613">
        <ele>394.9</ele>
        <time>2012-09-15T08:25:50.000Z</time>
      </trkpt>
      <trkpt lat="44.09374" lon="5.16132">
        <ele>394.9</ele>
        <time>2012-09-15T08:25:52.000Z</time>
      </trkpt>
      <trkpt lat="44.09374" lon="5.16139">
        <ele>395.7</ele>
        <time>2012-09-15T08:25:54.000Z</time>
      </trkpt>
      <trkpt lat="44.09374" lon="5.16144">
        <ele>400.7</ele>
        <time>2012-09-15T08:25:56.000Z</time>
      </trkpt>
      <trkpt lat="44.09377" lon="5.16148">
        <ele>400.2</ele>
        <time>2012-09-15T08:25:59.000Z</time>
      </trkpt>
      <trkpt lat="44.09379" lon="5.1615">
        <ele>400.2</ele>
        <time>2012-09-15T08:26:01.000Z</time>
      </trkpt>
      <trkpt lat="44.09382" lon="5.16152">
        <ele>400.6</ele>
        <time>2012-09-15T08:26:03.000Z</time>
      </trkpt>
      <trkpt lat="44.09384" lon="5.16154">
        <ele>401.1</ele>
        <time>2012-09-15T08:26:05.000Z</time>
      </trkpt>
      <trkpt lat="44.09388" lon="5.16154">
        <ele>401.8</ele>
        <time>2012-09-15T08:26:07.000Z</time>
      </trkpt>
      <trkpt lat="44.09391" lon="5.1615">
        <ele>400.9</ele>
        <time>2012-09-15T08:26:09.000Z</time>
      </trkpt>
      <trkpt lat="44.09394" lon="5.16146">
        <ele>399.9</ele>
        <time>2012-09-15T08:26:10.000Z</time>
      </trkpt>
      <trkpt lat="44.09397" lon="5.16142">
        <ele>398.9</ele>
        <time>2012-09-15T08:26:12.000Z</time>
      </trkpt>
      <trkpt lat="44.09401" lon="5.16138">
        <ele>398.6</ele>
        <time>2012-09-15T08:26:14.000Z</time>
      </trkpt>
      <trkpt lat="44.09404" lon="5.16132">
        <ele>397.5</ele>
        <time>2012-09-15T08:26:16.000Z</time>
      </trkpt>
      <trkpt lat="44.09408" lon="5.16127">
        <ele>396.8</ele>
        <time>2012-09-15T08:26:18.000Z</time>
      </trkpt>
      <trkpt lat="44.0941" lon="5.16125">
        <ele>396.6</ele>
        <time>2012-09-15T08:26:19.000Z</time>
      </trkpt>
      <trkpt lat="44.09413" lon="5.16126">
        <ele>396.8</ele>
        <time>2012-09-15T08:26:20.000Z</time>
      </trkpt>
      <trkpt lat="44.09416" lon="5.16124">
        <ele>396.5</ele>
        <time>2012-09-15T08:26:21.000Z</time>
      </trkpt>
      <trkpt lat="44.09419" lon="5.16123">
        <ele>395.9</ele>
        <time>2012-09-15T08:26:22.000Z</time>
      </trkpt>
      <trkpt lat="44.09421" lon="5.16122">
        <ele>395.6</ele>
        <time>2012-09-15T08:26:23.000Z</time>
      </trkpt>
      <trkpt lat="44.09424" lon="5.1612">
        <ele>395.8</ele>
        <time>2012-09-15T08:26:24.000Z</time>
      </trkpt>
      <trkpt lat="44.09427" lon="5.16118">
        <ele>395.7</ele>
        <time>2012-09-15T08:26:25.000Z</time>
      </trkpt>
      <trkpt lat="44.09431" lon="5.16117">
        <ele>395.6</ele>
        <time>2012-09-15T08:26:27.000Z</time>
      </trkpt>
      <trkpt lat="44.09434" lon="5.1612">
        <ele>395.6</ele>
        <time>2012-09-15T08:26:29.000Z</time>
      </trkpt>
      <trkpt lat="44.09437" lon="5.16125">
        <ele>395.6</ele>
        <time>2012-09-15T08:26:31.000Z</time>
      </trkpt>
      <trkpt lat="44.09438" lon="5.16133">
        <ele>396.3</ele>
        <time>2012-09-15T08:26:33.000Z</time>
      </trkpt>
      <trkpt lat="44.0944" lon="5.16139">
        <ele>396.7</ele>
        <time>2012-09-15T08:26:35.000Z</time>
      </trkpt>
      <trkpt lat="44.0944" lon="5.16143">
        <ele>397.2</ele>
        <time>2012-09-15T08:26:36.000Z</time>
      </trkpt>
      <trkpt lat="44.09439" lon="5.16152">
        <ele>397.6</ele>
        <time>2012-09-15T08:26:37.000Z</time>
      </trkpt>
      <trkpt lat="44.09433" lon="5.1616">
        <ele>398.3</ele>
        <time>2012-09-15T08:26:38.000Z</time>
      </trkpt>
      <trkpt lat="44.09447" lon="5.16151">
        <ele>390.1</ele>
        <time>2012-09-15T08:26:39.000Z</time>
      </trkpt>
      <trkpt lat="44.09449" lon="5.16154">
        <ele>391</ele>
        <time>2012-09-15T08:26:41.000Z</time>
      </trkpt>
      <trkpt lat="44.09451" lon="5.16156">
        <ele>391</ele>
        <time>2012-09-15T08:26:43.000Z</time>
      </trkpt>
      <trkpt lat="44.09455" lon="5.16155">
        <ele>391.3</ele>
        <time>2012-09-15T08:26:48.000Z</time>
      </trkpt>
      <trkpt lat="44.09458" lon="5.16155">
        <ele>391.3</ele>
        <time>2012-09-15T08:26:51.000Z</time>
      </trkpt>
      <trkpt lat="44.09463" lon="5.16155">
        <ele>391</ele>
        <time>2012-09-15T08:26:52.000Z</time>
      </trkpt>
      <trkpt lat="44.09466" lon="5.16156">
        <ele>391.1</ele>
        <time>2012-09-15T08:26:53.000Z</time>
      </trkpt>
      <trkpt lat="44.09469" lon="5.16156">
        <ele>392.3</ele>
        <time>2012-09-15T08:26:54.000Z</time>
      </trkpt>
      <trkpt lat="44.09472" lon="5.16156">
        <ele>392.8</ele>
        <time>2012-09-15T08:26:55.000Z</time>
      </trkpt>
      <trkpt lat="44.09476" lon="5.16157">
        <ele>393.5</ele>
        <time>2012-09-15T08:26:57.000Z</time>
      </trkpt>
      <trkpt lat="44.0948" lon="5.1616">
        <ele>394.1</ele>
        <time>2012-09-15T08:26:59.000Z</time>
      </trkpt>
      <trkpt lat="44.09484" lon="5.16162">
        <ele>394.3</ele>
        <time>2012-09-15T08:27:01.000Z</time>
      </trkpt>
      <trkpt lat="44.09487" lon="5.16164">
        <ele>394.5</ele>
        <time>2012-09-15T08:27:03.000Z</time>
      </trkpt>
      <trkpt lat="44.09485" lon="5.16166">
        <ele>396</ele>
        <time>2012-09-15T08:27:08.000Z</time>
      </trkpt>
      <trkpt lat="44.09487" lon="5.16168">
        <ele>397.5</ele>
        <time>2012-09-15T08:27:25.000Z</time>
      </trkpt>
      <trkpt lat="44.0949" lon="5.16171">
        <ele>398.5</ele>
        <time>2012-09-15T08:27:28.000Z</time>
      </trkpt>
      <trkpt lat="44.09492" lon="5.16175">
        <ele>400.1</ele>
        <time>2012-09-15T08:27:31.000Z</time>
      </trkpt>
      <trkpt lat="44.09494" lon="5.16176">
        <ele>400.1</ele>
        <time>2012-09-15T08:27:33.000Z</time>
      </trkpt>
      <trkpt lat="44.09497" lon="5.16178">
        <ele>400.1</ele>
        <time>2012-09-15T08:27:34.000Z</time>
      </trkpt>
      <trkpt lat="44.095" lon="5.16181">
        <ele>400</ele>
        <time>2012-09-15T08:27:35.000Z</time>
      </trkpt>
      <trkpt lat="44.09504" lon="5.16184">
        <ele>399.7</ele>
        <time>2012-09-15T08:27:37.000Z</time>
      </trkpt>
      <trkpt lat="44.09506" lon="5.16189">
        <ele>399.9</ele>
        <time>2012-09-15T08:27:39.000Z</time>
      </trkpt>
      <trkpt lat="44.09504" lon="5.16192">
        <ele>405.4</ele>
        <time>2012-09-15T08:27:41.000Z</time>
      </trkpt>
      <trkpt lat="44.09507" lon="5.16196">
        <ele>408.6</ele>
        <time>2012-09-15T08:27:44.000Z</time>
      </trkpt>
      <trkpt lat="44.0951" lon="5.16198">
        <ele>409.4</ele>
        <time>2012-09-15T08:27:46.000Z</time>
      </trkpt>
      <trkpt lat="44.09513" lon="5.162">
        <ele>410.5</ele>
        <time>2012-09-15T08:27:48.000Z</time>
      </trkpt>
      <trkpt lat="44.09516" lon="5.16201">
        <ele>409.6</ele>
        <time>2012-09-15T08:27:50.000Z</time>
      </trkpt>
      <trkpt lat="44.09518" lon="5.16193">
        <ele>407.9</ele>
        <time>2012-09-15T08:27:51.000Z</time>
      </trkpt>
      <trkpt lat="44.0952" lon="5.1619">
        <ele>407.3</ele>
        <time>2012-09-15T08:27:52.000Z</time>
      </trkpt>
      <trkpt lat="44.09522" lon="5.16188">
        <ele>406.7</ele>
        <time>2012-09-15T08:27:53.000Z</time>
      </trkpt>
      <trkpt lat="44.09527" lon="5.16187">
        <ele>406.7</ele>
        <time>2012-09-15T08:27:55.000Z</time>
      </trkpt>
      <trkpt lat="44.09531" lon="5.16187">
        <ele>407.6</ele>
        <time>2012-09-15T08:27:57.000Z</time>
      </trkpt>
      <trkpt lat="44.09533" lon="5.1619">
        <ele>408.4</ele>
        <time>2012-09-15T08:27:59.000Z</time>
      </trkpt>
      <trkpt lat="44.09531" lon="5.16196">
        <ele>409</ele>
        <time>2012-09-15T08:28:01.000Z</time>
      </trkpt>
      <trkpt lat="44.09536" lon="5.16199">
        <ele>407.8</ele>
        <time>2012-09-15T08:28:03.000Z</time>
      </trkpt>
      <trkpt lat="44.09539" lon="5.16201">
        <ele>407.7</ele>
        <time>2012-09-15T08:28:05.000Z</time>
      </trkpt>
      <trkpt lat="44.09542" lon="5.16204">
        <ele>411.1</ele>
        <time>2012-09-15T08:28:07.000Z</time>
      </trkpt>
      <trkpt lat="44.09544" lon="5.16207">
        <ele>410.2</ele>
        <time>2012-09-15T08:28:08.000Z</time>
      </trkpt>
      <trkpt lat="44.09547" lon="5.16208">
        <ele>411.1</ele>
        <time>2012-09-15T08:28:10.000Z</time>
      </trkpt>
      <trkpt lat="44.0955" lon="5.16207">
        <ele>410.7</ele>
        <time>2012-09-15T08:28:12.000Z</time>
      </trkpt>
      <trkpt lat="44.09554" lon="5.16205">
        <ele>409.7</ele>
        <time>2012-09-15T08:28:15.000Z</time>
      </trkpt>
      <trkpt lat="44.09557" lon="5.16203">
        <ele>408</ele>
        <time>2012-09-15T08:28:17.000Z</time>
      </trkpt>
      <trkpt lat="44.09558" lon="5.16207">
        <ele>405.8</ele>
        <time>2012-09-15T08:28:40.000Z</time>
      </trkpt>
      <trkpt lat="44.09557" lon="5.16212">
        <ele>404.2</ele>
        <time>2012-09-15T08:28:44.000Z</time>
      </trkpt>
      <trkpt lat="44.09561" lon="5.16213">
        <ele>402.8</ele>
        <time>2012-09-15T08:28:47.000Z</time>
      </trkpt>
      <trkpt lat="44.09561" lon="5.16217">
        <ele>403.9</ele>
        <time>2012-09-15T08:29:02.000Z</time>
      </trkpt>
      <trkpt lat="44.09564" lon="5.16214">
        <ele>403.3</ele>
        <time>2012-09-15T08:29:08.000Z</time>
      </trkpt>
      <trkpt lat="44.09573" lon="5.16213">
        <ele>399.9</ele>
        <time>2012-09-15T08:29:09.000Z</time>
      </trkpt>
      <trkpt lat="44.09576" lon="5.16211">
        <ele>400.1</ele>
        <time>2012-09-15T08:29:10.000Z</time>
      </trkpt>
      <trkpt lat="44.09579" lon="5.1621">
        <ele>399.8</ele>
        <time>2012-09-15T08:29:11.000Z</time>
      </trkpt>
      <trkpt lat="44.09582" lon="5.16207">
        <ele>399.4</ele>
        <time>2012-09-15T08:29:12.000Z</time>
      </trkpt>
      <trkpt lat="44.09585" lon="5.16205">
        <ele>399.5</ele>
        <time>2012-09-15T08:29:13.000Z</time>
      </trkpt>
      <trkpt lat="44.09588" lon="5.16203">
        <ele>399.2</ele>
        <time>2012-09-15T08:29:14.000Z</time>
      </trkpt>
      <trkpt lat="44.09592" lon="5.16199">
        <ele>398.8</ele>
        <time>2012-09-15T08:29:15.000Z</time>
      </trkpt>
      <trkpt lat="44.09595" lon="5.16196">
        <ele>398.5</ele>
        <time>2012-09-15T08:29:16.000Z</time>
      </trkpt>
      <trkpt lat="44.09599" lon="5.16193">
        <ele>398.2</ele>
        <time>2012-09-15T08:29:17.000Z</time>
      </trkpt>
      <trkpt lat="44.09602" lon="5.16189">
        <ele>397.6</ele>
        <time>2012-09-15T08:29:18.000Z</time>
      </trkpt>
      <trkpt lat="44.09605" lon="5.16185">
        <ele>397.3</ele>
        <time>2012-09-15T08:29:19.000Z</time>
      </trkpt>
      <trkpt lat="44.09608" lon="5.16182">
        <ele>397.6</ele>
        <time>2012-09-15T08:29:20.000Z</time>
      </trkpt>
      <trkpt lat="44.09612" lon="5.16179">
        <ele>397.3</ele>
        <time>2012-09-15T08:29:21.000Z</time>
      </trkpt>
      <trkpt lat="44.09616" lon="5.16176">
        <ele>397.2</ele>
        <time>2012-09-15T08:29:22.000Z</time>
      </trkpt>
      <trkpt lat="44.09619" lon="5.16172">
        <ele>396.5</ele>
        <time>2012-09-15T08:29:23.000Z</time>
      </trkpt>
      <trkpt lat="44.09622" lon="5.16168">
        <ele>395.9</ele>
        <time>2012-09-15T08:29:24.000Z</time>
      </trkpt>
      <trkpt lat="44.09625" lon="5.16164">
        <ele>396.2</ele>
        <time>2012-09-15T08:29:25.000Z</time>
      </trkpt>
      <trkpt lat="44.09628" lon="5.1616">
        <ele>395.4</ele>
        <time>2012-09-15T08:29:26.000Z</time>
      </trkpt>
      <trkpt lat="44.09632" lon="5.16156">
        <ele>394.4</ele>
        <time>2012-09-15T08:29:27.000Z</time>
      </trkpt>
      <trkpt lat="44.09635" lon="5.16151">
        <ele>393.8</ele>
        <time>2012-09-15T08:29:28.000Z</time>
      </trkpt>
      <trkpt lat="44.09638" lon="5.16147">
        <ele>393.1</ele>
        <time>2012-09-15T08:29:29.000Z</time>
      </trkpt>
      <trkpt lat="44.09641" lon="5.16145">
        <ele>392.9</ele>
        <time>2012-09-15T08:29:30.000Z</time>
      </trkpt>
      <trkpt lat="44.09646" lon="5.16145">
        <ele>391.6</ele>
        <time>2012-09-15T08:29:32.000Z</time>
      </trkpt>
      <trkpt lat="44.0965" lon="5.16147">
        <ele>390.4</ele>
        <time>2012-09-15T08:29:34.000Z</time>
      </trkpt>
      <trkpt lat="44.09648" lon="5.1615">
        <ele>391.1</ele>
        <time>2012-09-15T08:29:36.000Z</time>
      </trkpt>
      <trkpt lat="44.09649" lon="5.16155">
        <ele>389.3</ele>
        <time>2012-09-15T08:29:45.000Z</time>
      </trkpt>
      <trkpt lat="44.09651" lon="5.16159">
        <ele>389.5</ele>
        <time>2012-09-15T08:29:47.000Z</time>
      </trkpt>
      <trkpt lat="44.09652" lon="5.16164">
        <ele>389.3</ele>
        <time>2012-09-15T08:29:49.000Z</time>
      </trkpt>
      <trkpt lat="44.09652" lon="5.1617">
        <ele>389.5</ele>
        <time>2012-09-15T08:29:51.000Z</time>
      </trkpt>
      <trkpt lat="44.09655" lon="5.16177">
        <ele>390</ele>
        <time>2012-09-15T08:29:53.000Z</time>
      </trkpt>
      <trkpt lat="44.09657" lon="5.16181">
        <ele>387.8</ele>
        <time>2012-09-15T08:29:54.000Z</time>
      </trkpt>
      <trkpt lat="44.09658" lon="5.16186">
        <ele>387.5</ele>
        <time>2012-09-15T08:29:55.000Z</time>
      </trkpt>
      <trkpt lat="44.0966" lon="5.1619">
        <ele>387.2</ele>
        <time>2012-09-15T08:29:56.000Z</time>
      </trkpt>
      <trkpt lat="44.09664" lon="5.1619">
        <ele>387.3</ele>
        <time>2012-09-15T08:29:57.000Z</time>
      </trkpt>
      <trkpt lat="44.09668" lon="5.16189">
        <ele>387.9</ele>
        <time>2012-09-15T08:29:58.000Z</time>
      </trkpt>
      <trkpt lat="44.09672" lon="5.16188">
        <ele>387.6</ele>
        <time>2012-09-15T08:29:59.000Z</time>
      </trkpt>
      <trkpt lat="44.09675" lon="5.16186">
        <ele>387.2</ele>
        <time>2012-09-15T08:30:00.000Z</time>
      </trkpt>
      <trkpt lat="44.09678" lon="5.16184">
        <ele>387</ele>
        <time>2012-09-15T08:30:01.000Z</time>
      </trkpt>
      <trkpt lat="44.09682" lon="5.16182">
        <ele>386.2</ele>
        <time>2012-09-15T08:30:02.000Z</time>
      </trkpt>
      <trkpt lat="44.09685" lon="5.1618">
        <ele>386.1</ele>
        <time>2012-09-15T08:30:03.000Z</time>
      </trkpt>
      <trkpt lat="44.09688" lon="5.16177">
        <ele>386.1</ele>
        <time>2012-09-15T08:30:04.000Z</time>
      </trkpt>
      <trkpt lat="44.09692" lon="5.16174">
        <ele>386.3</ele>
        <time>2012-09-15T08:30:05.000Z</time>
      </trkpt>
      <trkpt lat="44.09697" lon="5.16171">
        <ele>385.6</ele>
        <time>2012-09-15T08:30:06.000Z</time>
      </trkpt>
      <trkpt lat="44.097" lon="5.16169">
        <ele>385.4</ele>
        <time>2012-09-15T08:30:07.000Z</time>
      </trkpt>
      <trkpt lat="44.09704" lon="5.16167">
        <ele>385.2</ele>
        <time>2012-09-15T08:30:08.000Z</time>
      </trkpt>
      <trkpt lat="44.09708" lon="5.16164">
        <ele>384.9</ele>
        <time>2012-09-15T08:30:09.000Z</time>
      </trkpt>
      <trkpt lat="44.09712" lon="5.16162">
        <ele>384.3</ele>
        <time>2012-09-15T08:30:10.000Z</time>
      </trkpt>
      <trkpt lat="44.09716" lon="5.16159">
        <ele>384.4</ele>
        <time>2012-09-15T08:30:11.000Z</time>
      </trkpt>
      <trkpt lat="44.0972" lon="5.16156">
        <ele>384.4</ele>
        <time>2012-09-15T08:30:12.000Z</time>
      </trkpt>
      <trkpt lat="44.09724" lon="5.16154">
        <ele>384.8</ele>
        <time>2012-09-15T08:30:13.000Z</time>
      </trkpt>
      <trkpt lat="44.09727" lon="5.16151">
        <ele>384.4</ele>
        <time>2012-09-15T08:30:14.000Z</time>
      </trkpt>
      <trkpt lat="44.09731" lon="5.16148">
        <ele>384.6</ele>
        <time>2012-09-15T08:30:15.000Z</time>
      </trkpt>
      <trkpt lat="44.09734" lon="5.16146">
        <ele>384.6</ele>
        <time>2012-09-15T08:30:16.000Z</time>
      </trkpt>
      <trkpt lat="44.09737" lon="5.16143">
        <ele>384.8</ele>
        <time>2012-09-15T08:30:17.000Z</time>
      </trkpt>
      <trkpt lat="44.0974" lon="5.16138">
        <ele>385.7</ele>
        <time>2012-09-15T08:30:19.000Z</time>
      </trkpt>
      <trkpt lat="44.09744" lon="5.16136">
        <ele>387.8</ele>
        <time>2012-09-15T08:30:21.000Z</time>
      </trkpt>
      <trkpt lat="44.09749" lon="5.16132">
        <ele>387.5</ele>
        <time>2012-09-15T08:30:23.000Z</time>
      </trkpt>
      <trkpt lat="44.09751" lon="5.1613">
        <ele>387.4</ele>
        <time>2012-09-15T08:30:24.000Z</time>
      </trkpt>
      <trkpt lat="44.09754" lon="5.16128">
        <ele>388</ele>
        <time>2012-09-15T08:30:25.000Z</time>
      </trkpt>
      <trkpt lat="44.09756" lon="5.16125">
        <ele>388.4</ele>
        <time>2012-09-15T08:30:26.000Z</time>
      </trkpt>
      <trkpt lat="44.09759" lon="5.16123">
        <ele>388.2</ele>
        <time>2012-09-15T08:30:27.000Z</time>
      </trkpt>
      <trkpt lat="44.09762" lon="5.16121">
        <ele>388.1</ele>
        <time>2012-09-15T08:30:28.000Z</time>
      </trkpt>
      <trkpt lat="44.09765" lon="5.16119">
        <ele>388.2</ele>
        <time>2012-09-15T08:30:29.000Z</time>
      </trkpt>
      <trkpt lat="44.09767" lon="5.16116">
        <ele>388.7</ele>
        <time>2012-09-15T08:30:30.000Z</time>
      </trkpt>
      <trkpt lat="44.0977" lon="5.16114">
        <ele>388.5</ele>
        <time>2012-09-15T08:30:31.000Z</time>
      </trkpt>
      <trkpt lat="44.09773" lon="5.16112">
        <ele>388.7</ele>
        <time>2012-09-15T08:30:32.000Z</time>
      </trkpt>
      <trkpt lat="44.09776" lon="5.16111">
        <ele>388.8</ele>
        <time>2012-09-15T08:30:33.000Z</time>
      </trkpt>
      <trkpt lat="44.09778" lon="5.16108">
        <ele>389.5</ele>
        <time>2012-09-15T08:30:34.000Z</time>
      </trkpt>
      <trkpt lat="44.0978" lon="5.16105">
        <ele>389.9</ele>
        <time>2012-09-15T08:30:35.000Z</time>
      </trkpt>
      <trkpt lat="44.09782" lon="5.16102">
        <ele>390.2</ele>
        <time>2012-09-15T08:30:36.000Z</time>
      </trkpt>
      <trkpt lat="44.09784" lon="5.16099">
        <ele>390.4</ele>
        <time>2012-09-15T08:30:37.000Z</time>
      </trkpt>
      <trkpt lat="44.09786" lon="5.16096">
        <ele>390.4</ele>
        <time>2012-09-15T08:30:38.000Z</time>
      </trkpt>
      <trkpt lat="44.09789" lon="5.16094">
        <ele>390.9</ele>
        <time>2012-09-15T08:30:39.000Z</time>
      </trkpt>
      <trkpt lat="44.09792" lon="5.16088">
        <ele>388.6</ele>
        <time>2012-09-15T08:30:40.000Z</time>
      </trkpt>
      <trkpt lat="44.09795" lon="5.16086">
        <ele>388.3</ele>
        <time>2012-09-15T08:30:41.000Z</time>
      </trkpt>
      <trkpt lat="44.09798" lon="5.16083">
        <ele>388.1</ele>
        <time>2012-09-15T08:30:42.000Z</time>
      </trkpt>
      <trkpt lat="44.09801" lon="5.16081">
        <ele>388.3</ele>
        <time>2012-09-15T08:30:43.000Z</time>
      </trkpt>
      <trkpt lat="44.09804" lon="5.16078">
        <ele>388.4</ele>
        <time>2012-09-15T08:30:44.000Z</time>
      </trkpt>
      <trkpt lat="44.09807" lon="5.16075">
        <ele>388.8</ele>
        <time>2012-09-15T08:30:45.000Z</time>
      </trkpt>
      <trkpt lat="44.0981" lon="5.16072">
        <ele>388.5</ele>
        <time>2012-09-15T08:30:46.000Z</time>
      </trkpt>
      <trkpt lat="44.09812" lon="5.16069">
        <ele>388.6</ele>
        <time>2012-09-15T08:30:47.000Z</time>
      </trkpt>
      <trkpt lat="44.09815" lon="5.16067">
        <ele>388.5</ele>
        <time>2012-09-15T08:30:48.000Z</time>
      </trkpt>
      <trkpt lat="44.09818" lon="5.16064">
        <ele>388.3</ele>
        <time>2012-09-15T08:30:49.000Z</time>
      </trkpt>
      <trkpt lat="44.0982" lon="5.16061">
        <ele>388.3</ele>
        <time>2012-09-15T08:30:50.000Z</time>
      </trkpt>
      <trkpt lat="44.09824" lon="5.16058">
        <ele>387.7</ele>
        <time>2012-09-15T08:30:51.000Z</time>
      </trkpt>
      <trkpt lat="44.09827" lon="5.16054">
        <ele>387.6</ele>
        <time>2012-09-15T08:30:52.000Z</time>
      </trkpt>
      <trkpt lat="44.0983" lon="5.16051">
        <ele>387.5</ele>
        <time>2012-09-15T08:30:53.000Z</time>
      </trkpt>
      <trkpt lat="44.09832" lon="5.16046">
        <ele>387.5</ele>
        <time>2012-09-15T08:30:54.000Z</time>
      </trkpt>
      <trkpt lat="44.09836" lon="5.16042">
        <ele>387.5</ele>
        <time>2012-09-15T08:30:55.000Z</time>
      </trkpt>
      <trkpt lat="44.09839" lon="5.16038">
        <ele>387.4</ele>
        <time>2012-09-15T08:30:56.000Z</time>
      </trkpt>
      <trkpt lat="44.09842" lon="5.16034">
        <ele>387.1</ele>
        <time>2012-09-15T08:30:57.000Z</time>
      </trkpt>
      <trkpt lat="44.09845" lon="5.16029">
        <ele>386.3</ele>
        <time>2012-09-15T08:30:58.000Z</time>
      </trkpt>
      <trkpt lat="44.09849" lon="5.16024">
        <ele>385.8</ele>
        <time>2012-09-15T08:30:59.000Z</time>
      </trkpt>
      <trkpt lat="44.09851" lon="5.16019">
        <ele>385.6</ele>
        <time>2012-09-15T08:31:00.000Z</time>
      </trkpt>
      <trkpt lat="44.09854" lon="5.16013">
        <ele>384.9</ele>
        <time>2012-09-15T08:31:01.000Z</time>
      </trkpt>
      <trkpt lat="44.09857" lon="5.16008">
        <ele>385</ele>
        <time>2012-09-15T08:31:02.000Z</time>
      </trkpt>
      <trkpt lat="44.0986" lon="5.16004">
        <ele>385.1</ele>
        <time>2012-09-15T08:31:03.000Z</time>
      </trkpt>
      <trkpt lat="44.09862" lon="5.16">
        <ele>384.5</ele>
        <time>2012-09-15T08:31:04.000Z</time>
      </trkpt>
      <trkpt lat="44.09865" lon="5.15996">
        <ele>384.4</ele>
        <time>2012-09-15T08:31:05.000Z</time>
      </trkpt>
      <trkpt lat="44.09867" lon="5.15992">
        <ele>384</ele>
        <time>2012-09-15T08:31:06.000Z</time>
      </trkpt>
      <trkpt lat="44.09869" lon="5.1599">
        <ele>384.4</ele>
        <time>2012-09-15T08:31:07.000Z</time>
      </trkpt>
      <trkpt lat="44.09871" lon="5.15987">
        <ele>384.6</ele>
        <time>2012-09-15T08:31:08.000Z</time>
      </trkpt>
      <trkpt lat="44.09874" lon="5.15984">
        <ele>384.8</ele>
        <time>2012-09-15T08:31:09.000Z</time>
      </trkpt>
      <trkpt lat="44.09877" lon="5.15977">
        <ele>384.5</ele>
        <time>2012-09-15T08:31:11.000Z</time>
      </trkpt>
      <trkpt lat="44.09879" lon="5.15973">
        <ele>384.5</ele>
        <time>2012-09-15T08:31:12.000Z</time>
      </trkpt>
      <trkpt lat="44.09883" lon="5.15974">
        <ele>385.3</ele>
        <time>2012-09-15T08:31:14.000Z</time>
      </trkpt>
      <trkpt lat="44.09886" lon="5.15971">
        <ele>384.6</ele>
        <time>2012-09-15T08:31:16.000Z</time>
      </trkpt>
      <trkpt lat="44.09889" lon="5.15969">
        <ele>385</ele>
        <time>2012-09-15T08:31:18.000Z</time>
      </trkpt>
      <trkpt lat="44.09893" lon="5.15966">
        <ele>384.8</ele>
        <time>2012-09-15T08:31:20.000Z</time>
      </trkpt>
      <trkpt lat="44.09897" lon="5.15966">
        <ele>386.2</ele>
        <time>2012-09-15T08:31:22.000Z</time>
      </trkpt>
      <trkpt lat="44.09903" lon="5.15965">
        <ele>385.4</ele>
        <time>2012-09-15T08:31:24.000Z</time>
      </trkpt>
      <trkpt lat="44.09907" lon="5.15965">
        <ele>385.8</ele>
        <time>2012-09-15T08:31:26.000Z</time>
      </trkpt>
      <trkpt lat="44.09911" lon="5.15966">
        <ele>386.3</ele>
        <time>2012-09-15T08:31:28.000Z</time>
      </trkpt>
      <trkpt lat="44.09916" lon="5.15966">
        <ele>385.2</ele>
        <time>2012-09-15T08:31:30.000Z</time>
      </trkpt>
      <trkpt lat="44.09921" lon="5.15965">
        <ele>384.5</ele>
        <time>2012-09-15T08:31:32.000Z</time>
      </trkpt>
      <trkpt lat="44.09924" lon="5.15966">
        <ele>384.4</ele>
        <time>2012-09-15T08:31:33.000Z</time>
      </trkpt>
      <trkpt lat="44.09927" lon="5.15966">
        <ele>384.5</ele>
        <time>2012-09-15T08:31:34.000Z</time>
      </trkpt>
      <trkpt lat="44.0993" lon="5.15967">
        <ele>384.3</ele>
        <time>2012-09-15T08:31:35.000Z</time>
      </trkpt>
      <trkpt lat="44.09935" lon="5.15966">
        <ele>384.1</ele>
        <time>2012-09-15T08:31:37.000Z</time>
      </trkpt>
      <trkpt lat="44.09938" lon="5.15964">
        <ele>383.3</ele>
        <time>2012-09-15T08:31:39.000Z</time>
      </trkpt>
      <trkpt lat="44.0994" lon="5.1596">
        <ele>382.7</ele>
        <time>2012-09-15T08:31:41.000Z</time>
      </trkpt>
      <trkpt lat="44.09944" lon="5.15955">
        <ele>381.7</ele>
        <time>2012-09-15T08:31:43.000Z</time>
      </trkpt>
      <trkpt lat="44.09946" lon="5.15952">
        <ele>380.9</ele>
        <time>2012-09-15T08:31:44.000Z</time>
      </trkpt>
      <trkpt lat="44.09948" lon="5.1595">
        <ele>380.6</ele>
        <time>2012-09-15T08:31:45.000Z</time>
      </trkpt>
      <trkpt lat="44.0995" lon="5.15947">
        <ele>380</ele>
        <time>2012-09-15T08:31:46.000Z</time>
      </trkpt>
      <trkpt lat="44.09951" lon="5.15941">
        <ele>379.9</ele>
        <time>2012-09-15T08:31:48.000Z</time>
      </trkpt>
      <trkpt lat="44.09953" lon="5.15934">
        <ele>379.5</ele>
        <time>2012-09-15T08:31:50.000Z</time>
      </trkpt>
      <trkpt lat="44.09954" lon="5.15926">
        <ele>378.9</ele>
        <time>2012-09-15T08:31:52.000Z</time>
      </trkpt>
      <trkpt lat="44.09956" lon="5.15923">
        <ele>379</ele>
        <time>2012-09-15T08:31:53.000Z</time>
      </trkpt>
      <trkpt lat="44.09958" lon="5.15918">
        <ele>378.2</ele>
        <time>2012-09-15T08:31:54.000Z</time>
      </trkpt>
      <trkpt lat="44.09961" lon="5.15914">
        <ele>377.9</ele>
        <time>2012-09-15T08:31:55.000Z</time>
      </trkpt>
      <trkpt lat="44.09963" lon="5.15909">
        <ele>377.4</ele>
        <time>2012-09-15T08:31:56.000Z</time>
      </trkpt>
      <trkpt lat="44.09966" lon="5.15905">
        <ele>377.1</ele>
        <time>2012-09-15T08:31:57.000Z</time>
      </trkpt>
      <trkpt lat="44.09968" lon="5.159">
        <ele>376.7</ele>
        <time>2012-09-15T08:31:58.000Z</time>
      </trkpt>
      <trkpt lat="44.09971" lon="5.15894">
        <ele>376.4</ele>
        <time>2012-09-15T08:31:59.000Z</time>
      </trkpt>
      <trkpt lat="44.09973" lon="5.15889">
        <ele>376</ele>
        <time>2012-09-15T08:32:00.000Z</time>
      </trkpt>
      <trkpt lat="44.09976" lon="5.15885">
        <ele>375.6</ele>
        <time>2012-09-15T08:32:01.000Z</time>
      </trkpt>
      <trkpt lat="44.09978" lon="5.15882">
        <ele>375.2</ele>
        <time>2012-09-15T08:32:02.000Z</time>
      </trkpt>
      <trkpt lat="44.09982" lon="5.15877">
        <ele>374.9</ele>
        <time>2012-09-15T08:32:04.000Z</time>
      </trkpt>
      <trkpt lat="44.09984" lon="5.15875">
        <ele>374.4</ele>
        <time>2012-09-15T08:32:05.000Z</time>
      </trkpt>
      <trkpt lat="44.09987" lon="5.1587">
        <ele>373.5</ele>
        <time>2012-09-15T08:32:07.000Z</time>
      </trkpt>
      <trkpt lat="44.09988" lon="5.15864">
        <ele>373.3</ele>
        <time>2012-09-15T08:32:09.000Z</time>
      </trkpt>
      <trkpt lat="44.09989" lon="5.15856">
        <ele>373</ele>
        <time>2012-09-15T08:32:11.000Z</time>
      </trkpt>
      <trkpt lat="44.0999" lon="5.15852">
        <ele>373.2</ele>
        <time>2012-09-15T08:32:12.000Z</time>
      </trkpt>
      <trkpt lat="44.09991" lon="5.15848">
        <ele>373.3</ele>
        <time>2012-09-15T08:32:13.000Z</time>
      </trkpt>
      <trkpt lat="44.09989" lon="5.15843">
        <ele>373.3</ele>
        <time>2012-09-15T08:32:14.000Z</time>
      </trkpt>
      <trkpt lat="44.09987" lon="5.15839">
        <ele>373.4</ele>
        <time>2012-09-15T08:32:15.000Z</time>
      </trkpt>
      <trkpt lat="44.09985" lon="5.15835">
        <ele>373.6</ele>
        <time>2012-09-15T08:32:16.000Z</time>
      </trkpt>
      <trkpt lat="44.09983" lon="5.15831">
        <ele>373.8</ele>
        <time>2012-09-15T08:32:17.000Z</time>
      </trkpt>
      <trkpt lat="44.0998" lon="5.15829">
        <ele>373.7</ele>
        <time>2012-09-15T08:32:18.000Z</time>
      </trkpt>
      <trkpt lat="44.09977" lon="5.15825">
        <ele>373.9</ele>
        <time>2012-09-15T08:32:19.000Z</time>
      </trkpt>
      <trkpt lat="44.09974" lon="5.15822">
        <ele>374.1</ele>
        <time>2012-09-15T08:32:20.000Z</time>
      </trkpt>
      <trkpt lat="44.09972" lon="5.1582">
        <ele>373.9</ele>
        <time>2012-09-15T08:32:21.000Z</time>
      </trkpt>
      <trkpt lat="44.09969" lon="5.15816">
        <ele>374.1</ele>
        <time>2012-09-15T08:32:22.000Z</time>
      </trkpt>
      <trkpt lat="44.09967" lon="5.15813">
        <ele>374.2</ele>
        <time>2012-09-15T08:32:23.000Z</time>
      </trkpt>
      <trkpt lat="44.09965" lon="5.15809">
        <ele>374.6</ele>
        <time>2012-09-15T08:32:25.000Z</time>
      </trkpt>
      <trkpt lat="44.09962" lon="5.15811">
        <ele>374.3</ele>
        <time>2012-09-15T08:32:42.000Z</time>
      </trkpt>
      <trkpt lat="44.09961" lon="5.15815">
        <ele>374.8</ele>
        <time>2012-09-15T08:33:00.000Z</time>
      </trkpt>
      <trkpt lat="44.09963" lon="5.15812">
        <ele>374.7</ele>
        <time>2012-09-15T08:33:50.000Z</time>
      </trkpt>
      <trkpt lat="44.09966" lon="5.15811">
        <ele>373.4</ele>
        <time>2012-09-15T08:33:54.000Z</time>
      </trkpt>
      <trkpt lat="44.09963" lon="5.15811">
        <ele>370.6</ele>
        <time>2012-09-15T08:33:58.000Z</time>
      </trkpt>
      <trkpt lat="44.09961" lon="5.15814">
        <ele>374.1</ele>
        <time>2012-09-15T08:34:17.000Z</time>
      </trkpt>
      <trkpt lat="44.09959" lon="5.15817">
        <ele>374.3</ele>
        <time>2012-09-15T08:34:20.000Z</time>
      </trkpt>
      <trkpt lat="44.09956" lon="5.15821">
        <ele>375.4</ele>
        <time>2012-09-15T08:34:22.000Z</time>
      </trkpt>
      <trkpt lat="44.09953" lon="5.15824">
        <ele>376.5</ele>
        <time>2012-09-15T08:34:24.000Z</time>
      </trkpt>
      <trkpt lat="44.0995" lon="5.15827">
        <ele>376.9</ele>
        <time>2012-09-15T08:34:26.000Z</time>
      </trkpt>
      <trkpt lat="44.09946" lon="5.1583">
        <ele>377.6</ele>
        <time>2012-09-15T08:34:28.000Z</time>
      </trkpt>
      <trkpt lat="44.09942" lon="5.15832">
        <ele>377.7</ele>
        <time>2012-09-15T08:34:30.000Z</time>
      </trkpt>
      <trkpt lat="44.0994" lon="5.15833">
        <ele>378.3</ele>
        <time>2012-09-15T08:34:31.000Z</time>
      </trkpt>
      <trkpt lat="44.09937" lon="5.15835">
        <ele>378.3</ele>
        <time>2012-09-15T08:34:32.000Z</time>
      </trkpt>
      <trkpt lat="44.09934" lon="5.15836">
        <ele>377.4</ele>
        <time>2012-09-15T08:34:33.000Z</time>
      </trkpt>
      <trkpt lat="44.09932" lon="5.15838">
        <ele>377.8</ele>
        <time>2012-09-15T08:34:34.000Z</time>
      </trkpt>
      <trkpt lat="44.09929" lon="5.1584">
        <ele>377.8</ele>
        <time>2012-09-15T08:34:35.000Z</time>
      </trkpt>
      <trkpt lat="44.09926" lon="5.15841">
        <ele>377.7</ele>
        <time>2012-09-15T08:34:36.000Z</time>
      </trkpt>
      <trkpt lat="44.09923" lon="5.15843">
        <ele>377.5</ele>
        <time>2012-09-15T08:34:37.000Z</time>
      </trkpt>
      <trkpt lat="44.0992" lon="5.15845">
        <ele>377.5</ele>
        <time>2012-09-15T08:34:38.000Z</time>
      </trkpt>
      <trkpt lat="44.09916" lon="5.15847">
        <ele>377.4</ele>
        <time>2012-09-15T08:34:39.000Z</time>
      </trkpt>
      <trkpt lat="44.09913" lon="5.15849">
        <ele>377.3</ele>
        <time>2012-09-15T08:34:40.000Z</time>
      </trkpt>
      <trkpt lat="44.09909" lon="5.15852">
        <ele>377.3</ele>
        <time>2012-09-15T08:34:41.000Z</time>
      </trkpt>
      <trkpt lat="44.09906" lon="5.15854">
        <ele>377.3</ele>
        <time>2012-09-15T08:34:42.000Z</time>
      </trkpt>
      <trkpt lat="44.09902" lon="5.15857">
        <ele>376.8</ele>
        <time>2012-09-15T08:34:43.000Z</time>
      </trkpt>
      <trkpt lat="44.09898" lon="5.15858">
        <ele>376.9</ele>
        <time>2012-09-15T08:34:44.000Z</time>
      </trkpt>
      <trkpt lat="44.09894" lon="5.1586">
        <ele>377.1</ele>
        <time>2012-09-15T08:34:45.000Z</time>
      </trkpt>
      <trkpt lat="44.0989" lon="5.15862">
        <ele>377</ele>
        <time>2012-09-15T08:34:46.000Z</time>
      </trkpt>
      <trkpt lat="44.09887" lon="5.15864">
        <ele>377</ele>
        <time>2012-09-15T08:34:47.000Z</time>
      </trkpt>
      <trkpt lat="44.09883" lon="5.15865">
        <ele>377</ele>
        <time>2012-09-15T08:34:48.000Z</time>
      </trkpt>
      <trkpt lat="44.09879" lon="5.15865">
        <ele>376.8</ele>
        <time>2012-09-15T08:34:49.000Z</time>
      </trkpt>
      <trkpt lat="44.09874" lon="5.15866">
        <ele>376.8</ele>
        <time>2012-09-15T08:34:50.000Z</time>
      </trkpt>
      <trkpt lat="44.0987" lon="5.15867">
        <ele>376.9</ele>
        <time>2012-09-15T08:34:51.000Z</time>
      </trkpt>
      <trkpt lat="44.09865" lon="5.15867">
        <ele>377.1</ele>
        <time>2012-09-15T08:34:52.000Z</time>
      </trkpt>
      <trkpt lat="44.09861" lon="5.15868">
        <ele>376.8</ele>
        <time>2012-09-15T08:34:53.000Z</time>
      </trkpt>
      <trkpt lat="44.09856" lon="5.15867">
        <ele>376.8</ele>
        <time>2012-09-15T08:34:54.000Z</time>
      </trkpt>
      <trkpt lat="44.09852" lon="5.15867">
        <ele>377</ele>
        <time>2012-09-15T08:34:55.000Z</time>
      </trkpt>
      <trkpt lat="44.09847" lon="5.15867">
        <ele>377.1</ele>
        <time>2012-09-15T08:34:56.000Z</time>
      </trkpt>
      <trkpt lat="44.09843" lon="5.15867">
        <ele>376.7</ele>
        <time>2012-09-15T08:34:57.000Z</time>
      </trkpt>
      <trkpt lat="44.09839" lon="5.15868">
        <ele>376.7</ele>
        <time>2012-09-15T08:34:58.000Z</time>
      </trkpt>
      <trkpt lat="44.09836" lon="5.15869">
        <ele>377.1</ele>
        <time>2012-09-15T08:34:59.000Z</time>
      </trkpt>
      <trkpt lat="44.09832" lon="5.1587">
        <ele>377.3</ele>
        <time>2012-09-15T08:35:00.000Z</time>
      </trkpt>
      <trkpt lat="44.09828" lon="5.15872">
        <ele>377.5</ele>
        <time>2012-09-15T08:35:01.000Z</time>
      </trkpt>
      <trkpt lat="44.09824" lon="5.15874">
        <ele>377.5</ele>
        <time>2012-09-15T08:35:02.000Z</time>
      </trkpt>
      <trkpt lat="44.0982" lon="5.15875">
        <ele>377.2</ele>
        <time>2012-09-15T08:35:03.000Z</time>
      </trkpt>
      <trkpt lat="44.09816" lon="5.15877">
        <ele>377</ele>
        <time>2012-09-15T08:35:04.000Z</time>
      </trkpt>
      <trkpt lat="44.09812" lon="5.15878">
        <ele>377.2</ele>
        <time>2012-09-15T08:35:05.000Z</time>
      </trkpt>
      <trkpt lat="44.09808" lon="5.15879">
        <ele>377.3</ele>
        <time>2012-09-15T08:35:06.000Z</time>
      </trkpt>
      <trkpt lat="44.09804" lon="5.1588">
        <ele>376.9</ele>
        <time>2012-09-15T08:35:07.000Z</time>
      </trkpt>
      <trkpt lat="44.098" lon="5.15882">
        <ele>376.5</ele>
        <time>2012-09-15T08:35:08.000Z</time>
      </trkpt>
      <trkpt lat="44.09796" lon="5.15884">
        <ele>376.7</ele>
        <time>2012-09-15T08:35:09.000Z</time>
      </trkpt>
      <trkpt lat="44.09792" lon="5.15886">
        <ele>376.7</ele>
        <time>2012-09-15T08:35:10.000Z</time>
      </trkpt>
      <trkpt lat="44.09787" lon="5.15888">
        <ele>376.6</ele>
        <time>2012-09-15T08:35:11.000Z</time>
      </trkpt>
      <trkpt lat="44.09784" lon="5.15889">
        <ele>376.6</ele>
        <time>2012-09-15T08:35:12.000Z</time>
      </trkpt>
      <trkpt lat="44.0978" lon="5.15891">
        <ele>376.8</ele>
        <time>2012-09-15T08:35:13.000Z</time>
      </trkpt>
      <trkpt lat="44.09776" lon="5.15892">
        <ele>377</ele>
        <time>2012-09-15T08:35:14.000Z</time>
      </trkpt>
      <trkpt lat="44.09772" lon="5.15894">
        <ele>377</ele>
        <time>2012-09-15T08:35:15.000Z</time>
      </trkpt>
      <trkpt lat="44.09768" lon="5.15896">
        <ele>377</ele>
        <time>2012-09-15T08:35:16.000Z</time>
      </trkpt>
      <trkpt lat="44.09764" lon="5.15898">
        <ele>377</ele>
        <time>2012-09-15T08:35:17.000Z</time>
      </trkpt>
      <trkpt lat="44.09761" lon="5.159">
        <ele>376.9</ele>
        <time>2012-09-15T08:35:18.000Z</time>
      </trkpt>
      <trkpt lat="44.09757" lon="5.15902">
        <ele>377</ele>
        <time>2012-09-15T08:35:19.000Z</time>
      </trkpt>
      <trkpt lat="44.09754" lon="5.15903">
        <ele>377</ele>
        <time>2012-09-15T08:35:20.000Z</time>
      </trkpt>
      <trkpt lat="44.0975" lon="5.15904">
        <ele>377</ele>
        <time>2012-09-15T08:35:21.000Z</time>
      </trkpt>
      <trkpt lat="44.09746" lon="5.15905">
        <ele>377</ele>
        <time>2012-09-15T08:35:22.000Z</time>
      </trkpt>
      <trkpt lat="44.09743" lon="5.15906">
        <ele>376.8</ele>
        <time>2012-09-15T08:35:23.000Z</time>
      </trkpt>
      <trkpt lat="44.09739" lon="5.15907">
        <ele>376.6</ele>
        <time>2012-09-15T08:35:24.000Z</time>
      </trkpt>
      <trkpt lat="44.09735" lon="5.15908">
        <ele>376.5</ele>
        <time>2012-09-15T08:35:25.000Z</time>
      </trkpt>
      <trkpt lat="44.09731" lon="5.15909">
        <ele>376.3</ele>
        <time>2012-09-15T08:35:26.000Z</time>
      </trkpt>
      <trkpt lat="44.09727" lon="5.1591">
        <ele>376.2</ele>
        <time>2012-09-15T08:35:27.000Z</time>
      </trkpt>
      <trkpt lat="44.09723" lon="5.15911">
        <ele>376.3</ele>
        <time>2012-09-15T08:35:28.000Z</time>
      </trkpt>
      <trkpt lat="44.09718" lon="5.15912">
        <ele>376.3</ele>
        <time>2012-09-15T08:35:29.000Z</time>
      </trkpt>
      <trkpt lat="44.09714" lon="5.15913">
        <ele>376.1</ele>
        <time>2012-09-15T08:35:30.000Z</time>
      </trkpt>
      <trkpt lat="44.0971" lon="5.15914">
        <ele>375.9</ele>
        <time>2012-09-15T08:35:31.000Z</time>
      </trkpt>
      <trkpt lat="44.09705" lon="5.15915">
        <ele>375.8</ele>
        <time>2012-09-15T08:35:32.000Z</time>
      </trkpt>
      <trkpt lat="44.09701" lon="5.15914">
        <ele>375.8</ele>
        <time>2012-09-15T08:35:33.000Z</time>
      </trkpt>
      <trkpt lat="44.09697" lon="5.15913">
        <ele>375.4</ele>
        <time>2012-09-15T08:35:34.000Z</time>
      </trkpt>
      <trkpt lat="44.09693" lon="5.1591">
        <ele>374.9</ele>
        <time>2012-09-15T08:35:35.000Z</time>
      </trkpt>
      <trkpt lat="44.09689" lon="5.15907">
        <ele>374.8</ele>
        <time>2012-09-15T08:35:36.000Z</time>
      </trkpt>
      <trkpt lat="44.09686" lon="5.15904">
        <ele>374</ele>
        <time>2012-09-15T08:35:37.000Z</time>
      </trkpt>
      <trkpt lat="44.09683" lon="5.159">
        <ele>373.5</ele>
        <time>2012-09-15T08:35:38.000Z</time>
      </trkpt>
      <trkpt lat="44.0968" lon="5.15897">
        <ele>372.9</ele>
        <time>2012-09-15T08:35:39.000Z</time>
      </trkpt>
      <trkpt lat="44.09676" lon="5.15893">
        <ele>372.6</ele>
        <time>2012-09-15T08:35:40.000Z</time>
      </trkpt>
      <trkpt lat="44.09673" lon="5.1589">
        <ele>372</ele>
        <time>2012-09-15T08:35:41.000Z</time>
      </trkpt>
      <trkpt lat="44.09669" lon="5.15885">
        <ele>371.5</ele>
        <time>2012-09-15T08:35:42.000Z</time>
      </trkpt>
      <trkpt lat="44.09656" lon="5.1588">
        <ele>372.1</ele>
        <time>2012-09-15T08:35:43.000Z</time>
      </trkpt>
      <trkpt lat="44.0965" lon="5.15877">
        <ele>372.1</ele>
        <time>2012-09-15T08:35:44.000Z</time>
      </trkpt>
      <trkpt lat="44.09643" lon="5.15876">
        <ele>372.3</ele>
        <time>2012-09-15T08:35:45.000Z</time>
      </trkpt>
      <trkpt lat="44.09636" lon="5.15875">
        <ele>372.6</ele>
        <time>2012-09-15T08:35:46.000Z</time>
      </trkpt>
      <trkpt lat="44.09632" lon="5.15878">
        <ele>372.9</ele>
        <time>2012-09-15T08:35:47.000Z</time>
      </trkpt>
      <trkpt lat="44.09625" lon="5.15879">
        <ele>373</ele>
        <time>2012-09-15T08:35:48.000Z</time>
      </trkpt>
      <trkpt lat="44.09618" lon="5.15879">
        <ele>372.4</ele>
        <time>2012-09-15T08:35:49.000Z</time>
      </trkpt>
      <trkpt lat="44.0961" lon="5.15879">
        <ele>371.9</ele>
        <time>2012-09-15T08:35:50.000Z</time>
      </trkpt>
      <trkpt lat="44.09603" lon="5.1588">
        <ele>371.5</ele>
        <time>2012-09-15T08:35:51.000Z</time>
      </trkpt>
      <trkpt lat="44.09596" lon="5.15881">
        <ele>370.8</ele>
        <time>2012-09-15T08:35:52.000Z</time>
      </trkpt>
      <trkpt lat="44.0959" lon="5.15882">
        <ele>370.2</ele>
        <time>2012-09-15T08:35:53.000Z</time>
      </trkpt>
      <trkpt lat="44.09586" lon="5.15885">
        <ele>369.9</ele>
        <time>2012-09-15T08:35:54.000Z</time>
      </trkpt>
      <trkpt lat="44.09581" lon="5.15889">
        <ele>369.7</ele>
        <time>2012-09-15T08:35:55.000Z</time>
      </trkpt>
      <trkpt lat="44.09576" lon="5.15893">
        <ele>369.7</ele>
        <time>2012-09-15T08:35:56.000Z</time>
      </trkpt>
      <trkpt lat="44.09572" lon="5.15897">
        <ele>369.2</ele>
        <time>2012-09-15T08:35:57.000Z</time>
      </trkpt>
      <trkpt lat="44.09567" lon="5.159">
        <ele>369.1</ele>
        <time>2012-09-15T08:35:58.000Z</time>
      </trkpt>
      <trkpt lat="44.09563" lon="5.15904">
        <ele>368.8</ele>
        <time>2012-09-15T08:35:59.000Z</time>
      </trkpt>
      <trkpt lat="44.09559" lon="5.15908">
        <ele>369.2</ele>
        <time>2012-09-15T08:36:00.000Z</time>
      </trkpt>
      <trkpt lat="44.0956" lon="5.15912">
        <ele>369.4</ele>
        <time>2012-09-15T08:36:01.000Z</time>
      </trkpt>
      <trkpt lat="44.09558" lon="5.15916">
        <ele>369.5</ele>
        <time>2012-09-15T08:36:02.000Z</time>
      </trkpt>
      <trkpt lat="44.09557" lon="5.1592">
        <ele>369.9</ele>
        <time>2012-09-15T08:36:03.000Z</time>
      </trkpt>
      <trkpt lat="44.09556" lon="5.15924">
        <ele>370.2</ele>
        <time>2012-09-15T08:36:04.000Z</time>
      </trkpt>
      <trkpt lat="44.09556" lon="5.15928">
        <ele>370.6</ele>
        <time>2012-09-15T08:36:05.000Z</time>
      </trkpt>
      <trkpt lat="44.09556" lon="5.15934">
        <ele>371.1</ele>
        <time>2012-09-15T08:36:06.000Z</time>
      </trkpt>
      <trkpt lat="44.09556" lon="5.15939">
        <ele>371.3</ele>
        <time>2012-09-15T08:36:07.000Z</time>
      </trkpt>
      <trkpt lat="44.09555" lon="5.15943">
        <ele>371.5</ele>
        <time>2012-09-15T08:36:08.000Z</time>
      </trkpt>
      <trkpt lat="44.09554" lon="5.15948">
        <ele>371.3</ele>
        <time>2012-09-15T08:36:09.000Z</time>
      </trkpt>
      <trkpt lat="44.09551" lon="5.15953">
        <ele>371.2</ele>
        <time>2012-09-15T08:36:10.000Z</time>
      </trkpt>
      <trkpt lat="44.09544" lon="5.1595">
        <ele>370.6</ele>
        <time>2012-09-15T08:36:11.000Z</time>
      </trkpt>
      <trkpt lat="44.0954" lon="5.15951">
        <ele>370.1</ele>
        <time>2012-09-15T08:36:12.000Z</time>
      </trkpt>
      <trkpt lat="44.09537" lon="5.15953">
        <ele>370.2</ele>
        <time>2012-09-15T08:36:13.000Z</time>
      </trkpt>
      <trkpt lat="44.09533" lon="5.15955">
        <ele>369.8</ele>
        <time>2012-09-15T08:36:14.000Z</time>
      </trkpt>
      <trkpt lat="44.09527" lon="5.15955">
        <ele>369.6</ele>
        <time>2012-09-15T08:36:15.000Z</time>
      </trkpt>
      <trkpt lat="44.09522" lon="5.15957">
        <ele>369.4</ele>
        <time>2012-09-15T08:36:16.000Z</time>
      </trkpt>
      <trkpt lat="44.09517" lon="5.15958">
        <ele>370.3</ele>
        <time>2012-09-15T08:36:17.000Z</time>
      </trkpt>
      <trkpt lat="44.09513" lon="5.1596">
        <ele>369.5</ele>
        <time>2012-09-15T08:36:18.000Z</time>
      </trkpt>
      <trkpt lat="44.09508" lon="5.15962">
        <ele>369.8</ele>
        <time>2012-09-15T08:36:19.000Z</time>
      </trkpt>
      <trkpt lat="44.09504" lon="5.15964">
        <ele>370</ele>
        <time>2012-09-15T08:36:20.000Z</time>
      </trkpt>
      <trkpt lat="44.09498" lon="5.15967">
        <ele>370.1</ele>
        <time>2012-09-15T08:36:21.000Z</time>
      </trkpt>
      <trkpt lat="44.09493" lon="5.15969">
        <ele>370.7</ele>
        <time>2012-09-15T08:36:22.000Z</time>
      </trkpt>
      <trkpt lat="44.09488" lon="5.15971">
        <ele>370.9</ele>
        <time>2012-09-15T08:36:23.000Z</time>
      </trkpt>
      <trkpt lat="44.09482" lon="5.15973">
        <ele>371</ele>
        <time>2012-09-15T08:36:24.000Z</time>
      </trkpt>
      <trkpt lat="44.09476" lon="5.15976">
        <ele>370.6</ele>
        <time>2012-09-15T08:36:25.000Z</time>
      </trkpt>
      <trkpt lat="44.09471" lon="5.15977">
        <ele>371.6</ele>
        <time>2012-09-15T08:36:26.000Z</time>
      </trkpt>
      <trkpt lat="44.09465" lon="5.15978">
        <ele>371.4</ele>
        <time>2012-09-15T08:36:27.000Z</time>
      </trkpt>
      <trkpt lat="44.09461" lon="5.15979">
        <ele>372.1</ele>
        <time>2012-09-15T08:36:28.000Z</time>
      </trkpt>
      <trkpt lat="44.09457" lon="5.1598">
        <ele>372.3</ele>
        <time>2012-09-15T08:36:29.000Z</time>
      </trkpt>
      <trkpt lat="44.09453" lon="5.1598">
        <ele>372.6</ele>
        <time>2012-09-15T08:36:30.000Z</time>
      </trkpt>
      <trkpt lat="44.0945" lon="5.1598">
        <ele>372.9</ele>
        <time>2012-09-15T08:36:31.000Z</time>
      </trkpt>
      <trkpt lat="44.09446" lon="5.1598">
        <ele>372.8</ele>
        <time>2012-09-15T08:36:32.000Z</time>
      </trkpt>
      <trkpt lat="44.09444" lon="5.15979">
        <ele>373.1</ele>
        <time>2012-09-15T08:36:33.000Z</time>
      </trkpt>
      <trkpt lat="44.09441" lon="5.15978">
        <ele>373.2</ele>
        <time>2012-09-15T08:36:34.000Z</time>
      </trkpt>
      <trkpt lat="44.09436" lon="5.15976">
        <ele>372.8</ele>
        <time>2012-09-15T08:36:35.000Z</time>
      </trkpt>
      <trkpt lat="44.09434" lon="5.15973">
        <ele>372.6</ele>
        <time>2012-09-15T08:36:36.000Z</time>
      </trkpt>
      <trkpt lat="44.09431" lon="5.1597">
        <ele>372.4</ele>
        <time>2012-09-15T08:36:37.000Z</time>
      </trkpt>
      <trkpt lat="44.0943" lon="5.15962">
        <ele>371.1</ele>
        <time>2012-09-15T08:36:38.000Z</time>
      </trkpt>
      <trkpt lat="44.09428" lon="5.15956">
        <ele>369.9</ele>
        <time>2012-09-15T08:36:39.000Z</time>
      </trkpt>
      <trkpt lat="44.09426" lon="5.15949">
        <ele>369.2</ele>
        <time>2012-09-15T08:36:40.000Z</time>
      </trkpt>
      <trkpt lat="44.09424" lon="5.15941">
        <ele>368.9</ele>
        <time>2012-09-15T08:36:41.000Z</time>
      </trkpt>
      <trkpt lat="44.09421" lon="5.15933">
        <ele>368</ele>
        <time>2012-09-15T08:36:42.000Z</time>
      </trkpt>
      <trkpt lat="44.09418" lon="5.15926">
        <ele>367.8</ele>
        <time>2012-09-15T08:36:43.000Z</time>
      </trkpt>
      <trkpt lat="44.09416" lon="5.15918">
        <ele>367.5</ele>
        <time>2012-09-15T08:36:44.000Z</time>
      </trkpt>
      <trkpt lat="44.09414" lon="5.15913">
        <ele>366.9</ele>
        <time>2012-09-15T08:36:45.000Z</time>
      </trkpt>
      <trkpt lat="44.09411" lon="5.15908">
        <ele>366.6</ele>
        <time>2012-09-15T08:36:46.000Z</time>
      </trkpt>
      <trkpt lat="44.09409" lon="5.15904">
        <ele>366.2</ele>
        <time>2012-09-15T08:36:47.000Z</time>
      </trkpt>
      <trkpt lat="44.09407" lon="5.159">
        <ele>366.1</ele>
        <time>2012-09-15T08:36:48.000Z</time>
      </trkpt>
      <trkpt lat="44.09405" lon="5.15897">
        <ele>365.6</ele>
        <time>2012-09-15T08:36:49.000Z</time>
      </trkpt>
      <trkpt lat="44.09402" lon="5.15895">
        <ele>365.6</ele>
        <time>2012-09-15T08:36:51.000Z</time>
      </trkpt>
      <trkpt lat="44.09399" lon="5.15895">
        <ele>367.4</ele>
        <time>2012-09-15T08:36:54.000Z</time>
      </trkpt>
      <trkpt lat="44.09397" lon="5.15893">
        <ele>368.2</ele>
        <time>2012-09-15T08:36:58.000Z</time>
      </trkpt>
      <trkpt lat="44.09398" lon="5.1589">
        <ele>368.9</ele>
        <time>2012-09-15T08:37:15.000Z</time>
      </trkpt>
      <trkpt lat="44.09396" lon="5.15894">
        <ele>370.8</ele>
        <time>2012-09-15T08:37:23.000Z</time>
      </trkpt>
      <trkpt lat="44.09393" lon="5.15898">
        <ele>371.6</ele>
        <time>2012-09-15T08:37:26.000Z</time>
      </trkpt>
      <trkpt lat="44.09392" lon="5.15902">
        <ele>371.9</ele>
        <time>2012-09-15T08:37:28.000Z</time>
      </trkpt>
      <trkpt lat="44.0939" lon="5.15907">
        <ele>371.9</ele>
        <time>2012-09-15T08:37:30.000Z</time>
      </trkpt>
      <trkpt lat="44.09389" lon="5.15911">
        <ele>372.6</ele>
        <time>2012-09-15T08:37:32.000Z</time>
      </trkpt>
      <trkpt lat="44.09388" lon="5.15915">
        <ele>373.3</ele>
        <time>2012-09-15T08:37:34.000Z</time>
      </trkpt>
      <trkpt lat="44.09386" lon="5.15918">
        <ele>374.7</ele>
        <time>2012-09-15T08:37:37.000Z</time>
      </trkpt>
      <trkpt lat="44.09383" lon="5.15922">
        <ele>374.7</ele>
        <time>2012-09-15T08:37:40.000Z</time>
      </trkpt>
      <trkpt lat="44.09381" lon="5.15925">
        <ele>374.6</ele>
        <time>2012-09-15T08:37:44.000Z</time>
      </trkpt>
      <trkpt lat="44.0938" lon="5.15928">
        <ele>373.9</ele>
        <time>2012-09-15T08:37:46.000Z</time>
      </trkpt>
      <trkpt lat="44.09378" lon="5.1593">
        <ele>373.2</ele>
        <time>2012-09-15T08:37:48.000Z</time>
      </trkpt>
      <trkpt lat="44.09374" lon="5.15931">
        <ele>372.7</ele>
        <time>2012-09-15T08:37:50.000Z</time>
      </trkpt>
      <trkpt lat="44.0937" lon="5.1593">
        <ele>372.1</ele>
        <time>2012-09-15T08:37:53.000Z</time>
      </trkpt>
      <trkpt lat="44.09368" lon="5.15927">
        <ele>370.9</ele>
        <time>2012-09-15T08:37:55.000Z</time>
      </trkpt>
      <trkpt lat="44.09365" lon="5.15929">
        <ele>370.7</ele>
        <time>2012-09-15T08:37:58.000Z</time>
      </trkpt>
      <trkpt lat="44.09362" lon="5.15934">
        <ele>370.7</ele>
        <time>2012-09-15T08:38:00.000Z</time>
      </trkpt>
      <trkpt lat="44.09355" lon="5.15938">
        <ele>370</ele>
        <time>2012-09-15T08:38:01.000Z</time>
      </trkpt>
      <trkpt lat="44.09351" lon="5.15941">
        <ele>369.7</ele>
        <time>2012-09-15T08:38:02.000Z</time>
      </trkpt>
      <trkpt lat="44.09348" lon="5.15942">
        <ele>369.8</ele>
        <time>2012-09-15T08:38:03.000Z</time>
      </trkpt>
      <trkpt lat="44.09345" lon="5.15943">
        <ele>369.6</ele>
        <time>2012-09-15T08:38:04.000Z</time>
      </trkpt>
      <trkpt lat="44.09342" lon="5.15945">
        <ele>369.6</ele>
        <time>2012-09-15T08:38:05.000Z</time>
      </trkpt>
      <trkpt lat="44.09339" lon="5.15946">
        <ele>369.7</ele>
        <time>2012-09-15T08:38:06.000Z</time>
      </trkpt>
      <trkpt lat="44.09335" lon="5.15948">
        <ele>369.3</ele>
        <time>2012-09-15T08:38:07.000Z</time>
      </trkpt>
      <trkpt lat="44.09331" lon="5.15947">
        <ele>369.2</ele>
        <time>2012-09-15T08:38:08.000Z</time>
      </trkpt>
      <trkpt lat="44.09328" lon="5.15944">
        <ele>368.9</ele>
        <time>2012-09-15T08:38:09.000Z</time>
      </trkpt>
      <trkpt lat="44.09324" lon="5.15942">
        <ele>368.6</ele>
        <time>2012-09-15T08:38:10.000Z</time>
      </trkpt>
      <trkpt lat="44.09322" lon="5.15939">
        <ele>368.3</ele>
        <time>2012-09-15T08:38:11.000Z</time>
      </trkpt>
      <trkpt lat="44.09322" lon="5.15935">
        <ele>367.8</ele>
        <time>2012-09-15T08:38:12.000Z</time>
      </trkpt>
      <trkpt lat="44.09318" lon="5.15931">
        <ele>366.4</ele>
        <time>2012-09-15T08:38:14.000Z</time>
      </trkpt>
      <trkpt lat="44.09315" lon="5.15928">
        <ele>365.5</ele>
        <time>2012-09-15T08:38:16.000Z</time>
      </trkpt>
      <trkpt lat="44.09309" lon="5.15929">
        <ele>363.5</ele>
        <time>2012-09-15T08:38:18.000Z</time>
      </trkpt>
      <trkpt lat="44.09306" lon="5.15926">
        <ele>363.4</ele>
        <time>2012-09-15T08:38:19.000Z</time>
      </trkpt>
      <trkpt lat="44.09303" lon="5.15924">
        <ele>363</ele>
        <time>2012-09-15T08:38:20.000Z</time>
      </trkpt>
      <trkpt lat="44.093" lon="5.1592">
        <ele>362.5</ele>
        <time>2012-09-15T08:38:21.000Z</time>
      </trkpt>
      <trkpt lat="44.09302" lon="5.15911">
        <ele>361.9</ele>
        <time>2012-09-15T08:38:22.000Z</time>
      </trkpt>
      <trkpt lat="44.09302" lon="5.15905">
        <ele>361.6</ele>
        <time>2012-09-15T08:38:23.000Z</time>
      </trkpt>
      <trkpt lat="44.09303" lon="5.15897">
        <ele>360.9</ele>
        <time>2012-09-15T08:38:24.000Z</time>
      </trkpt>
      <trkpt lat="44.09305" lon="5.1589">
        <ele>360.3</ele>
        <time>2012-09-15T08:38:25.000Z</time>
      </trkpt>
      <trkpt lat="44.09308" lon="5.15884">
        <ele>360</ele>
        <time>2012-09-15T08:38:26.000Z</time>
      </trkpt>
      <trkpt lat="44.09311" lon="5.15878">
        <ele>359.2</ele>
        <time>2012-09-15T08:38:27.000Z</time>
      </trkpt>
      <trkpt lat="44.09312" lon="5.1587">
        <ele>358.6</ele>
        <time>2012-09-15T08:38:28.000Z</time>
      </trkpt>
      <trkpt lat="44.09315" lon="5.15863">
        <ele>358.3</ele>
        <time>2012-09-15T08:38:29.000Z</time>
      </trkpt>
      <trkpt lat="44.09318" lon="5.15856">
        <ele>357.6</ele>
        <time>2012-09-15T08:38:30.000Z</time>
      </trkpt>
      <trkpt lat="44.09321" lon="5.15848">
        <ele>357.7</ele>
        <time>2012-09-15T08:38:31.000Z</time>
      </trkpt>
      <trkpt lat="44.09324" lon="5.15842">
        <ele>357.7</ele>
        <time>2012-09-15T08:38:32.000Z</time>
      </trkpt>
      <trkpt lat="44.09325" lon="5.15836">
        <ele>358.2</ele>
        <time>2012-09-15T08:38:33.000Z</time>
      </trkpt>
      <trkpt lat="44.09328" lon="5.15835">
        <ele>358.1</ele>
        <time>2012-09-15T08:38:34.000Z</time>
      </trkpt>
      <trkpt lat="44.0933" lon="5.15832">
        <ele>358.6</ele>
        <time>2012-09-15T08:38:35.000Z</time>
      </trkpt>
      <trkpt lat="44.09333" lon="5.15828">
        <ele>359.2</ele>
        <time>2012-09-15T08:38:36.000Z</time>
      </trkpt>
      <trkpt lat="44.09333" lon="5.15812">
        <ele>357.3</ele>
        <time>2012-09-15T08:38:37.000Z</time>
      </trkpt>
      <trkpt lat="44.09335" lon="5.15806">
        <ele>357.3</ele>
        <time>2012-09-15T08:38:38.000Z</time>
      </trkpt>
      <trkpt lat="44.09336" lon="5.158">
        <ele>357</ele>
        <time>2012-09-15T08:38:39.000Z</time>
      </trkpt>
      <trkpt lat="44.09338" lon="5.15797">
        <ele>360.5</ele>
        <time>2012-09-15T08:38:42.000Z</time>
      </trkpt>
      <trkpt lat="44.09336" lon="5.1579">
        <ele>359.8</ele>
        <time>2012-09-15T08:38:44.000Z</time>
      </trkpt>
      <trkpt lat="44.09332" lon="5.15782">
        <ele>359.1</ele>
        <time>2012-09-15T08:38:46.000Z</time>
      </trkpt>
      <trkpt lat="44.0933" lon="5.15776">
        <ele>358</ele>
        <time>2012-09-15T08:38:48.000Z</time>
      </trkpt>
      <trkpt lat="44.0933" lon="5.1577">
        <ele>359.2</ele>
        <time>2012-09-15T08:38:49.000Z</time>
      </trkpt>
      <trkpt lat="44.0933" lon="5.15764">
        <ele>359.2</ele>
        <time>2012-09-15T08:38:50.000Z</time>
      </trkpt>
      <trkpt lat="44.0933" lon="5.15758">
        <ele>359.2</ele>
        <time>2012-09-15T08:38:51.000Z</time>
      </trkpt>
      <trkpt lat="44.09329" lon="5.15754">
        <ele>357.9</ele>
        <time>2012-09-15T08:38:52.000Z</time>
      </trkpt>
      <trkpt lat="44.09329" lon="5.1575">
        <ele>357.3</ele>
        <time>2012-09-15T08:38:53.000Z</time>
      </trkpt>
      <trkpt lat="44.09326" lon="5.15743">
        <ele>355.8</ele>
        <time>2012-09-15T08:38:55.000Z</time>
      </trkpt>
      <trkpt lat="44.09324" lon="5.15738">
        <ele>354.1</ele>
        <time>2012-09-15T08:38:57.000Z</time>
      </trkpt>
      <trkpt lat="44.09321" lon="5.15737">
        <ele>351.3</ele>
        <time>2012-09-15T08:39:01.000Z</time>
      </trkpt>
      <trkpt lat="44.09319" lon="5.15742">
        <ele>350.4</ele>
        <time>2012-09-15T08:39:04.000Z</time>
      </trkpt>
      <trkpt lat="44.09317" lon="5.15746">
        <ele>350.4</ele>
        <time>2012-09-15T08:39:06.000Z</time>
      </trkpt>
      <trkpt lat="44.09314" lon="5.15751">
        <ele>350</ele>
        <time>2012-09-15T08:39:08.000Z</time>
      </trkpt>
      <trkpt lat="44.09312" lon="5.15757">
        <ele>350.1</ele>
        <time>2012-09-15T08:39:10.000Z</time>
      </trkpt>
      <trkpt lat="44.09311" lon="5.15761">
        <ele>349.8</ele>
        <time>2012-09-15T08:39:11.000Z</time>
      </trkpt>
      <trkpt lat="44.09309" lon="5.15766">
        <ele>349.5</ele>
        <time>2012-09-15T08:39:12.000Z</time>
      </trkpt>
      <trkpt lat="44.09308" lon="5.1577">
        <ele>349.5</ele>
        <time>2012-09-15T08:39:13.000Z</time>
      </trkpt>
      <trkpt lat="44.09307" lon="5.15776">
        <ele>349.5</ele>
        <time>2012-09-15T08:39:14.000Z</time>
      </trkpt>
      <trkpt lat="44.09305" lon="5.15781">
        <ele>349.6</ele>
        <time>2012-09-15T08:39:15.000Z</time>
      </trkpt>
      <trkpt lat="44.09302" lon="5.15784">
        <ele>349.7</ele>
        <time>2012-09-15T08:39:16.000Z</time>
      </trkpt>
      <trkpt lat="44.093" lon="5.15788">
        <ele>349.2</ele>
        <time>2012-09-15T08:39:17.000Z</time>
      </trkpt>
      <trkpt lat="44.09296" lon="5.1579">
        <ele>349</ele>
        <time>2012-09-15T08:39:18.000Z</time>
      </trkpt>
      <trkpt lat="44.09292" lon="5.15791">
        <ele>348.9</ele>
        <time>2012-09-15T08:39:19.000Z</time>
      </trkpt>
      <trkpt lat="44.09287" lon="5.15792">
        <ele>348.6</ele>
        <time>2012-09-15T08:39:20.000Z</time>
      </trkpt>
      <trkpt lat="44.09282" lon="5.15793">
        <ele>348.8</ele>
        <time>2012-09-15T08:39:21.000Z</time>
      </trkpt>
      <trkpt lat="44.09278" lon="5.15793">
        <ele>348.8</ele>
        <time>2012-09-15T08:39:22.000Z</time>
      </trkpt>
      <trkpt lat="44.09273" lon="5.15793">
        <ele>349</ele>
        <time>2012-09-15T08:39:23.000Z</time>
      </trkpt>
      <trkpt lat="44.09269" lon="5.15793">
        <ele>349.3</ele>
        <time>2012-09-15T08:39:24.000Z</time>
      </trkpt>
      <trkpt lat="44.09265" lon="5.15792">
        <ele>348.9</ele>
        <time>2012-09-15T08:39:25.000Z</time>
      </trkpt>
      <trkpt lat="44.09261" lon="5.15793">
        <ele>348.5</ele>
        <time>2012-09-15T08:39:26.000Z</time>
      </trkpt>
      <trkpt lat="44.09258" lon="5.15795">
        <ele>348.1</ele>
        <time>2012-09-15T08:39:27.000Z</time>
      </trkpt>
      <trkpt lat="44.09254" lon="5.15794">
        <ele>348</ele>
        <time>2012-09-15T08:39:28.000Z</time>
      </trkpt>
      <trkpt lat="44.09249" lon="5.15793">
        <ele>348.1</ele>
        <time>2012-09-15T08:39:29.000Z</time>
      </trkpt>
      <trkpt lat="44.09243" lon="5.15792">
        <ele>348.5</ele>
        <time>2012-09-15T08:39:30.000Z</time>
      </trkpt>
      <trkpt lat="44.09238" lon="5.15791">
        <ele>348.7</ele>
        <time>2012-09-15T08:39:31.000Z</time>
      </trkpt>
      <trkpt lat="44.09232" lon="5.1579">
        <ele>349</ele>
        <time>2012-09-15T08:39:32.000Z</time>
      </trkpt>
      <trkpt lat="44.09226" lon="5.15789">
        <ele>349.2</ele>
        <time>2012-09-15T08:39:33.000Z</time>
      </trkpt>
      <trkpt lat="44.0922" lon="5.15788">
        <ele>349.3</ele>
        <time>2012-09-15T08:39:34.000Z</time>
      </trkpt>
      <trkpt lat="44.09216" lon="5.15787">
        <ele>349.3</ele>
        <time>2012-09-15T08:39:35.000Z</time>
      </trkpt>
      <trkpt lat="44.09213" lon="5.15784">
        <ele>349</ele>
        <time>2012-09-15T08:39:36.000Z</time>
      </trkpt>
      <trkpt lat="44.0921" lon="5.15782">
        <ele>348.8</ele>
        <time>2012-09-15T08:39:37.000Z</time>
      </trkpt>
      <trkpt lat="44.0921" lon="5.15774">
        <ele>348.2</ele>
        <time>2012-09-15T08:39:38.000Z</time>
      </trkpt>
      <trkpt lat="44.09209" lon="5.15768">
        <ele>348</ele>
        <time>2012-09-15T08:39:39.000Z</time>
      </trkpt>
      <trkpt lat="44.09205" lon="5.15764">
        <ele>348</ele>
        <time>2012-09-15T08:39:40.000Z</time>
      </trkpt>
      <trkpt lat="44.09203" lon="5.15759">
        <ele>348.1</ele>
        <time>2012-09-15T08:39:41.000Z</time>
      </trkpt>
      <trkpt lat="44.09201" lon="5.15755">
        <ele>348.3</ele>
        <time>2012-09-15T08:39:42.000Z</time>
      </trkpt>
      <trkpt lat="44.09199" lon="5.15751">
        <ele>347.9</ele>
        <time>2012-09-15T08:39:43.000Z</time>
      </trkpt>
      <trkpt lat="44.09204" lon="5.15747">
        <ele>347</ele>
        <time>2012-09-15T08:39:44.000Z</time>
      </trkpt>
      <trkpt lat="44.09204" lon="5.15744">
        <ele>346.8</ele>
        <time>2012-09-15T08:39:45.000Z</time>
      </trkpt>
      <trkpt lat="44.09207" lon="5.15738">
        <ele>346.4</ele>
        <time>2012-09-15T08:39:47.000Z</time>
      </trkpt>
      <trkpt lat="44.09212" lon="5.1574">
        <ele>350.9</ele>
        <time>2012-09-15T08:39:48.000Z</time>
      </trkpt>
      <trkpt lat="44.09215" lon="5.15741">
        <ele>353.5</ele>
        <time>2012-09-15T08:39:50.000Z</time>
      </trkpt>
      <trkpt lat="44.09219" lon="5.15738">
        <ele>353.6</ele>
        <time>2012-09-15T08:39:52.000Z</time>
      </trkpt>
      <trkpt lat="44.09224" lon="5.15738">
        <ele>352.4</ele>
        <time>2012-09-15T08:39:54.000Z</time>
      </trkpt>
      <trkpt lat="44.09229" lon="5.15739">
        <ele>350.9</ele>
        <time>2012-09-15T08:39:56.000Z</time>
      </trkpt>
      <trkpt lat="44.09227" lon="5.15732">
        <ele>350.6</ele>
        <time>2012-09-15T08:39:57.000Z</time>
      </trkpt>
      <trkpt lat="44.0923" lon="5.15728">
        <ele>349.6</ele>
        <time>2012-09-15T08:39:58.000Z</time>
      </trkpt>
      <trkpt lat="44.09234" lon="5.15726">
        <ele>348.5</ele>
        <time>2012-09-15T08:39:59.000Z</time>
      </trkpt>
      <trkpt lat="44.09237" lon="5.15723">
        <ele>346.1</ele>
        <time>2012-09-15T08:40:06.000Z</time>
      </trkpt>
      <trkpt lat="44.09239" lon="5.1572">
        <ele>341.9</ele>
        <time>2012-09-15T08:40:59.000Z</time>
      </trkpt>
      <trkpt lat="44.09238" lon="5.15717">
        <ele>341.8</ele>
        <time>2012-09-15T08:41:09.000Z</time>
      </trkpt>
      <trkpt lat="44.09242" lon="5.15715">
        <ele>335</ele>
        <time>2012-09-15T08:41:39.000Z</time>
      </trkpt>
      <trkpt lat="44.09244" lon="5.15709">
        <ele>335.2</ele>
        <time>2012-09-15T08:41:41.000Z</time>
      </trkpt>
      <trkpt lat="44.09246" lon="5.15706">
        <ele>334.2</ele>
        <time>2012-09-15T08:41:42.000Z</time>
      </trkpt>
      <trkpt lat="44.09249" lon="5.157">
        <ele>334.3</ele>
        <time>2012-09-15T08:41:44.000Z</time>
      </trkpt>
      <trkpt lat="44.09252" lon="5.15687">
        <ele>333.9</ele>
        <time>2012-09-15T08:41:45.000Z</time>
      </trkpt>
      <trkpt lat="44.09254" lon="5.15678">
        <ele>333.1</ele>
        <time>2012-09-15T08:41:46.000Z</time>
      </trkpt>
      <trkpt lat="44.09255" lon="5.15674">
        <ele>333.7</ele>
        <time>2012-09-15T08:41:47.000Z</time>
      </trkpt>
      <trkpt lat="44.09257" lon="5.15667">
        <ele>333.1</ele>
        <time>2012-09-15T08:41:48.000Z</time>
      </trkpt>
      <trkpt lat="44.09259" lon="5.1566">
        <ele>332.9</ele>
        <time>2012-09-15T08:41:49.000Z</time>
      </trkpt>
      <trkpt lat="44.0926" lon="5.15654">
        <ele>332.9</ele>
        <time>2012-09-15T08:41:50.000Z</time>
      </trkpt>
      <trkpt lat="44.0926" lon="5.15647">
        <ele>333.8</ele>
        <time>2012-09-15T08:41:52.000Z</time>
      </trkpt>
      <trkpt lat="44.0926" lon="5.15643">
        <ele>334.1</ele>
        <time>2012-09-15T08:41:53.000Z</time>
      </trkpt>
      <trkpt lat="44.0926" lon="5.15638">
        <ele>334.6</ele>
        <time>2012-09-15T08:41:54.000Z</time>
      </trkpt>
      <trkpt lat="44.09254" lon="5.15632">
        <ele>330.1</ele>
        <time>2012-09-15T08:41:55.000Z</time>
      </trkpt>
      <trkpt lat="44.09252" lon="5.15628">
        <ele>329.2</ele>
        <time>2012-09-15T08:41:56.000Z</time>
      </trkpt>
      <trkpt lat="44.0925" lon="5.15624">
        <ele>328.4</ele>
        <time>2012-09-15T08:41:57.000Z</time>
      </trkpt>
      <trkpt lat="44.09258" lon="5.15618">
        <ele>328.4</ele>
        <time>2012-09-15T08:41:58.000Z</time>
      </trkpt>
      <trkpt lat="44.09261" lon="5.15612">
        <ele>327.8</ele>
        <time>2012-09-15T08:41:59.000Z</time>
      </trkpt>
      <trkpt lat="44.09262" lon="5.15605">
        <ele>327.5</ele>
        <time>2012-09-15T08:42:00.000Z</time>
      </trkpt>
      <trkpt lat="44.09264" lon="5.15599">
        <ele>327.6</ele>
        <time>2012-09-15T08:42:01.000Z</time>
      </trkpt>
      <trkpt lat="44.09263" lon="5.15594">
        <ele>325.9</ele>
        <time>2012-09-15T08:42:03.000Z</time>
      </trkpt>
      <trkpt lat="44.0926" lon="5.15593">
        <ele>325.9</ele>
        <time>2012-09-15T08:42:04.000Z</time>
      </trkpt>
      <trkpt lat="44.09254" lon="5.15593">
        <ele>324.6</ele>
        <time>2012-09-15T08:42:06.000Z</time>
      </trkpt>
      <trkpt lat="44.09252" lon="5.15593">
        <ele>324.2</ele>
        <time>2012-09-15T08:42:07.000Z</time>
      </trkpt>
      <trkpt lat="44.09248" lon="5.15592">
        <ele>324.5</ele>
        <time>2012-09-15T08:42:09.000Z</time>
      </trkpt>
      <trkpt lat="44.09245" lon="5.15591">
        <ele>325.3</ele>
        <time>2012-09-15T08:42:11.000Z</time>
      </trkpt>
      <trkpt lat="44.09242" lon="5.15591">
        <ele>323.5</ele>
        <time>2012-09-15T08:42:13.000Z</time>
      </trkpt>
      <trkpt lat="44.0924" lon="5.15587">
        <ele>325.1</ele>
        <time>2012-09-15T08:42:14.000Z</time>
      </trkpt>
      <trkpt lat="44.09238" lon="5.15586">
        <ele>324</ele>
        <time>2012-09-15T08:42:15.000Z</time>
      </trkpt>
      <trkpt lat="44.09236" lon="5.15583">
        <ele>323.4</ele>
        <time>2012-09-15T08:42:16.000Z</time>
      </trkpt>
      <trkpt lat="44.09237" lon="5.15576">
        <ele>323</ele>
        <time>2012-09-15T08:42:18.000Z</time>
      </trkpt>
      <trkpt lat="44.09239" lon="5.15572">
        <ele>323</ele>
        <time>2012-09-15T08:42:19.000Z</time>
      </trkpt>
      <trkpt lat="44.0924" lon="5.15569">
        <ele>322.8</ele>
        <time>2012-09-15T08:42:20.000Z</time>
      </trkpt>
      <trkpt lat="44.09242" lon="5.15566">
        <ele>322.3</ele>
        <time>2012-09-15T08:42:21.000Z</time>
      </trkpt>
      <trkpt lat="44.09244" lon="5.15562">
        <ele>321.9</ele>
        <time>2012-09-15T08:42:22.000Z</time>
      </trkpt>
      <trkpt lat="44.09247" lon="5.15558">
        <ele>321.5</ele>
        <time>2012-09-15T08:42:23.000Z</time>
      </trkpt>
      <trkpt lat="44.0925" lon="5.15553">
        <ele>321.1</ele>
        <time>2012-09-15T08:42:24.000Z</time>
      </trkpt>
      <trkpt lat="44.09255" lon="5.15548">
        <ele>320.3</ele>
        <time>2012-09-15T08:42:25.000Z</time>
      </trkpt>
      <trkpt lat="44.09261" lon="5.15542">
        <ele>319.8</ele>
        <time>2012-09-15T08:42:26.000Z</time>
      </trkpt>
      <trkpt lat="44.09266" lon="5.15536">
        <ele>319.8</ele>
        <time>2012-09-15T08:42:27.000Z</time>
      </trkpt>
      <trkpt lat="44.09272" lon="5.1553">
        <ele>319.4</ele>
        <time>2012-09-15T08:42:28.000Z</time>
      </trkpt>
      <trkpt lat="44.09271" lon="5.1552">
        <ele>319.6</ele>
        <time>2012-09-15T08:42:29.000Z</time>
      </trkpt>
      <trkpt lat="44.09274" lon="5.15514">
        <ele>319.3</ele>
        <time>2012-09-15T08:42:30.000Z</time>
      </trkpt>
      <trkpt lat="44.09274" lon="5.15508">
        <ele>318.7</ele>
        <time>2012-09-15T08:42:32.000Z</time>
      </trkpt>
      <trkpt lat="44.09262" lon="5.15506">
        <ele>319.7</ele>
        <time>2012-09-15T08:42:35.000Z</time>
      </trkpt>
      <trkpt lat="44.09258" lon="5.15505">
        <ele>320.1</ele>
        <time>2012-09-15T08:42:36.000Z</time>
      </trkpt>
      <trkpt lat="44.09254" lon="5.155">
        <ele>316.8</ele>
        <time>2012-09-15T08:42:38.000Z</time>
      </trkpt>
      <trkpt lat="44.09251" lon="5.15496">
        <ele>318.2</ele>
        <time>2012-09-15T08:42:39.000Z</time>
      </trkpt>
      <trkpt lat="44.09254" lon="5.15491">
        <ele>317.6</ele>
        <time>2012-09-15T08:42:40.000Z</time>
      </trkpt>
      <trkpt lat="44.09253" lon="5.15484">
        <ele>317</ele>
        <time>2012-09-15T08:42:42.000Z</time>
      </trkpt>
      <trkpt lat="44.09254" lon="5.15479">
        <ele>316.2</ele>
        <time>2012-09-15T08:42:43.000Z</time>
      </trkpt>
      <trkpt lat="44.09254" lon="5.15475">
        <ele>315.6</ele>
        <time>2012-09-15T08:42:44.000Z</time>
      </trkpt>
      <trkpt lat="44.09254" lon="5.15469">
        <ele>315</ele>
        <time>2012-09-15T08:42:45.000Z</time>
      </trkpt>
      <trkpt lat="44.09254" lon="5.15464">
        <ele>314.3</ele>
        <time>2012-09-15T08:42:46.000Z</time>
      </trkpt>
      <trkpt lat="44.09252" lon="5.15454">
        <ele>312.6</ele>
        <time>2012-09-15T08:42:47.000Z</time>
      </trkpt>
      <trkpt lat="44.09255" lon="5.15442">
        <ele>311.8</ele>
        <time>2012-09-15T08:42:48.000Z</time>
      </trkpt>
      <trkpt lat="44.09261" lon="5.15444">
        <ele>311.6</ele>
        <time>2012-09-15T08:42:49.000Z</time>
      </trkpt>
      <trkpt lat="44.09269" lon="5.15446">
        <ele>308.4</ele>
        <time>2012-09-15T08:42:50.000Z</time>
      </trkpt>
      <trkpt lat="44.09272" lon="5.15447">
        <ele>305.6</ele>
        <time>2012-09-15T08:42:52.000Z</time>
      </trkpt>
      <trkpt lat="44.09277" lon="5.15443">
        <ele>302.3</ele>
        <time>2012-09-15T08:42:54.000Z</time>
      </trkpt>
      <trkpt lat="44.0928" lon="5.1544">
        <ele>301.8</ele>
        <time>2012-09-15T08:42:55.000Z</time>
      </trkpt>
      <trkpt lat="44.09281" lon="5.15435">
        <ele>301.3</ele>
        <time>2012-09-15T08:42:56.000Z</time>
      </trkpt>
      <trkpt lat="44.09284" lon="5.15429">
        <ele>300.4</ele>
        <time>2012-09-15T08:42:58.000Z</time>
      </trkpt>
      <trkpt lat="44.09288" lon="5.15424">
        <ele>300.9</ele>
        <time>2012-09-15T08:43:00.000Z</time>
      </trkpt>
      <trkpt lat="44.0929" lon="5.15422">
        <ele>300.9</ele>
        <time>2012-09-15T08:43:01.000Z</time>
      </trkpt>
      <trkpt lat="44.0929" lon="5.15417">
        <ele>300.4</ele>
        <time>2012-09-15T08:43:02.000Z</time>
      </trkpt>
      <trkpt lat="44.0929" lon="5.15412">
        <ele>300.4</ele>
        <time>2012-09-15T08:43:03.000Z</time>
      </trkpt>
      <trkpt lat="44.09289" lon="5.15408">
        <ele>300.5</ele>
        <time>2012-09-15T08:43:04.000Z</time>
      </trkpt>
      <trkpt lat="44.09289" lon="5.15403">
        <ele>300.7</ele>
        <time>2012-09-15T08:43:05.000Z</time>
      </trkpt>
      <trkpt lat="44.09289" lon="5.15399">
        <ele>301.6</ele>
        <time>2012-09-15T08:43:06.000Z</time>
      </trkpt>
      <trkpt lat="44.0929" lon="5.15394">
        <ele>301.9</ele>
        <time>2012-09-15T08:43:07.000Z</time>
      </trkpt>
      <trkpt lat="44.09292" lon="5.15388">
        <ele>299</ele>
        <time>2012-09-15T08:43:08.000Z</time>
      </trkpt>
      <trkpt lat="44.09291" lon="5.15384">
        <ele>300.2</ele>
        <time>2012-09-15T08:43:09.000Z</time>
      </trkpt>
      <trkpt lat="44.09293" lon="5.15379">
        <ele>299.3</ele>
        <time>2012-09-15T08:43:11.000Z</time>
      </trkpt>
      <trkpt lat="44.09293" lon="5.15375">
        <ele>299.2</ele>
        <time>2012-09-15T08:43:13.000Z</time>
      </trkpt>
      <trkpt lat="44.09291" lon="5.15368">
        <ele>300.6</ele>
        <time>2012-09-15T08:43:15.000Z</time>
      </trkpt>
      <trkpt lat="44.0929" lon="5.15365">
        <ele>300.7</ele>
        <time>2012-09-15T08:43:16.000Z</time>
      </trkpt>
      <trkpt lat="44.09291" lon="5.1536">
        <ele>300.6</ele>
        <time>2012-09-15T08:43:17.000Z</time>
      </trkpt>
      <trkpt lat="44.09292" lon="5.15356">
        <ele>300.7</ele>
        <time>2012-09-15T08:43:18.000Z</time>
      </trkpt>
      <trkpt lat="44.09292" lon="5.15352">
        <ele>300.7</ele>
        <time>2012-09-15T08:43:19.000Z</time>
      </trkpt>
      <trkpt lat="44.09292" lon="5.15347">
        <ele>300.6</ele>
        <time>2012-09-15T08:43:20.000Z</time>
      </trkpt>
      <trkpt lat="44.09293" lon="5.15343">
        <ele>300.3</ele>
        <time>2012-09-15T08:43:21.000Z</time>
      </trkpt>
      <trkpt lat="44.09292" lon="5.15338">
        <ele>300.3</ele>
        <time>2012-09-15T08:43:22.000Z</time>
      </trkpt>
      <trkpt lat="44.09288" lon="5.15336">
        <ele>300.8</ele>
        <time>2012-09-15T08:43:24.000Z</time>
      </trkpt>
      <trkpt lat="44.0929" lon="5.15328">
        <ele>300.6</ele>
        <time>2012-09-15T08:43:30.000Z</time>
      </trkpt>
      <trkpt lat="44.09291" lon="5.15324">
        <ele>299.1</ele>
        <time>2012-09-15T08:43:31.000Z</time>
      </trkpt>
      <trkpt lat="44.09292" lon="5.15319">
        <ele>297.3</ele>
        <time>2012-09-15T08:43:32.000Z</time>
      </trkpt>
      <trkpt lat="44.09292" lon="5.15313">
        <ele>295.8</ele>
        <time>2012-09-15T08:43:33.000Z</time>
      </trkpt>
      <trkpt lat="44.09293" lon="5.15308">
        <ele>294.1</ele>
        <time>2012-09-15T08:43:34.000Z</time>
      </trkpt>
      <trkpt lat="44.09293" lon="5.15301">
        <ele>293.1</ele>
        <time>2012-09-15T08:43:36.000Z</time>
      </trkpt>
      <trkpt lat="44.09291" lon="5.15296">
        <ele>289.1</ele>
        <time>2012-09-15T08:43:38.000Z</time>
      </trkpt>
      <trkpt lat="44.09291" lon="5.15289">
        <ele>288.1</ele>
        <time>2012-09-15T08:43:40.000Z</time>
      </trkpt>
      <trkpt lat="44.09295" lon="5.15283">
        <ele>287.6</ele>
        <time>2012-09-15T08:43:41.000Z</time>
      </trkpt>
      <trkpt lat="44.09299" lon="5.15277">
        <ele>287.1</ele>
        <time>2012-09-15T08:43:42.000Z</time>
      </trkpt>
      <trkpt lat="44.09302" lon="5.15272">
        <ele>287.3</ele>
        <time>2012-09-15T08:43:43.000Z</time>
      </trkpt>
      <trkpt lat="44.09304" lon="5.15268">
        <ele>288.1</ele>
        <time>2012-09-15T08:43:44.000Z</time>
      </trkpt>
      <trkpt lat="44.09307" lon="5.15266">
        <ele>288.3</ele>
        <time>2012-09-15T08:43:45.000Z</time>
      </trkpt>
      <trkpt lat="44.09306" lon="5.15259">
        <ele>287.3</ele>
        <time>2012-09-15T08:43:46.000Z</time>
      </trkpt>
      <trkpt lat="44.09308" lon="5.15253">
        <ele>286.4</ele>
        <time>2012-09-15T08:43:47.000Z</time>
      </trkpt>
      <trkpt lat="44.09309" lon="5.15247">
        <ele>286.6</ele>
        <time>2012-09-15T08:43:48.000Z</time>
      </trkpt>
      <trkpt lat="44.09308" lon="5.15241">
        <ele>286.8</ele>
        <time>2012-09-15T08:43:49.000Z</time>
      </trkpt>
      <trkpt lat="44.09308" lon="5.15235">
        <ele>286.3</ele>
        <time>2012-09-15T08:43:50.000Z</time>
      </trkpt>
      <trkpt lat="44.09308" lon="5.15229">
        <ele>286</ele>
        <time>2012-09-15T08:43:51.000Z</time>
      </trkpt>
      <trkpt lat="44.09308" lon="5.15224">
        <ele>285.8</ele>
        <time>2012-09-15T08:43:52.000Z</time>
      </trkpt>
      <trkpt lat="44.0931" lon="5.15217">
        <ele>284.7</ele>
        <time>2012-09-15T08:43:53.000Z</time>
      </trkpt>
      <trkpt lat="44.09312" lon="5.15212">
        <ele>284.1</ele>
        <time>2012-09-15T08:43:54.000Z</time>
      </trkpt>
      <trkpt lat="44.09313" lon="5.15206">
        <ele>283.3</ele>
        <time>2012-09-15T08:43:55.000Z</time>
      </trkpt>
      <trkpt lat="44.09313" lon="5.15201">
        <ele>283</ele>
        <time>2012-09-15T08:43:56.000Z</time>
      </trkpt>
      <trkpt lat="44.09314" lon="5.15195">
        <ele>282.4</ele>
        <time>2012-09-15T08:43:57.000Z</time>
      </trkpt>
      <trkpt lat="44.09314" lon="5.15187">
        <ele>284.1</ele>
        <time>2012-09-15T08:43:58.000Z</time>
      </trkpt>
      <trkpt lat="44.09315" lon="5.1518">
        <ele>283.7</ele>
        <time>2012-09-15T08:43:59.000Z</time>
      </trkpt>
      <trkpt lat="44.09315" lon="5.15174">
        <ele>284.3</ele>
        <time>2012-09-15T08:44:00.000Z</time>
      </trkpt>
      <trkpt lat="44.09313" lon="5.15168">
        <ele>284.7</ele>
        <time>2012-09-15T08:44:01.000Z</time>
      </trkpt>
      <trkpt lat="44.09312" lon="5.15162">
        <ele>284.9</ele>
        <time>2012-09-15T08:44:02.000Z</time>
      </trkpt>
      <trkpt lat="44.0931" lon="5.15156">
        <ele>285</ele>
        <time>2012-09-15T08:44:03.000Z</time>
      </trkpt>
      <trkpt lat="44.09309" lon="5.15153">
        <ele>284.7</ele>
        <time>2012-09-15T08:44:04.000Z</time>
      </trkpt>
      <trkpt lat="44.09308" lon="5.15148">
        <ele>285.1</ele>
        <time>2012-09-15T08:44:05.000Z</time>
      </trkpt>
      <trkpt lat="44.09306" lon="5.15143">
        <ele>285</ele>
        <time>2012-09-15T08:44:06.000Z</time>
      </trkpt>
      <trkpt lat="44.09305" lon="5.15139">
        <ele>285.7</ele>
        <time>2012-09-15T08:44:07.000Z</time>
      </trkpt>
      <trkpt lat="44.09307" lon="5.15134">
        <ele>285.9</ele>
        <time>2012-09-15T08:44:09.000Z</time>
      </trkpt>
      <trkpt lat="44.09311" lon="5.15126">
        <ele>285.4</ele>
        <time>2012-09-15T08:44:11.000Z</time>
      </trkpt>
      <trkpt lat="44.09314" lon="5.15121">
        <ele>284.7</ele>
        <time>2012-09-15T08:44:12.000Z</time>
      </trkpt>
      <trkpt lat="44.09316" lon="5.15117">
        <ele>284.5</ele>
        <time>2012-09-15T08:44:13.000Z</time>
      </trkpt>
      <trkpt lat="44.09318" lon="5.15109">
        <ele>285.2</ele>
        <time>2012-09-15T08:44:14.000Z</time>
      </trkpt>
      <trkpt lat="44.0932" lon="5.15103">
        <ele>285</ele>
        <time>2012-09-15T08:44:15.000Z</time>
      </trkpt>
      <trkpt lat="44.09322" lon="5.15097">
        <ele>285.2</ele>
        <time>2012-09-15T08:44:16.000Z</time>
      </trkpt>
      <trkpt lat="44.09324" lon="5.15093">
        <ele>285.2</ele>
        <time>2012-09-15T08:44:17.000Z</time>
      </trkpt>
      <trkpt lat="44.09326" lon="5.1509">
        <ele>285</ele>
        <time>2012-09-15T08:44:18.000Z</time>
      </trkpt>
      <trkpt lat="44.09328" lon="5.15088">
        <ele>285.1</ele>
        <time>2012-09-15T08:44:19.000Z</time>
      </trkpt>
      <trkpt lat="44.09331" lon="5.15086">
        <ele>285.3</ele>
        <time>2012-09-15T08:44:20.000Z</time>
      </trkpt>
      <trkpt lat="44.09338" lon="5.15081">
        <ele>288.1</ele>
        <time>2012-09-15T08:44:21.000Z</time>
      </trkpt>
      <trkpt lat="44.09341" lon="5.15078">
        <ele>289.1</ele>
        <time>2012-09-15T08:44:22.000Z</time>
      </trkpt>
      <trkpt lat="44.09345" lon="5.15073">
        <ele>284.5</ele>
        <time>2012-09-15T08:44:23.000Z</time>
      </trkpt>
      <trkpt lat="44.09349" lon="5.15069">
        <ele>283.9</ele>
        <time>2012-09-15T08:44:24.000Z</time>
      </trkpt>
      <trkpt lat="44.09351" lon="5.15064">
        <ele>284</ele>
        <time>2012-09-15T08:44:25.000Z</time>
      </trkpt>
      <trkpt lat="44.09354" lon="5.15059">
        <ele>284.1</ele>
        <time>2012-09-15T08:44:26.000Z</time>
      </trkpt>
      <trkpt lat="44.09356" lon="5.15056">
        <ele>284.5</ele>
        <time>2012-09-15T08:44:27.000Z</time>
      </trkpt>
      <trkpt lat="44.09358" lon="5.15052">
        <ele>284.9</ele>
        <time>2012-09-15T08:44:28.000Z</time>
      </trkpt>
      <trkpt lat="44.09361" lon="5.15048">
        <ele>285.4</ele>
        <time>2012-09-15T08:44:29.000Z</time>
      </trkpt>
      <trkpt lat="44.09362" lon="5.15044">
        <ele>285.9</ele>
        <time>2012-09-15T08:44:30.000Z</time>
      </trkpt>
      <trkpt lat="44.09362" lon="5.15039">
        <ele>286.5</ele>
        <time>2012-09-15T08:44:31.000Z</time>
      </trkpt>
      <trkpt lat="44.09361" lon="5.15032">
        <ele>284.7</ele>
        <time>2012-09-15T08:44:32.000Z</time>
      </trkpt>
      <trkpt lat="44.0936" lon="5.15025">
        <ele>284</ele>
        <time>2012-09-15T08:44:34.000Z</time>
      </trkpt>
      <trkpt lat="44.09359" lon="5.15018">
        <ele>283.8</ele>
        <time>2012-09-15T08:44:36.000Z</time>
      </trkpt>
      <trkpt lat="44.09358" lon="5.15013">
        <ele>283.6</ele>
        <time>2012-09-15T08:44:37.000Z</time>
      </trkpt>
      <trkpt lat="44.09357" lon="5.15009">
        <ele>283.5</ele>
        <time>2012-09-15T08:44:38.000Z</time>
      </trkpt>
      <trkpt lat="44.09356" lon="5.15004">
        <ele>282.4</ele>
        <time>2012-09-15T08:44:39.000Z</time>
      </trkpt>
      <trkpt lat="44.09356" lon="5.15">
        <ele>282.1</ele>
        <time>2012-09-15T08:44:40.000Z</time>
      </trkpt>
      <trkpt lat="44.0936" lon="5.14994">
        <ele>281.8</ele>
        <time>2012-09-15T08:44:41.000Z</time>
      </trkpt>
      <trkpt lat="44.09363" lon="5.1499">
        <ele>281.5</ele>
        <time>2012-09-15T08:44:42.000Z</time>
      </trkpt>
      <trkpt lat="44.09362" lon="5.14985">
        <ele>281.2</ele>
        <time>2012-09-15T08:44:43.000Z</time>
      </trkpt>
      <trkpt lat="44.09363" lon="5.14981">
        <ele>280.2</ele>
        <time>2012-09-15T08:44:44.000Z</time>
      </trkpt>
      <trkpt lat="44.09363" lon="5.14975">
        <ele>279.5</ele>
        <time>2012-09-15T08:44:45.000Z</time>
      </trkpt>
      <trkpt lat="44.09364" lon="5.14968">
        <ele>279.4</ele>
        <time>2012-09-15T08:44:46.000Z</time>
      </trkpt>
      <trkpt lat="44.09362" lon="5.14961">
        <ele>278.7</ele>
        <time>2012-09-15T08:44:47.000Z</time>
      </trkpt>
      <trkpt lat="44.09358" lon="5.14952">
        <ele>278.7</ele>
        <time>2012-09-15T08:44:48.000Z</time>
      </trkpt>
      <trkpt lat="44.09356" lon="5.14945">
        <ele>278.4</ele>
        <time>2012-09-15T08:44:49.000Z</time>
      </trkpt>
      <trkpt lat="44.09351" lon="5.14939">
        <ele>278.7</ele>
        <time>2012-09-15T08:44:50.000Z</time>
      </trkpt>
      <trkpt lat="44.09348" lon="5.14931">
        <ele>279.6</ele>
        <time>2012-09-15T08:44:51.000Z</time>
      </trkpt>
      <trkpt lat="44.09345" lon="5.14924">
        <ele>279.6</ele>
        <time>2012-09-15T08:44:52.000Z</time>
      </trkpt>
      <trkpt lat="44.09343" lon="5.14918">
        <ele>279.7</ele>
        <time>2012-09-15T08:44:53.000Z</time>
      </trkpt>
      <trkpt lat="44.09339" lon="5.14911">
        <ele>279.3</ele>
        <time>2012-09-15T08:44:54.000Z</time>
      </trkpt>
      <trkpt lat="44.09337" lon="5.14906">
        <ele>279.6</ele>
        <time>2012-09-15T08:44:55.000Z</time>
      </trkpt>
      <trkpt lat="44.09336" lon="5.14901">
        <ele>278.7</ele>
        <time>2012-09-15T08:44:56.000Z</time>
      </trkpt>
      <trkpt lat="44.09334" lon="5.14895">
        <ele>278.1</ele>
        <time>2012-09-15T08:44:57.000Z</time>
      </trkpt>
      <trkpt lat="44.09332" lon="5.14889">
        <ele>277.8</ele>
        <time>2012-09-15T08:44:58.000Z</time>
      </trkpt>
      <trkpt lat="44.09332" lon="5.14882">
        <ele>277.2</ele>
        <time>2012-09-15T08:44:59.000Z</time>
      </trkpt>
      <trkpt lat="44.09331" lon="5.14875">
        <ele>276.4</ele>
        <time>2012-09-15T08:45:00.000Z</time>
      </trkpt>
      <trkpt lat="44.0933" lon="5.14866">
        <ele>275.3</ele>
        <time>2012-09-15T08:45:01.000Z</time>
      </trkpt>
      <trkpt lat="44.09328" lon="5.14861">
        <ele>275.3</ele>
        <time>2012-09-15T08:45:02.000Z</time>
      </trkpt>
      <trkpt lat="44.09327" lon="5.14854">
        <ele>274.8</ele>
        <time>2012-09-15T08:45:03.000Z</time>
      </trkpt>
      <trkpt lat="44.09326" lon="5.14848">
        <ele>273.9</ele>
        <time>2012-09-15T08:45:04.000Z</time>
      </trkpt>
      <trkpt lat="44.09325" lon="5.14843">
        <ele>273.4</ele>
        <time>2012-09-15T08:45:05.000Z</time>
      </trkpt>
      <trkpt lat="44.09324" lon="5.14839">
        <ele>273.2</ele>
        <time>2012-09-15T08:45:06.000Z</time>
      </trkpt>
      <trkpt lat="44.09321" lon="5.14835">
        <ele>273.2</ele>
        <time>2012-09-15T08:45:07.000Z</time>
      </trkpt>
      <trkpt lat="44.09318" lon="5.14832">
        <ele>273.1</ele>
        <time>2012-09-15T08:45:08.000Z</time>
      </trkpt>
      <trkpt lat="44.09316" lon="5.14829">
        <ele>272.6</ele>
        <time>2012-09-15T08:45:09.000Z</time>
      </trkpt>
      <trkpt lat="44.09314" lon="5.14826">
        <ele>272.8</ele>
        <time>2012-09-15T08:45:10.000Z</time>
      </trkpt>
      <trkpt lat="44.0931" lon="5.14823">
        <ele>272.8</ele>
        <time>2012-09-15T08:45:11.000Z</time>
      </trkpt>
      <trkpt lat="44.09308" lon="5.1482">
        <ele>272.8</ele>
        <time>2012-09-15T08:45:12.000Z</time>
      </trkpt>
      <trkpt lat="44.09307" lon="5.14816">
        <ele>272.9</ele>
        <time>2012-09-15T08:45:13.000Z</time>
      </trkpt>
      <trkpt lat="44.09305" lon="5.14813">
        <ele>273.2</ele>
        <time>2012-09-15T08:45:14.000Z</time>
      </trkpt>
      <trkpt lat="44.09302" lon="5.1481">
        <ele>272.8</ele>
        <time>2012-09-15T08:45:15.000Z</time>
      </trkpt>
      <trkpt lat="44.09298" lon="5.14809">
        <ele>273.1</ele>
        <time>2012-09-15T08:45:16.000Z</time>
      </trkpt>
      <trkpt lat="44.09294" lon="5.14808">
        <ele>272.6</ele>
        <time>2012-09-15T08:45:17.000Z</time>
      </trkpt>
      <trkpt lat="44.09291" lon="5.14806">
        <ele>272.3</ele>
        <time>2012-09-15T08:45:18.000Z</time>
      </trkpt>
      <trkpt lat="44.09286" lon="5.14802">
        <ele>271.5</ele>
        <time>2012-09-15T08:45:19.000Z</time>
      </trkpt>
      <trkpt lat="44.09283" lon="5.148">
        <ele>271.6</ele>
        <time>2012-09-15T08:45:20.000Z</time>
      </trkpt>
      <trkpt lat="44.0928" lon="5.14798">
        <ele>271.4</ele>
        <time>2012-09-15T08:45:21.000Z</time>
      </trkpt>
      <trkpt lat="44.09284" lon="5.14796">
        <ele>269.7</ele>
        <time>2012-09-15T08:45:22.000Z</time>
      </trkpt>
      <trkpt lat="44.09282" lon="5.14794">
        <ele>269</ele>
        <time>2012-09-15T08:45:42.000Z</time>
      </trkpt>
      <trkpt lat="44.09279" lon="5.14795">
        <ele>268.5</ele>
        <time>2012-09-15T08:48:56.000Z</time>
      </trkpt>
      <trkpt lat="44.09277" lon="5.14798">
        <ele>268.6</ele>
        <time>2012-09-15T08:48:58.000Z</time>
      </trkpt>
      <trkpt lat="44.09273" lon="5.14799">
        <ele>269.1</ele>
        <time>2012-09-15T08:49:00.000Z</time>
      </trkpt>
      <trkpt lat="44.0927" lon="5.148">
        <ele>269.7</ele>
        <time>2012-09-15T08:49:03.000Z</time>
      </trkpt>
      <trkpt lat="44.09267" lon="5.148">
        <ele>270.1</ele>
        <time>2012-09-15T08:49:05.000Z</time>
      </trkpt>
      <trkpt lat="44.09264" lon="5.14802">
        <ele>270</ele>
        <time>2012-09-15T08:49:07.000Z</time>
      </trkpt>
      <trkpt lat="44.0926" lon="5.14804">
        <ele>269.9</ele>
        <time>2012-09-15T08:49:09.000Z</time>
      </trkpt>
      <trkpt lat="44.09256" lon="5.14807">
        <ele>270.2</ele>
        <time>2012-09-15T08:49:11.000Z</time>
      </trkpt>
      <trkpt lat="44.09252" lon="5.14809">
        <ele>270.1</ele>
        <time>2012-09-15T08:49:13.000Z</time>
      </trkpt>
      <trkpt lat="44.09248" lon="5.14812">
        <ele>270.3</ele>
        <time>2012-09-15T08:49:15.000Z</time>
      </trkpt>
      <trkpt lat="44.09245" lon="5.14814">
        <ele>270.7</ele>
        <time>2012-09-15T08:49:16.000Z</time>
      </trkpt>
      <trkpt lat="44.09243" lon="5.14815">
        <ele>270.8</ele>
        <time>2012-09-15T08:49:17.000Z</time>
      </trkpt>
      <trkpt lat="44.09237" lon="5.14817">
        <ele>271.1</ele>
        <time>2012-09-15T08:49:19.000Z</time>
      </trkpt>
      <trkpt lat="44.09234" lon="5.14821">
        <ele>271</ele>
        <time>2012-09-15T08:49:21.000Z</time>
      </trkpt>
      <trkpt lat="44.09231" lon="5.1482">
        <ele>270.8</ele>
        <time>2012-09-15T08:49:22.000Z</time>
      </trkpt>
      <trkpt lat="44.0923" lon="5.14826">
        <ele>271.1</ele>
        <time>2012-09-15T08:49:24.000Z</time>
      </trkpt>
      <trkpt lat="44.09227" lon="5.14829">
        <ele>272.1</ele>
        <time>2012-09-15T08:49:26.000Z</time>
      </trkpt>
      <trkpt lat="44.09224" lon="5.14833">
        <ele>273.1</ele>
        <time>2012-09-15T08:49:28.000Z</time>
      </trkpt>
      <trkpt lat="44.09221" lon="5.14834">
        <ele>273.4</ele>
        <time>2012-09-15T08:49:30.000Z</time>
      </trkpt>
      <trkpt lat="44.09218" lon="5.14834">
        <ele>274.3</ele>
        <time>2012-09-15T08:49:32.000Z</time>
      </trkpt>
      <trkpt lat="44.09215" lon="5.14834">
        <ele>274.8</ele>
        <time>2012-09-15T08:49:34.000Z</time>
      </trkpt>
      <trkpt lat="44.09212" lon="5.14833">
        <ele>274.8</ele>
        <time>2012-09-15T08:49:36.000Z</time>
      </trkpt>
      <trkpt lat="44.0921" lon="5.14829">
        <ele>275.4</ele>
        <time>2012-09-15T08:49:38.000Z</time>
      </trkpt>
      <trkpt lat="44.09207" lon="5.14825">
        <ele>274.9</ele>
        <time>2012-09-15T08:49:40.000Z</time>
      </trkpt>
      <trkpt lat="44.09206" lon="5.14821">
        <ele>274.3</ele>
        <time>2012-09-15T08:49:42.000Z</time>
      </trkpt>
      <trkpt lat="44.09206" lon="5.14825">
        <ele>274</ele>
        <time>2012-09-15T08:49:52.000Z</time>
      </trkpt>
      <trkpt lat="44.09211" lon="5.14828">
        <ele>272.9</ele>
        <time>2012-09-15T08:49:54.000Z</time>
      </trkpt>
      <trkpt lat="44.09214" lon="5.14829">
        <ele>273.4</ele>
        <time>2012-09-15T08:49:55.000Z</time>
      </trkpt>
      <trkpt lat="44.09218" lon="5.14828">
        <ele>272.9</ele>
        <time>2012-09-15T08:49:57.000Z</time>
      </trkpt>
      <trkpt lat="44.0922" lon="5.14829">
        <ele>272.8</ele>
        <time>2012-09-15T08:49:59.000Z</time>
      </trkpt>
      <trkpt lat="44.09223" lon="5.14832">
        <ele>272.2</ele>
        <time>2012-09-15T08:50:01.000Z</time>
      </trkpt>
      <trkpt lat="44.0922" lon="5.14835">
        <ele>272</ele>
        <time>2012-09-15T08:50:02.000Z</time>
      </trkpt>
      <trkpt lat="44.09218" lon="5.1484">
        <ele>273.1</ele>
        <time>2012-09-15T08:50:04.000Z</time>
      </trkpt>
      <trkpt lat="44.09216" lon="5.14843">
        <ele>273.3</ele>
        <time>2012-09-15T08:50:07.000Z</time>
      </trkpt>
      <trkpt lat="44.09219" lon="5.14845">
        <ele>276.9</ele>
        <time>2012-09-15T08:50:44.000Z</time>
      </trkpt>
      <trkpt lat="44.09218" lon="5.14849">
        <ele>273.8</ele>
        <time>2012-09-15T08:52:57.000Z</time>
      </trkpt>
      <trkpt lat="44.0922" lon="5.14845">
        <ele>272.9</ele>
        <time>2012-09-15T08:58:50.000Z</time>
      </trkpt>
      <trkpt lat="44.09218" lon="5.14848">
        <ele>274</ele>
        <time>2012-09-15T08:59:08.000Z</time>
      </trkpt>
      <trkpt lat="44.09217" lon="5.14844">
        <ele>272.4</ele>
        <time>2012-09-15T09:00:03.000Z</time>
      </trkpt>
      <trkpt lat="44.09219" lon="5.14845">
        <ele>275.7</ele>
        <time>2012-09-15T09:01:58.000Z</time>
      </trkpt>
      <trkpt lat="44.09217" lon="5.14847">
        <ele>274.3</ele>
        <time>2012-09-15T09:03:27.000Z</time>
      </trkpt>
      <trkpt lat="44.09214" lon="5.14845">
        <ele>274.8</ele>
        <time>2012-09-15T09:04:07.000Z</time>
      </trkpt>
      <trkpt lat="44.09216" lon="5.14847">
        <ele>278.1</ele>
        <time>2012-09-15T09:04:28.000Z</time>
      </trkpt>
      <trkpt lat="44.0922" lon="5.14847">
        <ele>282.4</ele>
        <time>2012-09-15T09:04:33.000Z</time>
      </trkpt>
      <trkpt lat="44.09223" lon="5.14849">
        <ele>283.8</ele>
        <time>2012-09-15T09:04:35.000Z</time>
      </trkpt>
      <trkpt lat="44.09224" lon="5.14854">
        <ele>283.8</ele>
        <time>2012-09-15T09:04:37.000Z</time>
      </trkpt>
      <trkpt lat="44.09227" lon="5.1486">
        <ele>282.8</ele>
        <time>2012-09-15T09:04:39.000Z</time>
      </trkpt>
      <trkpt lat="44.09229" lon="5.14864">
        <ele>282.4</ele>
        <time>2012-09-15T09:04:41.000Z</time>
      </trkpt>
      <trkpt lat="44.09231" lon="5.14869">
        <ele>282.8</ele>
        <time>2012-09-15T09:04:43.000Z</time>
      </trkpt>
      <trkpt lat="44.09233" lon="5.14872">
        <ele>282.8</ele>
        <time>2012-09-15T09:04:44.000Z</time>
      </trkpt>
      <trkpt lat="44.09235" lon="5.14878">
        <ele>283.1</ele>
        <time>2012-09-15T09:04:46.000Z</time>
      </trkpt>
      <trkpt lat="44.09237" lon="5.14885">
        <ele>283.8</ele>
        <time>2012-09-15T09:04:48.000Z</time>
      </trkpt>
      <trkpt lat="44.09234" lon="5.14886">
        <ele>284.6</ele>
        <time>2012-09-15T09:04:49.000Z</time>
      </trkpt>
      <trkpt lat="44.09233" lon="5.14894">
        <ele>284.6</ele>
        <time>2012-09-15T09:04:51.000Z</time>
      </trkpt>
      <trkpt lat="44.0923" lon="5.14899">
        <ele>283.8</ele>
        <time>2012-09-15T09:04:53.000Z</time>
      </trkpt>
      <trkpt lat="44.09227" lon="5.14903">
        <ele>283.5</ele>
        <time>2012-09-15T09:04:55.000Z</time>
      </trkpt>
      <trkpt lat="44.09223" lon="5.14905">
        <ele>283.2</ele>
        <time>2012-09-15T09:04:57.000Z</time>
      </trkpt>
      <trkpt lat="44.09217" lon="5.14911">
        <ele>283.4</ele>
        <time>2012-09-15T09:04:59.000Z</time>
      </trkpt>
      <trkpt lat="44.09215" lon="5.14914">
        <ele>283.2</ele>
        <time>2012-09-15T09:05:00.000Z</time>
      </trkpt>
      <trkpt lat="44.09212" lon="5.14918">
        <ele>283.2</ele>
        <time>2012-09-15T09:05:02.000Z</time>
      </trkpt>
      <trkpt lat="44.0921" lon="5.14922">
        <ele>283.4</ele>
        <time>2012-09-15T09:05:04.000Z</time>
      </trkpt>
      <trkpt lat="44.09208" lon="5.14926">
        <ele>283.6</ele>
        <time>2012-09-15T09:05:06.000Z</time>
      </trkpt>
      <trkpt lat="44.09207" lon="5.14931">
        <ele>283.8</ele>
        <time>2012-09-15T09:05:09.000Z</time>
      </trkpt>
      <trkpt lat="44.09206" lon="5.14936">
        <ele>283.7</ele>
        <time>2012-09-15T09:05:11.000Z</time>
      </trkpt>
      <trkpt lat="44.09205" lon="5.14941">
        <ele>284.4</ele>
        <time>2012-09-15T09:05:13.000Z</time>
      </trkpt>
      <trkpt lat="44.09205" lon="5.14946">
        <ele>286.3</ele>
        <time>2012-09-15T09:05:15.000Z</time>
      </trkpt>
      <trkpt lat="44.09205" lon="5.14951">
        <ele>286.1</ele>
        <time>2012-09-15T09:05:17.000Z</time>
      </trkpt>
      <trkpt lat="44.09205" lon="5.14957">
        <ele>286.6</ele>
        <time>2012-09-15T09:05:19.000Z</time>
      </trkpt>
      <trkpt lat="44.09204" lon="5.14961">
        <ele>287.4</ele>
        <time>2012-09-15T09:05:21.000Z</time>
      </trkpt>
      <trkpt lat="44.09204" lon="5.14965">
        <ele>287.5</ele>
        <time>2012-09-15T09:05:23.000Z</time>
      </trkpt>
      <trkpt lat="44.09201" lon="5.14969">
        <ele>288</ele>
        <time>2012-09-15T09:05:25.000Z</time>
      </trkpt>
      <trkpt lat="44.09199" lon="5.14973">
        <ele>288.3</ele>
        <time>2012-09-15T09:05:27.000Z</time>
      </trkpt>
      <trkpt lat="44.09196" lon="5.14973">
        <ele>288.1</ele>
        <time>2012-09-15T09:05:29.000Z</time>
      </trkpt>
      <trkpt lat="44.09192" lon="5.14971">
        <ele>287.9</ele>
        <time>2012-09-15T09:05:32.000Z</time>
      </trkpt>
      <trkpt lat="44.0919" lon="5.14968">
        <ele>287.9</ele>
        <time>2012-09-15T09:05:34.000Z</time>
      </trkpt>
      <trkpt lat="44.09188" lon="5.14964">
        <ele>287.9</ele>
        <time>2012-09-15T09:05:36.000Z</time>
      </trkpt>
      <trkpt lat="44.09186" lon="5.1496">
        <ele>287.9</ele>
        <time>2012-09-15T09:05:38.000Z</time>
      </trkpt>
      <trkpt lat="44.09184" lon="5.14956">
        <ele>287.9</ele>
        <time>2012-09-15T09:05:40.000Z</time>
      </trkpt>
      <trkpt lat="44.09182" lon="5.14952">
        <ele>287.7</ele>
        <time>2012-09-15T09:05:42.000Z</time>
      </trkpt>
      <trkpt lat="44.09179" lon="5.14948">
        <ele>288.2</ele>
        <time>2012-09-15T09:05:44.000Z</time>
      </trkpt>
      <trkpt lat="44.09177" lon="5.14943">
        <ele>288.4</ele>
        <time>2012-09-15T09:05:46.000Z</time>
      </trkpt>
      <trkpt lat="44.09175" lon="5.14938">
        <ele>288.8</ele>
        <time>2012-09-15T09:05:48.000Z</time>
      </trkpt>
      <trkpt lat="44.09174" lon="5.14933">
        <ele>288.9</ele>
        <time>2012-09-15T09:05:50.000Z</time>
      </trkpt>
      <trkpt lat="44.09172" lon="5.14928">
        <ele>289.1</ele>
        <time>2012-09-15T09:05:52.000Z</time>
      </trkpt>
      <trkpt lat="44.09172" lon="5.14923">
        <ele>289.3</ele>
        <time>2012-09-15T09:05:54.000Z</time>
      </trkpt>
      <trkpt lat="44.09172" lon="5.14918">
        <ele>289.4</ele>
        <time>2012-09-15T09:05:56.000Z</time>
      </trkpt>
      <trkpt lat="44.09172" lon="5.14913">
        <ele>289.1</ele>
        <time>2012-09-15T09:05:58.000Z</time>
      </trkpt>
      <trkpt lat="44.09175" lon="5.14908">
        <ele>288.9</ele>
        <time>2012-09-15T09:06:00.000Z</time>
      </trkpt>
      <trkpt lat="44.09178" lon="5.14902">
        <ele>288.5</ele>
        <time>2012-09-15T09:06:02.000Z</time>
      </trkpt>
      <trkpt lat="44.09179" lon="5.14899">
        <ele>288.6</ele>
        <time>2012-09-15T09:06:03.000Z</time>
      </trkpt>
      <trkpt lat="44.0918" lon="5.14893">
        <ele>288.5</ele>
        <time>2012-09-15T09:06:05.000Z</time>
      </trkpt>
      <trkpt lat="44.09178" lon="5.14889">
        <ele>288.3</ele>
        <time>2012-09-15T09:06:06.000Z</time>
      </trkpt>
      <trkpt lat="44.09176" lon="5.14887">
        <ele>288.2</ele>
        <time>2012-09-15T09:06:07.000Z</time>
      </trkpt>
      <trkpt lat="44.09172" lon="5.14885">
        <ele>288</ele>
        <time>2012-09-15T09:06:09.000Z</time>
      </trkpt>
      <trkpt lat="44.09168" lon="5.14885">
        <ele>288</ele>
        <time>2012-09-15T09:06:11.000Z</time>
      </trkpt>
      <trkpt lat="44.09163" lon="5.14886">
        <ele>287.7</ele>
        <time>2012-09-15T09:06:13.000Z</time>
      </trkpt>
      <trkpt lat="44.09159" lon="5.14888">
        <ele>288.5</ele>
        <time>2012-09-15T09:06:15.000Z</time>
      </trkpt>
      <trkpt lat="44.09157" lon="5.14891">
        <ele>288.5</ele>
        <time>2012-09-15T09:06:17.000Z</time>
      </trkpt>
      <trkpt lat="44.09155" lon="5.14894">
        <ele>288.7</ele>
        <time>2012-09-15T09:06:19.000Z</time>
      </trkpt>
      <trkpt lat="44.09153" lon="5.14896">
        <ele>288.8</ele>
        <time>2012-09-15T09:06:23.000Z</time>
      </trkpt>
      <trkpt lat="44.0915" lon="5.14899">
        <ele>288.5</ele>
        <time>2012-09-15T09:07:53.000Z</time>
      </trkpt>
      <trkpt lat="44.09147" lon="5.14902">
        <ele>288.4</ele>
        <time>2012-09-15T09:07:55.000Z</time>
      </trkpt>
      <trkpt lat="44.09144" lon="5.14905">
        <ele>288.6</ele>
        <time>2012-09-15T09:07:57.000Z</time>
      </trkpt>
      <trkpt lat="44.09141" lon="5.1491">
        <ele>288.3</ele>
        <time>2012-09-15T09:07:58.000Z</time>
      </trkpt>
      <trkpt lat="44.09137" lon="5.14915">
        <ele>287.8</ele>
        <time>2012-09-15T09:08:00.000Z</time>
      </trkpt>
      <trkpt lat="44.09135" lon="5.14918">
        <ele>287.8</ele>
        <time>2012-09-15T09:08:01.000Z</time>
      </trkpt>
      <trkpt lat="44.09131" lon="5.14922">
        <ele>288.4</ele>
        <time>2012-09-15T09:08:03.000Z</time>
      </trkpt>
      <trkpt lat="44.09128" lon="5.14928">
        <ele>289</ele>
        <time>2012-09-15T09:08:05.000Z</time>
      </trkpt>
      <trkpt lat="44.09126" lon="5.1493">
        <ele>289.3</ele>
        <time>2012-09-15T09:08:06.000Z</time>
      </trkpt>
      <trkpt lat="44.09124" lon="5.14933">
        <ele>289.7</ele>
        <time>2012-09-15T09:08:07.000Z</time>
      </trkpt>
      <trkpt lat="44.09122" lon="5.14936">
        <ele>289.8</ele>
        <time>2012-09-15T09:08:08.000Z</time>
      </trkpt>
      <trkpt lat="44.0912" lon="5.14938">
        <ele>289.7</ele>
        <time>2012-09-15T09:08:09.000Z</time>
      </trkpt>
      <trkpt lat="44.09118" lon="5.14941">
        <ele>289.9</ele>
        <time>2012-09-15T09:08:10.000Z</time>
      </trkpt>
      <trkpt lat="44.09114" lon="5.14946">
        <ele>290</ele>
        <time>2012-09-15T09:08:12.000Z</time>
      </trkpt>
      <trkpt lat="44.0911" lon="5.14951">
        <ele>290.6</ele>
        <time>2012-09-15T09:08:14.000Z</time>
      </trkpt>
      <trkpt lat="44.09106" lon="5.14954">
        <ele>291.6</ele>
        <time>2012-09-15T09:08:16.000Z</time>
      </trkpt>
      <trkpt lat="44.09102" lon="5.14958">
        <ele>292</ele>
        <time>2012-09-15T09:08:18.000Z</time>
      </trkpt>
      <trkpt lat="44.09099" lon="5.14964">
        <ele>291.8</ele>
        <time>2012-09-15T09:08:20.000Z</time>
      </trkpt>
      <trkpt lat="44.09096" lon="5.14968">
        <ele>292.2</ele>
        <time>2012-09-15T09:08:22.000Z</time>
      </trkpt>
      <trkpt lat="44.09096" lon="5.14974">
        <ele>291.8</ele>
        <time>2012-09-15T09:08:24.000Z</time>
      </trkpt>
      <trkpt lat="44.09094" lon="5.1498">
        <ele>292</ele>
        <time>2012-09-15T09:08:26.000Z</time>
      </trkpt>
      <trkpt lat="44.09091" lon="5.14984">
        <ele>292.2</ele>
        <time>2012-09-15T09:08:28.000Z</time>
      </trkpt>
      <trkpt lat="44.09089" lon="5.14988">
        <ele>293</ele>
        <time>2012-09-15T09:08:30.000Z</time>
      </trkpt>
      <trkpt lat="44.09087" lon="5.14992">
        <ele>293.7</ele>
        <time>2012-09-15T09:08:32.000Z</time>
      </trkpt>
      <trkpt lat="44.09085" lon="5.14996">
        <ele>294.3</ele>
        <time>2012-09-15T09:08:34.000Z</time>
      </trkpt>
      <trkpt lat="44.09083" lon="5.15">
        <ele>294.2</ele>
        <time>2012-09-15T09:08:36.000Z</time>
      </trkpt>
      <trkpt lat="44.0908" lon="5.15004">
        <ele>295</ele>
        <time>2012-09-15T09:08:38.000Z</time>
      </trkpt>
      <trkpt lat="44.09078" lon="5.15008">
        <ele>295.1</ele>
        <time>2012-09-15T09:08:40.000Z</time>
      </trkpt>
      <trkpt lat="44.09074" lon="5.15011">
        <ele>295.1</ele>
        <time>2012-09-15T09:08:42.000Z</time>
      </trkpt>
      <trkpt lat="44.09072" lon="5.15013">
        <ele>295.2</ele>
        <time>2012-09-15T09:08:43.000Z</time>
      </trkpt>
      <trkpt lat="44.09068" lon="5.15018">
        <ele>295.2</ele>
        <time>2012-09-15T09:08:45.000Z</time>
      </trkpt>
      <trkpt lat="44.09064" lon="5.15022">
        <ele>295.3</ele>
        <time>2012-09-15T09:08:47.000Z</time>
      </trkpt>
      <trkpt lat="44.09059" lon="5.15023">
        <ele>295.6</ele>
        <time>2012-09-15T09:08:49.000Z</time>
      </trkpt>
      <trkpt lat="44.09054" lon="5.15023">
        <ele>296</ele>
        <time>2012-09-15T09:08:51.000Z</time>
      </trkpt>
      <trkpt lat="44.0905" lon="5.15022">
        <ele>296.3</ele>
        <time>2012-09-15T09:08:53.000Z</time>
      </trkpt>
      <trkpt lat="44.09046" lon="5.1502">
        <ele>296.4</ele>
        <time>2012-09-15T09:08:55.000Z</time>
      </trkpt>
      <trkpt lat="44.09051" lon="5.15014">
        <ele>295.5</ele>
        <time>2012-09-15T09:08:57.000Z</time>
      </trkpt>
      <trkpt lat="44.09053" lon="5.15011">
        <ele>295.6</ele>
        <time>2012-09-15T09:08:58.000Z</time>
      </trkpt>
      <trkpt lat="44.09056" lon="5.15009">
        <ele>295.4</ele>
        <time>2012-09-15T09:08:59.000Z</time>
      </trkpt>
      <trkpt lat="44.09058" lon="5.15008">
        <ele>295.4</ele>
        <time>2012-09-15T09:09:00.000Z</time>
      </trkpt>
      <trkpt lat="44.09061" lon="5.15006">
        <ele>295.5</ele>
        <time>2012-09-15T09:09:01.000Z</time>
      </trkpt>
      <trkpt lat="44.09064" lon="5.15004">
        <ele>295.5</ele>
        <time>2012-09-15T09:09:02.000Z</time>
      </trkpt>
      <trkpt lat="44.09068" lon="5.14998">
        <ele>295.5</ele>
        <time>2012-09-15T09:09:04.000Z</time>
      </trkpt>
      <trkpt lat="44.09071" lon="5.14993">
        <ele>295.5</ele>
        <time>2012-09-15T09:09:05.000Z</time>
      </trkpt>
      <trkpt lat="44.09074" lon="5.14988">
        <ele>295.3</ele>
        <time>2012-09-15T09:09:06.000Z</time>
      </trkpt>
      <trkpt lat="44.09077" lon="5.14984">
        <ele>294.6</ele>
        <time>2012-09-15T09:09:07.000Z</time>
      </trkpt>
      <trkpt lat="44.0908" lon="5.14979">
        <ele>294.4</ele>
        <time>2012-09-15T09:09:08.000Z</time>
      </trkpt>
      <trkpt lat="44.09082" lon="5.14975">
        <ele>294.5</ele>
        <time>2012-09-15T09:09:09.000Z</time>
      </trkpt>
      <trkpt lat="44.09084" lon="5.1497">
        <ele>294.6</ele>
        <time>2012-09-15T09:09:10.000Z</time>
      </trkpt>
      <trkpt lat="44.09087" lon="5.14974">
        <ele>295.9</ele>
        <time>2012-09-15T09:09:11.000Z</time>
      </trkpt>
      <trkpt lat="44.09089" lon="5.14973">
        <ele>296.1</ele>
        <time>2012-09-15T09:09:12.000Z</time>
      </trkpt>
      <trkpt lat="44.09092" lon="5.14969">
        <ele>295.4</ele>
        <time>2012-09-15T09:09:14.000Z</time>
      </trkpt>
      <trkpt lat="44.09092" lon="5.14962">
        <ele>294.6</ele>
        <time>2012-09-15T09:09:15.000Z</time>
      </trkpt>
      <trkpt lat="44.09094" lon="5.14958">
        <ele>294.3</ele>
        <time>2012-09-15T09:09:16.000Z</time>
      </trkpt>
      <trkpt lat="44.09096" lon="5.14953">
        <ele>293.8</ele>
        <time>2012-09-15T09:09:17.000Z</time>
      </trkpt>
      <trkpt lat="44.09098" lon="5.1495">
        <ele>293.9</ele>
        <time>2012-09-15T09:09:18.000Z</time>
      </trkpt>
      <trkpt lat="44.09101" lon="5.14946">
        <ele>293.7</ele>
        <time>2012-09-15T09:09:19.000Z</time>
      </trkpt>
      <trkpt lat="44.09104" lon="5.1494">
        <ele>294</ele>
        <time>2012-09-15T09:09:20.000Z</time>
      </trkpt>
      <trkpt lat="44.09108" lon="5.14936">
        <ele>294</ele>
        <time>2012-09-15T09:09:21.000Z</time>
      </trkpt>
      <trkpt lat="44.09111" lon="5.14931">
        <ele>294</ele>
        <time>2012-09-15T09:09:22.000Z</time>
      </trkpt>
      <trkpt lat="44.09114" lon="5.14926">
        <ele>294.2</ele>
        <time>2012-09-15T09:09:23.000Z</time>
      </trkpt>
      <trkpt lat="44.09116" lon="5.14922">
        <ele>294.4</ele>
        <time>2012-09-15T09:09:24.000Z</time>
      </trkpt>
      <trkpt lat="44.09119" lon="5.14917">
        <ele>292.7</ele>
        <time>2012-09-15T09:09:25.000Z</time>
      </trkpt>
      <trkpt lat="44.09122" lon="5.14913">
        <ele>292.3</ele>
        <time>2012-09-15T09:09:26.000Z</time>
      </trkpt>
      <trkpt lat="44.09125" lon="5.14909">
        <ele>291.8</ele>
        <time>2012-09-15T09:09:27.000Z</time>
      </trkpt>
      <trkpt lat="44.09128" lon="5.14905">
        <ele>291.6</ele>
        <time>2012-09-15T09:09:28.000Z</time>
      </trkpt>
      <trkpt lat="44.09132" lon="5.14902">
        <ele>291.5</ele>
        <time>2012-09-15T09:09:29.000Z</time>
      </trkpt>
      <trkpt lat="44.09135" lon="5.14898">
        <ele>291.5</ele>
        <time>2012-09-15T09:09:30.000Z</time>
      </trkpt>
      <trkpt lat="44.0914" lon="5.14894">
        <ele>291.1</ele>
        <time>2012-09-15T09:09:32.000Z</time>
      </trkpt>
      <trkpt lat="44.09144" lon="5.14891">
        <ele>291</ele>
        <time>2012-09-15T09:09:34.000Z</time>
      </trkpt>
      <trkpt lat="44.09139" lon="5.14894">
        <ele>291.5</ele>
        <time>2012-09-15T09:09:37.000Z</time>
      </trkpt>
      <trkpt lat="44.09137" lon="5.14896">
        <ele>292</ele>
        <time>2012-09-15T09:09:38.000Z</time>
      </trkpt>
      <trkpt lat="44.09134" lon="5.14898">
        <ele>291.9</ele>
        <time>2012-09-15T09:09:39.000Z</time>
      </trkpt>
      <trkpt lat="44.09131" lon="5.14901">
        <ele>291.7</ele>
        <time>2012-09-15T09:09:40.000Z</time>
      </trkpt>
      <trkpt lat="44.09128" lon="5.14901">
        <ele>291.4</ele>
        <time>2012-09-15T09:09:41.000Z</time>
      </trkpt>
      <trkpt lat="44.09124" lon="5.14901">
        <ele>291</ele>
        <time>2012-09-15T09:09:42.000Z</time>
      </trkpt>
      <trkpt lat="44.09121" lon="5.149">
        <ele>290.8</ele>
        <time>2012-09-15T09:09:43.000Z</time>
      </trkpt>
      <trkpt lat="44.09118" lon="5.14899">
        <ele>291</ele>
        <time>2012-09-15T09:09:44.000Z</time>
      </trkpt>
      <trkpt lat="44.0911" lon="5.14898">
        <ele>289.8</ele>
        <time>2012-09-15T09:09:46.000Z</time>
      </trkpt>
      <trkpt lat="44.09105" lon="5.14896">
        <ele>288.8</ele>
        <time>2012-09-15T09:09:47.000Z</time>
      </trkpt>
      <trkpt lat="44.09101" lon="5.14895">
        <ele>288.2</ele>
        <time>2012-09-15T09:09:48.000Z</time>
      </trkpt>
      <trkpt lat="44.09097" lon="5.14894">
        <ele>288.1</ele>
        <time>2012-09-15T09:09:49.000Z</time>
      </trkpt>
      <trkpt lat="44.09093" lon="5.14894">
        <ele>288</ele>
        <time>2012-09-15T09:09:50.000Z</time>
      </trkpt>
      <trkpt lat="44.09092" lon="5.14888">
        <ele>286.1</ele>
        <time>2012-09-15T09:09:51.000Z</time>
      </trkpt>
      <trkpt lat="44.09089" lon="5.14886">
        <ele>286.5</ele>
        <time>2012-09-15T09:09:52.000Z</time>
      </trkpt>
      <trkpt lat="44.09084" lon="5.14885">
        <ele>286.3</ele>
        <time>2012-09-15T09:09:54.000Z</time>
      </trkpt>
      <trkpt lat="44.09081" lon="5.14887">
        <ele>286.4</ele>
        <time>2012-09-15T09:09:55.000Z</time>
      </trkpt>
      <trkpt lat="44.09078" lon="5.14888">
        <ele>286.4</ele>
        <time>2012-09-15T09:09:56.000Z</time>
      </trkpt>
      <trkpt lat="44.09073" lon="5.14891">
        <ele>285.8</ele>
        <time>2012-09-15T09:09:57.000Z</time>
      </trkpt>
      <trkpt lat="44.09069" lon="5.14891">
        <ele>285.4</ele>
        <time>2012-09-15T09:09:58.000Z</time>
      </trkpt>
      <trkpt lat="44.09065" lon="5.14891">
        <ele>285.3</ele>
        <time>2012-09-15T09:09:59.000Z</time>
      </trkpt>
      <trkpt lat="44.09063" lon="5.14889">
        <ele>284.1</ele>
        <time>2012-09-15T09:10:00.000Z</time>
      </trkpt>
      <trkpt lat="44.09059" lon="5.1489">
        <ele>284.2</ele>
        <time>2012-09-15T09:10:01.000Z</time>
      </trkpt>
      <trkpt lat="44.09054" lon="5.14889">
        <ele>283.9</ele>
        <time>2012-09-15T09:10:02.000Z</time>
      </trkpt>
      <trkpt lat="44.09049" lon="5.14889">
        <ele>284.3</ele>
        <time>2012-09-15T09:10:03.000Z</time>
      </trkpt>
      <trkpt lat="44.09044" lon="5.14889">
        <ele>284.1</ele>
        <time>2012-09-15T09:10:04.000Z</time>
      </trkpt>
      <trkpt lat="44.0904" lon="5.14888">
        <ele>283.9</ele>
        <time>2012-09-15T09:10:05.000Z</time>
      </trkpt>
      <trkpt lat="44.09036" lon="5.14887">
        <ele>283.7</ele>
        <time>2012-09-15T09:10:06.000Z</time>
      </trkpt>
      <trkpt lat="44.09035" lon="5.14881">
        <ele>283.3</ele>
        <time>2012-09-15T09:10:07.000Z</time>
      </trkpt>
      <trkpt lat="44.09032" lon="5.14879">
        <ele>283</ele>
        <time>2012-09-15T09:10:08.000Z</time>
      </trkpt>
      <trkpt lat="44.09029" lon="5.14878">
        <ele>282.6</ele>
        <time>2012-09-15T09:10:09.000Z</time>
      </trkpt>
      <trkpt lat="44.09024" lon="5.14878">
        <ele>282.8</ele>
        <time>2012-09-15T09:10:10.000Z</time>
      </trkpt>
      <trkpt lat="44.09018" lon="5.14878">
        <ele>283.3</ele>
        <time>2012-09-15T09:10:11.000Z</time>
      </trkpt>
      <trkpt lat="44.09013" lon="5.14878">
        <ele>282.5</ele>
        <time>2012-09-15T09:10:12.000Z</time>
      </trkpt>
      <trkpt lat="44.09007" lon="5.14878">
        <ele>282.4</ele>
        <time>2012-09-15T09:10:13.000Z</time>
      </trkpt>
      <trkpt lat="44.09001" lon="5.14877">
        <ele>282.4</ele>
        <time>2012-09-15T09:10:14.000Z</time>
      </trkpt>
      <trkpt lat="44.08995" lon="5.14877">
        <ele>281.8</ele>
        <time>2012-09-15T09:10:15.000Z</time>
      </trkpt>
      <trkpt lat="44.0899" lon="5.14877">
        <ele>281.7</ele>
        <time>2012-09-15T09:10:16.000Z</time>
      </trkpt>
      <trkpt lat="44.08984" lon="5.14877">
        <ele>281.6</ele>
        <time>2012-09-15T09:10:17.000Z</time>
      </trkpt>
      <trkpt lat="44.08979" lon="5.14879">
        <ele>281.5</ele>
        <time>2012-09-15T09:10:18.000Z</time>
      </trkpt>
      <trkpt lat="44.08973" lon="5.1488">
        <ele>281.3</ele>
        <time>2012-09-15T09:10:19.000Z</time>
      </trkpt>
      <trkpt lat="44.08966" lon="5.1488">
        <ele>281.3</ele>
        <time>2012-09-15T09:10:20.000Z</time>
      </trkpt>
      <trkpt lat="44.08962" lon="5.14878">
        <ele>281.3</ele>
        <time>2012-09-15T09:10:21.000Z</time>
      </trkpt>
      <trkpt lat="44.08956" lon="5.14878">
        <ele>281.1</ele>
        <time>2012-09-15T09:10:22.000Z</time>
      </trkpt>
      <trkpt lat="44.08952" lon="5.14878">
        <ele>280.4</ele>
        <time>2012-09-15T09:10:23.000Z</time>
      </trkpt>
      <trkpt lat="44.08947" lon="5.14878">
        <ele>279.9</ele>
        <time>2012-09-15T09:10:25.000Z</time>
      </trkpt>
      <trkpt lat="44.08942" lon="5.14878">
        <ele>280.2</ele>
        <time>2012-09-15T09:10:27.000Z</time>
      </trkpt>
      <trkpt lat="44.0894" lon="5.1488">
        <ele>280.5</ele>
        <time>2012-09-15T09:10:29.000Z</time>
      </trkpt>
      <trkpt lat="44.08938" lon="5.14887">
        <ele>281</ele>
        <time>2012-09-15T09:10:31.000Z</time>
      </trkpt>
      <trkpt lat="44.08936" lon="5.14892">
        <ele>280.8</ele>
        <time>2012-09-15T09:10:33.000Z</time>
      </trkpt>
      <trkpt lat="44.08934" lon="5.14896">
        <ele>280.7</ele>
        <time>2012-09-15T09:10:35.000Z</time>
      </trkpt>
      <trkpt lat="44.08931" lon="5.14899">
        <ele>281.1</ele>
        <time>2012-09-15T09:10:37.000Z</time>
      </trkpt>
      <trkpt lat="44.08932" lon="5.14903">
        <ele>282.2</ele>
        <time>2012-09-15T09:10:39.000Z</time>
      </trkpt>
      <trkpt lat="44.08933" lon="5.14907">
        <ele>281.8</ele>
        <time>2012-09-15T09:10:41.000Z</time>
      </trkpt>
      <trkpt lat="44.08932" lon="5.14912">
        <ele>281.2</ele>
        <time>2012-09-15T09:10:44.000Z</time>
      </trkpt>
      <trkpt lat="44.08929" lon="5.14917">
        <ele>281.5</ele>
        <time>2012-09-15T09:10:46.000Z</time>
      </trkpt>
      <trkpt lat="44.08922" lon="5.14919">
        <ele>281.5</ele>
        <time>2012-09-15T09:10:47.000Z</time>
      </trkpt>
      <trkpt lat="44.0892" lon="5.14922">
        <ele>281.9</ele>
        <time>2012-09-15T09:10:48.000Z</time>
      </trkpt>
      <trkpt lat="44.08918" lon="5.14925">
        <ele>281.9</ele>
        <time>2012-09-15T09:10:49.000Z</time>
      </trkpt>
      <trkpt lat="44.08915" lon="5.14928">
        <ele>282.4</ele>
        <time>2012-09-15T09:10:50.000Z</time>
      </trkpt>
      <trkpt lat="44.08915" lon="5.14932">
        <ele>282.9</ele>
        <time>2012-09-15T09:10:51.000Z</time>
      </trkpt>
      <trkpt lat="44.08916" lon="5.14938">
        <ele>284</ele>
        <time>2012-09-15T09:10:53.000Z</time>
      </trkpt>
      <trkpt lat="44.08915" lon="5.14943">
        <ele>284.2</ele>
        <time>2012-09-15T09:10:54.000Z</time>
      </trkpt>
      <trkpt lat="44.08914" lon="5.14946">
        <ele>284.7</ele>
        <time>2012-09-15T09:10:55.000Z</time>
      </trkpt>
      <trkpt lat="44.08914" lon="5.14951">
        <ele>284.8</ele>
        <time>2012-09-15T09:10:56.000Z</time>
      </trkpt>
      <trkpt lat="44.08915" lon="5.14955">
        <ele>284.9</ele>
        <time>2012-09-15T09:10:57.000Z</time>
      </trkpt>
      <trkpt lat="44.08916" lon="5.14958">
        <ele>284.9</ele>
        <time>2012-09-15T09:10:58.000Z</time>
      </trkpt>
      <trkpt lat="44.08918" lon="5.1496">
        <ele>285.3</ele>
        <time>2012-09-15T09:10:59.000Z</time>
      </trkpt>
      <trkpt lat="44.08921" lon="5.14961">
        <ele>285.4</ele>
        <time>2012-09-15T09:11:00.000Z</time>
      </trkpt>
      <trkpt lat="44.08923" lon="5.14962">
        <ele>285.5</ele>
        <time>2012-09-15T09:11:01.000Z</time>
      </trkpt>
      <trkpt lat="44.08924" lon="5.14966">
        <ele>285.8</ele>
        <time>2012-09-15T09:11:02.000Z</time>
      </trkpt>
      <trkpt lat="44.08924" lon="5.1497">
        <ele>286</ele>
        <time>2012-09-15T09:11:03.000Z</time>
      </trkpt>
      <trkpt lat="44.08923" lon="5.14974">
        <ele>286</ele>
        <time>2012-09-15T09:11:04.000Z</time>
      </trkpt>
      <trkpt lat="44.08922" lon="5.14977">
        <ele>286.4</ele>
        <time>2012-09-15T09:11:05.000Z</time>
      </trkpt>
      <trkpt lat="44.08922" lon="5.14981">
        <ele>286.6</ele>
        <time>2012-09-15T09:11:06.000Z</time>
      </trkpt>
      <trkpt lat="44.08923" lon="5.14987">
        <ele>286.9</ele>
        <time>2012-09-15T09:11:08.000Z</time>
      </trkpt>
      <trkpt lat="44.08925" lon="5.14994">
        <ele>287.4</ele>
        <time>2012-09-15T09:11:10.000Z</time>
      </trkpt>
      <trkpt lat="44.08929" lon="5.14998">
        <ele>287.6</ele>
        <time>2012-09-15T09:11:12.000Z</time>
      </trkpt>
      <trkpt lat="44.08933" lon="5.14999">
        <ele>285.1</ele>
        <time>2012-09-15T09:11:14.000Z</time>
      </trkpt>
      <trkpt lat="44.08936" lon="5.15001">
        <ele>285.2</ele>
        <time>2012-09-15T09:11:16.000Z</time>
      </trkpt>
      <trkpt lat="44.08939" lon="5.15004">
        <ele>284</ele>
        <time>2012-09-15T09:11:18.000Z</time>
      </trkpt>
      <trkpt lat="44.08939" lon="5.1501">
        <ele>286.9</ele>
        <time>2012-09-15T09:11:21.000Z</time>
      </trkpt>
      <trkpt lat="44.08938" lon="5.15014">
        <ele>287.8</ele>
        <time>2012-09-15T09:11:23.000Z</time>
      </trkpt>
      <trkpt lat="44.08938" lon="5.15018">
        <ele>288.2</ele>
        <time>2012-09-15T09:11:25.000Z</time>
      </trkpt>
      <trkpt lat="44.0894" lon="5.15023">
        <ele>288.6</ele>
        <time>2012-09-15T09:11:27.000Z</time>
      </trkpt>
      <trkpt lat="44.08941" lon="5.15028">
        <ele>289.2</ele>
        <time>2012-09-15T09:11:29.000Z</time>
      </trkpt>
      <trkpt lat="44.08939" lon="5.15033">
        <ele>289.5</ele>
        <time>2012-09-15T09:11:31.000Z</time>
      </trkpt>
      <trkpt lat="44.08937" lon="5.15038">
        <ele>289.5</ele>
        <time>2012-09-15T09:11:33.000Z</time>
      </trkpt>
      <trkpt lat="44.08939" lon="5.15043">
        <ele>290.3</ele>
        <time>2012-09-15T09:11:35.000Z</time>
      </trkpt>
      <trkpt lat="44.08941" lon="5.15048">
        <ele>290.8</ele>
        <time>2012-09-15T09:11:37.000Z</time>
      </trkpt>
      <trkpt lat="44.08939" lon="5.1505">
        <ele>291.1</ele>
        <time>2012-09-15T09:11:38.000Z</time>
      </trkpt>
      <trkpt lat="44.08936" lon="5.15054">
        <ele>290.9</ele>
        <time>2012-09-15T09:11:40.000Z</time>
      </trkpt>
      <trkpt lat="44.08935" lon="5.15059">
        <ele>290.5</ele>
        <time>2012-09-15T09:11:43.000Z</time>
      </trkpt>
      <trkpt lat="44.08936" lon="5.15065">
        <ele>289.4</ele>
        <time>2012-09-15T09:11:45.000Z</time>
      </trkpt>
      <trkpt lat="44.08936" lon="5.1507">
        <ele>288.6</ele>
        <time>2012-09-15T09:11:47.000Z</time>
      </trkpt>
      <trkpt lat="44.08935" lon="5.15077">
        <ele>288.4</ele>
        <time>2012-09-15T09:11:49.000Z</time>
      </trkpt>
      <trkpt lat="44.08928" lon="5.15085">
        <ele>288.2</ele>
        <time>2012-09-15T09:11:50.000Z</time>
      </trkpt>
      <trkpt lat="44.08925" lon="5.1509">
        <ele>288</ele>
        <time>2012-09-15T09:11:51.000Z</time>
      </trkpt>
      <trkpt lat="44.08922" lon="5.15095">
        <ele>287.4</ele>
        <time>2012-09-15T09:11:52.000Z</time>
      </trkpt>
      <trkpt lat="44.08918" lon="5.15099">
        <ele>287.4</ele>
        <time>2012-09-15T09:11:53.000Z</time>
      </trkpt>
      <trkpt lat="44.08916" lon="5.15103">
        <ele>287.5</ele>
        <time>2012-09-15T09:11:54.000Z</time>
      </trkpt>
      <trkpt lat="44.08911" lon="5.15104">
        <ele>286.4</ele>
        <time>2012-09-15T09:11:55.000Z</time>
      </trkpt>
      <trkpt lat="44.08908" lon="5.15107">
        <ele>286.2</ele>
        <time>2012-09-15T09:11:56.000Z</time>
      </trkpt>
      <trkpt lat="44.08904" lon="5.15109">
        <ele>286.5</ele>
        <time>2012-09-15T09:11:57.000Z</time>
      </trkpt>
      <trkpt lat="44.08901" lon="5.15112">
        <ele>286.7</ele>
        <time>2012-09-15T09:11:58.000Z</time>
      </trkpt>
      <trkpt lat="44.08906" lon="5.15115">
        <ele>287.4</ele>
        <time>2012-09-15T09:11:59.000Z</time>
      </trkpt>
      <trkpt lat="44.0891" lon="5.1512">
        <ele>288.8</ele>
        <time>2012-09-15T09:12:01.000Z</time>
      </trkpt>
      <trkpt lat="44.08911" lon="5.15123">
        <ele>289.1</ele>
        <time>2012-09-15T09:12:02.000Z</time>
      </trkpt>
      <trkpt lat="44.08909" lon="5.15129">
        <ele>289.6</ele>
        <time>2012-09-15T09:12:03.000Z</time>
      </trkpt>
      <trkpt lat="44.08908" lon="5.15133">
        <ele>290.2</ele>
        <time>2012-09-15T09:12:04.000Z</time>
      </trkpt>
      <trkpt lat="44.08907" lon="5.15137">
        <ele>290.6</ele>
        <time>2012-09-15T09:12:05.000Z</time>
      </trkpt>
      <trkpt lat="44.08906" lon="5.15141">
        <ele>291</ele>
        <time>2012-09-15T09:12:06.000Z</time>
      </trkpt>
      <trkpt lat="44.08905" lon="5.15145">
        <ele>291.2</ele>
        <time>2012-09-15T09:12:07.000Z</time>
      </trkpt>
      <trkpt lat="44.08906" lon="5.15149">
        <ele>292.6</ele>
        <time>2012-09-15T09:12:09.000Z</time>
      </trkpt>
      <trkpt lat="44.08906" lon="5.15154">
        <ele>293.2</ele>
        <time>2012-09-15T09:12:10.000Z</time>
      </trkpt>
      <trkpt lat="44.08906" lon="5.15161">
        <ele>293.5</ele>
        <time>2012-09-15T09:12:12.000Z</time>
      </trkpt>
      <trkpt lat="44.08897" lon="5.15158">
        <ele>290.2</ele>
        <time>2012-09-15T09:12:13.000Z</time>
      </trkpt>
      <trkpt lat="44.08892" lon="5.15159">
        <ele>289.8</ele>
        <time>2012-09-15T09:12:14.000Z</time>
      </trkpt>
      <trkpt lat="44.08891" lon="5.15167">
        <ele>290.6</ele>
        <time>2012-09-15T09:12:15.000Z</time>
      </trkpt>
      <trkpt lat="44.08889" lon="5.15172">
        <ele>290.6</ele>
        <time>2012-09-15T09:12:16.000Z</time>
      </trkpt>
      <trkpt lat="44.08887" lon="5.15176">
        <ele>290.5</ele>
        <time>2012-09-15T09:12:17.000Z</time>
      </trkpt>
      <trkpt lat="44.08885" lon="5.15181">
        <ele>290.7</ele>
        <time>2012-09-15T09:12:18.000Z</time>
      </trkpt>
      <trkpt lat="44.08882" lon="5.15184">
        <ele>290.8</ele>
        <time>2012-09-15T09:12:19.000Z</time>
      </trkpt>
      <trkpt lat="44.0888" lon="5.15188">
        <ele>290.7</ele>
        <time>2012-09-15T09:12:20.000Z</time>
      </trkpt>
      <trkpt lat="44.08877" lon="5.15191">
        <ele>290.8</ele>
        <time>2012-09-15T09:12:21.000Z</time>
      </trkpt>
      <trkpt lat="44.08875" lon="5.15195">
        <ele>290.8</ele>
        <time>2012-09-15T09:12:22.000Z</time>
      </trkpt>
      <trkpt lat="44.08873" lon="5.15198">
        <ele>290.6</ele>
        <time>2012-09-15T09:12:23.000Z</time>
      </trkpt>
      <trkpt lat="44.0887" lon="5.15201">
        <ele>290.6</ele>
        <time>2012-09-15T09:12:24.000Z</time>
      </trkpt>
      <trkpt lat="44.08867" lon="5.15204">
        <ele>290.9</ele>
        <time>2012-09-15T09:12:25.000Z</time>
      </trkpt>
      <trkpt lat="44.08864" lon="5.15206">
        <ele>290.9</ele>
        <time>2012-09-15T09:12:26.000Z</time>
      </trkpt>
      <trkpt lat="44.08862" lon="5.15208">
        <ele>290.3</ele>
        <time>2012-09-15T09:12:27.000Z</time>
      </trkpt>
      <trkpt lat="44.08859" lon="5.1521">
        <ele>290.4</ele>
        <time>2012-09-15T09:12:28.000Z</time>
      </trkpt>
      <trkpt lat="44.08856" lon="5.15211">
        <ele>290.5</ele>
        <time>2012-09-15T09:12:29.000Z</time>
      </trkpt>
      <trkpt lat="44.08853" lon="5.15212">
        <ele>290.7</ele>
        <time>2012-09-15T09:12:30.000Z</time>
      </trkpt>
      <trkpt lat="44.0885" lon="5.15213">
        <ele>290.9</ele>
        <time>2012-09-15T09:12:31.000Z</time>
      </trkpt>
      <trkpt lat="44.08848" lon="5.15214">
        <ele>291.1</ele>
        <time>2012-09-15T09:12:32.000Z</time>
      </trkpt>
      <trkpt lat="44.08845" lon="5.15215">
        <ele>291.2</ele>
        <time>2012-09-15T09:12:33.000Z</time>
      </trkpt>
      <trkpt lat="44.0884" lon="5.15218">
        <ele>292</ele>
        <time>2012-09-15T09:12:35.000Z</time>
      </trkpt>
      <trkpt lat="44.08838" lon="5.15219">
        <ele>292.1</ele>
        <time>2012-09-15T09:12:36.000Z</time>
      </trkpt>
      <trkpt lat="44.08835" lon="5.15219">
        <ele>292.2</ele>
        <time>2012-09-15T09:12:37.000Z</time>
      </trkpt>
      <trkpt lat="44.08832" lon="5.1522">
        <ele>292.3</ele>
        <time>2012-09-15T09:12:38.000Z</time>
      </trkpt>
      <trkpt lat="44.08828" lon="5.15222">
        <ele>292.6</ele>
        <time>2012-09-15T09:12:40.000Z</time>
      </trkpt>
      <trkpt lat="44.08823" lon="5.15224">
        <ele>293</ele>
        <time>2012-09-15T09:12:42.000Z</time>
      </trkpt>
      <trkpt lat="44.0882" lon="5.15226">
        <ele>293.1</ele>
        <time>2012-09-15T09:12:43.000Z</time>
      </trkpt>
      <trkpt lat="44.08816" lon="5.15229">
        <ele>293.3</ele>
        <time>2012-09-15T09:12:45.000Z</time>
      </trkpt>
      <trkpt lat="44.08812" lon="5.15233">
        <ele>293.8</ele>
        <time>2012-09-15T09:12:47.000Z</time>
      </trkpt>
      <trkpt lat="44.08807" lon="5.15236">
        <ele>294.3</ele>
        <time>2012-09-15T09:12:49.000Z</time>
      </trkpt>
      <trkpt lat="44.08803" lon="5.1524">
        <ele>294.9</ele>
        <time>2012-09-15T09:12:51.000Z</time>
      </trkpt>
      <trkpt lat="44.08798" lon="5.15243">
        <ele>294.7</ele>
        <time>2012-09-15T09:12:53.000Z</time>
      </trkpt>
      <trkpt lat="44.08794" lon="5.15247">
        <ele>294.5</ele>
        <time>2012-09-15T09:12:55.000Z</time>
      </trkpt>
      <trkpt lat="44.08789" lon="5.1525">
        <ele>294.5</ele>
        <time>2012-09-15T09:12:57.000Z</time>
      </trkpt>
      <trkpt lat="44.08787" lon="5.15252">
        <ele>294.3</ele>
        <time>2012-09-15T09:12:58.000Z</time>
      </trkpt>
      <trkpt lat="44.08784" lon="5.15254">
        <ele>294.4</ele>
        <time>2012-09-15T09:12:59.000Z</time>
      </trkpt>
      <trkpt lat="44.08781" lon="5.15254">
        <ele>294.4</ele>
        <time>2012-09-15T09:13:00.000Z</time>
      </trkpt>
      <trkpt lat="44.08778" lon="5.15256">
        <ele>294.6</ele>
        <time>2012-09-15T09:13:01.000Z</time>
      </trkpt>
      <trkpt lat="44.08774" lon="5.15256">
        <ele>294.6</ele>
        <time>2012-09-15T09:13:02.000Z</time>
      </trkpt>
      <trkpt lat="44.08771" lon="5.15257">
        <ele>294.5</ele>
        <time>2012-09-15T09:13:03.000Z</time>
      </trkpt>
      <trkpt lat="44.08768" lon="5.15259">
        <ele>294.8</ele>
        <time>2012-09-15T09:13:04.000Z</time>
      </trkpt>
      <trkpt lat="44.08765" lon="5.15262">
        <ele>295.1</ele>
        <time>2012-09-15T09:13:05.000Z</time>
      </trkpt>
      <trkpt lat="44.08762" lon="5.15267">
        <ele>296.3</ele>
        <time>2012-09-15T09:13:08.000Z</time>
      </trkpt>
      <trkpt lat="44.08756" lon="5.15267">
        <ele>295.9</ele>
        <time>2012-09-15T09:13:09.000Z</time>
      </trkpt>
      <trkpt lat="44.08753" lon="5.15267">
        <ele>296.8</ele>
        <time>2012-09-15T09:13:10.000Z</time>
      </trkpt>
      <trkpt lat="44.0875" lon="5.15268">
        <ele>296.1</ele>
        <time>2012-09-15T09:13:11.000Z</time>
      </trkpt>
      <trkpt lat="44.08747" lon="5.15268">
        <ele>295.9</ele>
        <time>2012-09-15T09:13:12.000Z</time>
      </trkpt>
      <trkpt lat="44.08742" lon="5.15269">
        <ele>296.1</ele>
        <time>2012-09-15T09:13:13.000Z</time>
      </trkpt>
      <trkpt lat="44.08737" lon="5.1527">
        <ele>296.5</ele>
        <time>2012-09-15T09:13:14.000Z</time>
      </trkpt>
      <trkpt lat="44.08732" lon="5.15271">
        <ele>296.7</ele>
        <time>2012-09-15T09:13:15.000Z</time>
      </trkpt>
      <trkpt lat="44.08728" lon="5.15273">
        <ele>296.7</ele>
        <time>2012-09-15T09:13:16.000Z</time>
      </trkpt>
      <trkpt lat="44.08724" lon="5.15274">
        <ele>296.6</ele>
        <time>2012-09-15T09:13:17.000Z</time>
      </trkpt>
      <trkpt lat="44.08719" lon="5.15274">
        <ele>296.1</ele>
        <time>2012-09-15T09:13:19.000Z</time>
      </trkpt>
      <trkpt lat="44.08715" lon="5.15276">
        <ele>295.7</ele>
        <time>2012-09-15T09:13:20.000Z</time>
      </trkpt>
      <trkpt lat="44.08712" lon="5.15278">
        <ele>295.8</ele>
        <time>2012-09-15T09:13:21.000Z</time>
      </trkpt>
      <trkpt lat="44.08708" lon="5.1528">
        <ele>295.7</ele>
        <time>2012-09-15T09:13:22.000Z</time>
      </trkpt>
      <trkpt lat="44.08706" lon="5.15283">
        <ele>295.8</ele>
        <time>2012-09-15T09:13:23.000Z</time>
      </trkpt>
      <trkpt lat="44.08702" lon="5.15285">
        <ele>295.9</ele>
        <time>2012-09-15T09:13:24.000Z</time>
      </trkpt>
      <trkpt lat="44.08699" lon="5.15287">
        <ele>296.2</ele>
        <time>2012-09-15T09:13:25.000Z</time>
      </trkpt>
      <trkpt lat="44.08695" lon="5.15289">
        <ele>296.3</ele>
        <time>2012-09-15T09:13:26.000Z</time>
      </trkpt>
      <trkpt lat="44.08692" lon="5.15291">
        <ele>296.4</ele>
        <time>2012-09-15T09:13:27.000Z</time>
      </trkpt>
      <trkpt lat="44.08688" lon="5.15291">
        <ele>296.1</ele>
        <time>2012-09-15T09:13:28.000Z</time>
      </trkpt>
      <trkpt lat="44.08684" lon="5.15292">
        <ele>295.8</ele>
        <time>2012-09-15T09:13:29.000Z</time>
      </trkpt>
      <trkpt lat="44.08681" lon="5.15292">
        <ele>295.8</ele>
        <time>2012-09-15T09:13:30.000Z</time>
      </trkpt>
      <trkpt lat="44.08677" lon="5.15293">
        <ele>295.6</ele>
        <time>2012-09-15T09:13:31.000Z</time>
      </trkpt>
      <trkpt lat="44.08673" lon="5.15294">
        <ele>296.1</ele>
        <time>2012-09-15T09:13:32.000Z</time>
      </trkpt>
      <trkpt lat="44.0867" lon="5.15294">
        <ele>296.5</ele>
        <time>2012-09-15T09:13:33.000Z</time>
      </trkpt>
      <trkpt lat="44.08667" lon="5.15294">
        <ele>297</ele>
        <time>2012-09-15T09:13:34.000Z</time>
      </trkpt>
      <trkpt lat="44.08664" lon="5.15294">
        <ele>297.3</ele>
        <time>2012-09-15T09:13:35.000Z</time>
      </trkpt>
      <trkpt lat="44.08658" lon="5.15294">
        <ele>297.7</ele>
        <time>2012-09-15T09:13:37.000Z</time>
      </trkpt>
      <trkpt lat="44.08655" lon="5.15294">
        <ele>297.1</ele>
        <time>2012-09-15T09:13:38.000Z</time>
      </trkpt>
      <trkpt lat="44.08651" lon="5.15294">
        <ele>296.4</ele>
        <time>2012-09-15T09:13:39.000Z</time>
      </trkpt>
      <trkpt lat="44.08647" lon="5.15298">
        <ele>296.1</ele>
        <time>2012-09-15T09:13:40.000Z</time>
      </trkpt>
      <trkpt lat="44.08644" lon="5.15301">
        <ele>295.8</ele>
        <time>2012-09-15T09:13:41.000Z</time>
      </trkpt>
      <trkpt lat="44.0864" lon="5.15304">
        <ele>295.8</ele>
        <time>2012-09-15T09:13:42.000Z</time>
      </trkpt>
      <trkpt lat="44.08637" lon="5.15306">
        <ele>295.7</ele>
        <time>2012-09-15T09:13:43.000Z</time>
      </trkpt>
      <trkpt lat="44.08633" lon="5.15309">
        <ele>295.5</ele>
        <time>2012-09-15T09:13:44.000Z</time>
      </trkpt>
      <trkpt lat="44.0863" lon="5.15314">
        <ele>295.7</ele>
        <time>2012-09-15T09:13:45.000Z</time>
      </trkpt>
      <trkpt lat="44.08632" lon="5.15323">
        <ele>295.6</ele>
        <time>2012-09-15T09:13:46.000Z</time>
      </trkpt>
      <trkpt lat="44.08632" lon="5.15328">
        <ele>295.5</ele>
        <time>2012-09-15T09:13:47.000Z</time>
      </trkpt>
      <trkpt lat="44.08631" lon="5.15334">
        <ele>295.4</ele>
        <time>2012-09-15T09:13:48.000Z</time>
      </trkpt>
      <trkpt lat="44.0863" lon="5.15339">
        <ele>295.5</ele>
        <time>2012-09-15T09:13:49.000Z</time>
      </trkpt>
      <trkpt lat="44.08631" lon="5.15345">
        <ele>295.7</ele>
        <time>2012-09-15T09:13:50.000Z</time>
      </trkpt>
      <trkpt lat="44.08632" lon="5.15351">
        <ele>296.2</ele>
        <time>2012-09-15T09:13:51.000Z</time>
      </trkpt>
      <trkpt lat="44.08632" lon="5.15357">
        <ele>296.3</ele>
        <time>2012-09-15T09:13:52.000Z</time>
      </trkpt>
      <trkpt lat="44.08632" lon="5.15362">
        <ele>296.8</ele>
        <time>2012-09-15T09:13:53.000Z</time>
      </trkpt>
      <trkpt lat="44.08634" lon="5.15366">
        <ele>296.7</ele>
        <time>2012-09-15T09:13:54.000Z</time>
      </trkpt>
      <trkpt lat="44.08635" lon="5.15371">
        <ele>296.8</ele>
        <time>2012-09-15T09:13:55.000Z</time>
      </trkpt>
      <trkpt lat="44.08636" lon="5.15376">
        <ele>296.8</ele>
        <time>2012-09-15T09:13:56.000Z</time>
      </trkpt>
      <trkpt lat="44.08638" lon="5.15381">
        <ele>296.8</ele>
        <time>2012-09-15T09:13:57.000Z</time>
      </trkpt>
      <trkpt lat="44.08639" lon="5.15385">
        <ele>297</ele>
        <time>2012-09-15T09:13:58.000Z</time>
      </trkpt>
      <trkpt lat="44.0864" lon="5.1539">
        <ele>297.2</ele>
        <time>2012-09-15T09:13:59.000Z</time>
      </trkpt>
      <trkpt lat="44.08642" lon="5.15394">
        <ele>297</ele>
        <time>2012-09-15T09:14:00.000Z</time>
      </trkpt>
      <trkpt lat="44.08642" lon="5.15401">
        <ele>295.8</ele>
        <time>2012-09-15T09:14:01.000Z</time>
      </trkpt>
      <trkpt lat="44.08644" lon="5.15405">
        <ele>295.9</ele>
        <time>2012-09-15T09:14:02.000Z</time>
      </trkpt>
      <trkpt lat="44.08645" lon="5.15411">
        <ele>295.7</ele>
        <time>2012-09-15T09:14:03.000Z</time>
      </trkpt>
      <trkpt lat="44.08647" lon="5.15416">
        <ele>295.1</ele>
        <time>2012-09-15T09:14:04.000Z</time>
      </trkpt>
      <trkpt lat="44.08646" lon="5.15424">
        <ele>295</ele>
        <time>2012-09-15T09:14:05.000Z</time>
      </trkpt>
      <trkpt lat="44.08647" lon="5.15431">
        <ele>294.8</ele>
        <time>2012-09-15T09:14:06.000Z</time>
      </trkpt>
      <trkpt lat="44.08648" lon="5.15439">
        <ele>294.5</ele>
        <time>2012-09-15T09:14:07.000Z</time>
      </trkpt>
      <trkpt lat="44.08649" lon="5.15446">
        <ele>294.3</ele>
        <time>2012-09-15T09:14:08.000Z</time>
      </trkpt>
      <trkpt lat="44.08648" lon="5.15455">
        <ele>294.7</ele>
        <time>2012-09-15T09:14:09.000Z</time>
      </trkpt>
      <trkpt lat="44.08648" lon="5.15464">
        <ele>295</ele>
        <time>2012-09-15T09:14:10.000Z</time>
      </trkpt>
      <trkpt lat="44.08648" lon="5.15473">
        <ele>295.2</ele>
        <time>2012-09-15T09:14:11.000Z</time>
      </trkpt>
      <trkpt lat="44.08648" lon="5.15482">
        <ele>295.5</ele>
        <time>2012-09-15T09:14:12.000Z</time>
      </trkpt>
      <trkpt lat="44.08647" lon="5.15491">
        <ele>295.5</ele>
        <time>2012-09-15T09:14:13.000Z</time>
      </trkpt>
      <trkpt lat="44.08647" lon="5.15499">
        <ele>295.9</ele>
        <time>2012-09-15T09:14:14.000Z</time>
      </trkpt>
      <trkpt lat="44.08647" lon="5.15507">
        <ele>296.5</ele>
        <time>2012-09-15T09:14:15.000Z</time>
      </trkpt>
      <trkpt lat="44.08647" lon="5.15514">
        <ele>296.9</ele>
        <time>2012-09-15T09:14:16.000Z</time>
      </trkpt>
      <trkpt lat="44.08647" lon="5.15522">
        <ele>297.5</ele>
        <time>2012-09-15T09:14:17.000Z</time>
      </trkpt>
      <trkpt lat="44.08647" lon="5.15529">
        <ele>297.8</ele>
        <time>2012-09-15T09:14:18.000Z</time>
      </trkpt>
      <trkpt lat="44.08647" lon="5.15535">
        <ele>298.1</ele>
        <time>2012-09-15T09:14:19.000Z</time>
      </trkpt>
      <trkpt lat="44.08647" lon="5.15541">
        <ele>298.4</ele>
        <time>2012-09-15T09:14:20.000Z</time>
      </trkpt>
      <trkpt lat="44.08647" lon="5.15547">
        <ele>298.9</ele>
        <time>2012-09-15T09:14:21.000Z</time>
      </trkpt>
      <trkpt lat="44.08647" lon="5.15552">
        <ele>299.5</ele>
        <time>2012-09-15T09:14:22.000Z</time>
      </trkpt>
      <trkpt lat="44.08647" lon="5.15557">
        <ele>299.5</ele>
        <time>2012-09-15T09:14:23.000Z</time>
      </trkpt>
      <trkpt lat="44.08647" lon="5.15563">
        <ele>299.8</ele>
        <time>2012-09-15T09:14:24.000Z</time>
      </trkpt>
      <trkpt lat="44.08647" lon="5.15569">
        <ele>299.9</ele>
        <time>2012-09-15T09:14:25.000Z</time>
      </trkpt>
      <trkpt lat="44.08646" lon="5.15575">
        <ele>300.1</ele>
        <time>2012-09-15T09:14:26.000Z</time>
      </trkpt>
      <trkpt lat="44.08646" lon="5.1558">
        <ele>300.2</ele>
        <time>2012-09-15T09:14:27.000Z</time>
      </trkpt>
      <trkpt lat="44.08646" lon="5.15586">
        <ele>300.4</ele>
        <time>2012-09-15T09:14:28.000Z</time>
      </trkpt>
      <trkpt lat="44.08645" lon="5.15591">
        <ele>300.8</ele>
        <time>2012-09-15T09:14:29.000Z</time>
      </trkpt>
      <trkpt lat="44.08644" lon="5.15596">
        <ele>301</ele>
        <time>2012-09-15T09:14:30.000Z</time>
      </trkpt>
      <trkpt lat="44.08644" lon="5.15601">
        <ele>301.2</ele>
        <time>2012-09-15T09:14:31.000Z</time>
      </trkpt>
      <trkpt lat="44.08643" lon="5.15605">
        <ele>301.5</ele>
        <time>2012-09-15T09:14:32.000Z</time>
      </trkpt>
      <trkpt lat="44.08641" lon="5.15609">
        <ele>301.4</ele>
        <time>2012-09-15T09:14:33.000Z</time>
      </trkpt>
      <trkpt lat="44.08639" lon="5.15612">
        <ele>301.4</ele>
        <time>2012-09-15T09:14:34.000Z</time>
      </trkpt>
      <trkpt lat="44.08636" lon="5.15615">
        <ele>301.2</ele>
        <time>2012-09-15T09:14:35.000Z</time>
      </trkpt>
      <trkpt lat="44.08633" lon="5.15618">
        <ele>301.1</ele>
        <time>2012-09-15T09:14:36.000Z</time>
      </trkpt>
      <trkpt lat="44.08629" lon="5.1562">
        <ele>300.7</ele>
        <time>2012-09-15T09:14:37.000Z</time>
      </trkpt>
      <trkpt lat="44.08625" lon="5.15623">
        <ele>300.5</ele>
        <time>2012-09-15T09:14:38.000Z</time>
      </trkpt>
      <trkpt lat="44.0862" lon="5.15623">
        <ele>299.8</ele>
        <time>2012-09-15T09:14:39.000Z</time>
      </trkpt>
      <trkpt lat="44.08616" lon="5.15625">
        <ele>299.4</ele>
        <time>2012-09-15T09:14:40.000Z</time>
      </trkpt>
      <trkpt lat="44.08612" lon="5.15625">
        <ele>299</ele>
        <time>2012-09-15T09:14:41.000Z</time>
      </trkpt>
      <trkpt lat="44.08608" lon="5.15624">
        <ele>298.6</ele>
        <time>2012-09-15T09:14:42.000Z</time>
      </trkpt>
      <trkpt lat="44.08602" lon="5.15623">
        <ele>298.4</ele>
        <time>2012-09-15T09:14:43.000Z</time>
      </trkpt>
      <trkpt lat="44.08594" lon="5.15617">
        <ele>298.7</ele>
        <time>2012-09-15T09:14:44.000Z</time>
      </trkpt>
      <trkpt lat="44.08587" lon="5.15615">
        <ele>298.7</ele>
        <time>2012-09-15T09:14:45.000Z</time>
      </trkpt>
      <trkpt lat="44.08581" lon="5.15616">
        <ele>298.8</ele>
        <time>2012-09-15T09:14:46.000Z</time>
      </trkpt>
      <trkpt lat="44.08575" lon="5.15617">
        <ele>298.6</ele>
        <time>2012-09-15T09:14:47.000Z</time>
      </trkpt>
      <trkpt lat="44.08568" lon="5.15622">
        <ele>298.8</ele>
        <time>2012-09-15T09:14:48.000Z</time>
      </trkpt>
      <trkpt lat="44.08562" lon="5.15623">
        <ele>299</ele>
        <time>2012-09-15T09:14:49.000Z</time>
      </trkpt>
      <trkpt lat="44.08556" lon="5.15625">
        <ele>299</ele>
        <time>2012-09-15T09:14:50.000Z</time>
      </trkpt>
      <trkpt lat="44.08552" lon="5.15626">
        <ele>299.9</ele>
        <time>2012-09-15T09:14:51.000Z</time>
      </trkpt>
      <trkpt lat="44.08547" lon="5.15628">
        <ele>300.1</ele>
        <time>2012-09-15T09:14:52.000Z</time>
      </trkpt>
      <trkpt lat="44.08542" lon="5.15629">
        <ele>300.2</ele>
        <time>2012-09-15T09:14:53.000Z</time>
      </trkpt>
      <trkpt lat="44.08538" lon="5.15632">
        <ele>302.4</ele>
        <time>2012-09-15T09:14:55.000Z</time>
      </trkpt>
      <trkpt lat="44.08536" lon="5.15634">
        <ele>302.6</ele>
        <time>2012-09-15T09:14:56.000Z</time>
      </trkpt>
      <trkpt lat="44.08532" lon="5.15635">
        <ele>302.9</ele>
        <time>2012-09-15T09:14:57.000Z</time>
      </trkpt>
      <trkpt lat="44.08528" lon="5.15636">
        <ele>302.9</ele>
        <time>2012-09-15T09:14:58.000Z</time>
      </trkpt>
      <trkpt lat="44.08523" lon="5.15636">
        <ele>303.1</ele>
        <time>2012-09-15T09:14:59.000Z</time>
      </trkpt>
      <trkpt lat="44.0852" lon="5.15637">
        <ele>303.9</ele>
        <time>2012-09-15T09:15:00.000Z</time>
      </trkpt>
      <trkpt lat="44.08516" lon="5.15637">
        <ele>304.3</ele>
        <time>2012-09-15T09:15:01.000Z</time>
      </trkpt>
      <trkpt lat="44.08512" lon="5.15634">
        <ele>304</ele>
        <time>2012-09-15T09:15:02.000Z</time>
      </trkpt>
      <trkpt lat="44.0851" lon="5.15631">
        <ele>304.5</ele>
        <time>2012-09-15T09:15:03.000Z</time>
      </trkpt>
      <trkpt lat="44.0851" lon="5.15627">
        <ele>304.8</ele>
        <time>2012-09-15T09:15:04.000Z</time>
      </trkpt>
      <trkpt lat="44.0851" lon="5.15622">
        <ele>305</ele>
        <time>2012-09-15T09:15:05.000Z</time>
      </trkpt>
      <trkpt lat="44.0851" lon="5.15617">
        <ele>304.6</ele>
        <time>2012-09-15T09:15:06.000Z</time>
      </trkpt>
      <trkpt lat="44.0851" lon="5.15612">
        <ele>304.6</ele>
        <time>2012-09-15T09:15:07.000Z</time>
      </trkpt>
      <trkpt lat="44.0851" lon="5.15607">
        <ele>304.6</ele>
        <time>2012-09-15T09:15:08.000Z</time>
      </trkpt>
      <trkpt lat="44.0851" lon="5.15602">
        <ele>304.6</ele>
        <time>2012-09-15T09:15:09.000Z</time>
      </trkpt>
      <trkpt lat="44.0851" lon="5.15596">
        <ele>304.7</ele>
        <time>2012-09-15T09:15:10.000Z</time>
      </trkpt>
      <trkpt lat="44.0851" lon="5.15591">
        <ele>304.6</ele>
        <time>2012-09-15T09:15:11.000Z</time>
      </trkpt>
      <trkpt lat="44.0851" lon="5.15586">
        <ele>304.5</ele>
        <time>2012-09-15T09:15:12.000Z</time>
      </trkpt>
      <trkpt lat="44.08511" lon="5.1558">
        <ele>304.4</ele>
        <time>2012-09-15T09:15:13.000Z</time>
      </trkpt>
      <trkpt lat="44.08512" lon="5.15574">
        <ele>304.1</ele>
        <time>2012-09-15T09:15:14.000Z</time>
      </trkpt>
      <trkpt lat="44.08513" lon="5.15568">
        <ele>303.8</ele>
        <time>2012-09-15T09:15:15.000Z</time>
      </trkpt>
      <trkpt lat="44.08514" lon="5.15561">
        <ele>303.5</ele>
        <time>2012-09-15T09:15:16.000Z</time>
      </trkpt>
      <trkpt lat="44.08515" lon="5.15554">
        <ele>303.3</ele>
        <time>2012-09-15T09:15:17.000Z</time>
      </trkpt>
      <trkpt lat="44.08516" lon="5.15548">
        <ele>303.2</ele>
        <time>2012-09-15T09:15:18.000Z</time>
      </trkpt>
      <trkpt lat="44.08516" lon="5.1554">
        <ele>303.4</ele>
        <time>2012-09-15T09:15:19.000Z</time>
      </trkpt>
      <trkpt lat="44.08514" lon="5.15535">
        <ele>304.9</ele>
        <time>2012-09-15T09:15:20.000Z</time>
      </trkpt>
      <trkpt lat="44.08512" lon="5.15529">
        <ele>305.6</ele>
        <time>2012-09-15T09:15:21.000Z</time>
      </trkpt>
      <trkpt lat="44.0851" lon="5.15523">
        <ele>306.1</ele>
        <time>2012-09-15T09:15:22.000Z</time>
      </trkpt>
      <trkpt lat="44.08509" lon="5.15516">
        <ele>306.5</ele>
        <time>2012-09-15T09:15:23.000Z</time>
      </trkpt>
      <trkpt lat="44.08507" lon="5.15509">
        <ele>306.6</ele>
        <time>2012-09-15T09:15:24.000Z</time>
      </trkpt>
      <trkpt lat="44.08506" lon="5.15502">
        <ele>306.7</ele>
        <time>2012-09-15T09:15:25.000Z</time>
      </trkpt>
      <trkpt lat="44.08505" lon="5.15494">
        <ele>306.8</ele>
        <time>2012-09-15T09:15:26.000Z</time>
      </trkpt>
      <trkpt lat="44.08505" lon="5.15486">
        <ele>306.9</ele>
        <time>2012-09-15T09:15:27.000Z</time>
      </trkpt>
      <trkpt lat="44.08504" lon="5.15479">
        <ele>307</ele>
        <time>2012-09-15T09:15:28.000Z</time>
      </trkpt>
      <trkpt lat="44.08503" lon="5.1547">
        <ele>307.1</ele>
        <time>2012-09-15T09:15:29.000Z</time>
      </trkpt>
      <trkpt lat="44.08502" lon="5.15464">
        <ele>306.7</ele>
        <time>2012-09-15T09:15:30.000Z</time>
      </trkpt>
      <trkpt lat="44.085" lon="5.15456">
        <ele>306.7</ele>
        <time>2012-09-15T09:15:31.000Z</time>
      </trkpt>
      <trkpt lat="44.08498" lon="5.15449">
        <ele>307</ele>
        <time>2012-09-15T09:15:32.000Z</time>
      </trkpt>
      <trkpt lat="44.08493" lon="5.15448">
        <ele>306.5</ele>
        <time>2012-09-15T09:15:33.000Z</time>
      </trkpt>
      <trkpt lat="44.08489" lon="5.15445">
        <ele>306.4</ele>
        <time>2012-09-15T09:15:34.000Z</time>
      </trkpt>
      <trkpt lat="44.08486" lon="5.15443">
        <ele>306.1</ele>
        <time>2012-09-15T09:15:36.000Z</time>
      </trkpt>
      <trkpt lat="44.08483" lon="5.15449">
        <ele>305.6</ele>
        <time>2012-09-15T09:15:38.000Z</time>
      </trkpt>
      <trkpt lat="44.08482" lon="5.15453">
        <ele>306.1</ele>
        <time>2012-09-15T09:15:39.000Z</time>
      </trkpt>
      <trkpt lat="44.08481" lon="5.15457">
        <ele>307.2</ele>
        <time>2012-09-15T09:15:40.000Z</time>
      </trkpt>
      <trkpt lat="44.08479" lon="5.15461">
        <ele>307.7</ele>
        <time>2012-09-15T09:15:41.000Z</time>
      </trkpt>
      <trkpt lat="44.08478" lon="5.15465">
        <ele>308</ele>
        <time>2012-09-15T09:15:42.000Z</time>
      </trkpt>
      <trkpt lat="44.08473" lon="5.15465">
        <ele>307.6</ele>
        <time>2012-09-15T09:15:43.000Z</time>
      </trkpt>
      <trkpt lat="44.0847" lon="5.15468">
        <ele>307.6</ele>
        <time>2012-09-15T09:15:44.000Z</time>
      </trkpt>
      <trkpt lat="44.08468" lon="5.1547">
        <ele>307.8</ele>
        <time>2012-09-15T09:15:45.000Z</time>
      </trkpt>
      <trkpt lat="44.08464" lon="5.15472">
        <ele>307.5</ele>
        <time>2012-09-15T09:15:46.000Z</time>
      </trkpt>
      <trkpt lat="44.0846" lon="5.15477">
        <ele>308</ele>
        <time>2012-09-15T09:15:48.000Z</time>
      </trkpt>
      <trkpt lat="44.08457" lon="5.1548">
        <ele>308</ele>
        <time>2012-09-15T09:15:49.000Z</time>
      </trkpt>
      <trkpt lat="44.08455" lon="5.15484">
        <ele>308.2</ele>
        <time>2012-09-15T09:15:50.000Z</time>
      </trkpt>
      <trkpt lat="44.08453" lon="5.15487">
        <ele>308.1</ele>
        <time>2012-09-15T09:15:51.000Z</time>
      </trkpt>
      <trkpt lat="44.08452" lon="5.15492">
        <ele>308.4</ele>
        <time>2012-09-15T09:15:52.000Z</time>
      </trkpt>
      <trkpt lat="44.0845" lon="5.15496">
        <ele>308.9</ele>
        <time>2012-09-15T09:15:53.000Z</time>
      </trkpt>
      <trkpt lat="44.08451" lon="5.155">
        <ele>308.5</ele>
        <time>2012-09-15T09:15:54.000Z</time>
      </trkpt>
      <trkpt lat="44.08451" lon="5.15504">
        <ele>309.3</ele>
        <time>2012-09-15T09:15:55.000Z</time>
      </trkpt>
      <trkpt lat="44.0845" lon="5.15508">
        <ele>309.1</ele>
        <time>2012-09-15T09:15:56.000Z</time>
      </trkpt>
      <trkpt lat="44.0845" lon="5.15512">
        <ele>309.5</ele>
        <time>2012-09-15T09:15:57.000Z</time>
      </trkpt>
      <trkpt lat="44.0845" lon="5.15518">
        <ele>309.5</ele>
        <time>2012-09-15T09:15:58.000Z</time>
      </trkpt>
      <trkpt lat="44.0845" lon="5.15522">
        <ele>309.7</ele>
        <time>2012-09-15T09:15:59.000Z</time>
      </trkpt>
      <trkpt lat="44.08449" lon="5.15527">
        <ele>309.9</ele>
        <time>2012-09-15T09:16:00.000Z</time>
      </trkpt>
      <trkpt lat="44.08449" lon="5.1553">
        <ele>309.9</ele>
        <time>2012-09-15T09:16:01.000Z</time>
      </trkpt>
      <trkpt lat="44.08448" lon="5.15534">
        <ele>309.8</ele>
        <time>2012-09-15T09:16:02.000Z</time>
      </trkpt>
      <trkpt lat="44.08445" lon="5.15539">
        <ele>309.8</ele>
        <time>2012-09-15T09:16:04.000Z</time>
      </trkpt>
      <trkpt lat="44.08437" lon="5.15537">
        <ele>310.5</ele>
        <time>2012-09-15T09:16:06.000Z</time>
      </trkpt>
      <trkpt lat="44.08433" lon="5.15536">
        <ele>310.5</ele>
        <time>2012-09-15T09:16:07.000Z</time>
      </trkpt>
      <trkpt lat="44.08427" lon="5.15536">
        <ele>310.1</ele>
        <time>2012-09-15T09:16:09.000Z</time>
      </trkpt>
      <trkpt lat="44.08423" lon="5.15536">
        <ele>310.2</ele>
        <time>2012-09-15T09:16:10.000Z</time>
      </trkpt>
      <trkpt lat="44.08418" lon="5.15536">
        <ele>310.6</ele>
        <time>2012-09-15T09:16:11.000Z</time>
      </trkpt>
      <trkpt lat="44.08415" lon="5.15536">
        <ele>310.5</ele>
        <time>2012-09-15T09:16:12.000Z</time>
      </trkpt>
      <trkpt lat="44.08412" lon="5.15537">
        <ele>310.6</ele>
        <time>2012-09-15T09:16:13.000Z</time>
      </trkpt>
      <trkpt lat="44.08407" lon="5.15541">
        <ele>310.2</ele>
        <time>2012-09-15T09:16:14.000Z</time>
      </trkpt>
      <trkpt lat="44.08403" lon="5.15543">
        <ele>310.8</ele>
        <time>2012-09-15T09:16:15.000Z</time>
      </trkpt>
      <trkpt lat="44.08399" lon="5.15546">
        <ele>310.7</ele>
        <time>2012-09-15T09:16:16.000Z</time>
      </trkpt>
      <trkpt lat="44.08395" lon="5.15548">
        <ele>310.7</ele>
        <time>2012-09-15T09:16:17.000Z</time>
      </trkpt>
      <trkpt lat="44.08391" lon="5.15551">
        <ele>310.8</ele>
        <time>2012-09-15T09:16:18.000Z</time>
      </trkpt>
      <trkpt lat="44.08387" lon="5.15554">
        <ele>311.1</ele>
        <time>2012-09-15T09:16:19.000Z</time>
      </trkpt>
      <trkpt lat="44.08383" lon="5.15556">
        <ele>311.3</ele>
        <time>2012-09-15T09:16:20.000Z</time>
      </trkpt>
      <trkpt lat="44.08382" lon="5.15561">
        <ele>311.6</ele>
        <time>2012-09-15T09:16:21.000Z</time>
      </trkpt>
      <trkpt lat="44.08379" lon="5.15565">
        <ele>312.2</ele>
        <time>2012-09-15T09:16:22.000Z</time>
      </trkpt>
      <trkpt lat="44.08377" lon="5.1557">
        <ele>311.9</ele>
        <time>2012-09-15T09:16:23.000Z</time>
      </trkpt>
      <trkpt lat="44.08375" lon="5.15574">
        <ele>311.4</ele>
        <time>2012-09-15T09:16:24.000Z</time>
      </trkpt>
      <trkpt lat="44.08373" lon="5.15579">
        <ele>311.5</ele>
        <time>2012-09-15T09:16:25.000Z</time>
      </trkpt>
      <trkpt lat="44.08373" lon="5.15583">
        <ele>311.2</ele>
        <time>2012-09-15T09:16:26.000Z</time>
      </trkpt>
      <trkpt lat="44.08372" lon="5.15588">
        <ele>311.2</ele>
        <time>2012-09-15T09:16:27.000Z</time>
      </trkpt>
      <trkpt lat="44.08372" lon="5.15592">
        <ele>311.2</ele>
        <time>2012-09-15T09:16:28.000Z</time>
      </trkpt>
      <trkpt lat="44.08371" lon="5.15596">
        <ele>311.1</ele>
        <time>2012-09-15T09:16:29.000Z</time>
      </trkpt>
      <trkpt lat="44.0837" lon="5.15599">
        <ele>311.6</ele>
        <time>2012-09-15T09:16:30.000Z</time>
      </trkpt>
      <trkpt lat="44.08369" lon="5.15604">
        <ele>311.8</ele>
        <time>2012-09-15T09:16:32.000Z</time>
      </trkpt>
      <trkpt lat="44.08369" lon="5.15609">
        <ele>311.9</ele>
        <time>2012-09-15T09:16:34.000Z</time>
      </trkpt>
      <trkpt lat="44.08369" lon="5.15614">
        <ele>312.5</ele>
        <time>2012-09-15T09:16:36.000Z</time>
      </trkpt>
      <trkpt lat="44.08368" lon="5.1562">
        <ele>312.9</ele>
        <time>2012-09-15T09:16:38.000Z</time>
      </trkpt>
      <trkpt lat="44.08368" lon="5.15626">
        <ele>313.3</ele>
        <time>2012-09-15T09:16:40.000Z</time>
      </trkpt>
      <trkpt lat="44.08369" lon="5.15632">
        <ele>313.5</ele>
        <time>2012-09-15T09:16:42.000Z</time>
      </trkpt>
      <trkpt lat="44.08369" lon="5.15638">
        <ele>314</ele>
        <time>2012-09-15T09:16:44.000Z</time>
      </trkpt>
      <trkpt lat="44.08369" lon="5.15644">
        <ele>314.2</ele>
        <time>2012-09-15T09:16:46.000Z</time>
      </trkpt>
      <trkpt lat="44.08369" lon="5.1565">
        <ele>314.6</ele>
        <time>2012-09-15T09:16:48.000Z</time>
      </trkpt>
      <trkpt lat="44.08369" lon="5.15655">
        <ele>314.8</ele>
        <time>2012-09-15T09:16:50.000Z</time>
      </trkpt>
      <trkpt lat="44.08368" lon="5.15661">
        <ele>315.2</ele>
        <time>2012-09-15T09:16:52.000Z</time>
      </trkpt>
      <trkpt lat="44.08367" lon="5.15667">
        <ele>315.1</ele>
        <time>2012-09-15T09:16:54.000Z</time>
      </trkpt>
      <trkpt lat="44.08366" lon="5.15672">
        <ele>315.2</ele>
        <time>2012-09-15T09:16:56.000Z</time>
      </trkpt>
      <trkpt lat="44.08364" lon="5.15677">
        <ele>315.2</ele>
        <time>2012-09-15T09:16:58.000Z</time>
      </trkpt>
      <trkpt lat="44.08362" lon="5.15682">
        <ele>315.4</ele>
        <time>2012-09-15T09:17:00.000Z</time>
      </trkpt>
      <trkpt lat="44.08359" lon="5.15687">
        <ele>315.3</ele>
        <time>2012-09-15T09:17:02.000Z</time>
      </trkpt>
      <trkpt lat="44.08356" lon="5.15691">
        <ele>315.3</ele>
        <time>2012-09-15T09:17:04.000Z</time>
      </trkpt>
      <trkpt lat="44.08353" lon="5.15695">
        <ele>315.7</ele>
        <time>2012-09-15T09:17:06.000Z</time>
      </trkpt>
      <trkpt lat="44.08352" lon="5.15699">
        <ele>315.9</ele>
        <time>2012-09-15T09:17:07.000Z</time>
      </trkpt>
      <trkpt lat="44.08348" lon="5.15704">
        <ele>315.8</ele>
        <time>2012-09-15T09:17:09.000Z</time>
      </trkpt>
      <trkpt lat="44.08344" lon="5.15709">
        <ele>315.8</ele>
        <time>2012-09-15T09:17:11.000Z</time>
      </trkpt>
      <trkpt lat="44.08342" lon="5.15711">
        <ele>315.7</ele>
        <time>2012-09-15T09:17:12.000Z</time>
      </trkpt>
      <trkpt lat="44.08338" lon="5.15716">
        <ele>316.1</ele>
        <time>2012-09-15T09:17:14.000Z</time>
      </trkpt>
      <trkpt lat="44.08335" lon="5.15723">
        <ele>316.1</ele>
        <time>2012-09-15T09:17:16.000Z</time>
      </trkpt>
      <trkpt lat="44.08333" lon="5.15726">
        <ele>316.3</ele>
        <time>2012-09-15T09:17:17.000Z</time>
      </trkpt>
      <trkpt lat="44.08329" lon="5.1573">
        <ele>316.5</ele>
        <time>2012-09-15T09:17:19.000Z</time>
      </trkpt>
      <trkpt lat="44.08324" lon="5.15733">
        <ele>316.4</ele>
        <time>2012-09-15T09:17:21.000Z</time>
      </trkpt>
      <trkpt lat="44.08321" lon="5.15734">
        <ele>315.1</ele>
        <time>2012-09-15T09:17:22.000Z</time>
      </trkpt>
      <trkpt lat="44.08317" lon="5.15738">
        <ele>316.8</ele>
        <time>2012-09-15T09:17:24.000Z</time>
      </trkpt>
      <trkpt lat="44.08312" lon="5.15742">
        <ele>317.6</ele>
        <time>2012-09-15T09:17:26.000Z</time>
      </trkpt>
      <trkpt lat="44.0831" lon="5.15744">
        <ele>317.2</ele>
        <time>2012-09-15T09:17:27.000Z</time>
      </trkpt>
      <trkpt lat="44.08307" lon="5.15746">
        <ele>317.4</ele>
        <time>2012-09-15T09:17:28.000Z</time>
      </trkpt>
      <trkpt lat="44.08304" lon="5.15749">
        <ele>317.5</ele>
        <time>2012-09-15T09:17:30.000Z</time>
      </trkpt>
      <trkpt lat="44.08299" lon="5.15751">
        <ele>317.9</ele>
        <time>2012-09-15T09:17:32.000Z</time>
      </trkpt>
      <trkpt lat="44.08295" lon="5.15755">
        <ele>318.7</ele>
        <time>2012-09-15T09:17:34.000Z</time>
      </trkpt>
      <trkpt lat="44.08291" lon="5.15759">
        <ele>319.1</ele>
        <time>2012-09-15T09:17:36.000Z</time>
      </trkpt>
      <trkpt lat="44.08289" lon="5.15762">
        <ele>319.4</ele>
        <time>2012-09-15T09:17:37.000Z</time>
      </trkpt>
      <trkpt lat="44.08286" lon="5.15767">
        <ele>319.3</ele>
        <time>2012-09-15T09:17:39.000Z</time>
      </trkpt>
      <trkpt lat="44.08283" lon="5.15773">
        <ele>319.5</ele>
        <time>2012-09-15T09:17:41.000Z</time>
      </trkpt>
      <trkpt lat="44.0828" lon="5.15779">
        <ele>319.3</ele>
        <time>2012-09-15T09:17:43.000Z</time>
      </trkpt>
      <trkpt lat="44.08279" lon="5.15786">
        <ele>319.2</ele>
        <time>2012-09-15T09:17:45.000Z</time>
      </trkpt>
      <trkpt lat="44.08278" lon="5.15793">
        <ele>319.3</ele>
        <time>2012-09-15T09:17:47.000Z</time>
      </trkpt>
      <trkpt lat="44.08275" lon="5.158">
        <ele>319</ele>
        <time>2012-09-15T09:17:49.000Z</time>
      </trkpt>
      <trkpt lat="44.08274" lon="5.15803">
        <ele>318.8</ele>
        <time>2012-09-15T09:17:50.000Z</time>
      </trkpt>
      <trkpt lat="44.08272" lon="5.15806">
        <ele>318.6</ele>
        <time>2012-09-15T09:17:51.000Z</time>
      </trkpt>
      <trkpt lat="44.0827" lon="5.1581">
        <ele>318.4</ele>
        <time>2012-09-15T09:17:52.000Z</time>
      </trkpt>
      <trkpt lat="44.08267" lon="5.15814">
        <ele>318.3</ele>
        <time>2012-09-15T09:17:53.000Z</time>
      </trkpt>
      <trkpt lat="44.08264" lon="5.15817">
        <ele>318.2</ele>
        <time>2012-09-15T09:17:54.000Z</time>
      </trkpt>
      <trkpt lat="44.08262" lon="5.15821">
        <ele>318.1</ele>
        <time>2012-09-15T09:17:55.000Z</time>
      </trkpt>
      <trkpt lat="44.08259" lon="5.15824">
        <ele>317.9</ele>
        <time>2012-09-15T09:17:56.000Z</time>
      </trkpt>
      <trkpt lat="44.08256" lon="5.15829">
        <ele>317.9</ele>
        <time>2012-09-15T09:17:57.000Z</time>
      </trkpt>
      <trkpt lat="44.08253" lon="5.15833">
        <ele>317.8</ele>
        <time>2012-09-15T09:17:58.000Z</time>
      </trkpt>
      <trkpt lat="44.0825" lon="5.15837">
        <ele>317.8</ele>
        <time>2012-09-15T09:17:59.000Z</time>
      </trkpt>
      <trkpt lat="44.08247" lon="5.15841">
        <ele>317.3</ele>
        <time>2012-09-15T09:18:00.000Z</time>
      </trkpt>
      <trkpt lat="44.08243" lon="5.15845">
        <ele>317</ele>
        <time>2012-09-15T09:18:01.000Z</time>
      </trkpt>
      <trkpt lat="44.08239" lon="5.15849">
        <ele>316.5</ele>
        <time>2012-09-15T09:18:02.000Z</time>
      </trkpt>
      <trkpt lat="44.08235" lon="5.15853">
        <ele>316.5</ele>
        <time>2012-09-15T09:18:03.000Z</time>
      </trkpt>
      <trkpt lat="44.0823" lon="5.15856">
        <ele>316.2</ele>
        <time>2012-09-15T09:18:04.000Z</time>
      </trkpt>
      <trkpt lat="44.08225" lon="5.1586">
        <ele>315.8</ele>
        <time>2012-09-15T09:18:05.000Z</time>
      </trkpt>
      <trkpt lat="44.0822" lon="5.15863">
        <ele>315.4</ele>
        <time>2012-09-15T09:18:06.000Z</time>
      </trkpt>
      <trkpt lat="44.08216" lon="5.15865">
        <ele>315.6</ele>
        <time>2012-09-15T09:18:07.000Z</time>
      </trkpt>
      <trkpt lat="44.08212" lon="5.15867">
        <ele>315.5</ele>
        <time>2012-09-15T09:18:08.000Z</time>
      </trkpt>
      <trkpt lat="44.08206" lon="5.15869">
        <ele>315.6</ele>
        <time>2012-09-15T09:18:09.000Z</time>
      </trkpt>
      <trkpt lat="44.082" lon="5.15871">
        <ele>315.4</ele>
        <time>2012-09-15T09:18:10.000Z</time>
      </trkpt>
      <trkpt lat="44.08195" lon="5.15873">
        <ele>315.3</ele>
        <time>2012-09-15T09:18:11.000Z</time>
      </trkpt>
      <trkpt lat="44.08189" lon="5.15875">
        <ele>314.3</ele>
        <time>2012-09-15T09:18:12.000Z</time>
      </trkpt>
      <trkpt lat="44.08184" lon="5.15875">
        <ele>314.2</ele>
        <time>2012-09-15T09:18:13.000Z</time>
      </trkpt>
      <trkpt lat="44.08178" lon="5.15876">
        <ele>313.7</ele>
        <time>2012-09-15T09:18:14.000Z</time>
      </trkpt>
      <trkpt lat="44.08173" lon="5.15877">
        <ele>313.3</ele>
        <time>2012-09-15T09:18:15.000Z</time>
      </trkpt>
      <trkpt lat="44.08167" lon="5.15878">
        <ele>313.3</ele>
        <time>2012-09-15T09:18:16.000Z</time>
      </trkpt>
      <trkpt lat="44.08161" lon="5.15879">
        <ele>312.6</ele>
        <time>2012-09-15T09:18:17.000Z</time>
      </trkpt>
      <trkpt lat="44.08155" lon="5.1588">
        <ele>312.3</ele>
        <time>2012-09-15T09:18:18.000Z</time>
      </trkpt>
      <trkpt lat="44.08149" lon="5.15881">
        <ele>312.3</ele>
        <time>2012-09-15T09:18:19.000Z</time>
      </trkpt>
      <trkpt lat="44.08142" lon="5.15881">
        <ele>312.2</ele>
        <time>2012-09-15T09:18:20.000Z</time>
      </trkpt>
      <trkpt lat="44.08136" lon="5.15882">
        <ele>311.9</ele>
        <time>2012-09-15T09:18:21.000Z</time>
      </trkpt>
      <trkpt lat="44.08131" lon="5.15882">
        <ele>312</ele>
        <time>2012-09-15T09:18:22.000Z</time>
      </trkpt>
      <trkpt lat="44.08125" lon="5.15884">
        <ele>312</ele>
        <time>2012-09-15T09:18:23.000Z</time>
      </trkpt>
      <trkpt lat="44.08119" lon="5.15886">
        <ele>311.1</ele>
        <time>2012-09-15T09:18:24.000Z</time>
      </trkpt>
      <trkpt lat="44.08112" lon="5.1589">
        <ele>311.4</ele>
        <time>2012-09-15T09:18:25.000Z</time>
      </trkpt>
      <trkpt lat="44.08107" lon="5.15894">
        <ele>311</ele>
        <time>2012-09-15T09:18:26.000Z</time>
      </trkpt>
      <trkpt lat="44.08102" lon="5.15901">
        <ele>311</ele>
        <time>2012-09-15T09:18:27.000Z</time>
      </trkpt>
      <trkpt lat="44.08097" lon="5.15906">
        <ele>311.1</ele>
        <time>2012-09-15T09:18:28.000Z</time>
      </trkpt>
      <trkpt lat="44.08092" lon="5.15911">
        <ele>310.6</ele>
        <time>2012-09-15T09:18:29.000Z</time>
      </trkpt>
      <trkpt lat="44.08087" lon="5.15915">
        <ele>310.5</ele>
        <time>2012-09-15T09:18:30.000Z</time>
      </trkpt>
      <trkpt lat="44.08081" lon="5.15919">
        <ele>310.6</ele>
        <time>2012-09-15T09:18:31.000Z</time>
      </trkpt>
      <trkpt lat="44.08076" lon="5.15922">
        <ele>310.6</ele>
        <time>2012-09-15T09:18:32.000Z</time>
      </trkpt>
      <trkpt lat="44.08071" lon="5.15927">
        <ele>310.7</ele>
        <time>2012-09-15T09:18:33.000Z</time>
      </trkpt>
      <trkpt lat="44.08065" lon="5.1593">
        <ele>310.7</ele>
        <time>2012-09-15T09:18:34.000Z</time>
      </trkpt>
      <trkpt lat="44.08057" lon="5.15935">
        <ele>310.7</ele>
        <time>2012-09-15T09:18:35.000Z</time>
      </trkpt>
      <trkpt lat="44.08052" lon="5.15936">
        <ele>310.8</ele>
        <time>2012-09-15T09:18:36.000Z</time>
      </trkpt>
      <trkpt lat="44.08047" lon="5.1594">
        <ele>311.2</ele>
        <time>2012-09-15T09:18:37.000Z</time>
      </trkpt>
      <trkpt lat="44.08041" lon="5.15944">
        <ele>311.5</ele>
        <time>2012-09-15T09:18:38.000Z</time>
      </trkpt>
      <trkpt lat="44.08037" lon="5.15947">
        <ele>311.4</ele>
        <time>2012-09-15T09:18:39.000Z</time>
      </trkpt>
      <trkpt lat="44.08032" lon="5.1595">
        <ele>311.5</ele>
        <time>2012-09-15T09:18:40.000Z</time>
      </trkpt>
      <trkpt lat="44.08027" lon="5.15953">
        <ele>311.9</ele>
        <time>2012-09-15T09:18:41.000Z</time>
      </trkpt>
      <trkpt lat="44.08023" lon="5.15958">
        <ele>311.9</ele>
        <time>2012-09-15T09:18:42.000Z</time>
      </trkpt>
      <trkpt lat="44.08016" lon="5.15963">
        <ele>311.9</ele>
        <time>2012-09-15T09:18:43.000Z</time>
      </trkpt>
      <trkpt lat="44.08012" lon="5.15969">
        <ele>311.8</ele>
        <time>2012-09-15T09:18:44.000Z</time>
      </trkpt>
      <trkpt lat="44.08006" lon="5.15974">
        <ele>311.7</ele>
        <time>2012-09-15T09:18:45.000Z</time>
      </trkpt>
      <trkpt lat="44.08001" lon="5.15979">
        <ele>311.9</ele>
        <time>2012-09-15T09:18:46.000Z</time>
      </trkpt>
      <trkpt lat="44.07996" lon="5.15983">
        <ele>311.9</ele>
        <time>2012-09-15T09:18:47.000Z</time>
      </trkpt>
      <trkpt lat="44.07992" lon="5.15988">
        <ele>312.1</ele>
        <time>2012-09-15T09:18:48.000Z</time>
      </trkpt>
      <trkpt lat="44.07987" lon="5.15992">
        <ele>312.4</ele>
        <time>2012-09-15T09:18:49.000Z</time>
      </trkpt>
      <trkpt lat="44.07983" lon="5.15996">
        <ele>312.7</ele>
        <time>2012-09-15T09:18:50.000Z</time>
      </trkpt>
      <trkpt lat="44.0798" lon="5.16">
        <ele>312.6</ele>
        <time>2012-09-15T09:18:51.000Z</time>
      </trkpt>
      <trkpt lat="44.07976" lon="5.16004">
        <ele>312.7</ele>
        <time>2012-09-15T09:18:52.000Z</time>
      </trkpt>
      <trkpt lat="44.07972" lon="5.16008">
        <ele>312.8</ele>
        <time>2012-09-15T09:18:53.000Z</time>
      </trkpt>
      <trkpt lat="44.07968" lon="5.16012">
        <ele>312.7</ele>
        <time>2012-09-15T09:18:54.000Z</time>
      </trkpt>
      <trkpt lat="44.07964" lon="5.16016">
        <ele>312.6</ele>
        <time>2012-09-15T09:18:55.000Z</time>
      </trkpt>
      <trkpt lat="44.0796" lon="5.1602">
        <ele>312.8</ele>
        <time>2012-09-15T09:18:56.000Z</time>
      </trkpt>
      <trkpt lat="44.07956" lon="5.16025">
        <ele>312.7</ele>
        <time>2012-09-15T09:18:57.000Z</time>
      </trkpt>
      <trkpt lat="44.07951" lon="5.16029">
        <ele>312.7</ele>
        <time>2012-09-15T09:18:58.000Z</time>
      </trkpt>
      <trkpt lat="44.07947" lon="5.16034">
        <ele>312.7</ele>
        <time>2012-09-15T09:18:59.000Z</time>
      </trkpt>
      <trkpt lat="44.07943" lon="5.16039">
        <ele>312.8</ele>
        <time>2012-09-15T09:19:00.000Z</time>
      </trkpt>
      <trkpt lat="44.07938" lon="5.16044">
        <ele>312.8</ele>
        <time>2012-09-15T09:19:01.000Z</time>
      </trkpt>
      <trkpt lat="44.07934" lon="5.16049">
        <ele>312.5</ele>
        <time>2012-09-15T09:19:02.000Z</time>
      </trkpt>
      <trkpt lat="44.07929" lon="5.16055">
        <ele>312.2</ele>
        <time>2012-09-15T09:19:03.000Z</time>
      </trkpt>
      <trkpt lat="44.07924" lon="5.1606">
        <ele>311.7</ele>
        <time>2012-09-15T09:19:04.000Z</time>
      </trkpt>
      <trkpt lat="44.0792" lon="5.16067">
        <ele>311.3</ele>
        <time>2012-09-15T09:19:05.000Z</time>
      </trkpt>
      <trkpt lat="44.07916" lon="5.16074">
        <ele>310.9</ele>
        <time>2012-09-15T09:19:06.000Z</time>
      </trkpt>
      <trkpt lat="44.07911" lon="5.1608">
        <ele>310.5</ele>
        <time>2012-09-15T09:19:07.000Z</time>
      </trkpt>
      <trkpt lat="44.07908" lon="5.16086">
        <ele>309.9</ele>
        <time>2012-09-15T09:19:08.000Z</time>
      </trkpt>
      <trkpt lat="44.07904" lon="5.16092">
        <ele>309.4</ele>
        <time>2012-09-15T09:19:09.000Z</time>
      </trkpt>
      <trkpt lat="44.079" lon="5.16096">
        <ele>309.1</ele>
        <time>2012-09-15T09:19:10.000Z</time>
      </trkpt>
      <trkpt lat="44.07895" lon="5.16097">
        <ele>309.2</ele>
        <time>2012-09-15T09:19:11.000Z</time>
      </trkpt>
      <trkpt lat="44.0789" lon="5.16097">
        <ele>309.9</ele>
        <time>2012-09-15T09:19:12.000Z</time>
      </trkpt>
      <trkpt lat="44.07884" lon="5.16097">
        <ele>310.3</ele>
        <time>2012-09-15T09:19:13.000Z</time>
      </trkpt>
      <trkpt lat="44.07885" lon="5.1609">
        <ele>310.7</ele>
        <time>2012-09-15T09:19:14.000Z</time>
      </trkpt>
      <trkpt lat="44.07882" lon="5.16088">
        <ele>310.7</ele>
        <time>2012-09-15T09:19:15.000Z</time>
      </trkpt>
      <trkpt lat="44.07879" lon="5.16084">
        <ele>310.4</ele>
        <time>2012-09-15T09:19:16.000Z</time>
      </trkpt>
      <trkpt lat="44.07882" lon="5.16085">
        <ele>311.2</ele>
        <time>2012-09-15T09:19:19.000Z</time>
      </trkpt>
      <trkpt lat="44.07884" lon="5.16087">
        <ele>313.4</ele>
        <time>2012-09-15T09:19:33.000Z</time>
      </trkpt>
      <trkpt lat="44.07886" lon="5.16084">
        <ele>313.7</ele>
        <time>2012-09-15T09:20:06.000Z</time>
      </trkpt>
      <trkpt lat="44.07888" lon="5.16081">
        <ele>310.1</ele>
        <time>2012-09-15T09:20:47.000Z</time>
      </trkpt>
      <trkpt lat="44.07885" lon="5.16079">
        <ele>309.7</ele>
        <time>2012-09-15T09:20:53.000Z</time>
      </trkpt>
      <trkpt lat="44.07884" lon="5.16075">
        <ele>313.3</ele>
        <time>2012-09-15T09:22:12.000Z</time>
      </trkpt>
      <trkpt lat="44.07887" lon="5.16077">
        <ele>311.4</ele>
        <time>2012-09-15T09:22:24.000Z</time>
      </trkpt>
      <trkpt lat="44.0789" lon="5.16078">
        <ele>311.8</ele>
        <time>2012-09-15T09:22:48.000Z</time>
      </trkpt>
      <trkpt lat="44.07893" lon="5.16078">
        <ele>312</ele>
        <time>2012-09-15T09:23:45.000Z</time>
      </trkpt>
      <trkpt lat="44.07889" lon="5.1608">
        <ele>306.4</ele>
        <time>2012-09-15T09:24:55.000Z</time>
      </trkpt>
      <trkpt lat="44.07886" lon="5.16078">
        <ele>309.8</ele>
        <time>2012-09-15T09:25:08.000Z</time>
      </trkpt>
      <trkpt lat="44.07886" lon="5.16075">
        <ele>310</ele>
        <time>2012-09-15T09:25:25.000Z</time>
      </trkpt>
      <trkpt lat="44.07888" lon="5.16074">
        <ele>310.4</ele>
        <time>2012-09-15T09:25:39.000Z</time>
      </trkpt>
      <trkpt lat="44.07888" lon="5.16078">
        <ele>312.5</ele>
        <time>2012-09-15T09:27:11.000Z</time>
      </trkpt>
      <trkpt lat="44.07887" lon="5.16074">
        <ele>309.1</ele>
        <time>2012-09-15T09:28:36.000Z</time>
      </trkpt>
      <trkpt lat="44.07881" lon="5.16072">
        <ele>308.2</ele>
        <time>2012-09-15T09:28:46.000Z</time>
      </trkpt>
      <trkpt lat="44.07885" lon="5.1607">
        <ele>316.4</ele>
        <time>2012-09-15T09:29:53.000Z</time>
      </trkpt>
      <trkpt lat="44.07887" lon="5.16066">
        <ele>318.4</ele>
        <time>2012-09-15T09:29:58.000Z</time>
      </trkpt>
      <trkpt lat="44.07886" lon="5.1607">
        <ele>318.4</ele>
        <time>2012-09-15T09:30:39.000Z</time>
      </trkpt>
      <trkpt lat="44.07885" lon="5.16074">
        <ele>317.4</ele>
        <time>2012-09-15T09:30:45.000Z</time>
      </trkpt>
      <trkpt lat="44.07884" lon="5.1607">
        <ele>320</ele>
        <time>2012-09-15T09:31:52.000Z</time>
      </trkpt>
      <trkpt lat="44.07883" lon="5.16073">
        <ele>315.7</ele>
        <time>2012-09-15T09:33:11.000Z</time>
      </trkpt>
      <trkpt lat="44.07884" lon="5.16077">
        <ele>317</ele>
        <time>2012-09-15T09:34:20.000Z</time>
      </trkpt>
      <trkpt lat="44.07887" lon="5.16078">
        <ele>319.2</ele>
        <time>2012-09-15T09:35:18.000Z</time>
      </trkpt>
      <trkpt lat="44.07884" lon="5.1608">
        <ele>318.6</ele>
        <time>2012-09-15T09:36:17.000Z</time>
      </trkpt>
      <trkpt lat="44.07884" lon="5.16076">
        <ele>316.7</ele>
        <time>2012-09-15T09:36:57.000Z</time>
      </trkpt>
      <trkpt lat="44.07887" lon="5.16076">
        <ele>317.3</ele>
        <time>2012-09-15T09:37:02.000Z</time>
      </trkpt>
      <trkpt lat="44.07889" lon="5.1608">
        <ele>318.8</ele>
        <time>2012-09-15T09:37:04.000Z</time>
      </trkpt>
      <trkpt lat="44.07891" lon="5.16081">
        <ele>321.3</ele>
        <time>2012-09-15T09:37:06.000Z</time>
      </trkpt>
      <trkpt lat="44.07893" lon="5.16085">
        <ele>320.8</ele>
        <time>2012-09-15T09:37:08.000Z</time>
      </trkpt>
      <trkpt lat="44.07895" lon="5.16089">
        <ele>324.5</ele>
        <time>2012-09-15T09:37:11.000Z</time>
      </trkpt>
      <trkpt lat="44.07897" lon="5.16094">
        <ele>325</ele>
        <time>2012-09-15T09:37:13.000Z</time>
      </trkpt>
      <trkpt lat="44.07901" lon="5.161">
        <ele>328.5</ele>
        <time>2012-09-15T09:37:15.000Z</time>
      </trkpt>
      <trkpt lat="44.07904" lon="5.16105">
        <ele>330</ele>
        <time>2012-09-15T09:37:17.000Z</time>
      </trkpt>
      <trkpt lat="44.07906" lon="5.1611">
        <ele>328.6</ele>
        <time>2012-09-15T09:37:18.000Z</time>
      </trkpt>
      <trkpt lat="44.07908" lon="5.16114">
        <ele>327.6</ele>
        <time>2012-09-15T09:37:19.000Z</time>
      </trkpt>
      <trkpt lat="44.0791" lon="5.16119">
        <ele>326.5</ele>
        <time>2012-09-15T09:37:20.000Z</time>
      </trkpt>
      <trkpt lat="44.07911" lon="5.16124">
        <ele>325.9</ele>
        <time>2012-09-15T09:37:21.000Z</time>
      </trkpt>
      <trkpt lat="44.07911" lon="5.16129">
        <ele>325.6</ele>
        <time>2012-09-15T09:37:22.000Z</time>
      </trkpt>
      <trkpt lat="44.07913" lon="5.16135">
        <ele>325.4</ele>
        <time>2012-09-15T09:37:23.000Z</time>
      </trkpt>
      <trkpt lat="44.07913" lon="5.1614">
        <ele>325</ele>
        <time>2012-09-15T09:37:24.000Z</time>
      </trkpt>
      <trkpt lat="44.07914" lon="5.16144">
        <ele>324.3</ele>
        <time>2012-09-15T09:37:25.000Z</time>
      </trkpt>
      <trkpt lat="44.07912" lon="5.16148">
        <ele>324.7</ele>
        <time>2012-09-15T09:37:26.000Z</time>
      </trkpt>
      <trkpt lat="44.07911" lon="5.16152">
        <ele>323.8</ele>
        <time>2012-09-15T09:37:27.000Z</time>
      </trkpt>
      <trkpt lat="44.0791" lon="5.16159">
        <ele>323.3</ele>
        <time>2012-09-15T09:37:29.000Z</time>
      </trkpt>
      <trkpt lat="44.07906" lon="5.16163">
        <ele>323.1</ele>
        <time>2012-09-15T09:37:31.000Z</time>
      </trkpt>
      <trkpt lat="44.07904" lon="5.16167">
        <ele>322.3</ele>
        <time>2012-09-15T09:37:33.000Z</time>
      </trkpt>
      <trkpt lat="44.07902" lon="5.16171">
        <ele>323.1</ele>
        <time>2012-09-15T09:37:34.000Z</time>
      </trkpt>
      <trkpt lat="44.07901" lon="5.16176">
        <ele>322.4</ele>
        <time>2012-09-15T09:37:35.000Z</time>
      </trkpt>
      <trkpt lat="44.079" lon="5.1618">
        <ele>321.7</ele>
        <time>2012-09-15T09:37:36.000Z</time>
      </trkpt>
      <trkpt lat="44.07898" lon="5.16185">
        <ele>321.8</ele>
        <time>2012-09-15T09:37:37.000Z</time>
      </trkpt>
      <trkpt lat="44.07897" lon="5.16191">
        <ele>321.5</ele>
        <time>2012-09-15T09:37:39.000Z</time>
      </trkpt>
      <trkpt lat="44.07897" lon="5.16197">
        <ele>323.7</ele>
        <time>2012-09-15T09:37:41.000Z</time>
      </trkpt>
      <trkpt lat="44.07897" lon="5.16202">
        <ele>323.2</ele>
        <time>2012-09-15T09:37:42.000Z</time>
      </trkpt>
      <trkpt lat="44.07897" lon="5.16209">
        <ele>323.5</ele>
        <time>2012-09-15T09:37:44.000Z</time>
      </trkpt>
      <trkpt lat="44.07897" lon="5.16214">
        <ele>325.8</ele>
        <time>2012-09-15T09:37:46.000Z</time>
      </trkpt>
      <trkpt lat="44.07897" lon="5.16219">
        <ele>325.9</ele>
        <time>2012-09-15T09:37:47.000Z</time>
      </trkpt>
      <trkpt lat="44.07897" lon="5.16226">
        <ele>325.8</ele>
        <time>2012-09-15T09:37:49.000Z</time>
      </trkpt>
      <trkpt lat="44.07897" lon="5.1623">
        <ele>325.7</ele>
        <time>2012-09-15T09:37:50.000Z</time>
      </trkpt>
      <trkpt lat="44.07897" lon="5.16234">
        <ele>325.8</ele>
        <time>2012-09-15T09:37:51.000Z</time>
      </trkpt>
      <trkpt lat="44.07897" lon="5.16238">
        <ele>325.9</ele>
        <time>2012-09-15T09:37:52.000Z</time>
      </trkpt>
      <trkpt lat="44.07897" lon="5.16243">
        <ele>328.7</ele>
        <time>2012-09-15T09:37:54.000Z</time>
      </trkpt>
      <trkpt lat="44.07897" lon="5.16247">
        <ele>328.9</ele>
        <time>2012-09-15T09:37:55.000Z</time>
      </trkpt>
      <trkpt lat="44.07897" lon="5.16255">
        <ele>329.1</ele>
        <time>2012-09-15T09:37:57.000Z</time>
      </trkpt>
      <trkpt lat="44.07897" lon="5.16261">
        <ele>328.9</ele>
        <time>2012-09-15T09:37:59.000Z</time>
      </trkpt>
      <trkpt lat="44.07897" lon="5.16267">
        <ele>328.8</ele>
        <time>2012-09-15T09:38:01.000Z</time>
      </trkpt>
      <trkpt lat="44.07896" lon="5.16272">
        <ele>329</ele>
        <time>2012-09-15T09:38:03.000Z</time>
      </trkpt>
      <trkpt lat="44.07894" lon="5.16277">
        <ele>331.1</ele>
        <time>2012-09-15T09:38:05.000Z</time>
      </trkpt>
      <trkpt lat="44.07893" lon="5.16282">
        <ele>330.8</ele>
        <time>2012-09-15T09:38:06.000Z</time>
      </trkpt>
      <trkpt lat="44.07892" lon="5.16285">
        <ele>330.7</ele>
        <time>2012-09-15T09:38:07.000Z</time>
      </trkpt>
      <trkpt lat="44.07891" lon="5.16291">
        <ele>330.8</ele>
        <time>2012-09-15T09:38:09.000Z</time>
      </trkpt>
      <trkpt lat="44.07888" lon="5.16296">
        <ele>330.8</ele>
        <time>2012-09-15T09:38:11.000Z</time>
      </trkpt>
      <trkpt lat="44.07887" lon="5.16302">
        <ele>330.9</ele>
        <time>2012-09-15T09:38:13.000Z</time>
      </trkpt>
      <trkpt lat="44.07888" lon="5.16306">
        <ele>332.6</ele>
        <time>2012-09-15T09:38:15.000Z</time>
      </trkpt>
      <trkpt lat="44.07891" lon="5.16308">
        <ele>335.1</ele>
        <time>2012-09-15T09:38:17.000Z</time>
      </trkpt>
      <trkpt lat="44.07894" lon="5.1631">
        <ele>336.2</ele>
        <time>2012-09-15T09:38:19.000Z</time>
      </trkpt>
      <trkpt lat="44.07898" lon="5.16311">
        <ele>336.3</ele>
        <time>2012-09-15T09:38:22.000Z</time>
      </trkpt>
      <trkpt lat="44.07902" lon="5.16312">
        <ele>335.8</ele>
        <time>2012-09-15T09:38:24.000Z</time>
      </trkpt>
      <trkpt lat="44.07907" lon="5.16314">
        <ele>335.7</ele>
        <time>2012-09-15T09:38:26.000Z</time>
      </trkpt>
      <trkpt lat="44.0791" lon="5.16318">
        <ele>335.6</ele>
        <time>2012-09-15T09:38:28.000Z</time>
      </trkpt>
      <trkpt lat="44.07912" lon="5.16323">
        <ele>335.5</ele>
        <time>2012-09-15T09:38:31.000Z</time>
      </trkpt>
      <trkpt lat="44.07913" lon="5.16329">
        <ele>335.8</ele>
        <time>2012-09-15T09:38:34.000Z</time>
      </trkpt>
      <trkpt lat="44.07915" lon="5.16333">
        <ele>336.3</ele>
        <time>2012-09-15T09:38:36.000Z</time>
      </trkpt>
      <trkpt lat="44.07918" lon="5.16334">
        <ele>336.5</ele>
        <time>2012-09-15T09:38:38.000Z</time>
      </trkpt>
      <trkpt lat="44.0792" lon="5.16336">
        <ele>336.4</ele>
        <time>2012-09-15T09:38:40.000Z</time>
      </trkpt>
      <trkpt lat="44.07924" lon="5.16338">
        <ele>337</ele>
        <time>2012-09-15T09:38:42.000Z</time>
      </trkpt>
      <trkpt lat="44.07929" lon="5.16336">
        <ele>337.1</ele>
        <time>2012-09-15T09:38:43.000Z</time>
      </trkpt>
      <trkpt lat="44.07936" lon="5.16335">
        <ele>337.3</ele>
        <time>2012-09-15T09:38:45.000Z</time>
      </trkpt>
      <trkpt lat="44.07939" lon="5.16336">
        <ele>336.7</ele>
        <time>2012-09-15T09:38:46.000Z</time>
      </trkpt>
      <trkpt lat="44.07944" lon="5.16336">
        <ele>336.8</ele>
        <time>2012-09-15T09:38:48.000Z</time>
      </trkpt>
      <trkpt lat="44.07948" lon="5.16336">
        <ele>336.2</ele>
        <time>2012-09-15T09:38:50.000Z</time>
      </trkpt>
      <trkpt lat="44.07953" lon="5.16334">
        <ele>336.6</ele>
        <time>2012-09-15T09:38:52.000Z</time>
      </trkpt>
      <trkpt lat="44.07959" lon="5.1633">
        <ele>336.4</ele>
        <time>2012-09-15T09:38:55.000Z</time>
      </trkpt>
      <trkpt lat="44.07963" lon="5.16332">
        <ele>336</ele>
        <time>2012-09-15T09:38:57.000Z</time>
      </trkpt>
      <trkpt lat="44.07966" lon="5.16331">
        <ele>339.8</ele>
        <time>2012-09-15T09:38:59.000Z</time>
      </trkpt>
      <trkpt lat="44.0797" lon="5.16331">
        <ele>339.1</ele>
        <time>2012-09-15T09:39:01.000Z</time>
      </trkpt>
      <trkpt lat="44.07974" lon="5.16332">
        <ele>339.9</ele>
        <time>2012-09-15T09:39:04.000Z</time>
      </trkpt>
      <trkpt lat="44.07977" lon="5.16334">
        <ele>340.1</ele>
        <time>2012-09-15T09:39:08.000Z</time>
      </trkpt>
      <trkpt lat="44.07979" lon="5.16337">
        <ele>341.4</ele>
        <time>2012-09-15T09:39:10.000Z</time>
      </trkpt>
      <trkpt lat="44.07982" lon="5.1634">
        <ele>341.8</ele>
        <time>2012-09-15T09:39:13.000Z</time>
      </trkpt>
      <trkpt lat="44.07986" lon="5.16341">
        <ele>342.6</ele>
        <time>2012-09-15T09:39:15.000Z</time>
      </trkpt>
      <trkpt lat="44.07988" lon="5.16344">
        <ele>343.8</ele>
        <time>2012-09-15T09:39:17.000Z</time>
      </trkpt>
      <trkpt lat="44.07989" lon="5.1635">
        <ele>342</ele>
        <time>2012-09-15T09:39:19.000Z</time>
      </trkpt>
      <trkpt lat="44.0799" lon="5.16354">
        <ele>343.7</ele>
        <time>2012-09-15T09:39:22.000Z</time>
      </trkpt>
      <trkpt lat="44.07991" lon="5.16357">
        <ele>343.1</ele>
        <time>2012-09-15T09:39:30.000Z</time>
      </trkpt>
      <trkpt lat="44.07993" lon="5.1636">
        <ele>345.8</ele>
        <time>2012-09-15T09:39:36.000Z</time>
      </trkpt>
      <trkpt lat="44.07996" lon="5.1636">
        <ele>346.6</ele>
        <time>2012-09-15T09:39:40.000Z</time>
      </trkpt>
      <trkpt lat="44.07998" lon="5.16362">
        <ele>348.2</ele>
        <time>2012-09-15T09:39:43.000Z</time>
      </trkpt>
      <trkpt lat="44.08" lon="5.16364">
        <ele>350.2</ele>
        <time>2012-09-15T09:39:46.000Z</time>
      </trkpt>
      <trkpt lat="44.08001" lon="5.16368">
        <ele>351.1</ele>
        <time>2012-09-15T09:39:55.000Z</time>
      </trkpt>
      <trkpt lat="44.08004" lon="5.16374">
        <ele>349.3</ele>
        <time>2012-09-15T09:40:00.000Z</time>
      </trkpt>
      <trkpt lat="44.08006" lon="5.16379">
        <ele>349.4</ele>
        <time>2012-09-15T09:40:02.000Z</time>
      </trkpt>
      <trkpt lat="44.08008" lon="5.16383">
        <ele>349.5</ele>
        <time>2012-09-15T09:40:04.000Z</time>
      </trkpt>
      <trkpt lat="44.0801" lon="5.16386">
        <ele>349.8</ele>
        <time>2012-09-15T09:40:06.000Z</time>
      </trkpt>
      <trkpt lat="44.08013" lon="5.16387">
        <ele>351</ele>
        <time>2012-09-15T09:40:09.000Z</time>
      </trkpt>
      <trkpt lat="44.08007" lon="5.16396">
        <ele>350</ele>
        <time>2012-09-15T09:40:11.000Z</time>
      </trkpt>
      <trkpt lat="44.08005" lon="5.16402">
        <ele>349.3</ele>
        <time>2012-09-15T09:40:12.000Z</time>
      </trkpt>
      <trkpt lat="44.08004" lon="5.16406">
        <ele>350.7</ele>
        <time>2012-09-15T09:40:14.000Z</time>
      </trkpt>
      <trkpt lat="44.08004" lon="5.1641">
        <ele>350.3</ele>
        <time>2012-09-15T09:40:15.000Z</time>
      </trkpt>
      <trkpt lat="44.08003" lon="5.16416">
        <ele>349.1</ele>
        <time>2012-09-15T09:40:17.000Z</time>
      </trkpt>
      <trkpt lat="44.08003" lon="5.16421">
        <ele>349.2</ele>
        <time>2012-09-15T09:40:19.000Z</time>
      </trkpt>
      <trkpt lat="44.08002" lon="5.16427">
        <ele>350.1</ele>
        <time>2012-09-15T09:40:21.000Z</time>
      </trkpt>
      <trkpt lat="44.08002" lon="5.16432">
        <ele>350.4</ele>
        <time>2012-09-15T09:40:23.000Z</time>
      </trkpt>
      <trkpt lat="44.08001" lon="5.16438">
        <ele>349.3</ele>
        <time>2012-09-15T09:40:25.000Z</time>
      </trkpt>
      <trkpt lat="44.08" lon="5.16443">
        <ele>348.3</ele>
        <time>2012-09-15T09:40:27.000Z</time>
      </trkpt>
      <trkpt lat="44.08002" lon="5.16447">
        <ele>350</ele>
        <time>2012-09-15T09:40:29.000Z</time>
      </trkpt>
      <trkpt lat="44.08003" lon="5.16451">
        <ele>349.6</ele>
        <time>2012-09-15T09:40:31.000Z</time>
      </trkpt>
      <trkpt lat="44.08006" lon="5.16452">
        <ele>351.2</ele>
        <time>2012-09-15T09:40:33.000Z</time>
      </trkpt>
      <trkpt lat="44.08009" lon="5.16454">
        <ele>351.7</ele>
        <time>2012-09-15T09:40:35.000Z</time>
      </trkpt>
      <trkpt lat="44.08012" lon="5.16455">
        <ele>351.6</ele>
        <time>2012-09-15T09:40:37.000Z</time>
      </trkpt>
      <trkpt lat="44.08015" lon="5.16457">
        <ele>350.8</ele>
        <time>2012-09-15T09:40:40.000Z</time>
      </trkpt>
      <trkpt lat="44.08017" lon="5.16461">
        <ele>348.4</ele>
        <time>2012-09-15T09:41:15.000Z</time>
      </trkpt>
      <trkpt lat="44.08015" lon="5.16467">
        <ele>348.5</ele>
        <time>2012-09-15T09:41:16.000Z</time>
      </trkpt>
      <trkpt lat="44.08015" lon="5.16473">
        <ele>347.3</ele>
        <time>2012-09-15T09:41:18.000Z</time>
      </trkpt>
      <trkpt lat="44.08013" lon="5.16478">
        <ele>346.4</ele>
        <time>2012-09-15T09:41:19.000Z</time>
      </trkpt>
      <trkpt lat="44.08012" lon="5.16481">
        <ele>344.7</ele>
        <time>2012-09-15T09:41:20.000Z</time>
      </trkpt>
      <trkpt lat="44.08016" lon="5.16484">
        <ele>347.2</ele>
        <time>2012-09-15T09:41:22.000Z</time>
      </trkpt>
      <trkpt lat="44.08019" lon="5.16486">
        <ele>349</ele>
        <time>2012-09-15T09:41:24.000Z</time>
      </trkpt>
      <trkpt lat="44.08017" lon="5.16491">
        <ele>348.2</ele>
        <time>2012-09-15T09:41:25.000Z</time>
      </trkpt>
      <trkpt lat="44.08019" lon="5.16496">
        <ele>348.7</ele>
        <time>2012-09-15T09:41:27.000Z</time>
      </trkpt>
      <trkpt lat="44.0802" lon="5.16502">
        <ele>348.2</ele>
        <time>2012-09-15T09:41:29.000Z</time>
      </trkpt>
      <trkpt lat="44.0802" lon="5.16506">
        <ele>349.9</ele>
        <time>2012-09-15T09:41:31.000Z</time>
      </trkpt>
      <trkpt lat="44.0802" lon="5.1651">
        <ele>348.6</ele>
        <time>2012-09-15T09:41:32.000Z</time>
      </trkpt>
      <trkpt lat="44.08021" lon="5.16515">
        <ele>347.7</ele>
        <time>2012-09-15T09:41:34.000Z</time>
      </trkpt>
      <trkpt lat="44.08021" lon="5.1652">
        <ele>348.9</ele>
        <time>2012-09-15T09:41:36.000Z</time>
      </trkpt>
      <trkpt lat="44.08022" lon="5.16525">
        <ele>349.4</ele>
        <time>2012-09-15T09:41:38.000Z</time>
      </trkpt>
      <trkpt lat="44.08022" lon="5.16529">
        <ele>350.1</ele>
        <time>2012-09-15T09:41:40.000Z</time>
      </trkpt>
      <trkpt lat="44.08026" lon="5.16529">
        <ele>351.2</ele>
        <time>2012-09-15T09:41:41.000Z</time>
      </trkpt>
      <trkpt lat="44.08029" lon="5.16533">
        <ele>350.9</ele>
        <time>2012-09-15T09:41:43.000Z</time>
      </trkpt>
      <trkpt lat="44.08031" lon="5.16536">
        <ele>350.3</ele>
        <time>2012-09-15T09:41:44.000Z</time>
      </trkpt>
      <trkpt lat="44.08034" lon="5.16539">
        <ele>350.1</ele>
        <time>2012-09-15T09:41:46.000Z</time>
      </trkpt>
      <trkpt lat="44.08036" lon="5.16543">
        <ele>350.4</ele>
        <time>2012-09-15T09:41:48.000Z</time>
      </trkpt>
      <trkpt lat="44.08038" lon="5.16547">
        <ele>350.7</ele>
        <time>2012-09-15T09:41:50.000Z</time>
      </trkpt>
      <trkpt lat="44.08041" lon="5.16543">
        <ele>350.3</ele>
        <time>2012-09-15T09:41:51.000Z</time>
      </trkpt>
      <trkpt lat="44.08045" lon="5.16543">
        <ele>350.3</ele>
        <time>2012-09-15T09:41:54.000Z</time>
      </trkpt>
      <trkpt lat="44.08049" lon="5.16545">
        <ele>356</ele>
        <time>2012-09-15T09:41:56.000Z</time>
      </trkpt>
      <trkpt lat="44.08054" lon="5.16544">
        <ele>356.1</ele>
        <time>2012-09-15T09:41:58.000Z</time>
      </trkpt>
      <trkpt lat="44.08056" lon="5.16542">
        <ele>353.6</ele>
        <time>2012-09-15T09:42:02.000Z</time>
      </trkpt>
      <trkpt lat="44.0806" lon="5.16545">
        <ele>353.5</ele>
        <time>2012-09-15T09:42:05.000Z</time>
      </trkpt>
      <trkpt lat="44.08063" lon="5.16547">
        <ele>353.4</ele>
        <time>2012-09-15T09:42:07.000Z</time>
      </trkpt>
      <trkpt lat="44.08066" lon="5.16549">
        <ele>356.6</ele>
        <time>2012-09-15T09:42:10.000Z</time>
      </trkpt>
      <trkpt lat="44.0807" lon="5.16551">
        <ele>357.6</ele>
        <time>2012-09-15T09:42:14.000Z</time>
      </trkpt>
      <trkpt lat="44.08073" lon="5.16553">
        <ele>358.4</ele>
        <time>2012-09-15T09:42:16.000Z</time>
      </trkpt>
      <trkpt lat="44.08077" lon="5.16555">
        <ele>358.4</ele>
        <time>2012-09-15T09:42:18.000Z</time>
      </trkpt>
      <trkpt lat="44.0808" lon="5.16556">
        <ele>358.4</ele>
        <time>2012-09-15T09:42:20.000Z</time>
      </trkpt>
      <trkpt lat="44.08083" lon="5.16558">
        <ele>358.6</ele>
        <time>2012-09-15T09:42:21.000Z</time>
      </trkpt>
      <trkpt lat="44.08086" lon="5.16559">
        <ele>358.8</ele>
        <time>2012-09-15T09:42:22.000Z</time>
      </trkpt>
      <trkpt lat="44.08089" lon="5.16562">
        <ele>358.6</ele>
        <time>2012-09-15T09:42:23.000Z</time>
      </trkpt>
      <trkpt lat="44.08093" lon="5.16564">
        <ele>358.7</ele>
        <time>2012-09-15T09:42:25.000Z</time>
      </trkpt>
      <trkpt lat="44.08096" lon="5.16569">
        <ele>358.4</ele>
        <time>2012-09-15T09:42:27.000Z</time>
      </trkpt>
      <trkpt lat="44.08098" lon="5.16574">
        <ele>358.4</ele>
        <time>2012-09-15T09:42:29.000Z</time>
      </trkpt>
      <trkpt lat="44.08098" lon="5.16579">
        <ele>358.6</ele>
        <time>2012-09-15T09:42:30.000Z</time>
      </trkpt>
      <trkpt lat="44.08099" lon="5.16584">
        <ele>358.1</ele>
        <time>2012-09-15T09:42:32.000Z</time>
      </trkpt>
      <trkpt lat="44.08101" lon="5.16581">
        <ele>361.5</ele>
        <time>2012-09-15T09:42:33.000Z</time>
      </trkpt>
      <trkpt lat="44.08104" lon="5.16583">
        <ele>360.7</ele>
        <time>2012-09-15T09:42:36.000Z</time>
      </trkpt>
      <trkpt lat="44.08108" lon="5.16582">
        <ele>362.2</ele>
        <time>2012-09-15T09:42:42.000Z</time>
      </trkpt>
      <trkpt lat="44.08112" lon="5.16586">
        <ele>363.9</ele>
        <time>2012-09-15T09:42:53.000Z</time>
      </trkpt>
      <trkpt lat="44.08114" lon="5.1659">
        <ele>365.5</ele>
        <time>2012-09-15T09:42:56.000Z</time>
      </trkpt>
      <trkpt lat="44.08117" lon="5.1659">
        <ele>367.5</ele>
        <time>2012-09-15T09:42:58.000Z</time>
      </trkpt>
      <trkpt lat="44.0812" lon="5.16592">
        <ele>368.6</ele>
        <time>2012-09-15T09:43:01.000Z</time>
      </trkpt>
      <trkpt lat="44.08122" lon="5.16594">
        <ele>368.6</ele>
        <time>2012-09-15T09:43:03.000Z</time>
      </trkpt>
      <trkpt lat="44.08126" lon="5.16595">
        <ele>368.5</ele>
        <time>2012-09-15T09:43:05.000Z</time>
      </trkpt>
      <trkpt lat="44.0813" lon="5.16597">
        <ele>370</ele>
        <time>2012-09-15T09:43:07.000Z</time>
      </trkpt>
      <trkpt lat="44.08132" lon="5.16598">
        <ele>370.8</ele>
        <time>2012-09-15T09:43:09.000Z</time>
      </trkpt>
      <trkpt lat="44.08135" lon="5.16601">
        <ele>370.8</ele>
        <time>2012-09-15T09:43:11.000Z</time>
      </trkpt>
      <trkpt lat="44.08139" lon="5.166">
        <ele>370.6</ele>
        <time>2012-09-15T09:43:13.000Z</time>
      </trkpt>
      <trkpt lat="44.08143" lon="5.166">
        <ele>369.4</ele>
        <time>2012-09-15T09:43:15.000Z</time>
      </trkpt>
      <trkpt lat="44.08146" lon="5.16599">
        <ele>368.9</ele>
        <time>2012-09-15T09:43:17.000Z</time>
      </trkpt>
      <trkpt lat="44.08149" lon="5.16599">
        <ele>369.3</ele>
        <time>2012-09-15T09:43:19.000Z</time>
      </trkpt>
      <trkpt lat="44.08154" lon="5.166">
        <ele>369.6</ele>
        <time>2012-09-15T09:43:21.000Z</time>
      </trkpt>
      <trkpt lat="44.08158" lon="5.166">
        <ele>369.2</ele>
        <time>2012-09-15T09:43:23.000Z</time>
      </trkpt>
      <trkpt lat="44.08157" lon="5.16604">
        <ele>370.7</ele>
        <time>2012-09-15T09:43:25.000Z</time>
      </trkpt>
      <trkpt lat="44.08161" lon="5.16606">
        <ele>371.8</ele>
        <time>2012-09-15T09:43:27.000Z</time>
      </trkpt>
      <trkpt lat="44.08163" lon="5.16608">
        <ele>371.2</ele>
        <time>2012-09-15T09:43:29.000Z</time>
      </trkpt>
      <trkpt lat="44.08166" lon="5.16611">
        <ele>372.7</ele>
        <time>2012-09-15T09:43:34.000Z</time>
      </trkpt>
      <trkpt lat="44.08169" lon="5.16612">
        <ele>371.8</ele>
        <time>2012-09-15T09:44:00.000Z</time>
      </trkpt>
      <trkpt lat="44.08172" lon="5.16611">
        <ele>371</ele>
        <time>2012-09-15T09:44:03.000Z</time>
      </trkpt>
      <trkpt lat="44.08175" lon="5.16611">
        <ele>371.3</ele>
        <time>2012-09-15T09:44:06.000Z</time>
      </trkpt>
      <trkpt lat="44.08177" lon="5.16608">
        <ele>370</ele>
        <time>2012-09-15T09:44:08.000Z</time>
      </trkpt>
      <trkpt lat="44.0818" lon="5.16608">
        <ele>372.3</ele>
        <time>2012-09-15T09:44:14.000Z</time>
      </trkpt>
      <trkpt lat="44.08182" lon="5.16612">
        <ele>372.1</ele>
        <time>2012-09-15T09:44:16.000Z</time>
      </trkpt>
      <trkpt lat="44.08186" lon="5.16609">
        <ele>368.2</ele>
        <time>2012-09-15T09:46:16.000Z</time>
      </trkpt>
      <trkpt lat="44.0819" lon="5.16608">
        <ele>369.6</ele>
        <time>2012-09-15T09:46:18.000Z</time>
      </trkpt>
      <trkpt lat="44.0819" lon="5.16612">
        <ele>369.1</ele>
        <time>2012-09-15T09:46:20.000Z</time>
      </trkpt>
      <trkpt lat="44.0819" lon="5.16618">
        <ele>368</ele>
        <time>2012-09-15T09:46:23.000Z</time>
      </trkpt>
      <trkpt lat="44.0819" lon="5.16622">
        <ele>367.7</ele>
        <time>2012-09-15T09:46:25.000Z</time>
      </trkpt>
      <trkpt lat="44.0819" lon="5.16627">
        <ele>369</ele>
        <time>2012-09-15T09:46:27.000Z</time>
      </trkpt>
      <trkpt lat="44.08193" lon="5.16629">
        <ele>369.2</ele>
        <time>2012-09-15T09:46:30.000Z</time>
      </trkpt>
      <trkpt lat="44.08196" lon="5.16632">
        <ele>370.3</ele>
        <time>2012-09-15T09:47:23.000Z</time>
      </trkpt>
      <trkpt lat="44.08196" lon="5.16636">
        <ele>371</ele>
        <time>2012-09-15T09:47:26.000Z</time>
      </trkpt>
      <trkpt lat="44.08197" lon="5.16642">
        <ele>372.2</ele>
        <time>2012-09-15T09:47:29.000Z</time>
      </trkpt>
      <trkpt lat="44.08199" lon="5.16645">
        <ele>372.9</ele>
        <time>2012-09-15T09:47:31.000Z</time>
      </trkpt>
      <trkpt lat="44.08202" lon="5.16646">
        <ele>373.5</ele>
        <time>2012-09-15T09:47:34.000Z</time>
      </trkpt>
      <trkpt lat="44.08204" lon="5.16646">
        <ele>373.4</ele>
        <time>2012-09-15T09:47:36.000Z</time>
      </trkpt>
      <trkpt lat="44.08207" lon="5.16647">
        <ele>371.9</ele>
        <time>2012-09-15T09:47:40.000Z</time>
      </trkpt>
      <trkpt lat="44.08206" lon="5.16642">
        <ele>371.9</ele>
        <time>2012-09-15T09:47:46.000Z</time>
      </trkpt>
      <trkpt lat="44.08208" lon="5.16638">
        <ele>372.4</ele>
        <time>2012-09-15T09:47:48.000Z</time>
      </trkpt>
      <trkpt lat="44.08212" lon="5.16638">
        <ele>371.6</ele>
        <time>2012-09-15T09:47:50.000Z</time>
      </trkpt>
      <trkpt lat="44.08214" lon="5.1664">
        <ele>372</ele>
        <time>2012-09-15T09:47:52.000Z</time>
      </trkpt>
      <trkpt lat="44.08217" lon="5.1664">
        <ele>371.5</ele>
        <time>2012-09-15T09:47:54.000Z</time>
      </trkpt>
      <trkpt lat="44.0822" lon="5.16639">
        <ele>371.9</ele>
        <time>2012-09-15T09:47:56.000Z</time>
      </trkpt>
      <trkpt lat="44.08224" lon="5.16637">
        <ele>372</ele>
        <time>2012-09-15T09:47:58.000Z</time>
      </trkpt>
      <trkpt lat="44.08229" lon="5.16637">
        <ele>371.4</ele>
        <time>2012-09-15T09:48:00.000Z</time>
      </trkpt>
      <trkpt lat="44.08235" lon="5.16636">
        <ele>371.2</ele>
        <time>2012-09-15T09:48:02.000Z</time>
      </trkpt>
      <trkpt lat="44.08239" lon="5.16639">
        <ele>372.5</ele>
        <time>2012-09-15T09:48:04.000Z</time>
      </trkpt>
      <trkpt lat="44.08242" lon="5.16641">
        <ele>372.6</ele>
        <time>2012-09-15T09:48:06.000Z</time>
      </trkpt>
      <trkpt lat="44.08246" lon="5.16645">
        <ele>372.8</ele>
        <time>2012-09-15T09:48:08.000Z</time>
      </trkpt>
      <trkpt lat="44.0825" lon="5.16649">
        <ele>374</ele>
        <time>2012-09-15T09:48:10.000Z</time>
      </trkpt>
      <trkpt lat="44.08253" lon="5.16654">
        <ele>374.2</ele>
        <time>2012-09-15T09:48:12.000Z</time>
      </trkpt>
      <trkpt lat="44.08256" lon="5.16656">
        <ele>374.6</ele>
        <time>2012-09-15T09:48:14.000Z</time>
      </trkpt>
      <trkpt lat="44.0826" lon="5.16657">
        <ele>374.6</ele>
        <time>2012-09-15T09:48:16.000Z</time>
      </trkpt>
      <trkpt lat="44.08264" lon="5.1666">
        <ele>375.1</ele>
        <time>2012-09-15T09:48:18.000Z</time>
      </trkpt>
      <trkpt lat="44.08268" lon="5.16664">
        <ele>375.7</ele>
        <time>2012-09-15T09:48:20.000Z</time>
      </trkpt>
      <trkpt lat="44.08271" lon="5.16667">
        <ele>376</ele>
        <time>2012-09-15T09:48:22.000Z</time>
      </trkpt>
      <trkpt lat="44.08274" lon="5.16669">
        <ele>377.1</ele>
        <time>2012-09-15T09:48:23.000Z</time>
      </trkpt>
      <trkpt lat="44.08277" lon="5.16673">
        <ele>378.8</ele>
        <time>2012-09-15T09:48:25.000Z</time>
      </trkpt>
      <trkpt lat="44.08279" lon="5.16677">
        <ele>380</ele>
        <time>2012-09-15T09:48:27.000Z</time>
      </trkpt>
      <trkpt lat="44.08282" lon="5.1668">
        <ele>380.5</ele>
        <time>2012-09-15T09:48:29.000Z</time>
      </trkpt>
      <trkpt lat="44.08278" lon="5.1669">
        <ele>389</ele>
        <time>2012-09-15T09:49:00.000Z</time>
      </trkpt>
      <trkpt lat="44.08281" lon="5.16693">
        <ele>388</ele>
        <time>2012-09-15T09:49:02.000Z</time>
      </trkpt>
      <trkpt lat="44.08284" lon="5.16697">
        <ele>388.4</ele>
        <time>2012-09-15T09:49:04.000Z</time>
      </trkpt>
      <trkpt lat="44.08284" lon="5.16701">
        <ele>389.5</ele>
        <time>2012-09-15T09:49:06.000Z</time>
      </trkpt>
      <trkpt lat="44.08284" lon="5.16704">
        <ele>389.5</ele>
        <time>2012-09-15T09:49:07.000Z</time>
      </trkpt>
      <trkpt lat="44.08281" lon="5.16708">
        <ele>388.8</ele>
        <time>2012-09-15T09:49:09.000Z</time>
      </trkpt>
      <trkpt lat="44.08278" lon="5.16708">
        <ele>388.4</ele>
        <time>2012-09-15T09:49:11.000Z</time>
      </trkpt>
      <trkpt lat="44.08275" lon="5.16708">
        <ele>388</ele>
        <time>2012-09-15T09:49:13.000Z</time>
      </trkpt>
      <trkpt lat="44.08271" lon="5.16706">
        <ele>387.4</ele>
        <time>2012-09-15T09:49:16.000Z</time>
      </trkpt>
      <trkpt lat="44.08268" lon="5.16704">
        <ele>386.6</ele>
        <time>2012-09-15T09:49:18.000Z</time>
      </trkpt>
      <trkpt lat="44.08264" lon="5.16702">
        <ele>386.2</ele>
        <time>2012-09-15T09:49:20.000Z</time>
      </trkpt>
      <trkpt lat="44.08263" lon="5.16698">
        <ele>386</ele>
        <time>2012-09-15T09:49:22.000Z</time>
      </trkpt>
      <trkpt lat="44.08259" lon="5.16696">
        <ele>385.8</ele>
        <time>2012-09-15T09:49:25.000Z</time>
      </trkpt>
      <trkpt lat="44.08255" lon="5.16694">
        <ele>385.8</ele>
        <time>2012-09-15T09:49:27.000Z</time>
      </trkpt>
      <trkpt lat="44.08251" lon="5.1669">
        <ele>385.7</ele>
        <time>2012-09-15T09:49:29.000Z</time>
      </trkpt>
      <trkpt lat="44.08247" lon="5.16686">
        <ele>385.3</ele>
        <time>2012-09-15T09:49:31.000Z</time>
      </trkpt>
      <trkpt lat="44.08246" lon="5.16681">
        <ele>385.4</ele>
        <time>2012-09-15T09:49:33.000Z</time>
      </trkpt>
      <trkpt lat="44.08241" lon="5.16681">
        <ele>385.9</ele>
        <time>2012-09-15T09:49:36.000Z</time>
      </trkpt>
      <trkpt lat="44.08238" lon="5.16685">
        <ele>386</ele>
        <time>2012-09-15T09:49:38.000Z</time>
      </trkpt>
      <trkpt lat="44.08235" lon="5.16688">
        <ele>385.3</ele>
        <time>2012-09-15T09:49:40.000Z</time>
      </trkpt>
      <trkpt lat="44.08232" lon="5.16691">
        <ele>385.1</ele>
        <time>2012-09-15T09:49:42.000Z</time>
      </trkpt>
      <trkpt lat="44.08232" lon="5.16695">
        <ele>385.4</ele>
        <time>2012-09-15T09:49:44.000Z</time>
      </trkpt>
      <trkpt lat="44.08231" lon="5.16699">
        <ele>385.1</ele>
        <time>2012-09-15T09:49:46.000Z</time>
      </trkpt>
      <trkpt lat="44.0823" lon="5.16703">
        <ele>384.6</ele>
        <time>2012-09-15T09:49:48.000Z</time>
      </trkpt>
      <trkpt lat="44.08228" lon="5.16708">
        <ele>384.7</ele>
        <time>2012-09-15T09:49:51.000Z</time>
      </trkpt>
      <trkpt lat="44.08231" lon="5.16708">
        <ele>385.5</ele>
        <time>2012-09-15T09:49:52.000Z</time>
      </trkpt>
      <trkpt lat="44.08234" lon="5.16711">
        <ele>385.2</ele>
        <time>2012-09-15T09:49:54.000Z</time>
      </trkpt>
      <trkpt lat="44.08238" lon="5.16712">
        <ele>386</ele>
        <time>2012-09-15T09:49:57.000Z</time>
      </trkpt>
      <trkpt lat="44.08241" lon="5.16712">
        <ele>387.1</ele>
        <time>2012-09-15T09:50:00.000Z</time>
      </trkpt>
      <trkpt lat="44.08245" lon="5.16712">
        <ele>387.5</ele>
        <time>2012-09-15T09:50:04.000Z</time>
      </trkpt>
      <trkpt lat="44.08248" lon="5.16715">
        <ele>387.7</ele>
        <time>2012-09-15T09:50:06.000Z</time>
      </trkpt>
      <trkpt lat="44.0825" lon="5.16717">
        <ele>387.4</ele>
        <time>2012-09-15T09:50:08.000Z</time>
      </trkpt>
      <trkpt lat="44.08253" lon="5.16718">
        <ele>387.2</ele>
        <time>2012-09-15T09:50:10.000Z</time>
      </trkpt>
      <trkpt lat="44.08258" lon="5.16716">
        <ele>386.9</ele>
        <time>2012-09-15T09:50:12.000Z</time>
      </trkpt>
      <trkpt lat="44.08262" lon="5.16714">
        <ele>386.4</ele>
        <time>2012-09-15T09:50:14.000Z</time>
      </trkpt>
      <trkpt lat="44.08266" lon="5.16717">
        <ele>386.9</ele>
        <time>2012-09-15T09:50:16.000Z</time>
      </trkpt>
      <trkpt lat="44.08266" lon="5.16722">
        <ele>387.1</ele>
        <time>2012-09-15T09:50:18.000Z</time>
      </trkpt>
      <trkpt lat="44.08267" lon="5.16727">
        <ele>387.2</ele>
        <time>2012-09-15T09:50:20.000Z</time>
      </trkpt>
      <trkpt lat="44.0827" lon="5.1673">
        <ele>389.2</ele>
        <time>2012-09-15T09:50:23.000Z</time>
      </trkpt>
      <trkpt lat="44.08272" lon="5.16733">
        <ele>390.3</ele>
        <time>2012-09-15T09:50:25.000Z</time>
      </trkpt>
      <trkpt lat="44.08272" lon="5.16738">
        <ele>391.9</ele>
        <time>2012-09-15T09:50:27.000Z</time>
      </trkpt>
      <trkpt lat="44.08269" lon="5.1674">
        <ele>392.2</ele>
        <time>2012-09-15T09:50:29.000Z</time>
      </trkpt>
      <trkpt lat="44.08266" lon="5.1674">
        <ele>392.4</ele>
        <time>2012-09-15T09:50:31.000Z</time>
      </trkpt>
      <trkpt lat="44.08262" lon="5.1674">
        <ele>392.7</ele>
        <time>2012-09-15T09:50:33.000Z</time>
      </trkpt>
      <trkpt lat="44.08259" lon="5.16739">
        <ele>393.8</ele>
        <time>2012-09-15T09:50:36.000Z</time>
      </trkpt>
      <trkpt lat="44.08256" lon="5.1674">
        <ele>394.2</ele>
        <time>2012-09-15T09:50:38.000Z</time>
      </trkpt>
      <trkpt lat="44.08253" lon="5.16743">
        <ele>394.9</ele>
        <time>2012-09-15T09:50:40.000Z</time>
      </trkpt>
      <trkpt lat="44.08252" lon="5.16748">
        <ele>395.1</ele>
        <time>2012-09-15T09:50:42.000Z</time>
      </trkpt>
      <trkpt lat="44.0825" lon="5.16752">
        <ele>395.2</ele>
        <time>2012-09-15T09:50:44.000Z</time>
      </trkpt>
      <trkpt lat="44.08247" lon="5.16758">
        <ele>395.2</ele>
        <time>2012-09-15T09:50:46.000Z</time>
      </trkpt>
      <trkpt lat="44.08246" lon="5.16761">
        <ele>395</ele>
        <time>2012-09-15T09:50:48.000Z</time>
      </trkpt>
      <trkpt lat="44.08246" lon="5.16765">
        <ele>395</ele>
        <time>2012-09-15T09:50:50.000Z</time>
      </trkpt>
      <trkpt lat="44.08244" lon="5.16769">
        <ele>395.8</ele>
        <time>2012-09-15T09:50:52.000Z</time>
      </trkpt>
      <trkpt lat="44.08244" lon="5.16773">
        <ele>397</ele>
        <time>2012-09-15T09:50:56.000Z</time>
      </trkpt>
      <trkpt lat="44.08246" lon="5.16778">
        <ele>398.2</ele>
        <time>2012-09-15T09:51:04.000Z</time>
      </trkpt>
      <trkpt lat="44.08248" lon="5.16781">
        <ele>398.5</ele>
        <time>2012-09-15T09:51:08.000Z</time>
      </trkpt>
      <trkpt lat="44.0825" lon="5.16784">
        <ele>399.5</ele>
        <time>2012-09-15T09:51:12.000Z</time>
      </trkpt>
      <trkpt lat="44.08252" lon="5.16787">
        <ele>399.9</ele>
        <time>2012-09-15T09:51:16.000Z</time>
      </trkpt>
      <trkpt lat="44.08255" lon="5.1679">
        <ele>400.5</ele>
        <time>2012-09-15T09:51:19.000Z</time>
      </trkpt>
      <trkpt lat="44.08256" lon="5.16794">
        <ele>401.8</ele>
        <time>2012-09-15T09:51:22.000Z</time>
      </trkpt>
      <trkpt lat="44.08258" lon="5.16797">
        <ele>402</ele>
        <time>2012-09-15T09:51:25.000Z</time>
      </trkpt>
      <trkpt lat="44.0826" lon="5.16801">
        <ele>402.9</ele>
        <time>2012-09-15T09:51:28.000Z</time>
      </trkpt>
      <trkpt lat="44.08259" lon="5.16806">
        <ele>403.6</ele>
        <time>2012-09-15T09:51:31.000Z</time>
      </trkpt>
      <trkpt lat="44.08259" lon="5.1681">
        <ele>403.9</ele>
        <time>2012-09-15T09:51:34.000Z</time>
      </trkpt>
      <trkpt lat="44.08258" lon="5.16814">
        <ele>404.6</ele>
        <time>2012-09-15T09:51:38.000Z</time>
      </trkpt>
      <trkpt lat="44.08257" lon="5.16818">
        <ele>404.9</ele>
        <time>2012-09-15T09:51:41.000Z</time>
      </trkpt>
      <trkpt lat="44.08257" lon="5.16822">
        <ele>403.7</ele>
        <time>2012-09-15T09:51:51.000Z</time>
      </trkpt>
      <trkpt lat="44.08257" lon="5.16826">
        <ele>401.9</ele>
        <time>2012-09-15T09:53:08.000Z</time>
      </trkpt>
      <trkpt lat="44.08257" lon="5.16832">
        <ele>401.9</ele>
        <time>2012-09-15T09:53:11.000Z</time>
      </trkpt>
      <trkpt lat="44.08256" lon="5.16836">
        <ele>402.1</ele>
        <time>2012-09-15T09:53:13.000Z</time>
      </trkpt>
      <trkpt lat="44.08256" lon="5.1684">
        <ele>402.5</ele>
        <time>2012-09-15T09:53:15.000Z</time>
      </trkpt>
      <trkpt lat="44.08259" lon="5.16844">
        <ele>402.1</ele>
        <time>2012-09-15T09:53:17.000Z</time>
      </trkpt>
      <trkpt lat="44.08261" lon="5.16848">
        <ele>402.6</ele>
        <time>2012-09-15T09:53:19.000Z</time>
      </trkpt>
      <trkpt lat="44.08262" lon="5.16851">
        <ele>403.5</ele>
        <time>2012-09-15T09:53:21.000Z</time>
      </trkpt>
      <trkpt lat="44.08264" lon="5.16854">
        <ele>404.4</ele>
        <time>2012-09-15T09:53:23.000Z</time>
      </trkpt>
      <trkpt lat="44.08266" lon="5.16857">
        <ele>406.2</ele>
        <time>2012-09-15T09:53:25.000Z</time>
      </trkpt>
      <trkpt lat="44.08268" lon="5.1686">
        <ele>407.8</ele>
        <time>2012-09-15T09:53:28.000Z</time>
      </trkpt>
      <trkpt lat="44.0827" lon="5.16863">
        <ele>408</ele>
        <time>2012-09-15T09:53:30.000Z</time>
      </trkpt>
      <trkpt lat="44.083" lon="5.16965">
        <ele>413.8</ele>
        <time>2012-09-15T09:54:01.000Z</time>
      </trkpt>
      <trkpt lat="44.08301" lon="5.1697">
        <ele>411.1</ele>
        <time>2012-09-15T09:54:02.000Z</time>
      </trkpt>
      <trkpt lat="44.083" lon="5.16973">
        <ele>406.2</ele>
        <time>2012-09-15T09:54:03.000Z</time>
      </trkpt>
      <trkpt lat="44.08296" lon="5.16978">
        <ele>404.8</ele>
        <time>2012-09-15T09:54:05.000Z</time>
      </trkpt>
      <trkpt lat="44.08294" lon="5.16974">
        <ele>407.5</ele>
        <time>2012-09-15T09:54:06.000Z</time>
      </trkpt>
      <trkpt lat="44.08292" lon="5.16977">
        <ele>407.5</ele>
        <time>2012-09-15T09:54:07.000Z</time>
      </trkpt>
      <trkpt lat="44.08289" lon="5.1698">
        <ele>406.8</ele>
        <time>2012-09-15T09:54:08.000Z</time>
      </trkpt>
      <trkpt lat="44.08285" lon="5.16982">
        <ele>406.9</ele>
        <time>2012-09-15T09:54:09.000Z</time>
      </trkpt>
      <trkpt lat="44.08282" lon="5.16985">
        <ele>406</ele>
        <time>2012-09-15T09:54:10.000Z</time>
      </trkpt>
      <trkpt lat="44.0828" lon="5.16987">
        <ele>406.7</ele>
        <time>2012-09-15T09:54:11.000Z</time>
      </trkpt>
      <trkpt lat="44.08275" lon="5.16992">
        <ele>404.3</ele>
        <time>2012-09-15T09:54:13.000Z</time>
      </trkpt>
      <trkpt lat="44.08273" lon="5.16996">
        <ele>403.5</ele>
        <time>2012-09-15T09:54:14.000Z</time>
      </trkpt>
      <trkpt lat="44.08269" lon="5.16999">
        <ele>403.5</ele>
        <time>2012-09-15T09:54:15.000Z</time>
      </trkpt>
      <trkpt lat="44.08266" lon="5.17003">
        <ele>403.1</ele>
        <time>2012-09-15T09:54:16.000Z</time>
      </trkpt>
      <trkpt lat="44.08263" lon="5.17005">
        <ele>402.7</ele>
        <time>2012-09-15T09:54:17.000Z</time>
      </trkpt>
      <trkpt lat="44.0826" lon="5.17008">
        <ele>403.3</ele>
        <time>2012-09-15T09:54:18.000Z</time>
      </trkpt>
      <trkpt lat="44.08256" lon="5.17012">
        <ele>402.9</ele>
        <time>2012-09-15T09:54:19.000Z</time>
      </trkpt>
      <trkpt lat="44.08253" lon="5.17014">
        <ele>402.8</ele>
        <time>2012-09-15T09:54:20.000Z</time>
      </trkpt>
      <trkpt lat="44.0825" lon="5.17017">
        <ele>402.6</ele>
        <time>2012-09-15T09:54:21.000Z</time>
      </trkpt>
      <trkpt lat="44.08246" lon="5.17022">
        <ele>401.8</ele>
        <time>2012-09-15T09:54:22.000Z</time>
      </trkpt>
      <trkpt lat="44.08243" lon="5.17026">
        <ele>402</ele>
        <time>2012-09-15T09:54:23.000Z</time>
      </trkpt>
      <trkpt lat="44.0824" lon="5.1703">
        <ele>402</ele>
        <time>2012-09-15T09:54:24.000Z</time>
      </trkpt>
      <trkpt lat="44.08236" lon="5.17032">
        <ele>402</ele>
        <time>2012-09-15T09:54:25.000Z</time>
      </trkpt>
      <trkpt lat="44.08233" lon="5.17035">
        <ele>401.9</ele>
        <time>2012-09-15T09:54:26.000Z</time>
      </trkpt>
      <trkpt lat="44.0823" lon="5.17038">
        <ele>401.7</ele>
        <time>2012-09-15T09:54:27.000Z</time>
      </trkpt>
      <trkpt lat="44.08227" lon="5.17039">
        <ele>400.6</ele>
        <time>2012-09-15T09:54:28.000Z</time>
      </trkpt>
      <trkpt lat="44.08224" lon="5.17041">
        <ele>400.6</ele>
        <time>2012-09-15T09:54:29.000Z</time>
      </trkpt>
      <trkpt lat="44.08221" lon="5.17044">
        <ele>401</ele>
        <time>2012-09-15T09:54:30.000Z</time>
      </trkpt>
      <trkpt lat="44.08219" lon="5.1705">
        <ele>398.8</ele>
        <time>2012-09-15T09:54:31.000Z</time>
      </trkpt>
      <trkpt lat="44.08217" lon="5.17055">
        <ele>397.7</ele>
        <time>2012-09-15T09:54:32.000Z</time>
      </trkpt>
      <trkpt lat="44.08216" lon="5.1706">
        <ele>397.8</ele>
        <time>2012-09-15T09:54:33.000Z</time>
      </trkpt>
      <trkpt lat="44.08218" lon="5.17065">
        <ele>396.9</ele>
        <time>2012-09-15T09:54:34.000Z</time>
      </trkpt>
      <trkpt lat="44.08219" lon="5.17069">
        <ele>397.6</ele>
        <time>2012-09-15T09:54:35.000Z</time>
      </trkpt>
      <trkpt lat="44.08222" lon="5.17075">
        <ele>397.6</ele>
        <time>2012-09-15T09:54:37.000Z</time>
      </trkpt>
      <trkpt lat="44.08224" lon="5.1708">
        <ele>398</ele>
        <time>2012-09-15T09:54:39.000Z</time>
      </trkpt>
      <trkpt lat="44.08225" lon="5.17085">
        <ele>398.8</ele>
        <time>2012-09-15T09:54:41.000Z</time>
      </trkpt>
      <trkpt lat="44.08227" lon="5.1709">
        <ele>398.7</ele>
        <time>2012-09-15T09:54:43.000Z</time>
      </trkpt>
      <trkpt lat="44.08228" lon="5.17094">
        <ele>399.3</ele>
        <time>2012-09-15T09:54:45.000Z</time>
      </trkpt>
      <trkpt lat="44.08229" lon="5.171">
        <ele>399.8</ele>
        <time>2012-09-15T09:54:47.000Z</time>
      </trkpt>
      <trkpt lat="44.08232" lon="5.17105">
        <ele>399.8</ele>
        <time>2012-09-15T09:54:49.000Z</time>
      </trkpt>
      <trkpt lat="44.08232" lon="5.1711">
        <ele>400.4</ele>
        <time>2012-09-15T09:54:51.000Z</time>
      </trkpt>
      <trkpt lat="44.08234" lon="5.17114">
        <ele>401.2</ele>
        <time>2012-09-15T09:54:53.000Z</time>
      </trkpt>
      <trkpt lat="44.08235" lon="5.17118">
        <ele>402</ele>
        <time>2012-09-15T09:54:55.000Z</time>
      </trkpt>
      <trkpt lat="44.08236" lon="5.17122">
        <ele>402.5</ele>
        <time>2012-09-15T09:54:57.000Z</time>
      </trkpt>
      <trkpt lat="44.08238" lon="5.17128">
        <ele>403</ele>
        <time>2012-09-15T09:54:59.000Z</time>
      </trkpt>
      <trkpt lat="44.08239" lon="5.17132">
        <ele>403.3</ele>
        <time>2012-09-15T09:55:01.000Z</time>
      </trkpt>
      <trkpt lat="44.0824" lon="5.17137">
        <ele>403.3</ele>
        <time>2012-09-15T09:55:03.000Z</time>
      </trkpt>
      <trkpt lat="44.08241" lon="5.17141">
        <ele>403.9</ele>
        <time>2012-09-15T09:55:05.000Z</time>
      </trkpt>
      <trkpt lat="44.08242" lon="5.17146">
        <ele>404.2</ele>
        <time>2012-09-15T09:55:07.000Z</time>
      </trkpt>
      <trkpt lat="44.08243" lon="5.17151">
        <ele>404.4</ele>
        <time>2012-09-15T09:55:09.000Z</time>
      </trkpt>
      <trkpt lat="44.08245" lon="5.17155">
        <ele>404.4</ele>
        <time>2012-09-15T09:55:11.000Z</time>
      </trkpt>
      <trkpt lat="44.08246" lon="5.17159">
        <ele>404.8</ele>
        <time>2012-09-15T09:55:13.000Z</time>
      </trkpt>
      <trkpt lat="44.08247" lon="5.17163">
        <ele>405.1</ele>
        <time>2012-09-15T09:55:15.000Z</time>
      </trkpt>
      <trkpt lat="44.08248" lon="5.17166">
        <ele>405.7</ele>
        <time>2012-09-15T09:55:17.000Z</time>
      </trkpt>
      <trkpt lat="44.08249" lon="5.1717">
        <ele>406.2</ele>
        <time>2012-09-15T09:55:19.000Z</time>
      </trkpt>
      <trkpt lat="44.08251" lon="5.17174">
        <ele>406.5</ele>
        <time>2012-09-15T09:55:21.000Z</time>
      </trkpt>
      <trkpt lat="44.08253" lon="5.17178">
        <ele>407.3</ele>
        <time>2012-09-15T09:55:24.000Z</time>
      </trkpt>
      <trkpt lat="44.08256" lon="5.1718">
        <ele>407.7</ele>
        <time>2012-09-15T09:55:26.000Z</time>
      </trkpt>
      <trkpt lat="44.08258" lon="5.17182">
        <ele>408.5</ele>
        <time>2012-09-15T09:55:28.000Z</time>
      </trkpt>
      <trkpt lat="44.0826" lon="5.17186">
        <ele>409.2</ele>
        <time>2012-09-15T09:55:30.000Z</time>
      </trkpt>
      <trkpt lat="44.08261" lon="5.1719">
        <ele>409.8</ele>
        <time>2012-09-15T09:55:32.000Z</time>
      </trkpt>
      <trkpt lat="44.08262" lon="5.17195">
        <ele>411</ele>
        <time>2012-09-15T09:55:35.000Z</time>
      </trkpt>
      <trkpt lat="44.08262" lon="5.17199">
        <ele>411.3</ele>
        <time>2012-09-15T09:55:37.000Z</time>
      </trkpt>
      <trkpt lat="44.08264" lon="5.17204">
        <ele>411.5</ele>
        <time>2012-09-15T09:55:40.000Z</time>
      </trkpt>
      <trkpt lat="44.08265" lon="5.17208">
        <ele>411.8</ele>
        <time>2012-09-15T09:55:43.000Z</time>
      </trkpt>
      <trkpt lat="44.08265" lon="5.17212">
        <ele>411.9</ele>
        <time>2012-09-15T09:55:45.000Z</time>
      </trkpt>
      <trkpt lat="44.08264" lon="5.17218">
        <ele>411.4</ele>
        <time>2012-09-15T09:55:48.000Z</time>
      </trkpt>
      <trkpt lat="44.08262" lon="5.17222">
        <ele>411.7</ele>
        <time>2012-09-15T09:55:51.000Z</time>
      </trkpt>
      <trkpt lat="44.08259" lon="5.17225">
        <ele>411.6</ele>
        <time>2012-09-15T09:55:54.000Z</time>
      </trkpt>
      <trkpt lat="44.08256" lon="5.17228">
        <ele>411.6</ele>
        <time>2012-09-15T09:55:57.000Z</time>
      </trkpt>
      <trkpt lat="44.08253" lon="5.1723">
        <ele>411.6</ele>
        <time>2012-09-15T09:55:59.000Z</time>
      </trkpt>
      <trkpt lat="44.0825" lon="5.17232">
        <ele>411.5</ele>
        <time>2012-09-15T09:56:01.000Z</time>
      </trkpt>
      <trkpt lat="44.08247" lon="5.17234">
        <ele>411.6</ele>
        <time>2012-09-15T09:56:03.000Z</time>
      </trkpt>
      <trkpt lat="44.08244" lon="5.17236">
        <ele>412.2</ele>
        <time>2012-09-15T09:56:05.000Z</time>
      </trkpt>
      <trkpt lat="44.0824" lon="5.17239">
        <ele>411.7</ele>
        <time>2012-09-15T09:56:07.000Z</time>
      </trkpt>
      <trkpt lat="44.08236" lon="5.17241">
        <ele>410.8</ele>
        <time>2012-09-15T09:56:09.000Z</time>
      </trkpt>
      <trkpt lat="44.08231" lon="5.17243">
        <ele>411.6</ele>
        <time>2012-09-15T09:56:11.000Z</time>
      </trkpt>
      <trkpt lat="44.08227" lon="5.17245">
        <ele>411.7</ele>
        <time>2012-09-15T09:56:13.000Z</time>
      </trkpt>
      <trkpt lat="44.08223" lon="5.17247">
        <ele>411.9</ele>
        <time>2012-09-15T09:56:15.000Z</time>
      </trkpt>
      <trkpt lat="44.0822" lon="5.17248">
        <ele>411.6</ele>
        <time>2012-09-15T09:56:17.000Z</time>
      </trkpt>
      <trkpt lat="44.08217" lon="5.17249">
        <ele>412.1</ele>
        <time>2012-09-15T09:56:19.000Z</time>
      </trkpt>
      <trkpt lat="44.08213" lon="5.17249">
        <ele>412</ele>
        <time>2012-09-15T09:56:21.000Z</time>
      </trkpt>
      <trkpt lat="44.0821" lon="5.1725">
        <ele>411.7</ele>
        <time>2012-09-15T09:56:23.000Z</time>
      </trkpt>
      <trkpt lat="44.08206" lon="5.17249">
        <ele>411.5</ele>
        <time>2012-09-15T09:56:25.000Z</time>
      </trkpt>
      <trkpt lat="44.08202" lon="5.17247">
        <ele>411.9</ele>
        <time>2012-09-15T09:56:26.000Z</time>
      </trkpt>
      <trkpt lat="44.082" lon="5.17247">
        <ele>411.7</ele>
        <time>2012-09-15T09:56:28.000Z</time>
      </trkpt>
      <trkpt lat="44.08204" lon="5.17247">
        <ele>410.4</ele>
        <time>2012-09-15T09:56:29.000Z</time>
      </trkpt>
      <trkpt lat="44.08207" lon="5.17248">
        <ele>409.9</ele>
        <time>2012-09-15T09:56:36.000Z</time>
      </trkpt>
      <trkpt lat="44.08208" lon="5.17252">
        <ele>408.5</ele>
        <time>2012-09-15T09:56:54.000Z</time>
      </trkpt>
      <trkpt lat="44.08206" lon="5.17256">
        <ele>408.9</ele>
        <time>2012-09-15T09:57:07.000Z</time>
      </trkpt>
      <trkpt lat="44.08202" lon="5.17251">
        <ele>406</ele>
        <time>2012-09-15T09:58:49.000Z</time>
      </trkpt>
      <trkpt lat="44.08199" lon="5.17249">
        <ele>406.5</ele>
        <time>2012-09-15T09:58:51.000Z</time>
      </trkpt>
      <trkpt lat="44.08194" lon="5.17248">
        <ele>406.6</ele>
        <time>2012-09-15T09:58:53.000Z</time>
      </trkpt>
      <trkpt lat="44.08191" lon="5.17247">
        <ele>406.6</ele>
        <time>2012-09-15T09:58:54.000Z</time>
      </trkpt>
      <trkpt lat="44.08186" lon="5.17248">
        <ele>406.5</ele>
        <time>2012-09-15T09:58:55.000Z</time>
      </trkpt>
      <trkpt lat="44.08182" lon="5.17247">
        <ele>406.8</ele>
        <time>2012-09-15T09:58:56.000Z</time>
      </trkpt>
      <trkpt lat="44.08179" lon="5.17248">
        <ele>406.5</ele>
        <time>2012-09-15T09:58:57.000Z</time>
      </trkpt>
      <trkpt lat="44.08176" lon="5.17249">
        <ele>406.8</ele>
        <time>2012-09-15T09:58:58.000Z</time>
      </trkpt>
      <trkpt lat="44.08173" lon="5.1725">
        <ele>407</ele>
        <time>2012-09-15T09:58:59.000Z</time>
      </trkpt>
      <trkpt lat="44.0817" lon="5.17252">
        <ele>407</ele>
        <time>2012-09-15T09:59:00.000Z</time>
      </trkpt>
      <trkpt lat="44.0817" lon="5.17256">
        <ele>408.3</ele>
        <time>2012-09-15T09:59:01.000Z</time>
      </trkpt>
      <trkpt lat="44.08166" lon="5.1726">
        <ele>408.5</ele>
        <time>2012-09-15T09:59:03.000Z</time>
      </trkpt>
      <trkpt lat="44.08163" lon="5.17262">
        <ele>408.5</ele>
        <time>2012-09-15T09:59:05.000Z</time>
      </trkpt>
      <trkpt lat="44.0816" lon="5.17265">
        <ele>408.2</ele>
        <time>2012-09-15T09:59:07.000Z</time>
      </trkpt>
      <trkpt lat="44.08157" lon="5.17267">
        <ele>409.8</ele>
        <time>2012-09-15T09:59:09.000Z</time>
      </trkpt>
      <trkpt lat="44.08154" lon="5.17269">
        <ele>411.1</ele>
        <time>2012-09-15T09:59:11.000Z</time>
      </trkpt>
      <trkpt lat="44.08151" lon="5.1727">
        <ele>411.7</ele>
        <time>2012-09-15T09:59:13.000Z</time>
      </trkpt>
      <trkpt lat="44.08148" lon="5.17273">
        <ele>412</ele>
        <time>2012-09-15T09:59:14.000Z</time>
      </trkpt>
      <trkpt lat="44.08142" lon="5.17275">
        <ele>412.2</ele>
        <time>2012-09-15T09:59:16.000Z</time>
      </trkpt>
      <trkpt lat="44.0814" lon="5.17276">
        <ele>412.8</ele>
        <time>2012-09-15T09:59:17.000Z</time>
      </trkpt>
      <trkpt lat="44.08137" lon="5.17279">
        <ele>413.4</ele>
        <time>2012-09-15T09:59:19.000Z</time>
      </trkpt>
      <trkpt lat="44.08133" lon="5.17282">
        <ele>413.4</ele>
        <time>2012-09-15T09:59:21.000Z</time>
      </trkpt>
      <trkpt lat="44.08129" lon="5.17286">
        <ele>413.9</ele>
        <time>2012-09-15T09:59:23.000Z</time>
      </trkpt>
      <trkpt lat="44.08126" lon="5.17288">
        <ele>414.7</ele>
        <time>2012-09-15T09:59:25.000Z</time>
      </trkpt>
      <trkpt lat="44.08123" lon="5.17289">
        <ele>415.7</ele>
        <time>2012-09-15T09:59:27.000Z</time>
      </trkpt>
      <trkpt lat="44.08119" lon="5.17291">
        <ele>416</ele>
        <time>2012-09-15T09:59:29.000Z</time>
      </trkpt>
      <trkpt lat="44.08116" lon="5.17293">
        <ele>416.2</ele>
        <time>2012-09-15T09:59:31.000Z</time>
      </trkpt>
      <trkpt lat="44.08112" lon="5.17294">
        <ele>416.6</ele>
        <time>2012-09-15T09:59:34.000Z</time>
      </trkpt>
      <trkpt lat="44.08108" lon="5.17296">
        <ele>416.4</ele>
        <time>2012-09-15T09:59:37.000Z</time>
      </trkpt>
      <trkpt lat="44.08105" lon="5.17296">
        <ele>416.6</ele>
        <time>2012-09-15T09:59:39.000Z</time>
      </trkpt>
      <trkpt lat="44.08101" lon="5.17297">
        <ele>417</ele>
        <time>2012-09-15T09:59:41.000Z</time>
      </trkpt>
      <trkpt lat="44.08098" lon="5.17299">
        <ele>417.4</ele>
        <time>2012-09-15T09:59:43.000Z</time>
      </trkpt>
      <trkpt lat="44.08094" lon="5.173">
        <ele>418.1</ele>
        <time>2012-09-15T09:59:45.000Z</time>
      </trkpt>
      <trkpt lat="44.08091" lon="5.17302">
        <ele>418.5</ele>
        <time>2012-09-15T09:59:47.000Z</time>
      </trkpt>
      <trkpt lat="44.08087" lon="5.17303">
        <ele>418.9</ele>
        <time>2012-09-15T09:59:49.000Z</time>
      </trkpt>
      <trkpt lat="44.08084" lon="5.17302">
        <ele>419.5</ele>
        <time>2012-09-15T09:59:51.000Z</time>
      </trkpt>
      <trkpt lat="44.0808" lon="5.17301">
        <ele>419.2</ele>
        <time>2012-09-15T09:59:53.000Z</time>
      </trkpt>
      <trkpt lat="44.08077" lon="5.173">
        <ele>418.8</ele>
        <time>2012-09-15T09:59:55.000Z</time>
      </trkpt>
      <trkpt lat="44.08074" lon="5.17298">
        <ele>418.3</ele>
        <time>2012-09-15T09:59:56.000Z</time>
      </trkpt>
      <trkpt lat="44.08071" lon="5.17296">
        <ele>417.9</ele>
        <time>2012-09-15T09:59:57.000Z</time>
      </trkpt>
      <trkpt lat="44.08068" lon="5.17294">
        <ele>417</ele>
        <time>2012-09-15T09:59:58.000Z</time>
      </trkpt>
      <trkpt lat="44.08065" lon="5.17291">
        <ele>416.6</ele>
        <time>2012-09-15T09:59:59.000Z</time>
      </trkpt>
      <trkpt lat="44.08063" lon="5.1729">
        <ele>416.2</ele>
        <time>2012-09-15T10:00:00.000Z</time>
      </trkpt>
      <trkpt lat="44.0806" lon="5.1729">
        <ele>416.2</ele>
        <time>2012-09-15T10:00:01.000Z</time>
      </trkpt>
      <trkpt lat="44.08057" lon="5.1729">
        <ele>416.3</ele>
        <time>2012-09-15T10:00:02.000Z</time>
      </trkpt>
      <trkpt lat="44.08051" lon="5.17288">
        <ele>416.3</ele>
        <time>2012-09-15T10:00:03.000Z</time>
      </trkpt>
      <trkpt lat="44.08048" lon="5.17286">
        <ele>416.2</ele>
        <time>2012-09-15T10:00:04.000Z</time>
      </trkpt>
      <trkpt lat="44.08045" lon="5.17284">
        <ele>416.7</ele>
        <time>2012-09-15T10:00:05.000Z</time>
      </trkpt>
      <trkpt lat="44.08041" lon="5.17282">
        <ele>417.1</ele>
        <time>2012-09-15T10:00:07.000Z</time>
      </trkpt>
      <trkpt lat="44.08037" lon="5.1728">
        <ele>417.7</ele>
        <time>2012-09-15T10:00:09.000Z</time>
      </trkpt>
      <trkpt lat="44.08032" lon="5.17279">
        <ele>418</ele>
        <time>2012-09-15T10:00:11.000Z</time>
      </trkpt>
      <trkpt lat="44.08028" lon="5.17279">
        <ele>418.7</ele>
        <time>2012-09-15T10:00:13.000Z</time>
      </trkpt>
      <trkpt lat="44.08024" lon="5.17279">
        <ele>419.5</ele>
        <time>2012-09-15T10:00:15.000Z</time>
      </trkpt>
      <trkpt lat="44.0802" lon="5.17275">
        <ele>419.5</ele>
        <time>2012-09-15T10:00:17.000Z</time>
      </trkpt>
      <trkpt lat="44.08015" lon="5.17273">
        <ele>419.6</ele>
        <time>2012-09-15T10:00:19.000Z</time>
      </trkpt>
      <trkpt lat="44.0801" lon="5.17271">
        <ele>419.5</ele>
        <time>2012-09-15T10:00:21.000Z</time>
      </trkpt>
      <trkpt lat="44.08006" lon="5.1727">
        <ele>420</ele>
        <time>2012-09-15T10:00:23.000Z</time>
      </trkpt>
      <trkpt lat="44.08003" lon="5.17271">
        <ele>419.8</ele>
        <time>2012-09-15T10:00:24.000Z</time>
      </trkpt>
      <trkpt lat="44.08" lon="5.17273">
        <ele>419.8</ele>
        <time>2012-09-15T10:00:25.000Z</time>
      </trkpt>
      <trkpt lat="44.08" lon="5.17282">
        <ele>419.4</ele>
        <time>2012-09-15T10:00:26.000Z</time>
      </trkpt>
      <trkpt lat="44.07998" lon="5.17286">
        <ele>419.3</ele>
        <time>2012-09-15T10:00:27.000Z</time>
      </trkpt>
      <trkpt lat="44.07996" lon="5.17289">
        <ele>419.3</ele>
        <time>2012-09-15T10:00:28.000Z</time>
      </trkpt>
      <trkpt lat="44.07993" lon="5.17292">
        <ele>419.4</ele>
        <time>2012-09-15T10:00:29.000Z</time>
      </trkpt>
      <trkpt lat="44.0799" lon="5.17293">
        <ele>419.5</ele>
        <time>2012-09-15T10:00:30.000Z</time>
      </trkpt>
      <trkpt lat="44.07984" lon="5.17291">
        <ele>422.3</ele>
        <time>2012-09-15T10:00:31.000Z</time>
      </trkpt>
      <trkpt lat="44.07981" lon="5.17292">
        <ele>423.4</ele>
        <time>2012-09-15T10:00:32.000Z</time>
      </trkpt>
      <trkpt lat="44.07977" lon="5.17292">
        <ele>424</ele>
        <time>2012-09-15T10:00:33.000Z</time>
      </trkpt>
      <trkpt lat="44.07974" lon="5.17294">
        <ele>424.1</ele>
        <time>2012-09-15T10:00:34.000Z</time>
      </trkpt>
      <trkpt lat="44.0797" lon="5.17298">
        <ele>424</ele>
        <time>2012-09-15T10:00:35.000Z</time>
      </trkpt>
      <trkpt lat="44.07967" lon="5.173">
        <ele>424.4</ele>
        <time>2012-09-15T10:00:36.000Z</time>
      </trkpt>
      <trkpt lat="44.07964" lon="5.17296">
        <ele>425.7</ele>
        <time>2012-09-15T10:00:37.000Z</time>
      </trkpt>
      <trkpt lat="44.07961" lon="5.17295">
        <ele>426.5</ele>
        <time>2012-09-15T10:00:38.000Z</time>
      </trkpt>
      <trkpt lat="44.07957" lon="5.17293">
        <ele>427.4</ele>
        <time>2012-09-15T10:00:39.000Z</time>
      </trkpt>
      <trkpt lat="44.07954" lon="5.17293">
        <ele>427.7</ele>
        <time>2012-09-15T10:00:40.000Z</time>
      </trkpt>
      <trkpt lat="44.0795" lon="5.17293">
        <ele>427.9</ele>
        <time>2012-09-15T10:00:41.000Z</time>
      </trkpt>
      <trkpt lat="44.07947" lon="5.17292">
        <ele>428.1</ele>
        <time>2012-09-15T10:00:42.000Z</time>
      </trkpt>
      <trkpt lat="44.07944" lon="5.17293">
        <ele>428.3</ele>
        <time>2012-09-15T10:00:43.000Z</time>
      </trkpt>
      <trkpt lat="44.07941" lon="5.17295">
        <ele>428</ele>
        <time>2012-09-15T10:00:44.000Z</time>
      </trkpt>
      <trkpt lat="44.07937" lon="5.17298">
        <ele>428</ele>
        <time>2012-09-15T10:00:45.000Z</time>
      </trkpt>
      <trkpt lat="44.0793" lon="5.17301">
        <ele>428.1</ele>
        <time>2012-09-15T10:00:47.000Z</time>
      </trkpt>
      <trkpt lat="44.07926" lon="5.17304">
        <ele>427.8</ele>
        <time>2012-09-15T10:00:48.000Z</time>
      </trkpt>
      <trkpt lat="44.07923" lon="5.17305">
        <ele>427.7</ele>
        <time>2012-09-15T10:00:49.000Z</time>
      </trkpt>
      <trkpt lat="44.0792" lon="5.17306">
        <ele>427.9</ele>
        <time>2012-09-15T10:00:50.000Z</time>
      </trkpt>
      <trkpt lat="44.07913" lon="5.17306">
        <ele>427</ele>
        <time>2012-09-15T10:00:52.000Z</time>
      </trkpt>
      <trkpt lat="44.0791" lon="5.17307">
        <ele>426.9</ele>
        <time>2012-09-15T10:00:53.000Z</time>
      </trkpt>
      <trkpt lat="44.07906" lon="5.17309">
        <ele>426.8</ele>
        <time>2012-09-15T10:00:54.000Z</time>
      </trkpt>
      <trkpt lat="44.07902" lon="5.17311">
        <ele>426.5</ele>
        <time>2012-09-15T10:00:55.000Z</time>
      </trkpt>
      <trkpt lat="44.07899" lon="5.17313">
        <ele>426.4</ele>
        <time>2012-09-15T10:00:56.000Z</time>
      </trkpt>
      <trkpt lat="44.07895" lon="5.17317">
        <ele>426</ele>
        <time>2012-09-15T10:00:57.000Z</time>
      </trkpt>
      <trkpt lat="44.07891" lon="5.17319">
        <ele>425.9</ele>
        <time>2012-09-15T10:00:58.000Z</time>
      </trkpt>
      <trkpt lat="44.07888" lon="5.17318">
        <ele>424.2</ele>
        <time>2012-09-15T10:01:00.000Z</time>
      </trkpt>
      <trkpt lat="44.07884" lon="5.1732">
        <ele>423.5</ele>
        <time>2012-09-15T10:01:01.000Z</time>
      </trkpt>
      <trkpt lat="44.0788" lon="5.17322">
        <ele>423</ele>
        <time>2012-09-15T10:01:03.000Z</time>
      </trkpt>
      <trkpt lat="44.07877" lon="5.17324">
        <ele>423.1</ele>
        <time>2012-09-15T10:01:04.000Z</time>
      </trkpt>
      <trkpt lat="44.07872" lon="5.17326">
        <ele>422.2</ele>
        <time>2012-09-15T10:01:05.000Z</time>
      </trkpt>
      <trkpt lat="44.07869" lon="5.17328">
        <ele>420.3</ele>
        <time>2012-09-15T10:01:06.000Z</time>
      </trkpt>
      <trkpt lat="44.07866" lon="5.17329">
        <ele>418.3</ele>
        <time>2012-09-15T10:01:07.000Z</time>
      </trkpt>
      <trkpt lat="44.07862" lon="5.1733">
        <ele>417.1</ele>
        <time>2012-09-15T10:01:08.000Z</time>
      </trkpt>
      <trkpt lat="44.07858" lon="5.1733">
        <ele>416.2</ele>
        <time>2012-09-15T10:01:09.000Z</time>
      </trkpt>
      <trkpt lat="44.07854" lon="5.17331">
        <ele>415.8</ele>
        <time>2012-09-15T10:01:10.000Z</time>
      </trkpt>
      <trkpt lat="44.07852" lon="5.17332">
        <ele>415.6</ele>
        <time>2012-09-15T10:01:11.000Z</time>
      </trkpt>
      <trkpt lat="44.07847" lon="5.17332">
        <ele>414.6</ele>
        <time>2012-09-15T10:01:13.000Z</time>
      </trkpt>
      <trkpt lat="44.07842" lon="5.17332">
        <ele>413.3</ele>
        <time>2012-09-15T10:01:15.000Z</time>
      </trkpt>
      <trkpt lat="44.07838" lon="5.17331">
        <ele>412.8</ele>
        <time>2012-09-15T10:01:17.000Z</time>
      </trkpt>
      <trkpt lat="44.07834" lon="5.17331">
        <ele>411.6</ele>
        <time>2012-09-15T10:01:19.000Z</time>
      </trkpt>
      <trkpt lat="44.0783" lon="5.17329">
        <ele>410.5</ele>
        <time>2012-09-15T10:01:21.000Z</time>
      </trkpt>
      <trkpt lat="44.07827" lon="5.17327">
        <ele>409.2</ele>
        <time>2012-09-15T10:01:23.000Z</time>
      </trkpt>
      <trkpt lat="44.07824" lon="5.17324">
        <ele>407.5</ele>
        <time>2012-09-15T10:01:25.000Z</time>
      </trkpt>
      <trkpt lat="44.0782" lon="5.1732">
        <ele>405.5</ele>
        <time>2012-09-15T10:01:27.000Z</time>
      </trkpt>
      <trkpt lat="44.07817" lon="5.17316">
        <ele>403.9</ele>
        <time>2012-09-15T10:01:29.000Z</time>
      </trkpt>
      <trkpt lat="44.07814" lon="5.17311">
        <ele>402.4</ele>
        <time>2012-09-15T10:01:31.000Z</time>
      </trkpt>
      <trkpt lat="44.0781" lon="5.17306">
        <ele>400.8</ele>
        <time>2012-09-15T10:01:33.000Z</time>
      </trkpt>
      <trkpt lat="44.07807" lon="5.17301">
        <ele>398.7</ele>
        <time>2012-09-15T10:01:35.000Z</time>
      </trkpt>
      <trkpt lat="44.07805" lon="5.17298">
        <ele>397.9</ele>
        <time>2012-09-15T10:01:36.000Z</time>
      </trkpt>
      <trkpt lat="44.07803" lon="5.17292">
        <ele>396.7</ele>
        <time>2012-09-15T10:01:38.000Z</time>
      </trkpt>
      <trkpt lat="44.07803" lon="5.17288">
        <ele>396.2</ele>
        <time>2012-09-15T10:01:39.000Z</time>
      </trkpt>
      <trkpt lat="44.07803" lon="5.17284">
        <ele>395.5</ele>
        <time>2012-09-15T10:01:40.000Z</time>
      </trkpt>
      <trkpt lat="44.07804" lon="5.1728">
        <ele>395.3</ele>
        <time>2012-09-15T10:01:41.000Z</time>
      </trkpt>
      <trkpt lat="44.07804" lon="5.17274">
        <ele>394.8</ele>
        <time>2012-09-15T10:01:42.000Z</time>
      </trkpt>
      <trkpt lat="44.07805" lon="5.17268">
        <ele>394.6</ele>
        <time>2012-09-15T10:01:43.000Z</time>
      </trkpt>
      <trkpt lat="44.07805" lon="5.17261">
        <ele>394.3</ele>
        <time>2012-09-15T10:01:44.000Z</time>
      </trkpt>
      <trkpt lat="44.07806" lon="5.17254">
        <ele>394.1</ele>
        <time>2012-09-15T10:01:45.000Z</time>
      </trkpt>
      <trkpt lat="44.07807" lon="5.17248">
        <ele>393.9</ele>
        <time>2012-09-15T10:01:46.000Z</time>
      </trkpt>
      <trkpt lat="44.07809" lon="5.17243">
        <ele>393.8</ele>
        <time>2012-09-15T10:01:47.000Z</time>
      </trkpt>
      <trkpt lat="44.07811" lon="5.17238">
        <ele>393.7</ele>
        <time>2012-09-15T10:01:48.000Z</time>
      </trkpt>
      <trkpt lat="44.07814" lon="5.17231">
        <ele>393.7</ele>
        <time>2012-09-15T10:01:49.000Z</time>
      </trkpt>
      <trkpt lat="44.07818" lon="5.17226">
        <ele>393.7</ele>
        <time>2012-09-15T10:01:50.000Z</time>
      </trkpt>
      <trkpt lat="44.0782" lon="5.17221">
        <ele>393.6</ele>
        <time>2012-09-15T10:01:51.000Z</time>
      </trkpt>
      <trkpt lat="44.07815" lon="5.17216">
        <ele>392.5</ele>
        <time>2012-09-15T10:01:52.000Z</time>
      </trkpt>
      <trkpt lat="44.07816" lon="5.17209">
        <ele>392.4</ele>
        <time>2012-09-15T10:01:53.000Z</time>
      </trkpt>
      <trkpt lat="44.07811" lon="5.17204">
        <ele>392.3</ele>
        <time>2012-09-15T10:01:54.000Z</time>
      </trkpt>
      <trkpt lat="44.07808" lon="5.17201">
        <ele>391.7</ele>
        <time>2012-09-15T10:01:55.000Z</time>
      </trkpt>
      <trkpt lat="44.07806" lon="5.17198">
        <ele>391.1</ele>
        <time>2012-09-15T10:01:56.000Z</time>
      </trkpt>
      <trkpt lat="44.07803" lon="5.17194">
        <ele>389.9</ele>
        <time>2012-09-15T10:01:58.000Z</time>
      </trkpt>
      <trkpt lat="44.078" lon="5.17192">
        <ele>389.5</ele>
        <time>2012-09-15T10:01:59.000Z</time>
      </trkpt>
      <trkpt lat="44.07796" lon="5.17191">
        <ele>388.6</ele>
        <time>2012-09-15T10:02:01.000Z</time>
      </trkpt>
      <trkpt lat="44.07791" lon="5.17195">
        <ele>387.2</ele>
        <time>2012-09-15T10:02:03.000Z</time>
      </trkpt>
      <trkpt lat="44.07788" lon="5.172">
        <ele>386.8</ele>
        <time>2012-09-15T10:02:04.000Z</time>
      </trkpt>
      <trkpt lat="44.07785" lon="5.17206">
        <ele>386.9</ele>
        <time>2012-09-15T10:02:05.000Z</time>
      </trkpt>
      <trkpt lat="44.07783" lon="5.17211">
        <ele>386.8</ele>
        <time>2012-09-15T10:02:06.000Z</time>
      </trkpt>
      <trkpt lat="44.07782" lon="5.17218">
        <ele>387.2</ele>
        <time>2012-09-15T10:02:07.000Z</time>
      </trkpt>
      <trkpt lat="44.07781" lon="5.17222">
        <ele>387.3</ele>
        <time>2012-09-15T10:02:08.000Z</time>
      </trkpt>
      <trkpt lat="44.07778" lon="5.17229">
        <ele>387.8</ele>
        <time>2012-09-15T10:02:10.000Z</time>
      </trkpt>
      <trkpt lat="44.07775" lon="5.17234">
        <ele>387.9</ele>
        <time>2012-09-15T10:02:11.000Z</time>
      </trkpt>
      <trkpt lat="44.07773" lon="5.1724">
        <ele>388.4</ele>
        <time>2012-09-15T10:02:12.000Z</time>
      </trkpt>
      <trkpt lat="44.07771" lon="5.17246">
        <ele>388.6</ele>
        <time>2012-09-15T10:02:13.000Z</time>
      </trkpt>
      <trkpt lat="44.0777" lon="5.17259">
        <ele>386.5</ele>
        <time>2012-09-15T10:02:14.000Z</time>
      </trkpt>
      <trkpt lat="44.07768" lon="5.17266">
        <ele>386.3</ele>
        <time>2012-09-15T10:02:15.000Z</time>
      </trkpt>
      <trkpt lat="44.07766" lon="5.1727">
        <ele>386.1</ele>
        <time>2012-09-15T10:02:16.000Z</time>
      </trkpt>
      <trkpt lat="44.07764" lon="5.17277">
        <ele>385.6</ele>
        <time>2012-09-15T10:02:17.000Z</time>
      </trkpt>
      <trkpt lat="44.07761" lon="5.17284">
        <ele>384.6</ele>
        <time>2012-09-15T10:02:18.000Z</time>
      </trkpt>
      <trkpt lat="44.07758" lon="5.17291">
        <ele>384.1</ele>
        <time>2012-09-15T10:02:19.000Z</time>
      </trkpt>
      <trkpt lat="44.07756" lon="5.17298">
        <ele>384.8</ele>
        <time>2012-09-15T10:02:20.000Z</time>
      </trkpt>
      <trkpt lat="44.07754" lon="5.17303">
        <ele>385.2</ele>
        <time>2012-09-15T10:02:21.000Z</time>
      </trkpt>
      <trkpt lat="44.07751" lon="5.17307">
        <ele>385.6</ele>
        <time>2012-09-15T10:02:22.000Z</time>
      </trkpt>
      <trkpt lat="44.07749" lon="5.17311">
        <ele>385.9</ele>
        <time>2012-09-15T10:02:23.000Z</time>
      </trkpt>
      <trkpt lat="44.07744" lon="5.17311">
        <ele>387.3</ele>
        <time>2012-09-15T10:02:25.000Z</time>
      </trkpt>
      <trkpt lat="44.07741" lon="5.17311">
        <ele>388.6</ele>
        <time>2012-09-15T10:02:28.000Z</time>
      </trkpt>
      <trkpt lat="44.07738" lon="5.17309">
        <ele>389.2</ele>
        <time>2012-09-15T10:02:30.000Z</time>
      </trkpt>
      <trkpt lat="44.07736" lon="5.17306">
        <ele>389.7</ele>
        <time>2012-09-15T10:02:32.000Z</time>
      </trkpt>
      <trkpt lat="44.07733" lon="5.17304">
        <ele>389.7</ele>
        <time>2012-09-15T10:02:34.000Z</time>
      </trkpt>
      <trkpt lat="44.0773" lon="5.17302">
        <ele>390.4</ele>
        <time>2012-09-15T10:02:36.000Z</time>
      </trkpt>
      <trkpt lat="44.07728" lon="5.173">
        <ele>390.9</ele>
        <time>2012-09-15T10:02:38.000Z</time>
      </trkpt>
      <trkpt lat="44.07725" lon="5.17298">
        <ele>391.1</ele>
        <time>2012-09-15T10:02:40.000Z</time>
      </trkpt>
      <trkpt lat="44.07722" lon="5.17294">
        <ele>391.8</ele>
        <time>2012-09-15T10:02:42.000Z</time>
      </trkpt>
      <trkpt lat="44.0772" lon="5.17291">
        <ele>391.8</ele>
        <time>2012-09-15T10:02:44.000Z</time>
      </trkpt>
      <trkpt lat="44.07718" lon="5.17287">
        <ele>392.6</ele>
        <time>2012-09-15T10:02:46.000Z</time>
      </trkpt>
      <trkpt lat="44.07719" lon="5.17292">
        <ele>399.2</ele>
        <time>2012-09-15T10:02:50.000Z</time>
      </trkpt>
      <trkpt lat="44.0772" lon="5.17296">
        <ele>402</ele>
        <time>2012-09-15T10:02:51.000Z</time>
      </trkpt>
      <trkpt lat="44.0772" lon="5.17289">
        <ele>413</ele>
        <time>2012-09-15T10:02:55.000Z</time>
      </trkpt>
      <trkpt lat="44.07719" lon="5.17285">
        <ele>414.6</ele>
        <time>2012-09-15T10:02:56.000Z</time>
      </trkpt>
      <trkpt lat="44.07718" lon="5.1728">
        <ele>414.2</ele>
        <time>2012-09-15T10:02:57.000Z</time>
      </trkpt>
      <trkpt lat="44.07718" lon="5.17273">
        <ele>413.1</ele>
        <time>2012-09-15T10:02:58.000Z</time>
      </trkpt>
      <trkpt lat="44.07716" lon="5.17267">
        <ele>413</ele>
        <time>2012-09-15T10:03:00.000Z</time>
      </trkpt>
      <trkpt lat="44.07715" lon="5.17262">
        <ele>413.3</ele>
        <time>2012-09-15T10:03:02.000Z</time>
      </trkpt>
      <trkpt lat="44.07715" lon="5.17258">
        <ele>413.1</ele>
        <time>2012-09-15T10:03:04.000Z</time>
      </trkpt>
      <trkpt lat="44.07711" lon="5.17255">
        <ele>412.8</ele>
        <time>2012-09-15T10:03:07.000Z</time>
      </trkpt>
      <trkpt lat="44.0771" lon="5.17252">
        <ele>411.8</ele>
        <time>2012-09-15T10:03:11.000Z</time>
      </trkpt>
      <trkpt lat="44.07707" lon="5.17253">
        <ele>410.6</ele>
        <time>2012-09-15T10:03:21.000Z</time>
      </trkpt>
      <trkpt lat="44.07704" lon="5.17251">
        <ele>410.6</ele>
        <time>2012-09-15T10:03:25.000Z</time>
      </trkpt>
      <trkpt lat="44.07701" lon="5.1725">
        <ele>408.6</ele>
        <time>2012-09-15T10:03:28.000Z</time>
      </trkpt>
      <trkpt lat="44.07699" lon="5.17251">
        <ele>407.9</ele>
        <time>2012-09-15T10:03:33.000Z</time>
      </trkpt>
      <trkpt lat="44.07695" lon="5.17252">
        <ele>406.6</ele>
        <time>2012-09-15T10:03:47.000Z</time>
      </trkpt>
      <trkpt lat="44.07693" lon="5.17251">
        <ele>406.3</ele>
        <time>2012-09-15T10:03:52.000Z</time>
      </trkpt>
      <trkpt lat="44.07689" lon="5.17248">
        <ele>406.1</ele>
        <time>2012-09-15T10:03:54.000Z</time>
      </trkpt>
      <trkpt lat="44.07687" lon="5.17245">
        <ele>406.6</ele>
        <time>2012-09-15T10:03:56.000Z</time>
      </trkpt>
      <trkpt lat="44.07684" lon="5.17242">
        <ele>406.4</ele>
        <time>2012-09-15T10:03:58.000Z</time>
      </trkpt>
      <trkpt lat="44.07682" lon="5.17238">
        <ele>406.3</ele>
        <time>2012-09-15T10:04:00.000Z</time>
      </trkpt>
      <trkpt lat="44.0768" lon="5.17235">
        <ele>406.7</ele>
        <time>2012-09-15T10:04:02.000Z</time>
      </trkpt>
      <trkpt lat="44.07677" lon="5.17231">
        <ele>406.4</ele>
        <time>2012-09-15T10:04:04.000Z</time>
      </trkpt>
      <trkpt lat="44.07674" lon="5.17227">
        <ele>407</ele>
        <time>2012-09-15T10:04:07.000Z</time>
      </trkpt>
      <trkpt lat="44.07671" lon="5.17223">
        <ele>406.7</ele>
        <time>2012-09-15T10:04:09.000Z</time>
      </trkpt>
      <trkpt lat="44.07669" lon="5.1722">
        <ele>406.8</ele>
        <time>2012-09-15T10:04:11.000Z</time>
      </trkpt>
      <trkpt lat="44.07666" lon="5.17216">
        <ele>407</ele>
        <time>2012-09-15T10:04:13.000Z</time>
      </trkpt>
      <trkpt lat="44.07664" lon="5.17213">
        <ele>406.4</ele>
        <time>2012-09-15T10:04:15.000Z</time>
      </trkpt>
      <trkpt lat="44.07661" lon="5.1721">
        <ele>405.8</ele>
        <time>2012-09-15T10:04:17.000Z</time>
      </trkpt>
      <trkpt lat="44.07658" lon="5.17206">
        <ele>406.2</ele>
        <time>2012-09-15T10:04:19.000Z</time>
      </trkpt>
      <trkpt lat="44.07656" lon="5.17203">
        <ele>406.2</ele>
        <time>2012-09-15T10:04:21.000Z</time>
      </trkpt>
      <trkpt lat="44.07653" lon="5.17199">
        <ele>405.6</ele>
        <time>2012-09-15T10:04:23.000Z</time>
      </trkpt>
      <trkpt lat="44.0765" lon="5.17195">
        <ele>405.2</ele>
        <time>2012-09-15T10:04:25.000Z</time>
      </trkpt>
      <trkpt lat="44.07648" lon="5.17193">
        <ele>405</ele>
        <time>2012-09-15T10:04:27.000Z</time>
      </trkpt>
      <trkpt lat="44.07644" lon="5.17192">
        <ele>404.8</ele>
        <time>2012-09-15T10:04:29.000Z</time>
      </trkpt>
      <trkpt lat="44.07641" lon="5.17194">
        <ele>405.3</ele>
        <time>2012-09-15T10:04:31.000Z</time>
      </trkpt>
      <trkpt lat="44.07637" lon="5.17193">
        <ele>407.8</ele>
        <time>2012-09-15T10:04:34.000Z</time>
      </trkpt>
      <trkpt lat="44.07635" lon="5.17197">
        <ele>406.7</ele>
        <time>2012-09-15T10:04:36.000Z</time>
      </trkpt>
      <trkpt lat="44.07634" lon="5.17201">
        <ele>406.7</ele>
        <time>2012-09-15T10:04:38.000Z</time>
      </trkpt>
      <trkpt lat="44.07634" lon="5.17206">
        <ele>406.7</ele>
        <time>2012-09-15T10:04:40.000Z</time>
      </trkpt>
      <trkpt lat="44.07635" lon="5.1721">
        <ele>406.6</ele>
        <time>2012-09-15T10:04:42.000Z</time>
      </trkpt>
      <trkpt lat="44.07638" lon="5.17214">
        <ele>406.8</ele>
        <time>2012-09-15T10:04:44.000Z</time>
      </trkpt>
      <trkpt lat="44.07642" lon="5.17219">
        <ele>405.8</ele>
        <time>2012-09-15T10:04:46.000Z</time>
      </trkpt>
      <trkpt lat="44.07646" lon="5.17225">
        <ele>404.7</ele>
        <time>2012-09-15T10:04:48.000Z</time>
      </trkpt>
      <trkpt lat="44.07648" lon="5.17229">
        <ele>404.8</ele>
        <time>2012-09-15T10:04:49.000Z</time>
      </trkpt>
      <trkpt lat="44.07652" lon="5.17233">
        <ele>404.9</ele>
        <time>2012-09-15T10:04:51.000Z</time>
      </trkpt>
      <trkpt lat="44.07649" lon="5.17238">
        <ele>404.7</ele>
        <time>2012-09-15T10:04:52.000Z</time>
      </trkpt>
      <trkpt lat="44.07649" lon="5.17242">
        <ele>404.8</ele>
        <time>2012-09-15T10:04:55.000Z</time>
      </trkpt>
      <trkpt lat="44.07649" lon="5.17246">
        <ele>404.8</ele>
        <time>2012-09-15T10:04:58.000Z</time>
      </trkpt>
      <trkpt lat="44.07649" lon="5.1725">
        <ele>405.3</ele>
        <time>2012-09-15T10:05:05.000Z</time>
      </trkpt>
      <trkpt lat="44.07644" lon="5.1725">
        <ele>410.9</ele>
        <time>2012-09-15T10:05:37.000Z</time>
      </trkpt>
      <trkpt lat="44.07641" lon="5.17249">
        <ele>411</ele>
        <time>2012-09-15T10:05:39.000Z</time>
      </trkpt>
      <trkpt lat="44.07638" lon="5.17248">
        <ele>410.5</ele>
        <time>2012-09-15T10:05:41.000Z</time>
      </trkpt>
      <trkpt lat="44.07636" lon="5.17244">
        <ele>411.6</ele>
        <time>2012-09-15T10:05:43.000Z</time>
      </trkpt>
      <trkpt lat="44.07633" lon="5.17241">
        <ele>412.5</ele>
        <time>2012-09-15T10:05:45.000Z</time>
      </trkpt>
      <trkpt lat="44.07631" lon="5.17238">
        <ele>413.4</ele>
        <time>2012-09-15T10:05:47.000Z</time>
      </trkpt>
      <trkpt lat="44.07628" lon="5.17235">
        <ele>414.3</ele>
        <time>2012-09-15T10:05:50.000Z</time>
      </trkpt>
      <trkpt lat="44.07624" lon="5.17237">
        <ele>416</ele>
        <time>2012-09-15T10:05:53.000Z</time>
      </trkpt>
      <trkpt lat="44.0762" lon="5.17239">
        <ele>415.5</ele>
        <time>2012-09-15T10:05:55.000Z</time>
      </trkpt>
      <trkpt lat="44.0762" lon="5.17244">
        <ele>416.6</ele>
        <time>2012-09-15T10:05:57.000Z</time>
      </trkpt>
      <trkpt lat="44.07619" lon="5.17247">
        <ele>419.6</ele>
        <time>2012-09-15T10:05:59.000Z</time>
      </trkpt>
      <trkpt lat="44.07621" lon="5.17251">
        <ele>421.3</ele>
        <time>2012-09-15T10:06:02.000Z</time>
      </trkpt>
      <trkpt lat="44.07622" lon="5.17256">
        <ele>421.8</ele>
        <time>2012-09-15T10:06:04.000Z</time>
      </trkpt>
      <trkpt lat="44.07622" lon="5.17261">
        <ele>422.1</ele>
        <time>2012-09-15T10:06:07.000Z</time>
      </trkpt>
      <trkpt lat="44.0762" lon="5.17263">
        <ele>422.7</ele>
        <time>2012-09-15T10:06:11.000Z</time>
      </trkpt>
      <trkpt lat="44.07618" lon="5.17259">
        <ele>423</ele>
        <time>2012-09-15T10:06:13.000Z</time>
      </trkpt>
      <trkpt lat="44.07615" lon="5.17257">
        <ele>423.2</ele>
        <time>2012-09-15T10:06:17.000Z</time>
      </trkpt>
      <trkpt lat="44.07613" lon="5.17253">
        <ele>423.1</ele>
        <time>2012-09-15T10:06:19.000Z</time>
      </trkpt>
      <trkpt lat="44.07611" lon="5.17251">
        <ele>424.3</ele>
        <time>2012-09-15T10:06:21.000Z</time>
      </trkpt>
      <trkpt lat="44.0761" lon="5.17247">
        <ele>424.8</ele>
        <time>2012-09-15T10:06:23.000Z</time>
      </trkpt>
      <trkpt lat="44.07606" lon="5.17243">
        <ele>424.9</ele>
        <time>2012-09-15T10:06:25.000Z</time>
      </trkpt>
      <trkpt lat="44.07603" lon="5.1724">
        <ele>425.3</ele>
        <time>2012-09-15T10:06:27.000Z</time>
      </trkpt>
      <trkpt lat="44.07601" lon="5.17235">
        <ele>425</ele>
        <time>2012-09-15T10:06:29.000Z</time>
      </trkpt>
      <trkpt lat="44.07599" lon="5.17237">
        <ele>427.3</ele>
        <time>2012-09-15T10:06:32.000Z</time>
      </trkpt>
      <trkpt lat="44.07598" lon="5.17242">
        <ele>426.7</ele>
        <time>2012-09-15T10:06:35.000Z</time>
      </trkpt>
      <trkpt lat="44.07601" lon="5.17246">
        <ele>425.5</ele>
        <time>2012-09-15T10:06:38.000Z</time>
      </trkpt>
      <trkpt lat="44.076" lon="5.17251">
        <ele>426.1</ele>
        <time>2012-09-15T10:06:41.000Z</time>
      </trkpt>
      <trkpt lat="44.07599" lon="5.17256">
        <ele>426.6</ele>
        <time>2012-09-15T10:06:43.000Z</time>
      </trkpt>
      <trkpt lat="44.07599" lon="5.1726">
        <ele>426.1</ele>
        <time>2012-09-15T10:06:45.000Z</time>
      </trkpt>
      <trkpt lat="44.07598" lon="5.17264">
        <ele>426.6</ele>
        <time>2012-09-15T10:06:47.000Z</time>
      </trkpt>
      <trkpt lat="44.07596" lon="5.17267">
        <ele>427.5</ele>
        <time>2012-09-15T10:06:49.000Z</time>
      </trkpt>
      <trkpt lat="44.07593" lon="5.17267">
        <ele>429.1</ele>
        <time>2012-09-15T10:06:51.000Z</time>
      </trkpt>
      <trkpt lat="44.07589" lon="5.17267">
        <ele>429.6</ele>
        <time>2012-09-15T10:06:53.000Z</time>
      </trkpt>
      <trkpt lat="44.07586" lon="5.17267">
        <ele>430.7</ele>
        <time>2012-09-15T10:06:56.000Z</time>
      </trkpt>
      <trkpt lat="44.07583" lon="5.17267">
        <ele>431.2</ele>
        <time>2012-09-15T10:06:58.000Z</time>
      </trkpt>
      <trkpt lat="44.07582" lon="5.17264">
        <ele>438.7</ele>
        <time>2012-09-15T10:07:01.000Z</time>
      </trkpt>
      <trkpt lat="44.07579" lon="5.17266">
        <ele>442.8</ele>
        <time>2012-09-15T10:07:04.000Z</time>
      </trkpt>
      <trkpt lat="44.07576" lon="5.17269">
        <ele>443.4</ele>
        <time>2012-09-15T10:07:06.000Z</time>
      </trkpt>
      <trkpt lat="44.07574" lon="5.17273">
        <ele>443.2</ele>
        <time>2012-09-15T10:07:08.000Z</time>
      </trkpt>
      <trkpt lat="44.07572" lon="5.17276">
        <ele>442.5</ele>
        <time>2012-09-15T10:07:11.000Z</time>
      </trkpt>
      <trkpt lat="44.07569" lon="5.17277">
        <ele>436.3</ele>
        <time>2012-09-15T10:07:49.000Z</time>
      </trkpt>
      <trkpt lat="44.07566" lon="5.17276">
        <ele>433.8</ele>
        <time>2012-09-15T10:08:59.000Z</time>
      </trkpt>
      <trkpt lat="44.07563" lon="5.17273">
        <ele>433.2</ele>
        <time>2012-09-15T10:09:00.000Z</time>
      </trkpt>
      <trkpt lat="44.07558" lon="5.17271">
        <ele>431.1</ele>
        <time>2012-09-15T10:09:01.000Z</time>
      </trkpt>
      <trkpt lat="44.07552" lon="5.1727">
        <ele>430.2</ele>
        <time>2012-09-15T10:09:03.000Z</time>
      </trkpt>
      <trkpt lat="44.07549" lon="5.1727">
        <ele>429.9</ele>
        <time>2012-09-15T10:09:04.000Z</time>
      </trkpt>
      <trkpt lat="44.07546" lon="5.17273">
        <ele>429.1</ele>
        <time>2012-09-15T10:09:06.000Z</time>
      </trkpt>
      <trkpt lat="44.07545" lon="5.17277">
        <ele>427.9</ele>
        <time>2012-09-15T10:09:08.000Z</time>
      </trkpt>
      <trkpt lat="44.07547" lon="5.1728">
        <ele>428.6</ele>
        <time>2012-09-15T10:09:11.000Z</time>
      </trkpt>
      <trkpt lat="44.07547" lon="5.17284">
        <ele>429.7</ele>
        <time>2012-09-15T10:09:14.000Z</time>
      </trkpt>
      <trkpt lat="44.07551" lon="5.17287">
        <ele>429.6</ele>
        <time>2012-09-15T10:09:16.000Z</time>
      </trkpt>
      <trkpt lat="44.07553" lon="5.1729">
        <ele>430.4</ele>
        <time>2012-09-15T10:09:18.000Z</time>
      </trkpt>
      <trkpt lat="44.07557" lon="5.17294">
        <ele>429.1</ele>
        <time>2012-09-15T10:09:20.000Z</time>
      </trkpt>
      <trkpt lat="44.07559" lon="5.17299">
        <ele>428</ele>
        <time>2012-09-15T10:09:22.000Z</time>
      </trkpt>
      <trkpt lat="44.07557" lon="5.17305">
        <ele>428.3</ele>
        <time>2012-09-15T10:09:23.000Z</time>
      </trkpt>
      <trkpt lat="44.0756" lon="5.17313">
        <ele>426.6</ele>
        <time>2012-09-15T10:09:25.000Z</time>
      </trkpt>
      <trkpt lat="44.07561" lon="5.17318">
        <ele>427.4</ele>
        <time>2012-09-15T10:09:26.000Z</time>
      </trkpt>
      <trkpt lat="44.07564" lon="5.17323">
        <ele>425.5</ele>
        <time>2012-09-15T10:09:28.000Z</time>
      </trkpt>
      <trkpt lat="44.07562" lon="5.17329">
        <ele>425.5</ele>
        <time>2012-09-15T10:09:30.000Z</time>
      </trkpt>
      <trkpt lat="44.0756" lon="5.17334">
        <ele>425.6</ele>
        <time>2012-09-15T10:09:32.000Z</time>
      </trkpt>
      <trkpt lat="44.07556" lon="5.17337">
        <ele>425.2</ele>
        <time>2012-09-15T10:09:34.000Z</time>
      </trkpt>
      <trkpt lat="44.07551" lon="5.1734">
        <ele>425.6</ele>
        <time>2012-09-15T10:09:36.000Z</time>
      </trkpt>
      <trkpt lat="44.07547" lon="5.17342">
        <ele>426.3</ele>
        <time>2012-09-15T10:09:38.000Z</time>
      </trkpt>
      <trkpt lat="44.07543" lon="5.17344">
        <ele>426.2</ele>
        <time>2012-09-15T10:09:40.000Z</time>
      </trkpt>
      <trkpt lat="44.0754" lon="5.17345">
        <ele>426.2</ele>
        <time>2012-09-15T10:09:42.000Z</time>
      </trkpt>
      <trkpt lat="44.07537" lon="5.17344">
        <ele>425.6</ele>
        <time>2012-09-15T10:09:43.000Z</time>
      </trkpt>
      <trkpt lat="44.07532" lon="5.17347">
        <ele>424.6</ele>
        <time>2012-09-15T10:09:44.000Z</time>
      </trkpt>
      <trkpt lat="44.07529" lon="5.17351">
        <ele>425</ele>
        <time>2012-09-15T10:09:46.000Z</time>
      </trkpt>
      <trkpt lat="44.07526" lon="5.17352">
        <ele>424.9</ele>
        <time>2012-09-15T10:09:47.000Z</time>
      </trkpt>
      <trkpt lat="44.07522" lon="5.17355">
        <ele>424.7</ele>
        <time>2012-09-15T10:09:48.000Z</time>
      </trkpt>
      <trkpt lat="44.07517" lon="5.17358">
        <ele>424.5</ele>
        <time>2012-09-15T10:09:50.000Z</time>
      </trkpt>
      <trkpt lat="44.07512" lon="5.17361">
        <ele>424.4</ele>
        <time>2012-09-15T10:09:52.000Z</time>
      </trkpt>
      <trkpt lat="44.07509" lon="5.17364">
        <ele>423.9</ele>
        <time>2012-09-15T10:09:53.000Z</time>
      </trkpt>
      <trkpt lat="44.07506" lon="5.17369">
        <ele>421.5</ele>
        <time>2012-09-15T10:09:54.000Z</time>
      </trkpt>
      <trkpt lat="44.07503" lon="5.17374">
        <ele>419.4</ele>
        <time>2012-09-15T10:09:55.000Z</time>
      </trkpt>
      <trkpt lat="44.07502" lon="5.1738">
        <ele>418.3</ele>
        <time>2012-09-15T10:09:56.000Z</time>
      </trkpt>
      <trkpt lat="44.075" lon="5.17384">
        <ele>417.7</ele>
        <time>2012-09-15T10:09:57.000Z</time>
      </trkpt>
      <trkpt lat="44.07497" lon="5.17389">
        <ele>417.7</ele>
        <time>2012-09-15T10:09:58.000Z</time>
      </trkpt>
      <trkpt lat="44.07495" lon="5.17392">
        <ele>417.5</ele>
        <time>2012-09-15T10:09:59.000Z</time>
      </trkpt>
      <trkpt lat="44.07492" lon="5.17394">
        <ele>418.2</ele>
        <time>2012-09-15T10:10:00.000Z</time>
      </trkpt>
      <trkpt lat="44.07489" lon="5.17395">
        <ele>418.2</ele>
        <time>2012-09-15T10:10:01.000Z</time>
      </trkpt>
      <trkpt lat="44.07486" lon="5.17397">
        <ele>417.9</ele>
        <time>2012-09-15T10:10:02.000Z</time>
      </trkpt>
      <trkpt lat="44.0748" lon="5.17398">
        <ele>417.2</ele>
        <time>2012-09-15T10:10:03.000Z</time>
      </trkpt>
      <trkpt lat="44.07477" lon="5.174">
        <ele>416.9</ele>
        <time>2012-09-15T10:10:04.000Z</time>
      </trkpt>
      <trkpt lat="44.07473" lon="5.17402">
        <ele>416.7</ele>
        <time>2012-09-15T10:10:05.000Z</time>
      </trkpt>
      <trkpt lat="44.0747" lon="5.17404">
        <ele>416.8</ele>
        <time>2012-09-15T10:10:06.000Z</time>
      </trkpt>
      <trkpt lat="44.07466" lon="5.17408">
        <ele>417.5</ele>
        <time>2012-09-15T10:10:08.000Z</time>
      </trkpt>
      <trkpt lat="44.07464" lon="5.17411">
        <ele>417.2</ele>
        <time>2012-09-15T10:10:09.000Z</time>
      </trkpt>
      <trkpt lat="44.07461" lon="5.17413">
        <ele>417.1</ele>
        <time>2012-09-15T10:10:10.000Z</time>
      </trkpt>
      <trkpt lat="44.07458" lon="5.17415">
        <ele>417</ele>
        <time>2012-09-15T10:10:11.000Z</time>
      </trkpt>
      <trkpt lat="44.07455" lon="5.17417">
        <ele>417.1</ele>
        <time>2012-09-15T10:10:12.000Z</time>
      </trkpt>
      <trkpt lat="44.07452" lon="5.1742">
        <ele>416.9</ele>
        <time>2012-09-15T10:10:13.000Z</time>
      </trkpt>
      <trkpt lat="44.07449" lon="5.17422">
        <ele>416.9</ele>
        <time>2012-09-15T10:10:14.000Z</time>
      </trkpt>
      <trkpt lat="44.07444" lon="5.17424">
        <ele>416.8</ele>
        <time>2012-09-15T10:10:15.000Z</time>
      </trkpt>
      <trkpt lat="44.0744" lon="5.17425">
        <ele>416.9</ele>
        <time>2012-09-15T10:10:16.000Z</time>
      </trkpt>
      <trkpt lat="44.07433" lon="5.17427">
        <ele>414.5</ele>
        <time>2012-09-15T10:10:17.000Z</time>
      </trkpt>
      <trkpt lat="44.07429" lon="5.17428">
        <ele>414.3</ele>
        <time>2012-09-15T10:10:18.000Z</time>
      </trkpt>
      <trkpt lat="44.07425" lon="5.17431">
        <ele>414.1</ele>
        <time>2012-09-15T10:10:19.000Z</time>
      </trkpt>
      <trkpt lat="44.07421" lon="5.17432">
        <ele>413.8</ele>
        <time>2012-09-15T10:10:20.000Z</time>
      </trkpt>
      <trkpt lat="44.07418" lon="5.17434">
        <ele>413</ele>
        <time>2012-09-15T10:10:21.000Z</time>
      </trkpt>
      <trkpt lat="44.07418" lon="5.17429">
        <ele>412</ele>
        <time>2012-09-15T10:10:22.000Z</time>
      </trkpt>
      <trkpt lat="44.07415" lon="5.17426">
        <ele>411.5</ele>
        <time>2012-09-15T10:10:23.000Z</time>
      </trkpt>
      <trkpt lat="44.07411" lon="5.17422">
        <ele>409</ele>
        <time>2012-09-15T10:10:25.000Z</time>
      </trkpt>
      <trkpt lat="44.0741" lon="5.17419">
        <ele>408.9</ele>
        <time>2012-09-15T10:10:28.000Z</time>
      </trkpt>
      <trkpt lat="44.07415" lon="5.17417">
        <ele>407.9</ele>
        <time>2012-09-15T10:10:30.000Z</time>
      </trkpt>
      <trkpt lat="44.07417" lon="5.17413">
        <ele>406.5</ele>
        <time>2012-09-15T10:10:32.000Z</time>
      </trkpt>
      <trkpt lat="44.07421" lon="5.17408">
        <ele>406.7</ele>
        <time>2012-09-15T10:10:34.000Z</time>
      </trkpt>
      <trkpt lat="44.07424" lon="5.17403">
        <ele>406.9</ele>
        <time>2012-09-15T10:10:36.000Z</time>
      </trkpt>
      <trkpt lat="44.07427" lon="5.17398">
        <ele>406.9</ele>
        <time>2012-09-15T10:10:38.000Z</time>
      </trkpt>
      <trkpt lat="44.07429" lon="5.17393">
        <ele>407.2</ele>
        <time>2012-09-15T10:10:40.000Z</time>
      </trkpt>
      <trkpt lat="44.0743" lon="5.17383">
        <ele>405.6</ele>
        <time>2012-09-15T10:10:42.000Z</time>
      </trkpt>
      <trkpt lat="44.07431" lon="5.1738">
        <ele>406.1</ele>
        <time>2012-09-15T10:10:43.000Z</time>
      </trkpt>
      <trkpt lat="44.07431" lon="5.17374">
        <ele>405.4</ele>
        <time>2012-09-15T10:10:45.000Z</time>
      </trkpt>
      <trkpt lat="44.07431" lon="5.17367">
        <ele>405.2</ele>
        <time>2012-09-15T10:10:47.000Z</time>
      </trkpt>
      <trkpt lat="44.07432" lon="5.17363">
        <ele>404.9</ele>
        <time>2012-09-15T10:10:48.000Z</time>
      </trkpt>
      <trkpt lat="44.07432" lon="5.17359">
        <ele>406.2</ele>
        <time>2012-09-15T10:10:50.000Z</time>
      </trkpt>
      <trkpt lat="44.07432" lon="5.17352">
        <ele>407.2</ele>
        <time>2012-09-15T10:10:52.000Z</time>
      </trkpt>
      <trkpt lat="44.07431" lon="5.17346">
        <ele>407.6</ele>
        <time>2012-09-15T10:10:54.000Z</time>
      </trkpt>
      <trkpt lat="44.0743" lon="5.1734">
        <ele>407.5</ele>
        <time>2012-09-15T10:10:56.000Z</time>
      </trkpt>
      <trkpt lat="44.07428" lon="5.17334">
        <ele>407.7</ele>
        <time>2012-09-15T10:10:58.000Z</time>
      </trkpt>
      <trkpt lat="44.07428" lon="5.17328">
        <ele>408.3</ele>
        <time>2012-09-15T10:11:00.000Z</time>
      </trkpt>
      <trkpt lat="44.07429" lon="5.17322">
        <ele>409.2</ele>
        <time>2012-09-15T10:11:02.000Z</time>
      </trkpt>
      <trkpt lat="44.07429" lon="5.17318">
        <ele>410.8</ele>
        <time>2012-09-15T10:11:05.000Z</time>
      </trkpt>
      <trkpt lat="44.07431" lon="5.1732">
        <ele>413.5</ele>
        <time>2012-09-15T10:11:10.000Z</time>
      </trkpt>
      <trkpt lat="44.07434" lon="5.17316">
        <ele>412.9</ele>
        <time>2012-09-15T10:11:13.000Z</time>
      </trkpt>
      <trkpt lat="44.07438" lon="5.17312">
        <ele>412.5</ele>
        <time>2012-09-15T10:11:15.000Z</time>
      </trkpt>
      <trkpt lat="44.07443" lon="5.17309">
        <ele>412.5</ele>
        <time>2012-09-15T10:11:17.000Z</time>
      </trkpt>
      <trkpt lat="44.07446" lon="5.17304">
        <ele>412.9</ele>
        <time>2012-09-15T10:11:19.000Z</time>
      </trkpt>
      <trkpt lat="44.07449" lon="5.17299">
        <ele>414</ele>
        <time>2012-09-15T10:11:21.000Z</time>
      </trkpt>
      <trkpt lat="44.07452" lon="5.17295">
        <ele>415</ele>
        <time>2012-09-15T10:11:23.000Z</time>
      </trkpt>
      <trkpt lat="44.07456" lon="5.1729">
        <ele>415.1</ele>
        <time>2012-09-15T10:11:25.000Z</time>
      </trkpt>
      <trkpt lat="44.07459" lon="5.17286">
        <ele>415.3</ele>
        <time>2012-09-15T10:11:27.000Z</time>
      </trkpt>
      <trkpt lat="44.07462" lon="5.17282">
        <ele>415.1</ele>
        <time>2012-09-15T10:11:29.000Z</time>
      </trkpt>
      <trkpt lat="44.07464" lon="5.17278">
        <ele>415.7</ele>
        <time>2012-09-15T10:11:31.000Z</time>
      </trkpt>
      <trkpt lat="44.07467" lon="5.17273">
        <ele>416.5</ele>
        <time>2012-09-15T10:11:33.000Z</time>
      </trkpt>
      <trkpt lat="44.0747" lon="5.17268">
        <ele>416.7</ele>
        <time>2012-09-15T10:11:35.000Z</time>
      </trkpt>
      <trkpt lat="44.07472" lon="5.17264">
        <ele>416.8</ele>
        <time>2012-09-15T10:11:37.000Z</time>
      </trkpt>
      <trkpt lat="44.07474" lon="5.17261">
        <ele>417.6</ele>
        <time>2012-09-15T10:11:39.000Z</time>
      </trkpt>
      <trkpt lat="44.07476" lon="5.17257">
        <ele>417.6</ele>
        <time>2012-09-15T10:11:41.000Z</time>
      </trkpt>
      <trkpt lat="44.0748" lon="5.17252">
        <ele>418.3</ele>
        <time>2012-09-15T10:11:43.000Z</time>
      </trkpt>
      <trkpt lat="44.07483" lon="5.17251">
        <ele>417.6</ele>
        <time>2012-09-15T10:11:48.000Z</time>
      </trkpt>
      <trkpt lat="44.07486" lon="5.17251">
        <ele>418.6</ele>
        <time>2012-09-15T10:11:54.000Z</time>
      </trkpt>
      <trkpt lat="44.07489" lon="5.1725">
        <ele>419.2</ele>
        <time>2012-09-15T10:11:58.000Z</time>
      </trkpt>
      <trkpt lat="44.07491" lon="5.17249">
        <ele>419.7</ele>
        <time>2012-09-15T10:12:01.000Z</time>
      </trkpt>
      <trkpt lat="44.07495" lon="5.17248">
        <ele>419.4</ele>
        <time>2012-09-15T10:12:05.000Z</time>
      </trkpt>
      <trkpt lat="44.07498" lon="5.17248">
        <ele>420.3</ele>
        <time>2012-09-15T10:12:11.000Z</time>
      </trkpt>
      <trkpt lat="44.07502" lon="5.17246">
        <ele>420.5</ele>
        <time>2012-09-15T10:12:14.000Z</time>
      </trkpt>
      <trkpt lat="44.07505" lon="5.17243">
        <ele>420.5</ele>
        <time>2012-09-15T10:12:16.000Z</time>
      </trkpt>
      <trkpt lat="44.07506" lon="5.17238">
        <ele>420.3</ele>
        <time>2012-09-15T10:12:18.000Z</time>
      </trkpt>
      <trkpt lat="44.07507" lon="5.17235">
        <ele>419.9</ele>
        <time>2012-09-15T10:12:19.000Z</time>
      </trkpt>
      <trkpt lat="44.07508" lon="5.1723">
        <ele>419.7</ele>
        <time>2012-09-15T10:12:20.000Z</time>
      </trkpt>
      <trkpt lat="44.07508" lon="5.17226">
        <ele>419.4</ele>
        <time>2012-09-15T10:12:21.000Z</time>
      </trkpt>
      <trkpt lat="44.07508" lon="5.17221">
        <ele>419</ele>
        <time>2012-09-15T10:12:22.000Z</time>
      </trkpt>
      <trkpt lat="44.07514" lon="5.17215">
        <ele>417.9</ele>
        <time>2012-09-15T10:12:23.000Z</time>
      </trkpt>
      <trkpt lat="44.07518" lon="5.17211">
        <ele>418</ele>
        <time>2012-09-15T10:12:24.000Z</time>
      </trkpt>
      <trkpt lat="44.07521" lon="5.17207">
        <ele>418.1</ele>
        <time>2012-09-15T10:12:25.000Z</time>
      </trkpt>
      <trkpt lat="44.07519" lon="5.17203">
        <ele>417.4</ele>
        <time>2012-09-15T10:12:29.000Z</time>
      </trkpt>
      <trkpt lat="44.07515" lon="5.17202">
        <ele>417.1</ele>
        <time>2012-09-15T10:12:32.000Z</time>
      </trkpt>
      <trkpt lat="44.07512" lon="5.17201">
        <ele>416.8</ele>
        <time>2012-09-15T10:12:33.000Z</time>
      </trkpt>
      <trkpt lat="44.07507" lon="5.17201">
        <ele>416.8</ele>
        <time>2012-09-15T10:12:35.000Z</time>
      </trkpt>
      <trkpt lat="44.07502" lon="5.17202">
        <ele>416.8</ele>
        <time>2012-09-15T10:12:37.000Z</time>
      </trkpt>
      <trkpt lat="44.07499" lon="5.17201">
        <ele>416.6</ele>
        <time>2012-09-15T10:12:38.000Z</time>
      </trkpt>
      <trkpt lat="44.07495" lon="5.172">
        <ele>416.4</ele>
        <time>2012-09-15T10:12:39.000Z</time>
      </trkpt>
      <trkpt lat="44.07484" lon="5.17191">
        <ele>414.7</ele>
        <time>2012-09-15T10:12:41.000Z</time>
      </trkpt>
      <trkpt lat="44.0748" lon="5.17189">
        <ele>413</ele>
        <time>2012-09-15T10:12:42.000Z</time>
      </trkpt>
      <trkpt lat="44.07476" lon="5.17186">
        <ele>412.7</ele>
        <time>2012-09-15T10:12:43.000Z</time>
      </trkpt>
      <trkpt lat="44.07471" lon="5.17182">
        <ele>412.4</ele>
        <time>2012-09-15T10:12:44.000Z</time>
      </trkpt>
      <trkpt lat="44.07467" lon="5.17178">
        <ele>412.1</ele>
        <time>2012-09-15T10:12:45.000Z</time>
      </trkpt>
      <trkpt lat="44.07464" lon="5.17175">
        <ele>411.7</ele>
        <time>2012-09-15T10:12:46.000Z</time>
      </trkpt>
      <trkpt lat="44.07458" lon="5.17171">
        <ele>411</ele>
        <time>2012-09-15T10:12:47.000Z</time>
      </trkpt>
      <trkpt lat="44.07452" lon="5.17168">
        <ele>409.6</ele>
        <time>2012-09-15T10:12:48.000Z</time>
      </trkpt>
      <trkpt lat="44.07446" lon="5.17164">
        <ele>408.8</ele>
        <time>2012-09-15T10:12:49.000Z</time>
      </trkpt>
      <trkpt lat="44.07441" lon="5.1716">
        <ele>408.4</ele>
        <time>2012-09-15T10:12:50.000Z</time>
      </trkpt>
      <trkpt lat="44.07437" lon="5.17156">
        <ele>408</ele>
        <time>2012-09-15T10:12:51.000Z</time>
      </trkpt>
      <trkpt lat="44.07434" lon="5.17154">
        <ele>407.5</ele>
        <time>2012-09-15T10:12:52.000Z</time>
      </trkpt>
      <trkpt lat="44.0743" lon="5.17152">
        <ele>407.5</ele>
        <time>2012-09-15T10:12:53.000Z</time>
      </trkpt>
      <trkpt lat="44.07428" lon="5.17146">
        <ele>407.6</ele>
        <time>2012-09-15T10:12:55.000Z</time>
      </trkpt>
      <trkpt lat="44.07432" lon="5.17142">
        <ele>407.7</ele>
        <time>2012-09-15T10:12:57.000Z</time>
      </trkpt>
      <trkpt lat="44.07434" lon="5.1714">
        <ele>407.8</ele>
        <time>2012-09-15T10:12:58.000Z</time>
      </trkpt>
      <trkpt lat="44.07438" lon="5.17137">
        <ele>407.7</ele>
        <time>2012-09-15T10:13:00.000Z</time>
      </trkpt>
      <trkpt lat="44.0744" lon="5.17133">
        <ele>406.4</ele>
        <time>2012-09-15T10:13:02.000Z</time>
      </trkpt>
      <trkpt lat="44.07442" lon="5.17128">
        <ele>404.7</ele>
        <time>2012-09-15T10:13:03.000Z</time>
      </trkpt>
      <trkpt lat="44.07444" lon="5.17123">
        <ele>403.4</ele>
        <time>2012-09-15T10:13:04.000Z</time>
      </trkpt>
      <trkpt lat="44.07446" lon="5.17118">
        <ele>402.8</ele>
        <time>2012-09-15T10:13:05.000Z</time>
      </trkpt>
      <trkpt lat="44.07452" lon="5.17118">
        <ele>403.5</ele>
        <time>2012-09-15T10:13:06.000Z</time>
      </trkpt>
      <trkpt lat="44.07454" lon="5.17116">
        <ele>404.1</ele>
        <time>2012-09-15T10:13:07.000Z</time>
      </trkpt>
      <trkpt lat="44.07457" lon="5.17115">
        <ele>404.3</ele>
        <time>2012-09-15T10:13:08.000Z</time>
      </trkpt>
      <trkpt lat="44.07459" lon="5.17112">
        <ele>404.4</ele>
        <time>2012-09-15T10:13:09.000Z</time>
      </trkpt>
      <trkpt lat="44.0746" lon="5.17102">
        <ele>403.9</ele>
        <time>2012-09-15T10:13:11.000Z</time>
      </trkpt>
      <trkpt lat="44.07461" lon="5.17097">
        <ele>403.6</ele>
        <time>2012-09-15T10:13:12.000Z</time>
      </trkpt>
      <trkpt lat="44.07462" lon="5.17093">
        <ele>403.5</ele>
        <time>2012-09-15T10:13:13.000Z</time>
      </trkpt>
      <trkpt lat="44.07465" lon="5.17089">
        <ele>404.2</ele>
        <time>2012-09-15T10:13:14.000Z</time>
      </trkpt>
      <trkpt lat="44.07468" lon="5.17084">
        <ele>404.1</ele>
        <time>2012-09-15T10:13:15.000Z</time>
      </trkpt>
      <trkpt lat="44.07472" lon="5.1708">
        <ele>404</ele>
        <time>2012-09-15T10:13:16.000Z</time>
      </trkpt>
      <trkpt lat="44.07473" lon="5.17074">
        <ele>404.4</ele>
        <time>2012-09-15T10:13:17.000Z</time>
      </trkpt>
      <trkpt lat="44.07474" lon="5.17069">
        <ele>403.7</ele>
        <time>2012-09-15T10:13:18.000Z</time>
      </trkpt>
      <trkpt lat="44.07477" lon="5.17067">
        <ele>403.5</ele>
        <time>2012-09-15T10:13:19.000Z</time>
      </trkpt>
      <trkpt lat="44.07479" lon="5.17064">
        <ele>403.2</ele>
        <time>2012-09-15T10:13:20.000Z</time>
      </trkpt>
      <trkpt lat="44.07482" lon="5.1706">
        <ele>402.2</ele>
        <time>2012-09-15T10:13:22.000Z</time>
      </trkpt>
      <trkpt lat="44.07482" lon="5.17055">
        <ele>401.9</ele>
        <time>2012-09-15T10:13:25.000Z</time>
      </trkpt>
      <trkpt lat="44.0748" lon="5.17057">
        <ele>405</ele>
        <time>2012-09-15T10:13:27.000Z</time>
      </trkpt>
      <trkpt lat="44.07476" lon="5.17056">
        <ele>404.7</ele>
        <time>2012-09-15T10:13:30.000Z</time>
      </trkpt>
      <trkpt lat="44.07472" lon="5.17056">
        <ele>404.9</ele>
        <time>2012-09-15T10:13:32.000Z</time>
      </trkpt>
      <trkpt lat="44.07468" lon="5.17056">
        <ele>404.9</ele>
        <time>2012-09-15T10:13:34.000Z</time>
      </trkpt>
      <trkpt lat="44.07464" lon="5.17058">
        <ele>405.2</ele>
        <time>2012-09-15T10:13:36.000Z</time>
      </trkpt>
      <trkpt lat="44.0746" lon="5.1706">
        <ele>404.9</ele>
        <time>2012-09-15T10:13:38.000Z</time>
      </trkpt>
      <trkpt lat="44.07456" lon="5.1706">
        <ele>404.9</ele>
        <time>2012-09-15T10:13:39.000Z</time>
      </trkpt>
      <trkpt lat="44.07453" lon="5.17059">
        <ele>405.1</ele>
        <time>2012-09-15T10:13:40.000Z</time>
      </trkpt>
      <trkpt lat="44.0745" lon="5.17059">
        <ele>405.5</ele>
        <time>2012-09-15T10:13:41.000Z</time>
      </trkpt>
      <trkpt lat="44.07445" lon="5.17057">
        <ele>406.4</ele>
        <time>2012-09-15T10:13:43.000Z</time>
      </trkpt>
      <trkpt lat="44.07442" lon="5.17054">
        <ele>403.4</ele>
        <time>2012-09-15T10:13:45.000Z</time>
      </trkpt>
      <trkpt lat="44.07439" lon="5.1705">
        <ele>402.1</ele>
        <time>2012-09-15T10:13:47.000Z</time>
      </trkpt>
      <trkpt lat="44.07442" lon="5.17045">
        <ele>402.2</ele>
        <time>2012-09-15T10:13:48.000Z</time>
      </trkpt>
      <trkpt lat="44.07443" lon="5.17041">
        <ele>403</ele>
        <time>2012-09-15T10:13:52.000Z</time>
      </trkpt>
      <trkpt lat="44.07446" lon="5.17038">
        <ele>403.7</ele>
        <time>2012-09-15T10:13:55.000Z</time>
      </trkpt>
      <trkpt lat="44.07448" lon="5.17034">
        <ele>404.1</ele>
        <time>2012-09-15T10:13:58.000Z</time>
      </trkpt>
      <trkpt lat="44.0745" lon="5.17032">
        <ele>403.5</ele>
        <time>2012-09-15T10:14:00.000Z</time>
      </trkpt>
      <trkpt lat="44.07454" lon="5.17028">
        <ele>402.5</ele>
        <time>2012-09-15T10:14:02.000Z</time>
      </trkpt>
      <trkpt lat="44.07457" lon="5.17025">
        <ele>402.5</ele>
        <time>2012-09-15T10:14:04.000Z</time>
      </trkpt>
      <trkpt lat="44.0746" lon="5.17022">
        <ele>402.3</ele>
        <time>2012-09-15T10:14:06.000Z</time>
      </trkpt>
      <trkpt lat="44.07464" lon="5.17021">
        <ele>400.9</ele>
        <time>2012-09-15T10:14:08.000Z</time>
      </trkpt>
      <trkpt lat="44.07467" lon="5.17017">
        <ele>398.9</ele>
        <time>2012-09-15T10:14:10.000Z</time>
      </trkpt>
      <trkpt lat="44.07469" lon="5.17013">
        <ele>398</ele>
        <time>2012-09-15T10:14:12.000Z</time>
      </trkpt>
      <trkpt lat="44.07472" lon="5.17003">
        <ele>398</ele>
        <time>2012-09-15T10:14:14.000Z</time>
      </trkpt>
      <trkpt lat="44.07472" lon="5.17">
        <ele>398.2</ele>
        <time>2012-09-15T10:14:15.000Z</time>
      </trkpt>
      <trkpt lat="44.07471" lon="5.16995">
        <ele>397.3</ele>
        <time>2012-09-15T10:14:16.000Z</time>
      </trkpt>
      <trkpt lat="44.07469" lon="5.1699">
        <ele>396.8</ele>
        <time>2012-09-15T10:14:17.000Z</time>
      </trkpt>
      <trkpt lat="44.07467" lon="5.16983">
        <ele>396.2</ele>
        <time>2012-09-15T10:14:18.000Z</time>
      </trkpt>
      <trkpt lat="44.07466" lon="5.16979">
        <ele>396.1</ele>
        <time>2012-09-15T10:14:19.000Z</time>
      </trkpt>
      <trkpt lat="44.07464" lon="5.16975">
        <ele>395.3</ele>
        <time>2012-09-15T10:14:20.000Z</time>
      </trkpt>
      <trkpt lat="44.0746" lon="5.1697">
        <ele>395.1</ele>
        <time>2012-09-15T10:14:22.000Z</time>
      </trkpt>
      <trkpt lat="44.07457" lon="5.16968">
        <ele>395</ele>
        <time>2012-09-15T10:14:23.000Z</time>
      </trkpt>
      <trkpt lat="44.07455" lon="5.16964">
        <ele>395.3</ele>
        <time>2012-09-15T10:14:24.000Z</time>
      </trkpt>
      <trkpt lat="44.07453" lon="5.1696">
        <ele>395</ele>
        <time>2012-09-15T10:14:25.000Z</time>
      </trkpt>
      <trkpt lat="44.0745" lon="5.16958">
        <ele>394.4</ele>
        <time>2012-09-15T10:14:26.000Z</time>
      </trkpt>
      <trkpt lat="44.07447" lon="5.16955">
        <ele>394</ele>
        <time>2012-09-15T10:14:27.000Z</time>
      </trkpt>
      <trkpt lat="44.07441" lon="5.16958">
        <ele>392.9</ele>
        <time>2012-09-15T10:14:28.000Z</time>
      </trkpt>
      <trkpt lat="44.07437" lon="5.16958">
        <ele>392.5</ele>
        <time>2012-09-15T10:14:29.000Z</time>
      </trkpt>
      <trkpt lat="44.07432" lon="5.16957">
        <ele>392.6</ele>
        <time>2012-09-15T10:14:30.000Z</time>
      </trkpt>
      <trkpt lat="44.07428" lon="5.16955">
        <ele>392.6</ele>
        <time>2012-09-15T10:14:31.000Z</time>
      </trkpt>
      <trkpt lat="44.07422" lon="5.16954">
        <ele>392.3</ele>
        <time>2012-09-15T10:14:32.000Z</time>
      </trkpt>
      <trkpt lat="44.07418" lon="5.16952">
        <ele>392</ele>
        <time>2012-09-15T10:14:33.000Z</time>
      </trkpt>
      <trkpt lat="44.07412" lon="5.16953">
        <ele>391.9</ele>
        <time>2012-09-15T10:14:34.000Z</time>
      </trkpt>
      <trkpt lat="44.07408" lon="5.1695">
        <ele>391.7</ele>
        <time>2012-09-15T10:14:35.000Z</time>
      </trkpt>
      <trkpt lat="44.07404" lon="5.16947">
        <ele>391.6</ele>
        <time>2012-09-15T10:14:36.000Z</time>
      </trkpt>
      <trkpt lat="44.074" lon="5.16944">
        <ele>391.2</ele>
        <time>2012-09-15T10:14:37.000Z</time>
      </trkpt>
      <trkpt lat="44.07395" lon="5.16945">
        <ele>389.6</ele>
        <time>2012-09-15T10:14:38.000Z</time>
      </trkpt>
      <trkpt lat="44.07389" lon="5.16943">
        <ele>389.2</ele>
        <time>2012-09-15T10:14:39.000Z</time>
      </trkpt>
      <trkpt lat="44.07383" lon="5.16941">
        <ele>389</ele>
        <time>2012-09-15T10:14:40.000Z</time>
      </trkpt>
      <trkpt lat="44.07377" lon="5.1694">
        <ele>389</ele>
        <time>2012-09-15T10:14:41.000Z</time>
      </trkpt>
      <trkpt lat="44.07372" lon="5.16939">
        <ele>388.9</ele>
        <time>2012-09-15T10:14:42.000Z</time>
      </trkpt>
      <trkpt lat="44.07367" lon="5.16939">
        <ele>388.9</ele>
        <time>2012-09-15T10:14:43.000Z</time>
      </trkpt>
      <trkpt lat="44.07363" lon="5.16939">
        <ele>388.4</ele>
        <time>2012-09-15T10:14:44.000Z</time>
      </trkpt>
      <trkpt lat="44.07358" lon="5.1694">
        <ele>388.7</ele>
        <time>2012-09-15T10:14:45.000Z</time>
      </trkpt>
      <trkpt lat="44.07356" lon="5.16946">
        <ele>388.5</ele>
        <time>2012-09-15T10:14:46.000Z</time>
      </trkpt>
      <trkpt lat="44.07353" lon="5.1695">
        <ele>388.7</ele>
        <time>2012-09-15T10:14:47.000Z</time>
      </trkpt>
      <trkpt lat="44.07351" lon="5.16953">
        <ele>388.7</ele>
        <time>2012-09-15T10:14:48.000Z</time>
      </trkpt>
      <trkpt lat="44.07348" lon="5.16956">
        <ele>388.6</ele>
        <time>2012-09-15T10:14:49.000Z</time>
      </trkpt>
      <trkpt lat="44.07346" lon="5.16958">
        <ele>388.6</ele>
        <time>2012-09-15T10:14:50.000Z</time>
      </trkpt>
      <trkpt lat="44.07341" lon="5.1696">
        <ele>388</ele>
        <time>2012-09-15T10:14:52.000Z</time>
      </trkpt>
      <trkpt lat="44.0734" lon="5.16965">
        <ele>385.6</ele>
        <time>2012-09-15T10:14:56.000Z</time>
      </trkpt>
      <trkpt lat="44.07341" lon="5.16971">
        <ele>385.6</ele>
        <time>2012-09-15T10:15:10.000Z</time>
      </trkpt>
      <trkpt lat="44.07342" lon="5.16974">
        <ele>385.4</ele>
        <time>2012-09-15T10:15:11.000Z</time>
      </trkpt>
      <trkpt lat="44.07343" lon="5.16978">
        <ele>384.8</ele>
        <time>2012-09-15T10:15:12.000Z</time>
      </trkpt>
      <trkpt lat="44.07344" lon="5.16982">
        <ele>384.8</ele>
        <time>2012-09-15T10:15:13.000Z</time>
      </trkpt>
      <trkpt lat="44.07345" lon="5.16987">
        <ele>385.1</ele>
        <time>2012-09-15T10:15:14.000Z</time>
      </trkpt>
      <trkpt lat="44.07347" lon="5.16992">
        <ele>384.6</ele>
        <time>2012-09-15T10:15:15.000Z</time>
      </trkpt>
      <trkpt lat="44.07348" lon="5.16997">
        <ele>384.4</ele>
        <time>2012-09-15T10:15:16.000Z</time>
      </trkpt>
      <trkpt lat="44.0735" lon="5.17001">
        <ele>384</ele>
        <time>2012-09-15T10:15:17.000Z</time>
      </trkpt>
      <trkpt lat="44.07352" lon="5.17007">
        <ele>383.7</ele>
        <time>2012-09-15T10:15:18.000Z</time>
      </trkpt>
      <trkpt lat="44.07354" lon="5.17012">
        <ele>383.4</ele>
        <time>2012-09-15T10:15:19.000Z</time>
      </trkpt>
      <trkpt lat="44.07357" lon="5.17017">
        <ele>383.2</ele>
        <time>2012-09-15T10:15:20.000Z</time>
      </trkpt>
      <trkpt lat="44.07359" lon="5.17022">
        <ele>382.9</ele>
        <time>2012-09-15T10:15:21.000Z</time>
      </trkpt>
      <trkpt lat="44.07361" lon="5.17028">
        <ele>382.7</ele>
        <time>2012-09-15T10:15:22.000Z</time>
      </trkpt>
      <trkpt lat="44.07364" lon="5.17033">
        <ele>382.5</ele>
        <time>2012-09-15T10:15:23.000Z</time>
      </trkpt>
      <trkpt lat="44.07364" lon="5.17038">
        <ele>382.5</ele>
        <time>2012-09-15T10:15:24.000Z</time>
      </trkpt>
      <trkpt lat="44.07359" lon="5.17043">
        <ele>383.7</ele>
        <time>2012-09-15T10:15:25.000Z</time>
      </trkpt>
      <trkpt lat="44.07358" lon="5.17048">
        <ele>383.6</ele>
        <time>2012-09-15T10:15:26.000Z</time>
      </trkpt>
      <trkpt lat="44.07357" lon="5.17052">
        <ele>383.5</ele>
        <time>2012-09-15T10:15:27.000Z</time>
      </trkpt>
      <trkpt lat="44.07355" lon="5.17056">
        <ele>383.5</ele>
        <time>2012-09-15T10:15:28.000Z</time>
      </trkpt>
      <trkpt lat="44.07352" lon="5.17062">
        <ele>382.8</ele>
        <time>2012-09-15T10:15:29.000Z</time>
      </trkpt>
      <trkpt lat="44.07349" lon="5.17068">
        <ele>382.7</ele>
        <time>2012-09-15T10:15:30.000Z</time>
      </trkpt>
      <trkpt lat="44.07347" lon="5.17074">
        <ele>382.2</ele>
        <time>2012-09-15T10:15:31.000Z</time>
      </trkpt>
      <trkpt lat="44.07344" lon="5.1708">
        <ele>381.9</ele>
        <time>2012-09-15T10:15:32.000Z</time>
      </trkpt>
      <trkpt lat="44.07342" lon="5.17087">
        <ele>381.8</ele>
        <time>2012-09-15T10:15:33.000Z</time>
      </trkpt>
      <trkpt lat="44.0734" lon="5.17094">
        <ele>381.8</ele>
        <time>2012-09-15T10:15:34.000Z</time>
      </trkpt>
      <trkpt lat="44.07339" lon="5.171">
        <ele>382</ele>
        <time>2012-09-15T10:15:35.000Z</time>
      </trkpt>
      <trkpt lat="44.07338" lon="5.17107">
        <ele>382.4</ele>
        <time>2012-09-15T10:15:36.000Z</time>
      </trkpt>
      <trkpt lat="44.07336" lon="5.17113">
        <ele>382.4</ele>
        <time>2012-09-15T10:15:37.000Z</time>
      </trkpt>
      <trkpt lat="44.07335" lon="5.17119">
        <ele>381.9</ele>
        <time>2012-09-15T10:15:38.000Z</time>
      </trkpt>
      <trkpt lat="44.07333" lon="5.17125">
        <ele>381.7</ele>
        <time>2012-09-15T10:15:39.000Z</time>
      </trkpt>
      <trkpt lat="44.07332" lon="5.17131">
        <ele>381.8</ele>
        <time>2012-09-15T10:15:40.000Z</time>
      </trkpt>
      <trkpt lat="44.07331" lon="5.17136">
        <ele>381.9</ele>
        <time>2012-09-15T10:15:41.000Z</time>
      </trkpt>
      <trkpt lat="44.0733" lon="5.17142">
        <ele>381.9</ele>
        <time>2012-09-15T10:15:42.000Z</time>
      </trkpt>
      <trkpt lat="44.07329" lon="5.17148">
        <ele>382</ele>
        <time>2012-09-15T10:15:43.000Z</time>
      </trkpt>
      <trkpt lat="44.07329" lon="5.17152">
        <ele>382.3</ele>
        <time>2012-09-15T10:15:44.000Z</time>
      </trkpt>
      <trkpt lat="44.07329" lon="5.17157">
        <ele>382.2</ele>
        <time>2012-09-15T10:15:45.000Z</time>
      </trkpt>
      <trkpt lat="44.07328" lon="5.17162">
        <ele>382.1</ele>
        <time>2012-09-15T10:15:46.000Z</time>
      </trkpt>
      <trkpt lat="44.07327" lon="5.17166">
        <ele>382.3</ele>
        <time>2012-09-15T10:15:47.000Z</time>
      </trkpt>
      <trkpt lat="44.07328" lon="5.17171">
        <ele>382.5</ele>
        <time>2012-09-15T10:15:48.000Z</time>
      </trkpt>
      <trkpt lat="44.07327" lon="5.17175">
        <ele>382.7</ele>
        <time>2012-09-15T10:15:49.000Z</time>
      </trkpt>
      <trkpt lat="44.07327" lon="5.1718">
        <ele>382.6</ele>
        <time>2012-09-15T10:15:50.000Z</time>
      </trkpt>
      <trkpt lat="44.07326" lon="5.17184">
        <ele>383</ele>
        <time>2012-09-15T10:15:51.000Z</time>
      </trkpt>
      <trkpt lat="44.07326" lon="5.17189">
        <ele>383.1</ele>
        <time>2012-09-15T10:15:52.000Z</time>
      </trkpt>
      <trkpt lat="44.07325" lon="5.17193">
        <ele>383.6</ele>
        <time>2012-09-15T10:15:53.000Z</time>
      </trkpt>
      <trkpt lat="44.07324" lon="5.17197">
        <ele>384.1</ele>
        <time>2012-09-15T10:15:55.000Z</time>
      </trkpt>
      <trkpt lat="44.07323" lon="5.172">
        <ele>384.1</ele>
        <time>2012-09-15T10:15:57.000Z</time>
      </trkpt>
      <trkpt lat="44.0732" lon="5.17205">
        <ele>385.4</ele>
        <time>2012-09-15T10:16:00.000Z</time>
      </trkpt>
      <trkpt lat="44.07317" lon="5.17211">
        <ele>385.3</ele>
        <time>2012-09-15T10:16:02.000Z</time>
      </trkpt>
      <trkpt lat="44.07316" lon="5.17215">
        <ele>385.4</ele>
        <time>2012-09-15T10:16:03.000Z</time>
      </trkpt>
      <trkpt lat="44.07314" lon="5.17219">
        <ele>385.6</ele>
        <time>2012-09-15T10:16:04.000Z</time>
      </trkpt>
      <trkpt lat="44.07312" lon="5.17225">
        <ele>385.3</ele>
        <time>2012-09-15T10:16:06.000Z</time>
      </trkpt>
      <trkpt lat="44.0731" lon="5.17231">
        <ele>385.4</ele>
        <time>2012-09-15T10:16:08.000Z</time>
      </trkpt>
      <trkpt lat="44.07307" lon="5.17238">
        <ele>385.1</ele>
        <time>2012-09-15T10:16:10.000Z</time>
      </trkpt>
      <trkpt lat="44.07306" lon="5.17243">
        <ele>384.6</ele>
        <time>2012-09-15T10:16:11.000Z</time>
      </trkpt>
      <trkpt lat="44.07305" lon="5.1725">
        <ele>384.2</ele>
        <time>2012-09-15T10:16:13.000Z</time>
      </trkpt>
      <trkpt lat="44.07304" lon="5.17254">
        <ele>384.1</ele>
        <time>2012-09-15T10:16:14.000Z</time>
      </trkpt>
      <trkpt lat="44.07303" lon="5.17258">
        <ele>384.1</ele>
        <time>2012-09-15T10:16:15.000Z</time>
      </trkpt>
      <trkpt lat="44.07301" lon="5.17261">
        <ele>384.3</ele>
        <time>2012-09-15T10:16:16.000Z</time>
      </trkpt>
      <trkpt lat="44.07299" lon="5.17265">
        <ele>383.9</ele>
        <time>2012-09-15T10:16:17.000Z</time>
      </trkpt>
      <trkpt lat="44.07298" lon="5.17268">
        <ele>384.6</ele>
        <time>2012-09-15T10:16:18.000Z</time>
      </trkpt>
      <trkpt lat="44.07296" lon="5.17275">
        <ele>384.8</ele>
        <time>2012-09-15T10:16:20.000Z</time>
      </trkpt>
      <trkpt lat="44.07293" lon="5.1728">
        <ele>385.3</ele>
        <time>2012-09-15T10:16:22.000Z</time>
      </trkpt>
      <trkpt lat="44.07289" lon="5.17286">
        <ele>385.2</ele>
        <time>2012-09-15T10:16:24.000Z</time>
      </trkpt>
      <trkpt lat="44.07286" lon="5.17292">
        <ele>385.8</ele>
        <time>2012-09-15T10:16:26.000Z</time>
      </trkpt>
      <trkpt lat="44.07285" lon="5.17296">
        <ele>385.9</ele>
        <time>2012-09-15T10:16:27.000Z</time>
      </trkpt>
      <trkpt lat="44.07284" lon="5.17299">
        <ele>386.2</ele>
        <time>2012-09-15T10:16:28.000Z</time>
      </trkpt>
      <trkpt lat="44.07282" lon="5.17306">
        <ele>386.4</ele>
        <time>2012-09-15T10:16:30.000Z</time>
      </trkpt>
      <trkpt lat="44.07279" lon="5.1731">
        <ele>386.6</ele>
        <time>2012-09-15T10:16:32.000Z</time>
      </trkpt>
      <trkpt lat="44.07277" lon="5.17316">
        <ele>387.3</ele>
        <time>2012-09-15T10:16:34.000Z</time>
      </trkpt>
      <trkpt lat="44.07276" lon="5.17321">
        <ele>387.1</ele>
        <time>2012-09-15T10:16:36.000Z</time>
      </trkpt>
      <trkpt lat="44.07274" lon="5.17326">
        <ele>387</ele>
        <time>2012-09-15T10:16:38.000Z</time>
      </trkpt>
      <trkpt lat="44.07273" lon="5.17331">
        <ele>387.4</ele>
        <time>2012-09-15T10:16:40.000Z</time>
      </trkpt>
      <trkpt lat="44.07272" lon="5.17336">
        <ele>388.1</ele>
        <time>2012-09-15T10:16:42.000Z</time>
      </trkpt>
      <trkpt lat="44.07271" lon="5.1734">
        <ele>388.7</ele>
        <time>2012-09-15T10:16:44.000Z</time>
      </trkpt>
      <trkpt lat="44.0727" lon="5.17344">
        <ele>389.2</ele>
        <time>2012-09-15T10:16:46.000Z</time>
      </trkpt>
      <trkpt lat="44.07269" lon="5.17348">
        <ele>390</ele>
        <time>2012-09-15T10:16:48.000Z</time>
      </trkpt>
      <trkpt lat="44.07269" lon="5.17352">
        <ele>390.2</ele>
        <time>2012-09-15T10:16:50.000Z</time>
      </trkpt>
      <trkpt lat="44.07269" lon="5.17357">
        <ele>390.7</ele>
        <time>2012-09-15T10:16:52.000Z</time>
      </trkpt>
      <trkpt lat="44.07268" lon="5.1736">
        <ele>391.5</ele>
        <time>2012-09-15T10:16:54.000Z</time>
      </trkpt>
      <trkpt lat="44.07266" lon="5.17364">
        <ele>392</ele>
        <time>2012-09-15T10:16:56.000Z</time>
      </trkpt>
      <trkpt lat="44.07265" lon="5.17368">
        <ele>392.3</ele>
        <time>2012-09-15T10:16:58.000Z</time>
      </trkpt>
      <trkpt lat="44.07264" lon="5.17372">
        <ele>392.6</ele>
        <time>2012-09-15T10:17:00.000Z</time>
      </trkpt>
      <trkpt lat="44.07262" lon="5.17376">
        <ele>392.8</ele>
        <time>2012-09-15T10:17:02.000Z</time>
      </trkpt>
      <trkpt lat="44.0726" lon="5.17381">
        <ele>392.5</ele>
        <time>2012-09-15T10:17:04.000Z</time>
      </trkpt>
      <trkpt lat="44.0726" lon="5.17386">
        <ele>392.8</ele>
        <time>2012-09-15T10:17:06.000Z</time>
      </trkpt>
      <trkpt lat="44.0726" lon="5.17392">
        <ele>392.8</ele>
        <time>2012-09-15T10:17:09.000Z</time>
      </trkpt>
      <trkpt lat="44.07259" lon="5.17397">
        <ele>393.5</ele>
        <time>2012-09-15T10:17:11.000Z</time>
      </trkpt>
      <trkpt lat="44.07258" lon="5.17401">
        <ele>395</ele>
        <time>2012-09-15T10:17:14.000Z</time>
      </trkpt>
      <trkpt lat="44.07257" lon="5.17405">
        <ele>395.8</ele>
        <time>2012-09-15T10:17:16.000Z</time>
      </trkpt>
      <trkpt lat="44.07256" lon="5.17409">
        <ele>396.7</ele>
        <time>2012-09-15T10:17:18.000Z</time>
      </trkpt>
      <trkpt lat="44.07254" lon="5.17414">
        <ele>396.5</ele>
        <time>2012-09-15T10:17:20.000Z</time>
      </trkpt>
      <trkpt lat="44.0725" lon="5.17415">
        <ele>396.2</ele>
        <time>2012-09-15T10:17:23.000Z</time>
      </trkpt>
      <trkpt lat="44.07246" lon="5.17414">
        <ele>396.5</ele>
        <time>2012-09-15T10:17:26.000Z</time>
      </trkpt>
      <trkpt lat="44.07244" lon="5.17412">
        <ele>396.7</ele>
        <time>2012-09-15T10:17:28.000Z</time>
      </trkpt>
      <trkpt lat="44.0724" lon="5.17412">
        <ele>397.2</ele>
        <time>2012-09-15T10:17:30.000Z</time>
      </trkpt>
      <trkpt lat="44.07237" lon="5.17411">
        <ele>397.7</ele>
        <time>2012-09-15T10:17:32.000Z</time>
      </trkpt>
      <trkpt lat="44.07234" lon="5.17411">
        <ele>397.8</ele>
        <time>2012-09-15T10:17:34.000Z</time>
      </trkpt>
      <trkpt lat="44.07231" lon="5.17412">
        <ele>398.4</ele>
        <time>2012-09-15T10:17:37.000Z</time>
      </trkpt>
      <trkpt lat="44.07228" lon="5.17411">
        <ele>398.6</ele>
        <time>2012-09-15T10:17:39.000Z</time>
      </trkpt>
      <trkpt lat="44.07225" lon="5.1741">
        <ele>399.2</ele>
        <time>2012-09-15T10:17:41.000Z</time>
      </trkpt>
      <trkpt lat="44.07221" lon="5.17408">
        <ele>399.6</ele>
        <time>2012-09-15T10:17:44.000Z</time>
      </trkpt>
      <trkpt lat="44.07218" lon="5.17407">
        <ele>400.2</ele>
        <time>2012-09-15T10:17:46.000Z</time>
      </trkpt>
      <trkpt lat="44.07215" lon="5.17405">
        <ele>400.1</ele>
        <time>2012-09-15T10:17:48.000Z</time>
      </trkpt>
      <trkpt lat="44.07212" lon="5.17402">
        <ele>400.1</ele>
        <time>2012-09-15T10:17:50.000Z</time>
      </trkpt>
      <trkpt lat="44.07209" lon="5.174">
        <ele>400.2</ele>
        <time>2012-09-15T10:17:52.000Z</time>
      </trkpt>
      <trkpt lat="44.07207" lon="5.17396">
        <ele>400.8</ele>
        <time>2012-09-15T10:17:54.000Z</time>
      </trkpt>
      <trkpt lat="44.07204" lon="5.17394">
        <ele>400.6</ele>
        <time>2012-09-15T10:17:56.000Z</time>
      </trkpt>
      <trkpt lat="44.07201" lon="5.1739">
        <ele>400.5</ele>
        <time>2012-09-15T10:17:58.000Z</time>
      </trkpt>
      <trkpt lat="44.07198" lon="5.17387">
        <ele>400.6</ele>
        <time>2012-09-15T10:18:00.000Z</time>
      </trkpt>
      <trkpt lat="44.07194" lon="5.17384">
        <ele>400.7</ele>
        <time>2012-09-15T10:18:02.000Z</time>
      </trkpt>
      <trkpt lat="44.0719" lon="5.1738">
        <ele>400.2</ele>
        <time>2012-09-15T10:18:04.000Z</time>
      </trkpt>
      <trkpt lat="44.07188" lon="5.17378">
        <ele>400.2</ele>
        <time>2012-09-15T10:18:05.000Z</time>
      </trkpt>
      <trkpt lat="44.07185" lon="5.17375">
        <ele>400.5</ele>
        <time>2012-09-15T10:18:06.000Z</time>
      </trkpt>
      <trkpt lat="44.07183" lon="5.17372">
        <ele>401.1</ele>
        <time>2012-09-15T10:18:07.000Z</time>
      </trkpt>
      <trkpt lat="44.07181" lon="5.17369">
        <ele>401.9</ele>
        <time>2012-09-15T10:18:08.000Z</time>
      </trkpt>
      <trkpt lat="44.07176" lon="5.17366">
        <ele>400.4</ele>
        <time>2012-09-15T10:18:09.000Z</time>
      </trkpt>
      <trkpt lat="44.07172" lon="5.17363">
        <ele>399.5</ele>
        <time>2012-09-15T10:18:10.000Z</time>
      </trkpt>
      <trkpt lat="44.0717" lon="5.17359">
        <ele>400</ele>
        <time>2012-09-15T10:18:11.000Z</time>
      </trkpt>
      <trkpt lat="44.07167" lon="5.17356">
        <ele>399.8</ele>
        <time>2012-09-15T10:18:12.000Z</time>
      </trkpt>
      <trkpt lat="44.07164" lon="5.17353">
        <ele>399.4</ele>
        <time>2012-09-15T10:18:13.000Z</time>
      </trkpt>
      <trkpt lat="44.07161" lon="5.1735">
        <ele>400.2</ele>
        <time>2012-09-15T10:18:15.000Z</time>
      </trkpt>
      <trkpt lat="44.07157" lon="5.17346">
        <ele>400.3</ele>
        <time>2012-09-15T10:18:17.000Z</time>
      </trkpt>
      <trkpt lat="44.07155" lon="5.17343">
        <ele>400</ele>
        <time>2012-09-15T10:18:18.000Z</time>
      </trkpt>
      <trkpt lat="44.07154" lon="5.1734">
        <ele>399.9</ele>
        <time>2012-09-15T10:18:19.000Z</time>
      </trkpt>
      <trkpt lat="44.07154" lon="5.17333">
        <ele>399.3</ele>
        <time>2012-09-15T10:18:20.000Z</time>
      </trkpt>
      <trkpt lat="44.07155" lon="5.17328">
        <ele>398.8</ele>
        <time>2012-09-15T10:18:21.000Z</time>
      </trkpt>
      <trkpt lat="44.07155" lon="5.17322">
        <ele>398.2</ele>
        <time>2012-09-15T10:18:22.000Z</time>
      </trkpt>
      <trkpt lat="44.07157" lon="5.17317">
        <ele>398.1</ele>
        <time>2012-09-15T10:18:23.000Z</time>
      </trkpt>
      <trkpt lat="44.07159" lon="5.17311">
        <ele>397.7</ele>
        <time>2012-09-15T10:18:24.000Z</time>
      </trkpt>
      <trkpt lat="44.0716" lon="5.17306">
        <ele>397.5</ele>
        <time>2012-09-15T10:18:25.000Z</time>
      </trkpt>
      <trkpt lat="44.0716" lon="5.173">
        <ele>396.9</ele>
        <time>2012-09-15T10:18:26.000Z</time>
      </trkpt>
      <trkpt lat="44.07159" lon="5.17293">
        <ele>395.9</ele>
        <time>2012-09-15T10:18:27.000Z</time>
      </trkpt>
      <trkpt lat="44.07158" lon="5.17286">
        <ele>395.6</ele>
        <time>2012-09-15T10:18:28.000Z</time>
      </trkpt>
      <trkpt lat="44.07156" lon="5.17278">
        <ele>395.3</ele>
        <time>2012-09-15T10:18:29.000Z</time>
      </trkpt>
      <trkpt lat="44.07154" lon="5.1727">
        <ele>395.1</ele>
        <time>2012-09-15T10:18:30.000Z</time>
      </trkpt>
      <trkpt lat="44.07151" lon="5.17262">
        <ele>394.9</ele>
        <time>2012-09-15T10:18:31.000Z</time>
      </trkpt>
      <trkpt lat="44.07148" lon="5.17254">
        <ele>394.9</ele>
        <time>2012-09-15T10:18:32.000Z</time>
      </trkpt>
      <trkpt lat="44.07144" lon="5.17247">
        <ele>394.8</ele>
        <time>2012-09-15T10:18:33.000Z</time>
      </trkpt>
      <trkpt lat="44.07141" lon="5.1724">
        <ele>394.9</ele>
        <time>2012-09-15T10:18:34.000Z</time>
      </trkpt>
      <trkpt lat="44.07138" lon="5.17233">
        <ele>395.1</ele>
        <time>2012-09-15T10:18:35.000Z</time>
      </trkpt>
      <trkpt lat="44.07138" lon="5.17222">
        <ele>394</ele>
        <time>2012-09-15T10:18:36.000Z</time>
      </trkpt>
      <trkpt lat="44.07136" lon="5.17214">
        <ele>393.7</ele>
        <time>2012-09-15T10:18:37.000Z</time>
      </trkpt>
      <trkpt lat="44.07134" lon="5.17205">
        <ele>393</ele>
        <time>2012-09-15T10:18:38.000Z</time>
      </trkpt>
      <trkpt lat="44.07132" lon="5.17196">
        <ele>392.8</ele>
        <time>2012-09-15T10:18:39.000Z</time>
      </trkpt>
      <trkpt lat="44.07129" lon="5.17189">
        <ele>392.6</ele>
        <time>2012-09-15T10:18:40.000Z</time>
      </trkpt>
      <trkpt lat="44.07127" lon="5.17182">
        <ele>392.5</ele>
        <time>2012-09-15T10:18:41.000Z</time>
      </trkpt>
      <trkpt lat="44.07125" lon="5.17177">
        <ele>392.5</ele>
        <time>2012-09-15T10:18:42.000Z</time>
      </trkpt>
      <trkpt lat="44.07124" lon="5.17172">
        <ele>392.4</ele>
        <time>2012-09-15T10:18:43.000Z</time>
      </trkpt>
      <trkpt lat="44.0712" lon="5.17167">
        <ele>392.5</ele>
        <time>2012-09-15T10:18:45.000Z</time>
      </trkpt>
      <trkpt lat="44.07118" lon="5.17164">
        <ele>391.9</ele>
        <time>2012-09-15T10:18:46.000Z</time>
      </trkpt>
      <trkpt lat="44.07117" lon="5.1716">
        <ele>391.6</ele>
        <time>2012-09-15T10:18:47.000Z</time>
      </trkpt>
      <trkpt lat="44.07116" lon="5.17156">
        <ele>392</ele>
        <time>2012-09-15T10:18:48.000Z</time>
      </trkpt>
      <trkpt lat="44.07115" lon="5.17152">
        <ele>392.3</ele>
        <time>2012-09-15T10:18:49.000Z</time>
      </trkpt>
      <trkpt lat="44.07112" lon="5.17147">
        <ele>392.9</ele>
        <time>2012-09-15T10:18:51.000Z</time>
      </trkpt>
      <trkpt lat="44.07112" lon="5.17143">
        <ele>393.2</ele>
        <time>2012-09-15T10:18:52.000Z</time>
      </trkpt>
      <trkpt lat="44.07109" lon="5.17139">
        <ele>392.8</ele>
        <time>2012-09-15T10:18:53.000Z</time>
      </trkpt>
      <trkpt lat="44.07107" lon="5.17135">
        <ele>393.1</ele>
        <time>2012-09-15T10:18:54.000Z</time>
      </trkpt>
      <trkpt lat="44.07105" lon="5.17132">
        <ele>393.2</ele>
        <time>2012-09-15T10:18:55.000Z</time>
      </trkpt>
      <trkpt lat="44.07103" lon="5.17128">
        <ele>393.1</ele>
        <time>2012-09-15T10:18:56.000Z</time>
      </trkpt>
      <trkpt lat="44.07101" lon="5.17123">
        <ele>393</ele>
        <time>2012-09-15T10:18:57.000Z</time>
      </trkpt>
      <trkpt lat="44.071" lon="5.17119">
        <ele>393.1</ele>
        <time>2012-09-15T10:18:58.000Z</time>
      </trkpt>
      <trkpt lat="44.07097" lon="5.17117">
        <ele>393.5</ele>
        <time>2012-09-15T10:18:59.000Z</time>
      </trkpt>
      <trkpt lat="44.07094" lon="5.17116">
        <ele>393.8</ele>
        <time>2012-09-15T10:19:00.000Z</time>
      </trkpt>
      <trkpt lat="44.0709" lon="5.17114">
        <ele>393.4</ele>
        <time>2012-09-15T10:19:01.000Z</time>
      </trkpt>
      <trkpt lat="44.07083" lon="5.17115">
        <ele>393.9</ele>
        <time>2012-09-15T10:19:02.000Z</time>
      </trkpt>
      <trkpt lat="44.0708" lon="5.17113">
        <ele>393.8</ele>
        <time>2012-09-15T10:19:03.000Z</time>
      </trkpt>
      <trkpt lat="44.07076" lon="5.17112">
        <ele>394</ele>
        <time>2012-09-15T10:19:04.000Z</time>
      </trkpt>
      <trkpt lat="44.07073" lon="5.17111">
        <ele>393.9</ele>
        <time>2012-09-15T10:19:05.000Z</time>
      </trkpt>
      <trkpt lat="44.07069" lon="5.1711">
        <ele>393.9</ele>
        <time>2012-09-15T10:19:06.000Z</time>
      </trkpt>
      <trkpt lat="44.07065" lon="5.17109">
        <ele>394.3</ele>
        <time>2012-09-15T10:19:07.000Z</time>
      </trkpt>
      <trkpt lat="44.07061" lon="5.17109">
        <ele>394</ele>
        <time>2012-09-15T10:19:08.000Z</time>
      </trkpt>
      <trkpt lat="44.07058" lon="5.17108">
        <ele>394.4</ele>
        <time>2012-09-15T10:19:09.000Z</time>
      </trkpt>
      <trkpt lat="44.07056" lon="5.17108">
        <ele>394.1</ele>
        <time>2012-09-15T10:19:10.000Z</time>
      </trkpt>
      <trkpt lat="44.07053" lon="5.17107">
        <ele>394.6</ele>
        <time>2012-09-15T10:19:11.000Z</time>
      </trkpt>
      <trkpt lat="44.07049" lon="5.17107">
        <ele>395.1</ele>
        <time>2012-09-15T10:19:12.000Z</time>
      </trkpt>
      <trkpt lat="44.07046" lon="5.17106">
        <ele>394</ele>
        <time>2012-09-15T10:19:13.000Z</time>
      </trkpt>
      <trkpt lat="44.0704" lon="5.17105">
        <ele>394.2</ele>
        <time>2012-09-15T10:19:15.000Z</time>
      </trkpt>
      <trkpt lat="44.07037" lon="5.17106">
        <ele>393.9</ele>
        <time>2012-09-15T10:19:16.000Z</time>
      </trkpt>
      <trkpt lat="44.07034" lon="5.17107">
        <ele>393.6</ele>
        <time>2012-09-15T10:19:17.000Z</time>
      </trkpt>
      <trkpt lat="44.07031" lon="5.17111">
        <ele>393.9</ele>
        <time>2012-09-15T10:19:18.000Z</time>
      </trkpt>
      <trkpt lat="44.07029" lon="5.17119">
        <ele>393.1</ele>
        <time>2012-09-15T10:19:19.000Z</time>
      </trkpt>
      <trkpt lat="44.07027" lon="5.17123">
        <ele>393.3</ele>
        <time>2012-09-15T10:19:20.000Z</time>
      </trkpt>
      <trkpt lat="44.07025" lon="5.17127">
        <ele>393.4</ele>
        <time>2012-09-15T10:19:21.000Z</time>
      </trkpt>
      <trkpt lat="44.07022" lon="5.17132">
        <ele>393.3</ele>
        <time>2012-09-15T10:19:22.000Z</time>
      </trkpt>
      <trkpt lat="44.0702" lon="5.17136">
        <ele>393.2</ele>
        <time>2012-09-15T10:19:23.000Z</time>
      </trkpt>
      <trkpt lat="44.07017" lon="5.17141">
        <ele>392.6</ele>
        <time>2012-09-15T10:19:24.000Z</time>
      </trkpt>
      <trkpt lat="44.07014" lon="5.17146">
        <ele>392.3</ele>
        <time>2012-09-15T10:19:25.000Z</time>
      </trkpt>
      <trkpt lat="44.07012" lon="5.1715">
        <ele>391.9</ele>
        <time>2012-09-15T10:19:26.000Z</time>
      </trkpt>
      <trkpt lat="44.07009" lon="5.17155">
        <ele>391.7</ele>
        <time>2012-09-15T10:19:27.000Z</time>
      </trkpt>
      <trkpt lat="44.07006" lon="5.17159">
        <ele>391.8</ele>
        <time>2012-09-15T10:19:28.000Z</time>
      </trkpt>
      <trkpt lat="44.07004" lon="5.17164">
        <ele>391.5</ele>
        <time>2012-09-15T10:19:29.000Z</time>
      </trkpt>
      <trkpt lat="44.07001" lon="5.17167">
        <ele>391.2</ele>
        <time>2012-09-15T10:19:30.000Z</time>
      </trkpt>
      <trkpt lat="44.06997" lon="5.1717">
        <ele>391.3</ele>
        <time>2012-09-15T10:19:31.000Z</time>
      </trkpt>
      <trkpt lat="44.06995" lon="5.17173">
        <ele>391</ele>
        <time>2012-09-15T10:19:32.000Z</time>
      </trkpt>
      <trkpt lat="44.06992" lon="5.17176">
        <ele>391.1</ele>
        <time>2012-09-15T10:19:33.000Z</time>
      </trkpt>
      <trkpt lat="44.06989" lon="5.1718">
        <ele>391</ele>
        <time>2012-09-15T10:19:34.000Z</time>
      </trkpt>
      <trkpt lat="44.06985" lon="5.17182">
        <ele>391.1</ele>
        <time>2012-09-15T10:19:35.000Z</time>
      </trkpt>
      <trkpt lat="44.06975" lon="5.17181">
        <ele>391.2</ele>
        <time>2012-09-15T10:19:36.000Z</time>
      </trkpt>
      <trkpt lat="44.06972" lon="5.17183">
        <ele>391.7</ele>
        <time>2012-09-15T10:19:37.000Z</time>
      </trkpt>
      <trkpt lat="44.06962" lon="5.17188">
        <ele>381.4</ele>
        <time>2012-09-15T10:19:38.000Z</time>
      </trkpt>
      <trkpt lat="44.06958" lon="5.17189">
        <ele>382.3</ele>
        <time>2012-09-15T10:19:40.000Z</time>
      </trkpt>
      <trkpt lat="44.06954" lon="5.1719">
        <ele>381.2</ele>
        <time>2012-09-15T10:19:41.000Z</time>
      </trkpt>
      <trkpt lat="44.0695" lon="5.1719">
        <ele>381.7</ele>
        <time>2012-09-15T10:19:42.000Z</time>
      </trkpt>
      <trkpt lat="44.06947" lon="5.1719">
        <ele>382.5</ele>
        <time>2012-09-15T10:19:43.000Z</time>
      </trkpt>
      <trkpt lat="44.06944" lon="5.17191">
        <ele>382.7</ele>
        <time>2012-09-15T10:19:44.000Z</time>
      </trkpt>
      <trkpt lat="44.06939" lon="5.17192">
        <ele>382.3</ele>
        <time>2012-09-15T10:19:45.000Z</time>
      </trkpt>
      <trkpt lat="44.06935" lon="5.1719">
        <ele>381.7</ele>
        <time>2012-09-15T10:19:46.000Z</time>
      </trkpt>
      <trkpt lat="44.06931" lon="5.17191">
        <ele>381.1</ele>
        <time>2012-09-15T10:19:47.000Z</time>
      </trkpt>
      <trkpt lat="44.06926" lon="5.17191">
        <ele>380.3</ele>
        <time>2012-09-15T10:19:48.000Z</time>
      </trkpt>
      <trkpt lat="44.0692" lon="5.17195">
        <ele>379.9</ele>
        <time>2012-09-15T10:19:49.000Z</time>
      </trkpt>
      <trkpt lat="44.06918" lon="5.17188">
        <ele>382.8</ele>
        <time>2012-09-15T10:19:50.000Z</time>
      </trkpt>
      <trkpt lat="44.06911" lon="5.17186">
        <ele>382.9</ele>
        <time>2012-09-15T10:19:52.000Z</time>
      </trkpt>
      <trkpt lat="44.06906" lon="5.17184">
        <ele>382.5</ele>
        <time>2012-09-15T10:19:53.000Z</time>
      </trkpt>
      <trkpt lat="44.06901" lon="5.17183">
        <ele>382.8</ele>
        <time>2012-09-15T10:19:54.000Z</time>
      </trkpt>
      <trkpt lat="44.06898" lon="5.17182">
        <ele>382.9</ele>
        <time>2012-09-15T10:19:55.000Z</time>
      </trkpt>
      <trkpt lat="44.06896" lon="5.17177">
        <ele>384.9</ele>
        <time>2012-09-15T10:19:58.000Z</time>
      </trkpt>
      <trkpt lat="44.06892" lon="5.17174">
        <ele>384.7</ele>
        <time>2012-09-15T10:20:00.000Z</time>
      </trkpt>
      <trkpt lat="44.0689" lon="5.17172">
        <ele>384.5</ele>
        <time>2012-09-15T10:20:01.000Z</time>
      </trkpt>
      <trkpt lat="44.06885" lon="5.17169">
        <ele>385.4</ele>
        <time>2012-09-15T10:20:02.000Z</time>
      </trkpt>
      <trkpt lat="44.06881" lon="5.17166">
        <ele>385.5</ele>
        <time>2012-09-15T10:20:03.000Z</time>
      </trkpt>
      <trkpt lat="44.06877" lon="5.17166">
        <ele>385.2</ele>
        <time>2012-09-15T10:20:04.000Z</time>
      </trkpt>
      <trkpt lat="44.06873" lon="5.17165">
        <ele>385.9</ele>
        <time>2012-09-15T10:20:05.000Z</time>
      </trkpt>
      <trkpt lat="44.0687" lon="5.17163">
        <ele>385.8</ele>
        <time>2012-09-15T10:20:06.000Z</time>
      </trkpt>
      <trkpt lat="44.06866" lon="5.17162">
        <ele>385.7</ele>
        <time>2012-09-15T10:20:07.000Z</time>
      </trkpt>
      <trkpt lat="44.06863" lon="5.17162">
        <ele>386.3</ele>
        <time>2012-09-15T10:20:08.000Z</time>
      </trkpt>
      <trkpt lat="44.0686" lon="5.17161">
        <ele>386.7</ele>
        <time>2012-09-15T10:20:09.000Z</time>
      </trkpt>
      <trkpt lat="44.06857" lon="5.17161">
        <ele>386.7</ele>
        <time>2012-09-15T10:20:10.000Z</time>
      </trkpt>
      <trkpt lat="44.06854" lon="5.17161">
        <ele>386.9</ele>
        <time>2012-09-15T10:20:11.000Z</time>
      </trkpt>
      <trkpt lat="44.0685" lon="5.17158">
        <ele>385.4</ele>
        <time>2012-09-15T10:20:13.000Z</time>
      </trkpt>
      <trkpt lat="44.06847" lon="5.17157">
        <ele>385.4</ele>
        <time>2012-09-15T10:20:14.000Z</time>
      </trkpt>
      <trkpt lat="44.06843" lon="5.17156">
        <ele>386.5</ele>
        <time>2012-09-15T10:20:15.000Z</time>
      </trkpt>
      <trkpt lat="44.0684" lon="5.17154">
        <ele>386.5</ele>
        <time>2012-09-15T10:20:16.000Z</time>
      </trkpt>
      <trkpt lat="44.06837" lon="5.17154">
        <ele>386.6</ele>
        <time>2012-09-15T10:20:17.000Z</time>
      </trkpt>
      <trkpt lat="44.06834" lon="5.17153">
        <ele>386.8</ele>
        <time>2012-09-15T10:20:18.000Z</time>
      </trkpt>
      <trkpt lat="44.0683" lon="5.17153">
        <ele>387.8</ele>
        <time>2012-09-15T10:20:20.000Z</time>
      </trkpt>
      <trkpt lat="44.06827" lon="5.17152">
        <ele>388.8</ele>
        <time>2012-09-15T10:20:22.000Z</time>
      </trkpt>
      <trkpt lat="44.06824" lon="5.17152">
        <ele>389.1</ele>
        <time>2012-09-15T10:20:23.000Z</time>
      </trkpt>
      <trkpt lat="44.06821" lon="5.17152">
        <ele>389.5</ele>
        <time>2012-09-15T10:20:24.000Z</time>
      </trkpt>
      <trkpt lat="44.06816" lon="5.17154">
        <ele>389.6</ele>
        <time>2012-09-15T10:20:25.000Z</time>
      </trkpt>
      <trkpt lat="44.06812" lon="5.17155">
        <ele>389.5</ele>
        <time>2012-09-15T10:20:26.000Z</time>
      </trkpt>
      <trkpt lat="44.06808" lon="5.17156">
        <ele>390</ele>
        <time>2012-09-15T10:20:27.000Z</time>
      </trkpt>
      <trkpt lat="44.06802" lon="5.17155">
        <ele>391.2</ele>
        <time>2012-09-15T10:20:28.000Z</time>
      </trkpt>
      <trkpt lat="44.06798" lon="5.17153">
        <ele>391.6</ele>
        <time>2012-09-15T10:20:29.000Z</time>
      </trkpt>
      <trkpt lat="44.06794" lon="5.17152">
        <ele>391.8</ele>
        <time>2012-09-15T10:20:30.000Z</time>
      </trkpt>
      <trkpt lat="44.0679" lon="5.17151">
        <ele>392.1</ele>
        <time>2012-09-15T10:20:31.000Z</time>
      </trkpt>
      <trkpt lat="44.06784" lon="5.1715">
        <ele>390.7</ele>
        <time>2012-09-15T10:20:32.000Z</time>
      </trkpt>
      <trkpt lat="44.06778" lon="5.17148">
        <ele>390.7</ele>
        <time>2012-09-15T10:20:33.000Z</time>
      </trkpt>
      <trkpt lat="44.06774" lon="5.17146">
        <ele>390.4</ele>
        <time>2012-09-15T10:20:34.000Z</time>
      </trkpt>
      <trkpt lat="44.0677" lon="5.17144">
        <ele>390.8</ele>
        <time>2012-09-15T10:20:35.000Z</time>
      </trkpt>
      <trkpt lat="44.06766" lon="5.1714">
        <ele>390.3</ele>
        <time>2012-09-15T10:20:36.000Z</time>
      </trkpt>
      <trkpt lat="44.06763" lon="5.17137">
        <ele>389.8</ele>
        <time>2012-09-15T10:20:37.000Z</time>
      </trkpt>
      <trkpt lat="44.0676" lon="5.17135">
        <ele>389.3</ele>
        <time>2012-09-15T10:20:38.000Z</time>
      </trkpt>
      <trkpt lat="44.06756" lon="5.17134">
        <ele>389.2</ele>
        <time>2012-09-15T10:20:39.000Z</time>
      </trkpt>
      <trkpt lat="44.0675" lon="5.17135">
        <ele>389</ele>
        <time>2012-09-15T10:20:41.000Z</time>
      </trkpt>
      <trkpt lat="44.06751" lon="5.17141">
        <ele>388.5</ele>
        <time>2012-09-15T10:20:42.000Z</time>
      </trkpt>
      <trkpt lat="44.06748" lon="5.17143">
        <ele>388.4</ele>
        <time>2012-09-15T10:20:43.000Z</time>
      </trkpt>
      <trkpt lat="44.06745" lon="5.1714">
        <ele>387.6</ele>
        <time>2012-09-15T10:20:44.000Z</time>
      </trkpt>
      <trkpt lat="44.06741" lon="5.17136">
        <ele>385.8</ele>
        <time>2012-09-15T10:20:46.000Z</time>
      </trkpt>
      <trkpt lat="44.06738" lon="5.17132">
        <ele>386.2</ele>
        <time>2012-09-15T10:20:48.000Z</time>
      </trkpt>
      <trkpt lat="44.06732" lon="5.1714">
        <ele>384.2</ele>
        <time>2012-09-15T10:20:50.000Z</time>
      </trkpt>
      <trkpt lat="44.06729" lon="5.17144">
        <ele>382.3</ele>
        <time>2012-09-15T10:20:51.000Z</time>
      </trkpt>
      <trkpt lat="44.06726" lon="5.17148">
        <ele>382.1</ele>
        <time>2012-09-15T10:20:52.000Z</time>
      </trkpt>
      <trkpt lat="44.06725" lon="5.17151">
        <ele>383.1</ele>
        <time>2012-09-15T10:20:53.000Z</time>
      </trkpt>
      <trkpt lat="44.06724" lon="5.17156">
        <ele>386.9</ele>
        <time>2012-09-15T10:20:55.000Z</time>
      </trkpt>
      <trkpt lat="44.06713" lon="5.17152">
        <ele>384.5</ele>
        <time>2012-09-15T10:20:56.000Z</time>
      </trkpt>
      <trkpt lat="44.06709" lon="5.17153">
        <ele>384.5</ele>
        <time>2012-09-15T10:20:57.000Z</time>
      </trkpt>
      <trkpt lat="44.06706" lon="5.17159">
        <ele>383.2</ele>
        <time>2012-09-15T10:20:58.000Z</time>
      </trkpt>
      <trkpt lat="44.06701" lon="5.17162">
        <ele>381.2</ele>
        <time>2012-09-15T10:20:59.000Z</time>
      </trkpt>
      <trkpt lat="44.06697" lon="5.17166">
        <ele>380.4</ele>
        <time>2012-09-15T10:21:00.000Z</time>
      </trkpt>
      <trkpt lat="44.06694" lon="5.17172">
        <ele>379.5</ele>
        <time>2012-09-15T10:21:01.000Z</time>
      </trkpt>
      <trkpt lat="44.0669" lon="5.17177">
        <ele>378.9</ele>
        <time>2012-09-15T10:21:02.000Z</time>
      </trkpt>
      <trkpt lat="44.06684" lon="5.17179">
        <ele>378.2</ele>
        <time>2012-09-15T10:21:03.000Z</time>
      </trkpt>
      <trkpt lat="44.06676" lon="5.17178">
        <ele>377.7</ele>
        <time>2012-09-15T10:21:04.000Z</time>
      </trkpt>
      <trkpt lat="44.0667" lon="5.17176">
        <ele>376.5</ele>
        <time>2012-09-15T10:21:05.000Z</time>
      </trkpt>
      <trkpt lat="44.06666" lon="5.17175">
        <ele>375.7</ele>
        <time>2012-09-15T10:21:06.000Z</time>
      </trkpt>
      <trkpt lat="44.06661" lon="5.17175">
        <ele>375.5</ele>
        <time>2012-09-15T10:21:07.000Z</time>
      </trkpt>
      <trkpt lat="44.06656" lon="5.17169">
        <ele>373.5</ele>
        <time>2012-09-15T10:21:09.000Z</time>
      </trkpt>
      <trkpt lat="44.06655" lon="5.17164">
        <ele>372.9</ele>
        <time>2012-09-15T10:21:10.000Z</time>
      </trkpt>
      <trkpt lat="44.06652" lon="5.17161">
        <ele>371.8</ele>
        <time>2012-09-15T10:21:11.000Z</time>
      </trkpt>
      <trkpt lat="44.0665" lon="5.17158">
        <ele>371.4</ele>
        <time>2012-09-15T10:21:12.000Z</time>
      </trkpt>
      <trkpt lat="44.06646" lon="5.17152">
        <ele>371.1</ele>
        <time>2012-09-15T10:21:14.000Z</time>
      </trkpt>
      <trkpt lat="44.06643" lon="5.1715">
        <ele>370.7</ele>
        <time>2012-09-15T10:21:15.000Z</time>
      </trkpt>
      <trkpt lat="44.0664" lon="5.17148">
        <ele>370.3</ele>
        <time>2012-09-15T10:21:17.000Z</time>
      </trkpt>
      <trkpt lat="44.06638" lon="5.17145">
        <ele>369.8</ele>
        <time>2012-09-15T10:21:20.000Z</time>
      </trkpt>
      <trkpt lat="44.06638" lon="5.17141">
        <ele>369.1</ele>
        <time>2012-09-15T10:22:21.000Z</time>
      </trkpt>
      <trkpt lat="44.0664" lon="5.17144">
        <ele>369.3</ele>
        <time>2012-09-15T10:23:54.000Z</time>
      </trkpt>
      <trkpt lat="44.06644" lon="5.17148">
        <ele>372.6</ele>
        <time>2012-09-15T10:23:58.000Z</time>
      </trkpt>
      <trkpt lat="44.06641" lon="5.17147">
        <ele>371.7</ele>
        <time>2012-09-15T10:24:08.000Z</time>
      </trkpt>
      <trkpt lat="44.06638" lon="5.17147">
        <ele>370.4</ele>
        <time>2012-09-15T10:24:21.000Z</time>
      </trkpt>
      <trkpt lat="44.0664" lon="5.17141">
        <ele>369.9</ele>
        <time>2012-09-15T10:24:24.000Z</time>
      </trkpt>
      <trkpt lat="44.06642" lon="5.17134">
        <ele>369.3</ele>
        <time>2012-09-15T10:24:26.000Z</time>
      </trkpt>
      <trkpt lat="44.06644" lon="5.17125">
        <ele>367.8</ele>
        <time>2012-09-15T10:24:28.000Z</time>
      </trkpt>
      <trkpt lat="44.06646" lon="5.17118">
        <ele>367.2</ele>
        <time>2012-09-15T10:24:29.000Z</time>
      </trkpt>
      <trkpt lat="44.06648" lon="5.17112">
        <ele>366.5</ele>
        <time>2012-09-15T10:24:30.000Z</time>
      </trkpt>
      <trkpt lat="44.0665" lon="5.17105">
        <ele>366.2</ele>
        <time>2012-09-15T10:24:31.000Z</time>
      </trkpt>
      <trkpt lat="44.06651" lon="5.17098">
        <ele>365.8</ele>
        <time>2012-09-15T10:24:32.000Z</time>
      </trkpt>
      <trkpt lat="44.06653" lon="5.17092">
        <ele>365.3</ele>
        <time>2012-09-15T10:24:33.000Z</time>
      </trkpt>
      <trkpt lat="44.06655" lon="5.17084">
        <ele>364.3</ele>
        <time>2012-09-15T10:24:34.000Z</time>
      </trkpt>
      <trkpt lat="44.06657" lon="5.17077">
        <ele>364.1</ele>
        <time>2012-09-15T10:24:35.000Z</time>
      </trkpt>
      <trkpt lat="44.0666" lon="5.17072">
        <ele>364.7</ele>
        <time>2012-09-15T10:24:36.000Z</time>
      </trkpt>
      <trkpt lat="44.06664" lon="5.17068">
        <ele>365.9</ele>
        <time>2012-09-15T10:24:37.000Z</time>
      </trkpt>
      <trkpt lat="44.0667" lon="5.17063">
        <ele>366.8</ele>
        <time>2012-09-15T10:24:38.000Z</time>
      </trkpt>
      <trkpt lat="44.06676" lon="5.17057">
        <ele>367.2</ele>
        <time>2012-09-15T10:24:39.000Z</time>
      </trkpt>
      <trkpt lat="44.06678" lon="5.17053">
        <ele>366.9</ele>
        <time>2012-09-15T10:24:40.000Z</time>
      </trkpt>
      <trkpt lat="44.0668" lon="5.17044">
        <ele>366.8</ele>
        <time>2012-09-15T10:24:41.000Z</time>
      </trkpt>
      <trkpt lat="44.0668" lon="5.17035">
        <ele>367.1</ele>
        <time>2012-09-15T10:24:42.000Z</time>
      </trkpt>
      <trkpt lat="44.06681" lon="5.17026">
        <ele>366.4</ele>
        <time>2012-09-15T10:24:43.000Z</time>
      </trkpt>
      <trkpt lat="44.06681" lon="5.17017">
        <ele>365.3</ele>
        <time>2012-09-15T10:24:44.000Z</time>
      </trkpt>
      <trkpt lat="44.06682" lon="5.1701">
        <ele>364.8</ele>
        <time>2012-09-15T10:24:45.000Z</time>
      </trkpt>
      <trkpt lat="44.06685" lon="5.17003">
        <ele>364.6</ele>
        <time>2012-09-15T10:24:46.000Z</time>
      </trkpt>
      <trkpt lat="44.06687" lon="5.16995">
        <ele>363.9</ele>
        <time>2012-09-15T10:24:47.000Z</time>
      </trkpt>
      <trkpt lat="44.0669" lon="5.16988">
        <ele>363.4</ele>
        <time>2012-09-15T10:24:48.000Z</time>
      </trkpt>
      <trkpt lat="44.06691" lon="5.16979">
        <ele>363.2</ele>
        <time>2012-09-15T10:24:49.000Z</time>
      </trkpt>
      <trkpt lat="44.06693" lon="5.16972">
        <ele>363.1</ele>
        <time>2012-09-15T10:24:50.000Z</time>
      </trkpt>
      <trkpt lat="44.06697" lon="5.16965">
        <ele>362.5</ele>
        <time>2012-09-15T10:24:51.000Z</time>
      </trkpt>
      <trkpt lat="44.06699" lon="5.16958">
        <ele>361.8</ele>
        <time>2012-09-15T10:24:52.000Z</time>
      </trkpt>
      <trkpt lat="44.06702" lon="5.1695">
        <ele>361.6</ele>
        <time>2012-09-15T10:24:53.000Z</time>
      </trkpt>
      <trkpt lat="44.06703" lon="5.16942">
        <ele>361.5</ele>
        <time>2012-09-15T10:24:54.000Z</time>
      </trkpt>
      <trkpt lat="44.06704" lon="5.16934">
        <ele>361.3</ele>
        <time>2012-09-15T10:24:55.000Z</time>
      </trkpt>
      <trkpt lat="44.06704" lon="5.1693">
        <ele>360.9</ele>
        <time>2012-09-15T10:24:56.000Z</time>
      </trkpt>
      <trkpt lat="44.06707" lon="5.16919">
        <ele>360.3</ele>
        <time>2012-09-15T10:24:57.000Z</time>
      </trkpt>
      <trkpt lat="44.0671" lon="5.16911">
        <ele>359.9</ele>
        <time>2012-09-15T10:24:58.000Z</time>
      </trkpt>
      <trkpt lat="44.06713" lon="5.16902">
        <ele>359.6</ele>
        <time>2012-09-15T10:24:59.000Z</time>
      </trkpt>
      <trkpt lat="44.06714" lon="5.16895">
        <ele>358.6</ele>
        <time>2012-09-15T10:25:00.000Z</time>
      </trkpt>
      <trkpt lat="44.0672" lon="5.16887">
        <ele>355.7</ele>
        <time>2012-09-15T10:25:01.000Z</time>
      </trkpt>
      <trkpt lat="44.06723" lon="5.16879">
        <ele>353.9</ele>
        <time>2012-09-15T10:25:02.000Z</time>
      </trkpt>
      <trkpt lat="44.06724" lon="5.16873">
        <ele>352.9</ele>
        <time>2012-09-15T10:25:03.000Z</time>
      </trkpt>
      <trkpt lat="44.06726" lon="5.16867">
        <ele>352.6</ele>
        <time>2012-09-15T10:25:04.000Z</time>
      </trkpt>
      <trkpt lat="44.06728" lon="5.16862">
        <ele>351.8</ele>
        <time>2012-09-15T10:25:05.000Z</time>
      </trkpt>
      <trkpt lat="44.06729" lon="5.16858">
        <ele>351.1</ele>
        <time>2012-09-15T10:25:06.000Z</time>
      </trkpt>
      <trkpt lat="44.06725" lon="5.16856">
        <ele>349.8</ele>
        <time>2012-09-15T10:25:07.000Z</time>
      </trkpt>
      <trkpt lat="44.06726" lon="5.16852">
        <ele>348.7</ele>
        <time>2012-09-15T10:25:08.000Z</time>
      </trkpt>
      <trkpt lat="44.06725" lon="5.16846">
        <ele>347.4</ele>
        <time>2012-09-15T10:25:09.000Z</time>
      </trkpt>
      <trkpt lat="44.06725" lon="5.16839">
        <ele>345.5</ele>
        <time>2012-09-15T10:25:10.000Z</time>
      </trkpt>
      <trkpt lat="44.06725" lon="5.16833">
        <ele>344.9</ele>
        <time>2012-09-15T10:25:11.000Z</time>
      </trkpt>
      <trkpt lat="44.06726" lon="5.16824">
        <ele>344.5</ele>
        <time>2012-09-15T10:25:12.000Z</time>
      </trkpt>
      <trkpt lat="44.06728" lon="5.16817">
        <ele>344.3</ele>
        <time>2012-09-15T10:25:13.000Z</time>
      </trkpt>
      <trkpt lat="44.0673" lon="5.16809">
        <ele>343.9</ele>
        <time>2012-09-15T10:25:14.000Z</time>
      </trkpt>
      <trkpt lat="44.06733" lon="5.16802">
        <ele>343.4</ele>
        <time>2012-09-15T10:25:15.000Z</time>
      </trkpt>
      <trkpt lat="44.06736" lon="5.16794">
        <ele>343.3</ele>
        <time>2012-09-15T10:25:16.000Z</time>
      </trkpt>
      <trkpt lat="44.06739" lon="5.16787">
        <ele>342.5</ele>
        <time>2012-09-15T10:25:17.000Z</time>
      </trkpt>
      <trkpt lat="44.06741" lon="5.1678">
        <ele>342.1</ele>
        <time>2012-09-15T10:25:18.000Z</time>
      </trkpt>
      <trkpt lat="44.06743" lon="5.16772">
        <ele>341.4</ele>
        <time>2012-09-15T10:25:19.000Z</time>
      </trkpt>
      <trkpt lat="44.06746" lon="5.16765">
        <ele>340.9</ele>
        <time>2012-09-15T10:25:20.000Z</time>
      </trkpt>
      <trkpt lat="44.06748" lon="5.16757">
        <ele>340.7</ele>
        <time>2012-09-15T10:25:21.000Z</time>
      </trkpt>
      <trkpt lat="44.0675" lon="5.16748">
        <ele>340.4</ele>
        <time>2012-09-15T10:25:22.000Z</time>
      </trkpt>
      <trkpt lat="44.06749" lon="5.16739">
        <ele>339.7</ele>
        <time>2012-09-15T10:25:23.000Z</time>
      </trkpt>
      <trkpt lat="44.0675" lon="5.16732">
        <ele>339.8</ele>
        <time>2012-09-15T10:25:24.000Z</time>
      </trkpt>
      <trkpt lat="44.0675" lon="5.16725">
        <ele>339</ele>
        <time>2012-09-15T10:25:25.000Z</time>
      </trkpt>
      <trkpt lat="44.06749" lon="5.16718">
        <ele>339</ele>
        <time>2012-09-15T10:25:26.000Z</time>
      </trkpt>
      <trkpt lat="44.0675" lon="5.16714">
        <ele>339.5</ele>
        <time>2012-09-15T10:25:27.000Z</time>
      </trkpt>
      <trkpt lat="44.06754" lon="5.16718">
        <ele>340.6</ele>
        <time>2012-09-15T10:25:29.000Z</time>
      </trkpt>
      <trkpt lat="44.0676" lon="5.16711">
        <ele>342.4</ele>
        <time>2012-09-15T10:25:31.000Z</time>
      </trkpt>
      <trkpt lat="44.06761" lon="5.16699">
        <ele>343.7</ele>
        <time>2012-09-15T10:25:32.000Z</time>
      </trkpt>
      <trkpt lat="44.06764" lon="5.16691">
        <ele>343.6</ele>
        <time>2012-09-15T10:25:33.000Z</time>
      </trkpt>
      <trkpt lat="44.06766" lon="5.16682">
        <ele>343</ele>
        <time>2012-09-15T10:25:34.000Z</time>
      </trkpt>
      <trkpt lat="44.06767" lon="5.16675">
        <ele>342.2</ele>
        <time>2012-09-15T10:25:35.000Z</time>
      </trkpt>
      <trkpt lat="44.06768" lon="5.16668">
        <ele>341.7</ele>
        <time>2012-09-15T10:25:36.000Z</time>
      </trkpt>
      <trkpt lat="44.06769" lon="5.16662">
        <ele>341.4</ele>
        <time>2012-09-15T10:25:37.000Z</time>
      </trkpt>
      <trkpt lat="44.0677" lon="5.16656">
        <ele>341.3</ele>
        <time>2012-09-15T10:25:38.000Z</time>
      </trkpt>
      <trkpt lat="44.06772" lon="5.16651">
        <ele>341.2</ele>
        <time>2012-09-15T10:25:39.000Z</time>
      </trkpt>
      <trkpt lat="44.06773" lon="5.16644">
        <ele>341.7</ele>
        <time>2012-09-15T10:25:40.000Z</time>
      </trkpt>
      <trkpt lat="44.06773" lon="5.1664">
        <ele>335.2</ele>
        <time>2012-09-15T10:25:41.000Z</time>
      </trkpt>
      <trkpt lat="44.06773" lon="5.16634">
        <ele>334.1</ele>
        <time>2012-09-15T10:25:42.000Z</time>
      </trkpt>
      <trkpt lat="44.06774" lon="5.1663">
        <ele>332.8</ele>
        <time>2012-09-15T10:25:43.000Z</time>
      </trkpt>
      <trkpt lat="44.06774" lon="5.16625">
        <ele>331.9</ele>
        <time>2012-09-15T10:25:44.000Z</time>
      </trkpt>
      <trkpt lat="44.06773" lon="5.16622">
        <ele>331.5</ele>
        <time>2012-09-15T10:25:45.000Z</time>
      </trkpt>
      <trkpt lat="44.06772" lon="5.16614">
        <ele>330.4</ele>
        <time>2012-09-15T10:25:47.000Z</time>
      </trkpt>
      <trkpt lat="44.06772" lon="5.16609">
        <ele>329.6</ele>
        <time>2012-09-15T10:25:48.000Z</time>
      </trkpt>
      <trkpt lat="44.06773" lon="5.16605">
        <ele>328.9</ele>
        <time>2012-09-15T10:25:49.000Z</time>
      </trkpt>
      <trkpt lat="44.06774" lon="5.16599">
        <ele>327.5</ele>
        <time>2012-09-15T10:25:50.000Z</time>
      </trkpt>
      <trkpt lat="44.06775" lon="5.16591">
        <ele>326.2</ele>
        <time>2012-09-15T10:25:51.000Z</time>
      </trkpt>
      <trkpt lat="44.06776" lon="5.16583">
        <ele>324.9</ele>
        <time>2012-09-15T10:25:52.000Z</time>
      </trkpt>
      <trkpt lat="44.06778" lon="5.16576">
        <ele>324.1</ele>
        <time>2012-09-15T10:25:53.000Z</time>
      </trkpt>
      <trkpt lat="44.0678" lon="5.16569">
        <ele>323</ele>
        <time>2012-09-15T10:25:54.000Z</time>
      </trkpt>
      <trkpt lat="44.06783" lon="5.16563">
        <ele>323.4</ele>
        <time>2012-09-15T10:25:55.000Z</time>
      </trkpt>
      <trkpt lat="44.06786" lon="5.16558">
        <ele>323.7</ele>
        <time>2012-09-15T10:25:56.000Z</time>
      </trkpt>
      <trkpt lat="44.06792" lon="5.16558">
        <ele>324.9</ele>
        <time>2012-09-15T10:25:57.000Z</time>
      </trkpt>
      <trkpt lat="44.06789" lon="5.16554">
        <ele>323</ele>
        <time>2012-09-15T10:25:58.000Z</time>
      </trkpt>
      <trkpt lat="44.06792" lon="5.16546">
        <ele>321.8</ele>
        <time>2012-09-15T10:26:00.000Z</time>
      </trkpt>
      <trkpt lat="44.06793" lon="5.16541">
        <ele>320.6</ele>
        <time>2012-09-15T10:26:01.000Z</time>
      </trkpt>
      <trkpt lat="44.06791" lon="5.16549">
        <ele>322.1</ele>
        <time>2012-09-15T10:26:02.000Z</time>
      </trkpt>
      <trkpt lat="44.06792" lon="5.16545">
        <ele>320.5</ele>
        <time>2012-09-15T10:26:41.000Z</time>
      </trkpt>
      <trkpt lat="44.06797" lon="5.16537">
        <ele>322.8</ele>
        <time>2012-09-15T10:27:03.000Z</time>
      </trkpt>
      <trkpt lat="44.068" lon="5.16535">
        <ele>322</ele>
        <time>2012-09-15T10:27:05.000Z</time>
      </trkpt>
      <trkpt lat="44.06803" lon="5.16534">
        <ele>321.7</ele>
        <time>2012-09-15T10:27:06.000Z</time>
      </trkpt>
      <trkpt lat="44.06808" lon="5.16533">
        <ele>320.7</ele>
        <time>2012-09-15T10:27:08.000Z</time>
      </trkpt>
      <trkpt lat="44.06811" lon="5.16532">
        <ele>320.2</ele>
        <time>2012-09-15T10:27:09.000Z</time>
      </trkpt>
      <trkpt lat="44.06815" lon="5.16531">
        <ele>319.5</ele>
        <time>2012-09-15T10:27:10.000Z</time>
      </trkpt>
      <trkpt lat="44.06819" lon="5.16529">
        <ele>318.8</ele>
        <time>2012-09-15T10:27:11.000Z</time>
      </trkpt>
      <trkpt lat="44.06822" lon="5.16526">
        <ele>318.1</ele>
        <time>2012-09-15T10:27:12.000Z</time>
      </trkpt>
      <trkpt lat="44.06826" lon="5.16522">
        <ele>317.5</ele>
        <time>2012-09-15T10:27:13.000Z</time>
      </trkpt>
      <trkpt lat="44.06829" lon="5.16519">
        <ele>317.5</ele>
        <time>2012-09-15T10:27:14.000Z</time>
      </trkpt>
      <trkpt lat="44.0683" lon="5.16515">
        <ele>317.9</ele>
        <time>2012-09-15T10:27:15.000Z</time>
      </trkpt>
      <trkpt lat="44.06832" lon="5.16512">
        <ele>318.1</ele>
        <time>2012-09-15T10:27:16.000Z</time>
      </trkpt>
      <trkpt lat="44.06833" lon="5.16508">
        <ele>318.4</ele>
        <time>2012-09-15T10:27:17.000Z</time>
      </trkpt>
      <trkpt lat="44.06832" lon="5.16504">
        <ele>317.1</ele>
        <time>2012-09-15T10:27:19.000Z</time>
      </trkpt>
      <trkpt lat="44.06829" lon="5.16502">
        <ele>315.8</ele>
        <time>2012-09-15T10:27:22.000Z</time>
      </trkpt>
      <trkpt lat="44.06831" lon="5.16498">
        <ele>313.6</ele>
        <time>2012-09-15T10:27:32.000Z</time>
      </trkpt>
      <trkpt lat="44.06828" lon="5.16494">
        <ele>313.4</ele>
        <time>2012-09-15T10:27:35.000Z</time>
      </trkpt>
      <trkpt lat="44.0683" lon="5.16499">
        <ele>315.9</ele>
        <time>2012-09-15T10:28:04.000Z</time>
      </trkpt>
      <trkpt lat="44.06826" lon="5.165">
        <ele>314.9</ele>
        <time>2012-09-15T10:28:07.000Z</time>
      </trkpt>
      <trkpt lat="44.06822" lon="5.16499">
        <ele>313.7</ele>
        <time>2012-09-15T10:28:09.000Z</time>
      </trkpt>
      <trkpt lat="44.06819" lon="5.16498">
        <ele>314</ele>
        <time>2012-09-15T10:29:02.000Z</time>
      </trkpt>
      <trkpt lat="44.06814" lon="5.16496">
        <ele>313.9</ele>
        <time>2012-09-15T10:29:04.000Z</time>
      </trkpt>
      <trkpt lat="44.06809" lon="5.16498">
        <ele>314.9</ele>
        <time>2012-09-15T10:29:07.000Z</time>
      </trkpt>
      <trkpt lat="44.06805" lon="5.16497">
        <ele>314.4</ele>
        <time>2012-09-15T10:29:09.000Z</time>
      </trkpt>
      <trkpt lat="44.068" lon="5.16496">
        <ele>314.3</ele>
        <time>2012-09-15T10:29:11.000Z</time>
      </trkpt>
      <trkpt lat="44.06795" lon="5.16498">
        <ele>314</ele>
        <time>2012-09-15T10:29:12.000Z</time>
      </trkpt>
      <trkpt lat="44.0679" lon="5.16497">
        <ele>313.7</ele>
        <time>2012-09-15T10:29:13.000Z</time>
      </trkpt>
      <trkpt lat="44.06784" lon="5.16496">
        <ele>315.3</ele>
        <time>2012-09-15T10:29:15.000Z</time>
      </trkpt>
      <trkpt lat="44.06781" lon="5.16494">
        <ele>315.3</ele>
        <time>2012-09-15T10:29:18.000Z</time>
      </trkpt>
      <trkpt lat="44.06777" lon="5.16494">
        <ele>314</ele>
        <time>2012-09-15T10:29:41.000Z</time>
      </trkpt>
      <trkpt lat="44.06772" lon="5.16494">
        <ele>313.5</ele>
        <time>2012-09-15T10:29:42.000Z</time>
      </trkpt>
      <trkpt lat="44.06767" lon="5.16494">
        <ele>313.6</ele>
        <time>2012-09-15T10:29:44.000Z</time>
      </trkpt>
      <trkpt lat="44.06763" lon="5.16495">
        <ele>313.6</ele>
        <time>2012-09-15T10:29:46.000Z</time>
      </trkpt>
      <trkpt lat="44.06756" lon="5.16494">
        <ele>312.9</ele>
        <time>2012-09-15T10:29:48.000Z</time>
      </trkpt>
      <trkpt lat="44.0675" lon="5.16488">
        <ele>312.9</ele>
        <time>2012-09-15T10:29:50.000Z</time>
      </trkpt>
      <trkpt lat="44.06746" lon="5.16483">
        <ele>313.7</ele>
        <time>2012-09-15T10:29:51.000Z</time>
      </trkpt>
      <trkpt lat="44.06743" lon="5.1648">
        <ele>313.5</ele>
        <time>2012-09-15T10:29:52.000Z</time>
      </trkpt>
      <trkpt lat="44.06746" lon="5.16476">
        <ele>314.9</ele>
        <time>2012-09-15T10:29:53.000Z</time>
      </trkpt>
      <trkpt lat="44.06743" lon="5.16474">
        <ele>313.8</ele>
        <time>2012-09-15T10:29:54.000Z</time>
      </trkpt>
      <trkpt lat="44.06743" lon="5.1647">
        <ele>314.1</ele>
        <time>2012-09-15T10:29:55.000Z</time>
      </trkpt>
      <trkpt lat="44.06742" lon="5.16465">
        <ele>314.4</ele>
        <time>2012-09-15T10:29:56.000Z</time>
      </trkpt>
      <trkpt lat="44.06735" lon="5.16455">
        <ele>312.3</ele>
        <time>2012-09-15T10:29:57.000Z</time>
      </trkpt>
      <trkpt lat="44.06732" lon="5.16447">
        <ele>311.1</ele>
        <time>2012-09-15T10:29:58.000Z</time>
      </trkpt>
      <trkpt lat="44.0673" lon="5.1644">
        <ele>310.7</ele>
        <time>2012-09-15T10:29:59.000Z</time>
      </trkpt>
      <trkpt lat="44.06728" lon="5.16436">
        <ele>310.2</ele>
        <time>2012-09-15T10:30:00.000Z</time>
      </trkpt>
      <trkpt lat="44.06727" lon="5.16431">
        <ele>309.9</ele>
        <time>2012-09-15T10:30:01.000Z</time>
      </trkpt>
      <trkpt lat="44.06724" lon="5.16422">
        <ele>309.8</ele>
        <time>2012-09-15T10:30:02.000Z</time>
      </trkpt>
      <trkpt lat="44.06722" lon="5.16414">
        <ele>308.9</ele>
        <time>2012-09-15T10:30:03.000Z</time>
      </trkpt>
      <trkpt lat="44.06718" lon="5.16406">
        <ele>308.7</ele>
        <time>2012-09-15T10:30:04.000Z</time>
      </trkpt>
      <trkpt lat="44.06714" lon="5.16394">
        <ele>308.4</ele>
        <time>2012-09-15T10:30:06.000Z</time>
      </trkpt>
      <trkpt lat="44.06711" lon="5.16392">
        <ele>308.1</ele>
        <time>2012-09-15T10:30:07.000Z</time>
      </trkpt>
      <trkpt lat="44.06708" lon="5.16392">
        <ele>307.8</ele>
        <time>2012-09-15T10:30:08.000Z</time>
      </trkpt>
      <trkpt lat="44.06703" lon="5.1639">
        <ele>307.5</ele>
        <time>2012-09-15T10:30:09.000Z</time>
      </trkpt>
      <trkpt lat="44.06698" lon="5.16388">
        <ele>308</ele>
        <time>2012-09-15T10:30:10.000Z</time>
      </trkpt>
      <trkpt lat="44.06689" lon="5.16384">
        <ele>306.8</ele>
        <time>2012-09-15T10:30:11.000Z</time>
      </trkpt>
      <trkpt lat="44.06684" lon="5.16382">
        <ele>306.3</ele>
        <time>2012-09-15T10:30:12.000Z</time>
      </trkpt>
      <trkpt lat="44.06679" lon="5.1638">
        <ele>305.9</ele>
        <time>2012-09-15T10:30:13.000Z</time>
      </trkpt>
      <trkpt lat="44.06676" lon="5.16379">
        <ele>301.4</ele>
        <time>2012-09-15T10:30:32.000Z</time>
      </trkpt>
      <trkpt lat="44.06674" lon="5.16378">
        <ele>301.3</ele>
        <time>2012-09-15T10:30:37.000Z</time>
      </trkpt>
      <trkpt lat="44.0667" lon="5.16374">
        <ele>300.3</ele>
        <time>2012-09-15T10:30:45.000Z</time>
      </trkpt>
      <trkpt lat="44.06668" lon="5.16372">
        <ele>301.2</ele>
        <time>2012-09-15T10:30:47.000Z</time>
      </trkpt>
      <trkpt lat="44.06666" lon="5.16368">
        <ele>301.4</ele>
        <time>2012-09-15T10:30:49.000Z</time>
      </trkpt>
      <trkpt lat="44.06665" lon="5.16361">
        <ele>302.6</ele>
        <time>2012-09-15T10:30:52.000Z</time>
      </trkpt>
      <trkpt lat="44.06665" lon="5.16355">
        <ele>303.3</ele>
        <time>2012-09-15T10:30:54.000Z</time>
      </trkpt>
      <trkpt lat="44.06664" lon="5.16351">
        <ele>304.1</ele>
        <time>2012-09-15T10:30:55.000Z</time>
      </trkpt>
      <trkpt lat="44.06663" lon="5.16347">
        <ele>303</ele>
        <time>2012-09-15T10:30:56.000Z</time>
      </trkpt>
      <trkpt lat="44.06662" lon="5.16339">
        <ele>302.6</ele>
        <time>2012-09-15T10:30:58.000Z</time>
      </trkpt>
      <trkpt lat="44.06661" lon="5.16334">
        <ele>302.3</ele>
        <time>2012-09-15T10:30:59.000Z</time>
      </trkpt>
      <trkpt lat="44.0666" lon="5.16329">
        <ele>301.7</ele>
        <time>2012-09-15T10:31:00.000Z</time>
      </trkpt>
      <trkpt lat="44.06665" lon="5.16327">
        <ele>302.5</ele>
        <time>2012-09-15T10:31:02.000Z</time>
      </trkpt>
      <trkpt lat="44.06668" lon="5.16324">
        <ele>304.4</ele>
        <time>2012-09-15T10:31:05.000Z</time>
      </trkpt>
      <trkpt lat="44.06669" lon="5.1632">
        <ele>307.2</ele>
        <time>2012-09-15T10:31:08.000Z</time>
      </trkpt>
      <trkpt lat="44.06671" lon="5.16316">
        <ele>307.2</ele>
        <time>2012-09-15T10:31:11.000Z</time>
      </trkpt>
      <trkpt lat="44.06674" lon="5.16313">
        <ele>307.1</ele>
        <time>2012-09-15T10:31:13.000Z</time>
      </trkpt>
      <trkpt lat="44.06676" lon="5.1631">
        <ele>307</ele>
        <time>2012-09-15T10:31:14.000Z</time>
      </trkpt>
      <trkpt lat="44.0668" lon="5.16308">
        <ele>307</ele>
        <time>2012-09-15T10:31:16.000Z</time>
      </trkpt>
      <trkpt lat="44.06681" lon="5.16304">
        <ele>307.1</ele>
        <time>2012-09-15T10:31:18.000Z</time>
      </trkpt>
      <trkpt lat="44.0668" lon="5.16299">
        <ele>305.6</ele>
        <time>2012-09-15T10:31:20.000Z</time>
      </trkpt>
      <trkpt lat="44.0668" lon="5.16295">
        <ele>303.1</ele>
        <time>2012-09-15T10:31:50.000Z</time>
      </trkpt>
      <trkpt lat="44.06678" lon="5.1629">
        <ele>302.9</ele>
        <time>2012-09-15T10:31:51.000Z</time>
      </trkpt>
      <trkpt lat="44.06676" lon="5.16286">
        <ele>302.5</ele>
        <time>2012-09-15T10:31:52.000Z</time>
      </trkpt>
      <trkpt lat="44.06675" lon="5.16282">
        <ele>301.8</ele>
        <time>2012-09-15T10:31:53.000Z</time>
      </trkpt>
      <trkpt lat="44.06674" lon="5.16278">
        <ele>301.9</ele>
        <time>2012-09-15T10:31:54.000Z</time>
      </trkpt>
      <trkpt lat="44.06672" lon="5.16272">
        <ele>300.7</ele>
        <time>2012-09-15T10:31:56.000Z</time>
      </trkpt>
      <trkpt lat="44.06669" lon="5.16269">
        <ele>299.8</ele>
        <time>2012-09-15T10:31:58.000Z</time>
      </trkpt>
      <trkpt lat="44.06664" lon="5.16268">
        <ele>297.8</ele>
        <time>2012-09-15T10:32:00.000Z</time>
      </trkpt>
      <trkpt lat="44.06664" lon="5.16274">
        <ele>298.7</ele>
        <time>2012-09-15T10:32:01.000Z</time>
      </trkpt>
      <trkpt lat="44.06662" lon="5.1628">
        <ele>298.6</ele>
        <time>2012-09-15T10:32:03.000Z</time>
      </trkpt>
      <trkpt lat="44.06661" lon="5.16285">
        <ele>298.3</ele>
        <time>2012-09-15T10:32:05.000Z</time>
      </trkpt>
      <trkpt lat="44.06658" lon="5.16289">
        <ele>297.8</ele>
        <time>2012-09-15T10:32:07.000Z</time>
      </trkpt>
      <trkpt lat="44.06656" lon="5.16292">
        <ele>297.6</ele>
        <time>2012-09-15T10:32:09.000Z</time>
      </trkpt>
      <trkpt lat="44.06654" lon="5.16296">
        <ele>297.1</ele>
        <time>2012-09-15T10:32:11.000Z</time>
      </trkpt>
      <trkpt lat="44.06651" lon="5.16294">
        <ele>296.2</ele>
        <time>2012-09-15T10:32:15.000Z</time>
      </trkpt>
      <trkpt lat="44.06648" lon="5.16289">
        <ele>296.1</ele>
        <time>2012-09-15T10:32:17.000Z</time>
      </trkpt>
      <trkpt lat="44.06646" lon="5.16284">
        <ele>295.6</ele>
        <time>2012-09-15T10:32:19.000Z</time>
      </trkpt>
      <trkpt lat="44.06644" lon="5.16279">
        <ele>295.5</ele>
        <time>2012-09-15T10:32:21.000Z</time>
      </trkpt>
      <trkpt lat="44.06642" lon="5.16273">
        <ele>294.3</ele>
        <time>2012-09-15T10:32:23.000Z</time>
      </trkpt>
      <trkpt lat="44.06643" lon="5.16268">
        <ele>292.9</ele>
        <time>2012-09-15T10:32:25.000Z</time>
      </trkpt>
      <trkpt lat="44.06642" lon="5.16264">
        <ele>291.3</ele>
        <time>2012-09-15T10:32:26.000Z</time>
      </trkpt>
      <trkpt lat="44.0664" lon="5.16258">
        <ele>289.7</ele>
        <time>2012-09-15T10:32:27.000Z</time>
      </trkpt>
      <trkpt lat="44.06638" lon="5.16251">
        <ele>288.7</ele>
        <time>2012-09-15T10:32:28.000Z</time>
      </trkpt>
      <trkpt lat="44.06638" lon="5.16245">
        <ele>288.3</ele>
        <time>2012-09-15T10:32:29.000Z</time>
      </trkpt>
      <trkpt lat="44.06641" lon="5.16246">
        <ele>289.6</ele>
        <time>2012-09-15T10:32:30.000Z</time>
      </trkpt>
      <trkpt lat="44.06639" lon="5.1624">
        <ele>289.5</ele>
        <time>2012-09-15T10:32:32.000Z</time>
      </trkpt>
      <trkpt lat="44.06639" lon="5.16234">
        <ele>288.8</ele>
        <time>2012-09-15T10:32:34.000Z</time>
      </trkpt>
      <trkpt lat="44.0664" lon="5.1623">
        <ele>288.9</ele>
        <time>2012-09-15T10:32:35.000Z</time>
      </trkpt>
      <trkpt lat="44.06642" lon="5.1622">
        <ele>288.6</ele>
        <time>2012-09-15T10:32:37.000Z</time>
      </trkpt>
      <trkpt lat="44.06645" lon="5.16214">
        <ele>290.2</ele>
        <time>2012-09-15T10:32:39.000Z</time>
      </trkpt>
      <trkpt lat="44.06647" lon="5.16211">
        <ele>290.3</ele>
        <time>2012-09-15T10:32:40.000Z</time>
      </trkpt>
      <trkpt lat="44.06649" lon="5.16208">
        <ele>290.5</ele>
        <time>2012-09-15T10:32:41.000Z</time>
      </trkpt>
      <trkpt lat="44.06652" lon="5.16203">
        <ele>290.7</ele>
        <time>2012-09-15T10:32:43.000Z</time>
      </trkpt>
      <trkpt lat="44.0665" lon="5.162">
        <ele>290.2</ele>
        <time>2012-09-15T10:32:45.000Z</time>
      </trkpt>
      <trkpt lat="44.06651" lon="5.16196">
        <ele>289.9</ele>
        <time>2012-09-15T10:32:53.000Z</time>
      </trkpt>
      <trkpt lat="44.06653" lon="5.16194">
        <ele>290.2</ele>
        <time>2012-09-15T10:33:21.000Z</time>
      </trkpt>
      <trkpt lat="44.0665" lon="5.16191">
        <ele>291.2</ele>
        <time>2012-09-15T10:33:33.000Z</time>
      </trkpt>
      <trkpt lat="44.06646" lon="5.16191">
        <ele>291.5</ele>
        <time>2012-09-15T10:33:36.000Z</time>
      </trkpt>
      <trkpt lat="44.0665" lon="5.16178">
        <ele>290.4</ele>
        <time>2012-09-15T10:33:40.000Z</time>
      </trkpt>
      <trkpt lat="44.06651" lon="5.1617">
        <ele>289.5</ele>
        <time>2012-09-15T10:33:42.000Z</time>
      </trkpt>
      <trkpt lat="44.0665" lon="5.16164">
        <ele>290.1</ele>
        <time>2012-09-15T10:33:43.000Z</time>
      </trkpt>
      <trkpt lat="44.06649" lon="5.1616">
        <ele>290.3</ele>
        <time>2012-09-15T10:33:44.000Z</time>
      </trkpt>
      <trkpt lat="44.0665" lon="5.16156">
        <ele>290.6</ele>
        <time>2012-09-15T10:33:45.000Z</time>
      </trkpt>
      <trkpt lat="44.06651" lon="5.16151">
        <ele>290.5</ele>
        <time>2012-09-15T10:33:46.000Z</time>
      </trkpt>
      <trkpt lat="44.06652" lon="5.16146">
        <ele>290.6</ele>
        <time>2012-09-15T10:33:47.000Z</time>
      </trkpt>
      <trkpt lat="44.06656" lon="5.16142">
        <ele>290.5</ele>
        <time>2012-09-15T10:33:48.000Z</time>
      </trkpt>
      <trkpt lat="44.06666" lon="5.16142">
        <ele>288.7</ele>
        <time>2012-09-15T10:33:49.000Z</time>
      </trkpt>
      <trkpt lat="44.06669" lon="5.16138">
        <ele>287.9</ele>
        <time>2012-09-15T10:33:50.000Z</time>
      </trkpt>
      <trkpt lat="44.06673" lon="5.16133">
        <ele>289.1</ele>
        <time>2012-09-15T10:33:52.000Z</time>
      </trkpt>
      <trkpt lat="44.06676" lon="5.1613">
        <ele>289.2</ele>
        <time>2012-09-15T10:33:53.000Z</time>
      </trkpt>
      <trkpt lat="44.06679" lon="5.16128">
        <ele>289.5</ele>
        <time>2012-09-15T10:33:54.000Z</time>
      </trkpt>
      <trkpt lat="44.06681" lon="5.16124">
        <ele>289.5</ele>
        <time>2012-09-15T10:33:55.000Z</time>
      </trkpt>
      <trkpt lat="44.06684" lon="5.16122">
        <ele>289.6</ele>
        <time>2012-09-15T10:33:56.000Z</time>
      </trkpt>
      <trkpt lat="44.06686" lon="5.16119">
        <ele>289</ele>
        <time>2012-09-15T10:33:57.000Z</time>
      </trkpt>
      <trkpt lat="44.06689" lon="5.16116">
        <ele>288.9</ele>
        <time>2012-09-15T10:33:58.000Z</time>
      </trkpt>
      <trkpt lat="44.06692" lon="5.16112">
        <ele>289</ele>
        <time>2012-09-15T10:33:59.000Z</time>
      </trkpt>
      <trkpt lat="44.06695" lon="5.16109">
        <ele>288.7</ele>
        <time>2012-09-15T10:34:00.000Z</time>
      </trkpt>
      <trkpt lat="44.06686" lon="5.16099">
        <ele>287.5</ele>
        <time>2012-09-15T10:34:01.000Z</time>
      </trkpt>
      <trkpt lat="44.06689" lon="5.16096">
        <ele>286.6</ele>
        <time>2012-09-15T10:34:02.000Z</time>
      </trkpt>
      <trkpt lat="44.06692" lon="5.16092">
        <ele>286.7</ele>
        <time>2012-09-15T10:34:03.000Z</time>
      </trkpt>
      <trkpt lat="44.06693" lon="5.16089">
        <ele>285.8</ele>
        <time>2012-09-15T10:34:04.000Z</time>
      </trkpt>
      <trkpt lat="44.06695" lon="5.16085">
        <ele>285.4</ele>
        <time>2012-09-15T10:34:05.000Z</time>
      </trkpt>
      <trkpt lat="44.06696" lon="5.16077">
        <ele>285.8</ele>
        <time>2012-09-15T10:34:07.000Z</time>
      </trkpt>
      <trkpt lat="44.06698" lon="5.16073">
        <ele>285.7</ele>
        <time>2012-09-15T10:34:08.000Z</time>
      </trkpt>
      <trkpt lat="44.06701" lon="5.16068">
        <ele>285.1</ele>
        <time>2012-09-15T10:34:09.000Z</time>
      </trkpt>
      <trkpt lat="44.06704" lon="5.16064">
        <ele>284.8</ele>
        <time>2012-09-15T10:34:10.000Z</time>
      </trkpt>
      <trkpt lat="44.06705" lon="5.16059">
        <ele>284.8</ele>
        <time>2012-09-15T10:34:11.000Z</time>
      </trkpt>
      <trkpt lat="44.06707" lon="5.16054">
        <ele>285.6</ele>
        <time>2012-09-15T10:34:12.000Z</time>
      </trkpt>
      <trkpt lat="44.06708" lon="5.1605">
        <ele>285.5</ele>
        <time>2012-09-15T10:34:13.000Z</time>
      </trkpt>
      <trkpt lat="44.0671" lon="5.16043">
        <ele>284.2</ele>
        <time>2012-09-15T10:34:15.000Z</time>
      </trkpt>
      <trkpt lat="44.06711" lon="5.16036">
        <ele>283.4</ele>
        <time>2012-09-15T10:34:17.000Z</time>
      </trkpt>
      <trkpt lat="44.06712" lon="5.16032">
        <ele>282.8</ele>
        <time>2012-09-15T10:34:19.000Z</time>
      </trkpt>
      <trkpt lat="44.06715" lon="5.1603">
        <ele>282.5</ele>
        <time>2012-09-15T10:34:25.000Z</time>
      </trkpt>
      <trkpt lat="44.06716" lon="5.16026">
        <ele>281.6</ele>
        <time>2012-09-15T10:34:30.000Z</time>
      </trkpt>
      <trkpt lat="44.06718" lon="5.16021">
        <ele>281.9</ele>
        <time>2012-09-15T10:34:33.000Z</time>
      </trkpt>
      <trkpt lat="44.0672" lon="5.16016">
        <ele>282.4</ele>
        <time>2012-09-15T10:34:35.000Z</time>
      </trkpt>
      <trkpt lat="44.06722" lon="5.1601">
        <ele>282.2</ele>
        <time>2012-09-15T10:34:37.000Z</time>
      </trkpt>
      <trkpt lat="44.06724" lon="5.16004">
        <ele>281.8</ele>
        <time>2012-09-15T10:34:38.000Z</time>
      </trkpt>
      <trkpt lat="44.06727" lon="5.15996">
        <ele>282.1</ele>
        <time>2012-09-15T10:34:40.000Z</time>
      </trkpt>
      <trkpt lat="44.06729" lon="5.15991">
        <ele>282.8</ele>
        <time>2012-09-15T10:34:41.000Z</time>
      </trkpt>
      <trkpt lat="44.06742" lon="5.15984">
        <ele>280</ele>
        <time>2012-09-15T10:34:42.000Z</time>
      </trkpt>
      <trkpt lat="44.06747" lon="5.15979">
        <ele>279.6</ele>
        <time>2012-09-15T10:34:43.000Z</time>
      </trkpt>
      <trkpt lat="44.0675" lon="5.15974">
        <ele>279.6</ele>
        <time>2012-09-15T10:34:44.000Z</time>
      </trkpt>
      <trkpt lat="44.06751" lon="5.1597">
        <ele>280.3</ele>
        <time>2012-09-15T10:34:45.000Z</time>
      </trkpt>
      <trkpt lat="44.06753" lon="5.15965">
        <ele>280.8</ele>
        <time>2012-09-15T10:34:46.000Z</time>
      </trkpt>
      <trkpt lat="44.06755" lon="5.15961">
        <ele>280.4</ele>
        <time>2012-09-15T10:34:47.000Z</time>
      </trkpt>
      <trkpt lat="44.06758" lon="5.15956">
        <ele>280</ele>
        <time>2012-09-15T10:34:48.000Z</time>
      </trkpt>
      <trkpt lat="44.0676" lon="5.15952">
        <ele>280.1</ele>
        <time>2012-09-15T10:34:49.000Z</time>
      </trkpt>
      <trkpt lat="44.06761" lon="5.15945">
        <ele>280.4</ele>
        <time>2012-09-15T10:34:50.000Z</time>
      </trkpt>
      <trkpt lat="44.06762" lon="5.15938">
        <ele>280.1</ele>
        <time>2012-09-15T10:34:51.000Z</time>
      </trkpt>
      <trkpt lat="44.06762" lon="5.1593">
        <ele>280</ele>
        <time>2012-09-15T10:34:52.000Z</time>
      </trkpt>
      <trkpt lat="44.06765" lon="5.15925">
        <ele>279.9</ele>
        <time>2012-09-15T10:34:53.000Z</time>
      </trkpt>
      <trkpt lat="44.06766" lon="5.15919">
        <ele>280.1</ele>
        <time>2012-09-15T10:34:54.000Z</time>
      </trkpt>
      <trkpt lat="44.06767" lon="5.15911">
        <ele>279.3</ele>
        <time>2012-09-15T10:34:55.000Z</time>
      </trkpt>
      <trkpt lat="44.06769" lon="5.15905">
        <ele>279.1</ele>
        <time>2012-09-15T10:34:56.000Z</time>
      </trkpt>
      <trkpt lat="44.06771" lon="5.159">
        <ele>279.1</ele>
        <time>2012-09-15T10:34:57.000Z</time>
      </trkpt>
      <trkpt lat="44.06774" lon="5.15895">
        <ele>278</ele>
        <time>2012-09-15T10:34:58.000Z</time>
      </trkpt>
      <trkpt lat="44.06777" lon="5.15884">
        <ele>275.8</ele>
        <time>2012-09-15T10:35:00.000Z</time>
      </trkpt>
      <trkpt lat="44.06777" lon="5.15877">
        <ele>274.9</ele>
        <time>2012-09-15T10:35:01.000Z</time>
      </trkpt>
      <trkpt lat="44.06778" lon="5.15869">
        <ele>273.2</ele>
        <time>2012-09-15T10:35:02.000Z</time>
      </trkpt>
      <trkpt lat="44.06778" lon="5.15861">
        <ele>272.8</ele>
        <time>2012-09-15T10:35:03.000Z</time>
      </trkpt>
      <trkpt lat="44.0678" lon="5.15854">
        <ele>273.9</ele>
        <time>2012-09-15T10:35:04.000Z</time>
      </trkpt>
      <trkpt lat="44.0678" lon="5.15847">
        <ele>274</ele>
        <time>2012-09-15T10:35:05.000Z</time>
      </trkpt>
      <trkpt lat="44.06781" lon="5.15842">
        <ele>274</ele>
        <time>2012-09-15T10:35:06.000Z</time>
      </trkpt>
      <trkpt lat="44.06781" lon="5.15837">
        <ele>274</ele>
        <time>2012-09-15T10:35:07.000Z</time>
      </trkpt>
      <trkpt lat="44.06782" lon="5.15831">
        <ele>274.1</ele>
        <time>2012-09-15T10:35:08.000Z</time>
      </trkpt>
      <trkpt lat="44.06777" lon="5.15819">
        <ele>273.9</ele>
        <time>2012-09-15T10:35:09.000Z</time>
      </trkpt>
      <trkpt lat="44.06779" lon="5.15811">
        <ele>273.9</ele>
        <time>2012-09-15T10:35:10.000Z</time>
      </trkpt>
      <trkpt lat="44.06784" lon="5.15802">
        <ele>271.9</ele>
        <time>2012-09-15T10:35:11.000Z</time>
      </trkpt>
      <trkpt lat="44.06786" lon="5.15794">
        <ele>270.3</ele>
        <time>2012-09-15T10:35:12.000Z</time>
      </trkpt>
      <trkpt lat="44.06789" lon="5.15786">
        <ele>270</ele>
        <time>2012-09-15T10:35:13.000Z</time>
      </trkpt>
      <trkpt lat="44.06792" lon="5.15777">
        <ele>269.2</ele>
        <time>2012-09-15T10:35:14.000Z</time>
      </trkpt>
      <trkpt lat="44.06793" lon="5.15768">
        <ele>269.8</ele>
        <time>2012-09-15T10:35:15.000Z</time>
      </trkpt>
      <trkpt lat="44.06795" lon="5.15761">
        <ele>270.5</ele>
        <time>2012-09-15T10:35:16.000Z</time>
      </trkpt>
      <trkpt lat="44.06799" lon="5.15754">
        <ele>270.5</ele>
        <time>2012-09-15T10:35:17.000Z</time>
      </trkpt>
      <trkpt lat="44.068" lon="5.15748">
        <ele>270.7</ele>
        <time>2012-09-15T10:35:18.000Z</time>
      </trkpt>
      <trkpt lat="44.06802" lon="5.15744">
        <ele>271.1</ele>
        <time>2012-09-15T10:35:19.000Z</time>
      </trkpt>
      <trkpt lat="44.06798" lon="5.15747">
        <ele>271.4</ele>
        <time>2012-09-15T10:35:20.000Z</time>
      </trkpt>
      <trkpt lat="44.06797" lon="5.15741">
        <ele>270.5</ele>
        <time>2012-09-15T10:35:22.000Z</time>
      </trkpt>
      <trkpt lat="44.06796" lon="5.15737">
        <ele>271.1</ele>
        <time>2012-09-15T10:35:24.000Z</time>
      </trkpt>
      <trkpt lat="44.06792" lon="5.15738">
        <ele>267.9</ele>
        <time>2012-09-15T10:35:28.000Z</time>
      </trkpt>
      <trkpt lat="44.06794" lon="5.15735">
        <ele>268.2</ele>
        <time>2012-09-15T10:35:57.000Z</time>
      </trkpt>
      <trkpt lat="44.06792" lon="5.1573">
        <ele>268.8</ele>
        <time>2012-09-15T10:36:01.000Z</time>
      </trkpt>
      <trkpt lat="44.0679" lon="5.15725">
        <ele>267</ele>
        <time>2012-09-15T10:36:03.000Z</time>
      </trkpt>
      <trkpt lat="44.06787" lon="5.15718">
        <ele>266.8</ele>
        <time>2012-09-15T10:36:05.000Z</time>
      </trkpt>
      <trkpt lat="44.06786" lon="5.15714">
        <ele>265.3</ele>
        <time>2012-09-15T10:36:06.000Z</time>
      </trkpt>
      <trkpt lat="44.06786" lon="5.1571">
        <ele>264.4</ele>
        <time>2012-09-15T10:36:07.000Z</time>
      </trkpt>
      <trkpt lat="44.06786" lon="5.15707">
        <ele>263.7</ele>
        <time>2012-09-15T10:36:08.000Z</time>
      </trkpt>
      <trkpt lat="44.06785" lon="5.15702">
        <ele>264.1</ele>
        <time>2012-09-15T10:36:09.000Z</time>
      </trkpt>
      <trkpt lat="44.06786" lon="5.15694">
        <ele>263.3</ele>
        <time>2012-09-15T10:36:11.000Z</time>
      </trkpt>
      <trkpt lat="44.06786" lon="5.1569">
        <ele>262.3</ele>
        <time>2012-09-15T10:36:12.000Z</time>
      </trkpt>
      <trkpt lat="44.06787" lon="5.15686">
        <ele>262.1</ele>
        <time>2012-09-15T10:36:13.000Z</time>
      </trkpt>
      <trkpt lat="44.06787" lon="5.15682">
        <ele>262.3</ele>
        <time>2012-09-15T10:36:14.000Z</time>
      </trkpt>
      <trkpt lat="44.06785" lon="5.15674">
        <ele>262.7</ele>
        <time>2012-09-15T10:36:16.000Z</time>
      </trkpt>
      <trkpt lat="44.06784" lon="5.15668">
        <ele>266.1</ele>
        <time>2012-09-15T10:36:18.000Z</time>
      </trkpt>
      <trkpt lat="44.06784" lon="5.15664">
        <ele>266.3</ele>
        <time>2012-09-15T10:36:19.000Z</time>
      </trkpt>
      <trkpt lat="44.06784" lon="5.15659">
        <ele>266.5</ele>
        <time>2012-09-15T10:36:20.000Z</time>
      </trkpt>
      <trkpt lat="44.06782" lon="5.15649">
        <ele>262.4</ele>
        <time>2012-09-15T10:36:21.000Z</time>
      </trkpt>
      <trkpt lat="44.06781" lon="5.15641">
        <ele>261.6</ele>
        <time>2012-09-15T10:36:22.000Z</time>
      </trkpt>
      <trkpt lat="44.0678" lon="5.15634">
        <ele>261.8</ele>
        <time>2012-09-15T10:36:23.000Z</time>
      </trkpt>
      <trkpt lat="44.06778" lon="5.15626">
        <ele>260.1</ele>
        <time>2012-09-15T10:36:24.000Z</time>
      </trkpt>
      <trkpt lat="44.06776" lon="5.15618">
        <ele>258.8</ele>
        <time>2012-09-15T10:36:25.000Z</time>
      </trkpt>
      <trkpt lat="44.06774" lon="5.15612">
        <ele>258.7</ele>
        <time>2012-09-15T10:36:26.000Z</time>
      </trkpt>
      <trkpt lat="44.06772" lon="5.15606">
        <ele>257.8</ele>
        <time>2012-09-15T10:36:27.000Z</time>
      </trkpt>
      <trkpt lat="44.06772" lon="5.15598">
        <ele>257.7</ele>
        <time>2012-09-15T10:36:28.000Z</time>
      </trkpt>
      <trkpt lat="44.06772" lon="5.15591">
        <ele>257.6</ele>
        <time>2012-09-15T10:36:29.000Z</time>
      </trkpt>
      <trkpt lat="44.0677" lon="5.15587">
        <ele>257.7</ele>
        <time>2012-09-15T10:36:30.000Z</time>
      </trkpt>
      <trkpt lat="44.06768" lon="5.15583">
        <ele>258</ele>
        <time>2012-09-15T10:36:31.000Z</time>
      </trkpt>
      <trkpt lat="44.06764" lon="5.15578">
        <ele>258</ele>
        <time>2012-09-15T10:36:32.000Z</time>
      </trkpt>
      <trkpt lat="44.06762" lon="5.15571">
        <ele>257.9</ele>
        <time>2012-09-15T10:36:33.000Z</time>
      </trkpt>
      <trkpt lat="44.06758" lon="5.15563">
        <ele>257.2</ele>
        <time>2012-09-15T10:36:34.000Z</time>
      </trkpt>
      <trkpt lat="44.06755" lon="5.15554">
        <ele>255.4</ele>
        <time>2012-09-15T10:36:35.000Z</time>
      </trkpt>
      <trkpt lat="44.06752" lon="5.15546">
        <ele>255</ele>
        <time>2012-09-15T10:36:36.000Z</time>
      </trkpt>
      <trkpt lat="44.0675" lon="5.15537">
        <ele>254.8</ele>
        <time>2012-09-15T10:36:37.000Z</time>
      </trkpt>
      <trkpt lat="44.06749" lon="5.15528">
        <ele>254.7</ele>
        <time>2012-09-15T10:36:38.000Z</time>
      </trkpt>
      <trkpt lat="44.06746" lon="5.1552">
        <ele>254.9</ele>
        <time>2012-09-15T10:36:39.000Z</time>
      </trkpt>
      <trkpt lat="44.06743" lon="5.15512">
        <ele>255</ele>
        <time>2012-09-15T10:36:40.000Z</time>
      </trkpt>
      <trkpt lat="44.06742" lon="5.15503">
        <ele>255.2</ele>
        <time>2012-09-15T10:36:41.000Z</time>
      </trkpt>
      <trkpt lat="44.0674" lon="5.15493">
        <ele>254.6</ele>
        <time>2012-09-15T10:36:42.000Z</time>
      </trkpt>
      <trkpt lat="44.06738" lon="5.15484">
        <ele>255.2</ele>
        <time>2012-09-15T10:36:43.000Z</time>
      </trkpt>
      <trkpt lat="44.06734" lon="5.15477">
        <ele>255.4</ele>
        <time>2012-09-15T10:36:44.000Z</time>
      </trkpt>
      <trkpt lat="44.0673" lon="5.1547">
        <ele>255.6</ele>
        <time>2012-09-15T10:36:45.000Z</time>
      </trkpt>
      <trkpt lat="44.06728" lon="5.15463">
        <ele>256.3</ele>
        <time>2012-09-15T10:36:46.000Z</time>
      </trkpt>
      <trkpt lat="44.06725" lon="5.15455">
        <ele>256.6</ele>
        <time>2012-09-15T10:36:47.000Z</time>
      </trkpt>
      <trkpt lat="44.06722" lon="5.15448">
        <ele>257.6</ele>
        <time>2012-09-15T10:36:48.000Z</time>
      </trkpt>
      <trkpt lat="44.06719" lon="5.15441">
        <ele>257.6</ele>
        <time>2012-09-15T10:36:49.000Z</time>
      </trkpt>
      <trkpt lat="44.06717" lon="5.15435">
        <ele>257.7</ele>
        <time>2012-09-15T10:36:50.000Z</time>
      </trkpt>
      <trkpt lat="44.06716" lon="5.15427">
        <ele>255.9</ele>
        <time>2012-09-15T10:36:51.000Z</time>
      </trkpt>
      <trkpt lat="44.06715" lon="5.1542">
        <ele>255.4</ele>
        <time>2012-09-15T10:36:52.000Z</time>
      </trkpt>
      <trkpt lat="44.06717" lon="5.15412">
        <ele>255.4</ele>
        <time>2012-09-15T10:36:53.000Z</time>
      </trkpt>
      <trkpt lat="44.06718" lon="5.15403">
        <ele>255.3</ele>
        <time>2012-09-15T10:36:54.000Z</time>
      </trkpt>
      <trkpt lat="44.06717" lon="5.15396">
        <ele>255.5</ele>
        <time>2012-09-15T10:36:55.000Z</time>
      </trkpt>
      <trkpt lat="44.06715" lon="5.15391">
        <ele>256.3</ele>
        <time>2012-09-15T10:36:56.000Z</time>
      </trkpt>
      <trkpt lat="44.06713" lon="5.15386">
        <ele>256.4</ele>
        <time>2012-09-15T10:36:57.000Z</time>
      </trkpt>
      <trkpt lat="44.06711" lon="5.15382">
        <ele>256.2</ele>
        <time>2012-09-15T10:36:58.000Z</time>
      </trkpt>
      <trkpt lat="44.06708" lon="5.15378">
        <ele>255.9</ele>
        <time>2012-09-15T10:37:00.000Z</time>
      </trkpt>
      <trkpt lat="44.0671" lon="5.15381">
        <ele>255.7</ele>
        <time>2012-09-15T10:37:02.000Z</time>
      </trkpt>
      <trkpt lat="44.06713" lon="5.15383">
        <ele>255.3</ele>
        <time>2012-09-15T10:37:29.000Z</time>
      </trkpt>
      <trkpt lat="44.06715" lon="5.15387">
        <ele>255.7</ele>
        <time>2012-09-15T10:37:31.000Z</time>
      </trkpt>
      <trkpt lat="44.06717" lon="5.15392">
        <ele>255.9</ele>
        <time>2012-09-15T10:37:33.000Z</time>
      </trkpt>
      <trkpt lat="44.06718" lon="5.15398">
        <ele>256.4</ele>
        <time>2012-09-15T10:37:35.000Z</time>
      </trkpt>
      <trkpt lat="44.0672" lon="5.15404">
        <ele>257</ele>
        <time>2012-09-15T10:37:37.000Z</time>
      </trkpt>
      <trkpt lat="44.06721" lon="5.15408">
        <ele>257</ele>
        <time>2012-09-15T10:37:39.000Z</time>
      </trkpt>
      <trkpt lat="44.06723" lon="5.15414">
        <ele>257.5</ele>
        <time>2012-09-15T10:37:41.000Z</time>
      </trkpt>
      <trkpt lat="44.06724" lon="5.15418">
        <ele>257.8</ele>
        <time>2012-09-15T10:37:42.000Z</time>
      </trkpt>
      <trkpt lat="44.06726" lon="5.15422">
        <ele>258.5</ele>
        <time>2012-09-15T10:37:43.000Z</time>
      </trkpt>
      <trkpt lat="44.06728" lon="5.15429">
        <ele>259.6</ele>
        <time>2012-09-15T10:37:45.000Z</time>
      </trkpt>
      <trkpt lat="44.06729" lon="5.15432">
        <ele>259.9</ele>
        <time>2012-09-15T10:37:46.000Z</time>
      </trkpt>
      <trkpt lat="44.0673" lon="5.15436">
        <ele>260.1</ele>
        <time>2012-09-15T10:37:47.000Z</time>
      </trkpt>
      <trkpt lat="44.06731" lon="5.15439">
        <ele>259.9</ele>
        <time>2012-09-15T10:37:48.000Z</time>
      </trkpt>
      <trkpt lat="44.06732" lon="5.15443">
        <ele>259.8</ele>
        <time>2012-09-15T10:37:49.000Z</time>
      </trkpt>
      <trkpt lat="44.06733" lon="5.15447">
        <ele>260.2</ele>
        <time>2012-09-15T10:37:50.000Z</time>
      </trkpt>
      <trkpt lat="44.06735" lon="5.15451">
        <ele>260.4</ele>
        <time>2012-09-15T10:37:51.000Z</time>
      </trkpt>
      <trkpt lat="44.06736" lon="5.15454">
        <ele>260.5</ele>
        <time>2012-09-15T10:37:52.000Z</time>
      </trkpt>
      <trkpt lat="44.06737" lon="5.15458">
        <ele>260.4</ele>
        <time>2012-09-15T10:37:53.000Z</time>
      </trkpt>
      <trkpt lat="44.06738" lon="5.15462">
        <ele>260.4</ele>
        <time>2012-09-15T10:37:54.000Z</time>
      </trkpt>
      <trkpt lat="44.0674" lon="5.15466">
        <ele>260.3</ele>
        <time>2012-09-15T10:37:55.000Z</time>
      </trkpt>
      <trkpt lat="44.06741" lon="5.1547">
        <ele>260.4</ele>
        <time>2012-09-15T10:37:56.000Z</time>
      </trkpt>
      <trkpt lat="44.06742" lon="5.15474">
        <ele>260.7</ele>
        <time>2012-09-15T10:37:57.000Z</time>
      </trkpt>
      <trkpt lat="44.06743" lon="5.15478">
        <ele>260.8</ele>
        <time>2012-09-15T10:37:58.000Z</time>
      </trkpt>
      <trkpt lat="44.06744" lon="5.15481">
        <ele>260.9</ele>
        <time>2012-09-15T10:37:59.000Z</time>
      </trkpt>
      <trkpt lat="44.06746" lon="5.15486">
        <ele>261.1</ele>
        <time>2012-09-15T10:38:00.000Z</time>
      </trkpt>
      <trkpt lat="44.06747" lon="5.1549">
        <ele>261.4</ele>
        <time>2012-09-15T10:38:01.000Z</time>
      </trkpt>
      <trkpt lat="44.06748" lon="5.15494">
        <ele>261.7</ele>
        <time>2012-09-15T10:38:02.000Z</time>
      </trkpt>
      <trkpt lat="44.0675" lon="5.15498">
        <ele>261.9</ele>
        <time>2012-09-15T10:38:03.000Z</time>
      </trkpt>
      <trkpt lat="44.06751" lon="5.15502">
        <ele>261.9</ele>
        <time>2012-09-15T10:38:04.000Z</time>
      </trkpt>
      <trkpt lat="44.06752" lon="5.15506">
        <ele>262.5</ele>
        <time>2012-09-15T10:38:05.000Z</time>
      </trkpt>
      <trkpt lat="44.06753" lon="5.1551">
        <ele>262.8</ele>
        <time>2012-09-15T10:38:06.000Z</time>
      </trkpt>
      <trkpt lat="44.06754" lon="5.15514">
        <ele>263.1</ele>
        <time>2012-09-15T10:38:07.000Z</time>
      </trkpt>
      <trkpt lat="44.06755" lon="5.15518">
        <ele>263.6</ele>
        <time>2012-09-15T10:38:08.000Z</time>
      </trkpt>
      <trkpt lat="44.06756" lon="5.15522">
        <ele>263.5</ele>
        <time>2012-09-15T10:38:09.000Z</time>
      </trkpt>
      <trkpt lat="44.06758" lon="5.15526">
        <ele>263.8</ele>
        <time>2012-09-15T10:38:10.000Z</time>
      </trkpt>
      <trkpt lat="44.06759" lon="5.1553">
        <ele>264.4</ele>
        <time>2012-09-15T10:38:11.000Z</time>
      </trkpt>
      <trkpt lat="44.0676" lon="5.15534">
        <ele>264.9</ele>
        <time>2012-09-15T10:38:12.000Z</time>
      </trkpt>
      <trkpt lat="44.06761" lon="5.15538">
        <ele>265.2</ele>
        <time>2012-09-15T10:38:13.000Z</time>
      </trkpt>
      <trkpt lat="44.06763" lon="5.15543">
        <ele>265.3</ele>
        <time>2012-09-15T10:38:14.000Z</time>
      </trkpt>
      <trkpt lat="44.06764" lon="5.15546">
        <ele>266</ele>
        <time>2012-09-15T10:38:15.000Z</time>
      </trkpt>
      <trkpt lat="44.06765" lon="5.1555">
        <ele>266.3</ele>
        <time>2012-09-15T10:38:16.000Z</time>
      </trkpt>
      <trkpt lat="44.06766" lon="5.15554">
        <ele>266.2</ele>
        <time>2012-09-15T10:38:17.000Z</time>
      </trkpt>
      <trkpt lat="44.06768" lon="5.15557">
        <ele>266.4</ele>
        <time>2012-09-15T10:38:18.000Z</time>
      </trkpt>
      <trkpt lat="44.0677" lon="5.1556">
        <ele>266.4</ele>
        <time>2012-09-15T10:38:19.000Z</time>
      </trkpt>
      <trkpt lat="44.06772" lon="5.15563">
        <ele>266.5</ele>
        <time>2012-09-15T10:38:20.000Z</time>
      </trkpt>
      <trkpt lat="44.06773" lon="5.15567">
        <ele>266.6</ele>
        <time>2012-09-15T10:38:21.000Z</time>
      </trkpt>
      <trkpt lat="44.06775" lon="5.1557">
        <ele>266.8</ele>
        <time>2012-09-15T10:38:22.000Z</time>
      </trkpt>
      <trkpt lat="44.06778" lon="5.15575">
        <ele>267.4</ele>
        <time>2012-09-15T10:38:24.000Z</time>
      </trkpt>
      <trkpt lat="44.0678" lon="5.15578">
        <ele>267</ele>
        <time>2012-09-15T10:38:25.000Z</time>
      </trkpt>
      <trkpt lat="44.06782" lon="5.15581">
        <ele>267.1</ele>
        <time>2012-09-15T10:38:26.000Z</time>
      </trkpt>
      <trkpt lat="44.06785" lon="5.15585">
        <ele>267.4</ele>
        <time>2012-09-15T10:38:28.000Z</time>
      </trkpt>
      <trkpt lat="44.06786" lon="5.1559">
        <ele>267.7</ele>
        <time>2012-09-15T10:38:30.000Z</time>
      </trkpt>
      <trkpt lat="44.06786" lon="5.15597">
        <ele>267.8</ele>
        <time>2012-09-15T10:38:32.000Z</time>
      </trkpt>
      <trkpt lat="44.06786" lon="5.15604">
        <ele>268.3</ele>
        <time>2012-09-15T10:38:34.000Z</time>
      </trkpt>
      <trkpt lat="44.06786" lon="5.15611">
        <ele>268.4</ele>
        <time>2012-09-15T10:38:36.000Z</time>
      </trkpt>
      <trkpt lat="44.06786" lon="5.15616">
        <ele>268</ele>
        <time>2012-09-15T10:38:37.000Z</time>
      </trkpt>
      <trkpt lat="44.06786" lon="5.15623">
        <ele>268.7</ele>
        <time>2012-09-15T10:38:39.000Z</time>
      </trkpt>
      <trkpt lat="44.06787" lon="5.15627">
        <ele>268.8</ele>
        <time>2012-09-15T10:38:40.000Z</time>
      </trkpt>
      <trkpt lat="44.06787" lon="5.15632">
        <ele>268.5</ele>
        <time>2012-09-15T10:38:41.000Z</time>
      </trkpt>
      <trkpt lat="44.06788" lon="5.15636">
        <ele>269</ele>
        <time>2012-09-15T10:38:42.000Z</time>
      </trkpt>
      <trkpt lat="44.06789" lon="5.1564">
        <ele>269.5</ele>
        <time>2012-09-15T10:38:43.000Z</time>
      </trkpt>
      <trkpt lat="44.0679" lon="5.15646">
        <ele>270.2</ele>
        <time>2012-09-15T10:38:45.000Z</time>
      </trkpt>
      <trkpt lat="44.06791" lon="5.1565">
        <ele>270.1</ele>
        <time>2012-09-15T10:38:46.000Z</time>
      </trkpt>
      <trkpt lat="44.06791" lon="5.15655">
        <ele>270</ele>
        <time>2012-09-15T10:38:47.000Z</time>
      </trkpt>
      <trkpt lat="44.06791" lon="5.15659">
        <ele>270.1</ele>
        <time>2012-09-15T10:38:48.000Z</time>
      </trkpt>
      <trkpt lat="44.06792" lon="5.15664">
        <ele>270.3</ele>
        <time>2012-09-15T10:38:49.000Z</time>
      </trkpt>
      <trkpt lat="44.06792" lon="5.15668">
        <ele>270.6</ele>
        <time>2012-09-15T10:38:50.000Z</time>
      </trkpt>
      <trkpt lat="44.06792" lon="5.15672">
        <ele>270.7</ele>
        <time>2012-09-15T10:38:51.000Z</time>
      </trkpt>
      <trkpt lat="44.06792" lon="5.15677">
        <ele>270.7</ele>
        <time>2012-09-15T10:38:52.000Z</time>
      </trkpt>
      <trkpt lat="44.06792" lon="5.15681">
        <ele>271</ele>
        <time>2012-09-15T10:38:53.000Z</time>
      </trkpt>
      <trkpt lat="44.06792" lon="5.15685">
        <ele>270.7</ele>
        <time>2012-09-15T10:38:54.000Z</time>
      </trkpt>
      <trkpt lat="44.06793" lon="5.15692">
        <ele>270.7</ele>
        <time>2012-09-15T10:38:56.000Z</time>
      </trkpt>
      <trkpt lat="44.06792" lon="5.157">
        <ele>270.7</ele>
        <time>2012-09-15T10:38:58.000Z</time>
      </trkpt>
      <trkpt lat="44.06793" lon="5.15708">
        <ele>271.1</ele>
        <time>2012-09-15T10:39:00.000Z</time>
      </trkpt>
      <trkpt lat="44.06796" lon="5.15712">
        <ele>271.1</ele>
        <time>2012-09-15T10:39:01.000Z</time>
      </trkpt>
      <trkpt lat="44.06798" lon="5.15717">
        <ele>272</ele>
        <time>2012-09-15T10:39:03.000Z</time>
      </trkpt>
      <trkpt lat="44.068" lon="5.1572">
        <ele>272.5</ele>
        <time>2012-09-15T10:39:05.000Z</time>
      </trkpt>
      <trkpt lat="44.06803" lon="5.15722">
        <ele>272.8</ele>
        <time>2012-09-15T10:39:07.000Z</time>
      </trkpt>
      <trkpt lat="44.06804" lon="5.15725">
        <ele>273.3</ele>
        <time>2012-09-15T10:39:09.000Z</time>
      </trkpt>
      <trkpt lat="44.06804" lon="5.15729">
        <ele>276</ele>
        <time>2012-09-15T10:39:11.000Z</time>
      </trkpt>
      <trkpt lat="44.06805" lon="5.15734">
        <ele>277.2</ele>
        <time>2012-09-15T10:39:14.000Z</time>
      </trkpt>
      <trkpt lat="44.06806" lon="5.15738">
        <ele>278</ele>
        <time>2012-09-15T10:39:16.000Z</time>
      </trkpt>
      <trkpt lat="44.06807" lon="5.15743">
        <ele>279.2</ele>
        <time>2012-09-15T10:39:18.000Z</time>
      </trkpt>
      <trkpt lat="44.06808" lon="5.15747">
        <ele>280.6</ele>
        <time>2012-09-15T10:39:21.000Z</time>
      </trkpt>
      <trkpt lat="44.0681" lon="5.15751">
        <ele>280</ele>
        <time>2012-09-15T10:39:22.000Z</time>
      </trkpt>
      <trkpt lat="44.06811" lon="5.15754">
        <ele>279.2</ele>
        <time>2012-09-15T10:39:23.000Z</time>
      </trkpt>
      <trkpt lat="44.06813" lon="5.15759">
        <ele>279.2</ele>
        <time>2012-09-15T10:39:25.000Z</time>
      </trkpt>
      <trkpt lat="44.06814" lon="5.15765">
        <ele>278.8</ele>
        <time>2012-09-15T10:39:27.000Z</time>
      </trkpt>
      <trkpt lat="44.06816" lon="5.1577">
        <ele>279.5</ele>
        <time>2012-09-15T10:39:29.000Z</time>
      </trkpt>
      <trkpt lat="44.06817" lon="5.15777">
        <ele>279.5</ele>
        <time>2012-09-15T10:39:31.000Z</time>
      </trkpt>
      <trkpt lat="44.06818" lon="5.1578">
        <ele>279.3</ele>
        <time>2012-09-15T10:39:32.000Z</time>
      </trkpt>
      <trkpt lat="44.0682" lon="5.15786">
        <ele>279.2</ele>
        <time>2012-09-15T10:39:34.000Z</time>
      </trkpt>
      <trkpt lat="44.06821" lon="5.1579">
        <ele>279.2</ele>
        <time>2012-09-15T10:39:35.000Z</time>
      </trkpt>
      <trkpt lat="44.06822" lon="5.15793">
        <ele>279.5</ele>
        <time>2012-09-15T10:39:36.000Z</time>
      </trkpt>
      <trkpt lat="44.06824" lon="5.158">
        <ele>280</ele>
        <time>2012-09-15T10:39:38.000Z</time>
      </trkpt>
      <trkpt lat="44.06825" lon="5.15803">
        <ele>280.2</ele>
        <time>2012-09-15T10:39:40.000Z</time>
      </trkpt>
      <trkpt lat="44.06826" lon="5.15807">
        <ele>280.3</ele>
        <time>2012-09-15T10:39:42.000Z</time>
      </trkpt>
      <trkpt lat="44.06828" lon="5.15812">
        <ele>280.4</ele>
        <time>2012-09-15T10:39:44.000Z</time>
      </trkpt>
      <trkpt lat="44.06829" lon="5.15816">
        <ele>280.6</ele>
        <time>2012-09-15T10:39:46.000Z</time>
      </trkpt>
      <trkpt lat="44.0683" lon="5.1582">
        <ele>280.4</ele>
        <time>2012-09-15T10:39:48.000Z</time>
      </trkpt>
      <trkpt lat="44.06831" lon="5.15825">
        <ele>280.2</ele>
        <time>2012-09-15T10:39:50.000Z</time>
      </trkpt>
      <trkpt lat="44.06833" lon="5.1583">
        <ele>280.2</ele>
        <time>2012-09-15T10:39:52.000Z</time>
      </trkpt>
      <trkpt lat="44.06834" lon="5.15835">
        <ele>280.5</ele>
        <time>2012-09-15T10:39:54.000Z</time>
      </trkpt>
      <trkpt lat="44.06836" lon="5.15841">
        <ele>280.7</ele>
        <time>2012-09-15T10:39:56.000Z</time>
      </trkpt>
      <trkpt lat="44.06838" lon="5.15846">
        <ele>280.5</ele>
        <time>2012-09-15T10:39:58.000Z</time>
      </trkpt>
      <trkpt lat="44.06839" lon="5.15852">
        <ele>280.2</ele>
        <time>2012-09-15T10:40:00.000Z</time>
      </trkpt>
      <trkpt lat="44.0684" lon="5.15857">
        <ele>280.4</ele>
        <time>2012-09-15T10:40:02.000Z</time>
      </trkpt>
      <trkpt lat="44.06842" lon="5.15863">
        <ele>280.3</ele>
        <time>2012-09-15T10:40:04.000Z</time>
      </trkpt>
      <trkpt lat="44.06843" lon="5.15869">
        <ele>280.5</ele>
        <time>2012-09-15T10:40:06.000Z</time>
      </trkpt>
      <trkpt lat="44.06844" lon="5.15875">
        <ele>280.8</ele>
        <time>2012-09-15T10:40:08.000Z</time>
      </trkpt>
      <trkpt lat="44.06846" lon="5.1588">
        <ele>281</ele>
        <time>2012-09-15T10:40:10.000Z</time>
      </trkpt>
      <trkpt lat="44.06847" lon="5.15885">
        <ele>281.7</ele>
        <time>2012-09-15T10:40:12.000Z</time>
      </trkpt>
      <trkpt lat="44.06849" lon="5.1589">
        <ele>282</ele>
        <time>2012-09-15T10:40:14.000Z</time>
      </trkpt>
      <trkpt lat="44.06851" lon="5.15896">
        <ele>282.5</ele>
        <time>2012-09-15T10:40:16.000Z</time>
      </trkpt>
      <trkpt lat="44.06852" lon="5.15901">
        <ele>282.7</ele>
        <time>2012-09-15T10:40:18.000Z</time>
      </trkpt>
      <trkpt lat="44.06852" lon="5.15905">
        <ele>282.9</ele>
        <time>2012-09-15T10:40:20.000Z</time>
      </trkpt>
      <trkpt lat="44.06852" lon="5.15909">
        <ele>283.4</ele>
        <time>2012-09-15T10:40:22.000Z</time>
      </trkpt>
      <trkpt lat="44.06851" lon="5.15914">
        <ele>283.9</ele>
        <time>2012-09-15T10:40:24.000Z</time>
      </trkpt>
      <trkpt lat="44.06852" lon="5.15918">
        <ele>283.7</ele>
        <time>2012-09-15T10:40:26.000Z</time>
      </trkpt>
      <trkpt lat="44.06853" lon="5.15922">
        <ele>283.2</ele>
        <time>2012-09-15T10:40:28.000Z</time>
      </trkpt>
      <trkpt lat="44.06854" lon="5.15926">
        <ele>283.5</ele>
        <time>2012-09-15T10:40:30.000Z</time>
      </trkpt>
      <trkpt lat="44.06854" lon="5.1593">
        <ele>283.6</ele>
        <time>2012-09-15T10:40:32.000Z</time>
      </trkpt>
      <trkpt lat="44.06856" lon="5.15935">
        <ele>283.6</ele>
        <time>2012-09-15T10:40:35.000Z</time>
      </trkpt>
      <trkpt lat="44.06857" lon="5.1594">
        <ele>283.9</ele>
        <time>2012-09-15T10:40:37.000Z</time>
      </trkpt>
      <trkpt lat="44.06858" lon="5.15944">
        <ele>284.4</ele>
        <time>2012-09-15T10:40:39.000Z</time>
      </trkpt>
      <trkpt lat="44.06858" lon="5.15948">
        <ele>285.5</ele>
        <time>2012-09-15T10:40:41.000Z</time>
      </trkpt>
      <trkpt lat="44.06859" lon="5.15953">
        <ele>285.9</ele>
        <time>2012-09-15T10:40:43.000Z</time>
      </trkpt>
      <trkpt lat="44.06862" lon="5.15956">
        <ele>285.3</ele>
        <time>2012-09-15T10:40:45.000Z</time>
      </trkpt>
      <trkpt lat="44.06863" lon="5.1596">
        <ele>287.1</ele>
        <time>2012-09-15T10:40:47.000Z</time>
      </trkpt>
      <trkpt lat="44.06865" lon="5.15963">
        <ele>287.7</ele>
        <time>2012-09-15T10:40:49.000Z</time>
      </trkpt>
      <trkpt lat="44.06868" lon="5.15963">
        <ele>288.5</ele>
        <time>2012-09-15T10:40:51.000Z</time>
      </trkpt>
      <trkpt lat="44.0687" lon="5.15966">
        <ele>288.3</ele>
        <time>2012-09-15T10:40:53.000Z</time>
      </trkpt>
      <trkpt lat="44.06872" lon="5.1597">
        <ele>288.4</ele>
        <time>2012-09-15T10:40:55.000Z</time>
      </trkpt>
      <trkpt lat="44.06874" lon="5.15974">
        <ele>288.8</ele>
        <time>2012-09-15T10:40:57.000Z</time>
      </trkpt>
      <trkpt lat="44.06876" lon="5.15978">
        <ele>288.7</ele>
        <time>2012-09-15T10:40:59.000Z</time>
      </trkpt>
      <trkpt lat="44.06877" lon="5.15982">
        <ele>289.4</ele>
        <time>2012-09-15T10:41:01.000Z</time>
      </trkpt>
      <trkpt lat="44.06878" lon="5.15988">
        <ele>289.7</ele>
        <time>2012-09-15T10:41:03.000Z</time>
      </trkpt>
      <trkpt lat="44.06877" lon="5.15994">
        <ele>290.5</ele>
        <time>2012-09-15T10:41:06.000Z</time>
      </trkpt>
      <trkpt lat="44.06878" lon="5.15998">
        <ele>291.5</ele>
        <time>2012-09-15T10:41:08.000Z</time>
      </trkpt>
      <trkpt lat="44.06878" lon="5.16002">
        <ele>292.7</ele>
        <time>2012-09-15T10:41:10.000Z</time>
      </trkpt>
      <trkpt lat="44.06879" lon="5.16006">
        <ele>293.7</ele>
        <time>2012-09-15T10:41:12.000Z</time>
      </trkpt>
      <trkpt lat="44.06881" lon="5.1601">
        <ele>294.1</ele>
        <time>2012-09-15T10:41:14.000Z</time>
      </trkpt>
      <trkpt lat="44.06882" lon="5.16016">
        <ele>295.6</ele>
        <time>2012-09-15T10:41:17.000Z</time>
      </trkpt>
      <trkpt lat="44.06882" lon="5.16021">
        <ele>296.6</ele>
        <time>2012-09-15T10:41:19.000Z</time>
      </trkpt>
      <trkpt lat="44.06883" lon="5.16026">
        <ele>298.1</ele>
        <time>2012-09-15T10:41:22.000Z</time>
      </trkpt>
      <trkpt lat="44.06883" lon="5.16032">
        <ele>299.9</ele>
        <time>2012-09-15T10:41:24.000Z</time>
      </trkpt>
      <trkpt lat="44.06883" lon="5.16036">
        <ele>300.4</ele>
        <time>2012-09-15T10:41:26.000Z</time>
      </trkpt>
      <trkpt lat="44.06884" lon="5.1604">
        <ele>303.7</ele>
        <time>2012-09-15T10:41:29.000Z</time>
      </trkpt>
      <trkpt lat="44.06881" lon="5.16042">
        <ele>303.9</ele>
        <time>2012-09-15T10:41:32.000Z</time>
      </trkpt>
      <trkpt lat="44.06878" lon="5.16045">
        <ele>304.2</ele>
        <time>2012-09-15T10:41:35.000Z</time>
      </trkpt>
      <trkpt lat="44.06876" lon="5.16052">
        <ele>305.1</ele>
        <time>2012-09-15T10:41:37.000Z</time>
      </trkpt>
      <trkpt lat="44.06875" lon="5.16055">
        <ele>305.9</ele>
        <time>2012-09-15T10:41:39.000Z</time>
      </trkpt>
      <trkpt lat="44.06872" lon="5.16057">
        <ele>305.9</ele>
        <time>2012-09-15T10:41:41.000Z</time>
      </trkpt>
      <trkpt lat="44.0687" lon="5.1606">
        <ele>306</ele>
        <time>2012-09-15T10:41:43.000Z</time>
      </trkpt>
      <trkpt lat="44.06867" lon="5.16063">
        <ele>305.9</ele>
        <time>2012-09-15T10:41:45.000Z</time>
      </trkpt>
      <trkpt lat="44.06865" lon="5.16066">
        <ele>305.5</ele>
        <time>2012-09-15T10:41:47.000Z</time>
      </trkpt>
      <trkpt lat="44.06864" lon="5.1607">
        <ele>304.6</ele>
        <time>2012-09-15T10:41:48.000Z</time>
      </trkpt>
      <trkpt lat="44.06864" lon="5.16075">
        <ele>305.2</ele>
        <time>2012-09-15T10:41:50.000Z</time>
      </trkpt>
      <trkpt lat="44.06863" lon="5.1608">
        <ele>305.7</ele>
        <time>2012-09-15T10:41:52.000Z</time>
      </trkpt>
      <trkpt lat="44.06861" lon="5.16076">
        <ele>305.9</ele>
        <time>2012-09-15T10:41:54.000Z</time>
      </trkpt>
      <trkpt lat="44.06857" lon="5.16076">
        <ele>304.4</ele>
        <time>2012-09-15T10:41:55.000Z</time>
      </trkpt>
      <trkpt lat="44.06854" lon="5.16076">
        <ele>303.6</ele>
        <time>2012-09-15T10:41:56.000Z</time>
      </trkpt>
      <trkpt lat="44.0685" lon="5.16078">
        <ele>303.6</ele>
        <time>2012-09-15T10:41:58.000Z</time>
      </trkpt>
      <trkpt lat="44.06847" lon="5.1608">
        <ele>303.3</ele>
        <time>2012-09-15T10:42:00.000Z</time>
      </trkpt>
      <trkpt lat="44.06843" lon="5.16081">
        <ele>303.1</ele>
        <time>2012-09-15T10:42:02.000Z</time>
      </trkpt>
      <trkpt lat="44.0684" lon="5.16082">
        <ele>304.2</ele>
        <time>2012-09-15T10:42:03.000Z</time>
      </trkpt>
      <trkpt lat="44.06836" lon="5.16085">
        <ele>304.4</ele>
        <time>2012-09-15T10:42:05.000Z</time>
      </trkpt>
      <trkpt lat="44.06833" lon="5.16088">
        <ele>303.3</ele>
        <time>2012-09-15T10:42:06.000Z</time>
      </trkpt>
      <trkpt lat="44.06832" lon="5.16092">
        <ele>303.6</ele>
        <time>2012-09-15T10:42:07.000Z</time>
      </trkpt>
      <trkpt lat="44.0683" lon="5.16095">
        <ele>303.6</ele>
        <time>2012-09-15T10:42:08.000Z</time>
      </trkpt>
      <trkpt lat="44.06829" lon="5.16099">
        <ele>303.6</ele>
        <time>2012-09-15T10:42:09.000Z</time>
      </trkpt>
      <trkpt lat="44.06827" lon="5.16104">
        <ele>303.9</ele>
        <time>2012-09-15T10:42:11.000Z</time>
      </trkpt>
      <trkpt lat="44.06827" lon="5.1611">
        <ele>304.5</ele>
        <time>2012-09-15T10:42:13.000Z</time>
      </trkpt>
      <trkpt lat="44.06828" lon="5.16113">
        <ele>303.1</ele>
        <time>2012-09-15T10:42:15.000Z</time>
      </trkpt>
      <trkpt lat="44.0683" lon="5.16118">
        <ele>303.2</ele>
        <time>2012-09-15T10:42:17.000Z</time>
      </trkpt>
      <trkpt lat="44.0683" lon="5.16125">
        <ele>303.4</ele>
        <time>2012-09-15T10:42:19.000Z</time>
      </trkpt>
      <trkpt lat="44.06827" lon="5.16128">
        <ele>302.6</ele>
        <time>2012-09-15T10:42:20.000Z</time>
      </trkpt>
      <trkpt lat="44.06826" lon="5.16131">
        <ele>302.6</ele>
        <time>2012-09-15T10:42:21.000Z</time>
      </trkpt>
      <trkpt lat="44.06824" lon="5.16134">
        <ele>302.7</ele>
        <time>2012-09-15T10:42:22.000Z</time>
      </trkpt>
      <trkpt lat="44.06822" lon="5.16137">
        <ele>302.9</ele>
        <time>2012-09-15T10:42:23.000Z</time>
      </trkpt>
      <trkpt lat="44.06818" lon="5.16142">
        <ele>302.5</ele>
        <time>2012-09-15T10:42:25.000Z</time>
      </trkpt>
      <trkpt lat="44.06815" lon="5.16147">
        <ele>302.4</ele>
        <time>2012-09-15T10:42:27.000Z</time>
      </trkpt>
      <trkpt lat="44.06812" lon="5.16152">
        <ele>302.5</ele>
        <time>2012-09-15T10:42:29.000Z</time>
      </trkpt>
      <trkpt lat="44.06809" lon="5.16155">
        <ele>302.4</ele>
        <time>2012-09-15T10:42:31.000Z</time>
      </trkpt>
      <trkpt lat="44.06808" lon="5.1616">
        <ele>302.8</ele>
        <time>2012-09-15T10:42:33.000Z</time>
      </trkpt>
      <trkpt lat="44.06808" lon="5.16165">
        <ele>303.4</ele>
        <time>2012-09-15T10:42:35.000Z</time>
      </trkpt>
      <trkpt lat="44.06807" lon="5.16171">
        <ele>304.2</ele>
        <time>2012-09-15T10:42:37.000Z</time>
      </trkpt>
      <trkpt lat="44.06807" lon="5.16175">
        <ele>305.2</ele>
        <time>2012-09-15T10:42:39.000Z</time>
      </trkpt>
      <trkpt lat="44.06808" lon="5.16179">
        <ele>305.2</ele>
        <time>2012-09-15T10:42:42.000Z</time>
      </trkpt>
      <trkpt lat="44.06808" lon="5.16183">
        <ele>305.1</ele>
        <time>2012-09-15T10:43:25.000Z</time>
      </trkpt>
      <trkpt lat="44.06809" lon="5.16187">
        <ele>304.6</ele>
        <time>2012-09-15T10:43:28.000Z</time>
      </trkpt>
      <trkpt lat="44.06811" lon="5.16192">
        <ele>306</ele>
        <time>2012-09-15T10:43:31.000Z</time>
      </trkpt>
      <trkpt lat="44.06813" lon="5.16196">
        <ele>306.6</ele>
        <time>2012-09-15T10:43:33.000Z</time>
      </trkpt>
      <trkpt lat="44.06814" lon="5.162">
        <ele>307.8</ele>
        <time>2012-09-15T10:43:36.000Z</time>
      </trkpt>
      <trkpt lat="44.06816" lon="5.16205">
        <ele>308.4</ele>
        <time>2012-09-15T10:43:39.000Z</time>
      </trkpt>
      <trkpt lat="44.06817" lon="5.16209">
        <ele>308.9</ele>
        <time>2012-09-15T10:43:41.000Z</time>
      </trkpt>
      <trkpt lat="44.06818" lon="5.16212">
        <ele>309.4</ele>
        <time>2012-09-15T10:43:43.000Z</time>
      </trkpt>
      <trkpt lat="44.0682" lon="5.16217">
        <ele>310.6</ele>
        <time>2012-09-15T10:43:45.000Z</time>
      </trkpt>
      <trkpt lat="44.06822" lon="5.1622">
        <ele>310.6</ele>
        <time>2012-09-15T10:43:47.000Z</time>
      </trkpt>
      <trkpt lat="44.06824" lon="5.16225">
        <ele>310.5</ele>
        <time>2012-09-15T10:43:49.000Z</time>
      </trkpt>
      <trkpt lat="44.06825" lon="5.16229">
        <ele>310.5</ele>
        <time>2012-09-15T10:43:51.000Z</time>
      </trkpt>
      <trkpt lat="44.06827" lon="5.16233">
        <ele>310.3</ele>
        <time>2012-09-15T10:43:53.000Z</time>
      </trkpt>
      <trkpt lat="44.06828" lon="5.16236">
        <ele>310.9</ele>
        <time>2012-09-15T10:43:55.000Z</time>
      </trkpt>
      <trkpt lat="44.0683" lon="5.1624">
        <ele>310.6</ele>
        <time>2012-09-15T10:43:57.000Z</time>
      </trkpt>
      <trkpt lat="44.06831" lon="5.16243">
        <ele>311.2</ele>
        <time>2012-09-15T10:43:59.000Z</time>
      </trkpt>
      <trkpt lat="44.06832" lon="5.16247">
        <ele>311.3</ele>
        <time>2012-09-15T10:44:01.000Z</time>
      </trkpt>
      <trkpt lat="44.06834" lon="5.1625">
        <ele>312.3</ele>
        <time>2012-09-15T10:44:12.000Z</time>
      </trkpt>
      <trkpt lat="44.06835" lon="5.16254">
        <ele>313.7</ele>
        <time>2012-09-15T10:44:19.000Z</time>
      </trkpt>
      <trkpt lat="44.06836" lon="5.16258">
        <ele>315.7</ele>
        <time>2012-09-15T10:44:26.000Z</time>
      </trkpt>
      <trkpt lat="44.06838" lon="5.16262">
        <ele>315.9</ele>
        <time>2012-09-15T10:44:29.000Z</time>
      </trkpt>
      <trkpt lat="44.06839" lon="5.16266">
        <ele>316.9</ele>
        <time>2012-09-15T10:44:32.000Z</time>
      </trkpt>
      <trkpt lat="44.06839" lon="5.1627">
        <ele>320</ele>
        <time>2012-09-15T10:44:37.000Z</time>
      </trkpt>
      <trkpt lat="44.06841" lon="5.16274">
        <ele>321.6</ele>
        <time>2012-09-15T10:44:41.000Z</time>
      </trkpt>
      <trkpt lat="44.06841" lon="5.16278">
        <ele>323.2</ele>
        <time>2012-09-15T10:44:44.000Z</time>
      </trkpt>
      <trkpt lat="44.06843" lon="5.16281">
        <ele>324</ele>
        <time>2012-09-15T10:44:47.000Z</time>
      </trkpt>
      <trkpt lat="44.06844" lon="5.16285">
        <ele>323.9</ele>
        <time>2012-09-15T10:44:50.000Z</time>
      </trkpt>
      <trkpt lat="44.06846" lon="5.16289">
        <ele>324.4</ele>
        <time>2012-09-15T10:44:55.000Z</time>
      </trkpt>
      <trkpt lat="44.06848" lon="5.16293">
        <ele>326.2</ele>
        <time>2012-09-15T10:44:59.000Z</time>
      </trkpt>
      <trkpt lat="44.06851" lon="5.16293">
        <ele>327.3</ele>
        <time>2012-09-15T10:45:07.000Z</time>
      </trkpt>
      <trkpt lat="44.06851" lon="5.16298">
        <ele>324.1</ele>
        <time>2012-09-15T10:46:01.000Z</time>
      </trkpt>
      <trkpt lat="44.06852" lon="5.16301">
        <ele>320.5</ele>
        <time>2012-09-15T10:46:05.000Z</time>
      </trkpt>
      <trkpt lat="44.06851" lon="5.16305">
        <ele>323</ele>
        <time>2012-09-15T10:46:10.000Z</time>
      </trkpt>
      <trkpt lat="44.06848" lon="5.16307">
        <ele>322.7</ele>
        <time>2012-09-15T10:46:12.000Z</time>
      </trkpt>
      <trkpt lat="44.06849" lon="5.16311">
        <ele>323</ele>
        <time>2012-09-15T10:46:18.000Z</time>
      </trkpt>
      <trkpt lat="44.06847" lon="5.16316">
        <ele>323.4</ele>
        <time>2012-09-15T10:46:21.000Z</time>
      </trkpt>
      <trkpt lat="44.06847" lon="5.16322">
        <ele>323</ele>
        <time>2012-09-15T10:46:23.000Z</time>
      </trkpt>
      <trkpt lat="44.06846" lon="5.16326">
        <ele>323.9</ele>
        <time>2012-09-15T10:46:25.000Z</time>
      </trkpt>
      <trkpt lat="44.06844" lon="5.16331">
        <ele>324.3</ele>
        <time>2012-09-15T10:46:27.000Z</time>
      </trkpt>
      <trkpt lat="44.06843" lon="5.16337">
        <ele>323.9</ele>
        <time>2012-09-15T10:46:29.000Z</time>
      </trkpt>
      <trkpt lat="44.06842" lon="5.16343">
        <ele>323</ele>
        <time>2012-09-15T10:46:31.000Z</time>
      </trkpt>
      <trkpt lat="44.06841" lon="5.16349">
        <ele>324.1</ele>
        <time>2012-09-15T10:46:33.000Z</time>
      </trkpt>
      <trkpt lat="44.0684" lon="5.16355">
        <ele>325</ele>
        <time>2012-09-15T10:46:35.000Z</time>
      </trkpt>
      <trkpt lat="44.0684" lon="5.16361">
        <ele>325</ele>
        <time>2012-09-15T10:46:37.000Z</time>
      </trkpt>
      <trkpt lat="44.06838" lon="5.16367">
        <ele>325.5</ele>
        <time>2012-09-15T10:46:39.000Z</time>
      </trkpt>
      <trkpt lat="44.06836" lon="5.16373">
        <ele>325.4</ele>
        <time>2012-09-15T10:46:41.000Z</time>
      </trkpt>
      <trkpt lat="44.06835" lon="5.16378">
        <ele>325.5</ele>
        <time>2012-09-15T10:46:43.000Z</time>
      </trkpt>
      <trkpt lat="44.06833" lon="5.16382">
        <ele>325.2</ele>
        <time>2012-09-15T10:46:45.000Z</time>
      </trkpt>
      <trkpt lat="44.0683" lon="5.16387">
        <ele>326.7</ele>
        <time>2012-09-15T10:46:47.000Z</time>
      </trkpt>
      <trkpt lat="44.06828" lon="5.16392">
        <ele>327.4</ele>
        <time>2012-09-15T10:46:49.000Z</time>
      </trkpt>
      <trkpt lat="44.06827" lon="5.16397">
        <ele>327.7</ele>
        <time>2012-09-15T10:46:51.000Z</time>
      </trkpt>
      <trkpt lat="44.06824" lon="5.16401">
        <ele>326.8</ele>
        <time>2012-09-15T10:46:53.000Z</time>
      </trkpt>
      <trkpt lat="44.06822" lon="5.16406">
        <ele>326.5</ele>
        <time>2012-09-15T10:46:55.000Z</time>
      </trkpt>
      <trkpt lat="44.0682" lon="5.1641">
        <ele>326.4</ele>
        <time>2012-09-15T10:46:57.000Z</time>
      </trkpt>
      <trkpt lat="44.06819" lon="5.16414">
        <ele>326.6</ele>
        <time>2012-09-15T10:47:00.000Z</time>
      </trkpt>
      <trkpt lat="44.06818" lon="5.16418">
        <ele>326</ele>
        <time>2012-09-15T10:47:02.000Z</time>
      </trkpt>
      <trkpt lat="44.06819" lon="5.16422">
        <ele>325.8</ele>
        <time>2012-09-15T10:47:04.000Z</time>
      </trkpt>
      <trkpt lat="44.06817" lon="5.16426">
        <ele>326.4</ele>
        <time>2012-09-15T10:47:06.000Z</time>
      </trkpt>
      <trkpt lat="44.0682" lon="5.16426">
        <ele>326.9</ele>
        <time>2012-09-15T10:47:09.000Z</time>
      </trkpt>
      <trkpt lat="44.06824" lon="5.16427">
        <ele>328.1</ele>
        <time>2012-09-15T10:47:12.000Z</time>
      </trkpt>
      <trkpt lat="44.06828" lon="5.16429">
        <ele>327.8</ele>
        <time>2012-09-15T10:47:15.000Z</time>
      </trkpt>
      <trkpt lat="44.06832" lon="5.16431">
        <ele>328.6</ele>
        <time>2012-09-15T10:47:18.000Z</time>
      </trkpt>
      <trkpt lat="44.06834" lon="5.16433">
        <ele>329.4</ele>
        <time>2012-09-15T10:47:20.000Z</time>
      </trkpt>
      <trkpt lat="44.06838" lon="5.16436">
        <ele>329.7</ele>
        <time>2012-09-15T10:47:25.000Z</time>
      </trkpt>
      <trkpt lat="44.06842" lon="5.16437">
        <ele>329.5</ele>
        <time>2012-09-15T10:47:27.000Z</time>
      </trkpt>
      <trkpt lat="44.06844" lon="5.1644">
        <ele>331.4</ele>
        <time>2012-09-15T10:47:30.000Z</time>
      </trkpt>
      <trkpt lat="44.06848" lon="5.16442">
        <ele>332.8</ele>
        <time>2012-09-15T10:47:33.000Z</time>
      </trkpt>
      <trkpt lat="44.06852" lon="5.16442">
        <ele>333.6</ele>
        <time>2012-09-15T10:47:36.000Z</time>
      </trkpt>
      <trkpt lat="44.06855" lon="5.16443">
        <ele>334.8</ele>
        <time>2012-09-15T10:47:38.000Z</time>
      </trkpt>
      <trkpt lat="44.06859" lon="5.16445">
        <ele>336.1</ele>
        <time>2012-09-15T10:47:41.000Z</time>
      </trkpt>
      <trkpt lat="44.06862" lon="5.16445">
        <ele>337.2</ele>
        <time>2012-09-15T10:47:43.000Z</time>
      </trkpt>
      <trkpt lat="44.06866" lon="5.16446">
        <ele>337.1</ele>
        <time>2012-09-15T10:47:45.000Z</time>
      </trkpt>
      <trkpt lat="44.06869" lon="5.16447">
        <ele>337.3</ele>
        <time>2012-09-15T10:47:47.000Z</time>
      </trkpt>
      <trkpt lat="44.06873" lon="5.16447">
        <ele>336.9</ele>
        <time>2012-09-15T10:47:49.000Z</time>
      </trkpt>
      <trkpt lat="44.06876" lon="5.16444">
        <ele>336.5</ele>
        <time>2012-09-15T10:47:51.000Z</time>
      </trkpt>
      <trkpt lat="44.06878" lon="5.16442">
        <ele>335.8</ele>
        <time>2012-09-15T10:47:53.000Z</time>
      </trkpt>
      <trkpt lat="44.06881" lon="5.1644">
        <ele>334.6</ele>
        <time>2012-09-15T10:47:55.000Z</time>
      </trkpt>
      <trkpt lat="44.06881" lon="5.16435">
        <ele>334.2</ele>
        <time>2012-09-15T10:47:57.000Z</time>
      </trkpt>
      <trkpt lat="44.06882" lon="5.16431">
        <ele>334.4</ele>
        <time>2012-09-15T10:47:59.000Z</time>
      </trkpt>
      <trkpt lat="44.06883" lon="5.16427">
        <ele>334.6</ele>
        <time>2012-09-15T10:48:01.000Z</time>
      </trkpt>
      <trkpt lat="44.06884" lon="5.16422">
        <ele>334.9</ele>
        <time>2012-09-15T10:48:04.000Z</time>
      </trkpt>
      <trkpt lat="44.06887" lon="5.1642">
        <ele>335.2</ele>
        <time>2012-09-15T10:48:05.000Z</time>
      </trkpt>
      <trkpt lat="44.0689" lon="5.16419">
        <ele>336.6</ele>
        <time>2012-09-15T10:48:07.000Z</time>
      </trkpt>
      <trkpt lat="44.06894" lon="5.1642">
        <ele>337.2</ele>
        <time>2012-09-15T10:48:10.000Z</time>
      </trkpt>
      <trkpt lat="44.06895" lon="5.16423">
        <ele>337.3</ele>
        <time>2012-09-15T10:48:13.000Z</time>
      </trkpt>
      <trkpt lat="44.06898" lon="5.16427">
        <ele>337.9</ele>
        <time>2012-09-15T10:48:16.000Z</time>
      </trkpt>
      <trkpt lat="44.069" lon="5.1643">
        <ele>337.5</ele>
        <time>2012-09-15T10:48:18.000Z</time>
      </trkpt>
      <trkpt lat="44.06903" lon="5.16432">
        <ele>338.4</ele>
        <time>2012-09-15T10:48:21.000Z</time>
      </trkpt>
      <trkpt lat="44.06906" lon="5.16434">
        <ele>338.7</ele>
        <time>2012-09-15T10:48:23.000Z</time>
      </trkpt>
      <trkpt lat="44.06911" lon="5.16434">
        <ele>338</ele>
        <time>2012-09-15T10:48:26.000Z</time>
      </trkpt>
      <trkpt lat="44.06914" lon="5.16433">
        <ele>337.7</ele>
        <time>2012-09-15T10:48:28.000Z</time>
      </trkpt>
      <trkpt lat="44.06917" lon="5.16432">
        <ele>337.8</ele>
        <time>2012-09-15T10:48:30.000Z</time>
      </trkpt>
      <trkpt lat="44.0692" lon="5.1643">
        <ele>337.7</ele>
        <time>2012-09-15T10:48:32.000Z</time>
      </trkpt>
      <trkpt lat="44.06923" lon="5.16429">
        <ele>337.6</ele>
        <time>2012-09-15T10:48:34.000Z</time>
      </trkpt>
      <trkpt lat="44.06927" lon="5.16428">
        <ele>338</ele>
        <time>2012-09-15T10:48:36.000Z</time>
      </trkpt>
      <trkpt lat="44.0693" lon="5.16427">
        <ele>337.9</ele>
        <time>2012-09-15T10:48:38.000Z</time>
      </trkpt>
      <trkpt lat="44.06933" lon="5.16427">
        <ele>339.5</ele>
        <time>2012-09-15T10:48:40.000Z</time>
      </trkpt>
      <trkpt lat="44.06936" lon="5.16428">
        <ele>340.4</ele>
        <time>2012-09-15T10:48:41.000Z</time>
      </trkpt>
      <trkpt lat="44.06939" lon="5.16426">
        <ele>337.7</ele>
        <time>2012-09-15T10:50:29.000Z</time>
      </trkpt>
      <trkpt lat="44.06942" lon="5.16423">
        <ele>338.8</ele>
        <time>2012-09-15T10:50:31.000Z</time>
      </trkpt>
      <trkpt lat="44.06944" lon="5.16421">
        <ele>338.6</ele>
        <time>2012-09-15T10:50:33.000Z</time>
      </trkpt>
      <trkpt lat="44.06948" lon="5.1642">
        <ele>338</ele>
        <time>2012-09-15T10:50:36.000Z</time>
      </trkpt>
      <trkpt lat="44.06951" lon="5.16416">
        <ele>337.9</ele>
        <time>2012-09-15T10:50:38.000Z</time>
      </trkpt>
      <trkpt lat="44.06952" lon="5.16413">
        <ele>337.4</ele>
        <time>2012-09-15T10:50:40.000Z</time>
      </trkpt>
      <trkpt lat="44.06955" lon="5.16412">
        <ele>337.5</ele>
        <time>2012-09-15T10:50:41.000Z</time>
      </trkpt>
      <trkpt lat="44.06962" lon="5.16412">
        <ele>336.4</ele>
        <time>2012-09-15T10:50:43.000Z</time>
      </trkpt>
      <trkpt lat="44.06965" lon="5.16413">
        <ele>336.1</ele>
        <time>2012-09-15T10:50:44.000Z</time>
      </trkpt>
      <trkpt lat="44.06969" lon="5.16414">
        <ele>336.5</ele>
        <time>2012-09-15T10:50:45.000Z</time>
      </trkpt>
      <trkpt lat="44.06973" lon="5.16415">
        <ele>336.3</ele>
        <time>2012-09-15T10:50:46.000Z</time>
      </trkpt>
      <trkpt lat="44.06977" lon="5.16416">
        <ele>335.9</ele>
        <time>2012-09-15T10:50:47.000Z</time>
      </trkpt>
      <trkpt lat="44.0698" lon="5.16416">
        <ele>336.4</ele>
        <time>2012-09-15T10:50:48.000Z</time>
      </trkpt>
      <trkpt lat="44.06986" lon="5.16417">
        <ele>337.4</ele>
        <time>2012-09-15T10:50:50.000Z</time>
      </trkpt>
      <trkpt lat="44.06991" lon="5.16419">
        <ele>338</ele>
        <time>2012-09-15T10:50:52.000Z</time>
      </trkpt>
      <trkpt lat="44.06994" lon="5.1642">
        <ele>338.3</ele>
        <time>2012-09-15T10:50:53.000Z</time>
      </trkpt>
      <trkpt lat="44.06997" lon="5.16422">
        <ele>338.5</ele>
        <time>2012-09-15T10:50:54.000Z</time>
      </trkpt>
      <trkpt lat="44.06999" lon="5.16423">
        <ele>338.7</ele>
        <time>2012-09-15T10:50:55.000Z</time>
      </trkpt>
      <trkpt lat="44.07002" lon="5.16424">
        <ele>338.7</ele>
        <time>2012-09-15T10:50:56.000Z</time>
      </trkpt>
      <trkpt lat="44.07007" lon="5.16426">
        <ele>339.1</ele>
        <time>2012-09-15T10:50:58.000Z</time>
      </trkpt>
      <trkpt lat="44.07012" lon="5.16427">
        <ele>340</ele>
        <time>2012-09-15T10:51:00.000Z</time>
      </trkpt>
      <trkpt lat="44.07015" lon="5.16427">
        <ele>340.1</ele>
        <time>2012-09-15T10:51:01.000Z</time>
      </trkpt>
      <trkpt lat="44.07018" lon="5.16427">
        <ele>340.2</ele>
        <time>2012-09-15T10:51:02.000Z</time>
      </trkpt>
      <trkpt lat="44.07021" lon="5.16426">
        <ele>340.1</ele>
        <time>2012-09-15T10:51:03.000Z</time>
      </trkpt>
      <trkpt lat="44.07024" lon="5.16424">
        <ele>339.9</ele>
        <time>2012-09-15T10:51:04.000Z</time>
      </trkpt>
      <trkpt lat="44.0703" lon="5.1642">
        <ele>339.7</ele>
        <time>2012-09-15T10:51:06.000Z</time>
      </trkpt>
      <trkpt lat="44.07033" lon="5.16417">
        <ele>339.4</ele>
        <time>2012-09-15T10:51:07.000Z</time>
      </trkpt>
      <trkpt lat="44.07036" lon="5.16414">
        <ele>339.3</ele>
        <time>2012-09-15T10:51:08.000Z</time>
      </trkpt>
      <trkpt lat="44.07038" lon="5.16411">
        <ele>339</ele>
        <time>2012-09-15T10:51:09.000Z</time>
      </trkpt>
      <trkpt lat="44.07041" lon="5.16408">
        <ele>339.2</ele>
        <time>2012-09-15T10:51:10.000Z</time>
      </trkpt>
      <trkpt lat="44.07043" lon="5.16406">
        <ele>339.2</ele>
        <time>2012-09-15T10:51:11.000Z</time>
      </trkpt>
      <trkpt lat="44.07046" lon="5.16402">
        <ele>339.1</ele>
        <time>2012-09-15T10:51:12.000Z</time>
      </trkpt>
      <trkpt lat="44.07046" lon="5.16397">
        <ele>339.2</ele>
        <time>2012-09-15T10:51:13.000Z</time>
      </trkpt>
      <trkpt lat="44.07048" lon="5.16393">
        <ele>339.2</ele>
        <time>2012-09-15T10:51:14.000Z</time>
      </trkpt>
      <trkpt lat="44.0705" lon="5.16389">
        <ele>339.7</ele>
        <time>2012-09-15T10:51:15.000Z</time>
      </trkpt>
      <trkpt lat="44.07053" lon="5.16386">
        <ele>338.6</ele>
        <time>2012-09-15T10:51:16.000Z</time>
      </trkpt>
      <trkpt lat="44.07055" lon="5.16382">
        <ele>338.1</ele>
        <time>2012-09-15T10:51:17.000Z</time>
      </trkpt>
      <trkpt lat="44.07057" lon="5.16378">
        <ele>337</ele>
        <time>2012-09-15T10:51:18.000Z</time>
      </trkpt>
      <trkpt lat="44.07059" lon="5.16374">
        <ele>335.2</ele>
        <time>2012-09-15T10:51:19.000Z</time>
      </trkpt>
      <trkpt lat="44.07061" lon="5.1637">
        <ele>333.6</ele>
        <time>2012-09-15T10:51:20.000Z</time>
      </trkpt>
      <trkpt lat="44.07062" lon="5.16366">
        <ele>335.2</ele>
        <time>2012-09-15T10:51:21.000Z</time>
      </trkpt>
      <trkpt lat="44.07063" lon="5.16362">
        <ele>334.7</ele>
        <time>2012-09-15T10:51:22.000Z</time>
      </trkpt>
      <trkpt lat="44.07068" lon="5.16355">
        <ele>334.1</ele>
        <time>2012-09-15T10:51:24.000Z</time>
      </trkpt>
      <trkpt lat="44.07071" lon="5.16352">
        <ele>333.4</ele>
        <time>2012-09-15T10:51:25.000Z</time>
      </trkpt>
      <trkpt lat="44.07074" lon="5.16349">
        <ele>333.4</ele>
        <time>2012-09-15T10:51:26.000Z</time>
      </trkpt>
      <trkpt lat="44.07077" lon="5.16347">
        <ele>333.3</ele>
        <time>2012-09-15T10:51:27.000Z</time>
      </trkpt>
      <trkpt lat="44.0708" lon="5.16345">
        <ele>333.4</ele>
        <time>2012-09-15T10:51:28.000Z</time>
      </trkpt>
      <trkpt lat="44.07084" lon="5.16343">
        <ele>334.6</ele>
        <time>2012-09-15T10:51:30.000Z</time>
      </trkpt>
      <trkpt lat="44.07085" lon="5.16348">
        <ele>334.2</ele>
        <time>2012-09-15T10:51:31.000Z</time>
      </trkpt>
      <trkpt lat="44.07088" lon="5.1635">
        <ele>334.7</ele>
        <time>2012-09-15T10:51:33.000Z</time>
      </trkpt>
      <trkpt lat="44.07094" lon="5.1635">
        <ele>332.6</ele>
        <time>2012-09-15T10:51:35.000Z</time>
      </trkpt>
      <trkpt lat="44.07095" lon="5.16355">
        <ele>331.1</ele>
        <time>2012-09-15T10:51:37.000Z</time>
      </trkpt>
      <trkpt lat="44.07096" lon="5.16359">
        <ele>330.7</ele>
        <time>2012-09-15T10:51:39.000Z</time>
      </trkpt>
      <trkpt lat="44.07098" lon="5.16363">
        <ele>330.8</ele>
        <time>2012-09-15T10:51:42.000Z</time>
      </trkpt>
      <trkpt lat="44.071" lon="5.16365">
        <ele>331.3</ele>
        <time>2012-09-15T10:51:44.000Z</time>
      </trkpt>
      <trkpt lat="44.071" lon="5.16369">
        <ele>332.5</ele>
        <time>2012-09-15T10:51:46.000Z</time>
      </trkpt>
      <trkpt lat="44.07101" lon="5.16373">
        <ele>333.3</ele>
        <time>2012-09-15T10:51:48.000Z</time>
      </trkpt>
      <trkpt lat="44.07101" lon="5.16378">
        <ele>334.1</ele>
        <time>2012-09-15T10:51:52.000Z</time>
      </trkpt>
      <trkpt lat="44.07103" lon="5.16383">
        <ele>334.3</ele>
        <time>2012-09-15T10:51:54.000Z</time>
      </trkpt>
      <trkpt lat="44.07103" lon="5.16388">
        <ele>337</ele>
        <time>2012-09-15T10:51:57.000Z</time>
      </trkpt>
      <trkpt lat="44.07104" lon="5.16392">
        <ele>337.4</ele>
        <time>2012-09-15T10:51:59.000Z</time>
      </trkpt>
      <trkpt lat="44.07105" lon="5.16397">
        <ele>338.6</ele>
        <time>2012-09-15T10:52:01.000Z</time>
      </trkpt>
      <trkpt lat="44.07107" lon="5.16402">
        <ele>339.2</ele>
        <time>2012-09-15T10:52:03.000Z</time>
      </trkpt>
      <trkpt lat="44.07108" lon="5.16405">
        <ele>339.4</ele>
        <time>2012-09-15T10:52:05.000Z</time>
      </trkpt>
      <trkpt lat="44.07108" lon="5.16409">
        <ele>341.3</ele>
        <time>2012-09-15T10:52:07.000Z</time>
      </trkpt>
      <trkpt lat="44.07109" lon="5.16413">
        <ele>342.5</ele>
        <time>2012-09-15T10:52:09.000Z</time>
      </trkpt>
      <trkpt lat="44.0711" lon="5.16417">
        <ele>343.5</ele>
        <time>2012-09-15T10:52:11.000Z</time>
      </trkpt>
      <trkpt lat="44.07111" lon="5.16422">
        <ele>345.5</ele>
        <time>2012-09-15T10:52:14.000Z</time>
      </trkpt>
      <trkpt lat="44.07112" lon="5.16426">
        <ele>345.9</ele>
        <time>2012-09-15T10:52:16.000Z</time>
      </trkpt>
      <trkpt lat="44.07113" lon="5.16429">
        <ele>347.9</ele>
        <time>2012-09-15T10:52:18.000Z</time>
      </trkpt>
      <trkpt lat="44.07116" lon="5.16433">
        <ele>348.3</ele>
        <time>2012-09-15T10:52:20.000Z</time>
      </trkpt>
      <trkpt lat="44.07118" lon="5.16434">
        <ele>348.5</ele>
        <time>2012-09-15T10:52:22.000Z</time>
      </trkpt>
      <trkpt lat="44.07122" lon="5.16436">
        <ele>348.5</ele>
        <time>2012-09-15T10:52:24.000Z</time>
      </trkpt>
      <trkpt lat="44.07127" lon="5.16436">
        <ele>348.7</ele>
        <time>2012-09-15T10:52:26.000Z</time>
      </trkpt>
      <trkpt lat="44.07133" lon="5.16435">
        <ele>348.7</ele>
        <time>2012-09-15T10:52:28.000Z</time>
      </trkpt>
      <trkpt lat="44.07136" lon="5.16434">
        <ele>348.9</ele>
        <time>2012-09-15T10:52:29.000Z</time>
      </trkpt>
      <trkpt lat="44.07139" lon="5.16434">
        <ele>348.7</ele>
        <time>2012-09-15T10:52:30.000Z</time>
      </trkpt>
      <trkpt lat="44.07142" lon="5.16433">
        <ele>348.7</ele>
        <time>2012-09-15T10:52:31.000Z</time>
      </trkpt>
      <trkpt lat="44.07145" lon="5.16433">
        <ele>348.2</ele>
        <time>2012-09-15T10:52:32.000Z</time>
      </trkpt>
      <trkpt lat="44.0715" lon="5.16433">
        <ele>348.8</ele>
        <time>2012-09-15T10:52:34.000Z</time>
      </trkpt>
      <trkpt lat="44.07153" lon="5.16435">
        <ele>349.5</ele>
        <time>2012-09-15T10:52:36.000Z</time>
      </trkpt>
      <trkpt lat="44.07151" lon="5.1644">
        <ele>350.9</ele>
        <time>2012-09-15T10:52:37.000Z</time>
      </trkpt>
      <trkpt lat="44.07149" lon="5.16443">
        <ele>350.8</ele>
        <time>2012-09-15T10:52:39.000Z</time>
      </trkpt>
      <trkpt lat="44.07146" lon="5.16445">
        <ele>351.2</ele>
        <time>2012-09-15T10:52:41.000Z</time>
      </trkpt>
      <trkpt lat="44.07143" lon="5.16444">
        <ele>351.8</ele>
        <time>2012-09-15T10:52:43.000Z</time>
      </trkpt>
      <trkpt lat="44.07139" lon="5.16445">
        <ele>352.8</ele>
        <time>2012-09-15T10:52:45.000Z</time>
      </trkpt>
      <trkpt lat="44.07136" lon="5.16445">
        <ele>353.7</ele>
        <time>2012-09-15T10:52:47.000Z</time>
      </trkpt>
      <trkpt lat="44.07133" lon="5.16448">
        <ele>354.4</ele>
        <time>2012-09-15T10:52:49.000Z</time>
      </trkpt>
      <trkpt lat="44.0713" lon="5.1645">
        <ele>354.2</ele>
        <time>2012-09-15T10:52:51.000Z</time>
      </trkpt>
      <trkpt lat="44.07126" lon="5.16451">
        <ele>354.3</ele>
        <time>2012-09-15T10:52:53.000Z</time>
      </trkpt>
      <trkpt lat="44.07123" lon="5.16452">
        <ele>354.2</ele>
        <time>2012-09-15T10:52:56.000Z</time>
      </trkpt>
      <trkpt lat="44.07119" lon="5.16454">
        <ele>354.5</ele>
        <time>2012-09-15T10:52:58.000Z</time>
      </trkpt>
      <trkpt lat="44.07115" lon="5.16454">
        <ele>357.6</ele>
        <time>2012-09-15T10:53:01.000Z</time>
      </trkpt>
      <trkpt lat="44.0711" lon="5.16455">
        <ele>357.9</ele>
        <time>2012-09-15T10:53:04.000Z</time>
      </trkpt>
      <trkpt lat="44.07108" lon="5.16457">
        <ele>357.8</ele>
        <time>2012-09-15T10:53:06.000Z</time>
      </trkpt>
      <trkpt lat="44.07108" lon="5.16462">
        <ele>358.8</ele>
        <time>2012-09-15T10:53:08.000Z</time>
      </trkpt>
      <trkpt lat="44.07103" lon="5.16465">
        <ele>358.2</ele>
        <time>2012-09-15T10:53:10.000Z</time>
      </trkpt>
      <trkpt lat="44.07101" lon="5.16469">
        <ele>359</ele>
        <time>2012-09-15T10:53:12.000Z</time>
      </trkpt>
      <trkpt lat="44.07104" lon="5.16472">
        <ele>359.8</ele>
        <time>2012-09-15T10:53:15.000Z</time>
      </trkpt>
      <trkpt lat="44.07108" lon="5.16473">
        <ele>358.5</ele>
        <time>2012-09-15T10:53:17.000Z</time>
      </trkpt>
      <trkpt lat="44.07111" lon="5.16474">
        <ele>357.6</ele>
        <time>2012-09-15T10:53:20.000Z</time>
      </trkpt>
      <trkpt lat="44.07115" lon="5.16476">
        <ele>358.8</ele>
        <time>2012-09-15T10:53:22.000Z</time>
      </trkpt>
      <trkpt lat="44.07119" lon="5.16476">
        <ele>360.1</ele>
        <time>2012-09-15T10:53:24.000Z</time>
      </trkpt>
      <trkpt lat="44.07122" lon="5.16477">
        <ele>360.1</ele>
        <time>2012-09-15T10:53:26.000Z</time>
      </trkpt>
      <trkpt lat="44.07127" lon="5.16478">
        <ele>360.5</ele>
        <time>2012-09-15T10:53:28.000Z</time>
      </trkpt>
      <trkpt lat="44.07131" lon="5.16479">
        <ele>361.3</ele>
        <time>2012-09-15T10:53:30.000Z</time>
      </trkpt>
      <trkpt lat="44.07134" lon="5.1648">
        <ele>361</ele>
        <time>2012-09-15T10:53:32.000Z</time>
      </trkpt>
      <trkpt lat="44.07138" lon="5.16483">
        <ele>362.5</ele>
        <time>2012-09-15T10:53:34.000Z</time>
      </trkpt>
      <trkpt lat="44.07141" lon="5.16486">
        <ele>362.9</ele>
        <time>2012-09-15T10:53:36.000Z</time>
      </trkpt>
      <trkpt lat="44.07143" lon="5.1649">
        <ele>362.9</ele>
        <time>2012-09-15T10:53:37.000Z</time>
      </trkpt>
      <trkpt lat="44.07145" lon="5.16493">
        <ele>363.1</ele>
        <time>2012-09-15T10:53:39.000Z</time>
      </trkpt>
      <trkpt lat="44.07148" lon="5.16497">
        <ele>363</ele>
        <time>2012-09-15T10:53:50.000Z</time>
      </trkpt>
      <trkpt lat="44.07149" lon="5.16501">
        <ele>363.1</ele>
        <time>2012-09-15T10:53:54.000Z</time>
      </trkpt>
      <trkpt lat="44.07151" lon="5.16505">
        <ele>363.5</ele>
        <time>2012-09-15T10:53:57.000Z</time>
      </trkpt>
      <trkpt lat="44.07151" lon="5.16509">
        <ele>364.7</ele>
        <time>2012-09-15T10:54:01.000Z</time>
      </trkpt>
      <trkpt lat="44.07153" lon="5.16513">
        <ele>365.8</ele>
        <time>2012-09-15T10:54:06.000Z</time>
      </trkpt>
      <trkpt lat="44.07155" lon="5.16518">
        <ele>365.8</ele>
        <time>2012-09-15T10:54:09.000Z</time>
      </trkpt>
      <trkpt lat="44.07157" lon="5.16521">
        <ele>366</ele>
        <time>2012-09-15T10:54:11.000Z</time>
      </trkpt>
      <trkpt lat="44.07159" lon="5.16524">
        <ele>365.8</ele>
        <time>2012-09-15T10:54:13.000Z</time>
      </trkpt>
      <trkpt lat="44.0716" lon="5.16526">
        <ele>366</ele>
        <time>2012-09-15T10:54:16.000Z</time>
      </trkpt>
      <trkpt lat="44.07162" lon="5.1653">
        <ele>366.1</ele>
        <time>2012-09-15T10:54:19.000Z</time>
      </trkpt>
      <trkpt lat="44.07164" lon="5.16532">
        <ele>366.3</ele>
        <time>2012-09-15T10:54:22.000Z</time>
      </trkpt>
      <trkpt lat="44.07166" lon="5.16535">
        <ele>367.1</ele>
        <time>2012-09-15T10:54:25.000Z</time>
      </trkpt>
      <trkpt lat="44.07169" lon="5.16536">
        <ele>369.2</ele>
        <time>2012-09-15T10:54:32.000Z</time>
      </trkpt>
      <trkpt lat="44.07171" lon="5.16539">
        <ele>370.6</ele>
        <time>2012-09-15T10:54:35.000Z</time>
      </trkpt>
      <trkpt lat="44.07174" lon="5.16541">
        <ele>371</ele>
        <time>2012-09-15T10:54:37.000Z</time>
      </trkpt>
      <trkpt lat="44.07176" lon="5.16543">
        <ele>371.5</ele>
        <time>2012-09-15T10:54:39.000Z</time>
      </trkpt>
      <trkpt lat="44.0718" lon="5.16546">
        <ele>370.1</ele>
        <time>2012-09-15T10:54:41.000Z</time>
      </trkpt>
      <trkpt lat="44.07182" lon="5.16547">
        <ele>370.4</ele>
        <time>2012-09-15T10:54:43.000Z</time>
      </trkpt>
      <trkpt lat="44.07185" lon="5.16549">
        <ele>371.2</ele>
        <time>2012-09-15T10:54:45.000Z</time>
      </trkpt>
      <trkpt lat="44.07187" lon="5.16552">
        <ele>371.9</ele>
        <time>2012-09-15T10:54:47.000Z</time>
      </trkpt>
      <trkpt lat="44.0719" lon="5.16555">
        <ele>372.1</ele>
        <time>2012-09-15T10:54:48.000Z</time>
      </trkpt>
      <trkpt lat="44.07192" lon="5.16556">
        <ele>372.8</ele>
        <time>2012-09-15T10:54:50.000Z</time>
      </trkpt>
      <trkpt lat="44.07196" lon="5.16557">
        <ele>374.2</ele>
        <time>2012-09-15T10:54:54.000Z</time>
      </trkpt>
      <trkpt lat="44.07199" lon="5.16561">
        <ele>381.4</ele>
        <time>2012-09-15T10:54:57.000Z</time>
      </trkpt>
      <trkpt lat="44.07201" lon="5.16563">
        <ele>380.9</ele>
        <time>2012-09-15T10:54:58.000Z</time>
      </trkpt>
      <trkpt lat="44.07205" lon="5.16564">
        <ele>380</ele>
        <time>2012-09-15T10:55:00.000Z</time>
      </trkpt>
      <trkpt lat="44.07209" lon="5.16565">
        <ele>378.7</ele>
        <time>2012-09-15T10:55:02.000Z</time>
      </trkpt>
      <trkpt lat="44.07213" lon="5.16566">
        <ele>378.9</ele>
        <time>2012-09-15T10:55:04.000Z</time>
      </trkpt>
      <trkpt lat="44.07217" lon="5.16566">
        <ele>379.3</ele>
        <time>2012-09-15T10:55:06.000Z</time>
      </trkpt>
      <trkpt lat="44.07221" lon="5.16566">
        <ele>379</ele>
        <time>2012-09-15T10:55:08.000Z</time>
      </trkpt>
      <trkpt lat="44.07224" lon="5.16566">
        <ele>377.8</ele>
        <time>2012-09-15T10:55:09.000Z</time>
      </trkpt>
      <trkpt lat="44.07228" lon="5.16566">
        <ele>376.8</ele>
        <time>2012-09-15T10:55:11.000Z</time>
      </trkpt>
      <trkpt lat="44.07232" lon="5.16566">
        <ele>376.2</ele>
        <time>2012-09-15T10:55:13.000Z</time>
      </trkpt>
      <trkpt lat="44.07235" lon="5.16566">
        <ele>376.4</ele>
        <time>2012-09-15T10:55:14.000Z</time>
      </trkpt>
      <trkpt lat="44.0724" lon="5.16566">
        <ele>376.6</ele>
        <time>2012-09-15T10:55:16.000Z</time>
      </trkpt>
      <trkpt lat="44.07244" lon="5.16568">
        <ele>376.2</ele>
        <time>2012-09-15T10:55:18.000Z</time>
      </trkpt>
      <trkpt lat="44.07245" lon="5.16571">
        <ele>377.6</ele>
        <time>2012-09-15T10:55:19.000Z</time>
      </trkpt>
      <trkpt lat="44.0725" lon="5.16574">
        <ele>374.8</ele>
        <time>2012-09-15T10:55:21.000Z</time>
      </trkpt>
      <trkpt lat="44.07253" lon="5.16576">
        <ele>375.3</ele>
        <time>2012-09-15T10:55:23.000Z</time>
      </trkpt>
      <trkpt lat="44.07258" lon="5.16577">
        <ele>376.3</ele>
        <time>2012-09-15T10:55:25.000Z</time>
      </trkpt>
      <trkpt lat="44.07261" lon="5.16577">
        <ele>375.1</ele>
        <time>2012-09-15T10:55:27.000Z</time>
      </trkpt>
      <trkpt lat="44.07264" lon="5.16579">
        <ele>376.5</ele>
        <time>2012-09-15T10:55:29.000Z</time>
      </trkpt>
      <trkpt lat="44.07269" lon="5.1658">
        <ele>376.4</ele>
        <time>2012-09-15T10:55:31.000Z</time>
      </trkpt>
      <trkpt lat="44.07273" lon="5.16581">
        <ele>376.5</ele>
        <time>2012-09-15T10:55:33.000Z</time>
      </trkpt>
      <trkpt lat="44.07279" lon="5.16581">
        <ele>376.6</ele>
        <time>2012-09-15T10:55:35.000Z</time>
      </trkpt>
      <trkpt lat="44.07282" lon="5.16582">
        <ele>377.6</ele>
        <time>2012-09-15T10:55:36.000Z</time>
      </trkpt>
      <trkpt lat="44.07285" lon="5.16582">
        <ele>377.9</ele>
        <time>2012-09-15T10:55:37.000Z</time>
      </trkpt>
      <trkpt lat="44.07288" lon="5.16582">
        <ele>378</ele>
        <time>2012-09-15T10:55:38.000Z</time>
      </trkpt>
      <trkpt lat="44.07291" lon="5.16583">
        <ele>377.6</ele>
        <time>2012-09-15T10:55:39.000Z</time>
      </trkpt>
      <trkpt lat="44.07295" lon="5.16584">
        <ele>376.9</ele>
        <time>2012-09-15T10:55:40.000Z</time>
      </trkpt>
      <trkpt lat="44.07298" lon="5.16586">
        <ele>376.5</ele>
        <time>2012-09-15T10:55:41.000Z</time>
      </trkpt>
      <trkpt lat="44.07304" lon="5.16589">
        <ele>376.2</ele>
        <time>2012-09-15T10:55:43.000Z</time>
      </trkpt>
      <trkpt lat="44.07307" lon="5.16589">
        <ele>376.2</ele>
        <time>2012-09-15T10:55:44.000Z</time>
      </trkpt>
      <trkpt lat="44.07314" lon="5.16589">
        <ele>375.9</ele>
        <time>2012-09-15T10:55:46.000Z</time>
      </trkpt>
      <trkpt lat="44.07318" lon="5.16588">
        <ele>377.1</ele>
        <time>2012-09-15T10:55:47.000Z</time>
      </trkpt>
      <trkpt lat="44.07321" lon="5.16589">
        <ele>377</ele>
        <time>2012-09-15T10:55:48.000Z</time>
      </trkpt>
      <trkpt lat="44.07325" lon="5.1659">
        <ele>376.9</ele>
        <time>2012-09-15T10:55:49.000Z</time>
      </trkpt>
      <trkpt lat="44.07329" lon="5.1659">
        <ele>376</ele>
        <time>2012-09-15T10:55:50.000Z</time>
      </trkpt>
      <trkpt lat="44.07333" lon="5.1659">
        <ele>375.8</ele>
        <time>2012-09-15T10:55:51.000Z</time>
      </trkpt>
      <trkpt lat="44.07337" lon="5.16591">
        <ele>375.3</ele>
        <time>2012-09-15T10:55:52.000Z</time>
      </trkpt>
      <trkpt lat="44.0734" lon="5.16592">
        <ele>375.1</ele>
        <time>2012-09-15T10:55:53.000Z</time>
      </trkpt>
      <trkpt lat="44.07344" lon="5.16593">
        <ele>375.2</ele>
        <time>2012-09-15T10:55:54.000Z</time>
      </trkpt>
      <trkpt lat="44.07347" lon="5.16594">
        <ele>375.7</ele>
        <time>2012-09-15T10:55:55.000Z</time>
      </trkpt>
      <trkpt lat="44.07351" lon="5.16595">
        <ele>376</ele>
        <time>2012-09-15T10:55:56.000Z</time>
      </trkpt>
      <trkpt lat="44.07354" lon="5.16596">
        <ele>376</ele>
        <time>2012-09-15T10:55:57.000Z</time>
      </trkpt>
      <trkpt lat="44.0736" lon="5.16597">
        <ele>376.9</ele>
        <time>2012-09-15T10:55:59.000Z</time>
      </trkpt>
      <trkpt lat="44.07362" lon="5.16599">
        <ele>377.2</ele>
        <time>2012-09-15T10:56:00.000Z</time>
      </trkpt>
      <trkpt lat="44.07366" lon="5.166">
        <ele>377.5</ele>
        <time>2012-09-15T10:56:01.000Z</time>
      </trkpt>
      <trkpt lat="44.07369" lon="5.16602">
        <ele>377.9</ele>
        <time>2012-09-15T10:56:02.000Z</time>
      </trkpt>
      <trkpt lat="44.07371" lon="5.16605">
        <ele>377.8</ele>
        <time>2012-09-15T10:56:03.000Z</time>
      </trkpt>
      <trkpt lat="44.07374" lon="5.16604">
        <ele>373.1</ele>
        <time>2012-09-15T10:57:02.000Z</time>
      </trkpt>
      <trkpt lat="44.07377" lon="5.16601">
        <ele>372.8</ele>
        <time>2012-09-15T10:57:05.000Z</time>
      </trkpt>
      <trkpt lat="44.0738" lon="5.16602">
        <ele>371.6</ele>
        <time>2012-09-15T10:57:07.000Z</time>
      </trkpt>
      <trkpt lat="44.07383" lon="5.16601">
        <ele>366.2</ele>
        <time>2012-09-15T10:57:09.000Z</time>
      </trkpt>
      <trkpt lat="44.0738" lon="5.16598">
        <ele>364.7</ele>
        <time>2012-09-15T10:57:13.000Z</time>
      </trkpt>
      <trkpt lat="44.07377" lon="5.16596">
        <ele>364.1</ele>
        <time>2012-09-15T10:57:16.000Z</time>
      </trkpt>
      <trkpt lat="44.07375" lon="5.16591">
        <ele>365.3</ele>
        <time>2012-09-15T10:57:19.000Z</time>
      </trkpt>
      <trkpt lat="44.07374" lon="5.16581">
        <ele>366.3</ele>
        <time>2012-09-15T10:57:24.000Z</time>
      </trkpt>
      <trkpt lat="44.07372" lon="5.16575">
        <ele>365.7</ele>
        <time>2012-09-15T10:57:26.000Z</time>
      </trkpt>
      <trkpt lat="44.07372" lon="5.16571">
        <ele>364.9</ele>
        <time>2012-09-15T10:57:27.000Z</time>
      </trkpt>
      <trkpt lat="44.07372" lon="5.16566">
        <ele>364.6</ele>
        <time>2012-09-15T10:57:28.000Z</time>
      </trkpt>
      <trkpt lat="44.07371" lon="5.16561">
        <ele>364.9</ele>
        <time>2012-09-15T10:57:29.000Z</time>
      </trkpt>
      <trkpt lat="44.0737" lon="5.16556">
        <ele>364.3</ele>
        <time>2012-09-15T10:57:30.000Z</time>
      </trkpt>
      <trkpt lat="44.07369" lon="5.16551">
        <ele>363.4</ele>
        <time>2012-09-15T10:57:31.000Z</time>
      </trkpt>
      <trkpt lat="44.07369" lon="5.16545">
        <ele>362.6</ele>
        <time>2012-09-15T10:57:32.000Z</time>
      </trkpt>
      <trkpt lat="44.07367" lon="5.16539">
        <ele>361.9</ele>
        <time>2012-09-15T10:57:33.000Z</time>
      </trkpt>
      <trkpt lat="44.07366" lon="5.16533">
        <ele>361.2</ele>
        <time>2012-09-15T10:57:34.000Z</time>
      </trkpt>
      <trkpt lat="44.07365" lon="5.16527">
        <ele>361.1</ele>
        <time>2012-09-15T10:57:35.000Z</time>
      </trkpt>
      <trkpt lat="44.07364" lon="5.1652">
        <ele>359.2</ele>
        <time>2012-09-15T10:57:36.000Z</time>
      </trkpt>
      <trkpt lat="44.07364" lon="5.16514">
        <ele>359</ele>
        <time>2012-09-15T10:57:37.000Z</time>
      </trkpt>
      <trkpt lat="44.07363" lon="5.16509">
        <ele>358.6</ele>
        <time>2012-09-15T10:57:38.000Z</time>
      </trkpt>
      <trkpt lat="44.07362" lon="5.16504">
        <ele>358.5</ele>
        <time>2012-09-15T10:57:39.000Z</time>
      </trkpt>
      <trkpt lat="44.07361" lon="5.16499">
        <ele>358.2</ele>
        <time>2012-09-15T10:57:40.000Z</time>
      </trkpt>
      <trkpt lat="44.07359" lon="5.16495">
        <ele>358.1</ele>
        <time>2012-09-15T10:57:41.000Z</time>
      </trkpt>
      <trkpt lat="44.07358" lon="5.16491">
        <ele>357.9</ele>
        <time>2012-09-15T10:57:42.000Z</time>
      </trkpt>
      <trkpt lat="44.07358" lon="5.16487">
        <ele>358.4</ele>
        <time>2012-09-15T10:57:43.000Z</time>
      </trkpt>
      <trkpt lat="44.0736" lon="5.16479">
        <ele>356.8</ele>
        <time>2012-09-15T10:57:44.000Z</time>
      </trkpt>
      <trkpt lat="44.07361" lon="5.16474">
        <ele>356.3</ele>
        <time>2012-09-15T10:57:45.000Z</time>
      </trkpt>
      <trkpt lat="44.07362" lon="5.16469">
        <ele>355.9</ele>
        <time>2012-09-15T10:57:46.000Z</time>
      </trkpt>
      <trkpt lat="44.07362" lon="5.16464">
        <ele>355.4</ele>
        <time>2012-09-15T10:57:47.000Z</time>
      </trkpt>
      <trkpt lat="44.07363" lon="5.1646">
        <ele>355.5</ele>
        <time>2012-09-15T10:57:48.000Z</time>
      </trkpt>
      <trkpt lat="44.07367" lon="5.16455">
        <ele>354.3</ele>
        <time>2012-09-15T10:57:49.000Z</time>
      </trkpt>
      <trkpt lat="44.07369" lon="5.16452">
        <ele>353.8</ele>
        <time>2012-09-15T10:57:50.000Z</time>
      </trkpt>
      <trkpt lat="44.07371" lon="5.16449">
        <ele>353.9</ele>
        <time>2012-09-15T10:57:51.000Z</time>
      </trkpt>
      <trkpt lat="44.0737" lon="5.16443">
        <ele>350.9</ele>
        <time>2012-09-15T10:57:52.000Z</time>
      </trkpt>
      <trkpt lat="44.07371" lon="5.16438">
        <ele>350.5</ele>
        <time>2012-09-15T10:57:53.000Z</time>
      </trkpt>
      <trkpt lat="44.07372" lon="5.16434">
        <ele>350.6</ele>
        <time>2012-09-15T10:57:54.000Z</time>
      </trkpt>
      <trkpt lat="44.07371" lon="5.1643">
        <ele>350.8</ele>
        <time>2012-09-15T10:57:55.000Z</time>
      </trkpt>
      <trkpt lat="44.07369" lon="5.16426">
        <ele>349.7</ele>
        <time>2012-09-15T10:57:56.000Z</time>
      </trkpt>
      <trkpt lat="44.07368" lon="5.16421">
        <ele>348.3</ele>
        <time>2012-09-15T10:57:57.000Z</time>
      </trkpt>
      <trkpt lat="44.07367" lon="5.16416">
        <ele>348.5</ele>
        <time>2012-09-15T10:57:58.000Z</time>
      </trkpt>
      <trkpt lat="44.07365" lon="5.16411">
        <ele>348.4</ele>
        <time>2012-09-15T10:57:59.000Z</time>
      </trkpt>
      <trkpt lat="44.07364" lon="5.16405">
        <ele>348.3</ele>
        <time>2012-09-15T10:58:00.000Z</time>
      </trkpt>
      <trkpt lat="44.07363" lon="5.16399">
        <ele>348.1</ele>
        <time>2012-09-15T10:58:01.000Z</time>
      </trkpt>
      <trkpt lat="44.07362" lon="5.16394">
        <ele>348.3</ele>
        <time>2012-09-15T10:58:02.000Z</time>
      </trkpt>
      <trkpt lat="44.07362" lon="5.1639">
        <ele>348.7</ele>
        <time>2012-09-15T10:58:03.000Z</time>
      </trkpt>
      <trkpt lat="44.07373" lon="5.16391">
        <ele>346.8</ele>
        <time>2012-09-15T10:58:04.000Z</time>
      </trkpt>
      <trkpt lat="44.07375" lon="5.16387">
        <ele>346</ele>
        <time>2012-09-15T10:58:05.000Z</time>
      </trkpt>
      <trkpt lat="44.07378" lon="5.16384">
        <ele>345.8</ele>
        <time>2012-09-15T10:58:06.000Z</time>
      </trkpt>
      <trkpt lat="44.07381" lon="5.16381">
        <ele>345.5</ele>
        <time>2012-09-15T10:58:07.000Z</time>
      </trkpt>
      <trkpt lat="44.07385" lon="5.16377">
        <ele>345.2</ele>
        <time>2012-09-15T10:58:08.000Z</time>
      </trkpt>
      <trkpt lat="44.07387" lon="5.16374">
        <ele>344.9</ele>
        <time>2012-09-15T10:58:09.000Z</time>
      </trkpt>
      <trkpt lat="44.07391" lon="5.1637">
        <ele>344.3</ele>
        <time>2012-09-15T10:58:11.000Z</time>
      </trkpt>
      <trkpt lat="44.07394" lon="5.16368">
        <ele>344.3</ele>
        <time>2012-09-15T10:58:12.000Z</time>
      </trkpt>
      <trkpt lat="44.07396" lon="5.16365">
        <ele>344</ele>
        <time>2012-09-15T10:58:13.000Z</time>
      </trkpt>
      <trkpt lat="44.074" lon="5.1636">
        <ele>342.9</ele>
        <time>2012-09-15T10:58:15.000Z</time>
      </trkpt>
      <trkpt lat="44.07402" lon="5.16357">
        <ele>342.7</ele>
        <time>2012-09-15T10:58:16.000Z</time>
      </trkpt>
      <trkpt lat="44.07404" lon="5.16354">
        <ele>342.8</ele>
        <time>2012-09-15T10:58:17.000Z</time>
      </trkpt>
      <trkpt lat="44.07406" lon="5.1635">
        <ele>342.7</ele>
        <time>2012-09-15T10:58:18.000Z</time>
      </trkpt>
      <trkpt lat="44.07408" lon="5.16347">
        <ele>342.4</ele>
        <time>2012-09-15T10:58:19.000Z</time>
      </trkpt>
      <trkpt lat="44.07412" lon="5.16344">
        <ele>341.7</ele>
        <time>2012-09-15T10:58:20.000Z</time>
      </trkpt>
      <trkpt lat="44.07414" lon="5.16338">
        <ele>341.5</ele>
        <time>2012-09-15T10:58:21.000Z</time>
      </trkpt>
      <trkpt lat="44.07417" lon="5.16332">
        <ele>340.5</ele>
        <time>2012-09-15T10:58:22.000Z</time>
      </trkpt>
      <trkpt lat="44.07416" lon="5.16326">
        <ele>340.2</ele>
        <time>2012-09-15T10:58:24.000Z</time>
      </trkpt>
      <trkpt lat="44.07418" lon="5.1632">
        <ele>339.1</ele>
        <time>2012-09-15T10:58:26.000Z</time>
      </trkpt>
      <trkpt lat="44.07419" lon="5.16315">
        <ele>337.1</ele>
        <time>2012-09-15T10:58:28.000Z</time>
      </trkpt>
      <trkpt lat="44.07418" lon="5.16311">
        <ele>336</ele>
        <time>2012-09-15T10:58:29.000Z</time>
      </trkpt>
      <trkpt lat="44.07417" lon="5.16307">
        <ele>335.2</ele>
        <time>2012-09-15T10:58:30.000Z</time>
      </trkpt>
      <trkpt lat="44.07414" lon="5.163">
        <ele>335.1</ele>
        <time>2012-09-15T10:58:32.000Z</time>
      </trkpt>
      <trkpt lat="44.07411" lon="5.16299">
        <ele>336</ele>
        <time>2012-09-15T10:58:33.000Z</time>
      </trkpt>
      <trkpt lat="44.0741" lon="5.16295">
        <ele>336.1</ele>
        <time>2012-09-15T10:58:34.000Z</time>
      </trkpt>
      <trkpt lat="44.07412" lon="5.16296">
        <ele>337</ele>
        <time>2012-09-15T10:58:37.000Z</time>
      </trkpt>
      <trkpt lat="44.07408" lon="5.16294">
        <ele>337.8</ele>
        <time>2012-09-15T10:58:49.000Z</time>
      </trkpt>
      <trkpt lat="44.07408" lon="5.1629">
        <ele>337</ele>
        <time>2012-09-15T10:58:53.000Z</time>
      </trkpt>
      <trkpt lat="44.07406" lon="5.16287">
        <ele>336.2</ele>
        <time>2012-09-15T10:58:54.000Z</time>
      </trkpt>
      <trkpt lat="44.07402" lon="5.1628">
        <ele>333.7</ele>
        <time>2012-09-15T10:58:56.000Z</time>
      </trkpt>
      <trkpt lat="44.07398" lon="5.16276">
        <ele>332.2</ele>
        <time>2012-09-15T10:58:57.000Z</time>
      </trkpt>
      <trkpt lat="44.07395" lon="5.16271">
        <ele>330.8</ele>
        <time>2012-09-15T10:58:58.000Z</time>
      </trkpt>
      <trkpt lat="44.0739" lon="5.16262">
        <ele>330.3</ele>
        <time>2012-09-15T10:58:59.000Z</time>
      </trkpt>
      <trkpt lat="44.07387" lon="5.16256">
        <ele>329.7</ele>
        <time>2012-09-15T10:59:00.000Z</time>
      </trkpt>
      <trkpt lat="44.07383" lon="5.16249">
        <ele>329</ele>
        <time>2012-09-15T10:59:01.000Z</time>
      </trkpt>
      <trkpt lat="44.0738" lon="5.16242">
        <ele>328.9</ele>
        <time>2012-09-15T10:59:02.000Z</time>
      </trkpt>
      <trkpt lat="44.0738" lon="5.16237">
        <ele>327.5</ele>
        <time>2012-09-15T10:59:03.000Z</time>
      </trkpt>
      <trkpt lat="44.07379" lon="5.16232">
        <ele>327.9</ele>
        <time>2012-09-15T10:59:04.000Z</time>
      </trkpt>
      <trkpt lat="44.07376" lon="5.16229">
        <ele>328.5</ele>
        <time>2012-09-15T10:59:08.000Z</time>
      </trkpt>
      <trkpt lat="44.07373" lon="5.16228">
        <ele>328.9</ele>
        <time>2012-09-15T10:59:10.000Z</time>
      </trkpt>
      <trkpt lat="44.0737" lon="5.16227">
        <ele>329.8</ele>
        <time>2012-09-15T10:59:12.000Z</time>
      </trkpt>
      <trkpt lat="44.07366" lon="5.16227">
        <ele>330.9</ele>
        <time>2012-09-15T10:59:15.000Z</time>
      </trkpt>
      <trkpt lat="44.07364" lon="5.16228">
        <ele>331.7</ele>
        <time>2012-09-15T10:59:18.000Z</time>
      </trkpt>
      <trkpt lat="44.0736" lon="5.16225">
        <ele>331.2</ele>
        <time>2012-09-15T10:59:19.000Z</time>
      </trkpt>
      <trkpt lat="44.07356" lon="5.16223">
        <ele>331.4</ele>
        <time>2012-09-15T10:59:21.000Z</time>
      </trkpt>
      <trkpt lat="44.07353" lon="5.16221">
        <ele>331.5</ele>
        <time>2012-09-15T10:59:23.000Z</time>
      </trkpt>
      <trkpt lat="44.0735" lon="5.16219">
        <ele>330.1</ele>
        <time>2012-09-15T10:59:25.000Z</time>
      </trkpt>
      <trkpt lat="44.07346" lon="5.16218">
        <ele>331.2</ele>
        <time>2012-09-15T10:59:27.000Z</time>
      </trkpt>
      <trkpt lat="44.07344" lon="5.16219">
        <ele>331.9</ele>
        <time>2012-09-15T10:59:29.000Z</time>
      </trkpt>
      <trkpt lat="44.0734" lon="5.16221">
        <ele>331.2</ele>
        <time>2012-09-15T10:59:31.000Z</time>
      </trkpt>
      <trkpt lat="44.07335" lon="5.16222">
        <ele>331.8</ele>
        <time>2012-09-15T10:59:39.000Z</time>
      </trkpt>
      <trkpt lat="44.07333" lon="5.1622">
        <ele>329.9</ele>
        <time>2012-09-15T10:59:41.000Z</time>
      </trkpt>
      <trkpt lat="44.0733" lon="5.16217">
        <ele>328.7</ele>
        <time>2012-09-15T10:59:45.000Z</time>
      </trkpt>
      <trkpt lat="44.07328" lon="5.16214">
        <ele>327.7</ele>
        <time>2012-09-15T10:59:51.000Z</time>
      </trkpt>
      <trkpt lat="44.07325" lon="5.16212">
        <ele>326.3</ele>
        <time>2012-09-15T10:59:53.000Z</time>
      </trkpt>
      <trkpt lat="44.07329" lon="5.1621">
        <ele>326.3</ele>
        <time>2012-09-15T10:59:56.000Z</time>
      </trkpt>
      <trkpt lat="44.07333" lon="5.1621">
        <ele>326.4</ele>
        <time>2012-09-15T10:59:58.000Z</time>
      </trkpt>
      <trkpt lat="44.07336" lon="5.16212">
        <ele>327.4</ele>
        <time>2012-09-15T11:00:01.000Z</time>
      </trkpt>
      <trkpt lat="44.0734" lon="5.1621">
        <ele>327</ele>
        <time>2012-09-15T11:00:16.000Z</time>
      </trkpt>
      <trkpt lat="44.07344" lon="5.1621">
        <ele>326.6</ele>
        <time>2012-09-15T11:00:18.000Z</time>
      </trkpt>
      <trkpt lat="44.07348" lon="5.16206">
        <ele>329.5</ele>
        <time>2012-09-15T11:00:20.000Z</time>
      </trkpt>
      <trkpt lat="44.07352" lon="5.16205">
        <ele>331</ele>
        <time>2012-09-15T11:00:22.000Z</time>
      </trkpt>
      <trkpt lat="44.07356" lon="5.16206">
        <ele>332.4</ele>
        <time>2012-09-15T11:00:24.000Z</time>
      </trkpt>
      <trkpt lat="44.0736" lon="5.16205">
        <ele>329.4</ele>
        <time>2012-09-15T11:00:26.000Z</time>
      </trkpt>
      <trkpt lat="44.07363" lon="5.16203">
        <ele>327.3</ele>
        <time>2012-09-15T11:00:27.000Z</time>
      </trkpt>
      <trkpt lat="44.07367" lon="5.16198">
        <ele>326.3</ele>
        <time>2012-09-15T11:00:29.000Z</time>
      </trkpt>
      <trkpt lat="44.0737" lon="5.16196">
        <ele>324.8</ele>
        <time>2012-09-15T11:00:31.000Z</time>
      </trkpt>
      <trkpt lat="44.07373" lon="5.162">
        <ele>324</ele>
        <time>2012-09-15T11:00:33.000Z</time>
      </trkpt>
      <trkpt lat="44.07378" lon="5.16205">
        <ele>325.5</ele>
        <time>2012-09-15T11:00:34.000Z</time>
      </trkpt>
      <trkpt lat="44.07382" lon="5.16207">
        <ele>325.5</ele>
        <time>2012-09-15T11:00:35.000Z</time>
      </trkpt>
      <trkpt lat="44.07384" lon="5.16209">
        <ele>325.8</ele>
        <time>2012-09-15T11:00:36.000Z</time>
      </trkpt>
      <trkpt lat="44.07388" lon="5.16211">
        <ele>326.1</ele>
        <time>2012-09-15T11:00:37.000Z</time>
      </trkpt>
      <trkpt lat="44.07392" lon="5.16213">
        <ele>326.4</ele>
        <time>2012-09-15T11:00:38.000Z</time>
      </trkpt>
      <trkpt lat="44.07395" lon="5.16214">
        <ele>326.8</ele>
        <time>2012-09-15T11:00:39.000Z</time>
      </trkpt>
      <trkpt lat="44.074" lon="5.16216">
        <ele>327.7</ele>
        <time>2012-09-15T11:00:41.000Z</time>
      </trkpt>
      <trkpt lat="44.07405" lon="5.16221">
        <ele>328.7</ele>
        <time>2012-09-15T11:00:43.000Z</time>
      </trkpt>
      <trkpt lat="44.07408" lon="5.16222">
        <ele>329.1</ele>
        <time>2012-09-15T11:00:44.000Z</time>
      </trkpt>
      <trkpt lat="44.07413" lon="5.16225">
        <ele>329.8</ele>
        <time>2012-09-15T11:00:45.000Z</time>
      </trkpt>
      <trkpt lat="44.07417" lon="5.16228">
        <ele>330.7</ele>
        <time>2012-09-15T11:00:46.000Z</time>
      </trkpt>
      <trkpt lat="44.07421" lon="5.1623">
        <ele>331</ele>
        <time>2012-09-15T11:00:47.000Z</time>
      </trkpt>
      <trkpt lat="44.07425" lon="5.16232">
        <ele>331.3</ele>
        <time>2012-09-15T11:00:48.000Z</time>
      </trkpt>
      <trkpt lat="44.07429" lon="5.16235">
        <ele>331.3</ele>
        <time>2012-09-15T11:00:49.000Z</time>
      </trkpt>
      <trkpt lat="44.07431" lon="5.16237">
        <ele>331.7</ele>
        <time>2012-09-15T11:00:50.000Z</time>
      </trkpt>
      <trkpt lat="44.07433" lon="5.16241">
        <ele>332</ele>
        <time>2012-09-15T11:00:51.000Z</time>
      </trkpt>
      <trkpt lat="44.07436" lon="5.16242">
        <ele>331.7</ele>
        <time>2012-09-15T11:00:52.000Z</time>
      </trkpt>
      <trkpt lat="44.07436" lon="5.16249">
        <ele>333.9</ele>
        <time>2012-09-15T11:00:54.000Z</time>
      </trkpt>
      <trkpt lat="44.0744" lon="5.16256">
        <ele>335.7</ele>
        <time>2012-09-15T11:00:56.000Z</time>
      </trkpt>
      <trkpt lat="44.07439" lon="5.16252">
        <ele>343.9</ele>
        <time>2012-09-15T11:00:57.000Z</time>
      </trkpt>
      <trkpt lat="44.07442" lon="5.16252">
        <ele>346.6</ele>
        <time>2012-09-15T11:00:59.000Z</time>
      </trkpt>
      <trkpt lat="44.07445" lon="5.16252">
        <ele>348.9</ele>
        <time>2012-09-15T11:01:01.000Z</time>
      </trkpt>
      <trkpt lat="44.07449" lon="5.16253">
        <ele>349</ele>
        <time>2012-09-15T11:01:02.000Z</time>
      </trkpt>
      <trkpt lat="44.07452" lon="5.16251">
        <ele>349.6</ele>
        <time>2012-09-15T11:01:03.000Z</time>
      </trkpt>
      <trkpt lat="44.07453" lon="5.16245">
        <ele>350.5</ele>
        <time>2012-09-15T11:01:05.000Z</time>
      </trkpt>
      <trkpt lat="44.0745" lon="5.16239">
        <ele>350.7</ele>
        <time>2012-09-15T11:01:07.000Z</time>
      </trkpt>
      <trkpt lat="44.07444" lon="5.16234">
        <ele>350.6</ele>
        <time>2012-09-15T11:01:09.000Z</time>
      </trkpt>
      <trkpt lat="44.07439" lon="5.1623">
        <ele>350.4</ele>
        <time>2012-09-15T11:01:10.000Z</time>
      </trkpt>
      <trkpt lat="44.07435" lon="5.16227">
        <ele>350.6</ele>
        <time>2012-09-15T11:01:11.000Z</time>
      </trkpt>
      <trkpt lat="44.07431" lon="5.16224">
        <ele>350.6</ele>
        <time>2012-09-15T11:01:12.000Z</time>
      </trkpt>
      <trkpt lat="44.07425" lon="5.1622">
        <ele>350.4</ele>
        <time>2012-09-15T11:01:13.000Z</time>
      </trkpt>
      <trkpt lat="44.07419" lon="5.16213">
        <ele>350.5</ele>
        <time>2012-09-15T11:01:14.000Z</time>
      </trkpt>
      <trkpt lat="44.07415" lon="5.16208">
        <ele>350.2</ele>
        <time>2012-09-15T11:01:15.000Z</time>
      </trkpt>
      <trkpt lat="44.07412" lon="5.16204">
        <ele>349.8</ele>
        <time>2012-09-15T11:01:16.000Z</time>
      </trkpt>
      <trkpt lat="44.07408" lon="5.162">
        <ele>349.1</ele>
        <time>2012-09-15T11:01:17.000Z</time>
      </trkpt>
      <trkpt lat="44.07403" lon="5.16193">
        <ele>348.9</ele>
        <time>2012-09-15T11:01:18.000Z</time>
      </trkpt>
      <trkpt lat="44.07401" lon="5.16188">
        <ele>348.8</ele>
        <time>2012-09-15T11:01:19.000Z</time>
      </trkpt>
      <trkpt lat="44.074" lon="5.16181">
        <ele>348.7</ele>
        <time>2012-09-15T11:01:20.000Z</time>
      </trkpt>
      <trkpt lat="44.07396" lon="5.16176">
        <ele>348.6</ele>
        <time>2012-09-15T11:01:21.000Z</time>
      </trkpt>
      <trkpt lat="44.07392" lon="5.16172">
        <ele>348.1</ele>
        <time>2012-09-15T11:01:22.000Z</time>
      </trkpt>
      <trkpt lat="44.07386" lon="5.16168">
        <ele>346.7</ele>
        <time>2012-09-15T11:01:23.000Z</time>
      </trkpt>
      <trkpt lat="44.07385" lon="5.16165">
        <ele>345.7</ele>
        <time>2012-09-15T11:01:25.000Z</time>
      </trkpt>
      <trkpt lat="44.07385" lon="5.16141">
        <ele>327.3</ele>
        <time>2012-09-15T11:02:01.000Z</time>
      </trkpt>
      <trkpt lat="44.07388" lon="5.16142">
        <ele>319.3</ele>
        <time>2012-09-15T11:02:19.000Z</time>
      </trkpt>
      <trkpt lat="44.0739" lon="5.16139">
        <ele>319.3</ele>
        <time>2012-09-15T11:02:48.000Z</time>
      </trkpt>
      <trkpt lat="44.07392" lon="5.16135">
        <ele>315.8</ele>
        <time>2012-09-15T11:02:56.000Z</time>
      </trkpt>
      <trkpt lat="44.07393" lon="5.16131">
        <ele>315.9</ele>
        <time>2012-09-15T11:03:01.000Z</time>
      </trkpt>
      <trkpt lat="44.07396" lon="5.1613">
        <ele>316.7</ele>
        <time>2012-09-15T11:03:03.000Z</time>
      </trkpt>
      <trkpt lat="44.07397" lon="5.16126">
        <ele>318.8</ele>
        <time>2012-09-15T11:03:07.000Z</time>
      </trkpt>
      <trkpt lat="44.07396" lon="5.16121">
        <ele>320.9</ele>
        <time>2012-09-15T11:03:10.000Z</time>
      </trkpt>
      <trkpt lat="44.07395" lon="5.16118">
        <ele>320.4</ele>
        <time>2012-09-15T11:03:12.000Z</time>
      </trkpt>
      <trkpt lat="44.07393" lon="5.1611">
        <ele>319.7</ele>
        <time>2012-09-15T11:03:24.000Z</time>
      </trkpt>
      <trkpt lat="44.07388" lon="5.16103">
        <ele>320.2</ele>
        <time>2012-09-15T11:03:26.000Z</time>
      </trkpt>
      <trkpt lat="44.07386" lon="5.16099">
        <ele>320.5</ele>
        <time>2012-09-15T11:03:27.000Z</time>
      </trkpt>
      <trkpt lat="44.07384" lon="5.16096">
        <ele>321</ele>
        <time>2012-09-15T11:03:28.000Z</time>
      </trkpt>
      <trkpt lat="44.07381" lon="5.16092">
        <ele>321.5</ele>
        <time>2012-09-15T11:03:30.000Z</time>
      </trkpt>
      <trkpt lat="44.0738" lon="5.16088">
        <ele>321.7</ele>
        <time>2012-09-15T11:03:33.000Z</time>
      </trkpt>
      <trkpt lat="44.07385" lon="5.1609">
        <ele>321.4</ele>
        <time>2012-09-15T11:03:35.000Z</time>
      </trkpt>
      <trkpt lat="44.07389" lon="5.16087">
        <ele>322.6</ele>
        <time>2012-09-15T11:03:39.000Z</time>
      </trkpt>
      <trkpt lat="44.07392" lon="5.16086">
        <ele>323.3</ele>
        <time>2012-09-15T11:03:43.000Z</time>
      </trkpt>
      <trkpt lat="44.07395" lon="5.16088">
        <ele>322</ele>
        <time>2012-09-15T11:03:46.000Z</time>
      </trkpt>
      <trkpt lat="44.07399" lon="5.16087">
        <ele>322.3</ele>
        <time>2012-09-15T11:03:51.000Z</time>
      </trkpt>
      <trkpt lat="44.074" lon="5.16091">
        <ele>324.4</ele>
        <time>2012-09-15T11:03:55.000Z</time>
      </trkpt>
      <trkpt lat="44.07402" lon="5.16095">
        <ele>325.2</ele>
        <time>2012-09-15T11:04:04.000Z</time>
      </trkpt>
      <trkpt lat="44.07402" lon="5.16099">
        <ele>326.1</ele>
        <time>2012-09-15T11:04:08.000Z</time>
      </trkpt>
      <trkpt lat="44.07403" lon="5.16104">
        <ele>326.4</ele>
        <time>2012-09-15T11:04:11.000Z</time>
      </trkpt>
      <trkpt lat="44.07404" lon="5.16108">
        <ele>326.7</ele>
        <time>2012-09-15T11:04:13.000Z</time>
      </trkpt>
      <trkpt lat="44.07402" lon="5.16111">
        <ele>328.5</ele>
        <time>2012-09-15T11:04:16.000Z</time>
      </trkpt>
      <trkpt lat="44.07404" lon="5.16114">
        <ele>328.6</ele>
        <time>2012-09-15T11:04:20.000Z</time>
      </trkpt>
      <trkpt lat="44.07405" lon="5.16116">
        <ele>330</ele>
        <time>2012-09-15T11:04:23.000Z</time>
      </trkpt>
      <trkpt lat="44.07406" lon="5.1612">
        <ele>330</ele>
        <time>2012-09-15T11:04:24.000Z</time>
      </trkpt>
      <trkpt lat="44.07408" lon="5.16123">
        <ele>329.2</ele>
        <time>2012-09-15T11:04:26.000Z</time>
      </trkpt>
      <trkpt lat="44.07409" lon="5.16127">
        <ele>332</ele>
        <time>2012-09-15T11:04:28.000Z</time>
      </trkpt>
      <trkpt lat="44.0741" lon="5.16133">
        <ele>334.1</ele>
        <time>2012-09-15T11:04:31.000Z</time>
      </trkpt>
      <trkpt lat="44.07411" lon="5.16136">
        <ele>335.2</ele>
        <time>2012-09-15T11:04:32.000Z</time>
      </trkpt>
      <trkpt lat="44.07414" lon="5.16139">
        <ele>334.4</ele>
        <time>2012-09-15T11:04:34.000Z</time>
      </trkpt>
      <trkpt lat="44.07416" lon="5.16142">
        <ele>333.5</ele>
        <time>2012-09-15T11:04:37.000Z</time>
      </trkpt>
      <trkpt lat="44.07418" lon="5.16146">
        <ele>332.5</ele>
        <time>2012-09-15T11:04:39.000Z</time>
      </trkpt>
      <trkpt lat="44.07421" lon="5.16149">
        <ele>332.5</ele>
        <time>2012-09-15T11:04:41.000Z</time>
      </trkpt>
      <trkpt lat="44.07425" lon="5.16155">
        <ele>335</ele>
        <time>2012-09-15T11:04:44.000Z</time>
      </trkpt>
      <trkpt lat="44.07426" lon="5.16158">
        <ele>336</ele>
        <time>2012-09-15T11:04:46.000Z</time>
      </trkpt>
      <trkpt lat="44.0743" lon="5.1616">
        <ele>334.3</ele>
        <time>2012-09-15T11:04:48.000Z</time>
      </trkpt>
      <trkpt lat="44.07433" lon="5.16163">
        <ele>334.6</ele>
        <time>2012-09-15T11:04:50.000Z</time>
      </trkpt>
      <trkpt lat="44.07436" lon="5.16164">
        <ele>331.7</ele>
        <time>2012-09-15T11:04:52.000Z</time>
      </trkpt>
      <trkpt lat="44.07439" lon="5.16164">
        <ele>331.8</ele>
        <time>2012-09-15T11:04:54.000Z</time>
      </trkpt>
      <trkpt lat="44.07442" lon="5.16163">
        <ele>330.5</ele>
        <time>2012-09-15T11:04:56.000Z</time>
      </trkpt>
      <trkpt lat="44.07445" lon="5.16163">
        <ele>331.1</ele>
        <time>2012-09-15T11:04:58.000Z</time>
      </trkpt>
      <trkpt lat="44.07448" lon="5.16164">
        <ele>330.4</ele>
        <time>2012-09-15T11:05:00.000Z</time>
      </trkpt>
      <trkpt lat="44.07451" lon="5.16165">
        <ele>330.6</ele>
        <time>2012-09-15T11:05:02.000Z</time>
      </trkpt>
      <trkpt lat="44.07454" lon="5.16165">
        <ele>330.9</ele>
        <time>2012-09-15T11:05:04.000Z</time>
      </trkpt>
      <trkpt lat="44.07457" lon="5.16165">
        <ele>334.6</ele>
        <time>2012-09-15T11:05:08.000Z</time>
      </trkpt>
      <trkpt lat="44.07458" lon="5.16169">
        <ele>336.7</ele>
        <time>2012-09-15T11:05:09.000Z</time>
      </trkpt>
      <trkpt lat="44.07461" lon="5.1617">
        <ele>337</ele>
        <time>2012-09-15T11:05:12.000Z</time>
      </trkpt>
      <trkpt lat="44.07464" lon="5.16172">
        <ele>336.9</ele>
        <time>2012-09-15T11:05:14.000Z</time>
      </trkpt>
      <trkpt lat="44.07465" lon="5.16176">
        <ele>337.5</ele>
        <time>2012-09-15T11:05:17.000Z</time>
      </trkpt>
      <trkpt lat="44.07466" lon="5.1618">
        <ele>335.2</ele>
        <time>2012-09-15T11:05:19.000Z</time>
      </trkpt>
      <trkpt lat="44.07466" lon="5.16184">
        <ele>335.2</ele>
        <time>2012-09-15T11:05:21.000Z</time>
      </trkpt>
      <trkpt lat="44.0747" lon="5.16187">
        <ele>334.5</ele>
        <time>2012-09-15T11:05:24.000Z</time>
      </trkpt>
      <trkpt lat="44.07473" lon="5.16188">
        <ele>334.2</ele>
        <time>2012-09-15T11:05:26.000Z</time>
      </trkpt>
      <trkpt lat="44.07476" lon="5.16191">
        <ele>335.5</ele>
        <time>2012-09-15T11:05:28.000Z</time>
      </trkpt>
      <trkpt lat="44.07479" lon="5.16191">
        <ele>331.7</ele>
        <time>2012-09-15T11:05:30.000Z</time>
      </trkpt>
      <trkpt lat="44.07482" lon="5.16192">
        <ele>332.5</ele>
        <time>2012-09-15T11:05:32.000Z</time>
      </trkpt>
      <trkpt lat="44.07486" lon="5.16192">
        <ele>333.7</ele>
        <time>2012-09-15T11:05:34.000Z</time>
      </trkpt>
      <trkpt lat="44.0749" lon="5.16193">
        <ele>333.7</ele>
        <time>2012-09-15T11:05:37.000Z</time>
      </trkpt>
      <trkpt lat="44.07492" lon="5.16198">
        <ele>334.1</ele>
        <time>2012-09-15T11:05:41.000Z</time>
      </trkpt>
      <trkpt lat="44.07494" lon="5.16201">
        <ele>334.1</ele>
        <time>2012-09-15T11:05:43.000Z</time>
      </trkpt>
      <trkpt lat="44.07496" lon="5.16203">
        <ele>334.3</ele>
        <time>2012-09-15T11:05:45.000Z</time>
      </trkpt>
      <trkpt lat="44.07497" lon="5.16207">
        <ele>334.4</ele>
        <time>2012-09-15T11:05:47.000Z</time>
      </trkpt>
      <trkpt lat="44.07498" lon="5.16211">
        <ele>334.7</ele>
        <time>2012-09-15T11:05:49.000Z</time>
      </trkpt>
      <trkpt lat="44.07501" lon="5.16214">
        <ele>335.9</ele>
        <time>2012-09-15T11:05:51.000Z</time>
      </trkpt>
      <trkpt lat="44.07502" lon="5.16218">
        <ele>336.2</ele>
        <time>2012-09-15T11:05:53.000Z</time>
      </trkpt>
      <trkpt lat="44.07506" lon="5.16218">
        <ele>334.7</ele>
        <time>2012-09-15T11:05:55.000Z</time>
      </trkpt>
      <trkpt lat="44.0751" lon="5.16218">
        <ele>333.8</ele>
        <time>2012-09-15T11:05:57.000Z</time>
      </trkpt>
      <trkpt lat="44.07513" lon="5.16216">
        <ele>333.6</ele>
        <time>2012-09-15T11:05:59.000Z</time>
      </trkpt>
      <trkpt lat="44.07516" lon="5.16215">
        <ele>332.7</ele>
        <time>2012-09-15T11:06:01.000Z</time>
      </trkpt>
      <trkpt lat="44.07518" lon="5.1622">
        <ele>332.7</ele>
        <time>2012-09-15T11:06:04.000Z</time>
      </trkpt>
      <trkpt lat="44.07518" lon="5.16224">
        <ele>332.9</ele>
        <time>2012-09-15T11:06:06.000Z</time>
      </trkpt>
      <trkpt lat="44.0752" lon="5.1623">
        <ele>338.7</ele>
        <time>2012-09-15T11:06:09.000Z</time>
      </trkpt>
      <trkpt lat="44.07523" lon="5.16229">
        <ele>339.7</ele>
        <time>2012-09-15T11:06:11.000Z</time>
      </trkpt>
      <trkpt lat="44.07527" lon="5.16229">
        <ele>340.3</ele>
        <time>2012-09-15T11:06:13.000Z</time>
      </trkpt>
      <trkpt lat="44.0753" lon="5.1623">
        <ele>339.5</ele>
        <time>2012-09-15T11:06:15.000Z</time>
      </trkpt>
      <trkpt lat="44.07533" lon="5.16231">
        <ele>341.2</ele>
        <time>2012-09-15T11:06:18.000Z</time>
      </trkpt>
      <trkpt lat="44.07536" lon="5.1623">
        <ele>340.6</ele>
        <time>2012-09-15T11:06:21.000Z</time>
      </trkpt>
      <trkpt lat="44.07539" lon="5.16227">
        <ele>343.5</ele>
        <time>2012-09-15T11:06:25.000Z</time>
      </trkpt>
      <trkpt lat="44.07536" lon="5.16231">
        <ele>328.2</ele>
        <time>2012-09-15T11:07:05.000Z</time>
      </trkpt>
      <trkpt lat="44.07534" lon="5.16236">
        <ele>327.1</ele>
        <time>2012-09-15T11:07:06.000Z</time>
      </trkpt>
      <trkpt lat="44.0753" lon="5.16238">
        <ele>325.4</ele>
        <time>2012-09-15T11:07:07.000Z</time>
      </trkpt>
      <trkpt lat="44.07534" lon="5.16239">
        <ele>326.2</ele>
        <time>2012-09-15T11:07:10.000Z</time>
      </trkpt>
      <trkpt lat="44.07532" lon="5.16235">
        <ele>329</ele>
        <time>2012-09-15T11:07:14.000Z</time>
      </trkpt>
      <trkpt lat="44.07535" lon="5.16234">
        <ele>332.3</ele>
        <time>2012-09-15T11:07:18.000Z</time>
      </trkpt>
      <trkpt lat="44.07538" lon="5.16235">
        <ele>332.4</ele>
        <time>2012-09-15T11:07:20.000Z</time>
      </trkpt>
      <trkpt lat="44.07542" lon="5.16234">
        <ele>334.6</ele>
        <time>2012-09-15T11:07:22.000Z</time>
      </trkpt>
      <trkpt lat="44.0754" lon="5.16231">
        <ele>335.1</ele>
        <time>2012-09-15T11:07:23.000Z</time>
      </trkpt>
      <trkpt lat="44.0754" lon="5.16227">
        <ele>337</ele>
        <time>2012-09-15T11:07:24.000Z</time>
      </trkpt>
      <trkpt lat="44.07544" lon="5.16227">
        <ele>335.3</ele>
        <time>2012-09-15T11:07:26.000Z</time>
      </trkpt>
      <trkpt lat="44.07549" lon="5.16228">
        <ele>336.3</ele>
        <time>2012-09-15T11:07:28.000Z</time>
      </trkpt>
      <trkpt lat="44.07552" lon="5.16228">
        <ele>336.6</ele>
        <time>2012-09-15T11:07:29.000Z</time>
      </trkpt>
      <trkpt lat="44.07555" lon="5.1623">
        <ele>336.4</ele>
        <time>2012-09-15T11:07:31.000Z</time>
      </trkpt>
      <trkpt lat="44.07558" lon="5.16232">
        <ele>336.9</ele>
        <time>2012-09-15T11:07:34.000Z</time>
      </trkpt>
      <trkpt lat="44.07564" lon="5.16234">
        <ele>336.5</ele>
        <time>2012-09-15T11:07:42.000Z</time>
      </trkpt>
      <trkpt lat="44.07566" lon="5.16236">
        <ele>337.9</ele>
        <time>2012-09-15T11:07:46.000Z</time>
      </trkpt>
      <trkpt lat="44.07567" lon="5.16239">
        <ele>337.8</ele>
        <time>2012-09-15T11:07:50.000Z</time>
      </trkpt>
      <trkpt lat="44.0757" lon="5.16236">
        <ele>330.3</ele>
        <time>2012-09-15T11:08:45.000Z</time>
      </trkpt>
      <trkpt lat="44.0757" lon="5.16232">
        <ele>333</ele>
        <time>2012-09-15T11:08:50.000Z</time>
      </trkpt>
      <trkpt lat="44.07567" lon="5.1623">
        <ele>333.2</ele>
        <time>2012-09-15T11:08:52.000Z</time>
      </trkpt>
      <trkpt lat="44.07568" lon="5.16233">
        <ele>333.5</ele>
        <time>2012-09-15T11:08:59.000Z</time>
      </trkpt>
      <trkpt lat="44.07569" lon="5.16237">
        <ele>331.1</ele>
        <time>2012-09-15T11:09:06.000Z</time>
      </trkpt>
      <trkpt lat="44.07572" lon="5.1624">
        <ele>330.2</ele>
        <time>2012-09-15T11:09:13.000Z</time>
      </trkpt>
      <trkpt lat="44.07576" lon="5.16242">
        <ele>330.9</ele>
        <time>2012-09-15T11:09:14.000Z</time>
      </trkpt>
      <trkpt lat="44.07577" lon="5.16244">
        <ele>330.9</ele>
        <time>2012-09-15T11:09:15.000Z</time>
      </trkpt>
      <trkpt lat="44.07581" lon="5.16244">
        <ele>331.2</ele>
        <time>2012-09-15T11:09:16.000Z</time>
      </trkpt>
      <trkpt lat="44.07585" lon="5.16244">
        <ele>331.6</ele>
        <time>2012-09-15T11:09:17.000Z</time>
      </trkpt>
      <trkpt lat="44.0759" lon="5.16244">
        <ele>330.9</ele>
        <time>2012-09-15T11:09:18.000Z</time>
      </trkpt>
      <trkpt lat="44.07593" lon="5.16243">
        <ele>331.7</ele>
        <time>2012-09-15T11:09:19.000Z</time>
      </trkpt>
      <trkpt lat="44.07596" lon="5.1624">
        <ele>332</ele>
        <time>2012-09-15T11:09:20.000Z</time>
      </trkpt>
      <trkpt lat="44.07598" lon="5.16236">
        <ele>332</ele>
        <time>2012-09-15T11:09:21.000Z</time>
      </trkpt>
      <trkpt lat="44.07602" lon="5.1623">
        <ele>332.1</ele>
        <time>2012-09-15T11:09:23.000Z</time>
      </trkpt>
      <trkpt lat="44.07606" lon="5.16228">
        <ele>332.1</ele>
        <time>2012-09-15T11:09:25.000Z</time>
      </trkpt>
      <trkpt lat="44.07608" lon="5.16228">
        <ele>332.2</ele>
        <time>2012-09-15T11:09:26.000Z</time>
      </trkpt>
      <trkpt lat="44.07612" lon="5.16227">
        <ele>332.3</ele>
        <time>2012-09-15T11:09:27.000Z</time>
      </trkpt>
      <trkpt lat="44.07615" lon="5.16227">
        <ele>332.9</ele>
        <time>2012-09-15T11:09:28.000Z</time>
      </trkpt>
      <trkpt lat="44.07615" lon="5.16224">
        <ele>336.2</ele>
        <time>2012-09-15T11:09:32.000Z</time>
      </trkpt>
      <trkpt lat="44.07614" lon="5.16219">
        <ele>337</ele>
        <time>2012-09-15T11:09:33.000Z</time>
      </trkpt>
      <trkpt lat="44.07614" lon="5.16212">
        <ele>337.1</ele>
        <time>2012-09-15T11:09:35.000Z</time>
      </trkpt>
      <trkpt lat="44.07613" lon="5.16208">
        <ele>336.9</ele>
        <time>2012-09-15T11:09:36.000Z</time>
      </trkpt>
      <trkpt lat="44.07611" lon="5.16203">
        <ele>336.7</ele>
        <time>2012-09-15T11:09:37.000Z</time>
      </trkpt>
      <trkpt lat="44.07611" lon="5.16196">
        <ele>336.9</ele>
        <time>2012-09-15T11:09:38.000Z</time>
      </trkpt>
      <trkpt lat="44.0761" lon="5.16186">
        <ele>335</ele>
        <time>2012-09-15T11:09:39.000Z</time>
      </trkpt>
      <trkpt lat="44.07609" lon="5.1618">
        <ele>334.9</ele>
        <time>2012-09-15T11:09:40.000Z</time>
      </trkpt>
      <trkpt lat="44.07608" lon="5.16176">
        <ele>334.6</ele>
        <time>2012-09-15T11:09:41.000Z</time>
      </trkpt>
      <trkpt lat="44.07605" lon="5.16174">
        <ele>336.4</ele>
        <time>2012-09-15T11:09:42.000Z</time>
      </trkpt>
      <trkpt lat="44.07602" lon="5.16168">
        <ele>337.5</ele>
        <time>2012-09-15T11:09:44.000Z</time>
      </trkpt>
      <trkpt lat="44.07601" lon="5.16164">
        <ele>339.9</ele>
        <time>2012-09-15T11:09:46.000Z</time>
      </trkpt>
      <trkpt lat="44.07601" lon="5.16155">
        <ele>341.4</ele>
        <time>2012-09-15T11:09:48.000Z</time>
      </trkpt>
      <trkpt lat="44.076" lon="5.16151">
        <ele>341.5</ele>
        <time>2012-09-15T11:09:49.000Z</time>
      </trkpt>
      <trkpt lat="44.076" lon="5.16146">
        <ele>341.3</ele>
        <time>2012-09-15T11:09:50.000Z</time>
      </trkpt>
      <trkpt lat="44.076" lon="5.16142">
        <ele>340.9</ele>
        <time>2012-09-15T11:09:51.000Z</time>
      </trkpt>
      <trkpt lat="44.07601" lon="5.16137">
        <ele>340.3</ele>
        <time>2012-09-15T11:09:52.000Z</time>
      </trkpt>
      <trkpt lat="44.07604" lon="5.16132">
        <ele>340</ele>
        <time>2012-09-15T11:09:54.000Z</time>
      </trkpt>
      <trkpt lat="44.07606" lon="5.16128">
        <ele>339.9</ele>
        <time>2012-09-15T11:09:56.000Z</time>
      </trkpt>
      <trkpt lat="44.0761" lon="5.16127">
        <ele>340.7</ele>
        <time>2012-09-15T11:09:57.000Z</time>
      </trkpt>
      <trkpt lat="44.07614" lon="5.16127">
        <ele>340.6</ele>
        <time>2012-09-15T11:09:58.000Z</time>
      </trkpt>
      <trkpt lat="44.07617" lon="5.16126">
        <ele>340.8</ele>
        <time>2012-09-15T11:09:59.000Z</time>
      </trkpt>
      <trkpt lat="44.0762" lon="5.16126">
        <ele>340.9</ele>
        <time>2012-09-15T11:10:00.000Z</time>
      </trkpt>
      <trkpt lat="44.07624" lon="5.16127">
        <ele>341.3</ele>
        <time>2012-09-15T11:10:02.000Z</time>
      </trkpt>
      <trkpt lat="44.07628" lon="5.16124">
        <ele>341</ele>
        <time>2012-09-15T11:10:04.000Z</time>
      </trkpt>
      <trkpt lat="44.07631" lon="5.16122">
        <ele>341.2</ele>
        <time>2012-09-15T11:10:05.000Z</time>
      </trkpt>
      <trkpt lat="44.07636" lon="5.1612">
        <ele>341.3</ele>
        <time>2012-09-15T11:10:07.000Z</time>
      </trkpt>
      <trkpt lat="44.07639" lon="5.16119">
        <ele>341.6</ele>
        <time>2012-09-15T11:10:08.000Z</time>
      </trkpt>
      <trkpt lat="44.07645" lon="5.16118">
        <ele>341.5</ele>
        <time>2012-09-15T11:10:10.000Z</time>
      </trkpt>
      <trkpt lat="44.07648" lon="5.16118">
        <ele>341.8</ele>
        <time>2012-09-15T11:10:11.000Z</time>
      </trkpt>
      <trkpt lat="44.07652" lon="5.16118">
        <ele>341.5</ele>
        <time>2012-09-15T11:10:12.000Z</time>
      </trkpt>
      <trkpt lat="44.07656" lon="5.16118">
        <ele>341.5</ele>
        <time>2012-09-15T11:10:13.000Z</time>
      </trkpt>
      <trkpt lat="44.07659" lon="5.1612">
        <ele>341.5</ele>
        <time>2012-09-15T11:10:14.000Z</time>
      </trkpt>
      <trkpt lat="44.07661" lon="5.16122">
        <ele>341.3</ele>
        <time>2012-09-15T11:10:15.000Z</time>
      </trkpt>
      <trkpt lat="44.07664" lon="5.16124">
        <ele>341.5</ele>
        <time>2012-09-15T11:10:16.000Z</time>
      </trkpt>
      <trkpt lat="44.07668" lon="5.1612">
        <ele>341.8</ele>
        <time>2012-09-15T11:10:18.000Z</time>
      </trkpt>
      <trkpt lat="44.07669" lon="5.16117">
        <ele>341.6</ele>
        <time>2012-09-15T11:10:19.000Z</time>
      </trkpt>
      <trkpt lat="44.07669" lon="5.16112">
        <ele>341.5</ele>
        <time>2012-09-15T11:10:20.000Z</time>
      </trkpt>
      <trkpt lat="44.0767" lon="5.16105">
        <ele>340.8</ele>
        <time>2012-09-15T11:10:21.000Z</time>
      </trkpt>
      <trkpt lat="44.07672" lon="5.161">
        <ele>339.9</ele>
        <time>2012-09-15T11:10:22.000Z</time>
      </trkpt>
      <trkpt lat="44.07674" lon="5.16095">
        <ele>339.2</ele>
        <time>2012-09-15T11:10:23.000Z</time>
      </trkpt>
      <trkpt lat="44.07675" lon="5.1609">
        <ele>338.7</ele>
        <time>2012-09-15T11:10:24.000Z</time>
      </trkpt>
      <trkpt lat="44.07675" lon="5.16084">
        <ele>338.7</ele>
        <time>2012-09-15T11:10:25.000Z</time>
      </trkpt>
      <trkpt lat="44.07674" lon="5.16078">
        <ele>338.2</ele>
        <time>2012-09-15T11:10:26.000Z</time>
      </trkpt>
      <trkpt lat="44.07676" lon="5.16074">
        <ele>337.8</ele>
        <time>2012-09-15T11:10:27.000Z</time>
      </trkpt>
      <trkpt lat="44.07677" lon="5.16068">
        <ele>337.1</ele>
        <time>2012-09-15T11:10:29.000Z</time>
      </trkpt>
      <trkpt lat="44.07681" lon="5.16064">
        <ele>336.5</ele>
        <time>2012-09-15T11:10:30.000Z</time>
      </trkpt>
      <trkpt lat="44.07683" lon="5.16059">
        <ele>336.1</ele>
        <time>2012-09-15T11:10:31.000Z</time>
      </trkpt>
      <trkpt lat="44.07685" lon="5.16055">
        <ele>335.8</ele>
        <time>2012-09-15T11:10:32.000Z</time>
      </trkpt>
      <trkpt lat="44.07687" lon="5.16051">
        <ele>335.5</ele>
        <time>2012-09-15T11:10:33.000Z</time>
      </trkpt>
      <trkpt lat="44.07689" lon="5.16047">
        <ele>335.2</ele>
        <time>2012-09-15T11:10:34.000Z</time>
      </trkpt>
      <trkpt lat="44.07693" lon="5.16042">
        <ele>334.2</ele>
        <time>2012-09-15T11:10:35.000Z</time>
      </trkpt>
      <trkpt lat="44.07697" lon="5.16036">
        <ele>331.5</ele>
        <time>2012-09-15T11:10:36.000Z</time>
      </trkpt>
      <trkpt lat="44.07698" lon="5.16031">
        <ele>330.9</ele>
        <time>2012-09-15T11:10:37.000Z</time>
      </trkpt>
      <trkpt lat="44.07701" lon="5.16026">
        <ele>329.6</ele>
        <time>2012-09-15T11:10:38.000Z</time>
      </trkpt>
      <trkpt lat="44.07704" lon="5.1602">
        <ele>329.2</ele>
        <time>2012-09-15T11:10:39.000Z</time>
      </trkpt>
      <trkpt lat="44.07706" lon="5.16012">
        <ele>328.4</ele>
        <time>2012-09-15T11:10:40.000Z</time>
      </trkpt>
      <trkpt lat="44.07708" lon="5.16007">
        <ele>327.3</ele>
        <time>2012-09-15T11:10:41.000Z</time>
      </trkpt>
      <trkpt lat="44.0771" lon="5.16002">
        <ele>326.7</ele>
        <time>2012-09-15T11:10:42.000Z</time>
      </trkpt>
      <trkpt lat="44.0771" lon="5.1599">
        <ele>319.3</ele>
        <time>2012-09-15T11:10:43.000Z</time>
      </trkpt>
      <trkpt lat="44.07713" lon="5.15984">
        <ele>319.1</ele>
        <time>2012-09-15T11:10:44.000Z</time>
      </trkpt>
      <trkpt lat="44.07715" lon="5.15978">
        <ele>319.2</ele>
        <time>2012-09-15T11:10:45.000Z</time>
      </trkpt>
      <trkpt lat="44.07718" lon="5.15972">
        <ele>317.2</ele>
        <time>2012-09-15T11:10:46.000Z</time>
      </trkpt>
      <trkpt lat="44.07722" lon="5.15965">
        <ele>317.2</ele>
        <time>2012-09-15T11:10:47.000Z</time>
      </trkpt>
      <trkpt lat="44.07726" lon="5.1596">
        <ele>317.3</ele>
        <time>2012-09-15T11:10:48.000Z</time>
      </trkpt>
      <trkpt lat="44.07729" lon="5.15955">
        <ele>318.3</ele>
        <time>2012-09-15T11:10:49.000Z</time>
      </trkpt>
      <trkpt lat="44.07733" lon="5.15948">
        <ele>317.1</ele>
        <time>2012-09-15T11:10:50.000Z</time>
      </trkpt>
      <trkpt lat="44.07737" lon="5.15943">
        <ele>318.2</ele>
        <time>2012-09-15T11:10:51.000Z</time>
      </trkpt>
      <trkpt lat="44.07741" lon="5.15935">
        <ele>318.2</ele>
        <time>2012-09-15T11:10:52.000Z</time>
      </trkpt>
      <trkpt lat="44.07745" lon="5.15929">
        <ele>317.1</ele>
        <time>2012-09-15T11:10:53.000Z</time>
      </trkpt>
      <trkpt lat="44.07749" lon="5.15923">
        <ele>317.2</ele>
        <time>2012-09-15T11:10:54.000Z</time>
      </trkpt>
      <trkpt lat="44.07752" lon="5.15918">
        <ele>316.8</ele>
        <time>2012-09-15T11:10:55.000Z</time>
      </trkpt>
      <trkpt lat="44.07755" lon="5.15912">
        <ele>317</ele>
        <time>2012-09-15T11:10:56.000Z</time>
      </trkpt>
      <trkpt lat="44.07758" lon="5.15908">
        <ele>317</ele>
        <time>2012-09-15T11:10:57.000Z</time>
      </trkpt>
      <trkpt lat="44.0776" lon="5.15902">
        <ele>316.1</ele>
        <time>2012-09-15T11:10:58.000Z</time>
      </trkpt>
      <trkpt lat="44.07762" lon="5.15897">
        <ele>315.2</ele>
        <time>2012-09-15T11:10:59.000Z</time>
      </trkpt>
      <trkpt lat="44.07766" lon="5.15894">
        <ele>314.9</ele>
        <time>2012-09-15T11:11:01.000Z</time>
      </trkpt>
      <trkpt lat="44.0777" lon="5.15891">
        <ele>315</ele>
        <time>2012-09-15T11:11:03.000Z</time>
      </trkpt>
      <trkpt lat="44.07775" lon="5.15898">
        <ele>315.4</ele>
        <time>2012-09-15T11:11:05.000Z</time>
      </trkpt>
      <trkpt lat="44.07778" lon="5.159">
        <ele>315.6</ele>
        <time>2012-09-15T11:11:06.000Z</time>
      </trkpt>
      <trkpt lat="44.07781" lon="5.15902">
        <ele>315.7</ele>
        <time>2012-09-15T11:11:07.000Z</time>
      </trkpt>
      <trkpt lat="44.07784" lon="5.15905">
        <ele>316</ele>
        <time>2012-09-15T11:11:08.000Z</time>
      </trkpt>
      <trkpt lat="44.07787" lon="5.15908">
        <ele>316</ele>
        <time>2012-09-15T11:11:09.000Z</time>
      </trkpt>
      <trkpt lat="44.07789" lon="5.15911">
        <ele>316.1</ele>
        <time>2012-09-15T11:11:10.000Z</time>
      </trkpt>
      <trkpt lat="44.07792" lon="5.15914">
        <ele>316.2</ele>
        <time>2012-09-15T11:11:11.000Z</time>
      </trkpt>
      <trkpt lat="44.07796" lon="5.15918">
        <ele>315.9</ele>
        <time>2012-09-15T11:11:12.000Z</time>
      </trkpt>
      <trkpt lat="44.07799" lon="5.15922">
        <ele>315.8</ele>
        <time>2012-09-15T11:11:13.000Z</time>
      </trkpt>
      <trkpt lat="44.07801" lon="5.15924">
        <ele>315.8</ele>
        <time>2012-09-15T11:11:14.000Z</time>
      </trkpt>
      <trkpt lat="44.07804" lon="5.15927">
        <ele>316</ele>
        <time>2012-09-15T11:11:15.000Z</time>
      </trkpt>
      <trkpt lat="44.07807" lon="5.1593">
        <ele>316.3</ele>
        <time>2012-09-15T11:11:16.000Z</time>
      </trkpt>
      <trkpt lat="44.0781" lon="5.15932">
        <ele>316.4</ele>
        <time>2012-09-15T11:11:17.000Z</time>
      </trkpt>
      <trkpt lat="44.07813" lon="5.15935">
        <ele>316.4</ele>
        <time>2012-09-15T11:11:18.000Z</time>
      </trkpt>
      <trkpt lat="44.07815" lon="5.15939">
        <ele>316</ele>
        <time>2012-09-15T11:11:19.000Z</time>
      </trkpt>
      <trkpt lat="44.07817" lon="5.15942">
        <ele>315.8</ele>
        <time>2012-09-15T11:11:20.000Z</time>
      </trkpt>
      <trkpt lat="44.07821" lon="5.15946">
        <ele>315.7</ele>
        <time>2012-09-15T11:11:22.000Z</time>
      </trkpt>
      <trkpt lat="44.07824" lon="5.15947">
        <ele>316</ele>
        <time>2012-09-15T11:11:23.000Z</time>
      </trkpt>
      <trkpt lat="44.07829" lon="5.1595">
        <ele>316</ele>
        <time>2012-09-15T11:11:24.000Z</time>
      </trkpt>
      <trkpt lat="44.07831" lon="5.15953">
        <ele>316.1</ele>
        <time>2012-09-15T11:11:25.000Z</time>
      </trkpt>
      <trkpt lat="44.07834" lon="5.15956">
        <ele>316.4</ele>
        <time>2012-09-15T11:11:26.000Z</time>
      </trkpt>
      <trkpt lat="44.07836" lon="5.15959">
        <ele>316.2</ele>
        <time>2012-09-15T11:11:27.000Z</time>
      </trkpt>
      <trkpt lat="44.07838" lon="5.15962">
        <ele>316.3</ele>
        <time>2012-09-15T11:11:28.000Z</time>
      </trkpt>
      <trkpt lat="44.0784" lon="5.15964">
        <ele>316.2</ele>
        <time>2012-09-15T11:11:29.000Z</time>
      </trkpt>
      <trkpt lat="44.07907" lon="5.16054">
        <ele>302.3</ele>
        <time>2012-09-15T11:12:06.000Z</time>
      </trkpt>
      <trkpt lat="44.07905" lon="5.16055">
        <ele>303.2</ele>
        <time>2012-09-15T11:12:07.000Z</time>
      </trkpt>
      <trkpt lat="44.07895" lon="5.16054">
        <ele>302.6</ele>
        <time>2012-09-15T11:12:08.000Z</time>
      </trkpt>
      <trkpt lat="44.07896" lon="5.16059">
        <ele>304.7</ele>
        <time>2012-09-15T11:12:10.000Z</time>
      </trkpt>
      <trkpt lat="44.07892" lon="5.16062">
        <ele>305.3</ele>
        <time>2012-09-15T11:12:12.000Z</time>
      </trkpt>
      <trkpt lat="44.0789" lon="5.16058">
        <ele>306.3</ele>
        <time>2012-09-15T11:12:14.000Z</time>
      </trkpt>
      <trkpt lat="44.07886" lon="5.16056">
        <ele>307.1</ele>
        <time>2012-09-15T11:12:25.000Z</time>
      </trkpt>
      <trkpt lat="44.07883" lon="5.16058">
        <ele>306.7</ele>
        <time>2012-09-15T11:12:27.000Z</time>
      </trkpt>
      <trkpt lat="44.07884" lon="5.16054">
        <ele>306.8</ele>
        <time>2012-09-15T11:12:34.000Z</time>
      </trkpt>
      <trkpt lat="44.07886" lon="5.16049">
        <ele>308.6</ele>
        <time>2012-09-15T11:12:36.000Z</time>
      </trkpt>
      <trkpt lat="44.07882" lon="5.16049">
        <ele>308.7</ele>
        <time>2012-09-15T11:12:37.000Z</time>
      </trkpt>
      <trkpt lat="44.0788" lon="5.16046">
        <ele>309.8</ele>
        <time>2012-09-15T11:12:38.000Z</time>
      </trkpt>
      <trkpt lat="44.07881" lon="5.1604">
        <ele>310.7</ele>
        <time>2012-09-15T11:12:39.000Z</time>
      </trkpt>
      <trkpt lat="44.0788" lon="5.16045">
        <ele>310.4</ele>
        <time>2012-09-15T11:12:41.000Z</time>
      </trkpt>
      <trkpt lat="44.07884" lon="5.16051">
        <ele>309.7</ele>
        <time>2012-09-15T11:12:43.000Z</time>
      </trkpt>
      <trkpt lat="44.07889" lon="5.16052">
        <ele>309.9</ele>
        <time>2012-09-15T11:12:46.000Z</time>
      </trkpt>
      <trkpt lat="44.07882" lon="5.16046">
        <ele>310</ele>
        <time>2012-09-15T11:12:51.000Z</time>
      </trkpt>
      <trkpt lat="44.07884" lon="5.1605">
        <ele>308.6</ele>
        <time>2012-09-15T11:12:53.000Z</time>
      </trkpt>
      <trkpt lat="44.07887" lon="5.1605">
        <ele>308.3</ele>
        <time>2012-09-15T11:12:55.000Z</time>
      </trkpt>
      <trkpt lat="44.07885" lon="5.16053">
        <ele>307.1</ele>
        <time>2012-09-15T11:15:46.000Z</time>
      </trkpt>
      <trkpt lat="44.07887" lon="5.16056">
        <ele>308.8</ele>
        <time>2012-09-15T11:21:11.000Z</time>
      </trkpt>
      <trkpt lat="44.07887" lon="5.1606">
        <ele>310.1</ele>
        <time>2012-09-15T11:21:16.000Z</time>
      </trkpt>
      <trkpt lat="44.07889" lon="5.16061">
        <ele>312</ele>
        <time>2012-09-15T11:23:12.000Z</time>
      </trkpt>
      <trkpt lat="44.07893" lon="5.16059">
        <ele>313.7</ele>
        <time>2012-09-15T11:23:14.000Z</time>
      </trkpt>
      <trkpt lat="44.07895" lon="5.16054">
        <ele>313</ele>
        <time>2012-09-15T11:23:16.000Z</time>
      </trkpt>
      <trkpt lat="44.07896" lon="5.16048">
        <ele>313.2</ele>
        <time>2012-09-15T11:23:18.000Z</time>
      </trkpt>
      <trkpt lat="44.07897" lon="5.16043">
        <ele>312.8</ele>
        <time>2012-09-15T11:23:19.000Z</time>
      </trkpt>
      <trkpt lat="44.07898" lon="5.16037">
        <ele>313.1</ele>
        <time>2012-09-15T11:23:20.000Z</time>
      </trkpt>
      <trkpt lat="44.07899" lon="5.16031">
        <ele>313.8</ele>
        <time>2012-09-15T11:23:21.000Z</time>
      </trkpt>
      <trkpt lat="44.079" lon="5.16026">
        <ele>313.2</ele>
        <time>2012-09-15T11:23:22.000Z</time>
      </trkpt>
      <trkpt lat="44.07901" lon="5.16019">
        <ele>312.5</ele>
        <time>2012-09-15T11:23:23.000Z</time>
      </trkpt>
      <trkpt lat="44.07906" lon="5.16014">
        <ele>312.8</ele>
        <time>2012-09-15T11:23:24.000Z</time>
      </trkpt>
      <trkpt lat="44.07907" lon="5.16008">
        <ele>313.2</ele>
        <time>2012-09-15T11:23:25.000Z</time>
      </trkpt>
      <trkpt lat="44.07908" lon="5.16002">
        <ele>312.8</ele>
        <time>2012-09-15T11:23:26.000Z</time>
      </trkpt>
      <trkpt lat="44.0791" lon="5.15994">
        <ele>312.1</ele>
        <time>2012-09-15T11:23:27.000Z</time>
      </trkpt>
      <trkpt lat="44.07912" lon="5.15987">
        <ele>311.5</ele>
        <time>2012-09-15T11:23:28.000Z</time>
      </trkpt>
      <trkpt lat="44.07913" lon="5.15978">
        <ele>311.5</ele>
        <time>2012-09-15T11:23:29.000Z</time>
      </trkpt>
      <trkpt lat="44.07914" lon="5.1597">
        <ele>311.9</ele>
        <time>2012-09-15T11:23:30.000Z</time>
      </trkpt>
      <trkpt lat="44.07915" lon="5.15963">
        <ele>312</ele>
        <time>2012-09-15T11:23:31.000Z</time>
      </trkpt>
      <trkpt lat="44.07917" lon="5.15955">
        <ele>311.6</ele>
        <time>2012-09-15T11:23:32.000Z</time>
      </trkpt>
      <trkpt lat="44.07918" lon="5.15946">
        <ele>311.7</ele>
        <time>2012-09-15T11:23:33.000Z</time>
      </trkpt>
      <trkpt lat="44.07918" lon="5.1594">
        <ele>312.4</ele>
        <time>2012-09-15T11:23:34.000Z</time>
      </trkpt>
      <trkpt lat="44.07916" lon="5.15935">
        <ele>312.6</ele>
        <time>2012-09-15T11:23:35.000Z</time>
      </trkpt>
      <trkpt lat="44.07912" lon="5.15929">
        <ele>312.3</ele>
        <time>2012-09-15T11:23:36.000Z</time>
      </trkpt>
      <trkpt lat="44.0791" lon="5.15924">
        <ele>311.9</ele>
        <time>2012-09-15T11:23:37.000Z</time>
      </trkpt>
      <trkpt lat="44.0791" lon="5.15917">
        <ele>311.3</ele>
        <time>2012-09-15T11:23:38.000Z</time>
      </trkpt>
      <trkpt lat="44.07908" lon="5.1591">
        <ele>311.1</ele>
        <time>2012-09-15T11:23:39.000Z</time>
      </trkpt>
      <trkpt lat="44.07906" lon="5.159">
        <ele>311.6</ele>
        <time>2012-09-15T11:23:40.000Z</time>
      </trkpt>
      <trkpt lat="44.07905" lon="5.15891">
        <ele>312.1</ele>
        <time>2012-09-15T11:23:41.000Z</time>
      </trkpt>
      <trkpt lat="44.07902" lon="5.15886">
        <ele>311.8</ele>
        <time>2012-09-15T11:23:42.000Z</time>
      </trkpt>
      <trkpt lat="44.07904" lon="5.15878">
        <ele>312.2</ele>
        <time>2012-09-15T11:23:44.000Z</time>
      </trkpt>
      <trkpt lat="44.07901" lon="5.15878">
        <ele>310.7</ele>
        <time>2012-09-15T11:23:45.000Z</time>
      </trkpt>
      <trkpt lat="44.07905" lon="5.15867">
        <ele>308.6</ele>
        <time>2012-09-15T11:23:46.000Z</time>
      </trkpt>
      <trkpt lat="44.07906" lon="5.1586">
        <ele>307.8</ele>
        <time>2012-09-15T11:23:47.000Z</time>
      </trkpt>
      <trkpt lat="44.07903" lon="5.1585">
        <ele>308.1</ele>
        <time>2012-09-15T11:23:48.000Z</time>
      </trkpt>
      <trkpt lat="44.07902" lon="5.15842">
        <ele>308.1</ele>
        <time>2012-09-15T11:23:49.000Z</time>
      </trkpt>
      <trkpt lat="44.07902" lon="5.15834">
        <ele>307.6</ele>
        <time>2012-09-15T11:23:50.000Z</time>
      </trkpt>
      <trkpt lat="44.07903" lon="5.15826">
        <ele>307.4</ele>
        <time>2012-09-15T11:23:51.000Z</time>
      </trkpt>
      <trkpt lat="44.07905" lon="5.1582">
        <ele>307.9</ele>
        <time>2012-09-15T11:23:52.000Z</time>
      </trkpt>
      <trkpt lat="44.07907" lon="5.15813">
        <ele>309.1</ele>
        <time>2012-09-15T11:23:53.000Z</time>
      </trkpt>
      <trkpt lat="44.0791" lon="5.15808">
        <ele>309.1</ele>
        <time>2012-09-15T11:23:54.000Z</time>
      </trkpt>
      <trkpt lat="44.07912" lon="5.158">
        <ele>308.4</ele>
        <time>2012-09-15T11:23:55.000Z</time>
      </trkpt>
      <trkpt lat="44.07914" lon="5.15795">
        <ele>308.6</ele>
        <time>2012-09-15T11:23:56.000Z</time>
      </trkpt>
      <trkpt lat="44.07916" lon="5.15789">
        <ele>308.6</ele>
        <time>2012-09-15T11:23:57.000Z</time>
      </trkpt>
      <trkpt lat="44.07918" lon="5.15784">
        <ele>308.1</ele>
        <time>2012-09-15T11:23:58.000Z</time>
      </trkpt>
      <trkpt lat="44.07919" lon="5.15778">
        <ele>308</ele>
        <time>2012-09-15T11:23:59.000Z</time>
      </trkpt>
      <trkpt lat="44.07923" lon="5.15773">
        <ele>307.3</ele>
        <time>2012-09-15T11:24:00.000Z</time>
      </trkpt>
      <trkpt lat="44.07926" lon="5.15768">
        <ele>307</ele>
        <time>2012-09-15T11:24:01.000Z</time>
      </trkpt>
      <trkpt lat="44.07929" lon="5.15761">
        <ele>306.8</ele>
        <time>2012-09-15T11:24:02.000Z</time>
      </trkpt>
      <trkpt lat="44.0793" lon="5.15755">
        <ele>306.7</ele>
        <time>2012-09-15T11:24:03.000Z</time>
      </trkpt>
      <trkpt lat="44.07932" lon="5.1575">
        <ele>306.4</ele>
        <time>2012-09-15T11:24:04.000Z</time>
      </trkpt>
      <trkpt lat="44.07933" lon="5.15744">
        <ele>306.5</ele>
        <time>2012-09-15T11:24:05.000Z</time>
      </trkpt>
      <trkpt lat="44.07934" lon="5.15738">
        <ele>306.9</ele>
        <time>2012-09-15T11:24:06.000Z</time>
      </trkpt>
      <trkpt lat="44.07934" lon="5.15732">
        <ele>307.1</ele>
        <time>2012-09-15T11:24:07.000Z</time>
      </trkpt>
      <trkpt lat="44.07936" lon="5.15724">
        <ele>306.9</ele>
        <time>2012-09-15T11:24:08.000Z</time>
      </trkpt>
      <trkpt lat="44.07939" lon="5.15719">
        <ele>307.3</ele>
        <time>2012-09-15T11:24:09.000Z</time>
      </trkpt>
      <trkpt lat="44.07942" lon="5.15713">
        <ele>307.2</ele>
        <time>2012-09-15T11:24:10.000Z</time>
      </trkpt>
      <trkpt lat="44.07945" lon="5.15707">
        <ele>306.7</ele>
        <time>2012-09-15T11:24:11.000Z</time>
      </trkpt>
      <trkpt lat="44.07948" lon="5.157">
        <ele>306.5</ele>
        <time>2012-09-15T11:24:12.000Z</time>
      </trkpt>
      <trkpt lat="44.0795" lon="5.15694">
        <ele>306.5</ele>
        <time>2012-09-15T11:24:13.000Z</time>
      </trkpt>
      <trkpt lat="44.07952" lon="5.15688">
        <ele>306.4</ele>
        <time>2012-09-15T11:24:14.000Z</time>
      </trkpt>
      <trkpt lat="44.07955" lon="5.15682">
        <ele>306.4</ele>
        <time>2012-09-15T11:24:15.000Z</time>
      </trkpt>
      <trkpt lat="44.07957" lon="5.15676">
        <ele>306.4</ele>
        <time>2012-09-15T11:24:16.000Z</time>
      </trkpt>
      <trkpt lat="44.07956" lon="5.15672">
        <ele>306.8</ele>
        <time>2012-09-15T11:24:17.000Z</time>
      </trkpt>
      <trkpt lat="44.07954" lon="5.15668">
        <ele>306.8</ele>
        <time>2012-09-15T11:24:18.000Z</time>
      </trkpt>
      <trkpt lat="44.07951" lon="5.15662">
        <ele>306.6</ele>
        <time>2012-09-15T11:24:19.000Z</time>
      </trkpt>
      <trkpt lat="44.07947" lon="5.15656">
        <ele>306.8</ele>
        <time>2012-09-15T11:24:20.000Z</time>
      </trkpt>
      <trkpt lat="44.07942" lon="5.15652">
        <ele>306.4</ele>
        <time>2012-09-15T11:24:21.000Z</time>
      </trkpt>
      <trkpt lat="44.07939" lon="5.15648">
        <ele>306.7</ele>
        <time>2012-09-15T11:24:22.000Z</time>
      </trkpt>
      <trkpt lat="44.07936" lon="5.15643">
        <ele>305.7</ele>
        <time>2012-09-15T11:24:23.000Z</time>
      </trkpt>
      <trkpt lat="44.07935" lon="5.15636">
        <ele>305</ele>
        <time>2012-09-15T11:24:24.000Z</time>
      </trkpt>
      <trkpt lat="44.07934" lon="5.1563">
        <ele>303.8</ele>
        <time>2012-09-15T11:24:25.000Z</time>
      </trkpt>
      <trkpt lat="44.07934" lon="5.15624">
        <ele>303.5</ele>
        <time>2012-09-15T11:24:26.000Z</time>
      </trkpt>
      <trkpt lat="44.07935" lon="5.15618">
        <ele>303.6</ele>
        <time>2012-09-15T11:24:27.000Z</time>
      </trkpt>
      <trkpt lat="44.07935" lon="5.1561">
        <ele>303.9</ele>
        <time>2012-09-15T11:24:28.000Z</time>
      </trkpt>
      <trkpt lat="44.07935" lon="5.15602">
        <ele>304.6</ele>
        <time>2012-09-15T11:24:29.000Z</time>
      </trkpt>
      <trkpt lat="44.07938" lon="5.15593">
        <ele>304.1</ele>
        <time>2012-09-15T11:24:30.000Z</time>
      </trkpt>
      <trkpt lat="44.07942" lon="5.15584">
        <ele>301.8</ele>
        <time>2012-09-15T11:24:31.000Z</time>
      </trkpt>
      <trkpt lat="44.07942" lon="5.15578">
        <ele>302.1</ele>
        <time>2012-09-15T11:24:32.000Z</time>
      </trkpt>
      <trkpt lat="44.07942" lon="5.15582">
        <ele>301.5</ele>
        <time>2012-09-15T11:24:41.000Z</time>
      </trkpt>
      <trkpt lat="44.07939" lon="5.15584">
        <ele>301.1</ele>
        <time>2012-09-15T11:24:44.000Z</time>
      </trkpt>
      <trkpt lat="44.07936" lon="5.15584">
        <ele>301.5</ele>
        <time>2012-09-15T11:24:49.000Z</time>
      </trkpt>
      <trkpt lat="44.0794" lon="5.15583">
        <ele>300.4</ele>
        <time>2012-09-15T11:25:01.000Z</time>
      </trkpt>
      <trkpt lat="44.07942" lon="5.15584">
        <ele>300.1</ele>
        <time>2012-09-15T11:25:05.000Z</time>
      </trkpt>
      <trkpt lat="44.07939" lon="5.15583">
        <ele>300.1</ele>
        <time>2012-09-15T11:25:30.000Z</time>
      </trkpt>
      <trkpt lat="44.07936" lon="5.15583">
        <ele>300.1</ele>
        <time>2012-09-15T11:25:32.000Z</time>
      </trkpt>
      <trkpt lat="44.07933" lon="5.15582">
        <ele>299.9</ele>
        <time>2012-09-15T11:25:33.000Z</time>
      </trkpt>
      <trkpt lat="44.0793" lon="5.15582">
        <ele>299.2</ele>
        <time>2012-09-15T11:25:36.000Z</time>
      </trkpt>
      <trkpt lat="44.07926" lon="5.15581">
        <ele>299.3</ele>
        <time>2012-09-15T11:25:40.000Z</time>
      </trkpt>
      <trkpt lat="44.07921" lon="5.1558">
        <ele>298.8</ele>
        <time>2012-09-15T11:25:42.000Z</time>
      </trkpt>
      <trkpt lat="44.07916" lon="5.15578">
        <ele>298.9</ele>
        <time>2012-09-15T11:25:44.000Z</time>
      </trkpt>
      <trkpt lat="44.07913" lon="5.15577">
        <ele>298.9</ele>
        <time>2012-09-15T11:25:45.000Z</time>
      </trkpt>
      <trkpt lat="44.0791" lon="5.15576">
        <ele>299</ele>
        <time>2012-09-15T11:25:46.000Z</time>
      </trkpt>
      <trkpt lat="44.07904" lon="5.15576">
        <ele>298.7</ele>
        <time>2012-09-15T11:25:48.000Z</time>
      </trkpt>
      <trkpt lat="44.07901" lon="5.15578">
        <ele>299.2</ele>
        <time>2012-09-15T11:25:50.000Z</time>
      </trkpt>
      <trkpt lat="44.07899" lon="5.15581">
        <ele>299.3</ele>
        <time>2012-09-15T11:25:51.000Z</time>
      </trkpt>
      <trkpt lat="44.07896" lon="5.15584">
        <ele>298.8</ele>
        <time>2012-09-15T11:25:52.000Z</time>
      </trkpt>
      <trkpt lat="44.07894" lon="5.1559">
        <ele>298.2</ele>
        <time>2012-09-15T11:25:54.000Z</time>
      </trkpt>
      <trkpt lat="44.07895" lon="5.15595">
        <ele>298.3</ele>
        <time>2012-09-15T11:25:56.000Z</time>
      </trkpt>
      <trkpt lat="44.07893" lon="5.15602">
        <ele>298</ele>
        <time>2012-09-15T11:25:58.000Z</time>
      </trkpt>
      <trkpt lat="44.07892" lon="5.15605">
        <ele>298.4</ele>
        <time>2012-09-15T11:26:00.000Z</time>
      </trkpt>
      <trkpt lat="44.07889" lon="5.15607">
        <ele>298.7</ele>
        <time>2012-09-15T11:26:02.000Z</time>
      </trkpt>
      <trkpt lat="44.07885" lon="5.15607">
        <ele>298.7</ele>
        <time>2012-09-15T11:26:04.000Z</time>
      </trkpt>
      <trkpt lat="44.0788" lon="5.15607">
        <ele>298.6</ele>
        <time>2012-09-15T11:26:05.000Z</time>
      </trkpt>
      <trkpt lat="44.07876" lon="5.15606">
        <ele>298.5</ele>
        <time>2012-09-15T11:26:06.000Z</time>
      </trkpt>
      <trkpt lat="44.07872" lon="5.15606">
        <ele>298.4</ele>
        <time>2012-09-15T11:26:07.000Z</time>
      </trkpt>
      <trkpt lat="44.07866" lon="5.15605">
        <ele>298.4</ele>
        <time>2012-09-15T11:26:08.000Z</time>
      </trkpt>
      <trkpt lat="44.07863" lon="5.15605">
        <ele>298.8</ele>
        <time>2012-09-15T11:26:09.000Z</time>
      </trkpt>
      <trkpt lat="44.07859" lon="5.15605">
        <ele>298.8</ele>
        <time>2012-09-15T11:26:10.000Z</time>
      </trkpt>
      <trkpt lat="44.07855" lon="5.15605">
        <ele>298.8</ele>
        <time>2012-09-15T11:26:11.000Z</time>
      </trkpt>
      <trkpt lat="44.07852" lon="5.15604">
        <ele>298.9</ele>
        <time>2012-09-15T11:26:12.000Z</time>
      </trkpt>
      <trkpt lat="44.07848" lon="5.15605">
        <ele>298.9</ele>
        <time>2012-09-15T11:26:13.000Z</time>
      </trkpt>
      <trkpt lat="44.07844" lon="5.15604">
        <ele>300.1</ele>
        <time>2012-09-15T11:26:14.000Z</time>
      </trkpt>
      <trkpt lat="44.07839" lon="5.15604">
        <ele>301.7</ele>
        <time>2012-09-15T11:26:15.000Z</time>
      </trkpt>
      <trkpt lat="44.07836" lon="5.15603">
        <ele>301.7</ele>
        <time>2012-09-15T11:26:16.000Z</time>
      </trkpt>
      <trkpt lat="44.07832" lon="5.15603">
        <ele>300.7</ele>
        <time>2012-09-15T11:26:17.000Z</time>
      </trkpt>
      <trkpt lat="44.07829" lon="5.15604">
        <ele>301.9</ele>
        <time>2012-09-15T11:26:18.000Z</time>
      </trkpt>
      <trkpt lat="44.07824" lon="5.15603">
        <ele>301.7</ele>
        <time>2012-09-15T11:26:19.000Z</time>
      </trkpt>
      <trkpt lat="44.07819" lon="5.15602">
        <ele>301.3</ele>
        <time>2012-09-15T11:26:20.000Z</time>
      </trkpt>
      <trkpt lat="44.07816" lon="5.15602">
        <ele>301.3</ele>
        <time>2012-09-15T11:26:21.000Z</time>
      </trkpt>
      <trkpt lat="44.07811" lon="5.15602">
        <ele>300.1</ele>
        <time>2012-09-15T11:26:22.000Z</time>
      </trkpt>
      <trkpt lat="44.07807" lon="5.15601">
        <ele>299.8</ele>
        <time>2012-09-15T11:26:23.000Z</time>
      </trkpt>
      <trkpt lat="44.07802" lon="5.15601">
        <ele>300.4</ele>
        <time>2012-09-15T11:26:24.000Z</time>
      </trkpt>
      <trkpt lat="44.07798" lon="5.15601">
        <ele>300.4</ele>
        <time>2012-09-15T11:26:25.000Z</time>
      </trkpt>
      <trkpt lat="44.07793" lon="5.15603">
        <ele>299.5</ele>
        <time>2012-09-15T11:26:26.000Z</time>
      </trkpt>
      <trkpt lat="44.0779" lon="5.15608">
        <ele>298.6</ele>
        <time>2012-09-15T11:26:27.000Z</time>
      </trkpt>
      <trkpt lat="44.07783" lon="5.1561">
        <ele>300.4</ele>
        <time>2012-09-15T11:26:28.000Z</time>
      </trkpt>
      <trkpt lat="44.07778" lon="5.15611">
        <ele>301.5</ele>
        <time>2012-09-15T11:26:29.000Z</time>
      </trkpt>
      <trkpt lat="44.07774" lon="5.15613">
        <ele>301.3</ele>
        <time>2012-09-15T11:26:30.000Z</time>
      </trkpt>
      <trkpt lat="44.0777" lon="5.15615">
        <ele>301</ele>
        <time>2012-09-15T11:26:31.000Z</time>
      </trkpt>
      <trkpt lat="44.0767" lon="5.15667">
        <ele>293.7</ele>
        <time>2012-09-15T11:27:03.000Z</time>
      </trkpt>
      <trkpt lat="44.07668" lon="5.15673">
        <ele>297.5</ele>
        <time>2012-09-15T11:27:05.000Z</time>
      </trkpt>
      <trkpt lat="44.07665" lon="5.15675">
        <ele>296</ele>
        <time>2012-09-15T11:27:06.000Z</time>
      </trkpt>
      <trkpt lat="44.07662" lon="5.15677">
        <ele>295.2</ele>
        <time>2012-09-15T11:27:07.000Z</time>
      </trkpt>
      <trkpt lat="44.07659" lon="5.1568">
        <ele>294.8</ele>
        <time>2012-09-15T11:27:08.000Z</time>
      </trkpt>
      <trkpt lat="44.07656" lon="5.15682">
        <ele>294.8</ele>
        <time>2012-09-15T11:27:09.000Z</time>
      </trkpt>
      <trkpt lat="44.07653" lon="5.15688">
        <ele>297.2</ele>
        <time>2012-09-15T11:27:11.000Z</time>
      </trkpt>
      <trkpt lat="44.07649" lon="5.1569">
        <ele>296.7</ele>
        <time>2012-09-15T11:27:12.000Z</time>
      </trkpt>
      <trkpt lat="44.07646" lon="5.15692">
        <ele>296.3</ele>
        <time>2012-09-15T11:27:13.000Z</time>
      </trkpt>
      <trkpt lat="44.07644" lon="5.15695">
        <ele>295.3</ele>
        <time>2012-09-15T11:27:14.000Z</time>
      </trkpt>
      <trkpt lat="44.0764" lon="5.15694">
        <ele>295.7</ele>
        <time>2012-09-15T11:27:15.000Z</time>
      </trkpt>
      <trkpt lat="44.07636" lon="5.15689">
        <ele>298.6</ele>
        <time>2012-09-15T11:27:17.000Z</time>
      </trkpt>
      <trkpt lat="44.07633" lon="5.15685">
        <ele>299</ele>
        <time>2012-09-15T11:27:18.000Z</time>
      </trkpt>
      <trkpt lat="44.0763" lon="5.15681">
        <ele>299.2</ele>
        <time>2012-09-15T11:27:19.000Z</time>
      </trkpt>
      <trkpt lat="44.07625" lon="5.15675">
        <ele>298.6</ele>
        <time>2012-09-15T11:27:20.000Z</time>
      </trkpt>
      <trkpt lat="44.07621" lon="5.15669">
        <ele>298.3</ele>
        <time>2012-09-15T11:27:21.000Z</time>
      </trkpt>
      <trkpt lat="44.07616" lon="5.15662">
        <ele>298.3</ele>
        <time>2012-09-15T11:27:22.000Z</time>
      </trkpt>
      <trkpt lat="44.07612" lon="5.15656">
        <ele>298.6</ele>
        <time>2012-09-15T11:27:23.000Z</time>
      </trkpt>
      <trkpt lat="44.07607" lon="5.1565">
        <ele>298.7</ele>
        <time>2012-09-15T11:27:24.000Z</time>
      </trkpt>
      <trkpt lat="44.07601" lon="5.15644">
        <ele>298.2</ele>
        <time>2012-09-15T11:27:25.000Z</time>
      </trkpt>
      <trkpt lat="44.07595" lon="5.15638">
        <ele>297.6</ele>
        <time>2012-09-15T11:27:26.000Z</time>
      </trkpt>
      <trkpt lat="44.07589" lon="5.15631">
        <ele>297</ele>
        <time>2012-09-15T11:27:27.000Z</time>
      </trkpt>
      <trkpt lat="44.07583" lon="5.15624">
        <ele>296.8</ele>
        <time>2012-09-15T11:27:28.000Z</time>
      </trkpt>
      <trkpt lat="44.07577" lon="5.15617">
        <ele>296.7</ele>
        <time>2012-09-15T11:27:29.000Z</time>
      </trkpt>
      <trkpt lat="44.07571" lon="5.1561">
        <ele>296.6</ele>
        <time>2012-09-15T11:27:30.000Z</time>
      </trkpt>
      <trkpt lat="44.07565" lon="5.15602">
        <ele>296.3</ele>
        <time>2012-09-15T11:27:31.000Z</time>
      </trkpt>
      <trkpt lat="44.07559" lon="5.15596">
        <ele>296.2</ele>
        <time>2012-09-15T11:27:32.000Z</time>
      </trkpt>
      <trkpt lat="44.07553" lon="5.15588">
        <ele>296.2</ele>
        <time>2012-09-15T11:27:33.000Z</time>
      </trkpt>
      <trkpt lat="44.07547" lon="5.15581">
        <ele>296.5</ele>
        <time>2012-09-15T11:27:34.000Z</time>
      </trkpt>
      <trkpt lat="44.07541" lon="5.15575">
        <ele>296.3</ele>
        <time>2012-09-15T11:27:35.000Z</time>
      </trkpt>
      <trkpt lat="44.07535" lon="5.15568">
        <ele>296.1</ele>
        <time>2012-09-15T11:27:36.000Z</time>
      </trkpt>
      <trkpt lat="44.07529" lon="5.15562">
        <ele>296</ele>
        <time>2012-09-15T11:27:37.000Z</time>
      </trkpt>
      <trkpt lat="44.07523" lon="5.15555">
        <ele>296</ele>
        <time>2012-09-15T11:27:38.000Z</time>
      </trkpt>
      <trkpt lat="44.07518" lon="5.1555">
        <ele>295.6</ele>
        <time>2012-09-15T11:27:39.000Z</time>
      </trkpt>
      <trkpt lat="44.07512" lon="5.15543">
        <ele>295.7</ele>
        <time>2012-09-15T11:27:40.000Z</time>
      </trkpt>
      <trkpt lat="44.07507" lon="5.15538">
        <ele>295.6</ele>
        <time>2012-09-15T11:27:41.000Z</time>
      </trkpt>
      <trkpt lat="44.07501" lon="5.15534">
        <ele>295.5</ele>
        <time>2012-09-15T11:27:42.000Z</time>
      </trkpt>
      <trkpt lat="44.07497" lon="5.15529">
        <ele>295.4</ele>
        <time>2012-09-15T11:27:43.000Z</time>
      </trkpt>
      <trkpt lat="44.07492" lon="5.15522">
        <ele>295.5</ele>
        <time>2012-09-15T11:27:44.000Z</time>
      </trkpt>
      <trkpt lat="44.07488" lon="5.15517">
        <ele>295.8</ele>
        <time>2012-09-15T11:27:45.000Z</time>
      </trkpt>
      <trkpt lat="44.07486" lon="5.15512">
        <ele>295.8</ele>
        <time>2012-09-15T11:27:46.000Z</time>
      </trkpt>
      <trkpt lat="44.07482" lon="5.15506">
        <ele>295.8</ele>
        <time>2012-09-15T11:27:47.000Z</time>
      </trkpt>
      <trkpt lat="44.07477" lon="5.155">
        <ele>295.7</ele>
        <time>2012-09-15T11:27:48.000Z</time>
      </trkpt>
      <trkpt lat="44.07472" lon="5.15494">
        <ele>295.7</ele>
        <time>2012-09-15T11:27:49.000Z</time>
      </trkpt>
      <trkpt lat="44.07467" lon="5.15486">
        <ele>295.8</ele>
        <time>2012-09-15T11:27:50.000Z</time>
      </trkpt>
      <trkpt lat="44.0746" lon="5.1548">
        <ele>295.8</ele>
        <time>2012-09-15T11:27:51.000Z</time>
      </trkpt>
      <trkpt lat="44.07455" lon="5.15472">
        <ele>295.8</ele>
        <time>2012-09-15T11:27:52.000Z</time>
      </trkpt>
      <trkpt lat="44.07447" lon="5.15464">
        <ele>295.8</ele>
        <time>2012-09-15T11:27:53.000Z</time>
      </trkpt>
      <trkpt lat="44.0744" lon="5.15454">
        <ele>295.8</ele>
        <time>2012-09-15T11:27:54.000Z</time>
      </trkpt>
      <trkpt lat="44.07432" lon="5.15444">
        <ele>295.9</ele>
        <time>2012-09-15T11:27:55.000Z</time>
      </trkpt>
      <trkpt lat="44.07422" lon="5.15433">
        <ele>295.9</ele>
        <time>2012-09-15T11:27:56.000Z</time>
      </trkpt>
      <trkpt lat="44.07414" lon="5.1542">
        <ele>295.5</ele>
        <time>2012-09-15T11:27:57.000Z</time>
      </trkpt>
      <trkpt lat="44.07407" lon="5.15406">
        <ele>293.6</ele>
        <time>2012-09-15T11:27:58.000Z</time>
      </trkpt>
      <trkpt lat="44.07401" lon="5.15392">
        <ele>292.2</ele>
        <time>2012-09-15T11:27:59.000Z</time>
      </trkpt>
      <trkpt lat="44.07392" lon="5.15376">
        <ele>288.7</ele>
        <time>2012-09-15T11:28:00.000Z</time>
      </trkpt>
      <trkpt lat="44.07384" lon="5.15362">
        <ele>286.6</ele>
        <time>2012-09-15T11:28:01.000Z</time>
      </trkpt>
      <trkpt lat="44.07377" lon="5.15347">
        <ele>285.5</ele>
        <time>2012-09-15T11:28:02.000Z</time>
      </trkpt>
      <trkpt lat="44.0737" lon="5.15332">
        <ele>284.2</ele>
        <time>2012-09-15T11:28:03.000Z</time>
      </trkpt>
      <trkpt lat="44.07363" lon="5.15318">
        <ele>282.8</ele>
        <time>2012-09-15T11:28:04.000Z</time>
      </trkpt>
      <trkpt lat="44.07357" lon="5.15302">
        <ele>281.4</ele>
        <time>2012-09-15T11:28:05.000Z</time>
      </trkpt>
      <trkpt lat="44.07351" lon="5.15287">
        <ele>281.2</ele>
        <time>2012-09-15T11:28:06.000Z</time>
      </trkpt>
      <trkpt lat="44.07344" lon="5.15272">
        <ele>281</ele>
        <time>2012-09-15T11:28:07.000Z</time>
      </trkpt>
      <trkpt lat="44.07338" lon="5.15257">
        <ele>279.7</ele>
        <time>2012-09-15T11:28:08.000Z</time>
      </trkpt>
      <trkpt lat="44.07332" lon="5.15242">
        <ele>279.7</ele>
        <time>2012-09-15T11:28:09.000Z</time>
      </trkpt>
      <trkpt lat="44.07327" lon="5.15229">
        <ele>279.8</ele>
        <time>2012-09-15T11:28:10.000Z</time>
      </trkpt>
      <trkpt lat="44.07321" lon="5.15214">
        <ele>279.4</ele>
        <time>2012-09-15T11:28:11.000Z</time>
      </trkpt>
      <trkpt lat="44.07314" lon="5.152">
        <ele>279.3</ele>
        <time>2012-09-15T11:28:12.000Z</time>
      </trkpt>
      <trkpt lat="44.07308" lon="5.15185">
        <ele>278.6</ele>
        <time>2012-09-15T11:28:13.000Z</time>
      </trkpt>
      <trkpt lat="44.07302" lon="5.1517">
        <ele>278.5</ele>
        <time>2012-09-15T11:28:14.000Z</time>
      </trkpt>
      <trkpt lat="44.07295" lon="5.15156">
        <ele>278.2</ele>
        <time>2012-09-15T11:28:15.000Z</time>
      </trkpt>
      <trkpt lat="44.07288" lon="5.15142">
        <ele>277.5</ele>
        <time>2012-09-15T11:28:16.000Z</time>
      </trkpt>
      <trkpt lat="44.07281" lon="5.15128">
        <ele>277.1</ele>
        <time>2012-09-15T11:28:17.000Z</time>
      </trkpt>
      <trkpt lat="44.07274" lon="5.15114">
        <ele>276.3</ele>
        <time>2012-09-15T11:28:18.000Z</time>
      </trkpt>
      <trkpt lat="44.07266" lon="5.15101">
        <ele>275</ele>
        <time>2012-09-15T11:28:19.000Z</time>
      </trkpt>
      <trkpt lat="44.0726" lon="5.15089">
        <ele>273.5</ele>
        <time>2012-09-15T11:28:20.000Z</time>
      </trkpt>
      <trkpt lat="44.07253" lon="5.15075">
        <ele>272.6</ele>
        <time>2012-09-15T11:28:21.000Z</time>
      </trkpt>
      <trkpt lat="44.07246" lon="5.15061">
        <ele>271.4</ele>
        <time>2012-09-15T11:28:22.000Z</time>
      </trkpt>
      <trkpt lat="44.0724" lon="5.15049">
        <ele>270.9</ele>
        <time>2012-09-15T11:28:23.000Z</time>
      </trkpt>
      <trkpt lat="44.07235" lon="5.15041">
        <ele>270.4</ele>
        <time>2012-09-15T11:28:24.000Z</time>
      </trkpt>
      <trkpt lat="44.07232" lon="5.15034">
        <ele>270</ele>
        <time>2012-09-15T11:28:25.000Z</time>
      </trkpt>
      <trkpt lat="44.07229" lon="5.15028">
        <ele>270</ele>
        <time>2012-09-15T11:28:26.000Z</time>
      </trkpt>
      <trkpt lat="44.07227" lon="5.15024">
        <ele>269.5</ele>
        <time>2012-09-15T11:28:27.000Z</time>
      </trkpt>
      <trkpt lat="44.07225" lon="5.15018">
        <ele>269.4</ele>
        <time>2012-09-15T11:28:29.000Z</time>
      </trkpt>
      <trkpt lat="44.07221" lon="5.15015">
        <ele>268.5</ele>
        <time>2012-09-15T11:28:31.000Z</time>
      </trkpt>
      <trkpt lat="44.07225" lon="5.1502">
        <ele>269.2</ele>
        <time>2012-09-15T11:28:39.000Z</time>
      </trkpt>
      <trkpt lat="44.07227" lon="5.15023">
        <ele>268.9</ele>
        <time>2012-09-15T11:28:40.000Z</time>
      </trkpt>
      <trkpt lat="44.07229" lon="5.15027">
        <ele>268.9</ele>
        <time>2012-09-15T11:28:41.000Z</time>
      </trkpt>
      <trkpt lat="44.07231" lon="5.15031">
        <ele>268.9</ele>
        <time>2012-09-15T11:28:42.000Z</time>
      </trkpt>
      <trkpt lat="44.07234" lon="5.15036">
        <ele>268.8</ele>
        <time>2012-09-15T11:28:43.000Z</time>
      </trkpt>
      <trkpt lat="44.07236" lon="5.15042">
        <ele>268.7</ele>
        <time>2012-09-15T11:28:44.000Z</time>
      </trkpt>
      <trkpt lat="44.07238" lon="5.15046">
        <ele>269</ele>
        <time>2012-09-15T11:28:45.000Z</time>
      </trkpt>
      <trkpt lat="44.07241" lon="5.15051">
        <ele>269</ele>
        <time>2012-09-15T11:28:46.000Z</time>
      </trkpt>
      <trkpt lat="44.07244" lon="5.15056">
        <ele>269.2</ele>
        <time>2012-09-15T11:28:47.000Z</time>
      </trkpt>
      <trkpt lat="44.07246" lon="5.1506">
        <ele>268.8</ele>
        <time>2012-09-15T11:28:48.000Z</time>
      </trkpt>
      <trkpt lat="44.07249" lon="5.15065">
        <ele>268.8</ele>
        <time>2012-09-15T11:28:49.000Z</time>
      </trkpt>
      <trkpt lat="44.0725" lon="5.1507">
        <ele>268.8</ele>
        <time>2012-09-15T11:28:50.000Z</time>
      </trkpt>
      <trkpt lat="44.07251" lon="5.15075">
        <ele>268.7</ele>
        <time>2012-09-15T11:28:51.000Z</time>
      </trkpt>
      <trkpt lat="44.07252" lon="5.1508">
        <ele>268.6</ele>
        <time>2012-09-15T11:28:52.000Z</time>
      </trkpt>
      <trkpt lat="44.07253" lon="5.15087">
        <ele>268.2</ele>
        <time>2012-09-15T11:28:54.000Z</time>
      </trkpt>
      <trkpt lat="44.07253" lon="5.15091">
        <ele>268</ele>
        <time>2012-09-15T11:28:55.000Z</time>
      </trkpt>
      <trkpt lat="44.07252" lon="5.15095">
        <ele>268</ele>
        <time>2012-09-15T11:28:56.000Z</time>
      </trkpt>
      <trkpt lat="44.07252" lon="5.15099">
        <ele>268.2</ele>
        <time>2012-09-15T11:28:57.000Z</time>
      </trkpt>
      <trkpt lat="44.0725" lon="5.15103">
        <ele>268.1</ele>
        <time>2012-09-15T11:28:58.000Z</time>
      </trkpt>
      <trkpt lat="44.07245" lon="5.15102">
        <ele>268</ele>
        <time>2012-09-15T11:28:59.000Z</time>
      </trkpt>
      <trkpt lat="44.07239" lon="5.15103">
        <ele>268.1</ele>
        <time>2012-09-15T11:29:01.000Z</time>
      </trkpt>
      <trkpt lat="44.07237" lon="5.15104">
        <ele>267.8</ele>
        <time>2012-09-15T11:29:02.000Z</time>
      </trkpt>
      <trkpt lat="44.07234" lon="5.15106">
        <ele>267.6</ele>
        <time>2012-09-15T11:29:03.000Z</time>
      </trkpt>
      <trkpt lat="44.07231" lon="5.15107">
        <ele>267.5</ele>
        <time>2012-09-15T11:29:04.000Z</time>
      </trkpt>
      <trkpt lat="44.07228" lon="5.15107">
        <ele>267.5</ele>
        <time>2012-09-15T11:29:05.000Z</time>
      </trkpt>
      <trkpt lat="44.07225" lon="5.15108">
        <ele>267.1</ele>
        <time>2012-09-15T11:29:06.000Z</time>
      </trkpt>
      <trkpt lat="44.07222" lon="5.15109">
        <ele>266.8</ele>
        <time>2012-09-15T11:29:07.000Z</time>
      </trkpt>
      <trkpt lat="44.07219" lon="5.1511">
        <ele>266.8</ele>
        <time>2012-09-15T11:29:08.000Z</time>
      </trkpt>
      <trkpt lat="44.07215" lon="5.15112">
        <ele>266.8</ele>
        <time>2012-09-15T11:29:09.000Z</time>
      </trkpt>
      <trkpt lat="44.07212" lon="5.15114">
        <ele>266.8</ele>
        <time>2012-09-15T11:29:10.000Z</time>
      </trkpt>
      <trkpt lat="44.07208" lon="5.15115">
        <ele>266.4</ele>
        <time>2012-09-15T11:29:11.000Z</time>
      </trkpt>
      <trkpt lat="44.07205" lon="5.15116">
        <ele>266.2</ele>
        <time>2012-09-15T11:29:12.000Z</time>
      </trkpt>
      <trkpt lat="44.07201" lon="5.15118">
        <ele>266</ele>
        <time>2012-09-15T11:29:13.000Z</time>
      </trkpt>
      <trkpt lat="44.07198" lon="5.1512">
        <ele>266</ele>
        <time>2012-09-15T11:29:14.000Z</time>
      </trkpt>
      <trkpt lat="44.07194" lon="5.15122">
        <ele>266.5</ele>
        <time>2012-09-15T11:29:15.000Z</time>
      </trkpt>
      <trkpt lat="44.07191" lon="5.15124">
        <ele>266.5</ele>
        <time>2012-09-15T11:29:16.000Z</time>
      </trkpt>
      <trkpt lat="44.07187" lon="5.15125">
        <ele>266.4</ele>
        <time>2012-09-15T11:29:17.000Z</time>
      </trkpt>
      <trkpt lat="44.07183" lon="5.15126">
        <ele>266.3</ele>
        <time>2012-09-15T11:29:18.000Z</time>
      </trkpt>
      <trkpt lat="44.0718" lon="5.15128">
        <ele>266.3</ele>
        <time>2012-09-15T11:29:19.000Z</time>
      </trkpt>
      <trkpt lat="44.07177" lon="5.15129">
        <ele>267.5</ele>
        <time>2012-09-15T11:29:20.000Z</time>
      </trkpt>
      <trkpt lat="44.07173" lon="5.1513">
        <ele>268.2</ele>
        <time>2012-09-15T11:29:21.000Z</time>
      </trkpt>
      <trkpt lat="44.0717" lon="5.15132">
        <ele>267.5</ele>
        <time>2012-09-15T11:29:22.000Z</time>
      </trkpt>
      <trkpt lat="44.07166" lon="5.15134">
        <ele>266.9</ele>
        <time>2012-09-15T11:29:23.000Z</time>
      </trkpt>
      <trkpt lat="44.07162" lon="5.15135">
        <ele>266.9</ele>
        <time>2012-09-15T11:29:24.000Z</time>
      </trkpt>
      <trkpt lat="44.07159" lon="5.15137">
        <ele>266.8</ele>
        <time>2012-09-15T11:29:25.000Z</time>
      </trkpt>
      <trkpt lat="44.07156" lon="5.1514">
        <ele>267</ele>
        <time>2012-09-15T11:29:26.000Z</time>
      </trkpt>
      <trkpt lat="44.07154" lon="5.15143">
        <ele>266.5</ele>
        <time>2012-09-15T11:29:27.000Z</time>
      </trkpt>
      <trkpt lat="44.07152" lon="5.15146">
        <ele>266</ele>
        <time>2012-09-15T11:29:28.000Z</time>
      </trkpt>
      <trkpt lat="44.07149" lon="5.15148">
        <ele>265.8</ele>
        <time>2012-09-15T11:29:29.000Z</time>
      </trkpt>
      <trkpt lat="44.07145" lon="5.15148">
        <ele>265.6</ele>
        <time>2012-09-15T11:29:30.000Z</time>
      </trkpt>
      <trkpt lat="44.07141" lon="5.15146">
        <ele>265.6</ele>
        <time>2012-09-15T11:29:31.000Z</time>
      </trkpt>
      <trkpt lat="44.07138" lon="5.15145">
        <ele>265.8</ele>
        <time>2012-09-15T11:29:32.000Z</time>
      </trkpt>
      <trkpt lat="44.07135" lon="5.15142">
        <ele>265.9</ele>
        <time>2012-09-15T11:29:33.000Z</time>
      </trkpt>
      <trkpt lat="44.07133" lon="5.15136">
        <ele>265.4</ele>
        <time>2012-09-15T11:29:34.000Z</time>
      </trkpt>
      <trkpt lat="44.0713" lon="5.15132">
        <ele>265.6</ele>
        <time>2012-09-15T11:29:35.000Z</time>
      </trkpt>
      <trkpt lat="44.07127" lon="5.15127">
        <ele>265.5</ele>
        <time>2012-09-15T11:29:36.000Z</time>
      </trkpt>
      <trkpt lat="44.07124" lon="5.15124">
        <ele>265.4</ele>
        <time>2012-09-15T11:29:37.000Z</time>
      </trkpt>
      <trkpt lat="44.07122" lon="5.1512">
        <ele>265.5</ele>
        <time>2012-09-15T11:29:38.000Z</time>
      </trkpt>
      <trkpt lat="44.07119" lon="5.15118">
        <ele>264.8</ele>
        <time>2012-09-15T11:29:39.000Z</time>
      </trkpt>
      <trkpt lat="44.07116" lon="5.15115">
        <ele>264.4</ele>
        <time>2012-09-15T11:29:40.000Z</time>
      </trkpt>
      <trkpt lat="44.07112" lon="5.15113">
        <ele>264.2</ele>
        <time>2012-09-15T11:29:41.000Z</time>
      </trkpt>
      <trkpt lat="44.07109" lon="5.1511">
        <ele>264</ele>
        <time>2012-09-15T11:29:42.000Z</time>
      </trkpt>
      <trkpt lat="44.07106" lon="5.15108">
        <ele>263.6</ele>
        <time>2012-09-15T11:29:43.000Z</time>
      </trkpt>
      <trkpt lat="44.07102" lon="5.15104">
        <ele>263.4</ele>
        <time>2012-09-15T11:29:44.000Z</time>
      </trkpt>
      <trkpt lat="44.07098" lon="5.15101">
        <ele>263.1</ele>
        <time>2012-09-15T11:29:45.000Z</time>
      </trkpt>
      <trkpt lat="44.07094" lon="5.15098">
        <ele>262.9</ele>
        <time>2012-09-15T11:29:46.000Z</time>
      </trkpt>
      <trkpt lat="44.0709" lon="5.15094">
        <ele>262.8</ele>
        <time>2012-09-15T11:29:47.000Z</time>
      </trkpt>
      <trkpt lat="44.07086" lon="5.1509">
        <ele>262.4</ele>
        <time>2012-09-15T11:29:48.000Z</time>
      </trkpt>
      <trkpt lat="44.07082" lon="5.15088">
        <ele>262.3</ele>
        <time>2012-09-15T11:29:49.000Z</time>
      </trkpt>
      <trkpt lat="44.07078" lon="5.15086">
        <ele>262</ele>
        <time>2012-09-15T11:29:50.000Z</time>
      </trkpt>
      <trkpt lat="44.07074" lon="5.15085">
        <ele>261.7</ele>
        <time>2012-09-15T11:29:51.000Z</time>
      </trkpt>
      <trkpt lat="44.0707" lon="5.15086">
        <ele>261</ele>
        <time>2012-09-15T11:29:52.000Z</time>
      </trkpt>
      <trkpt lat="44.07067" lon="5.15086">
        <ele>261.1</ele>
        <time>2012-09-15T11:29:53.000Z</time>
      </trkpt>
      <trkpt lat="44.07064" lon="5.15086">
        <ele>261</ele>
        <time>2012-09-15T11:29:54.000Z</time>
      </trkpt>
      <trkpt lat="44.07059" lon="5.15083">
        <ele>259.9</ele>
        <time>2012-09-15T11:29:56.000Z</time>
      </trkpt>
      <trkpt lat="44.07057" lon="5.1508">
        <ele>259.2</ele>
        <time>2012-09-15T11:29:57.000Z</time>
      </trkpt>
      <trkpt lat="44.07054" lon="5.15076">
        <ele>258.9</ele>
        <time>2012-09-15T11:29:58.000Z</time>
      </trkpt>
      <trkpt lat="44.07051" lon="5.15072">
        <ele>258.7</ele>
        <time>2012-09-15T11:29:59.000Z</time>
      </trkpt>
      <trkpt lat="44.07047" lon="5.15069">
        <ele>258.5</ele>
        <time>2012-09-15T11:30:00.000Z</time>
      </trkpt>
      <trkpt lat="44.07044" lon="5.15066">
        <ele>258.3</ele>
        <time>2012-09-15T11:30:01.000Z</time>
      </trkpt>
      <trkpt lat="44.0704" lon="5.15062">
        <ele>258.1</ele>
        <time>2012-09-15T11:30:02.000Z</time>
      </trkpt>
      <trkpt lat="44.07036" lon="5.15058">
        <ele>257.8</ele>
        <time>2012-09-15T11:30:03.000Z</time>
      </trkpt>
      <trkpt lat="44.07031" lon="5.15054">
        <ele>257.5</ele>
        <time>2012-09-15T11:30:04.000Z</time>
      </trkpt>
      <trkpt lat="44.07026" lon="5.15051">
        <ele>257.3</ele>
        <time>2012-09-15T11:30:05.000Z</time>
      </trkpt>
      <trkpt lat="44.07021" lon="5.15047">
        <ele>257.3</ele>
        <time>2012-09-15T11:30:06.000Z</time>
      </trkpt>
      <trkpt lat="44.07016" lon="5.15043">
        <ele>255.5</ele>
        <time>2012-09-15T11:30:07.000Z</time>
      </trkpt>
      <trkpt lat="44.07011" lon="5.15039">
        <ele>255.2</ele>
        <time>2012-09-15T11:30:08.000Z</time>
      </trkpt>
      <trkpt lat="44.07007" lon="5.15034">
        <ele>254.9</ele>
        <time>2012-09-15T11:30:09.000Z</time>
      </trkpt>
      <trkpt lat="44.07002" lon="5.15029">
        <ele>254.7</ele>
        <time>2012-09-15T11:30:10.000Z</time>
      </trkpt>
      <trkpt lat="44.06998" lon="5.15024">
        <ele>254.8</ele>
        <time>2012-09-15T11:30:11.000Z</time>
      </trkpt>
      <trkpt lat="44.06993" lon="5.1502">
        <ele>254.9</ele>
        <time>2012-09-15T11:30:12.000Z</time>
      </trkpt>
      <trkpt lat="44.06988" lon="5.15015">
        <ele>254.5</ele>
        <time>2012-09-15T11:30:13.000Z</time>
      </trkpt>
      <trkpt lat="44.06982" lon="5.15011">
        <ele>254.4</ele>
        <time>2012-09-15T11:30:14.000Z</time>
      </trkpt>
      <trkpt lat="44.06977" lon="5.15007">
        <ele>254.3</ele>
        <time>2012-09-15T11:30:15.000Z</time>
      </trkpt>
      <trkpt lat="44.06972" lon="5.15003">
        <ele>254.3</ele>
        <time>2012-09-15T11:30:16.000Z</time>
      </trkpt>
      <trkpt lat="44.06966" lon="5.15">
        <ele>254.5</ele>
        <time>2012-09-15T11:30:17.000Z</time>
      </trkpt>
      <trkpt lat="44.06962" lon="5.14998">
        <ele>254.6</ele>
        <time>2012-09-15T11:30:18.000Z</time>
      </trkpt>
      <trkpt lat="44.06958" lon="5.14995">
        <ele>254.7</ele>
        <time>2012-09-15T11:30:19.000Z</time>
      </trkpt>
      <trkpt lat="44.06954" lon="5.14994">
        <ele>255</ele>
        <time>2012-09-15T11:30:20.000Z</time>
      </trkpt>
      <trkpt lat="44.0695" lon="5.14992">
        <ele>254.7</ele>
        <time>2012-09-15T11:30:21.000Z</time>
      </trkpt>
      <trkpt lat="44.06946" lon="5.1499">
        <ele>254.5</ele>
        <time>2012-09-15T11:30:22.000Z</time>
      </trkpt>
      <trkpt lat="44.06943" lon="5.14989">
        <ele>254.7</ele>
        <time>2012-09-15T11:30:23.000Z</time>
      </trkpt>
      <trkpt lat="44.0694" lon="5.14988">
        <ele>254.5</ele>
        <time>2012-09-15T11:30:24.000Z</time>
      </trkpt>
      <trkpt lat="44.06935" lon="5.14986">
        <ele>254.5</ele>
        <time>2012-09-15T11:30:26.000Z</time>
      </trkpt>
      <trkpt lat="44.06932" lon="5.14985">
        <ele>254.3</ele>
        <time>2012-09-15T11:30:27.000Z</time>
      </trkpt>
      <trkpt lat="44.06928" lon="5.14984">
        <ele>254.3</ele>
        <time>2012-09-15T11:30:28.000Z</time>
      </trkpt>
      <trkpt lat="44.06924" lon="5.14981">
        <ele>253.8</ele>
        <time>2012-09-15T11:30:29.000Z</time>
      </trkpt>
      <trkpt lat="44.06919" lon="5.14979">
        <ele>253.9</ele>
        <time>2012-09-15T11:30:30.000Z</time>
      </trkpt>
      <trkpt lat="44.06915" lon="5.14977">
        <ele>253.8</ele>
        <time>2012-09-15T11:30:31.000Z</time>
      </trkpt>
      <trkpt lat="44.0691" lon="5.14974">
        <ele>253.9</ele>
        <time>2012-09-15T11:30:32.000Z</time>
      </trkpt>
      <trkpt lat="44.06906" lon="5.14972">
        <ele>253.9</ele>
        <time>2012-09-15T11:30:33.000Z</time>
      </trkpt>
      <trkpt lat="44.069" lon="5.1497">
        <ele>253.8</ele>
        <time>2012-09-15T11:30:34.000Z</time>
      </trkpt>
      <trkpt lat="44.06895" lon="5.14968">
        <ele>253.7</ele>
        <time>2012-09-15T11:30:35.000Z</time>
      </trkpt>
      <trkpt lat="44.0689" lon="5.14966">
        <ele>253.6</ele>
        <time>2012-09-15T11:30:36.000Z</time>
      </trkpt>
      <trkpt lat="44.06885" lon="5.14964">
        <ele>253.9</ele>
        <time>2012-09-15T11:30:37.000Z</time>
      </trkpt>
      <trkpt lat="44.0688" lon="5.14963">
        <ele>253.8</ele>
        <time>2012-09-15T11:30:38.000Z</time>
      </trkpt>
      <trkpt lat="44.06875" lon="5.14961">
        <ele>253.8</ele>
        <time>2012-09-15T11:30:39.000Z</time>
      </trkpt>
      <trkpt lat="44.0687" lon="5.14959">
        <ele>253.9</ele>
        <time>2012-09-15T11:30:40.000Z</time>
      </trkpt>
      <trkpt lat="44.06865" lon="5.14957">
        <ele>253.8</ele>
        <time>2012-09-15T11:30:41.000Z</time>
      </trkpt>
      <trkpt lat="44.06861" lon="5.14956">
        <ele>253.4</ele>
        <time>2012-09-15T11:30:42.000Z</time>
      </trkpt>
      <trkpt lat="44.06858" lon="5.14954">
        <ele>253.2</ele>
        <time>2012-09-15T11:30:43.000Z</time>
      </trkpt>
      <trkpt lat="44.06854" lon="5.14952">
        <ele>253.1</ele>
        <time>2012-09-15T11:30:44.000Z</time>
      </trkpt>
      <trkpt lat="44.06852" lon="5.14949">
        <ele>252.8</ele>
        <time>2012-09-15T11:30:45.000Z</time>
      </trkpt>
      <trkpt lat="44.0685" lon="5.14941">
        <ele>252.6</ele>
        <time>2012-09-15T11:30:47.000Z</time>
      </trkpt>
      <trkpt lat="44.0685" lon="5.14934">
        <ele>252.7</ele>
        <time>2012-09-15T11:30:48.000Z</time>
      </trkpt>
      <trkpt lat="44.0685" lon="5.14929">
        <ele>252.3</ele>
        <time>2012-09-15T11:30:49.000Z</time>
      </trkpt>
      <trkpt lat="44.06849" lon="5.14923">
        <ele>251.9</ele>
        <time>2012-09-15T11:30:50.000Z</time>
      </trkpt>
      <trkpt lat="44.06848" lon="5.14917">
        <ele>251.6</ele>
        <time>2012-09-15T11:30:51.000Z</time>
      </trkpt>
      <trkpt lat="44.06847" lon="5.14911">
        <ele>251</ele>
        <time>2012-09-15T11:30:52.000Z</time>
      </trkpt>
      <trkpt lat="44.06846" lon="5.14906">
        <ele>251.2</ele>
        <time>2012-09-15T11:30:53.000Z</time>
      </trkpt>
      <trkpt lat="44.06845" lon="5.14899">
        <ele>251.5</ele>
        <time>2012-09-15T11:30:54.000Z</time>
      </trkpt>
      <trkpt lat="44.06842" lon="5.14894">
        <ele>251.6</ele>
        <time>2012-09-15T11:30:55.000Z</time>
      </trkpt>
      <trkpt lat="44.0684" lon="5.14888">
        <ele>251.3</ele>
        <time>2012-09-15T11:30:56.000Z</time>
      </trkpt>
      <trkpt lat="44.06837" lon="5.14884">
        <ele>250.9</ele>
        <time>2012-09-15T11:30:57.000Z</time>
      </trkpt>
      <trkpt lat="44.06832" lon="5.14883">
        <ele>251</ele>
        <time>2012-09-15T11:30:58.000Z</time>
      </trkpt>
      <trkpt lat="44.06828" lon="5.14881">
        <ele>251.6</ele>
        <time>2012-09-15T11:30:59.000Z</time>
      </trkpt>
      <trkpt lat="44.06822" lon="5.14881">
        <ele>251</ele>
        <time>2012-09-15T11:31:00.000Z</time>
      </trkpt>
      <trkpt lat="44.06817" lon="5.1488">
        <ele>250.4</ele>
        <time>2012-09-15T11:31:01.000Z</time>
      </trkpt>
      <trkpt lat="44.06813" lon="5.14879">
        <ele>250.3</ele>
        <time>2012-09-15T11:31:02.000Z</time>
      </trkpt>
      <trkpt lat="44.06808" lon="5.14878">
        <ele>250.1</ele>
        <time>2012-09-15T11:31:03.000Z</time>
      </trkpt>
      <trkpt lat="44.06802" lon="5.14878">
        <ele>250</ele>
        <time>2012-09-15T11:31:04.000Z</time>
      </trkpt>
      <trkpt lat="44.06797" lon="5.14878">
        <ele>250.3</ele>
        <time>2012-09-15T11:31:05.000Z</time>
      </trkpt>
      <trkpt lat="44.06792" lon="5.14878">
        <ele>250.6</ele>
        <time>2012-09-15T11:31:06.000Z</time>
      </trkpt>
      <trkpt lat="44.06787" lon="5.14878">
        <ele>250.5</ele>
        <time>2012-09-15T11:31:07.000Z</time>
      </trkpt>
      <trkpt lat="44.06783" lon="5.14879">
        <ele>250.5</ele>
        <time>2012-09-15T11:31:08.000Z</time>
      </trkpt>
      <trkpt lat="44.06778" lon="5.14879">
        <ele>250.4</ele>
        <time>2012-09-15T11:31:09.000Z</time>
      </trkpt>
      <trkpt lat="44.06773" lon="5.14879">
        <ele>250.5</ele>
        <time>2012-09-15T11:31:10.000Z</time>
      </trkpt>
      <trkpt lat="44.06768" lon="5.14879">
        <ele>250.7</ele>
        <time>2012-09-15T11:31:11.000Z</time>
      </trkpt>
      <trkpt lat="44.06763" lon="5.14879">
        <ele>250.5</ele>
        <time>2012-09-15T11:31:12.000Z</time>
      </trkpt>
      <trkpt lat="44.06758" lon="5.14879">
        <ele>250.7</ele>
        <time>2012-09-15T11:31:13.000Z</time>
      </trkpt>
      <trkpt lat="44.06754" lon="5.14879">
        <ele>250.9</ele>
        <time>2012-09-15T11:31:14.000Z</time>
      </trkpt>
      <trkpt lat="44.06749" lon="5.14879">
        <ele>251.1</ele>
        <time>2012-09-15T11:31:15.000Z</time>
      </trkpt>
      <trkpt lat="44.06745" lon="5.14879">
        <ele>251.1</ele>
        <time>2012-09-15T11:31:16.000Z</time>
      </trkpt>
      <trkpt lat="44.0674" lon="5.14879">
        <ele>251.1</ele>
        <time>2012-09-15T11:31:17.000Z</time>
      </trkpt>
      <trkpt lat="44.06735" lon="5.14879">
        <ele>251.1</ele>
        <time>2012-09-15T11:31:18.000Z</time>
      </trkpt>
      <trkpt lat="44.0673" lon="5.14879">
        <ele>251.1</ele>
        <time>2012-09-15T11:31:19.000Z</time>
      </trkpt>
      <trkpt lat="44.06726" lon="5.14879">
        <ele>251.1</ele>
        <time>2012-09-15T11:31:20.000Z</time>
      </trkpt>
      <trkpt lat="44.06721" lon="5.14879">
        <ele>250.9</ele>
        <time>2012-09-15T11:31:21.000Z</time>
      </trkpt>
      <trkpt lat="44.06716" lon="5.14878">
        <ele>250.6</ele>
        <time>2012-09-15T11:31:22.000Z</time>
      </trkpt>
      <trkpt lat="44.06711" lon="5.14878">
        <ele>250.3</ele>
        <time>2012-09-15T11:31:23.000Z</time>
      </trkpt>
      <trkpt lat="44.06707" lon="5.14878">
        <ele>250.1</ele>
        <time>2012-09-15T11:31:24.000Z</time>
      </trkpt>
      <trkpt lat="44.06702" lon="5.14877">
        <ele>250</ele>
        <time>2012-09-15T11:31:25.000Z</time>
      </trkpt>
      <trkpt lat="44.06697" lon="5.14877">
        <ele>249.8</ele>
        <time>2012-09-15T11:31:26.000Z</time>
      </trkpt>
      <trkpt lat="44.06692" lon="5.14876">
        <ele>249.8</ele>
        <time>2012-09-15T11:31:27.000Z</time>
      </trkpt>
      <trkpt lat="44.06686" lon="5.14875">
        <ele>249.4</ele>
        <time>2012-09-15T11:31:28.000Z</time>
      </trkpt>
      <trkpt lat="44.06681" lon="5.14874">
        <ele>249.6</ele>
        <time>2012-09-15T11:31:29.000Z</time>
      </trkpt>
      <trkpt lat="44.06675" lon="5.14874">
        <ele>249.1</ele>
        <time>2012-09-15T11:31:30.000Z</time>
      </trkpt>
      <trkpt lat="44.06669" lon="5.14874">
        <ele>249</ele>
        <time>2012-09-15T11:31:31.000Z</time>
      </trkpt>
      <trkpt lat="44.06664" lon="5.14873">
        <ele>248.5</ele>
        <time>2012-09-15T11:31:32.000Z</time>
      </trkpt>
      <trkpt lat="44.06658" lon="5.14874">
        <ele>248</ele>
        <time>2012-09-15T11:31:33.000Z</time>
      </trkpt>
      <trkpt lat="44.06652" lon="5.14873">
        <ele>247.4</ele>
        <time>2012-09-15T11:31:34.000Z</time>
      </trkpt>
      <trkpt lat="44.06645" lon="5.14873">
        <ele>246.8</ele>
        <time>2012-09-15T11:31:35.000Z</time>
      </trkpt>
      <trkpt lat="44.06639" lon="5.14872">
        <ele>246.4</ele>
        <time>2012-09-15T11:31:36.000Z</time>
      </trkpt>
      <trkpt lat="44.06633" lon="5.14872">
        <ele>246</ele>
        <time>2012-09-15T11:31:37.000Z</time>
      </trkpt>
      <trkpt lat="44.06627" lon="5.1487">
        <ele>245.4</ele>
        <time>2012-09-15T11:31:38.000Z</time>
      </trkpt>
      <trkpt lat="44.06622" lon="5.14866">
        <ele>245.2</ele>
        <time>2012-09-15T11:31:39.000Z</time>
      </trkpt>
      <trkpt lat="44.06617" lon="5.14863">
        <ele>244.8</ele>
        <time>2012-09-15T11:31:40.000Z</time>
      </trkpt>
      <trkpt lat="44.06613" lon="5.14858">
        <ele>244.6</ele>
        <time>2012-09-15T11:31:41.000Z</time>
      </trkpt>
      <trkpt lat="44.06607" lon="5.14853">
        <ele>243.6</ele>
        <time>2012-09-15T11:31:42.000Z</time>
      </trkpt>
      <trkpt lat="44.06602" lon="5.14848">
        <ele>243</ele>
        <time>2012-09-15T11:31:43.000Z</time>
      </trkpt>
      <trkpt lat="44.06597" lon="5.14843">
        <ele>242.7</ele>
        <time>2012-09-15T11:31:44.000Z</time>
      </trkpt>
      <trkpt lat="44.06591" lon="5.14838">
        <ele>242.3</ele>
        <time>2012-09-15T11:31:45.000Z</time>
      </trkpt>
      <trkpt lat="44.06586" lon="5.14832">
        <ele>241.8</ele>
        <time>2012-09-15T11:31:46.000Z</time>
      </trkpt>
      <trkpt lat="44.06581" lon="5.14825">
        <ele>241.9</ele>
        <time>2012-09-15T11:31:47.000Z</time>
      </trkpt>
      <trkpt lat="44.06575" lon="5.14819">
        <ele>241.3</ele>
        <time>2012-09-15T11:31:48.000Z</time>
      </trkpt>
      <trkpt lat="44.0657" lon="5.14814">
        <ele>241</ele>
        <time>2012-09-15T11:31:49.000Z</time>
      </trkpt>
      <trkpt lat="44.06565" lon="5.14808">
        <ele>240.8</ele>
        <time>2012-09-15T11:31:50.000Z</time>
      </trkpt>
      <trkpt lat="44.0656" lon="5.14801">
        <ele>240.7</ele>
        <time>2012-09-15T11:31:51.000Z</time>
      </trkpt>
      <trkpt lat="44.06555" lon="5.14795">
        <ele>240.7</ele>
        <time>2012-09-15T11:31:52.000Z</time>
      </trkpt>
      <trkpt lat="44.06551" lon="5.14787">
        <ele>240.5</ele>
        <time>2012-09-15T11:31:53.000Z</time>
      </trkpt>
      <trkpt lat="44.06547" lon="5.14778">
        <ele>240.5</ele>
        <time>2012-09-15T11:31:54.000Z</time>
      </trkpt>
      <trkpt lat="44.06542" lon="5.14769">
        <ele>240.3</ele>
        <time>2012-09-15T11:31:55.000Z</time>
      </trkpt>
      <trkpt lat="44.06537" lon="5.1476">
        <ele>240</ele>
        <time>2012-09-15T11:31:56.000Z</time>
      </trkpt>
      <trkpt lat="44.06532" lon="5.14752">
        <ele>239.9</ele>
        <time>2012-09-15T11:31:57.000Z</time>
      </trkpt>
      <trkpt lat="44.06528" lon="5.14743">
        <ele>239.6</ele>
        <time>2012-09-15T11:31:58.000Z</time>
      </trkpt>
      <trkpt lat="44.06522" lon="5.14734">
        <ele>239.4</ele>
        <time>2012-09-15T11:31:59.000Z</time>
      </trkpt>
      <trkpt lat="44.06518" lon="5.14728">
        <ele>239.6</ele>
        <time>2012-09-15T11:32:00.000Z</time>
      </trkpt>
      <trkpt lat="44.06512" lon="5.14722">
        <ele>239.6</ele>
        <time>2012-09-15T11:32:01.000Z</time>
      </trkpt>
      <trkpt lat="44.06504" lon="5.14715">
        <ele>239.4</ele>
        <time>2012-09-15T11:32:02.000Z</time>
      </trkpt>
      <trkpt lat="44.06498" lon="5.14709">
        <ele>239.3</ele>
        <time>2012-09-15T11:32:03.000Z</time>
      </trkpt>
      <trkpt lat="44.06493" lon="5.14704">
        <ele>238.9</ele>
        <time>2012-09-15T11:32:04.000Z</time>
      </trkpt>
      <trkpt lat="44.06488" lon="5.14698">
        <ele>238.9</ele>
        <time>2012-09-15T11:32:05.000Z</time>
      </trkpt>
      <trkpt lat="44.06482" lon="5.14692">
        <ele>238.7</ele>
        <time>2012-09-15T11:32:06.000Z</time>
      </trkpt>
      <trkpt lat="44.06475" lon="5.14686">
        <ele>238.9</ele>
        <time>2012-09-15T11:32:07.000Z</time>
      </trkpt>
      <trkpt lat="44.0647" lon="5.14681">
        <ele>238.9</ele>
        <time>2012-09-15T11:32:08.000Z</time>
      </trkpt>
      <trkpt lat="44.06464" lon="5.14676">
        <ele>238.9</ele>
        <time>2012-09-15T11:32:09.000Z</time>
      </trkpt>
      <trkpt lat="44.06456" lon="5.14672">
        <ele>238.7</ele>
        <time>2012-09-15T11:32:10.000Z</time>
      </trkpt>
      <trkpt lat="44.06449" lon="5.14669">
        <ele>238.6</ele>
        <time>2012-09-15T11:32:11.000Z</time>
      </trkpt>
      <trkpt lat="44.06441" lon="5.14666">
        <ele>238.7</ele>
        <time>2012-09-15T11:32:12.000Z</time>
      </trkpt>
      <trkpt lat="44.06435" lon="5.14664">
        <ele>238.4</ele>
        <time>2012-09-15T11:32:13.000Z</time>
      </trkpt>
      <trkpt lat="44.06429" lon="5.14662">
        <ele>238.4</ele>
        <time>2012-09-15T11:32:14.000Z</time>
      </trkpt>
      <trkpt lat="44.06423" lon="5.1466">
        <ele>238.1</ele>
        <time>2012-09-15T11:32:15.000Z</time>
      </trkpt>
      <trkpt lat="44.06416" lon="5.14658">
        <ele>238.2</ele>
        <time>2012-09-15T11:32:16.000Z</time>
      </trkpt>
      <trkpt lat="44.06409" lon="5.14656">
        <ele>237.8</ele>
        <time>2012-09-15T11:32:17.000Z</time>
      </trkpt>
      <trkpt lat="44.06403" lon="5.14655">
        <ele>237.8</ele>
        <time>2012-09-15T11:32:18.000Z</time>
      </trkpt>
      <trkpt lat="44.06396" lon="5.14652">
        <ele>236.7</ele>
        <time>2012-09-15T11:32:19.000Z</time>
      </trkpt>
      <trkpt lat="44.0639" lon="5.1465">
        <ele>236.4</ele>
        <time>2012-09-15T11:32:20.000Z</time>
      </trkpt>
      <trkpt lat="44.06383" lon="5.14648">
        <ele>236.1</ele>
        <time>2012-09-15T11:32:21.000Z</time>
      </trkpt>
      <trkpt lat="44.06377" lon="5.14646">
        <ele>236.1</ele>
        <time>2012-09-15T11:32:22.000Z</time>
      </trkpt>
      <trkpt lat="44.0637" lon="5.14643">
        <ele>236.3</ele>
        <time>2012-09-15T11:32:23.000Z</time>
      </trkpt>
      <trkpt lat="44.06365" lon="5.14642">
        <ele>236</ele>
        <time>2012-09-15T11:32:24.000Z</time>
      </trkpt>
      <trkpt lat="44.06359" lon="5.1464">
        <ele>235.7</ele>
        <time>2012-09-15T11:32:25.000Z</time>
      </trkpt>
      <trkpt lat="44.06354" lon="5.14638">
        <ele>235.9</ele>
        <time>2012-09-15T11:32:26.000Z</time>
      </trkpt>
      <trkpt lat="44.06348" lon="5.14636">
        <ele>235.8</ele>
        <time>2012-09-15T11:32:27.000Z</time>
      </trkpt>
      <trkpt lat="44.06342" lon="5.14634">
        <ele>236.1</ele>
        <time>2012-09-15T11:32:28.000Z</time>
      </trkpt>
      <trkpt lat="44.06336" lon="5.14633">
        <ele>235</ele>
        <time>2012-09-15T11:32:29.000Z</time>
      </trkpt>
      <trkpt lat="44.0633" lon="5.14631">
        <ele>234.7</ele>
        <time>2012-09-15T11:32:30.000Z</time>
      </trkpt>
      <trkpt lat="44.06324" lon="5.14628">
        <ele>234.4</ele>
        <time>2012-09-15T11:32:31.000Z</time>
      </trkpt>
      <trkpt lat="44.06318" lon="5.14626">
        <ele>234.5</ele>
        <time>2012-09-15T11:32:32.000Z</time>
      </trkpt>
      <trkpt lat="44.06312" lon="5.14624">
        <ele>234.6</ele>
        <time>2012-09-15T11:32:33.000Z</time>
      </trkpt>
      <trkpt lat="44.06306" lon="5.14621">
        <ele>234.6</ele>
        <time>2012-09-15T11:32:34.000Z</time>
      </trkpt>
      <trkpt lat="44.063" lon="5.14619">
        <ele>232.7</ele>
        <time>2012-09-15T11:32:35.000Z</time>
      </trkpt>
      <trkpt lat="44.06295" lon="5.14618">
        <ele>232.9</ele>
        <time>2012-09-15T11:32:36.000Z</time>
      </trkpt>
      <trkpt lat="44.06289" lon="5.14616">
        <ele>233.1</ele>
        <time>2012-09-15T11:32:37.000Z</time>
      </trkpt>
      <trkpt lat="44.06283" lon="5.14614">
        <ele>232.5</ele>
        <time>2012-09-15T11:32:38.000Z</time>
      </trkpt>
      <trkpt lat="44.06277" lon="5.14612">
        <ele>232.6</ele>
        <time>2012-09-15T11:32:39.000Z</time>
      </trkpt>
      <trkpt lat="44.06271" lon="5.14611">
        <ele>232.2</ele>
        <time>2012-09-15T11:32:40.000Z</time>
      </trkpt>
      <trkpt lat="44.06266" lon="5.14609">
        <ele>231.8</ele>
        <time>2012-09-15T11:32:41.000Z</time>
      </trkpt>
      <trkpt lat="44.0626" lon="5.14606">
        <ele>231.8</ele>
        <time>2012-09-15T11:32:42.000Z</time>
      </trkpt>
      <trkpt lat="44.06254" lon="5.14604">
        <ele>231.8</ele>
        <time>2012-09-15T11:32:43.000Z</time>
      </trkpt>
      <trkpt lat="44.06249" lon="5.14603">
        <ele>232</ele>
        <time>2012-09-15T11:32:44.000Z</time>
      </trkpt>
      <trkpt lat="44.06244" lon="5.14602">
        <ele>231.9</ele>
        <time>2012-09-15T11:32:45.000Z</time>
      </trkpt>
      <trkpt lat="44.0624" lon="5.14601">
        <ele>232.2</ele>
        <time>2012-09-15T11:32:46.000Z</time>
      </trkpt>
      <trkpt lat="44.06235" lon="5.14598">
        <ele>232.2</ele>
        <time>2012-09-15T11:32:47.000Z</time>
      </trkpt>
      <trkpt lat="44.06228" lon="5.14597">
        <ele>231.7</ele>
        <time>2012-09-15T11:32:48.000Z</time>
      </trkpt>
      <trkpt lat="44.06222" lon="5.14596">
        <ele>231.4</ele>
        <time>2012-09-15T11:32:49.000Z</time>
      </trkpt>
      <trkpt lat="44.06217" lon="5.14594">
        <ele>231.2</ele>
        <time>2012-09-15T11:32:50.000Z</time>
      </trkpt>
      <trkpt lat="44.06213" lon="5.14593">
        <ele>231.3</ele>
        <time>2012-09-15T11:32:51.000Z</time>
      </trkpt>
      <trkpt lat="44.0621" lon="5.14591">
        <ele>231.4</ele>
        <time>2012-09-15T11:32:52.000Z</time>
      </trkpt>
      <trkpt lat="44.06207" lon="5.1459">
        <ele>231.2</ele>
        <time>2012-09-15T11:32:53.000Z</time>
      </trkpt>
      <trkpt lat="44.06203" lon="5.14588">
        <ele>231.5</ele>
        <time>2012-09-15T11:32:55.000Z</time>
      </trkpt>
      <trkpt lat="44.06199" lon="5.14584">
        <ele>231.6</ele>
        <time>2012-09-15T11:32:57.000Z</time>
      </trkpt>
      <trkpt lat="44.06196" lon="5.14579">
        <ele>231.3</ele>
        <time>2012-09-15T11:32:59.000Z</time>
      </trkpt>
      <trkpt lat="44.06194" lon="5.14576">
        <ele>232</ele>
        <time>2012-09-15T11:33:01.000Z</time>
      </trkpt>
      <trkpt lat="44.06191" lon="5.1457">
        <ele>231.6</ele>
        <time>2012-09-15T11:33:03.000Z</time>
      </trkpt>
      <trkpt lat="44.0619" lon="5.14565">
        <ele>230.6</ele>
        <time>2012-09-15T11:33:05.000Z</time>
      </trkpt>
      <trkpt lat="44.06187" lon="5.14558">
        <ele>229.9</ele>
        <time>2012-09-15T11:33:07.000Z</time>
      </trkpt>
      <trkpt lat="44.06186" lon="5.14553">
        <ele>229.5</ele>
        <time>2012-09-15T11:33:08.000Z</time>
      </trkpt>
      <trkpt lat="44.06185" lon="5.14549">
        <ele>229.5</ele>
        <time>2012-09-15T11:33:09.000Z</time>
      </trkpt>
      <trkpt lat="44.06184" lon="5.14545">
        <ele>229.2</ele>
        <time>2012-09-15T11:33:10.000Z</time>
      </trkpt>
      <trkpt lat="44.06181" lon="5.1454">
        <ele>228.4</ele>
        <time>2012-09-15T11:33:11.000Z</time>
      </trkpt>
      <trkpt lat="44.06179" lon="5.14536">
        <ele>228.3</ele>
        <time>2012-09-15T11:33:12.000Z</time>
      </trkpt>
      <trkpt lat="44.06177" lon="5.14532">
        <ele>228.1</ele>
        <time>2012-09-15T11:33:13.000Z</time>
      </trkpt>
      <trkpt lat="44.06175" lon="5.14528">
        <ele>227.4</ele>
        <time>2012-09-15T11:33:14.000Z</time>
      </trkpt>
      <trkpt lat="44.06173" lon="5.14523">
        <ele>228</ele>
        <time>2012-09-15T11:33:15.000Z</time>
      </trkpt>
      <trkpt lat="44.06172" lon="5.14519">
        <ele>228.1</ele>
        <time>2012-09-15T11:33:16.000Z</time>
      </trkpt>
      <trkpt lat="44.06171" lon="5.14514">
        <ele>228.1</ele>
        <time>2012-09-15T11:33:17.000Z</time>
      </trkpt>
      <trkpt lat="44.0617" lon="5.14509">
        <ele>227.8</ele>
        <time>2012-09-15T11:33:18.000Z</time>
      </trkpt>
      <trkpt lat="44.06167" lon="5.14504">
        <ele>227.9</ele>
        <time>2012-09-15T11:33:19.000Z</time>
      </trkpt>
      <trkpt lat="44.06164" lon="5.145">
        <ele>227.8</ele>
        <time>2012-09-15T11:33:20.000Z</time>
      </trkpt>
      <trkpt lat="44.06163" lon="5.14495">
        <ele>227.5</ele>
        <time>2012-09-15T11:33:21.000Z</time>
      </trkpt>
      <trkpt lat="44.06161" lon="5.1449">
        <ele>226.8</ele>
        <time>2012-09-15T11:33:22.000Z</time>
      </trkpt>
      <trkpt lat="44.06159" lon="5.14484">
        <ele>226.5</ele>
        <time>2012-09-15T11:33:23.000Z</time>
      </trkpt>
      <trkpt lat="44.06156" lon="5.14479">
        <ele>226.5</ele>
        <time>2012-09-15T11:33:24.000Z</time>
      </trkpt>
      <trkpt lat="44.06154" lon="5.14472">
        <ele>226.7</ele>
        <time>2012-09-15T11:33:25.000Z</time>
      </trkpt>
      <trkpt lat="44.06153" lon="5.14466">
        <ele>226.9</ele>
        <time>2012-09-15T11:33:26.000Z</time>
      </trkpt>
      <trkpt lat="44.06151" lon="5.14458">
        <ele>226.9</ele>
        <time>2012-09-15T11:33:27.000Z</time>
      </trkpt>
      <trkpt lat="44.06149" lon="5.14451">
        <ele>226.8</ele>
        <time>2012-09-15T11:33:28.000Z</time>
      </trkpt>
      <trkpt lat="44.06147" lon="5.14445">
        <ele>226.9</ele>
        <time>2012-09-15T11:33:29.000Z</time>
      </trkpt>
      <trkpt lat="44.06145" lon="5.14438">
        <ele>226.7</ele>
        <time>2012-09-15T11:33:30.000Z</time>
      </trkpt>
      <trkpt lat="44.06143" lon="5.14431">
        <ele>226.9</ele>
        <time>2012-09-15T11:33:31.000Z</time>
      </trkpt>
      <trkpt lat="44.0614" lon="5.14425">
        <ele>226.7</ele>
        <time>2012-09-15T11:33:32.000Z</time>
      </trkpt>
      <trkpt lat="44.06138" lon="5.14418">
        <ele>226.6</ele>
        <time>2012-09-15T11:33:33.000Z</time>
      </trkpt>
      <trkpt lat="44.06136" lon="5.14414">
        <ele>227.1</ele>
        <time>2012-09-15T11:33:34.000Z</time>
      </trkpt>
      <trkpt lat="44.06134" lon="5.14407">
        <ele>226.8</ele>
        <time>2012-09-15T11:33:35.000Z</time>
      </trkpt>
      <trkpt lat="44.06133" lon="5.144">
        <ele>226.7</ele>
        <time>2012-09-15T11:33:36.000Z</time>
      </trkpt>
      <trkpt lat="44.0613" lon="5.14393">
        <ele>226.6</ele>
        <time>2012-09-15T11:33:37.000Z</time>
      </trkpt>
      <trkpt lat="44.06128" lon="5.14385">
        <ele>226.6</ele>
        <time>2012-09-15T11:33:38.000Z</time>
      </trkpt>
      <trkpt lat="44.06126" lon="5.14378">
        <ele>227</ele>
        <time>2012-09-15T11:33:39.000Z</time>
      </trkpt>
      <trkpt lat="44.06124" lon="5.14372">
        <ele>226.9</ele>
        <time>2012-09-15T11:33:40.000Z</time>
      </trkpt>
      <trkpt lat="44.06121" lon="5.14365">
        <ele>226.9</ele>
        <time>2012-09-15T11:33:41.000Z</time>
      </trkpt>
      <trkpt lat="44.06119" lon="5.14357">
        <ele>227.3</ele>
        <time>2012-09-15T11:33:42.000Z</time>
      </trkpt>
      <trkpt lat="44.06117" lon="5.1435">
        <ele>227.3</ele>
        <time>2012-09-15T11:33:43.000Z</time>
      </trkpt>
      <trkpt lat="44.06114" lon="5.14341">
        <ele>227.5</ele>
        <time>2012-09-15T11:33:44.000Z</time>
      </trkpt>
      <trkpt lat="44.06112" lon="5.14333">
        <ele>227.5</ele>
        <time>2012-09-15T11:33:45.000Z</time>
      </trkpt>
      <trkpt lat="44.06108" lon="5.14327">
        <ele>227.4</ele>
        <time>2012-09-15T11:33:46.000Z</time>
      </trkpt>
      <trkpt lat="44.06106" lon="5.14319">
        <ele>227.4</ele>
        <time>2012-09-15T11:33:47.000Z</time>
      </trkpt>
      <trkpt lat="44.06102" lon="5.14311">
        <ele>227.1</ele>
        <time>2012-09-15T11:33:48.000Z</time>
      </trkpt>
      <trkpt lat="44.06098" lon="5.14303">
        <ele>226.9</ele>
        <time>2012-09-15T11:33:49.000Z</time>
      </trkpt>
      <trkpt lat="44.06096" lon="5.14295">
        <ele>226.3</ele>
        <time>2012-09-15T11:33:50.000Z</time>
      </trkpt>
      <trkpt lat="44.06093" lon="5.14288">
        <ele>225.7</ele>
        <time>2012-09-15T11:33:51.000Z</time>
      </trkpt>
      <trkpt lat="44.0609" lon="5.14281">
        <ele>225.4</ele>
        <time>2012-09-15T11:33:52.000Z</time>
      </trkpt>
      <trkpt lat="44.06088" lon="5.14273">
        <ele>225.4</ele>
        <time>2012-09-15T11:33:53.000Z</time>
      </trkpt>
      <trkpt lat="44.06086" lon="5.14264">
        <ele>225.3</ele>
        <time>2012-09-15T11:33:54.000Z</time>
      </trkpt>
      <trkpt lat="44.06083" lon="5.14256">
        <ele>224.7</ele>
        <time>2012-09-15T11:33:55.000Z</time>
      </trkpt>
      <trkpt lat="44.06081" lon="5.14248">
        <ele>224.3</ele>
        <time>2012-09-15T11:33:56.000Z</time>
      </trkpt>
      <trkpt lat="44.06079" lon="5.1424">
        <ele>223.9</ele>
        <time>2012-09-15T11:33:57.000Z</time>
      </trkpt>
      <trkpt lat="44.06076" lon="5.14232">
        <ele>223.7</ele>
        <time>2012-09-15T11:33:58.000Z</time>
      </trkpt>
      <trkpt lat="44.06075" lon="5.14224">
        <ele>223.4</ele>
        <time>2012-09-15T11:33:59.000Z</time>
      </trkpt>
      <trkpt lat="44.06072" lon="5.14216">
        <ele>223</ele>
        <time>2012-09-15T11:34:00.000Z</time>
      </trkpt>
      <trkpt lat="44.06068" lon="5.14209">
        <ele>223.3</ele>
        <time>2012-09-15T11:34:01.000Z</time>
      </trkpt>
      <trkpt lat="44.06066" lon="5.14201">
        <ele>223.5</ele>
        <time>2012-09-15T11:34:02.000Z</time>
      </trkpt>
      <trkpt lat="44.06064" lon="5.14192">
        <ele>223.1</ele>
        <time>2012-09-15T11:34:03.000Z</time>
      </trkpt>
      <trkpt lat="44.0606" lon="5.14186">
        <ele>222.8</ele>
        <time>2012-09-15T11:34:04.000Z</time>
      </trkpt>
      <trkpt lat="44.06057" lon="5.14177">
        <ele>222.9</ele>
        <time>2012-09-15T11:34:05.000Z</time>
      </trkpt>
      <trkpt lat="44.06056" lon="5.1417">
        <ele>223.2</ele>
        <time>2012-09-15T11:34:06.000Z</time>
      </trkpt>
      <trkpt lat="44.06054" lon="5.14162">
        <ele>223.2</ele>
        <time>2012-09-15T11:34:07.000Z</time>
      </trkpt>
      <trkpt lat="44.06051" lon="5.14155">
        <ele>223.1</ele>
        <time>2012-09-15T11:34:08.000Z</time>
      </trkpt>
      <trkpt lat="44.06048" lon="5.14147">
        <ele>222.9</ele>
        <time>2012-09-15T11:34:09.000Z</time>
      </trkpt>
      <trkpt lat="44.06046" lon="5.14139">
        <ele>223.1</ele>
        <time>2012-09-15T11:34:10.000Z</time>
      </trkpt>
      <trkpt lat="44.06044" lon="5.1413">
        <ele>223.4</ele>
        <time>2012-09-15T11:34:11.000Z</time>
      </trkpt>
      <trkpt lat="44.0604" lon="5.14121">
        <ele>222.8</ele>
        <time>2012-09-15T11:34:12.000Z</time>
      </trkpt>
      <trkpt lat="44.06037" lon="5.14113">
        <ele>222.2</ele>
        <time>2012-09-15T11:34:13.000Z</time>
      </trkpt>
      <trkpt lat="44.06035" lon="5.14105">
        <ele>222.2</ele>
        <time>2012-09-15T11:34:14.000Z</time>
      </trkpt>
      <trkpt lat="44.06032" lon="5.14097">
        <ele>222</ele>
        <time>2012-09-15T11:34:15.000Z</time>
      </trkpt>
      <trkpt lat="44.06029" lon="5.1409">
        <ele>221.8</ele>
        <time>2012-09-15T11:34:16.000Z</time>
      </trkpt>
      <trkpt lat="44.06029" lon="5.14081">
        <ele>222.2</ele>
        <time>2012-09-15T11:34:17.000Z</time>
      </trkpt>
      <trkpt lat="44.06026" lon="5.14074">
        <ele>221.9</ele>
        <time>2012-09-15T11:34:18.000Z</time>
      </trkpt>
      <trkpt lat="44.06023" lon="5.14066">
        <ele>222</ele>
        <time>2012-09-15T11:34:19.000Z</time>
      </trkpt>
      <trkpt lat="44.06021" lon="5.14059">
        <ele>222.1</ele>
        <time>2012-09-15T11:34:20.000Z</time>
      </trkpt>
      <trkpt lat="44.06018" lon="5.14052">
        <ele>222.4</ele>
        <time>2012-09-15T11:34:21.000Z</time>
      </trkpt>
      <trkpt lat="44.06015" lon="5.14044">
        <ele>222.8</ele>
        <time>2012-09-15T11:34:22.000Z</time>
      </trkpt>
      <trkpt lat="44.06013" lon="5.14036">
        <ele>222.7</ele>
        <time>2012-09-15T11:34:23.000Z</time>
      </trkpt>
      <trkpt lat="44.06009" lon="5.14027">
        <ele>222.6</ele>
        <time>2012-09-15T11:34:24.000Z</time>
      </trkpt>
      <trkpt lat="44.06006" lon="5.1402">
        <ele>222.1</ele>
        <time>2012-09-15T11:34:25.000Z</time>
      </trkpt>
      <trkpt lat="44.06003" lon="5.14013">
        <ele>222.2</ele>
        <time>2012-09-15T11:34:26.000Z</time>
      </trkpt>
      <trkpt lat="44.06001" lon="5.14006">
        <ele>222</ele>
        <time>2012-09-15T11:34:27.000Z</time>
      </trkpt>
      <trkpt lat="44.05998" lon="5.13998">
        <ele>221.9</ele>
        <time>2012-09-15T11:34:28.000Z</time>
      </trkpt>
      <trkpt lat="44.05996" lon="5.1399">
        <ele>221.9</ele>
        <time>2012-09-15T11:34:29.000Z</time>
      </trkpt>
      <trkpt lat="44.05993" lon="5.13983">
        <ele>222</ele>
        <time>2012-09-15T11:34:30.000Z</time>
      </trkpt>
      <trkpt lat="44.0599" lon="5.13975">
        <ele>222</ele>
        <time>2012-09-15T11:34:31.000Z</time>
      </trkpt>
      <trkpt lat="44.05986" lon="5.13968">
        <ele>222</ele>
        <time>2012-09-15T11:34:32.000Z</time>
      </trkpt>
      <trkpt lat="44.05983" lon="5.13959">
        <ele>221.4</ele>
        <time>2012-09-15T11:34:33.000Z</time>
      </trkpt>
      <trkpt lat="44.05978" lon="5.13953">
        <ele>221.2</ele>
        <time>2012-09-15T11:34:34.000Z</time>
      </trkpt>
      <trkpt lat="44.05974" lon="5.13944">
        <ele>220.9</ele>
        <time>2012-09-15T11:34:35.000Z</time>
      </trkpt>
      <trkpt lat="44.05971" lon="5.13935">
        <ele>220.9</ele>
        <time>2012-09-15T11:34:36.000Z</time>
      </trkpt>
      <trkpt lat="44.05969" lon="5.13926">
        <ele>221.2</ele>
        <time>2012-09-15T11:34:37.000Z</time>
      </trkpt>
      <trkpt lat="44.05966" lon="5.13918">
        <ele>221.5</ele>
        <time>2012-09-15T11:34:38.000Z</time>
      </trkpt>
      <trkpt lat="44.05964" lon="5.13911">
        <ele>221.2</ele>
        <time>2012-09-15T11:34:39.000Z</time>
      </trkpt>
      <trkpt lat="44.05962" lon="5.13904">
        <ele>221</ele>
        <time>2012-09-15T11:34:40.000Z</time>
      </trkpt>
      <trkpt lat="44.05958" lon="5.13897">
        <ele>220.4</ele>
        <time>2012-09-15T11:34:41.000Z</time>
      </trkpt>
      <trkpt lat="44.05956" lon="5.13888">
        <ele>220.2</ele>
        <time>2012-09-15T11:34:42.000Z</time>
      </trkpt>
      <trkpt lat="44.05952" lon="5.1388">
        <ele>220</ele>
        <time>2012-09-15T11:34:43.000Z</time>
      </trkpt>
      <trkpt lat="44.05948" lon="5.13872">
        <ele>220</ele>
        <time>2012-09-15T11:34:44.000Z</time>
      </trkpt>
      <trkpt lat="44.05946" lon="5.13864">
        <ele>220</ele>
        <time>2012-09-15T11:34:45.000Z</time>
      </trkpt>
      <trkpt lat="44.05943" lon="5.13857">
        <ele>220.1</ele>
        <time>2012-09-15T11:34:46.000Z</time>
      </trkpt>
      <trkpt lat="44.05939" lon="5.1385">
        <ele>220.2</ele>
        <time>2012-09-15T11:34:47.000Z</time>
      </trkpt>
      <trkpt lat="44.05935" lon="5.1384">
        <ele>219.3</ele>
        <time>2012-09-15T11:34:48.000Z</time>
      </trkpt>
      <trkpt lat="44.05931" lon="5.13832">
        <ele>219</ele>
        <time>2012-09-15T11:34:49.000Z</time>
      </trkpt>
      <trkpt lat="44.05928" lon="5.13824">
        <ele>218.9</ele>
        <time>2012-09-15T11:34:50.000Z</time>
      </trkpt>
      <trkpt lat="44.05924" lon="5.13816">
        <ele>218.3</ele>
        <time>2012-09-15T11:34:51.000Z</time>
      </trkpt>
      <trkpt lat="44.05922" lon="5.13809">
        <ele>218.5</ele>
        <time>2012-09-15T11:34:52.000Z</time>
      </trkpt>
      <trkpt lat="44.05919" lon="5.138">
        <ele>218.1</ele>
        <time>2012-09-15T11:34:53.000Z</time>
      </trkpt>
      <trkpt lat="44.05916" lon="5.13791">
        <ele>217.3</ele>
        <time>2012-09-15T11:34:54.000Z</time>
      </trkpt>
      <trkpt lat="44.05912" lon="5.13784">
        <ele>217.3</ele>
        <time>2012-09-15T11:34:55.000Z</time>
      </trkpt>
      <trkpt lat="44.05908" lon="5.13776">
        <ele>216.8</ele>
        <time>2012-09-15T11:34:56.000Z</time>
      </trkpt>
      <trkpt lat="44.05905" lon="5.13768">
        <ele>216.9</ele>
        <time>2012-09-15T11:34:57.000Z</time>
      </trkpt>
      <trkpt lat="44.05903" lon="5.1376">
        <ele>216.5</ele>
        <time>2012-09-15T11:34:58.000Z</time>
      </trkpt>
      <trkpt lat="44.059" lon="5.13751">
        <ele>216.3</ele>
        <time>2012-09-15T11:34:59.000Z</time>
      </trkpt>
      <trkpt lat="44.05897" lon="5.13741">
        <ele>215.7</ele>
        <time>2012-09-15T11:35:00.000Z</time>
      </trkpt>
      <trkpt lat="44.05894" lon="5.13732">
        <ele>215.4</ele>
        <time>2012-09-15T11:35:01.000Z</time>
      </trkpt>
      <trkpt lat="44.05891" lon="5.13724">
        <ele>215</ele>
        <time>2012-09-15T11:35:02.000Z</time>
      </trkpt>
      <trkpt lat="44.05888" lon="5.13715">
        <ele>215.5</ele>
        <time>2012-09-15T11:35:03.000Z</time>
      </trkpt>
      <trkpt lat="44.05886" lon="5.13707">
        <ele>215.5</ele>
        <time>2012-09-15T11:35:04.000Z</time>
      </trkpt>
      <trkpt lat="44.05884" lon="5.13698">
        <ele>214.9</ele>
        <time>2012-09-15T11:35:05.000Z</time>
      </trkpt>
      <trkpt lat="44.05882" lon="5.1369">
        <ele>215</ele>
        <time>2012-09-15T11:35:06.000Z</time>
      </trkpt>
      <trkpt lat="44.05881" lon="5.13681">
        <ele>214.7</ele>
        <time>2012-09-15T11:35:07.000Z</time>
      </trkpt>
      <trkpt lat="44.0588" lon="5.13673">
        <ele>214.6</ele>
        <time>2012-09-15T11:35:08.000Z</time>
      </trkpt>
      <trkpt lat="44.05879" lon="5.13665">
        <ele>214.8</ele>
        <time>2012-09-15T11:35:09.000Z</time>
      </trkpt>
      <trkpt lat="44.05877" lon="5.13656">
        <ele>214.8</ele>
        <time>2012-09-15T11:35:10.000Z</time>
      </trkpt>
      <trkpt lat="44.05874" lon="5.13647">
        <ele>215.2</ele>
        <time>2012-09-15T11:35:11.000Z</time>
      </trkpt>
      <trkpt lat="44.05871" lon="5.13638">
        <ele>215.4</ele>
        <time>2012-09-15T11:35:12.000Z</time>
      </trkpt>
      <trkpt lat="44.0587" lon="5.1363">
        <ele>215.5</ele>
        <time>2012-09-15T11:35:13.000Z</time>
      </trkpt>
      <trkpt lat="44.05868" lon="5.13621">
        <ele>215.7</ele>
        <time>2012-09-15T11:35:14.000Z</time>
      </trkpt>
      <trkpt lat="44.05866" lon="5.13614">
        <ele>215.3</ele>
        <time>2012-09-15T11:35:15.000Z</time>
      </trkpt>
      <trkpt lat="44.05865" lon="5.13606">
        <ele>215.1</ele>
        <time>2012-09-15T11:35:16.000Z</time>
      </trkpt>
      <trkpt lat="44.05862" lon="5.13597">
        <ele>215</ele>
        <time>2012-09-15T11:35:17.000Z</time>
      </trkpt>
      <trkpt lat="44.05859" lon="5.13588">
        <ele>214.9</ele>
        <time>2012-09-15T11:35:18.000Z</time>
      </trkpt>
      <trkpt lat="44.05857" lon="5.13579">
        <ele>214.6</ele>
        <time>2012-09-15T11:35:19.000Z</time>
      </trkpt>
      <trkpt lat="44.05857" lon="5.13571">
        <ele>214.3</ele>
        <time>2012-09-15T11:35:20.000Z</time>
      </trkpt>
      <trkpt lat="44.05856" lon="5.13562">
        <ele>213.7</ele>
        <time>2012-09-15T11:35:21.000Z</time>
      </trkpt>
      <trkpt lat="44.05853" lon="5.13553">
        <ele>213.8</ele>
        <time>2012-09-15T11:35:22.000Z</time>
      </trkpt>
      <trkpt lat="44.05851" lon="5.13544">
        <ele>213.7</ele>
        <time>2012-09-15T11:35:23.000Z</time>
      </trkpt>
      <trkpt lat="44.05849" lon="5.13535">
        <ele>213.9</ele>
        <time>2012-09-15T11:35:24.000Z</time>
      </trkpt>
      <trkpt lat="44.05846" lon="5.13525">
        <ele>213.3</ele>
        <time>2012-09-15T11:35:25.000Z</time>
      </trkpt>
      <trkpt lat="44.05842" lon="5.13517">
        <ele>212.5</ele>
        <time>2012-09-15T11:35:26.000Z</time>
      </trkpt>
      <trkpt lat="44.05838" lon="5.13508">
        <ele>212.5</ele>
        <time>2012-09-15T11:35:27.000Z</time>
      </trkpt>
      <trkpt lat="44.05836" lon="5.13499">
        <ele>212.8</ele>
        <time>2012-09-15T11:35:28.000Z</time>
      </trkpt>
      <trkpt lat="44.05835" lon="5.1349">
        <ele>212.9</ele>
        <time>2012-09-15T11:35:29.000Z</time>
      </trkpt>
      <trkpt lat="44.05832" lon="5.1348">
        <ele>212.8</ele>
        <time>2012-09-15T11:35:30.000Z</time>
      </trkpt>
      <trkpt lat="44.05827" lon="5.13471">
        <ele>212.4</ele>
        <time>2012-09-15T11:35:31.000Z</time>
      </trkpt>
      <trkpt lat="44.05824" lon="5.13462">
        <ele>212.3</ele>
        <time>2012-09-15T11:35:32.000Z</time>
      </trkpt>
      <trkpt lat="44.05822" lon="5.13453">
        <ele>211.8</ele>
        <time>2012-09-15T11:35:33.000Z</time>
      </trkpt>
      <trkpt lat="44.05818" lon="5.13444">
        <ele>211.6</ele>
        <time>2012-09-15T11:35:34.000Z</time>
      </trkpt>
      <trkpt lat="44.05816" lon="5.13436">
        <ele>211.5</ele>
        <time>2012-09-15T11:35:35.000Z</time>
      </trkpt>
      <trkpt lat="44.05813" lon="5.13427">
        <ele>211.5</ele>
        <time>2012-09-15T11:35:36.000Z</time>
      </trkpt>
      <trkpt lat="44.0581" lon="5.13418">
        <ele>211.5</ele>
        <time>2012-09-15T11:35:37.000Z</time>
      </trkpt>
      <trkpt lat="44.05808" lon="5.13409">
        <ele>211.6</ele>
        <time>2012-09-15T11:35:38.000Z</time>
      </trkpt>
      <trkpt lat="44.05807" lon="5.134">
        <ele>211.8</ele>
        <time>2012-09-15T11:35:39.000Z</time>
      </trkpt>
      <trkpt lat="44.05805" lon="5.13391">
        <ele>212</ele>
        <time>2012-09-15T11:35:40.000Z</time>
      </trkpt>
      <trkpt lat="44.05804" lon="5.13381">
        <ele>211.8</ele>
        <time>2012-09-15T11:35:41.000Z</time>
      </trkpt>
      <trkpt lat="44.05803" lon="5.13372">
        <ele>211.4</ele>
        <time>2012-09-15T11:35:42.000Z</time>
      </trkpt>
      <trkpt lat="44.05805" lon="5.13362">
        <ele>212.2</ele>
        <time>2012-09-15T11:35:43.000Z</time>
      </trkpt>
      <trkpt lat="44.05804" lon="5.13352">
        <ele>212.2</ele>
        <time>2012-09-15T11:35:44.000Z</time>
      </trkpt>
      <trkpt lat="44.05804" lon="5.13343">
        <ele>211.9</ele>
        <time>2012-09-15T11:35:45.000Z</time>
      </trkpt>
      <trkpt lat="44.05803" lon="5.13334">
        <ele>211.7</ele>
        <time>2012-09-15T11:35:46.000Z</time>
      </trkpt>
      <trkpt lat="44.05802" lon="5.13325">
        <ele>212.4</ele>
        <time>2012-09-15T11:35:47.000Z</time>
      </trkpt>
      <trkpt lat="44.05801" lon="5.13317">
        <ele>212.6</ele>
        <time>2012-09-15T11:35:48.000Z</time>
      </trkpt>
      <trkpt lat="44.058" lon="5.13308">
        <ele>212.6</ele>
        <time>2012-09-15T11:35:49.000Z</time>
      </trkpt>
      <trkpt lat="44.05799" lon="5.133">
        <ele>212.6</ele>
        <time>2012-09-15T11:35:50.000Z</time>
      </trkpt>
      <trkpt lat="44.05798" lon="5.13291">
        <ele>212.7</ele>
        <time>2012-09-15T11:35:51.000Z</time>
      </trkpt>
      <trkpt lat="44.05797" lon="5.13283">
        <ele>212.7</ele>
        <time>2012-09-15T11:35:52.000Z</time>
      </trkpt>
      <trkpt lat="44.05796" lon="5.13275">
        <ele>212.7</ele>
        <time>2012-09-15T11:35:53.000Z</time>
      </trkpt>
      <trkpt lat="44.05795" lon="5.13267">
        <ele>212.6</ele>
        <time>2012-09-15T11:35:54.000Z</time>
      </trkpt>
      <trkpt lat="44.05794" lon="5.13259">
        <ele>212.7</ele>
        <time>2012-09-15T11:35:55.000Z</time>
      </trkpt>
      <trkpt lat="44.05793" lon="5.1325">
        <ele>212.4</ele>
        <time>2012-09-15T11:35:56.000Z</time>
      </trkpt>
      <trkpt lat="44.05792" lon="5.13242">
        <ele>212.2</ele>
        <time>2012-09-15T11:35:57.000Z</time>
      </trkpt>
      <trkpt lat="44.05792" lon="5.13234">
        <ele>212.2</ele>
        <time>2012-09-15T11:35:58.000Z</time>
      </trkpt>
      <trkpt lat="44.0579" lon="5.13225">
        <ele>212.3</ele>
        <time>2012-09-15T11:35:59.000Z</time>
      </trkpt>
      <trkpt lat="44.05789" lon="5.13216">
        <ele>212.1</ele>
        <time>2012-09-15T11:36:00.000Z</time>
      </trkpt>
      <trkpt lat="44.05786" lon="5.13206">
        <ele>212.2</ele>
        <time>2012-09-15T11:36:01.000Z</time>
      </trkpt>
      <trkpt lat="44.05784" lon="5.13198">
        <ele>212.3</ele>
        <time>2012-09-15T11:36:02.000Z</time>
      </trkpt>
      <trkpt lat="44.0578" lon="5.13188">
        <ele>212.2</ele>
        <time>2012-09-15T11:36:03.000Z</time>
      </trkpt>
      <trkpt lat="44.05777" lon="5.13179">
        <ele>211.9</ele>
        <time>2012-09-15T11:36:04.000Z</time>
      </trkpt>
      <trkpt lat="44.05773" lon="5.1317">
        <ele>212.1</ele>
        <time>2012-09-15T11:36:05.000Z</time>
      </trkpt>
      <trkpt lat="44.05768" lon="5.1316">
        <ele>211</ele>
        <time>2012-09-15T11:36:06.000Z</time>
      </trkpt>
      <trkpt lat="44.05764" lon="5.13149">
        <ele>210.9</ele>
        <time>2012-09-15T11:36:07.000Z</time>
      </trkpt>
      <trkpt lat="44.0576" lon="5.13141">
        <ele>210.9</ele>
        <time>2012-09-15T11:36:08.000Z</time>
      </trkpt>
      <trkpt lat="44.05755" lon="5.13133">
        <ele>211.2</ele>
        <time>2012-09-15T11:36:09.000Z</time>
      </trkpt>
      <trkpt lat="44.05751" lon="5.13126">
        <ele>211</ele>
        <time>2012-09-15T11:36:10.000Z</time>
      </trkpt>
      <trkpt lat="44.05745" lon="5.13119">
        <ele>210.9</ele>
        <time>2012-09-15T11:36:11.000Z</time>
      </trkpt>
      <trkpt lat="44.05739" lon="5.13112">
        <ele>210.9</ele>
        <time>2012-09-15T11:36:12.000Z</time>
      </trkpt>
      <trkpt lat="44.05732" lon="5.13107">
        <ele>210.9</ele>
        <time>2012-09-15T11:36:13.000Z</time>
      </trkpt>
      <trkpt lat="44.05726" lon="5.131">
        <ele>210.8</ele>
        <time>2012-09-15T11:36:14.000Z</time>
      </trkpt>
      <trkpt lat="44.05719" lon="5.13094">
        <ele>210.6</ele>
        <time>2012-09-15T11:36:15.000Z</time>
      </trkpt>
      <trkpt lat="44.05713" lon="5.13089">
        <ele>210.7</ele>
        <time>2012-09-15T11:36:16.000Z</time>
      </trkpt>
      <trkpt lat="44.05707" lon="5.13086">
        <ele>210.6</ele>
        <time>2012-09-15T11:36:17.000Z</time>
      </trkpt>
      <trkpt lat="44.05702" lon="5.1308">
        <ele>210.4</ele>
        <time>2012-09-15T11:36:18.000Z</time>
      </trkpt>
      <trkpt lat="44.05696" lon="5.13074">
        <ele>210.2</ele>
        <time>2012-09-15T11:36:19.000Z</time>
      </trkpt>
      <trkpt lat="44.05693" lon="5.13068">
        <ele>210.4</ele>
        <time>2012-09-15T11:36:20.000Z</time>
      </trkpt>
      <trkpt lat="44.0569" lon="5.13062">
        <ele>210.7</ele>
        <time>2012-09-15T11:36:21.000Z</time>
      </trkpt>
      <trkpt lat="44.05688" lon="5.13058">
        <ele>210.9</ele>
        <time>2012-09-15T11:36:22.000Z</time>
      </trkpt>
      <trkpt lat="44.05684" lon="5.13054">
        <ele>211</ele>
        <time>2012-09-15T11:36:24.000Z</time>
      </trkpt>
      <trkpt lat="44.05683" lon="5.1305">
        <ele>210.7</ele>
        <time>2012-09-15T11:36:26.000Z</time>
      </trkpt>
      <trkpt lat="44.05681" lon="5.13047">
        <ele>210</ele>
        <time>2012-09-15T11:36:30.000Z</time>
      </trkpt>
      <trkpt lat="44.05683" lon="5.13051">
        <ele>210.9</ele>
        <time>2012-09-15T11:37:15.000Z</time>
      </trkpt>
      <trkpt lat="44.05684" lon="5.13045">
        <ele>209.8</ele>
        <time>2012-09-15T11:37:32.000Z</time>
      </trkpt>
      <trkpt lat="44.05687" lon="5.13038">
        <ele>209.5</ele>
        <time>2012-09-15T11:37:35.000Z</time>
      </trkpt>
      <trkpt lat="44.0569" lon="5.13032">
        <ele>206.5</ele>
        <time>2012-09-15T11:37:36.000Z</time>
      </trkpt>
      <trkpt lat="44.05693" lon="5.13032">
        <ele>202.8</ele>
        <time>2012-09-15T11:37:37.000Z</time>
      </trkpt>
      <trkpt lat="44.05696" lon="5.1303">
        <ele>201.6</ele>
        <time>2012-09-15T11:37:38.000Z</time>
      </trkpt>
      <trkpt lat="44.057" lon="5.13025">
        <ele>201.6</ele>
        <time>2012-09-15T11:37:40.000Z</time>
      </trkpt>
      <trkpt lat="44.05703" lon="5.13019">
        <ele>200.4</ele>
        <time>2012-09-15T11:37:42.000Z</time>
      </trkpt>
      <trkpt lat="44.05705" lon="5.13016">
        <ele>200.9</ele>
        <time>2012-09-15T11:37:43.000Z</time>
      </trkpt>
      <trkpt lat="44.05707" lon="5.13009">
        <ele>201</ele>
        <time>2012-09-15T11:37:45.000Z</time>
      </trkpt>
      <trkpt lat="44.0571" lon="5.13002">
        <ele>200.8</ele>
        <time>2012-09-15T11:37:47.000Z</time>
      </trkpt>
      <trkpt lat="44.05712" lon="5.12998">
        <ele>201</ele>
        <time>2012-09-15T11:37:48.000Z</time>
      </trkpt>
      <trkpt lat="44.05713" lon="5.12993">
        <ele>201.3</ele>
        <time>2012-09-15T11:37:49.000Z</time>
      </trkpt>
      <trkpt lat="44.05715" lon="5.12988">
        <ele>201.4</ele>
        <time>2012-09-15T11:37:50.000Z</time>
      </trkpt>
      <trkpt lat="44.05717" lon="5.12983">
        <ele>201.3</ele>
        <time>2012-09-15T11:37:51.000Z</time>
      </trkpt>
      <trkpt lat="44.05719" lon="5.12979">
        <ele>201.8</ele>
        <time>2012-09-15T11:37:52.000Z</time>
      </trkpt>
      <trkpt lat="44.05722" lon="5.12975">
        <ele>202.3</ele>
        <time>2012-09-15T11:37:53.000Z</time>
      </trkpt>
      <trkpt lat="44.05724" lon="5.12971">
        <ele>202.6</ele>
        <time>2012-09-15T11:37:54.000Z</time>
      </trkpt>
      <trkpt lat="44.05725" lon="5.12966">
        <ele>202.3</ele>
        <time>2012-09-15T11:37:55.000Z</time>
      </trkpt>
      <trkpt lat="44.05726" lon="5.12962">
        <ele>202.3</ele>
        <time>2012-09-15T11:37:56.000Z</time>
      </trkpt>
      <trkpt lat="44.05728" lon="5.12958">
        <ele>202.5</ele>
        <time>2012-09-15T11:37:57.000Z</time>
      </trkpt>
      <trkpt lat="44.0573" lon="5.12952">
        <ele>202.4</ele>
        <time>2012-09-15T11:37:58.000Z</time>
      </trkpt>
      <trkpt lat="44.05732" lon="5.12947">
        <ele>201.8</ele>
        <time>2012-09-15T11:37:59.000Z</time>
      </trkpt>
      <trkpt lat="44.05734" lon="5.12942">
        <ele>201.9</ele>
        <time>2012-09-15T11:38:00.000Z</time>
      </trkpt>
      <trkpt lat="44.05736" lon="5.12935">
        <ele>201.8</ele>
        <time>2012-09-15T11:38:01.000Z</time>
      </trkpt>
      <trkpt lat="44.05739" lon="5.1293">
        <ele>201.4</ele>
        <time>2012-09-15T11:38:02.000Z</time>
      </trkpt>
      <trkpt lat="44.05742" lon="5.12924">
        <ele>201.4</ele>
        <time>2012-09-15T11:38:03.000Z</time>
      </trkpt>
      <trkpt lat="44.05744" lon="5.12919">
        <ele>201.7</ele>
        <time>2012-09-15T11:38:04.000Z</time>
      </trkpt>
      <trkpt lat="44.05747" lon="5.12913">
        <ele>201.1</ele>
        <time>2012-09-15T11:38:05.000Z</time>
      </trkpt>
      <trkpt lat="44.05748" lon="5.12907">
        <ele>200.7</ele>
        <time>2012-09-15T11:38:06.000Z</time>
      </trkpt>
      <trkpt lat="44.05751" lon="5.129">
        <ele>201.3</ele>
        <time>2012-09-15T11:38:07.000Z</time>
      </trkpt>
      <trkpt lat="44.05754" lon="5.12894">
        <ele>201.8</ele>
        <time>2012-09-15T11:38:08.000Z</time>
      </trkpt>
      <trkpt lat="44.05756" lon="5.12887">
        <ele>202</ele>
        <time>2012-09-15T11:38:09.000Z</time>
      </trkpt>
      <trkpt lat="44.05758" lon="5.1288">
        <ele>202.3</ele>
        <time>2012-09-15T11:38:10.000Z</time>
      </trkpt>
      <trkpt lat="44.0576" lon="5.12874">
        <ele>202.2</ele>
        <time>2012-09-15T11:38:11.000Z</time>
      </trkpt>
      <trkpt lat="44.05762" lon="5.12868">
        <ele>202.5</ele>
        <time>2012-09-15T11:38:12.000Z</time>
      </trkpt>
      <trkpt lat="44.05763" lon="5.1286">
        <ele>203</ele>
        <time>2012-09-15T11:38:13.000Z</time>
      </trkpt>
      <trkpt lat="44.05766" lon="5.12855">
        <ele>203.3</ele>
        <time>2012-09-15T11:38:14.000Z</time>
      </trkpt>
      <trkpt lat="44.05768" lon="5.12848">
        <ele>203.9</ele>
        <time>2012-09-15T11:38:15.000Z</time>
      </trkpt>
      <trkpt lat="44.0577" lon="5.12841">
        <ele>204.3</ele>
        <time>2012-09-15T11:38:16.000Z</time>
      </trkpt>
      <trkpt lat="44.0577" lon="5.12834">
        <ele>204</ele>
        <time>2012-09-15T11:38:17.000Z</time>
      </trkpt>
      <trkpt lat="44.05771" lon="5.12826">
        <ele>203.8</ele>
        <time>2012-09-15T11:38:18.000Z</time>
      </trkpt>
      <trkpt lat="44.05773" lon="5.12819">
        <ele>203.7</ele>
        <time>2012-09-15T11:38:19.000Z</time>
      </trkpt>
      <trkpt lat="44.05774" lon="5.12813">
        <ele>203.9</ele>
        <time>2012-09-15T11:38:20.000Z</time>
      </trkpt>
      <trkpt lat="44.05775" lon="5.12806">
        <ele>204</ele>
        <time>2012-09-15T11:38:21.000Z</time>
      </trkpt>
      <trkpt lat="44.05776" lon="5.12798">
        <ele>204.1</ele>
        <time>2012-09-15T11:38:22.000Z</time>
      </trkpt>
      <trkpt lat="44.05776" lon="5.12792">
        <ele>203.9</ele>
        <time>2012-09-15T11:38:23.000Z</time>
      </trkpt>
      <trkpt lat="44.05777" lon="5.12783">
        <ele>203.9</ele>
        <time>2012-09-15T11:38:24.000Z</time>
      </trkpt>
      <trkpt lat="44.05775" lon="5.12776">
        <ele>203.9</ele>
        <time>2012-09-15T11:38:25.000Z</time>
      </trkpt>
      <trkpt lat="44.05774" lon="5.1277">
        <ele>204.3</ele>
        <time>2012-09-15T11:38:26.000Z</time>
      </trkpt>
      <trkpt lat="44.05771" lon="5.12762">
        <ele>204.1</ele>
        <time>2012-09-15T11:38:27.000Z</time>
      </trkpt>
      <trkpt lat="44.0577" lon="5.12754">
        <ele>204.2</ele>
        <time>2012-09-15T11:38:28.000Z</time>
      </trkpt>
      <trkpt lat="44.05767" lon="5.12748">
        <ele>204.2</ele>
        <time>2012-09-15T11:38:29.000Z</time>
      </trkpt>
      <trkpt lat="44.05763" lon="5.12741">
        <ele>204.2</ele>
        <time>2012-09-15T11:38:30.000Z</time>
      </trkpt>
      <trkpt lat="44.0576" lon="5.12733">
        <ele>204.2</ele>
        <time>2012-09-15T11:38:31.000Z</time>
      </trkpt>
      <trkpt lat="44.05756" lon="5.12725">
        <ele>204.5</ele>
        <time>2012-09-15T11:38:32.000Z</time>
      </trkpt>
      <trkpt lat="44.05754" lon="5.12718">
        <ele>204.4</ele>
        <time>2012-09-15T11:38:33.000Z</time>
      </trkpt>
      <trkpt lat="44.05751" lon="5.12713">
        <ele>204</ele>
        <time>2012-09-15T11:38:34.000Z</time>
      </trkpt>
      <trkpt lat="44.05748" lon="5.12706">
        <ele>205.1</ele>
        <time>2012-09-15T11:38:35.000Z</time>
      </trkpt>
      <trkpt lat="44.05744" lon="5.12701">
        <ele>204.9</ele>
        <time>2012-09-15T11:38:36.000Z</time>
      </trkpt>
      <trkpt lat="44.0574" lon="5.12694">
        <ele>205.8</ele>
        <time>2012-09-15T11:38:37.000Z</time>
      </trkpt>
      <trkpt lat="44.05738" lon="5.12687">
        <ele>205.6</ele>
        <time>2012-09-15T11:38:38.000Z</time>
      </trkpt>
      <trkpt lat="44.05738" lon="5.1268">
        <ele>205</ele>
        <time>2012-09-15T11:38:39.000Z</time>
      </trkpt>
      <trkpt lat="44.05735" lon="5.12673">
        <ele>203.9</ele>
        <time>2012-09-15T11:38:40.000Z</time>
      </trkpt>
      <trkpt lat="44.05734" lon="5.12668">
        <ele>203.9</ele>
        <time>2012-09-15T11:38:41.000Z</time>
      </trkpt>
      <trkpt lat="44.0573" lon="5.12664">
        <ele>203.2</ele>
        <time>2012-09-15T11:38:42.000Z</time>
      </trkpt>
      <trkpt lat="44.05726" lon="5.1266">
        <ele>200.2</ele>
        <time>2012-09-15T11:38:44.000Z</time>
      </trkpt>
      <trkpt lat="44.05725" lon="5.12522">
        <ele>195.4</ele>
        <time>2012-09-15T11:39:17.000Z</time>
      </trkpt>
      <trkpt lat="44.05716" lon="5.12513">
        <ele>194.3</ele>
        <time>2012-09-15T11:39:19.000Z</time>
      </trkpt>
      <trkpt lat="44.05718" lon="5.12509">
        <ele>193.6</ele>
        <time>2012-09-15T11:39:20.000Z</time>
      </trkpt>
      <trkpt lat="44.05716" lon="5.12504">
        <ele>193.9</ele>
        <time>2012-09-15T11:39:21.000Z</time>
      </trkpt>
      <trkpt lat="44.05712" lon="5.12501">
        <ele>195.3</ele>
        <time>2012-09-15T11:39:22.000Z</time>
      </trkpt>
      <trkpt lat="44.05716" lon="5.12496">
        <ele>193.8</ele>
        <time>2012-09-15T11:39:23.000Z</time>
      </trkpt>
      <trkpt lat="44.05716" lon="5.12492">
        <ele>193.4</ele>
        <time>2012-09-15T11:39:24.000Z</time>
      </trkpt>
      <trkpt lat="44.05717" lon="5.12484">
        <ele>194.3</ele>
        <time>2012-09-15T11:39:26.000Z</time>
      </trkpt>
      <trkpt lat="44.05718" lon="5.12478">
        <ele>194.2</ele>
        <time>2012-09-15T11:39:27.000Z</time>
      </trkpt>
      <trkpt lat="44.05718" lon="5.12474">
        <ele>193.5</ele>
        <time>2012-09-15T11:39:28.000Z</time>
      </trkpt>
      <trkpt lat="44.05718" lon="5.1247">
        <ele>193.8</ele>
        <time>2012-09-15T11:39:29.000Z</time>
      </trkpt>
      <trkpt lat="44.05717" lon="5.12464">
        <ele>194.6</ele>
        <time>2012-09-15T11:39:31.000Z</time>
      </trkpt>
      <trkpt lat="44.05717" lon="5.12457">
        <ele>194.4</ele>
        <time>2012-09-15T11:39:33.000Z</time>
      </trkpt>
      <trkpt lat="44.05716" lon="5.12452">
        <ele>194.9</ele>
        <time>2012-09-15T11:39:36.000Z</time>
      </trkpt>
      <trkpt lat="44.05714" lon="5.12448">
        <ele>194.8</ele>
        <time>2012-09-15T11:39:37.000Z</time>
      </trkpt>
      <trkpt lat="44.05714" lon="5.12443">
        <ele>194.6</ele>
        <time>2012-09-15T11:39:38.000Z</time>
      </trkpt>
      <trkpt lat="44.05712" lon="5.12439">
        <ele>194.8</ele>
        <time>2012-09-15T11:39:39.000Z</time>
      </trkpt>
      <trkpt lat="44.0571" lon="5.12434">
        <ele>196.6</ele>
        <time>2012-09-15T11:39:40.000Z</time>
      </trkpt>
      <trkpt lat="44.05708" lon="5.12428">
        <ele>195.8</ele>
        <time>2012-09-15T11:39:41.000Z</time>
      </trkpt>
      <trkpt lat="44.05707" lon="5.12423">
        <ele>195.4</ele>
        <time>2012-09-15T11:39:42.000Z</time>
      </trkpt>
      <trkpt lat="44.05705" lon="5.1242">
        <ele>195.4</ele>
        <time>2012-09-15T11:39:43.000Z</time>
      </trkpt>
      <trkpt lat="44.05704" lon="5.12416">
        <ele>194.9</ele>
        <time>2012-09-15T11:39:44.000Z</time>
      </trkpt>
      <trkpt lat="44.057" lon="5.12411">
        <ele>195</ele>
        <time>2012-09-15T11:39:46.000Z</time>
      </trkpt>
      <trkpt lat="44.05695" lon="5.12414">
        <ele>194.3</ele>
        <time>2012-09-15T11:39:47.000Z</time>
      </trkpt>
      <trkpt lat="44.05692" lon="5.12415">
        <ele>194.7</ele>
        <time>2012-09-15T11:39:48.000Z</time>
      </trkpt>
      <trkpt lat="44.05689" lon="5.12415">
        <ele>194.6</ele>
        <time>2012-09-15T11:39:49.000Z</time>
      </trkpt>
      <trkpt lat="44.05685" lon="5.12416">
        <ele>194.7</ele>
        <time>2012-09-15T11:39:50.000Z</time>
      </trkpt>
      <trkpt lat="44.05682" lon="5.12417">
        <ele>194.7</ele>
        <time>2012-09-15T11:39:51.000Z</time>
      </trkpt>
      <trkpt lat="44.05679" lon="5.12418">
        <ele>194.5</ele>
        <time>2012-09-15T11:39:52.000Z</time>
      </trkpt>
      <trkpt lat="44.05676" lon="5.12418">
        <ele>194.6</ele>
        <time>2012-09-15T11:39:53.000Z</time>
      </trkpt>
      <trkpt lat="44.05672" lon="5.12418">
        <ele>194.7</ele>
        <time>2012-09-15T11:39:54.000Z</time>
      </trkpt>
      <trkpt lat="44.05666" lon="5.12417">
        <ele>194.5</ele>
        <time>2012-09-15T11:39:56.000Z</time>
      </trkpt>
      <trkpt lat="44.05664" lon="5.12418">
        <ele>195.5</ele>
        <time>2012-09-15T11:39:59.000Z</time>
      </trkpt>
      <trkpt lat="44.05663" lon="5.12421">
        <ele>196.3</ele>
        <time>2012-09-15T11:40:06.000Z</time>
      </trkpt>
      <trkpt lat="44.05661" lon="5.12418">
        <ele>195.9</ele>
        <time>2012-09-15T11:40:53.000Z</time>
      </trkpt>
      <trkpt lat="44.05658" lon="5.1242">
        <ele>195.4</ele>
        <time>2012-09-15T11:41:50.000Z</time>
      </trkpt>
      <trkpt lat="44.05653" lon="5.12417">
        <ele>194.9</ele>
        <time>2012-09-15T11:41:58.000Z</time>
      </trkpt>
      <trkpt lat="44.0565" lon="5.12416">
        <ele>194.5</ele>
        <time>2012-09-15T11:42:02.000Z</time>
      </trkpt>
      <trkpt lat="44.05653" lon="5.12414">
        <ele>195.2</ele>
        <time>2012-09-15T11:42:05.000Z</time>
      </trkpt>
      <trkpt lat="44.0565" lon="5.12409">
        <ele>195.5</ele>
        <time>2012-09-15T11:42:09.000Z</time>
      </trkpt>
      <trkpt lat="44.05652" lon="5.12406">
        <ele>195.7</ele>
        <time>2012-09-15T11:42:16.000Z</time>
      </trkpt>
      <trkpt lat="44.05655" lon="5.12405">
        <ele>198</ele>
        <time>2012-09-15T11:42:38.000Z</time>
      </trkpt>
      <trkpt lat="44.05656" lon="5.12401">
        <ele>199.7</ele>
        <time>2012-09-15T11:42:42.000Z</time>
      </trkpt>
      <trkpt lat="44.05656" lon="5.12397">
        <ele>199</ele>
        <time>2012-09-15T11:43:06.000Z</time>
      </trkpt>
      <trkpt lat="44.05655" lon="5.12401">
        <ele>198.3</ele>
        <time>2012-09-15T11:43:08.000Z</time>
      </trkpt>
      <trkpt lat="44.05658" lon="5.12402">
        <ele>199.8</ele>
        <time>2012-09-15T11:44:05.000Z</time>
      </trkpt>
      <trkpt lat="44.05661" lon="5.12398">
        <ele>201.4</ele>
        <time>2012-09-15T11:44:07.000Z</time>
      </trkpt>
      <trkpt lat="44.0566" lon="5.12394">
        <ele>203.8</ele>
        <time>2012-09-15T11:44:12.000Z</time>
      </trkpt>
      <trkpt lat="44.0566" lon="5.12398">
        <ele>202.8</ele>
        <time>2012-09-15T11:44:51.000Z</time>
      </trkpt>
      <trkpt lat="44.05659" lon="5.12394">
        <ele>205.4</ele>
        <time>2012-09-15T11:45:08.000Z</time>
      </trkpt>
      <trkpt lat="44.0566" lon="5.12389">
        <ele>208.5</ele>
        <time>2012-09-15T11:45:57.000Z</time>
      </trkpt>
      <trkpt lat="44.05657" lon="5.12386">
        <ele>212.1</ele>
        <time>2012-09-15T11:46:55.000Z</time>
      </trkpt>
      <trkpt lat="44.05653" lon="5.1239">
        <ele>212.3</ele>
        <time>2012-09-15T11:47:03.000Z</time>
      </trkpt>
      <trkpt lat="44.05651" lon="5.12394">
        <ele>211.2</ele>
        <time>2012-09-15T11:47:05.000Z</time>
      </trkpt>
      <trkpt lat="44.05649" lon="5.124">
        <ele>208.5</ele>
        <time>2012-09-15T11:47:07.000Z</time>
      </trkpt>
      <trkpt lat="44.05648" lon="5.12404">
        <ele>205.4</ele>
        <time>2012-09-15T11:47:10.000Z</time>
      </trkpt>
      <trkpt lat="44.05651" lon="5.12406">
        <ele>203.5</ele>
        <time>2012-09-15T11:47:14.000Z</time>
      </trkpt>
      <trkpt lat="44.05647" lon="5.12407">
        <ele>201.4</ele>
        <time>2012-09-15T11:47:20.000Z</time>
      </trkpt>
    </trkseg>
  </trk>
</gpx>